<?xml version="1.0" encoding="UTF-8" standalone="no" ?>
<gpx xmlns="http://www.topografix.com/GPX/1/1" xmlns:xsi="http://www.w3.org/2001/XMLSchema-instance" xsi:schemaLocation="http://www.topografix.com/GPX/1/1 http://www.topografix.com/GPX/1/1/gpx.xsd" version="1.1" creator="VisuGPX - https://www.visugpx.com">
  <metadata>
    <name>2021-05-27 12:45:37 [Suunto App]</name>
  </metadata>
  <trk>
    <name><![CDATA[2021-05-27 12:45:37 [Suunto App]_1]]></name>
    <trkseg>
      <trkpt lat="45.61853" lon="6.77271">
        <ele>807.3</ele>
        <time>2021-05-27T10:45:37Z</time>
      </trkpt>
      <trkpt lat="45.61856" lon="6.7727">
        <ele>807.3</ele>
        <time>2021-05-27T10:45:38Z</time>
      </trkpt>
      <trkpt lat="45.61858" lon="6.7727">
        <ele>807.3</ele>
        <time>2021-05-27T10:45:39Z</time>
      </trkpt>
      <trkpt lat="45.6186" lon="6.7727">
        <ele>807.3</ele>
        <time>2021-05-27T10:45:40Z</time>
      </trkpt>
      <trkpt lat="45.61862" lon="6.77269">
        <ele>807.3</ele>
        <time>2021-05-27T10:45:41Z</time>
      </trkpt>
      <trkpt lat="45.61864" lon="6.77269">
        <ele>807.3</ele>
        <time>2021-05-27T10:45:42Z</time>
      </trkpt>
      <trkpt lat="45.61867" lon="6.77268">
        <ele>807.4</ele>
        <time>2021-05-27T10:45:43Z</time>
      </trkpt>
      <trkpt lat="45.6187" lon="6.77268">
        <ele>795</ele>
        <time>2021-05-27T10:45:44Z</time>
      </trkpt>
      <trkpt lat="45.61873" lon="6.77267">
        <ele>795.2</ele>
        <time>2021-05-27T10:45:45Z</time>
      </trkpt>
      <trkpt lat="45.61875" lon="6.77266">
        <ele>795.2</ele>
        <time>2021-05-27T10:45:46Z</time>
      </trkpt>
      <trkpt lat="45.61877" lon="6.77264">
        <ele>795.4</ele>
        <time>2021-05-27T10:45:47Z</time>
      </trkpt>
      <trkpt lat="45.6188" lon="6.77262">
        <ele>795.6</ele>
        <time>2021-05-27T10:45:48Z</time>
      </trkpt>
      <trkpt lat="45.61883" lon="6.7726">
        <ele>795.8</ele>
        <time>2021-05-27T10:45:49Z</time>
      </trkpt>
      <trkpt lat="45.61885" lon="6.77258">
        <ele>796</ele>
        <time>2021-05-27T10:45:50Z</time>
      </trkpt>
      <trkpt lat="45.61889" lon="6.77257">
        <ele>796</ele>
        <time>2021-05-27T10:45:51Z</time>
      </trkpt>
      <trkpt lat="45.61891" lon="6.77258">
        <ele>796.2</ele>
        <time>2021-05-27T10:45:52Z</time>
      </trkpt>
      <trkpt lat="45.61893" lon="6.77259">
        <ele>796.2</ele>
        <time>2021-05-27T10:45:53Z</time>
      </trkpt>
      <trkpt lat="45.61895" lon="6.77262">
        <ele>796.4</ele>
        <time>2021-05-27T10:45:54Z</time>
      </trkpt>
      <trkpt lat="45.61897" lon="6.77264">
        <ele>796.6</ele>
        <time>2021-05-27T10:45:55Z</time>
      </trkpt>
      <trkpt lat="45.619" lon="6.77266">
        <ele>796.8</ele>
        <time>2021-05-27T10:45:56Z</time>
      </trkpt>
      <trkpt lat="45.61903" lon="6.77266">
        <ele>797</ele>
        <time>2021-05-27T10:45:57Z</time>
      </trkpt>
      <trkpt lat="45.61907" lon="6.77266">
        <ele>797.2</ele>
        <time>2021-05-27T10:45:58Z</time>
      </trkpt>
      <trkpt lat="45.61911" lon="6.77264">
        <ele>797.2</ele>
        <time>2021-05-27T10:45:59Z</time>
      </trkpt>
      <trkpt lat="45.61914" lon="6.77262">
        <ele>797.4</ele>
        <time>2021-05-27T10:46:00Z</time>
      </trkpt>
      <trkpt lat="45.61917" lon="6.77259">
        <ele>797.8</ele>
        <time>2021-05-27T10:46:01Z</time>
      </trkpt>
      <trkpt lat="45.61921" lon="6.77255">
        <ele>798</ele>
        <time>2021-05-27T10:46:02Z</time>
      </trkpt>
      <trkpt lat="45.61924" lon="6.77252">
        <ele>798.2</ele>
        <time>2021-05-27T10:46:03Z</time>
      </trkpt>
      <trkpt lat="45.61927" lon="6.77247">
        <ele>798.4</ele>
        <time>2021-05-27T10:46:04Z</time>
      </trkpt>
      <trkpt lat="45.61931" lon="6.77243">
        <ele>798.4</ele>
        <time>2021-05-27T10:46:05Z</time>
      </trkpt>
      <trkpt lat="45.61934" lon="6.77239">
        <ele>798.6</ele>
        <time>2021-05-27T10:46:06Z</time>
      </trkpt>
      <trkpt lat="45.61937" lon="6.77235">
        <ele>799.2</ele>
        <time>2021-05-27T10:46:07Z</time>
      </trkpt>
      <trkpt lat="45.61941" lon="6.77232">
        <ele>799.4</ele>
        <time>2021-05-27T10:46:08Z</time>
      </trkpt>
      <trkpt lat="45.61945" lon="6.77228">
        <ele>799.6</ele>
        <time>2021-05-27T10:46:09Z</time>
      </trkpt>
      <trkpt lat="45.61948" lon="6.77224">
        <ele>799.8</ele>
        <time>2021-05-27T10:46:10Z</time>
      </trkpt>
      <trkpt lat="45.61952" lon="6.77221">
        <ele>799.8</ele>
        <time>2021-05-27T10:46:11Z</time>
      </trkpt>
      <trkpt lat="45.61956" lon="6.77218">
        <ele>800</ele>
        <time>2021-05-27T10:46:12Z</time>
      </trkpt>
      <trkpt lat="45.61959" lon="6.77218">
        <ele>800.2</ele>
        <time>2021-05-27T10:46:13Z</time>
      </trkpt>
      <trkpt lat="45.61962" lon="6.77218">
        <ele>800.4</ele>
        <time>2021-05-27T10:46:14Z</time>
      </trkpt>
      <trkpt lat="45.61964" lon="6.77218">
        <ele>802.2</ele>
        <time>2021-05-27T10:46:20Z</time>
      </trkpt>
      <trkpt lat="45.61965" lon="6.77215">
        <ele>802.4</ele>
        <time>2021-05-27T10:46:22Z</time>
      </trkpt>
      <trkpt lat="45.61967" lon="6.77214">
        <ele>802.6</ele>
        <time>2021-05-27T10:46:23Z</time>
      </trkpt>
      <trkpt lat="45.61969" lon="6.77212">
        <ele>802.8</ele>
        <time>2021-05-27T10:46:24Z</time>
      </trkpt>
      <trkpt lat="45.61972" lon="6.7721">
        <ele>802.8</ele>
        <time>2021-05-27T10:46:25Z</time>
      </trkpt>
      <trkpt lat="45.61975" lon="6.77208">
        <ele>803</ele>
        <time>2021-05-27T10:46:26Z</time>
      </trkpt>
      <trkpt lat="45.61977" lon="6.77206">
        <ele>803</ele>
        <time>2021-05-27T10:46:27Z</time>
      </trkpt>
      <trkpt lat="45.6198" lon="6.77204">
        <ele>803.2</ele>
        <time>2021-05-27T10:46:28Z</time>
      </trkpt>
      <trkpt lat="45.61983" lon="6.77202">
        <ele>803.4</ele>
        <time>2021-05-27T10:46:29Z</time>
      </trkpt>
      <trkpt lat="45.61986" lon="6.77199">
        <ele>803.4</ele>
        <time>2021-05-27T10:46:30Z</time>
      </trkpt>
      <trkpt lat="45.61989" lon="6.77197">
        <ele>803.6</ele>
        <time>2021-05-27T10:46:31Z</time>
      </trkpt>
      <trkpt lat="45.61992" lon="6.77194">
        <ele>803.6</ele>
        <time>2021-05-27T10:46:32Z</time>
      </trkpt>
      <trkpt lat="45.61995" lon="6.77192">
        <ele>804</ele>
        <time>2021-05-27T10:46:33Z</time>
      </trkpt>
      <trkpt lat="45.61998" lon="6.77189">
        <ele>804.2</ele>
        <time>2021-05-27T10:46:34Z</time>
      </trkpt>
      <trkpt lat="45.62001" lon="6.77187">
        <ele>804.4</ele>
        <time>2021-05-27T10:46:35Z</time>
      </trkpt>
      <trkpt lat="45.62003" lon="6.77184">
        <ele>804.6</ele>
        <time>2021-05-27T10:46:36Z</time>
      </trkpt>
      <trkpt lat="45.62006" lon="6.7718">
        <ele>804.8</ele>
        <time>2021-05-27T10:46:37Z</time>
      </trkpt>
      <trkpt lat="45.62008" lon="6.77178">
        <ele>805.2</ele>
        <time>2021-05-27T10:46:38Z</time>
      </trkpt>
      <trkpt lat="45.62011" lon="6.77175">
        <ele>805.6</ele>
        <time>2021-05-27T10:46:39Z</time>
      </trkpt>
      <trkpt lat="45.62013" lon="6.77171">
        <ele>806</ele>
        <time>2021-05-27T10:46:40Z</time>
      </trkpt>
      <trkpt lat="45.62016" lon="6.77168">
        <ele>806.4</ele>
        <time>2021-05-27T10:46:41Z</time>
      </trkpt>
      <trkpt lat="45.62018" lon="6.77165">
        <ele>806.8</ele>
        <time>2021-05-27T10:46:42Z</time>
      </trkpt>
      <trkpt lat="45.6202" lon="6.77162">
        <ele>807.2</ele>
        <time>2021-05-27T10:46:43Z</time>
      </trkpt>
      <trkpt lat="45.62022" lon="6.77159">
        <ele>807.6</ele>
        <time>2021-05-27T10:46:44Z</time>
      </trkpt>
      <trkpt lat="45.62023" lon="6.77156">
        <ele>808</ele>
        <time>2021-05-27T10:46:45Z</time>
      </trkpt>
      <trkpt lat="45.62024" lon="6.77153">
        <ele>808.4</ele>
        <time>2021-05-27T10:46:46Z</time>
      </trkpt>
      <trkpt lat="45.62026" lon="6.7715">
        <ele>808.6</ele>
        <time>2021-05-27T10:46:47Z</time>
      </trkpt>
      <trkpt lat="45.62027" lon="6.77147">
        <ele>809</ele>
        <time>2021-05-27T10:46:48Z</time>
      </trkpt>
      <trkpt lat="45.62028" lon="6.77144">
        <ele>809.4</ele>
        <time>2021-05-27T10:46:49Z</time>
      </trkpt>
      <trkpt lat="45.6203" lon="6.77141">
        <ele>809.8</ele>
        <time>2021-05-27T10:46:50Z</time>
      </trkpt>
      <trkpt lat="45.62032" lon="6.77139">
        <ele>810.2</ele>
        <time>2021-05-27T10:46:51Z</time>
      </trkpt>
      <trkpt lat="45.62034" lon="6.77137">
        <ele>810.4</ele>
        <time>2021-05-27T10:46:52Z</time>
      </trkpt>
      <trkpt lat="45.62036" lon="6.77135">
        <ele>810.4</ele>
        <time>2021-05-27T10:46:53Z</time>
      </trkpt>
      <trkpt lat="45.6204" lon="6.77135">
        <ele>810.6</ele>
        <time>2021-05-27T10:46:54Z</time>
      </trkpt>
      <trkpt lat="45.62043" lon="6.77136">
        <ele>810.6</ele>
        <time>2021-05-27T10:46:55Z</time>
      </trkpt>
      <trkpt lat="45.62046" lon="6.77139">
        <ele>811</ele>
        <time>2021-05-27T10:46:56Z</time>
      </trkpt>
      <trkpt lat="45.62049" lon="6.77143">
        <ele>810.8</ele>
        <time>2021-05-27T10:46:57Z</time>
      </trkpt>
      <trkpt lat="45.62052" lon="6.77148">
        <ele>810.8</ele>
        <time>2021-05-27T10:46:58Z</time>
      </trkpt>
      <trkpt lat="45.62054" lon="6.77154">
        <ele>810.8</ele>
        <time>2021-05-27T10:46:59Z</time>
      </trkpt>
      <trkpt lat="45.62056" lon="6.7716">
        <ele>810.8</ele>
        <time>2021-05-27T10:47:00Z</time>
      </trkpt>
      <trkpt lat="45.62059" lon="6.77167">
        <ele>810.8</ele>
        <time>2021-05-27T10:47:01Z</time>
      </trkpt>
      <trkpt lat="45.62061" lon="6.77174">
        <ele>810.8</ele>
        <time>2021-05-27T10:47:02Z</time>
      </trkpt>
      <trkpt lat="45.62064" lon="6.77181">
        <ele>810.8</ele>
        <time>2021-05-27T10:47:03Z</time>
      </trkpt>
      <trkpt lat="45.62067" lon="6.77188">
        <ele>810.8</ele>
        <time>2021-05-27T10:47:04Z</time>
      </trkpt>
      <trkpt lat="45.6207" lon="6.77194">
        <ele>810.6</ele>
        <time>2021-05-27T10:47:05Z</time>
      </trkpt>
      <trkpt lat="45.62073" lon="6.77201">
        <ele>810.6</ele>
        <time>2021-05-27T10:47:06Z</time>
      </trkpt>
      <trkpt lat="45.62076" lon="6.77208">
        <ele>811</ele>
        <time>2021-05-27T10:47:07Z</time>
      </trkpt>
      <trkpt lat="45.62078" lon="6.77214">
        <ele>811</ele>
        <time>2021-05-27T10:47:08Z</time>
      </trkpt>
      <trkpt lat="45.62081" lon="6.77221">
        <ele>810.8</ele>
        <time>2021-05-27T10:47:09Z</time>
      </trkpt>
      <trkpt lat="45.62084" lon="6.77227">
        <ele>811</ele>
        <time>2021-05-27T10:47:10Z</time>
      </trkpt>
      <trkpt lat="45.62086" lon="6.77234">
        <ele>811</ele>
        <time>2021-05-27T10:47:11Z</time>
      </trkpt>
      <trkpt lat="45.62089" lon="6.7724">
        <ele>810.8</ele>
        <time>2021-05-27T10:47:12Z</time>
      </trkpt>
      <trkpt lat="45.62092" lon="6.77247">
        <ele>811</ele>
        <time>2021-05-27T10:47:13Z</time>
      </trkpt>
      <trkpt lat="45.62094" lon="6.77253">
        <ele>810.8</ele>
        <time>2021-05-27T10:47:14Z</time>
      </trkpt>
      <trkpt lat="45.62097" lon="6.7726">
        <ele>810.6</ele>
        <time>2021-05-27T10:47:15Z</time>
      </trkpt>
      <trkpt lat="45.621" lon="6.77266">
        <ele>810.6</ele>
        <time>2021-05-27T10:47:16Z</time>
      </trkpt>
      <trkpt lat="45.62102" lon="6.77273">
        <ele>810.4</ele>
        <time>2021-05-27T10:47:17Z</time>
      </trkpt>
      <trkpt lat="45.62105" lon="6.7728">
        <ele>810.4</ele>
        <time>2021-05-27T10:47:18Z</time>
      </trkpt>
      <trkpt lat="45.62108" lon="6.77287">
        <ele>810.2</ele>
        <time>2021-05-27T10:47:19Z</time>
      </trkpt>
      <trkpt lat="45.6211" lon="6.77294">
        <ele>810</ele>
        <time>2021-05-27T10:47:20Z</time>
      </trkpt>
      <trkpt lat="45.62113" lon="6.773">
        <ele>809.8</ele>
        <time>2021-05-27T10:47:21Z</time>
      </trkpt>
      <trkpt lat="45.62116" lon="6.77308">
        <ele>810</ele>
        <time>2021-05-27T10:47:22Z</time>
      </trkpt>
      <trkpt lat="45.6212" lon="6.77315">
        <ele>809.8</ele>
        <time>2021-05-27T10:47:23Z</time>
      </trkpt>
      <trkpt lat="45.62124" lon="6.77323">
        <ele>809.6</ele>
        <time>2021-05-27T10:47:24Z</time>
      </trkpt>
      <trkpt lat="45.62126" lon="6.7733">
        <ele>809.4</ele>
        <time>2021-05-27T10:47:25Z</time>
      </trkpt>
      <trkpt lat="45.6213" lon="6.77338">
        <ele>809.4</ele>
        <time>2021-05-27T10:47:26Z</time>
      </trkpt>
      <trkpt lat="45.62133" lon="6.77346">
        <ele>809.6</ele>
        <time>2021-05-27T10:47:27Z</time>
      </trkpt>
      <trkpt lat="45.62136" lon="6.77355">
        <ele>809.4</ele>
        <time>2021-05-27T10:47:28Z</time>
      </trkpt>
      <trkpt lat="45.62139" lon="6.77363">
        <ele>809.2</ele>
        <time>2021-05-27T10:47:29Z</time>
      </trkpt>
      <trkpt lat="45.62142" lon="6.77372">
        <ele>809</ele>
        <time>2021-05-27T10:47:30Z</time>
      </trkpt>
      <trkpt lat="45.62145" lon="6.7738">
        <ele>808.6</ele>
        <time>2021-05-27T10:47:31Z</time>
      </trkpt>
      <trkpt lat="45.62148" lon="6.77388">
        <ele>808.4</ele>
        <time>2021-05-27T10:47:32Z</time>
      </trkpt>
      <trkpt lat="45.62151" lon="6.77397">
        <ele>808</ele>
        <time>2021-05-27T10:47:33Z</time>
      </trkpt>
      <trkpt lat="45.62154" lon="6.77406">
        <ele>807.8</ele>
        <time>2021-05-27T10:47:34Z</time>
      </trkpt>
      <trkpt lat="45.62157" lon="6.77414">
        <ele>807.6</ele>
        <time>2021-05-27T10:47:35Z</time>
      </trkpt>
      <trkpt lat="45.6216" lon="6.77423">
        <ele>807.6</ele>
        <time>2021-05-27T10:47:36Z</time>
      </trkpt>
      <trkpt lat="45.62163" lon="6.77431">
        <ele>807.4</ele>
        <time>2021-05-27T10:47:37Z</time>
      </trkpt>
      <trkpt lat="45.62167" lon="6.7744">
        <ele>807.2</ele>
        <time>2021-05-27T10:47:38Z</time>
      </trkpt>
      <trkpt lat="45.6217" lon="6.77449">
        <ele>807</ele>
        <time>2021-05-27T10:47:39Z</time>
      </trkpt>
      <trkpt lat="45.62173" lon="6.77458">
        <ele>807</ele>
        <time>2021-05-27T10:47:40Z</time>
      </trkpt>
      <trkpt lat="45.62177" lon="6.77466">
        <ele>807</ele>
        <time>2021-05-27T10:47:41Z</time>
      </trkpt>
      <trkpt lat="45.6218" lon="6.77475">
        <ele>807</ele>
        <time>2021-05-27T10:47:42Z</time>
      </trkpt>
      <trkpt lat="45.62184" lon="6.77484">
        <ele>807</ele>
        <time>2021-05-27T10:47:43Z</time>
      </trkpt>
      <trkpt lat="45.62187" lon="6.77492">
        <ele>807.2</ele>
        <time>2021-05-27T10:47:44Z</time>
      </trkpt>
      <trkpt lat="45.62191" lon="6.77501">
        <ele>807</ele>
        <time>2021-05-27T10:47:45Z</time>
      </trkpt>
      <trkpt lat="45.62195" lon="6.77509">
        <ele>807.4</ele>
        <time>2021-05-27T10:47:46Z</time>
      </trkpt>
      <trkpt lat="45.62198" lon="6.77518">
        <ele>807.6</ele>
        <time>2021-05-27T10:47:47Z</time>
      </trkpt>
      <trkpt lat="45.62201" lon="6.77526">
        <ele>807.8</ele>
        <time>2021-05-27T10:47:48Z</time>
      </trkpt>
      <trkpt lat="45.62205" lon="6.77534">
        <ele>807.4</ele>
        <time>2021-05-27T10:47:49Z</time>
      </trkpt>
      <trkpt lat="45.62208" lon="6.77542">
        <ele>807.2</ele>
        <time>2021-05-27T10:47:50Z</time>
      </trkpt>
      <trkpt lat="45.62212" lon="6.7755">
        <ele>807</ele>
        <time>2021-05-27T10:47:51Z</time>
      </trkpt>
      <trkpt lat="45.62215" lon="6.77557">
        <ele>807</ele>
        <time>2021-05-27T10:47:52Z</time>
      </trkpt>
      <trkpt lat="45.62219" lon="6.77564">
        <ele>807</ele>
        <time>2021-05-27T10:47:53Z</time>
      </trkpt>
      <trkpt lat="45.62222" lon="6.77572">
        <ele>806.8</ele>
        <time>2021-05-27T10:47:54Z</time>
      </trkpt>
      <trkpt lat="45.62225" lon="6.77579">
        <ele>807</ele>
        <time>2021-05-27T10:47:55Z</time>
      </trkpt>
      <trkpt lat="45.62228" lon="6.77586">
        <ele>807</ele>
        <time>2021-05-27T10:47:56Z</time>
      </trkpt>
      <trkpt lat="45.62232" lon="6.77594">
        <ele>807.2</ele>
        <time>2021-05-27T10:47:57Z</time>
      </trkpt>
      <trkpt lat="45.62235" lon="6.77601">
        <ele>807.2</ele>
        <time>2021-05-27T10:47:58Z</time>
      </trkpt>
      <trkpt lat="45.62238" lon="6.77608">
        <ele>807.4</ele>
        <time>2021-05-27T10:47:59Z</time>
      </trkpt>
      <trkpt lat="45.62242" lon="6.77615">
        <ele>807.4</ele>
        <time>2021-05-27T10:48:00Z</time>
      </trkpt>
      <trkpt lat="45.62245" lon="6.77622">
        <ele>807.4</ele>
        <time>2021-05-27T10:48:01Z</time>
      </trkpt>
      <trkpt lat="45.62249" lon="6.7763">
        <ele>807.6</ele>
        <time>2021-05-27T10:48:02Z</time>
      </trkpt>
      <trkpt lat="45.62252" lon="6.77637">
        <ele>807.6</ele>
        <time>2021-05-27T10:48:03Z</time>
      </trkpt>
      <trkpt lat="45.62255" lon="6.77644">
        <ele>807.6</ele>
        <time>2021-05-27T10:48:04Z</time>
      </trkpt>
      <trkpt lat="45.62258" lon="6.77651">
        <ele>807.8</ele>
        <time>2021-05-27T10:48:05Z</time>
      </trkpt>
      <trkpt lat="45.62261" lon="6.77658">
        <ele>807.8</ele>
        <time>2021-05-27T10:48:06Z</time>
      </trkpt>
      <trkpt lat="45.62265" lon="6.77665">
        <ele>807.8</ele>
        <time>2021-05-27T10:48:07Z</time>
      </trkpt>
      <trkpt lat="45.62268" lon="6.77672">
        <ele>807.8</ele>
        <time>2021-05-27T10:48:08Z</time>
      </trkpt>
      <trkpt lat="45.62271" lon="6.77679">
        <ele>807.8</ele>
        <time>2021-05-27T10:48:09Z</time>
      </trkpt>
      <trkpt lat="45.62275" lon="6.77686">
        <ele>808</ele>
        <time>2021-05-27T10:48:10Z</time>
      </trkpt>
      <trkpt lat="45.62279" lon="6.77693">
        <ele>808</ele>
        <time>2021-05-27T10:48:11Z</time>
      </trkpt>
      <trkpt lat="45.62282" lon="6.77701">
        <ele>808</ele>
        <time>2021-05-27T10:48:12Z</time>
      </trkpt>
      <trkpt lat="45.62285" lon="6.77708">
        <ele>807.8</ele>
        <time>2021-05-27T10:48:13Z</time>
      </trkpt>
      <trkpt lat="45.62289" lon="6.77715">
        <ele>808</ele>
        <time>2021-05-27T10:48:14Z</time>
      </trkpt>
      <trkpt lat="45.62292" lon="6.77722">
        <ele>808</ele>
        <time>2021-05-27T10:48:15Z</time>
      </trkpt>
      <trkpt lat="45.62295" lon="6.77729">
        <ele>808</ele>
        <time>2021-05-27T10:48:16Z</time>
      </trkpt>
      <trkpt lat="45.62299" lon="6.77736">
        <ele>808</ele>
        <time>2021-05-27T10:48:17Z</time>
      </trkpt>
      <trkpt lat="45.62302" lon="6.77744">
        <ele>808</ele>
        <time>2021-05-27T10:48:18Z</time>
      </trkpt>
      <trkpt lat="45.62305" lon="6.77751">
        <ele>808</ele>
        <time>2021-05-27T10:48:19Z</time>
      </trkpt>
      <trkpt lat="45.62308" lon="6.77758">
        <ele>808.2</ele>
        <time>2021-05-27T10:48:20Z</time>
      </trkpt>
      <trkpt lat="45.62311" lon="6.77766">
        <ele>808.4</ele>
        <time>2021-05-27T10:48:21Z</time>
      </trkpt>
      <trkpt lat="45.62314" lon="6.77773">
        <ele>808.6</ele>
        <time>2021-05-27T10:48:22Z</time>
      </trkpt>
      <trkpt lat="45.62317" lon="6.77781">
        <ele>808.4</ele>
        <time>2021-05-27T10:48:23Z</time>
      </trkpt>
      <trkpt lat="45.6232" lon="6.77789">
        <ele>808.4</ele>
        <time>2021-05-27T10:48:24Z</time>
      </trkpt>
      <trkpt lat="45.62323" lon="6.77796">
        <ele>808.6</ele>
        <time>2021-05-27T10:48:25Z</time>
      </trkpt>
      <trkpt lat="45.62325" lon="6.77804">
        <ele>808.6</ele>
        <time>2021-05-27T10:48:26Z</time>
      </trkpt>
      <trkpt lat="45.62328" lon="6.77811">
        <ele>808.6</ele>
        <time>2021-05-27T10:48:27Z</time>
      </trkpt>
      <trkpt lat="45.62331" lon="6.77819">
        <ele>809</ele>
        <time>2021-05-27T10:48:28Z</time>
      </trkpt>
      <trkpt lat="45.62332" lon="6.77827">
        <ele>809.4</ele>
        <time>2021-05-27T10:48:29Z</time>
      </trkpt>
      <trkpt lat="45.62334" lon="6.77836">
        <ele>809.8</ele>
        <time>2021-05-27T10:48:30Z</time>
      </trkpt>
      <trkpt lat="45.62336" lon="6.77844">
        <ele>809.8</ele>
        <time>2021-05-27T10:48:31Z</time>
      </trkpt>
      <trkpt lat="45.62338" lon="6.77852">
        <ele>810</ele>
        <time>2021-05-27T10:48:32Z</time>
      </trkpt>
      <trkpt lat="45.62342" lon="6.77857">
        <ele>810.2</ele>
        <time>2021-05-27T10:48:33Z</time>
      </trkpt>
      <trkpt lat="45.62347" lon="6.7786">
        <ele>810.4</ele>
        <time>2021-05-27T10:48:34Z</time>
      </trkpt>
      <trkpt lat="45.62353" lon="6.77862">
        <ele>810.4</ele>
        <time>2021-05-27T10:48:35Z</time>
      </trkpt>
      <trkpt lat="45.62359" lon="6.77862">
        <ele>810.6</ele>
        <time>2021-05-27T10:48:36Z</time>
      </trkpt>
      <trkpt lat="45.62365" lon="6.77862">
        <ele>810.6</ele>
        <time>2021-05-27T10:48:37Z</time>
      </trkpt>
      <trkpt lat="45.62372" lon="6.77864">
        <ele>810.8</ele>
        <time>2021-05-27T10:48:38Z</time>
      </trkpt>
      <trkpt lat="45.62377" lon="6.77866">
        <ele>811</ele>
        <time>2021-05-27T10:48:39Z</time>
      </trkpt>
      <trkpt lat="45.62382" lon="6.7787">
        <ele>811.2</ele>
        <time>2021-05-27T10:48:40Z</time>
      </trkpt>
      <trkpt lat="45.62388" lon="6.77875">
        <ele>811.4</ele>
        <time>2021-05-27T10:48:41Z</time>
      </trkpt>
      <trkpt lat="45.62392" lon="6.7788">
        <ele>811.4</ele>
        <time>2021-05-27T10:48:42Z</time>
      </trkpt>
      <trkpt lat="45.62397" lon="6.77886">
        <ele>811.4</ele>
        <time>2021-05-27T10:48:43Z</time>
      </trkpt>
      <trkpt lat="45.62402" lon="6.77892">
        <ele>811.8</ele>
        <time>2021-05-27T10:48:44Z</time>
      </trkpt>
      <trkpt lat="45.62406" lon="6.77897">
        <ele>812</ele>
        <time>2021-05-27T10:48:45Z</time>
      </trkpt>
      <trkpt lat="45.62412" lon="6.77902">
        <ele>812.4</ele>
        <time>2021-05-27T10:48:46Z</time>
      </trkpt>
      <trkpt lat="45.62416" lon="6.77908">
        <ele>812.4</ele>
        <time>2021-05-27T10:48:47Z</time>
      </trkpt>
      <trkpt lat="45.62421" lon="6.77913">
        <ele>812.8</ele>
        <time>2021-05-27T10:48:48Z</time>
      </trkpt>
      <trkpt lat="45.62426" lon="6.77918">
        <ele>813.2</ele>
        <time>2021-05-27T10:48:49Z</time>
      </trkpt>
      <trkpt lat="45.62431" lon="6.77924">
        <ele>813.6</ele>
        <time>2021-05-27T10:48:50Z</time>
      </trkpt>
      <trkpt lat="45.62435" lon="6.7793">
        <ele>813.8</ele>
        <time>2021-05-27T10:48:51Z</time>
      </trkpt>
      <trkpt lat="45.6244" lon="6.77935">
        <ele>814</ele>
        <time>2021-05-27T10:48:52Z</time>
      </trkpt>
      <trkpt lat="45.62444" lon="6.7794">
        <ele>814.4</ele>
        <time>2021-05-27T10:48:53Z</time>
      </trkpt>
      <trkpt lat="45.62449" lon="6.77945">
        <ele>814.8</ele>
        <time>2021-05-27T10:48:54Z</time>
      </trkpt>
      <trkpt lat="45.62453" lon="6.7795">
        <ele>815</ele>
        <time>2021-05-27T10:48:55Z</time>
      </trkpt>
      <trkpt lat="45.62458" lon="6.77955">
        <ele>815.2</ele>
        <time>2021-05-27T10:48:56Z</time>
      </trkpt>
      <trkpt lat="45.62463" lon="6.7796">
        <ele>815.4</ele>
        <time>2021-05-27T10:48:57Z</time>
      </trkpt>
      <trkpt lat="45.62467" lon="6.77965">
        <ele>815.6</ele>
        <time>2021-05-27T10:48:58Z</time>
      </trkpt>
      <trkpt lat="45.62472" lon="6.7797">
        <ele>816</ele>
        <time>2021-05-27T10:48:59Z</time>
      </trkpt>
      <trkpt lat="45.62476" lon="6.77976">
        <ele>816.2</ele>
        <time>2021-05-27T10:49:00Z</time>
      </trkpt>
      <trkpt lat="45.6248" lon="6.77981">
        <ele>816.4</ele>
        <time>2021-05-27T10:49:01Z</time>
      </trkpt>
      <trkpt lat="45.62484" lon="6.77986">
        <ele>816.8</ele>
        <time>2021-05-27T10:49:02Z</time>
      </trkpt>
      <trkpt lat="45.62489" lon="6.77992">
        <ele>817</ele>
        <time>2021-05-27T10:49:03Z</time>
      </trkpt>
      <trkpt lat="45.62492" lon="6.77998">
        <ele>817.4</ele>
        <time>2021-05-27T10:49:04Z</time>
      </trkpt>
      <trkpt lat="45.62496" lon="6.78003">
        <ele>817.6</ele>
        <time>2021-05-27T10:49:05Z</time>
      </trkpt>
      <trkpt lat="45.625" lon="6.78009">
        <ele>817.8</ele>
        <time>2021-05-27T10:49:06Z</time>
      </trkpt>
      <trkpt lat="45.62503" lon="6.78015">
        <ele>818</ele>
        <time>2021-05-27T10:49:07Z</time>
      </trkpt>
      <trkpt lat="45.62507" lon="6.78021">
        <ele>818.2</ele>
        <time>2021-05-27T10:49:08Z</time>
      </trkpt>
      <trkpt lat="45.6251" lon="6.78028">
        <ele>818.6</ele>
        <time>2021-05-27T10:49:09Z</time>
      </trkpt>
      <trkpt lat="45.62514" lon="6.78034">
        <ele>818.6</ele>
        <time>2021-05-27T10:49:10Z</time>
      </trkpt>
      <trkpt lat="45.62517" lon="6.78041">
        <ele>818.8</ele>
        <time>2021-05-27T10:49:11Z</time>
      </trkpt>
      <trkpt lat="45.6252" lon="6.78048">
        <ele>819.2</ele>
        <time>2021-05-27T10:49:12Z</time>
      </trkpt>
      <trkpt lat="45.62524" lon="6.78055">
        <ele>819.4</ele>
        <time>2021-05-27T10:49:13Z</time>
      </trkpt>
      <trkpt lat="45.62526" lon="6.78062">
        <ele>819.6</ele>
        <time>2021-05-27T10:49:14Z</time>
      </trkpt>
      <trkpt lat="45.62529" lon="6.78068">
        <ele>819.8</ele>
        <time>2021-05-27T10:49:15Z</time>
      </trkpt>
      <trkpt lat="45.62532" lon="6.78075">
        <ele>820</ele>
        <time>2021-05-27T10:49:16Z</time>
      </trkpt>
      <trkpt lat="45.62534" lon="6.78082">
        <ele>820</ele>
        <time>2021-05-27T10:49:17Z</time>
      </trkpt>
      <trkpt lat="45.62537" lon="6.78089">
        <ele>820.4</ele>
        <time>2021-05-27T10:49:18Z</time>
      </trkpt>
      <trkpt lat="45.6254" lon="6.78096">
        <ele>820.6</ele>
        <time>2021-05-27T10:49:19Z</time>
      </trkpt>
      <trkpt lat="45.62543" lon="6.78103">
        <ele>820.8</ele>
        <time>2021-05-27T10:49:20Z</time>
      </trkpt>
      <trkpt lat="45.62546" lon="6.7811">
        <ele>821</ele>
        <time>2021-05-27T10:49:21Z</time>
      </trkpt>
      <trkpt lat="45.62549" lon="6.78118">
        <ele>821.2</ele>
        <time>2021-05-27T10:49:22Z</time>
      </trkpt>
      <trkpt lat="45.62551" lon="6.78125">
        <ele>821.4</ele>
        <time>2021-05-27T10:49:23Z</time>
      </trkpt>
      <trkpt lat="45.62554" lon="6.78132">
        <ele>821.4</ele>
        <time>2021-05-27T10:49:24Z</time>
      </trkpt>
      <trkpt lat="45.62556" lon="6.78139">
        <ele>821.2</ele>
        <time>2021-05-27T10:49:25Z</time>
      </trkpt>
      <trkpt lat="45.62558" lon="6.78146">
        <ele>821.4</ele>
        <time>2021-05-27T10:49:26Z</time>
      </trkpt>
      <trkpt lat="45.6256" lon="6.78154">
        <ele>821.4</ele>
        <time>2021-05-27T10:49:27Z</time>
      </trkpt>
      <trkpt lat="45.62562" lon="6.78161">
        <ele>821.6</ele>
        <time>2021-05-27T10:49:28Z</time>
      </trkpt>
      <trkpt lat="45.62564" lon="6.78169">
        <ele>821.8</ele>
        <time>2021-05-27T10:49:29Z</time>
      </trkpt>
      <trkpt lat="45.62565" lon="6.78177">
        <ele>821.8</ele>
        <time>2021-05-27T10:49:30Z</time>
      </trkpt>
      <trkpt lat="45.62566" lon="6.78185">
        <ele>822.2</ele>
        <time>2021-05-27T10:49:31Z</time>
      </trkpt>
      <trkpt lat="45.62568" lon="6.78193">
        <ele>822.2</ele>
        <time>2021-05-27T10:49:32Z</time>
      </trkpt>
      <trkpt lat="45.62568" lon="6.78201">
        <ele>822.6</ele>
        <time>2021-05-27T10:49:33Z</time>
      </trkpt>
      <trkpt lat="45.62568" lon="6.78209">
        <ele>822.6</ele>
        <time>2021-05-27T10:49:34Z</time>
      </trkpt>
      <trkpt lat="45.62569" lon="6.78218">
        <ele>823</ele>
        <time>2021-05-27T10:49:35Z</time>
      </trkpt>
      <trkpt lat="45.62569" lon="6.78226">
        <ele>823.2</ele>
        <time>2021-05-27T10:49:36Z</time>
      </trkpt>
      <trkpt lat="45.62569" lon="6.78234">
        <ele>823.2</ele>
        <time>2021-05-27T10:49:37Z</time>
      </trkpt>
      <trkpt lat="45.62569" lon="6.78241">
        <ele>823.6</ele>
        <time>2021-05-27T10:49:38Z</time>
      </trkpt>
      <trkpt lat="45.62568" lon="6.78249">
        <ele>824</ele>
        <time>2021-05-27T10:49:39Z</time>
      </trkpt>
      <trkpt lat="45.62568" lon="6.78257">
        <ele>824.4</ele>
        <time>2021-05-27T10:49:40Z</time>
      </trkpt>
      <trkpt lat="45.62567" lon="6.78265">
        <ele>824.6</ele>
        <time>2021-05-27T10:49:41Z</time>
      </trkpt>
      <trkpt lat="45.62566" lon="6.78272">
        <ele>824.8</ele>
        <time>2021-05-27T10:49:42Z</time>
      </trkpt>
      <trkpt lat="45.62566" lon="6.7828">
        <ele>825</ele>
        <time>2021-05-27T10:49:43Z</time>
      </trkpt>
      <trkpt lat="45.62566" lon="6.78287">
        <ele>825.2</ele>
        <time>2021-05-27T10:49:44Z</time>
      </trkpt>
      <trkpt lat="45.62566" lon="6.78295">
        <ele>825.6</ele>
        <time>2021-05-27T10:49:45Z</time>
      </trkpt>
      <trkpt lat="45.62566" lon="6.78302">
        <ele>825.8</ele>
        <time>2021-05-27T10:49:46Z</time>
      </trkpt>
      <trkpt lat="45.62566" lon="6.7831">
        <ele>825.8</ele>
        <time>2021-05-27T10:49:47Z</time>
      </trkpt>
      <trkpt lat="45.62567" lon="6.78317">
        <ele>826.2</ele>
        <time>2021-05-27T10:49:48Z</time>
      </trkpt>
      <trkpt lat="45.62568" lon="6.78324">
        <ele>826.4</ele>
        <time>2021-05-27T10:49:49Z</time>
      </trkpt>
      <trkpt lat="45.62569" lon="6.78332">
        <ele>826.6</ele>
        <time>2021-05-27T10:49:50Z</time>
      </trkpt>
      <trkpt lat="45.62571" lon="6.78339">
        <ele>826.8</ele>
        <time>2021-05-27T10:49:51Z</time>
      </trkpt>
      <trkpt lat="45.62572" lon="6.78346">
        <ele>827</ele>
        <time>2021-05-27T10:49:52Z</time>
      </trkpt>
      <trkpt lat="45.62573" lon="6.78352">
        <ele>827.2</ele>
        <time>2021-05-27T10:49:53Z</time>
      </trkpt>
      <trkpt lat="45.62574" lon="6.7836">
        <ele>827.4</ele>
        <time>2021-05-27T10:49:54Z</time>
      </trkpt>
      <trkpt lat="45.62576" lon="6.78366">
        <ele>827.8</ele>
        <time>2021-05-27T10:49:55Z</time>
      </trkpt>
      <trkpt lat="45.62578" lon="6.78373">
        <ele>828</ele>
        <time>2021-05-27T10:49:56Z</time>
      </trkpt>
      <trkpt lat="45.62579" lon="6.7838">
        <ele>828.2</ele>
        <time>2021-05-27T10:49:57Z</time>
      </trkpt>
      <trkpt lat="45.62582" lon="6.78387">
        <ele>828.6</ele>
        <time>2021-05-27T10:49:58Z</time>
      </trkpt>
      <trkpt lat="45.62584" lon="6.78395">
        <ele>828.8</ele>
        <time>2021-05-27T10:49:59Z</time>
      </trkpt>
      <trkpt lat="45.62586" lon="6.78402">
        <ele>828.8</ele>
        <time>2021-05-27T10:50:00Z</time>
      </trkpt>
      <trkpt lat="45.62588" lon="6.78409">
        <ele>829.2</ele>
        <time>2021-05-27T10:50:01Z</time>
      </trkpt>
      <trkpt lat="45.6259" lon="6.78416">
        <ele>829.4</ele>
        <time>2021-05-27T10:50:02Z</time>
      </trkpt>
      <trkpt lat="45.62592" lon="6.78423">
        <ele>829.4</ele>
        <time>2021-05-27T10:50:03Z</time>
      </trkpt>
      <trkpt lat="45.62595" lon="6.7843">
        <ele>829.8</ele>
        <time>2021-05-27T10:50:04Z</time>
      </trkpt>
      <trkpt lat="45.62597" lon="6.78438">
        <ele>830</ele>
        <time>2021-05-27T10:50:05Z</time>
      </trkpt>
      <trkpt lat="45.62599" lon="6.78445">
        <ele>830.2</ele>
        <time>2021-05-27T10:50:06Z</time>
      </trkpt>
      <trkpt lat="45.62602" lon="6.78452">
        <ele>830.2</ele>
        <time>2021-05-27T10:50:07Z</time>
      </trkpt>
      <trkpt lat="45.62604" lon="6.78459">
        <ele>830.2</ele>
        <time>2021-05-27T10:50:08Z</time>
      </trkpt>
      <trkpt lat="45.62606" lon="6.78466">
        <ele>830.6</ele>
        <time>2021-05-27T10:50:09Z</time>
      </trkpt>
      <trkpt lat="45.62608" lon="6.78473">
        <ele>830.6</ele>
        <time>2021-05-27T10:50:10Z</time>
      </trkpt>
      <trkpt lat="45.6261" lon="6.7848">
        <ele>830.8</ele>
        <time>2021-05-27T10:50:11Z</time>
      </trkpt>
      <trkpt lat="45.62612" lon="6.78486">
        <ele>830.8</ele>
        <time>2021-05-27T10:50:12Z</time>
      </trkpt>
      <trkpt lat="45.62614" lon="6.78493">
        <ele>830.8</ele>
        <time>2021-05-27T10:50:13Z</time>
      </trkpt>
      <trkpt lat="45.62616" lon="6.785">
        <ele>831</ele>
        <time>2021-05-27T10:50:14Z</time>
      </trkpt>
      <trkpt lat="45.62618" lon="6.78507">
        <ele>831</ele>
        <time>2021-05-27T10:50:15Z</time>
      </trkpt>
      <trkpt lat="45.6262" lon="6.78513">
        <ele>831</ele>
        <time>2021-05-27T10:50:16Z</time>
      </trkpt>
      <trkpt lat="45.62622" lon="6.7852">
        <ele>831.2</ele>
        <time>2021-05-27T10:50:17Z</time>
      </trkpt>
      <trkpt lat="45.62624" lon="6.78527">
        <ele>831.4</ele>
        <time>2021-05-27T10:50:18Z</time>
      </trkpt>
      <trkpt lat="45.62626" lon="6.78534">
        <ele>831.6</ele>
        <time>2021-05-27T10:50:19Z</time>
      </trkpt>
      <trkpt lat="45.62629" lon="6.7854">
        <ele>831.8</ele>
        <time>2021-05-27T10:50:20Z</time>
      </trkpt>
      <trkpt lat="45.62632" lon="6.78546">
        <ele>832.2</ele>
        <time>2021-05-27T10:50:21Z</time>
      </trkpt>
      <trkpt lat="45.62636" lon="6.78552">
        <ele>832.4</ele>
        <time>2021-05-27T10:50:22Z</time>
      </trkpt>
      <trkpt lat="45.62639" lon="6.78556">
        <ele>832.6</ele>
        <time>2021-05-27T10:50:23Z</time>
      </trkpt>
      <trkpt lat="45.62644" lon="6.78561">
        <ele>832.8</ele>
        <time>2021-05-27T10:50:24Z</time>
      </trkpt>
      <trkpt lat="45.62647" lon="6.78566">
        <ele>833</ele>
        <time>2021-05-27T10:50:25Z</time>
      </trkpt>
      <trkpt lat="45.62652" lon="6.7857">
        <ele>833</ele>
        <time>2021-05-27T10:50:26Z</time>
      </trkpt>
      <trkpt lat="45.62655" lon="6.78574">
        <ele>833</ele>
        <time>2021-05-27T10:50:27Z</time>
      </trkpt>
      <trkpt lat="45.6266" lon="6.78579">
        <ele>833</ele>
        <time>2021-05-27T10:50:28Z</time>
      </trkpt>
      <trkpt lat="45.62663" lon="6.78583">
        <ele>833.2</ele>
        <time>2021-05-27T10:50:29Z</time>
      </trkpt>
      <trkpt lat="45.62668" lon="6.78587">
        <ele>833.6</ele>
        <time>2021-05-27T10:50:30Z</time>
      </trkpt>
      <trkpt lat="45.62672" lon="6.78592">
        <ele>833.6</ele>
        <time>2021-05-27T10:50:31Z</time>
      </trkpt>
      <trkpt lat="45.62676" lon="6.78596">
        <ele>833.6</ele>
        <time>2021-05-27T10:50:32Z</time>
      </trkpt>
      <trkpt lat="45.6268" lon="6.786">
        <ele>833.8</ele>
        <time>2021-05-27T10:50:33Z</time>
      </trkpt>
      <trkpt lat="45.62684" lon="6.78604">
        <ele>834</ele>
        <time>2021-05-27T10:50:34Z</time>
      </trkpt>
      <trkpt lat="45.62688" lon="6.78609">
        <ele>834</ele>
        <time>2021-05-27T10:50:35Z</time>
      </trkpt>
      <trkpt lat="45.62692" lon="6.78614">
        <ele>834.4</ele>
        <time>2021-05-27T10:50:36Z</time>
      </trkpt>
      <trkpt lat="45.62694" lon="6.78619">
        <ele>834.4</ele>
        <time>2021-05-27T10:50:37Z</time>
      </trkpt>
      <trkpt lat="45.62698" lon="6.78625">
        <ele>834.8</ele>
        <time>2021-05-27T10:50:38Z</time>
      </trkpt>
      <trkpt lat="45.62701" lon="6.7863">
        <ele>834.8</ele>
        <time>2021-05-27T10:50:39Z</time>
      </trkpt>
      <trkpt lat="45.62703" lon="6.78637">
        <ele>835</ele>
        <time>2021-05-27T10:50:40Z</time>
      </trkpt>
      <trkpt lat="45.62706" lon="6.78644">
        <ele>835.4</ele>
        <time>2021-05-27T10:50:41Z</time>
      </trkpt>
      <trkpt lat="45.62708" lon="6.78651">
        <ele>835.6</ele>
        <time>2021-05-27T10:50:42Z</time>
      </trkpt>
      <trkpt lat="45.62709" lon="6.78658">
        <ele>835.8</ele>
        <time>2021-05-27T10:50:43Z</time>
      </trkpt>
      <trkpt lat="45.62711" lon="6.78665">
        <ele>836.4</ele>
        <time>2021-05-27T10:50:44Z</time>
      </trkpt>
      <trkpt lat="45.62712" lon="6.78672">
        <ele>836.8</ele>
        <time>2021-05-27T10:50:45Z</time>
      </trkpt>
      <trkpt lat="45.62713" lon="6.78679">
        <ele>837</ele>
        <time>2021-05-27T10:50:46Z</time>
      </trkpt>
      <trkpt lat="45.62714" lon="6.78686">
        <ele>837.2</ele>
        <time>2021-05-27T10:50:47Z</time>
      </trkpt>
      <trkpt lat="45.62715" lon="6.78694">
        <ele>837.2</ele>
        <time>2021-05-27T10:50:48Z</time>
      </trkpt>
      <trkpt lat="45.62715" lon="6.78701">
        <ele>837.4</ele>
        <time>2021-05-27T10:50:49Z</time>
      </trkpt>
      <trkpt lat="45.62715" lon="6.78708">
        <ele>837.4</ele>
        <time>2021-05-27T10:50:50Z</time>
      </trkpt>
      <trkpt lat="45.62714" lon="6.78716">
        <ele>837.8</ele>
        <time>2021-05-27T10:50:51Z</time>
      </trkpt>
      <trkpt lat="45.62714" lon="6.78724">
        <ele>837.8</ele>
        <time>2021-05-27T10:50:52Z</time>
      </trkpt>
      <trkpt lat="45.62713" lon="6.78731">
        <ele>838.2</ele>
        <time>2021-05-27T10:50:53Z</time>
      </trkpt>
      <trkpt lat="45.62712" lon="6.78738">
        <ele>838.4</ele>
        <time>2021-05-27T10:50:54Z</time>
      </trkpt>
      <trkpt lat="45.62711" lon="6.78746">
        <ele>838.8</ele>
        <time>2021-05-27T10:50:55Z</time>
      </trkpt>
      <trkpt lat="45.62711" lon="6.78753">
        <ele>839</ele>
        <time>2021-05-27T10:50:56Z</time>
      </trkpt>
      <trkpt lat="45.6271" lon="6.7876">
        <ele>839.4</ele>
        <time>2021-05-27T10:50:57Z</time>
      </trkpt>
      <trkpt lat="45.62709" lon="6.78767">
        <ele>839.8</ele>
        <time>2021-05-27T10:50:58Z</time>
      </trkpt>
      <trkpt lat="45.62709" lon="6.78774">
        <ele>840</ele>
        <time>2021-05-27T10:50:59Z</time>
      </trkpt>
      <trkpt lat="45.62708" lon="6.78781">
        <ele>840.2</ele>
        <time>2021-05-27T10:51:00Z</time>
      </trkpt>
      <trkpt lat="45.62708" lon="6.78788">
        <ele>840.8</ele>
        <time>2021-05-27T10:51:01Z</time>
      </trkpt>
      <trkpt lat="45.62708" lon="6.78795">
        <ele>841.2</ele>
        <time>2021-05-27T10:51:02Z</time>
      </trkpt>
      <trkpt lat="45.62707" lon="6.78802">
        <ele>841.4</ele>
        <time>2021-05-27T10:51:03Z</time>
      </trkpt>
      <trkpt lat="45.62707" lon="6.78808">
        <ele>841.6</ele>
        <time>2021-05-27T10:51:04Z</time>
      </trkpt>
      <trkpt lat="45.62706" lon="6.78815">
        <ele>842</ele>
        <time>2021-05-27T10:51:05Z</time>
      </trkpt>
      <trkpt lat="45.62706" lon="6.78821">
        <ele>842.2</ele>
        <time>2021-05-27T10:51:06Z</time>
      </trkpt>
      <trkpt lat="45.62705" lon="6.78828">
        <ele>842.4</ele>
        <time>2021-05-27T10:51:07Z</time>
      </trkpt>
      <trkpt lat="45.62705" lon="6.78834">
        <ele>842.6</ele>
        <time>2021-05-27T10:51:08Z</time>
      </trkpt>
      <trkpt lat="45.62704" lon="6.78841">
        <ele>842.8</ele>
        <time>2021-05-27T10:51:09Z</time>
      </trkpt>
      <trkpt lat="45.62703" lon="6.78847">
        <ele>842.8</ele>
        <time>2021-05-27T10:51:10Z</time>
      </trkpt>
      <trkpt lat="45.62702" lon="6.78854">
        <ele>843.2</ele>
        <time>2021-05-27T10:51:11Z</time>
      </trkpt>
      <trkpt lat="45.62702" lon="6.7886">
        <ele>843.6</ele>
        <time>2021-05-27T10:51:12Z</time>
      </trkpt>
      <trkpt lat="45.62701" lon="6.78866">
        <ele>843.8</ele>
        <time>2021-05-27T10:51:13Z</time>
      </trkpt>
      <trkpt lat="45.62701" lon="6.78873">
        <ele>844</ele>
        <time>2021-05-27T10:51:14Z</time>
      </trkpt>
      <trkpt lat="45.62701" lon="6.7888">
        <ele>844.2</ele>
        <time>2021-05-27T10:51:15Z</time>
      </trkpt>
      <trkpt lat="45.627" lon="6.78886">
        <ele>844.4</ele>
        <time>2021-05-27T10:51:16Z</time>
      </trkpt>
      <trkpt lat="45.627" lon="6.78893">
        <ele>844.6</ele>
        <time>2021-05-27T10:51:17Z</time>
      </trkpt>
      <trkpt lat="45.627" lon="6.78899">
        <ele>844.8</ele>
        <time>2021-05-27T10:51:18Z</time>
      </trkpt>
      <trkpt lat="45.627" lon="6.78906">
        <ele>845.2</ele>
        <time>2021-05-27T10:51:19Z</time>
      </trkpt>
      <trkpt lat="45.62699" lon="6.78912">
        <ele>845.4</ele>
        <time>2021-05-27T10:51:20Z</time>
      </trkpt>
      <trkpt lat="45.62699" lon="6.78919">
        <ele>845.4</ele>
        <time>2021-05-27T10:51:21Z</time>
      </trkpt>
      <trkpt lat="45.62699" lon="6.78926">
        <ele>845.8</ele>
        <time>2021-05-27T10:51:22Z</time>
      </trkpt>
      <trkpt lat="45.62698" lon="6.78932">
        <ele>846</ele>
        <time>2021-05-27T10:51:23Z</time>
      </trkpt>
      <trkpt lat="45.62698" lon="6.78939">
        <ele>846</ele>
        <time>2021-05-27T10:51:24Z</time>
      </trkpt>
      <trkpt lat="45.62697" lon="6.78946">
        <ele>846.4</ele>
        <time>2021-05-27T10:51:25Z</time>
      </trkpt>
      <trkpt lat="45.62696" lon="6.78952">
        <ele>847</ele>
        <time>2021-05-27T10:51:26Z</time>
      </trkpt>
      <trkpt lat="45.62696" lon="6.78958">
        <ele>847.2</ele>
        <time>2021-05-27T10:51:27Z</time>
      </trkpt>
      <trkpt lat="45.62695" lon="6.78965">
        <ele>847.4</ele>
        <time>2021-05-27T10:51:28Z</time>
      </trkpt>
      <trkpt lat="45.62695" lon="6.78971">
        <ele>847.8</ele>
        <time>2021-05-27T10:51:29Z</time>
      </trkpt>
      <trkpt lat="45.62694" lon="6.78977">
        <ele>848</ele>
        <time>2021-05-27T10:51:30Z</time>
      </trkpt>
      <trkpt lat="45.62694" lon="6.78983">
        <ele>848.2</ele>
        <time>2021-05-27T10:51:31Z</time>
      </trkpt>
      <trkpt lat="45.62694" lon="6.78989">
        <ele>848.6</ele>
        <time>2021-05-27T10:51:32Z</time>
      </trkpt>
      <trkpt lat="45.62693" lon="6.78995">
        <ele>848.8</ele>
        <time>2021-05-27T10:51:33Z</time>
      </trkpt>
      <trkpt lat="45.62693" lon="6.79001">
        <ele>849</ele>
        <time>2021-05-27T10:51:34Z</time>
      </trkpt>
      <trkpt lat="45.62692" lon="6.79007">
        <ele>849.4</ele>
        <time>2021-05-27T10:51:35Z</time>
      </trkpt>
      <trkpt lat="45.62692" lon="6.79013">
        <ele>849.8</ele>
        <time>2021-05-27T10:51:36Z</time>
      </trkpt>
      <trkpt lat="45.62691" lon="6.79019">
        <ele>850</ele>
        <time>2021-05-27T10:51:37Z</time>
      </trkpt>
      <trkpt lat="45.6269" lon="6.79026">
        <ele>850.4</ele>
        <time>2021-05-27T10:51:38Z</time>
      </trkpt>
      <trkpt lat="45.6269" lon="6.79032">
        <ele>850.6</ele>
        <time>2021-05-27T10:51:39Z</time>
      </trkpt>
      <trkpt lat="45.62689" lon="6.79038">
        <ele>851</ele>
        <time>2021-05-27T10:51:40Z</time>
      </trkpt>
      <trkpt lat="45.62688" lon="6.79044">
        <ele>851.4</ele>
        <time>2021-05-27T10:51:41Z</time>
      </trkpt>
      <trkpt lat="45.62687" lon="6.7905">
        <ele>851.6</ele>
        <time>2021-05-27T10:51:42Z</time>
      </trkpt>
      <trkpt lat="45.62686" lon="6.79057">
        <ele>851.8</ele>
        <time>2021-05-27T10:51:43Z</time>
      </trkpt>
      <trkpt lat="45.62685" lon="6.79063">
        <ele>852.2</ele>
        <time>2021-05-27T10:51:44Z</time>
      </trkpt>
      <trkpt lat="45.62684" lon="6.7907">
        <ele>852.6</ele>
        <time>2021-05-27T10:51:45Z</time>
      </trkpt>
      <trkpt lat="45.62684" lon="6.79076">
        <ele>852.8</ele>
        <time>2021-05-27T10:51:46Z</time>
      </trkpt>
      <trkpt lat="45.62684" lon="6.79082">
        <ele>853.2</ele>
        <time>2021-05-27T10:51:47Z</time>
      </trkpt>
      <trkpt lat="45.62683" lon="6.79088">
        <ele>853.2</ele>
        <time>2021-05-27T10:51:48Z</time>
      </trkpt>
      <trkpt lat="45.62682" lon="6.79094">
        <ele>853.4</ele>
        <time>2021-05-27T10:51:49Z</time>
      </trkpt>
      <trkpt lat="45.62681" lon="6.79101">
        <ele>853.6</ele>
        <time>2021-05-27T10:51:50Z</time>
      </trkpt>
      <trkpt lat="45.6268" lon="6.79107">
        <ele>854</ele>
        <time>2021-05-27T10:51:51Z</time>
      </trkpt>
      <trkpt lat="45.62679" lon="6.79113">
        <ele>854.4</ele>
        <time>2021-05-27T10:51:52Z</time>
      </trkpt>
      <trkpt lat="45.62678" lon="6.79119">
        <ele>854.8</ele>
        <time>2021-05-27T10:51:53Z</time>
      </trkpt>
      <trkpt lat="45.62676" lon="6.79126">
        <ele>855</ele>
        <time>2021-05-27T10:51:54Z</time>
      </trkpt>
      <trkpt lat="45.62676" lon="6.79132">
        <ele>855.2</ele>
        <time>2021-05-27T10:51:55Z</time>
      </trkpt>
      <trkpt lat="45.62674" lon="6.79138">
        <ele>855.4</ele>
        <time>2021-05-27T10:51:56Z</time>
      </trkpt>
      <trkpt lat="45.62672" lon="6.79144">
        <ele>855.4</ele>
        <time>2021-05-27T10:51:57Z</time>
      </trkpt>
      <trkpt lat="45.62671" lon="6.7915">
        <ele>855.6</ele>
        <time>2021-05-27T10:51:58Z</time>
      </trkpt>
      <trkpt lat="45.62669" lon="6.79156">
        <ele>855.8</ele>
        <time>2021-05-27T10:51:59Z</time>
      </trkpt>
      <trkpt lat="45.62668" lon="6.79161">
        <ele>855.8</ele>
        <time>2021-05-27T10:52:00Z</time>
      </trkpt>
      <trkpt lat="45.62666" lon="6.79167">
        <ele>856</ele>
        <time>2021-05-27T10:52:01Z</time>
      </trkpt>
      <trkpt lat="45.62664" lon="6.79173">
        <ele>856.4</ele>
        <time>2021-05-27T10:52:02Z</time>
      </trkpt>
      <trkpt lat="45.62662" lon="6.79179">
        <ele>856.6</ele>
        <time>2021-05-27T10:52:03Z</time>
      </trkpt>
      <trkpt lat="45.6266" lon="6.79184">
        <ele>856.8</ele>
        <time>2021-05-27T10:52:04Z</time>
      </trkpt>
      <trkpt lat="45.62658" lon="6.7919">
        <ele>857.2</ele>
        <time>2021-05-27T10:52:05Z</time>
      </trkpt>
      <trkpt lat="45.62656" lon="6.79195">
        <ele>857.4</ele>
        <time>2021-05-27T10:52:06Z</time>
      </trkpt>
      <trkpt lat="45.62655" lon="6.792">
        <ele>857.8</ele>
        <time>2021-05-27T10:52:07Z</time>
      </trkpt>
      <trkpt lat="45.62653" lon="6.79206">
        <ele>858</ele>
        <time>2021-05-27T10:52:08Z</time>
      </trkpt>
      <trkpt lat="45.62652" lon="6.79212">
        <ele>858.2</ele>
        <time>2021-05-27T10:52:09Z</time>
      </trkpt>
      <trkpt lat="45.6265" lon="6.79218">
        <ele>858.6</ele>
        <time>2021-05-27T10:52:10Z</time>
      </trkpt>
      <trkpt lat="45.62649" lon="6.79224">
        <ele>858.8</ele>
        <time>2021-05-27T10:52:11Z</time>
      </trkpt>
      <trkpt lat="45.62648" lon="6.7923">
        <ele>859.2</ele>
        <time>2021-05-27T10:52:12Z</time>
      </trkpt>
      <trkpt lat="45.62648" lon="6.79237">
        <ele>859.4</ele>
        <time>2021-05-27T10:52:13Z</time>
      </trkpt>
      <trkpt lat="45.62647" lon="6.79243">
        <ele>859.6</ele>
        <time>2021-05-27T10:52:14Z</time>
      </trkpt>
      <trkpt lat="45.62646" lon="6.79249">
        <ele>860</ele>
        <time>2021-05-27T10:52:15Z</time>
      </trkpt>
      <trkpt lat="45.62645" lon="6.79256">
        <ele>860.4</ele>
        <time>2021-05-27T10:52:16Z</time>
      </trkpt>
      <trkpt lat="45.62645" lon="6.79262">
        <ele>860.8</ele>
        <time>2021-05-27T10:52:17Z</time>
      </trkpt>
      <trkpt lat="45.62644" lon="6.79268">
        <ele>861.2</ele>
        <time>2021-05-27T10:52:18Z</time>
      </trkpt>
      <trkpt lat="45.62642" lon="6.79274">
        <ele>861.6</ele>
        <time>2021-05-27T10:52:19Z</time>
      </trkpt>
      <trkpt lat="45.62641" lon="6.7928">
        <ele>862</ele>
        <time>2021-05-27T10:52:20Z</time>
      </trkpt>
      <trkpt lat="45.62639" lon="6.79286">
        <ele>862.2</ele>
        <time>2021-05-27T10:52:21Z</time>
      </trkpt>
      <trkpt lat="45.62638" lon="6.79292">
        <ele>862.6</ele>
        <time>2021-05-27T10:52:22Z</time>
      </trkpt>
      <trkpt lat="45.62636" lon="6.79298">
        <ele>863</ele>
        <time>2021-05-27T10:52:23Z</time>
      </trkpt>
      <trkpt lat="45.62634" lon="6.79304">
        <ele>863.2</ele>
        <time>2021-05-27T10:52:24Z</time>
      </trkpt>
      <trkpt lat="45.62632" lon="6.7931">
        <ele>863.4</ele>
        <time>2021-05-27T10:52:25Z</time>
      </trkpt>
      <trkpt lat="45.6263" lon="6.79315">
        <ele>863.6</ele>
        <time>2021-05-27T10:52:26Z</time>
      </trkpt>
      <trkpt lat="45.62628" lon="6.79321">
        <ele>864</ele>
        <time>2021-05-27T10:52:27Z</time>
      </trkpt>
      <trkpt lat="45.62626" lon="6.79326">
        <ele>864.4</ele>
        <time>2021-05-27T10:52:28Z</time>
      </trkpt>
      <trkpt lat="45.62624" lon="6.79332">
        <ele>864.6</ele>
        <time>2021-05-27T10:52:29Z</time>
      </trkpt>
      <trkpt lat="45.62622" lon="6.79337">
        <ele>865</ele>
        <time>2021-05-27T10:52:30Z</time>
      </trkpt>
      <trkpt lat="45.6262" lon="6.79342">
        <ele>865.6</ele>
        <time>2021-05-27T10:52:31Z</time>
      </trkpt>
      <trkpt lat="45.62617" lon="6.79348">
        <ele>865.8</ele>
        <time>2021-05-27T10:52:32Z</time>
      </trkpt>
      <trkpt lat="45.62614" lon="6.79353">
        <ele>866</ele>
        <time>2021-05-27T10:52:33Z</time>
      </trkpt>
      <trkpt lat="45.62612" lon="6.79359">
        <ele>866.4</ele>
        <time>2021-05-27T10:52:34Z</time>
      </trkpt>
      <trkpt lat="45.62609" lon="6.79364">
        <ele>866.8</ele>
        <time>2021-05-27T10:52:35Z</time>
      </trkpt>
      <trkpt lat="45.62606" lon="6.79369">
        <ele>867.2</ele>
        <time>2021-05-27T10:52:36Z</time>
      </trkpt>
      <trkpt lat="45.62603" lon="6.79374">
        <ele>867.4</ele>
        <time>2021-05-27T10:52:37Z</time>
      </trkpt>
      <trkpt lat="45.626" lon="6.79379">
        <ele>867.8</ele>
        <time>2021-05-27T10:52:38Z</time>
      </trkpt>
      <trkpt lat="45.62596" lon="6.79384">
        <ele>868</ele>
        <time>2021-05-27T10:52:39Z</time>
      </trkpt>
      <trkpt lat="45.62593" lon="6.79389">
        <ele>868.2</ele>
        <time>2021-05-27T10:52:40Z</time>
      </trkpt>
      <trkpt lat="45.62589" lon="6.79394">
        <ele>868.6</ele>
        <time>2021-05-27T10:52:41Z</time>
      </trkpt>
      <trkpt lat="45.62585" lon="6.79398">
        <ele>868.4</ele>
        <time>2021-05-27T10:52:42Z</time>
      </trkpt>
      <trkpt lat="45.62581" lon="6.79403">
        <ele>868.4</ele>
        <time>2021-05-27T10:52:43Z</time>
      </trkpt>
      <trkpt lat="45.62577" lon="6.79407">
        <ele>868.4</ele>
        <time>2021-05-27T10:52:44Z</time>
      </trkpt>
      <trkpt lat="45.62573" lon="6.79411">
        <ele>868.4</ele>
        <time>2021-05-27T10:52:45Z</time>
      </trkpt>
      <trkpt lat="45.62569" lon="6.79415">
        <ele>868.8</ele>
        <time>2021-05-27T10:52:46Z</time>
      </trkpt>
      <trkpt lat="45.62565" lon="6.79418">
        <ele>869.2</ele>
        <time>2021-05-27T10:52:47Z</time>
      </trkpt>
      <trkpt lat="45.62561" lon="6.79422">
        <ele>869.2</ele>
        <time>2021-05-27T10:52:48Z</time>
      </trkpt>
      <trkpt lat="45.62557" lon="6.79426">
        <ele>869.4</ele>
        <time>2021-05-27T10:52:49Z</time>
      </trkpt>
      <trkpt lat="45.62553" lon="6.79429">
        <ele>869.6</ele>
        <time>2021-05-27T10:52:50Z</time>
      </trkpt>
      <trkpt lat="45.62549" lon="6.79433">
        <ele>869.8</ele>
        <time>2021-05-27T10:52:51Z</time>
      </trkpt>
      <trkpt lat="45.62545" lon="6.79436">
        <ele>870.2</ele>
        <time>2021-05-27T10:52:52Z</time>
      </trkpt>
      <trkpt lat="45.62541" lon="6.79439">
        <ele>870.6</ele>
        <time>2021-05-27T10:52:53Z</time>
      </trkpt>
      <trkpt lat="45.62537" lon="6.79442">
        <ele>871</ele>
        <time>2021-05-27T10:52:54Z</time>
      </trkpt>
      <trkpt lat="45.62532" lon="6.79444">
        <ele>871.4</ele>
        <time>2021-05-27T10:52:55Z</time>
      </trkpt>
      <trkpt lat="45.62528" lon="6.79447">
        <ele>871.6</ele>
        <time>2021-05-27T10:52:56Z</time>
      </trkpt>
      <trkpt lat="45.62525" lon="6.7945">
        <ele>871.8</ele>
        <time>2021-05-27T10:52:57Z</time>
      </trkpt>
      <trkpt lat="45.62522" lon="6.79456">
        <ele>872</ele>
        <time>2021-05-27T10:52:58Z</time>
      </trkpt>
      <trkpt lat="45.6252" lon="6.79461">
        <ele>872</ele>
        <time>2021-05-27T10:52:59Z</time>
      </trkpt>
      <trkpt lat="45.62518" lon="6.79468">
        <ele>872.2</ele>
        <time>2021-05-27T10:53:00Z</time>
      </trkpt>
      <trkpt lat="45.62516" lon="6.79474">
        <ele>872.4</ele>
        <time>2021-05-27T10:53:01Z</time>
      </trkpt>
      <trkpt lat="45.62515" lon="6.79479">
        <ele>872.6</ele>
        <time>2021-05-27T10:53:02Z</time>
      </trkpt>
      <trkpt lat="45.62512" lon="6.79484">
        <ele>872.8</ele>
        <time>2021-05-27T10:53:03Z</time>
      </trkpt>
      <trkpt lat="45.62509" lon="6.7949">
        <ele>873</ele>
        <time>2021-05-27T10:53:04Z</time>
      </trkpt>
      <trkpt lat="45.62507" lon="6.79495">
        <ele>873.4</ele>
        <time>2021-05-27T10:53:05Z</time>
      </trkpt>
      <trkpt lat="45.62504" lon="6.795">
        <ele>873.8</ele>
        <time>2021-05-27T10:53:06Z</time>
      </trkpt>
      <trkpt lat="45.62501" lon="6.79505">
        <ele>874</ele>
        <time>2021-05-27T10:53:07Z</time>
      </trkpt>
      <trkpt lat="45.62499" lon="6.7951">
        <ele>874.6</ele>
        <time>2021-05-27T10:53:08Z</time>
      </trkpt>
      <trkpt lat="45.62496" lon="6.79516">
        <ele>874.8</ele>
        <time>2021-05-27T10:53:09Z</time>
      </trkpt>
      <trkpt lat="45.62493" lon="6.79521">
        <ele>875.2</ele>
        <time>2021-05-27T10:53:10Z</time>
      </trkpt>
      <trkpt lat="45.62491" lon="6.79526">
        <ele>875.6</ele>
        <time>2021-05-27T10:53:11Z</time>
      </trkpt>
      <trkpt lat="45.62489" lon="6.79531">
        <ele>875.8</ele>
        <time>2021-05-27T10:53:12Z</time>
      </trkpt>
      <trkpt lat="45.62486" lon="6.79536">
        <ele>875.8</ele>
        <time>2021-05-27T10:53:13Z</time>
      </trkpt>
      <trkpt lat="45.62483" lon="6.79541">
        <ele>876.2</ele>
        <time>2021-05-27T10:53:14Z</time>
      </trkpt>
      <trkpt lat="45.62481" lon="6.79546">
        <ele>876.6</ele>
        <time>2021-05-27T10:53:15Z</time>
      </trkpt>
      <trkpt lat="45.62478" lon="6.79551">
        <ele>877</ele>
        <time>2021-05-27T10:53:16Z</time>
      </trkpt>
      <trkpt lat="45.62476" lon="6.79556">
        <ele>877.4</ele>
        <time>2021-05-27T10:53:17Z</time>
      </trkpt>
      <trkpt lat="45.62473" lon="6.79562">
        <ele>877.6</ele>
        <time>2021-05-27T10:53:18Z</time>
      </trkpt>
      <trkpt lat="45.6247" lon="6.79567">
        <ele>878</ele>
        <time>2021-05-27T10:53:19Z</time>
      </trkpt>
      <trkpt lat="45.62468" lon="6.79572">
        <ele>878.4</ele>
        <time>2021-05-27T10:53:20Z</time>
      </trkpt>
      <trkpt lat="45.62465" lon="6.79577">
        <ele>878.6</ele>
        <time>2021-05-27T10:53:21Z</time>
      </trkpt>
      <trkpt lat="45.62462" lon="6.79582">
        <ele>879.2</ele>
        <time>2021-05-27T10:53:22Z</time>
      </trkpt>
      <trkpt lat="45.6246" lon="6.79587">
        <ele>879.6</ele>
        <time>2021-05-27T10:53:23Z</time>
      </trkpt>
      <trkpt lat="45.62458" lon="6.79592">
        <ele>879.8</ele>
        <time>2021-05-27T10:53:24Z</time>
      </trkpt>
      <trkpt lat="45.62455" lon="6.79597">
        <ele>880.2</ele>
        <time>2021-05-27T10:53:25Z</time>
      </trkpt>
      <trkpt lat="45.62452" lon="6.79602">
        <ele>880.6</ele>
        <time>2021-05-27T10:53:26Z</time>
      </trkpt>
      <trkpt lat="45.6245" lon="6.79607">
        <ele>881</ele>
        <time>2021-05-27T10:53:27Z</time>
      </trkpt>
      <trkpt lat="45.62447" lon="6.79612">
        <ele>881.2</ele>
        <time>2021-05-27T10:53:28Z</time>
      </trkpt>
      <trkpt lat="45.62445" lon="6.79617">
        <ele>881.6</ele>
        <time>2021-05-27T10:53:29Z</time>
      </trkpt>
      <trkpt lat="45.62442" lon="6.79622">
        <ele>881.8</ele>
        <time>2021-05-27T10:53:30Z</time>
      </trkpt>
      <trkpt lat="45.62439" lon="6.79628">
        <ele>882.2</ele>
        <time>2021-05-27T10:53:31Z</time>
      </trkpt>
      <trkpt lat="45.62436" lon="6.79634">
        <ele>882.6</ele>
        <time>2021-05-27T10:53:32Z</time>
      </trkpt>
      <trkpt lat="45.62434" lon="6.79639">
        <ele>882.8</ele>
        <time>2021-05-27T10:53:33Z</time>
      </trkpt>
      <trkpt lat="45.62431" lon="6.79644">
        <ele>883.4</ele>
        <time>2021-05-27T10:53:34Z</time>
      </trkpt>
      <trkpt lat="45.62429" lon="6.7965">
        <ele>883.8</ele>
        <time>2021-05-27T10:53:35Z</time>
      </trkpt>
      <trkpt lat="45.62426" lon="6.79656">
        <ele>883.8</ele>
        <time>2021-05-27T10:53:36Z</time>
      </trkpt>
      <trkpt lat="45.62423" lon="6.79662">
        <ele>884</ele>
        <time>2021-05-27T10:53:37Z</time>
      </trkpt>
      <trkpt lat="45.6242" lon="6.79668">
        <ele>884.4</ele>
        <time>2021-05-27T10:53:38Z</time>
      </trkpt>
      <trkpt lat="45.62418" lon="6.79674">
        <ele>884.6</ele>
        <time>2021-05-27T10:53:39Z</time>
      </trkpt>
      <trkpt lat="45.62415" lon="6.79679">
        <ele>884.8</ele>
        <time>2021-05-27T10:53:40Z</time>
      </trkpt>
      <trkpt lat="45.62412" lon="6.79685">
        <ele>885</ele>
        <time>2021-05-27T10:53:41Z</time>
      </trkpt>
      <trkpt lat="45.62409" lon="6.79691">
        <ele>885.2</ele>
        <time>2021-05-27T10:53:42Z</time>
      </trkpt>
      <trkpt lat="45.62407" lon="6.79697">
        <ele>885.4</ele>
        <time>2021-05-27T10:53:43Z</time>
      </trkpt>
      <trkpt lat="45.62404" lon="6.79703">
        <ele>885.6</ele>
        <time>2021-05-27T10:53:44Z</time>
      </trkpt>
      <trkpt lat="45.62402" lon="6.79708">
        <ele>886</ele>
        <time>2021-05-27T10:53:45Z</time>
      </trkpt>
      <trkpt lat="45.62399" lon="6.79714">
        <ele>886.2</ele>
        <time>2021-05-27T10:53:46Z</time>
      </trkpt>
      <trkpt lat="45.62396" lon="6.7972">
        <ele>886.4</ele>
        <time>2021-05-27T10:53:47Z</time>
      </trkpt>
      <trkpt lat="45.62395" lon="6.79726">
        <ele>886.6</ele>
        <time>2021-05-27T10:53:48Z</time>
      </trkpt>
      <trkpt lat="45.62392" lon="6.79732">
        <ele>886.8</ele>
        <time>2021-05-27T10:53:49Z</time>
      </trkpt>
      <trkpt lat="45.6239" lon="6.79737">
        <ele>886.8</ele>
        <time>2021-05-27T10:53:50Z</time>
      </trkpt>
      <trkpt lat="45.62388" lon="6.79743">
        <ele>887</ele>
        <time>2021-05-27T10:53:51Z</time>
      </trkpt>
      <trkpt lat="45.62386" lon="6.79748">
        <ele>887</ele>
        <time>2021-05-27T10:53:52Z</time>
      </trkpt>
      <trkpt lat="45.62384" lon="6.79754">
        <ele>887.2</ele>
        <time>2021-05-27T10:53:53Z</time>
      </trkpt>
      <trkpt lat="45.62382" lon="6.7976">
        <ele>887.4</ele>
        <time>2021-05-27T10:53:54Z</time>
      </trkpt>
      <trkpt lat="45.62379" lon="6.79765">
        <ele>887.6</ele>
        <time>2021-05-27T10:53:55Z</time>
      </trkpt>
      <trkpt lat="45.62376" lon="6.7977">
        <ele>887.8</ele>
        <time>2021-05-27T10:53:56Z</time>
      </trkpt>
      <trkpt lat="45.62373" lon="6.79776">
        <ele>888</ele>
        <time>2021-05-27T10:53:57Z</time>
      </trkpt>
      <trkpt lat="45.6237" lon="6.79781">
        <ele>888.2</ele>
        <time>2021-05-27T10:53:58Z</time>
      </trkpt>
      <trkpt lat="45.62367" lon="6.79786">
        <ele>888.4</ele>
        <time>2021-05-27T10:53:59Z</time>
      </trkpt>
      <trkpt lat="45.62364" lon="6.79792">
        <ele>888.8</ele>
        <time>2021-05-27T10:54:00Z</time>
      </trkpt>
      <trkpt lat="45.62362" lon="6.79798">
        <ele>888.8</ele>
        <time>2021-05-27T10:54:01Z</time>
      </trkpt>
      <trkpt lat="45.62359" lon="6.79804">
        <ele>889</ele>
        <time>2021-05-27T10:54:02Z</time>
      </trkpt>
      <trkpt lat="45.62356" lon="6.79809">
        <ele>889.4</ele>
        <time>2021-05-27T10:54:03Z</time>
      </trkpt>
      <trkpt lat="45.62354" lon="6.79815">
        <ele>889.4</ele>
        <time>2021-05-27T10:54:04Z</time>
      </trkpt>
      <trkpt lat="45.62351" lon="6.79822">
        <ele>889.8</ele>
        <time>2021-05-27T10:54:05Z</time>
      </trkpt>
      <trkpt lat="45.62348" lon="6.79828">
        <ele>890</ele>
        <time>2021-05-27T10:54:06Z</time>
      </trkpt>
      <trkpt lat="45.62346" lon="6.79833">
        <ele>890.2</ele>
        <time>2021-05-27T10:54:07Z</time>
      </trkpt>
      <trkpt lat="45.62343" lon="6.79839">
        <ele>890.6</ele>
        <time>2021-05-27T10:54:08Z</time>
      </trkpt>
      <trkpt lat="45.6234" lon="6.79845">
        <ele>890.8</ele>
        <time>2021-05-27T10:54:09Z</time>
      </trkpt>
      <trkpt lat="45.62336" lon="6.79851">
        <ele>891.2</ele>
        <time>2021-05-27T10:54:10Z</time>
      </trkpt>
      <trkpt lat="45.62333" lon="6.79856">
        <ele>891.2</ele>
        <time>2021-05-27T10:54:11Z</time>
      </trkpt>
      <trkpt lat="45.6233" lon="6.79862">
        <ele>891.6</ele>
        <time>2021-05-27T10:54:12Z</time>
      </trkpt>
      <trkpt lat="45.62326" lon="6.79867">
        <ele>891.6</ele>
        <time>2021-05-27T10:54:13Z</time>
      </trkpt>
      <trkpt lat="45.62323" lon="6.79873">
        <ele>891.8</ele>
        <time>2021-05-27T10:54:14Z</time>
      </trkpt>
      <trkpt lat="45.6232" lon="6.79879">
        <ele>892</ele>
        <time>2021-05-27T10:54:15Z</time>
      </trkpt>
      <trkpt lat="45.62316" lon="6.79885">
        <ele>892.2</ele>
        <time>2021-05-27T10:54:16Z</time>
      </trkpt>
      <trkpt lat="45.62314" lon="6.79892">
        <ele>892.4</ele>
        <time>2021-05-27T10:54:17Z</time>
      </trkpt>
      <trkpt lat="45.62312" lon="6.79899">
        <ele>892.4</ele>
        <time>2021-05-27T10:54:18Z</time>
      </trkpt>
      <trkpt lat="45.6231" lon="6.79906">
        <ele>892.6</ele>
        <time>2021-05-27T10:54:19Z</time>
      </trkpt>
      <trkpt lat="45.62307" lon="6.79912">
        <ele>892.8</ele>
        <time>2021-05-27T10:54:20Z</time>
      </trkpt>
      <trkpt lat="45.62305" lon="6.79918">
        <ele>893</ele>
        <time>2021-05-27T10:54:21Z</time>
      </trkpt>
      <trkpt lat="45.62302" lon="6.79925">
        <ele>893.2</ele>
        <time>2021-05-27T10:54:22Z</time>
      </trkpt>
      <trkpt lat="45.62299" lon="6.79931">
        <ele>893.6</ele>
        <time>2021-05-27T10:54:23Z</time>
      </trkpt>
      <trkpt lat="45.62297" lon="6.79937">
        <ele>893.8</ele>
        <time>2021-05-27T10:54:24Z</time>
      </trkpt>
      <trkpt lat="45.62295" lon="6.79943">
        <ele>894</ele>
        <time>2021-05-27T10:54:25Z</time>
      </trkpt>
      <trkpt lat="45.62293" lon="6.7995">
        <ele>894.4</ele>
        <time>2021-05-27T10:54:26Z</time>
      </trkpt>
      <trkpt lat="45.62291" lon="6.79956">
        <ele>894.8</ele>
        <time>2021-05-27T10:54:27Z</time>
      </trkpt>
      <trkpt lat="45.62287" lon="6.79962">
        <ele>894.4</ele>
        <time>2021-05-27T10:54:28Z</time>
      </trkpt>
      <trkpt lat="45.62283" lon="6.79966">
        <ele>894.2</ele>
        <time>2021-05-27T10:54:29Z</time>
      </trkpt>
      <trkpt lat="45.62279" lon="6.7997">
        <ele>894.2</ele>
        <time>2021-05-27T10:54:30Z</time>
      </trkpt>
      <trkpt lat="45.62275" lon="6.79975">
        <ele>894.2</ele>
        <time>2021-05-27T10:54:31Z</time>
      </trkpt>
      <trkpt lat="45.62271" lon="6.79979">
        <ele>894</ele>
        <time>2021-05-27T10:54:32Z</time>
      </trkpt>
      <trkpt lat="45.62267" lon="6.79983">
        <ele>894</ele>
        <time>2021-05-27T10:54:33Z</time>
      </trkpt>
      <trkpt lat="45.62263" lon="6.79986">
        <ele>894.2</ele>
        <time>2021-05-27T10:54:34Z</time>
      </trkpt>
      <trkpt lat="45.6226" lon="6.79991">
        <ele>894.6</ele>
        <time>2021-05-27T10:54:35Z</time>
      </trkpt>
      <trkpt lat="45.62256" lon="6.79995">
        <ele>894.6</ele>
        <time>2021-05-27T10:54:36Z</time>
      </trkpt>
      <trkpt lat="45.62253" lon="6.79999">
        <ele>894.8</ele>
        <time>2021-05-27T10:54:37Z</time>
      </trkpt>
      <trkpt lat="45.62249" lon="6.80004">
        <ele>895</ele>
        <time>2021-05-27T10:54:38Z</time>
      </trkpt>
      <trkpt lat="45.62246" lon="6.80009">
        <ele>895.2</ele>
        <time>2021-05-27T10:54:39Z</time>
      </trkpt>
      <trkpt lat="45.62243" lon="6.80014">
        <ele>895.4</ele>
        <time>2021-05-27T10:54:40Z</time>
      </trkpt>
      <trkpt lat="45.62239" lon="6.80019">
        <ele>895.6</ele>
        <time>2021-05-27T10:54:41Z</time>
      </trkpt>
      <trkpt lat="45.62236" lon="6.80024">
        <ele>896</ele>
        <time>2021-05-27T10:54:42Z</time>
      </trkpt>
      <trkpt lat="45.62232" lon="6.80029">
        <ele>896.4</ele>
        <time>2021-05-27T10:54:43Z</time>
      </trkpt>
      <trkpt lat="45.62228" lon="6.80034">
        <ele>896.6</ele>
        <time>2021-05-27T10:54:44Z</time>
      </trkpt>
      <trkpt lat="45.62225" lon="6.8004">
        <ele>896.8</ele>
        <time>2021-05-27T10:54:45Z</time>
      </trkpt>
      <trkpt lat="45.62221" lon="6.80047">
        <ele>897.2</ele>
        <time>2021-05-27T10:54:46Z</time>
      </trkpt>
      <trkpt lat="45.62218" lon="6.80053">
        <ele>897.4</ele>
        <time>2021-05-27T10:54:47Z</time>
      </trkpt>
      <trkpt lat="45.62215" lon="6.8006">
        <ele>897.6</ele>
        <time>2021-05-27T10:54:48Z</time>
      </trkpt>
      <trkpt lat="45.62211" lon="6.80066">
        <ele>897.8</ele>
        <time>2021-05-27T10:54:49Z</time>
      </trkpt>
      <trkpt lat="45.62208" lon="6.80074">
        <ele>898.2</ele>
        <time>2021-05-27T10:54:50Z</time>
      </trkpt>
      <trkpt lat="45.62205" lon="6.8008">
        <ele>898.4</ele>
        <time>2021-05-27T10:54:51Z</time>
      </trkpt>
      <trkpt lat="45.62203" lon="6.80087">
        <ele>898.6</ele>
        <time>2021-05-27T10:54:52Z</time>
      </trkpt>
      <trkpt lat="45.622" lon="6.80094">
        <ele>898.8</ele>
        <time>2021-05-27T10:54:53Z</time>
      </trkpt>
      <trkpt lat="45.62197" lon="6.80101">
        <ele>899</ele>
        <time>2021-05-27T10:54:54Z</time>
      </trkpt>
      <trkpt lat="45.62194" lon="6.80107">
        <ele>899.2</ele>
        <time>2021-05-27T10:54:55Z</time>
      </trkpt>
      <trkpt lat="45.62191" lon="6.80114">
        <ele>899.2</ele>
        <time>2021-05-27T10:54:56Z</time>
      </trkpt>
      <trkpt lat="45.62188" lon="6.8012">
        <ele>899.2</ele>
        <time>2021-05-27T10:54:57Z</time>
      </trkpt>
      <trkpt lat="45.62184" lon="6.80127">
        <ele>899.4</ele>
        <time>2021-05-27T10:54:58Z</time>
      </trkpt>
      <trkpt lat="45.62181" lon="6.80134">
        <ele>899.4</ele>
        <time>2021-05-27T10:54:59Z</time>
      </trkpt>
      <trkpt lat="45.62177" lon="6.80141">
        <ele>899.6</ele>
        <time>2021-05-27T10:55:00Z</time>
      </trkpt>
      <trkpt lat="45.62173" lon="6.80148">
        <ele>899.4</ele>
        <time>2021-05-27T10:55:01Z</time>
      </trkpt>
      <trkpt lat="45.6217" lon="6.80156">
        <ele>899.4</ele>
        <time>2021-05-27T10:55:02Z</time>
      </trkpt>
      <trkpt lat="45.62169" lon="6.80164">
        <ele>900</ele>
        <time>2021-05-27T10:55:03Z</time>
      </trkpt>
      <trkpt lat="45.62169" lon="6.80173">
        <ele>900.2</ele>
        <time>2021-05-27T10:55:04Z</time>
      </trkpt>
      <trkpt lat="45.6217" lon="6.80181">
        <ele>900.4</ele>
        <time>2021-05-27T10:55:05Z</time>
      </trkpt>
      <trkpt lat="45.62171" lon="6.80188">
        <ele>900.8</ele>
        <time>2021-05-27T10:55:06Z</time>
      </trkpt>
      <trkpt lat="45.6217" lon="6.80196">
        <ele>901.4</ele>
        <time>2021-05-27T10:55:07Z</time>
      </trkpt>
      <trkpt lat="45.62169" lon="6.80202">
        <ele>901.6</ele>
        <time>2021-05-27T10:55:08Z</time>
      </trkpt>
      <trkpt lat="45.62167" lon="6.80208">
        <ele>902</ele>
        <time>2021-05-27T10:55:09Z</time>
      </trkpt>
      <trkpt lat="45.62165" lon="6.80214">
        <ele>902.4</ele>
        <time>2021-05-27T10:55:10Z</time>
      </trkpt>
      <trkpt lat="45.62163" lon="6.8022">
        <ele>902.6</ele>
        <time>2021-05-27T10:55:11Z</time>
      </trkpt>
      <trkpt lat="45.62161" lon="6.80227">
        <ele>902.8</ele>
        <time>2021-05-27T10:55:12Z</time>
      </trkpt>
      <trkpt lat="45.62159" lon="6.80233">
        <ele>903</ele>
        <time>2021-05-27T10:55:13Z</time>
      </trkpt>
      <trkpt lat="45.62157" lon="6.80239">
        <ele>903.4</ele>
        <time>2021-05-27T10:55:14Z</time>
      </trkpt>
      <trkpt lat="45.62155" lon="6.80246">
        <ele>903.8</ele>
        <time>2021-05-27T10:55:15Z</time>
      </trkpt>
      <trkpt lat="45.62153" lon="6.80252">
        <ele>904.4</ele>
        <time>2021-05-27T10:55:16Z</time>
      </trkpt>
      <trkpt lat="45.62151" lon="6.80258">
        <ele>904.6</ele>
        <time>2021-05-27T10:55:17Z</time>
      </trkpt>
      <trkpt lat="45.62149" lon="6.80264">
        <ele>905</ele>
        <time>2021-05-27T10:55:18Z</time>
      </trkpt>
      <trkpt lat="45.62147" lon="6.8027">
        <ele>905.2</ele>
        <time>2021-05-27T10:55:19Z</time>
      </trkpt>
      <trkpt lat="45.62145" lon="6.80276">
        <ele>905.2</ele>
        <time>2021-05-27T10:55:20Z</time>
      </trkpt>
      <trkpt lat="45.62143" lon="6.80282">
        <ele>905.6</ele>
        <time>2021-05-27T10:55:21Z</time>
      </trkpt>
      <trkpt lat="45.62141" lon="6.80288">
        <ele>905.8</ele>
        <time>2021-05-27T10:55:22Z</time>
      </trkpt>
      <trkpt lat="45.62139" lon="6.80295">
        <ele>905.8</ele>
        <time>2021-05-27T10:55:23Z</time>
      </trkpt>
      <trkpt lat="45.62137" lon="6.80302">
        <ele>905.8</ele>
        <time>2021-05-27T10:55:24Z</time>
      </trkpt>
      <trkpt lat="45.62135" lon="6.80309">
        <ele>906</ele>
        <time>2021-05-27T10:55:25Z</time>
      </trkpt>
      <trkpt lat="45.62133" lon="6.80316">
        <ele>906.2</ele>
        <time>2021-05-27T10:55:26Z</time>
      </trkpt>
      <trkpt lat="45.62132" lon="6.80323">
        <ele>906.6</ele>
        <time>2021-05-27T10:55:27Z</time>
      </trkpt>
      <trkpt lat="45.62129" lon="6.8033">
        <ele>906.6</ele>
        <time>2021-05-27T10:55:28Z</time>
      </trkpt>
      <trkpt lat="45.62127" lon="6.80336">
        <ele>906.8</ele>
        <time>2021-05-27T10:55:29Z</time>
      </trkpt>
      <trkpt lat="45.62125" lon="6.80343">
        <ele>907.2</ele>
        <time>2021-05-27T10:55:30Z</time>
      </trkpt>
      <trkpt lat="45.62123" lon="6.8035">
        <ele>907.2</ele>
        <time>2021-05-27T10:55:31Z</time>
      </trkpt>
      <trkpt lat="45.62121" lon="6.80356">
        <ele>907.4</ele>
        <time>2021-05-27T10:55:32Z</time>
      </trkpt>
      <trkpt lat="45.62119" lon="6.80362">
        <ele>907.8</ele>
        <time>2021-05-27T10:55:33Z</time>
      </trkpt>
      <trkpt lat="45.62117" lon="6.80369">
        <ele>908</ele>
        <time>2021-05-27T10:55:34Z</time>
      </trkpt>
      <trkpt lat="45.62115" lon="6.80376">
        <ele>908</ele>
        <time>2021-05-27T10:55:35Z</time>
      </trkpt>
      <trkpt lat="45.62113" lon="6.80382">
        <ele>908</ele>
        <time>2021-05-27T10:55:36Z</time>
      </trkpt>
      <trkpt lat="45.62111" lon="6.80388">
        <ele>908.2</ele>
        <time>2021-05-27T10:55:37Z</time>
      </trkpt>
      <trkpt lat="45.62109" lon="6.80395">
        <ele>908.4</ele>
        <time>2021-05-27T10:55:38Z</time>
      </trkpt>
      <trkpt lat="45.62107" lon="6.80402">
        <ele>908.4</ele>
        <time>2021-05-27T10:55:39Z</time>
      </trkpt>
      <trkpt lat="45.62105" lon="6.80408">
        <ele>908.4</ele>
        <time>2021-05-27T10:55:40Z</time>
      </trkpt>
      <trkpt lat="45.62103" lon="6.80415">
        <ele>908.6</ele>
        <time>2021-05-27T10:55:41Z</time>
      </trkpt>
      <trkpt lat="45.62101" lon="6.80422">
        <ele>908.8</ele>
        <time>2021-05-27T10:55:42Z</time>
      </trkpt>
      <trkpt lat="45.621" lon="6.80429">
        <ele>908.8</ele>
        <time>2021-05-27T10:55:43Z</time>
      </trkpt>
      <trkpt lat="45.62098" lon="6.80436">
        <ele>909.2</ele>
        <time>2021-05-27T10:55:44Z</time>
      </trkpt>
      <trkpt lat="45.62097" lon="6.80443">
        <ele>909.2</ele>
        <time>2021-05-27T10:55:45Z</time>
      </trkpt>
      <trkpt lat="45.62096" lon="6.8045">
        <ele>909.6</ele>
        <time>2021-05-27T10:55:46Z</time>
      </trkpt>
      <trkpt lat="45.62094" lon="6.80456">
        <ele>909.8</ele>
        <time>2021-05-27T10:55:47Z</time>
      </trkpt>
      <trkpt lat="45.62093" lon="6.80464">
        <ele>910</ele>
        <time>2021-05-27T10:55:48Z</time>
      </trkpt>
      <trkpt lat="45.62093" lon="6.80471">
        <ele>910.2</ele>
        <time>2021-05-27T10:55:49Z</time>
      </trkpt>
      <trkpt lat="45.62092" lon="6.80479">
        <ele>910.4</ele>
        <time>2021-05-27T10:55:50Z</time>
      </trkpt>
      <trkpt lat="45.62092" lon="6.80486">
        <ele>910.4</ele>
        <time>2021-05-27T10:55:51Z</time>
      </trkpt>
      <trkpt lat="45.62091" lon="6.80494">
        <ele>910.6</ele>
        <time>2021-05-27T10:55:52Z</time>
      </trkpt>
      <trkpt lat="45.62091" lon="6.80502">
        <ele>910.6</ele>
        <time>2021-05-27T10:55:53Z</time>
      </trkpt>
      <trkpt lat="45.62091" lon="6.8051">
        <ele>910.8</ele>
        <time>2021-05-27T10:55:54Z</time>
      </trkpt>
      <trkpt lat="45.62092" lon="6.80518">
        <ele>911.2</ele>
        <time>2021-05-27T10:55:55Z</time>
      </trkpt>
      <trkpt lat="45.62092" lon="6.80526">
        <ele>911.4</ele>
        <time>2021-05-27T10:55:56Z</time>
      </trkpt>
      <trkpt lat="45.62093" lon="6.80534">
        <ele>911.6</ele>
        <time>2021-05-27T10:55:57Z</time>
      </trkpt>
      <trkpt lat="45.62094" lon="6.80542">
        <ele>912</ele>
        <time>2021-05-27T10:55:58Z</time>
      </trkpt>
      <trkpt lat="45.62094" lon="6.8055">
        <ele>912.2</ele>
        <time>2021-05-27T10:55:59Z</time>
      </trkpt>
      <trkpt lat="45.62095" lon="6.80558">
        <ele>912.4</ele>
        <time>2021-05-27T10:56:00Z</time>
      </trkpt>
      <trkpt lat="45.62096" lon="6.80566">
        <ele>912.4</ele>
        <time>2021-05-27T10:56:01Z</time>
      </trkpt>
      <trkpt lat="45.62096" lon="6.80574">
        <ele>912.8</ele>
        <time>2021-05-27T10:56:02Z</time>
      </trkpt>
      <trkpt lat="45.62096" lon="6.80582">
        <ele>913</ele>
        <time>2021-05-27T10:56:03Z</time>
      </trkpt>
      <trkpt lat="45.62097" lon="6.80591">
        <ele>913.2</ele>
        <time>2021-05-27T10:56:04Z</time>
      </trkpt>
      <trkpt lat="45.62097" lon="6.80599">
        <ele>913</ele>
        <time>2021-05-27T10:56:05Z</time>
      </trkpt>
      <trkpt lat="45.62098" lon="6.80607">
        <ele>913.2</ele>
        <time>2021-05-27T10:56:06Z</time>
      </trkpt>
      <trkpt lat="45.62099" lon="6.80616">
        <ele>913.2</ele>
        <time>2021-05-27T10:56:07Z</time>
      </trkpt>
      <trkpt lat="45.621" lon="6.80624">
        <ele>913.6</ele>
        <time>2021-05-27T10:56:08Z</time>
      </trkpt>
      <trkpt lat="45.621" lon="6.80632">
        <ele>913.8</ele>
        <time>2021-05-27T10:56:09Z</time>
      </trkpt>
      <trkpt lat="45.621" lon="6.8064">
        <ele>914</ele>
        <time>2021-05-27T10:56:10Z</time>
      </trkpt>
      <trkpt lat="45.621" lon="6.80649">
        <ele>914.2</ele>
        <time>2021-05-27T10:56:11Z</time>
      </trkpt>
      <trkpt lat="45.62101" lon="6.80657">
        <ele>914.2</ele>
        <time>2021-05-27T10:56:12Z</time>
      </trkpt>
      <trkpt lat="45.62102" lon="6.80666">
        <ele>914.2</ele>
        <time>2021-05-27T10:56:13Z</time>
      </trkpt>
      <trkpt lat="45.62102" lon="6.80674">
        <ele>914</ele>
        <time>2021-05-27T10:56:14Z</time>
      </trkpt>
      <trkpt lat="45.62103" lon="6.80682">
        <ele>914</ele>
        <time>2021-05-27T10:56:15Z</time>
      </trkpt>
      <trkpt lat="45.62104" lon="6.8069">
        <ele>913.8</ele>
        <time>2021-05-27T10:56:16Z</time>
      </trkpt>
      <trkpt lat="45.62104" lon="6.80698">
        <ele>913.4</ele>
        <time>2021-05-27T10:56:17Z</time>
      </trkpt>
      <trkpt lat="45.62105" lon="6.80706">
        <ele>913.4</ele>
        <time>2021-05-27T10:56:18Z</time>
      </trkpt>
      <trkpt lat="45.62105" lon="6.80714">
        <ele>913.4</ele>
        <time>2021-05-27T10:56:19Z</time>
      </trkpt>
      <trkpt lat="45.62106" lon="6.80722">
        <ele>913.2</ele>
        <time>2021-05-27T10:56:20Z</time>
      </trkpt>
      <trkpt lat="45.62106" lon="6.8073">
        <ele>913.8</ele>
        <time>2021-05-27T10:56:21Z</time>
      </trkpt>
      <trkpt lat="45.62107" lon="6.80738">
        <ele>914</ele>
        <time>2021-05-27T10:56:22Z</time>
      </trkpt>
      <trkpt lat="45.62107" lon="6.80747">
        <ele>914</ele>
        <time>2021-05-27T10:56:23Z</time>
      </trkpt>
      <trkpt lat="45.62107" lon="6.80755">
        <ele>914</ele>
        <time>2021-05-27T10:56:24Z</time>
      </trkpt>
      <trkpt lat="45.62108" lon="6.80763">
        <ele>914.2</ele>
        <time>2021-05-27T10:56:25Z</time>
      </trkpt>
      <trkpt lat="45.62108" lon="6.80772">
        <ele>914.2</ele>
        <time>2021-05-27T10:56:26Z</time>
      </trkpt>
      <trkpt lat="45.62109" lon="6.8078">
        <ele>914</ele>
        <time>2021-05-27T10:56:27Z</time>
      </trkpt>
      <trkpt lat="45.62109" lon="6.80788">
        <ele>914</ele>
        <time>2021-05-27T10:56:28Z</time>
      </trkpt>
      <trkpt lat="45.6211" lon="6.80797">
        <ele>914</ele>
        <time>2021-05-27T10:56:29Z</time>
      </trkpt>
      <trkpt lat="45.62111" lon="6.80806">
        <ele>914</ele>
        <time>2021-05-27T10:56:30Z</time>
      </trkpt>
      <trkpt lat="45.62112" lon="6.80814">
        <ele>914.2</ele>
        <time>2021-05-27T10:56:31Z</time>
      </trkpt>
      <trkpt lat="45.62112" lon="6.80822">
        <ele>914.6</ele>
        <time>2021-05-27T10:56:32Z</time>
      </trkpt>
      <trkpt lat="45.62113" lon="6.80831">
        <ele>914.8</ele>
        <time>2021-05-27T10:56:33Z</time>
      </trkpt>
      <trkpt lat="45.62113" lon="6.80839">
        <ele>915.2</ele>
        <time>2021-05-27T10:56:34Z</time>
      </trkpt>
      <trkpt lat="45.62114" lon="6.80848">
        <ele>915.4</ele>
        <time>2021-05-27T10:56:35Z</time>
      </trkpt>
      <trkpt lat="45.62114" lon="6.80856">
        <ele>915.8</ele>
        <time>2021-05-27T10:56:36Z</time>
      </trkpt>
      <trkpt lat="45.62115" lon="6.80864">
        <ele>916</ele>
        <time>2021-05-27T10:56:37Z</time>
      </trkpt>
      <trkpt lat="45.62116" lon="6.80872">
        <ele>916.6</ele>
        <time>2021-05-27T10:56:38Z</time>
      </trkpt>
      <trkpt lat="45.62116" lon="6.8088">
        <ele>916.8</ele>
        <time>2021-05-27T10:56:39Z</time>
      </trkpt>
      <trkpt lat="45.62116" lon="6.80888">
        <ele>917.2</ele>
        <time>2021-05-27T10:56:40Z</time>
      </trkpt>
      <trkpt lat="45.62117" lon="6.80897">
        <ele>917.4</ele>
        <time>2021-05-27T10:56:41Z</time>
      </trkpt>
      <trkpt lat="45.62117" lon="6.80904">
        <ele>917.8</ele>
        <time>2021-05-27T10:56:42Z</time>
      </trkpt>
      <trkpt lat="45.62118" lon="6.80912">
        <ele>918</ele>
        <time>2021-05-27T10:56:43Z</time>
      </trkpt>
      <trkpt lat="45.62118" lon="6.8092">
        <ele>918.2</ele>
        <time>2021-05-27T10:56:44Z</time>
      </trkpt>
      <trkpt lat="45.62119" lon="6.80928">
        <ele>918.6</ele>
        <time>2021-05-27T10:56:45Z</time>
      </trkpt>
      <trkpt lat="45.62119" lon="6.80936">
        <ele>918.8</ele>
        <time>2021-05-27T10:56:46Z</time>
      </trkpt>
      <trkpt lat="45.6212" lon="6.80944">
        <ele>919.2</ele>
        <time>2021-05-27T10:56:47Z</time>
      </trkpt>
      <trkpt lat="45.6212" lon="6.80953">
        <ele>919.4</ele>
        <time>2021-05-27T10:56:48Z</time>
      </trkpt>
      <trkpt lat="45.62121" lon="6.80961">
        <ele>919.6</ele>
        <time>2021-05-27T10:56:49Z</time>
      </trkpt>
      <trkpt lat="45.62122" lon="6.80969">
        <ele>920.2</ele>
        <time>2021-05-27T10:56:50Z</time>
      </trkpt>
      <trkpt lat="45.62122" lon="6.80977">
        <ele>920.6</ele>
        <time>2021-05-27T10:56:51Z</time>
      </trkpt>
      <trkpt lat="45.62123" lon="6.80985">
        <ele>921</ele>
        <time>2021-05-27T10:56:52Z</time>
      </trkpt>
      <trkpt lat="45.62123" lon="6.80993">
        <ele>921.4</ele>
        <time>2021-05-27T10:56:53Z</time>
      </trkpt>
      <trkpt lat="45.62124" lon="6.81001">
        <ele>922</ele>
        <time>2021-05-27T10:56:54Z</time>
      </trkpt>
      <trkpt lat="45.62124" lon="6.81009">
        <ele>922.4</ele>
        <time>2021-05-27T10:56:55Z</time>
      </trkpt>
      <trkpt lat="45.62124" lon="6.81017">
        <ele>923</ele>
        <time>2021-05-27T10:56:56Z</time>
      </trkpt>
      <trkpt lat="45.62125" lon="6.81025">
        <ele>923.4</ele>
        <time>2021-05-27T10:56:57Z</time>
      </trkpt>
      <trkpt lat="45.62126" lon="6.81032">
        <ele>924</ele>
        <time>2021-05-27T10:56:58Z</time>
      </trkpt>
      <trkpt lat="45.62127" lon="6.8104">
        <ele>924.4</ele>
        <time>2021-05-27T10:56:59Z</time>
      </trkpt>
      <trkpt lat="45.62129" lon="6.81048">
        <ele>924.8</ele>
        <time>2021-05-27T10:57:00Z</time>
      </trkpt>
      <trkpt lat="45.62132" lon="6.81055">
        <ele>925.2</ele>
        <time>2021-05-27T10:57:01Z</time>
      </trkpt>
      <trkpt lat="45.62135" lon="6.81062">
        <ele>925.4</ele>
        <time>2021-05-27T10:57:02Z</time>
      </trkpt>
      <trkpt lat="45.6214" lon="6.81067">
        <ele>925.8</ele>
        <time>2021-05-27T10:57:03Z</time>
      </trkpt>
      <trkpt lat="45.62144" lon="6.81071">
        <ele>926.2</ele>
        <time>2021-05-27T10:57:04Z</time>
      </trkpt>
      <trkpt lat="45.62149" lon="6.81073">
        <ele>926.8</ele>
        <time>2021-05-27T10:57:05Z</time>
      </trkpt>
      <trkpt lat="45.62156" lon="6.81075">
        <ele>927.4</ele>
        <time>2021-05-27T10:57:06Z</time>
      </trkpt>
      <trkpt lat="45.62162" lon="6.81073">
        <ele>928.2</ele>
        <time>2021-05-27T10:57:07Z</time>
      </trkpt>
      <trkpt lat="45.62167" lon="6.81071">
        <ele>928.8</ele>
        <time>2021-05-27T10:57:08Z</time>
      </trkpt>
      <trkpt lat="45.62173" lon="6.81067">
        <ele>929.2</ele>
        <time>2021-05-27T10:57:09Z</time>
      </trkpt>
      <trkpt lat="45.62177" lon="6.81062">
        <ele>929.8</ele>
        <time>2021-05-27T10:57:10Z</time>
      </trkpt>
      <trkpt lat="45.62181" lon="6.81055">
        <ele>930.4</ele>
        <time>2021-05-27T10:57:11Z</time>
      </trkpt>
      <trkpt lat="45.62185" lon="6.81048">
        <ele>930.8</ele>
        <time>2021-05-27T10:57:12Z</time>
      </trkpt>
      <trkpt lat="45.62187" lon="6.8104">
        <ele>931</ele>
        <time>2021-05-27T10:57:13Z</time>
      </trkpt>
      <trkpt lat="45.62189" lon="6.81032">
        <ele>931.4</ele>
        <time>2021-05-27T10:57:14Z</time>
      </trkpt>
      <trkpt lat="45.62191" lon="6.81023">
        <ele>931.8</ele>
        <time>2021-05-27T10:57:15Z</time>
      </trkpt>
      <trkpt lat="45.62193" lon="6.81014">
        <ele>932.2</ele>
        <time>2021-05-27T10:57:16Z</time>
      </trkpt>
      <trkpt lat="45.62195" lon="6.81005">
        <ele>932.4</ele>
        <time>2021-05-27T10:57:17Z</time>
      </trkpt>
      <trkpt lat="45.62196" lon="6.80996">
        <ele>932.6</ele>
        <time>2021-05-27T10:57:18Z</time>
      </trkpt>
      <trkpt lat="45.62197" lon="6.80988">
        <ele>933</ele>
        <time>2021-05-27T10:57:19Z</time>
      </trkpt>
      <trkpt lat="45.62199" lon="6.8098">
        <ele>933.2</ele>
        <time>2021-05-27T10:57:20Z</time>
      </trkpt>
      <trkpt lat="45.62201" lon="6.80972">
        <ele>933.6</ele>
        <time>2021-05-27T10:57:21Z</time>
      </trkpt>
      <trkpt lat="45.62203" lon="6.80964">
        <ele>934</ele>
        <time>2021-05-27T10:57:22Z</time>
      </trkpt>
      <trkpt lat="45.62204" lon="6.80956">
        <ele>933.8</ele>
        <time>2021-05-27T10:57:23Z</time>
      </trkpt>
      <trkpt lat="45.62205" lon="6.80949">
        <ele>933.6</ele>
        <time>2021-05-27T10:57:24Z</time>
      </trkpt>
      <trkpt lat="45.62207" lon="6.80942">
        <ele>933.6</ele>
        <time>2021-05-27T10:57:25Z</time>
      </trkpt>
      <trkpt lat="45.62209" lon="6.80935">
        <ele>933.8</ele>
        <time>2021-05-27T10:57:26Z</time>
      </trkpt>
      <trkpt lat="45.62211" lon="6.80927">
        <ele>934</ele>
        <time>2021-05-27T10:57:27Z</time>
      </trkpt>
      <trkpt lat="45.62212" lon="6.8092">
        <ele>934.2</ele>
        <time>2021-05-27T10:57:28Z</time>
      </trkpt>
      <trkpt lat="45.62213" lon="6.80912">
        <ele>934</ele>
        <time>2021-05-27T10:57:29Z</time>
      </trkpt>
      <trkpt lat="45.62215" lon="6.80904">
        <ele>934</ele>
        <time>2021-05-27T10:57:30Z</time>
      </trkpt>
      <trkpt lat="45.62217" lon="6.80897">
        <ele>933.8</ele>
        <time>2021-05-27T10:57:31Z</time>
      </trkpt>
      <trkpt lat="45.62218" lon="6.8089">
        <ele>933.8</ele>
        <time>2021-05-27T10:57:32Z</time>
      </trkpt>
      <trkpt lat="45.62219" lon="6.80883">
        <ele>934</ele>
        <time>2021-05-27T10:57:33Z</time>
      </trkpt>
      <trkpt lat="45.62221" lon="6.80875">
        <ele>934</ele>
        <time>2021-05-27T10:57:34Z</time>
      </trkpt>
      <trkpt lat="45.62222" lon="6.80868">
        <ele>934</ele>
        <time>2021-05-27T10:57:35Z</time>
      </trkpt>
      <trkpt lat="45.62224" lon="6.8086">
        <ele>934.2</ele>
        <time>2021-05-27T10:57:36Z</time>
      </trkpt>
      <trkpt lat="45.62225" lon="6.80853">
        <ele>934.4</ele>
        <time>2021-05-27T10:57:37Z</time>
      </trkpt>
      <trkpt lat="45.62227" lon="6.80846">
        <ele>934.6</ele>
        <time>2021-05-27T10:57:38Z</time>
      </trkpt>
      <trkpt lat="45.62228" lon="6.80839">
        <ele>934.8</ele>
        <time>2021-05-27T10:57:39Z</time>
      </trkpt>
      <trkpt lat="45.62229" lon="6.80831">
        <ele>934.8</ele>
        <time>2021-05-27T10:57:40Z</time>
      </trkpt>
      <trkpt lat="45.62231" lon="6.80824">
        <ele>935</ele>
        <time>2021-05-27T10:57:41Z</time>
      </trkpt>
      <trkpt lat="45.62234" lon="6.80818">
        <ele>935.2</ele>
        <time>2021-05-27T10:57:42Z</time>
      </trkpt>
      <trkpt lat="45.62237" lon="6.80812">
        <ele>935.2</ele>
        <time>2021-05-27T10:57:43Z</time>
      </trkpt>
      <trkpt lat="45.62241" lon="6.80808">
        <ele>935.2</ele>
        <time>2021-05-27T10:57:44Z</time>
      </trkpt>
      <trkpt lat="45.62246" lon="6.80807">
        <ele>935.4</ele>
        <time>2021-05-27T10:57:45Z</time>
      </trkpt>
      <trkpt lat="45.62251" lon="6.8081">
        <ele>934.6</ele>
        <time>2021-05-27T10:57:46Z</time>
      </trkpt>
      <trkpt lat="45.62254" lon="6.80814">
        <ele>934.4</ele>
        <time>2021-05-27T10:57:47Z</time>
      </trkpt>
      <trkpt lat="45.62256" lon="6.80821">
        <ele>934.2</ele>
        <time>2021-05-27T10:57:48Z</time>
      </trkpt>
      <trkpt lat="45.62258" lon="6.80828">
        <ele>934</ele>
        <time>2021-05-27T10:57:49Z</time>
      </trkpt>
      <trkpt lat="45.62259" lon="6.80836">
        <ele>934</ele>
        <time>2021-05-27T10:57:50Z</time>
      </trkpt>
      <trkpt lat="45.6226" lon="6.80844">
        <ele>934</ele>
        <time>2021-05-27T10:57:51Z</time>
      </trkpt>
      <trkpt lat="45.62261" lon="6.80852">
        <ele>934</ele>
        <time>2021-05-27T10:57:52Z</time>
      </trkpt>
      <trkpt lat="45.62262" lon="6.80859">
        <ele>934</ele>
        <time>2021-05-27T10:57:53Z</time>
      </trkpt>
      <trkpt lat="45.62263" lon="6.80867">
        <ele>934.2</ele>
        <time>2021-05-27T10:57:54Z</time>
      </trkpt>
      <trkpt lat="45.62264" lon="6.80875">
        <ele>934.6</ele>
        <time>2021-05-27T10:57:55Z</time>
      </trkpt>
      <trkpt lat="45.62265" lon="6.80882">
        <ele>934.8</ele>
        <time>2021-05-27T10:57:56Z</time>
      </trkpt>
      <trkpt lat="45.62267" lon="6.80889">
        <ele>935.2</ele>
        <time>2021-05-27T10:57:57Z</time>
      </trkpt>
      <trkpt lat="45.62268" lon="6.80896">
        <ele>935.4</ele>
        <time>2021-05-27T10:57:58Z</time>
      </trkpt>
      <trkpt lat="45.62269" lon="6.80903">
        <ele>935.8</ele>
        <time>2021-05-27T10:57:59Z</time>
      </trkpt>
      <trkpt lat="45.62269" lon="6.8091">
        <ele>936.2</ele>
        <time>2021-05-27T10:58:00Z</time>
      </trkpt>
      <trkpt lat="45.6227" lon="6.80917">
        <ele>936.6</ele>
        <time>2021-05-27T10:58:01Z</time>
      </trkpt>
      <trkpt lat="45.62271" lon="6.80924">
        <ele>937</ele>
        <time>2021-05-27T10:58:02Z</time>
      </trkpt>
      <trkpt lat="45.62271" lon="6.80931">
        <ele>937.4</ele>
        <time>2021-05-27T10:58:03Z</time>
      </trkpt>
      <trkpt lat="45.62273" lon="6.80938">
        <ele>937.8</ele>
        <time>2021-05-27T10:58:04Z</time>
      </trkpt>
      <trkpt lat="45.62274" lon="6.80946">
        <ele>938.2</ele>
        <time>2021-05-27T10:58:05Z</time>
      </trkpt>
      <trkpt lat="45.62274" lon="6.80952">
        <ele>938.6</ele>
        <time>2021-05-27T10:58:06Z</time>
      </trkpt>
      <trkpt lat="45.62275" lon="6.8096">
        <ele>939.2</ele>
        <time>2021-05-27T10:58:07Z</time>
      </trkpt>
      <trkpt lat="45.62276" lon="6.80967">
        <ele>939.6</ele>
        <time>2021-05-27T10:58:08Z</time>
      </trkpt>
      <trkpt lat="45.62277" lon="6.80973">
        <ele>940</ele>
        <time>2021-05-27T10:58:09Z</time>
      </trkpt>
      <trkpt lat="45.62278" lon="6.80979">
        <ele>940</ele>
        <time>2021-05-27T10:58:10Z</time>
      </trkpt>
      <trkpt lat="45.62279" lon="6.80986">
        <ele>940.2</ele>
        <time>2021-05-27T10:58:11Z</time>
      </trkpt>
      <trkpt lat="45.62279" lon="6.80993">
        <ele>940.2</ele>
        <time>2021-05-27T10:58:12Z</time>
      </trkpt>
      <trkpt lat="45.6228" lon="6.81">
        <ele>940.4</ele>
        <time>2021-05-27T10:58:13Z</time>
      </trkpt>
      <trkpt lat="45.62281" lon="6.81006">
        <ele>940.4</ele>
        <time>2021-05-27T10:58:14Z</time>
      </trkpt>
      <trkpt lat="45.62282" lon="6.81013">
        <ele>940.4</ele>
        <time>2021-05-27T10:58:15Z</time>
      </trkpt>
      <trkpt lat="45.62283" lon="6.8102">
        <ele>940.6</ele>
        <time>2021-05-27T10:58:16Z</time>
      </trkpt>
      <trkpt lat="45.62284" lon="6.81027">
        <ele>940.6</ele>
        <time>2021-05-27T10:58:17Z</time>
      </trkpt>
      <trkpt lat="45.62285" lon="6.81034">
        <ele>940.8</ele>
        <time>2021-05-27T10:58:18Z</time>
      </trkpt>
      <trkpt lat="45.62286" lon="6.81041">
        <ele>941.2</ele>
        <time>2021-05-27T10:58:19Z</time>
      </trkpt>
      <trkpt lat="45.62287" lon="6.81048">
        <ele>941.4</ele>
        <time>2021-05-27T10:58:20Z</time>
      </trkpt>
      <trkpt lat="45.62288" lon="6.81054">
        <ele>941.8</ele>
        <time>2021-05-27T10:58:21Z</time>
      </trkpt>
      <trkpt lat="45.62289" lon="6.81061">
        <ele>942.2</ele>
        <time>2021-05-27T10:58:22Z</time>
      </trkpt>
      <trkpt lat="45.6229" lon="6.81068">
        <ele>942.6</ele>
        <time>2021-05-27T10:58:23Z</time>
      </trkpt>
      <trkpt lat="45.62291" lon="6.81075">
        <ele>943</ele>
        <time>2021-05-27T10:58:24Z</time>
      </trkpt>
      <trkpt lat="45.62292" lon="6.81081">
        <ele>943.6</ele>
        <time>2021-05-27T10:58:25Z</time>
      </trkpt>
      <trkpt lat="45.62292" lon="6.81087">
        <ele>944</ele>
        <time>2021-05-27T10:58:26Z</time>
      </trkpt>
      <trkpt lat="45.62294" lon="6.81093">
        <ele>944.6</ele>
        <time>2021-05-27T10:58:27Z</time>
      </trkpt>
      <trkpt lat="45.62297" lon="6.81098">
        <ele>945</ele>
        <time>2021-05-27T10:58:28Z</time>
      </trkpt>
      <trkpt lat="45.623" lon="6.81102">
        <ele>945.2</ele>
        <time>2021-05-27T10:58:29Z</time>
      </trkpt>
      <trkpt lat="45.62305" lon="6.81104">
        <ele>945.2</ele>
        <time>2021-05-27T10:58:30Z</time>
      </trkpt>
      <trkpt lat="45.62309" lon="6.81104">
        <ele>945.8</ele>
        <time>2021-05-27T10:58:31Z</time>
      </trkpt>
      <trkpt lat="45.62314" lon="6.81102">
        <ele>946.2</ele>
        <time>2021-05-27T10:58:32Z</time>
      </trkpt>
      <trkpt lat="45.62318" lon="6.81098">
        <ele>946.8</ele>
        <time>2021-05-27T10:58:33Z</time>
      </trkpt>
      <trkpt lat="45.62322" lon="6.81092">
        <ele>947.4</ele>
        <time>2021-05-27T10:58:34Z</time>
      </trkpt>
      <trkpt lat="45.62324" lon="6.81086">
        <ele>948.2</ele>
        <time>2021-05-27T10:58:35Z</time>
      </trkpt>
      <trkpt lat="45.62327" lon="6.81078">
        <ele>948.8</ele>
        <time>2021-05-27T10:58:36Z</time>
      </trkpt>
      <trkpt lat="45.62329" lon="6.81071">
        <ele>949.2</ele>
        <time>2021-05-27T10:58:37Z</time>
      </trkpt>
      <trkpt lat="45.62332" lon="6.81063">
        <ele>949.6</ele>
        <time>2021-05-27T10:58:38Z</time>
      </trkpt>
      <trkpt lat="45.62334" lon="6.81057">
        <ele>950</ele>
        <time>2021-05-27T10:58:39Z</time>
      </trkpt>
      <trkpt lat="45.62338" lon="6.8105">
        <ele>950.4</ele>
        <time>2021-05-27T10:58:40Z</time>
      </trkpt>
      <trkpt lat="45.6234" lon="6.81044">
        <ele>951.2</ele>
        <time>2021-05-27T10:58:41Z</time>
      </trkpt>
      <trkpt lat="45.62343" lon="6.81038">
        <ele>951.6</ele>
        <time>2021-05-27T10:58:42Z</time>
      </trkpt>
      <trkpt lat="45.62345" lon="6.81032">
        <ele>952</ele>
        <time>2021-05-27T10:58:43Z</time>
      </trkpt>
      <trkpt lat="45.62348" lon="6.81026">
        <ele>952.4</ele>
        <time>2021-05-27T10:58:44Z</time>
      </trkpt>
      <trkpt lat="45.6235" lon="6.8102">
        <ele>952.8</ele>
        <time>2021-05-27T10:58:45Z</time>
      </trkpt>
      <trkpt lat="45.62353" lon="6.81014">
        <ele>953.4</ele>
        <time>2021-05-27T10:58:46Z</time>
      </trkpt>
      <trkpt lat="45.62355" lon="6.81009">
        <ele>953.8</ele>
        <time>2021-05-27T10:58:47Z</time>
      </trkpt>
      <trkpt lat="45.62357" lon="6.81003">
        <ele>954.2</ele>
        <time>2021-05-27T10:58:48Z</time>
      </trkpt>
      <trkpt lat="45.6236" lon="6.80997">
        <ele>954.6</ele>
        <time>2021-05-27T10:58:49Z</time>
      </trkpt>
      <trkpt lat="45.62362" lon="6.8099">
        <ele>955.4</ele>
        <time>2021-05-27T10:58:50Z</time>
      </trkpt>
      <trkpt lat="45.62364" lon="6.80984">
        <ele>956</ele>
        <time>2021-05-27T10:58:51Z</time>
      </trkpt>
      <trkpt lat="45.62367" lon="6.80978">
        <ele>956.6</ele>
        <time>2021-05-27T10:58:52Z</time>
      </trkpt>
      <trkpt lat="45.62369" lon="6.80972">
        <ele>956.8</ele>
        <time>2021-05-27T10:58:53Z</time>
      </trkpt>
      <trkpt lat="45.62372" lon="6.80966">
        <ele>957.2</ele>
        <time>2021-05-27T10:58:54Z</time>
      </trkpt>
      <trkpt lat="45.62374" lon="6.8096">
        <ele>957.4</ele>
        <time>2021-05-27T10:58:55Z</time>
      </trkpt>
      <trkpt lat="45.62377" lon="6.80953">
        <ele>957.8</ele>
        <time>2021-05-27T10:58:56Z</time>
      </trkpt>
      <trkpt lat="45.6238" lon="6.80947">
        <ele>958.4</ele>
        <time>2021-05-27T10:58:57Z</time>
      </trkpt>
      <trkpt lat="45.62382" lon="6.80941">
        <ele>958.4</ele>
        <time>2021-05-27T10:58:58Z</time>
      </trkpt>
      <trkpt lat="45.62385" lon="6.80934">
        <ele>958.6</ele>
        <time>2021-05-27T10:58:59Z</time>
      </trkpt>
      <trkpt lat="45.62387" lon="6.80928">
        <ele>958.6</ele>
        <time>2021-05-27T10:59:00Z</time>
      </trkpt>
      <trkpt lat="45.6239" lon="6.80922">
        <ele>958.8</ele>
        <time>2021-05-27T10:59:01Z</time>
      </trkpt>
      <trkpt lat="45.62392" lon="6.80916">
        <ele>959</ele>
        <time>2021-05-27T10:59:02Z</time>
      </trkpt>
      <trkpt lat="45.62395" lon="6.8091">
        <ele>959.2</ele>
        <time>2021-05-27T10:59:03Z</time>
      </trkpt>
      <trkpt lat="45.62398" lon="6.80904">
        <ele>959.6</ele>
        <time>2021-05-27T10:59:04Z</time>
      </trkpt>
      <trkpt lat="45.624" lon="6.80898">
        <ele>960</ele>
        <time>2021-05-27T10:59:05Z</time>
      </trkpt>
      <trkpt lat="45.62402" lon="6.80892">
        <ele>960.2</ele>
        <time>2021-05-27T10:59:06Z</time>
      </trkpt>
      <trkpt lat="45.62405" lon="6.80886">
        <ele>960.4</ele>
        <time>2021-05-27T10:59:07Z</time>
      </trkpt>
      <trkpt lat="45.62407" lon="6.8088">
        <ele>960.6</ele>
        <time>2021-05-27T10:59:08Z</time>
      </trkpt>
      <trkpt lat="45.6241" lon="6.80873">
        <ele>960.8</ele>
        <time>2021-05-27T10:59:09Z</time>
      </trkpt>
      <trkpt lat="45.62412" lon="6.80867">
        <ele>960.8</ele>
        <time>2021-05-27T10:59:10Z</time>
      </trkpt>
      <trkpt lat="45.62414" lon="6.80861">
        <ele>961</ele>
        <time>2021-05-27T10:59:11Z</time>
      </trkpt>
      <trkpt lat="45.62417" lon="6.80855">
        <ele>961.2</ele>
        <time>2021-05-27T10:59:12Z</time>
      </trkpt>
      <trkpt lat="45.62419" lon="6.80849">
        <ele>961.2</ele>
        <time>2021-05-27T10:59:13Z</time>
      </trkpt>
      <trkpt lat="45.62421" lon="6.80844">
        <ele>961</ele>
        <time>2021-05-27T10:59:14Z</time>
      </trkpt>
      <trkpt lat="45.62424" lon="6.80838">
        <ele>960.8</ele>
        <time>2021-05-27T10:59:15Z</time>
      </trkpt>
      <trkpt lat="45.62426" lon="6.80833">
        <ele>960.8</ele>
        <time>2021-05-27T10:59:16Z</time>
      </trkpt>
      <trkpt lat="45.62428" lon="6.80828">
        <ele>961</ele>
        <time>2021-05-27T10:59:17Z</time>
      </trkpt>
      <trkpt lat="45.6243" lon="6.80822">
        <ele>961.2</ele>
        <time>2021-05-27T10:59:18Z</time>
      </trkpt>
      <trkpt lat="45.62432" lon="6.80816">
        <ele>961.4</ele>
        <time>2021-05-27T10:59:19Z</time>
      </trkpt>
      <trkpt lat="45.62436" lon="6.8081">
        <ele>961.6</ele>
        <time>2021-05-27T10:59:20Z</time>
      </trkpt>
      <trkpt lat="45.62439" lon="6.80806">
        <ele>962</ele>
        <time>2021-05-27T10:59:21Z</time>
      </trkpt>
      <trkpt lat="45.62442" lon="6.80802">
        <ele>962.4</ele>
        <time>2021-05-27T10:59:22Z</time>
      </trkpt>
      <trkpt lat="45.62445" lon="6.80798">
        <ele>962.6</ele>
        <time>2021-05-27T10:59:23Z</time>
      </trkpt>
      <trkpt lat="45.62449" lon="6.80795">
        <ele>962.8</ele>
        <time>2021-05-27T10:59:24Z</time>
      </trkpt>
      <trkpt lat="45.62452" lon="6.80795">
        <ele>962.8</ele>
        <time>2021-05-27T10:59:25Z</time>
      </trkpt>
      <trkpt lat="45.62455" lon="6.80797">
        <ele>963</ele>
        <time>2021-05-27T10:59:26Z</time>
      </trkpt>
      <trkpt lat="45.62457" lon="6.808">
        <ele>963.4</ele>
        <time>2021-05-27T10:59:27Z</time>
      </trkpt>
      <trkpt lat="45.6246" lon="6.80808">
        <ele>963.6</ele>
        <time>2021-05-27T10:59:28Z</time>
      </trkpt>
      <trkpt lat="45.62462" lon="6.80816">
        <ele>963.8</ele>
        <time>2021-05-27T10:59:29Z</time>
      </trkpt>
      <trkpt lat="45.62464" lon="6.80824">
        <ele>964</ele>
        <time>2021-05-27T10:59:30Z</time>
      </trkpt>
      <trkpt lat="45.62465" lon="6.80831">
        <ele>964.4</ele>
        <time>2021-05-27T10:59:31Z</time>
      </trkpt>
      <trkpt lat="45.62466" lon="6.80838">
        <ele>964.6</ele>
        <time>2021-05-27T10:59:32Z</time>
      </trkpt>
      <trkpt lat="45.62467" lon="6.80845">
        <ele>964.8</ele>
        <time>2021-05-27T10:59:33Z</time>
      </trkpt>
      <trkpt lat="45.62468" lon="6.80851">
        <ele>965</ele>
        <time>2021-05-27T10:59:34Z</time>
      </trkpt>
      <trkpt lat="45.6247" lon="6.80857">
        <ele>965.2</ele>
        <time>2021-05-27T10:59:35Z</time>
      </trkpt>
      <trkpt lat="45.62472" lon="6.80864">
        <ele>965.4</ele>
        <time>2021-05-27T10:59:36Z</time>
      </trkpt>
      <trkpt lat="45.62473" lon="6.8087">
        <ele>965.8</ele>
        <time>2021-05-27T10:59:37Z</time>
      </trkpt>
      <trkpt lat="45.62474" lon="6.80877">
        <ele>966</ele>
        <time>2021-05-27T10:59:38Z</time>
      </trkpt>
      <trkpt lat="45.62475" lon="6.80884">
        <ele>966.4</ele>
        <time>2021-05-27T10:59:39Z</time>
      </trkpt>
      <trkpt lat="45.62476" lon="6.80891">
        <ele>966.6</ele>
        <time>2021-05-27T10:59:40Z</time>
      </trkpt>
      <trkpt lat="45.62477" lon="6.80898">
        <ele>967</ele>
        <time>2021-05-27T10:59:41Z</time>
      </trkpt>
      <trkpt lat="45.62479" lon="6.80904">
        <ele>967.2</ele>
        <time>2021-05-27T10:59:42Z</time>
      </trkpt>
      <trkpt lat="45.6248" lon="6.8091">
        <ele>967.2</ele>
        <time>2021-05-27T10:59:43Z</time>
      </trkpt>
      <trkpt lat="45.62481" lon="6.80917">
        <ele>967.4</ele>
        <time>2021-05-27T10:59:44Z</time>
      </trkpt>
      <trkpt lat="45.62482" lon="6.80922">
        <ele>967.6</ele>
        <time>2021-05-27T10:59:45Z</time>
      </trkpt>
      <trkpt lat="45.62483" lon="6.80929">
        <ele>967.6</ele>
        <time>2021-05-27T10:59:46Z</time>
      </trkpt>
      <trkpt lat="45.62484" lon="6.80935">
        <ele>967.6</ele>
        <time>2021-05-27T10:59:47Z</time>
      </trkpt>
      <trkpt lat="45.62485" lon="6.80941">
        <ele>967.8</ele>
        <time>2021-05-27T10:59:48Z</time>
      </trkpt>
      <trkpt lat="45.62486" lon="6.80947">
        <ele>968</ele>
        <time>2021-05-27T10:59:49Z</time>
      </trkpt>
      <trkpt lat="45.62487" lon="6.80954">
        <ele>968.4</ele>
        <time>2021-05-27T10:59:50Z</time>
      </trkpt>
      <trkpt lat="45.62487" lon="6.8096">
        <ele>968.8</ele>
        <time>2021-05-27T10:59:51Z</time>
      </trkpt>
      <trkpt lat="45.62488" lon="6.80967">
        <ele>969.2</ele>
        <time>2021-05-27T10:59:52Z</time>
      </trkpt>
      <trkpt lat="45.62489" lon="6.80973">
        <ele>969.6</ele>
        <time>2021-05-27T10:59:53Z</time>
      </trkpt>
      <trkpt lat="45.6249" lon="6.80979">
        <ele>969.8</ele>
        <time>2021-05-27T10:59:54Z</time>
      </trkpt>
      <trkpt lat="45.6249" lon="6.80986">
        <ele>970.4</ele>
        <time>2021-05-27T10:59:55Z</time>
      </trkpt>
      <trkpt lat="45.62491" lon="6.80992">
        <ele>971.2</ele>
        <time>2021-05-27T10:59:56Z</time>
      </trkpt>
      <trkpt lat="45.62491" lon="6.80999">
        <ele>972</ele>
        <time>2021-05-27T10:59:57Z</time>
      </trkpt>
      <trkpt lat="45.62492" lon="6.81005">
        <ele>972.4</ele>
        <time>2021-05-27T10:59:58Z</time>
      </trkpt>
      <trkpt lat="45.62493" lon="6.81012">
        <ele>972.8</ele>
        <time>2021-05-27T10:59:59Z</time>
      </trkpt>
      <trkpt lat="45.62495" lon="6.81018">
        <ele>972.8</ele>
        <time>2021-05-27T11:00:00Z</time>
      </trkpt>
      <trkpt lat="45.62496" lon="6.81025">
        <ele>973.8</ele>
        <time>2021-05-27T11:00:01Z</time>
      </trkpt>
      <trkpt lat="45.62497" lon="6.81031">
        <ele>974.2</ele>
        <time>2021-05-27T11:00:02Z</time>
      </trkpt>
      <trkpt lat="45.62498" lon="6.81038">
        <ele>974.6</ele>
        <time>2021-05-27T11:00:03Z</time>
      </trkpt>
      <trkpt lat="45.62499" lon="6.81044">
        <ele>974.8</ele>
        <time>2021-05-27T11:00:04Z</time>
      </trkpt>
      <trkpt lat="45.625" lon="6.8105">
        <ele>975</ele>
        <time>2021-05-27T11:00:05Z</time>
      </trkpt>
      <trkpt lat="45.62501" lon="6.81056">
        <ele>975.4</ele>
        <time>2021-05-27T11:00:06Z</time>
      </trkpt>
      <trkpt lat="45.62502" lon="6.81063">
        <ele>975.4</ele>
        <time>2021-05-27T11:00:07Z</time>
      </trkpt>
      <trkpt lat="45.62503" lon="6.81069">
        <ele>975.6</ele>
        <time>2021-05-27T11:00:08Z</time>
      </trkpt>
      <trkpt lat="45.62504" lon="6.81075">
        <ele>975.8</ele>
        <time>2021-05-27T11:00:09Z</time>
      </trkpt>
      <trkpt lat="45.62505" lon="6.81081">
        <ele>975.8</ele>
        <time>2021-05-27T11:00:10Z</time>
      </trkpt>
      <trkpt lat="45.62507" lon="6.81087">
        <ele>975.8</ele>
        <time>2021-05-27T11:00:11Z</time>
      </trkpt>
      <trkpt lat="45.62508" lon="6.81093">
        <ele>975.8</ele>
        <time>2021-05-27T11:00:12Z</time>
      </trkpt>
      <trkpt lat="45.62508" lon="6.811">
        <ele>975.6</ele>
        <time>2021-05-27T11:00:13Z</time>
      </trkpt>
      <trkpt lat="45.62509" lon="6.81106">
        <ele>975.8</ele>
        <time>2021-05-27T11:00:14Z</time>
      </trkpt>
      <trkpt lat="45.62511" lon="6.81113">
        <ele>975.8</ele>
        <time>2021-05-27T11:00:15Z</time>
      </trkpt>
      <trkpt lat="45.62512" lon="6.81119">
        <ele>976</ele>
        <time>2021-05-27T11:00:16Z</time>
      </trkpt>
      <trkpt lat="45.62513" lon="6.81126">
        <ele>976.4</ele>
        <time>2021-05-27T11:00:17Z</time>
      </trkpt>
      <trkpt lat="45.62514" lon="6.81132">
        <ele>976.8</ele>
        <time>2021-05-27T11:00:18Z</time>
      </trkpt>
      <trkpt lat="45.62515" lon="6.81138">
        <ele>977.6</ele>
        <time>2021-05-27T11:00:19Z</time>
      </trkpt>
      <trkpt lat="45.62516" lon="6.81145">
        <ele>978.2</ele>
        <time>2021-05-27T11:00:20Z</time>
      </trkpt>
      <trkpt lat="45.62517" lon="6.81151">
        <ele>979</ele>
        <time>2021-05-27T11:00:21Z</time>
      </trkpt>
      <trkpt lat="45.62519" lon="6.81157">
        <ele>979.8</ele>
        <time>2021-05-27T11:00:22Z</time>
      </trkpt>
      <trkpt lat="45.62523" lon="6.81161">
        <ele>980.6</ele>
        <time>2021-05-27T11:00:23Z</time>
      </trkpt>
      <trkpt lat="45.62526" lon="6.81164">
        <ele>981.4</ele>
        <time>2021-05-27T11:00:24Z</time>
      </trkpt>
      <trkpt lat="45.62531" lon="6.81166">
        <ele>981.8</ele>
        <time>2021-05-27T11:00:25Z</time>
      </trkpt>
      <trkpt lat="45.62535" lon="6.81167">
        <ele>982.2</ele>
        <time>2021-05-27T11:00:26Z</time>
      </trkpt>
      <trkpt lat="45.62539" lon="6.81166">
        <ele>983</ele>
        <time>2021-05-27T11:00:27Z</time>
      </trkpt>
      <trkpt lat="45.62543" lon="6.81161">
        <ele>983.4</ele>
        <time>2021-05-27T11:00:28Z</time>
      </trkpt>
      <trkpt lat="45.62546" lon="6.81156">
        <ele>984</ele>
        <time>2021-05-27T11:00:29Z</time>
      </trkpt>
      <trkpt lat="45.62549" lon="6.8115">
        <ele>984.6</ele>
        <time>2021-05-27T11:00:30Z</time>
      </trkpt>
      <trkpt lat="45.62551" lon="6.81143">
        <ele>985.2</ele>
        <time>2021-05-27T11:00:31Z</time>
      </trkpt>
      <trkpt lat="45.62553" lon="6.81136">
        <ele>986</ele>
        <time>2021-05-27T11:00:32Z</time>
      </trkpt>
      <trkpt lat="45.62555" lon="6.81128">
        <ele>986.8</ele>
        <time>2021-05-27T11:00:33Z</time>
      </trkpt>
      <trkpt lat="45.62557" lon="6.8112">
        <ele>987.4</ele>
        <time>2021-05-27T11:00:34Z</time>
      </trkpt>
      <trkpt lat="45.62559" lon="6.81114">
        <ele>988.2</ele>
        <time>2021-05-27T11:00:35Z</time>
      </trkpt>
      <trkpt lat="45.62561" lon="6.81107">
        <ele>988.8</ele>
        <time>2021-05-27T11:00:36Z</time>
      </trkpt>
      <trkpt lat="45.62563" lon="6.811">
        <ele>989.4</ele>
        <time>2021-05-27T11:00:37Z</time>
      </trkpt>
      <trkpt lat="45.62566" lon="6.81094">
        <ele>990</ele>
        <time>2021-05-27T11:00:38Z</time>
      </trkpt>
      <trkpt lat="45.62568" lon="6.81087">
        <ele>990.6</ele>
        <time>2021-05-27T11:00:39Z</time>
      </trkpt>
      <trkpt lat="45.6257" lon="6.81081">
        <ele>991</ele>
        <time>2021-05-27T11:00:40Z</time>
      </trkpt>
      <trkpt lat="45.62572" lon="6.81075">
        <ele>991.2</ele>
        <time>2021-05-27T11:00:41Z</time>
      </trkpt>
      <trkpt lat="45.62574" lon="6.81069">
        <ele>991.6</ele>
        <time>2021-05-27T11:00:42Z</time>
      </trkpt>
      <trkpt lat="45.62576" lon="6.81062">
        <ele>992</ele>
        <time>2021-05-27T11:00:43Z</time>
      </trkpt>
      <trkpt lat="45.62578" lon="6.81056">
        <ele>992.6</ele>
        <time>2021-05-27T11:00:44Z</time>
      </trkpt>
      <trkpt lat="45.6258" lon="6.8105">
        <ele>993</ele>
        <time>2021-05-27T11:00:45Z</time>
      </trkpt>
      <trkpt lat="45.62582" lon="6.81045">
        <ele>993.4</ele>
        <time>2021-05-27T11:00:46Z</time>
      </trkpt>
      <trkpt lat="45.62584" lon="6.81039">
        <ele>994</ele>
        <time>2021-05-27T11:00:47Z</time>
      </trkpt>
      <trkpt lat="45.62586" lon="6.81034">
        <ele>994.4</ele>
        <time>2021-05-27T11:00:48Z</time>
      </trkpt>
      <trkpt lat="45.62588" lon="6.81028">
        <ele>995</ele>
        <time>2021-05-27T11:00:49Z</time>
      </trkpt>
      <trkpt lat="45.6259" lon="6.81022">
        <ele>995.6</ele>
        <time>2021-05-27T11:00:50Z</time>
      </trkpt>
      <trkpt lat="45.62592" lon="6.81016">
        <ele>996.2</ele>
        <time>2021-05-27T11:00:51Z</time>
      </trkpt>
      <trkpt lat="45.62595" lon="6.8101">
        <ele>996.4</ele>
        <time>2021-05-27T11:00:52Z</time>
      </trkpt>
      <trkpt lat="45.62597" lon="6.81004">
        <ele>997</ele>
        <time>2021-05-27T11:00:53Z</time>
      </trkpt>
      <trkpt lat="45.626" lon="6.80998">
        <ele>997.4</ele>
        <time>2021-05-27T11:00:54Z</time>
      </trkpt>
      <trkpt lat="45.62603" lon="6.80992">
        <ele>997.8</ele>
        <time>2021-05-27T11:00:55Z</time>
      </trkpt>
      <trkpt lat="45.62605" lon="6.80987">
        <ele>998.2</ele>
        <time>2021-05-27T11:00:56Z</time>
      </trkpt>
      <trkpt lat="45.62608" lon="6.80981">
        <ele>998.6</ele>
        <time>2021-05-27T11:00:57Z</time>
      </trkpt>
      <trkpt lat="45.62611" lon="6.80976">
        <ele>999</ele>
        <time>2021-05-27T11:00:58Z</time>
      </trkpt>
      <trkpt lat="45.62614" lon="6.80971">
        <ele>999.4</ele>
        <time>2021-05-27T11:00:59Z</time>
      </trkpt>
      <trkpt lat="45.62617" lon="6.80966">
        <ele>1000.2</ele>
        <time>2021-05-27T11:01:00Z</time>
      </trkpt>
      <trkpt lat="45.6262" lon="6.8096">
        <ele>1000.4</ele>
        <time>2021-05-27T11:01:01Z</time>
      </trkpt>
      <trkpt lat="45.62623" lon="6.80955">
        <ele>1000.6</ele>
        <time>2021-05-27T11:01:02Z</time>
      </trkpt>
      <trkpt lat="45.62626" lon="6.8095">
        <ele>1001</ele>
        <time>2021-05-27T11:01:03Z</time>
      </trkpt>
      <trkpt lat="45.62629" lon="6.80945">
        <ele>1001.4</ele>
        <time>2021-05-27T11:01:04Z</time>
      </trkpt>
      <trkpt lat="45.62632" lon="6.8094">
        <ele>1001.6</ele>
        <time>2021-05-27T11:01:05Z</time>
      </trkpt>
      <trkpt lat="45.62636" lon="6.80935">
        <ele>1002</ele>
        <time>2021-05-27T11:01:06Z</time>
      </trkpt>
      <trkpt lat="45.62639" lon="6.8093">
        <ele>1002</ele>
        <time>2021-05-27T11:01:07Z</time>
      </trkpt>
      <trkpt lat="45.62642" lon="6.80925">
        <ele>1002.2</ele>
        <time>2021-05-27T11:01:08Z</time>
      </trkpt>
      <trkpt lat="45.62645" lon="6.8092">
        <ele>1002.2</ele>
        <time>2021-05-27T11:01:09Z</time>
      </trkpt>
      <trkpt lat="45.62649" lon="6.80915">
        <ele>1002</ele>
        <time>2021-05-27T11:01:10Z</time>
      </trkpt>
      <trkpt lat="45.62652" lon="6.80911">
        <ele>1002.2</ele>
        <time>2021-05-27T11:01:11Z</time>
      </trkpt>
      <trkpt lat="45.62657" lon="6.80907">
        <ele>1002.2</ele>
        <time>2021-05-27T11:01:12Z</time>
      </trkpt>
      <trkpt lat="45.62661" lon="6.80905">
        <ele>1002.4</ele>
        <time>2021-05-27T11:01:13Z</time>
      </trkpt>
      <trkpt lat="45.62666" lon="6.80904">
        <ele>1002.6</ele>
        <time>2021-05-27T11:01:14Z</time>
      </trkpt>
      <trkpt lat="45.62671" lon="6.80906">
        <ele>1003</ele>
        <time>2021-05-27T11:01:15Z</time>
      </trkpt>
      <trkpt lat="45.62676" lon="6.8091">
        <ele>1003.4</ele>
        <time>2021-05-27T11:01:16Z</time>
      </trkpt>
      <trkpt lat="45.62678" lon="6.80916">
        <ele>1004</ele>
        <time>2021-05-27T11:01:17Z</time>
      </trkpt>
      <trkpt lat="45.62681" lon="6.80923">
        <ele>1004</ele>
        <time>2021-05-27T11:01:18Z</time>
      </trkpt>
      <trkpt lat="45.62682" lon="6.8093">
        <ele>1004.4</ele>
        <time>2021-05-27T11:01:19Z</time>
      </trkpt>
      <trkpt lat="45.62682" lon="6.80937">
        <ele>1004.6</ele>
        <time>2021-05-27T11:01:20Z</time>
      </trkpt>
      <trkpt lat="45.62682" lon="6.80944">
        <ele>1005</ele>
        <time>2021-05-27T11:01:21Z</time>
      </trkpt>
      <trkpt lat="45.62682" lon="6.80952">
        <ele>1005.4</ele>
        <time>2021-05-27T11:01:22Z</time>
      </trkpt>
      <trkpt lat="45.62682" lon="6.80958">
        <ele>1005.4</ele>
        <time>2021-05-27T11:01:23Z</time>
      </trkpt>
      <trkpt lat="45.62681" lon="6.80966">
        <ele>1005.8</ele>
        <time>2021-05-27T11:01:24Z</time>
      </trkpt>
      <trkpt lat="45.62681" lon="6.80972">
        <ele>1005.8</ele>
        <time>2021-05-27T11:01:25Z</time>
      </trkpt>
      <trkpt lat="45.62681" lon="6.8098">
        <ele>1006</ele>
        <time>2021-05-27T11:01:26Z</time>
      </trkpt>
      <trkpt lat="45.6268" lon="6.80986">
        <ele>1006.4</ele>
        <time>2021-05-27T11:01:27Z</time>
      </trkpt>
      <trkpt lat="45.6268" lon="6.80993">
        <ele>1007</ele>
        <time>2021-05-27T11:01:28Z</time>
      </trkpt>
      <trkpt lat="45.6268" lon="6.81">
        <ele>1007</ele>
        <time>2021-05-27T11:01:29Z</time>
      </trkpt>
      <trkpt lat="45.6268" lon="6.81007">
        <ele>1007.4</ele>
        <time>2021-05-27T11:01:30Z</time>
      </trkpt>
      <trkpt lat="45.6268" lon="6.81014">
        <ele>1007.8</ele>
        <time>2021-05-27T11:01:31Z</time>
      </trkpt>
      <trkpt lat="45.62679" lon="6.8102">
        <ele>1008</ele>
        <time>2021-05-27T11:01:32Z</time>
      </trkpt>
      <trkpt lat="45.62679" lon="6.81027">
        <ele>1008.4</ele>
        <time>2021-05-27T11:01:33Z</time>
      </trkpt>
      <trkpt lat="45.62679" lon="6.81034">
        <ele>1008.8</ele>
        <time>2021-05-27T11:01:34Z</time>
      </trkpt>
      <trkpt lat="45.62679" lon="6.8104">
        <ele>1009.4</ele>
        <time>2021-05-27T11:01:35Z</time>
      </trkpt>
      <trkpt lat="45.62678" lon="6.81046">
        <ele>1009.6</ele>
        <time>2021-05-27T11:01:36Z</time>
      </trkpt>
      <trkpt lat="45.62678" lon="6.81053">
        <ele>1009.8</ele>
        <time>2021-05-27T11:01:37Z</time>
      </trkpt>
      <trkpt lat="45.62678" lon="6.81059">
        <ele>1009.6</ele>
        <time>2021-05-27T11:01:38Z</time>
      </trkpt>
      <trkpt lat="45.62678" lon="6.81066">
        <ele>1009.6</ele>
        <time>2021-05-27T11:01:39Z</time>
      </trkpt>
      <trkpt lat="45.62678" lon="6.81072">
        <ele>1009.8</ele>
        <time>2021-05-27T11:01:40Z</time>
      </trkpt>
      <trkpt lat="45.62678" lon="6.81079">
        <ele>1010</ele>
        <time>2021-05-27T11:01:41Z</time>
      </trkpt>
      <trkpt lat="45.62679" lon="6.81085">
        <ele>1010.2</ele>
        <time>2021-05-27T11:01:42Z</time>
      </trkpt>
      <trkpt lat="45.6268" lon="6.81092">
        <ele>1010.6</ele>
        <time>2021-05-27T11:01:43Z</time>
      </trkpt>
      <trkpt lat="45.6268" lon="6.81098">
        <ele>1010.6</ele>
        <time>2021-05-27T11:01:44Z</time>
      </trkpt>
      <trkpt lat="45.62682" lon="6.81105">
        <ele>1011</ele>
        <time>2021-05-27T11:01:45Z</time>
      </trkpt>
      <trkpt lat="45.62682" lon="6.81112">
        <ele>1011.4</ele>
        <time>2021-05-27T11:01:46Z</time>
      </trkpt>
      <trkpt lat="45.62684" lon="6.81118">
        <ele>1011.8</ele>
        <time>2021-05-27T11:01:47Z</time>
      </trkpt>
      <trkpt lat="45.62684" lon="6.81125">
        <ele>1012.4</ele>
        <time>2021-05-27T11:01:48Z</time>
      </trkpt>
      <trkpt lat="45.62685" lon="6.81132">
        <ele>1012.8</ele>
        <time>2021-05-27T11:01:49Z</time>
      </trkpt>
      <trkpt lat="45.62686" lon="6.81138">
        <ele>1013.4</ele>
        <time>2021-05-27T11:01:50Z</time>
      </trkpt>
      <trkpt lat="45.62687" lon="6.81145">
        <ele>1013.6</ele>
        <time>2021-05-27T11:01:51Z</time>
      </trkpt>
      <trkpt lat="45.62688" lon="6.81152">
        <ele>1014</ele>
        <time>2021-05-27T11:01:52Z</time>
      </trkpt>
      <trkpt lat="45.62689" lon="6.81159">
        <ele>1014.4</ele>
        <time>2021-05-27T11:01:53Z</time>
      </trkpt>
      <trkpt lat="45.62689" lon="6.81166">
        <ele>1014.8</ele>
        <time>2021-05-27T11:01:54Z</time>
      </trkpt>
      <trkpt lat="45.62689" lon="6.81172">
        <ele>1015.4</ele>
        <time>2021-05-27T11:01:55Z</time>
      </trkpt>
      <trkpt lat="45.62689" lon="6.81179">
        <ele>1015.8</ele>
        <time>2021-05-27T11:01:56Z</time>
      </trkpt>
      <trkpt lat="45.62689" lon="6.81186">
        <ele>1016.2</ele>
        <time>2021-05-27T11:01:57Z</time>
      </trkpt>
      <trkpt lat="45.62688" lon="6.81192">
        <ele>1016.8</ele>
        <time>2021-05-27T11:01:58Z</time>
      </trkpt>
      <trkpt lat="45.62687" lon="6.81199">
        <ele>1017.2</ele>
        <time>2021-05-27T11:01:59Z</time>
      </trkpt>
      <trkpt lat="45.62686" lon="6.81205">
        <ele>1017.8</ele>
        <time>2021-05-27T11:02:00Z</time>
      </trkpt>
      <trkpt lat="45.62685" lon="6.81212">
        <ele>1018.2</ele>
        <time>2021-05-27T11:02:01Z</time>
      </trkpt>
      <trkpt lat="45.62684" lon="6.81218">
        <ele>1018.8</ele>
        <time>2021-05-27T11:02:02Z</time>
      </trkpt>
      <trkpt lat="45.62683" lon="6.81225">
        <ele>1019.2</ele>
        <time>2021-05-27T11:02:03Z</time>
      </trkpt>
      <trkpt lat="45.62681" lon="6.81232">
        <ele>1019.8</ele>
        <time>2021-05-27T11:02:04Z</time>
      </trkpt>
      <trkpt lat="45.62678" lon="6.81237">
        <ele>1020.4</ele>
        <time>2021-05-27T11:02:05Z</time>
      </trkpt>
      <trkpt lat="45.62676" lon="6.81242">
        <ele>1020.6</ele>
        <time>2021-05-27T11:02:06Z</time>
      </trkpt>
      <trkpt lat="45.62672" lon="6.81246">
        <ele>1020.8</ele>
        <time>2021-05-27T11:02:07Z</time>
      </trkpt>
      <trkpt lat="45.62668" lon="6.8125">
        <ele>1021.4</ele>
        <time>2021-05-27T11:02:08Z</time>
      </trkpt>
      <trkpt lat="45.62664" lon="6.81254">
        <ele>1021.8</ele>
        <time>2021-05-27T11:02:09Z</time>
      </trkpt>
      <trkpt lat="45.6266" lon="6.81258">
        <ele>1022.2</ele>
        <time>2021-05-27T11:02:10Z</time>
      </trkpt>
      <trkpt lat="45.62655" lon="6.81262">
        <ele>1022.4</ele>
        <time>2021-05-27T11:02:11Z</time>
      </trkpt>
      <trkpt lat="45.62651" lon="6.81266">
        <ele>1022.6</ele>
        <time>2021-05-27T11:02:12Z</time>
      </trkpt>
      <trkpt lat="45.62646" lon="6.8127">
        <ele>1023</ele>
        <time>2021-05-27T11:02:13Z</time>
      </trkpt>
      <trkpt lat="45.62642" lon="6.81274">
        <ele>1023.2</ele>
        <time>2021-05-27T11:02:14Z</time>
      </trkpt>
      <trkpt lat="45.62638" lon="6.81278">
        <ele>1023.6</ele>
        <time>2021-05-27T11:02:15Z</time>
      </trkpt>
      <trkpt lat="45.62634" lon="6.81282">
        <ele>1024</ele>
        <time>2021-05-27T11:02:16Z</time>
      </trkpt>
      <trkpt lat="45.6263" lon="6.81285">
        <ele>1024.6</ele>
        <time>2021-05-27T11:02:17Z</time>
      </trkpt>
      <trkpt lat="45.62626" lon="6.81289">
        <ele>1025</ele>
        <time>2021-05-27T11:02:18Z</time>
      </trkpt>
      <trkpt lat="45.62621" lon="6.81293">
        <ele>1025.6</ele>
        <time>2021-05-27T11:02:19Z</time>
      </trkpt>
      <trkpt lat="45.62616" lon="6.81296">
        <ele>1026.2</ele>
        <time>2021-05-27T11:02:20Z</time>
      </trkpt>
      <trkpt lat="45.62612" lon="6.813">
        <ele>1027</ele>
        <time>2021-05-27T11:02:21Z</time>
      </trkpt>
      <trkpt lat="45.62607" lon="6.81302">
        <ele>1027.4</ele>
        <time>2021-05-27T11:02:22Z</time>
      </trkpt>
      <trkpt lat="45.62602" lon="6.81304">
        <ele>1028</ele>
        <time>2021-05-27T11:02:23Z</time>
      </trkpt>
      <trkpt lat="45.62596" lon="6.81305">
        <ele>1028.6</ele>
        <time>2021-05-27T11:02:24Z</time>
      </trkpt>
      <trkpt lat="45.62591" lon="6.81305">
        <ele>1029.2</ele>
        <time>2021-05-27T11:02:25Z</time>
      </trkpt>
      <trkpt lat="45.62587" lon="6.81304">
        <ele>1029.6</ele>
        <time>2021-05-27T11:02:26Z</time>
      </trkpt>
      <trkpt lat="45.62582" lon="6.81302">
        <ele>1030.2</ele>
        <time>2021-05-27T11:02:27Z</time>
      </trkpt>
      <trkpt lat="45.62577" lon="6.81298">
        <ele>1030.6</ele>
        <time>2021-05-27T11:02:28Z</time>
      </trkpt>
      <trkpt lat="45.62572" lon="6.81295">
        <ele>1031</ele>
        <time>2021-05-27T11:02:29Z</time>
      </trkpt>
      <trkpt lat="45.62568" lon="6.81291">
        <ele>1031.2</ele>
        <time>2021-05-27T11:02:30Z</time>
      </trkpt>
      <trkpt lat="45.62563" lon="6.81287">
        <ele>1031.2</ele>
        <time>2021-05-27T11:02:31Z</time>
      </trkpt>
      <trkpt lat="45.62558" lon="6.81283">
        <ele>1031.4</ele>
        <time>2021-05-27T11:02:32Z</time>
      </trkpt>
      <trkpt lat="45.62553" lon="6.8128">
        <ele>1031.6</ele>
        <time>2021-05-27T11:02:33Z</time>
      </trkpt>
      <trkpt lat="45.62548" lon="6.81277">
        <ele>1032</ele>
        <time>2021-05-27T11:02:34Z</time>
      </trkpt>
      <trkpt lat="45.62543" lon="6.81273">
        <ele>1032.6</ele>
        <time>2021-05-27T11:02:35Z</time>
      </trkpt>
      <trkpt lat="45.62539" lon="6.81271">
        <ele>1032.8</ele>
        <time>2021-05-27T11:02:36Z</time>
      </trkpt>
      <trkpt lat="45.62534" lon="6.8127">
        <ele>1033.2</ele>
        <time>2021-05-27T11:02:37Z</time>
      </trkpt>
      <trkpt lat="45.62529" lon="6.8127">
        <ele>1033.4</ele>
        <time>2021-05-27T11:02:38Z</time>
      </trkpt>
      <trkpt lat="45.62525" lon="6.81272">
        <ele>1033.4</ele>
        <time>2021-05-27T11:02:39Z</time>
      </trkpt>
      <trkpt lat="45.62521" lon="6.81274">
        <ele>1034</ele>
        <time>2021-05-27T11:02:40Z</time>
      </trkpt>
      <trkpt lat="45.62516" lon="6.81278">
        <ele>1034.2</ele>
        <time>2021-05-27T11:02:41Z</time>
      </trkpt>
      <trkpt lat="45.62512" lon="6.81283">
        <ele>1034.6</ele>
        <time>2021-05-27T11:02:42Z</time>
      </trkpt>
      <trkpt lat="45.62508" lon="6.81287">
        <ele>1034.6</ele>
        <time>2021-05-27T11:02:43Z</time>
      </trkpt>
      <trkpt lat="45.62505" lon="6.81291">
        <ele>1034.6</ele>
        <time>2021-05-27T11:02:44Z</time>
      </trkpt>
      <trkpt lat="45.625" lon="6.81295">
        <ele>1034.8</ele>
        <time>2021-05-27T11:02:45Z</time>
      </trkpt>
      <trkpt lat="45.62496" lon="6.813">
        <ele>1034.8</ele>
        <time>2021-05-27T11:02:46Z</time>
      </trkpt>
      <trkpt lat="45.62491" lon="6.81304">
        <ele>1035.4</ele>
        <time>2021-05-27T11:02:47Z</time>
      </trkpt>
      <trkpt lat="45.62487" lon="6.81308">
        <ele>1035.4</ele>
        <time>2021-05-27T11:02:48Z</time>
      </trkpt>
      <trkpt lat="45.62483" lon="6.8131">
        <ele>1035.4</ele>
        <time>2021-05-27T11:02:49Z</time>
      </trkpt>
      <trkpt lat="45.62478" lon="6.81313">
        <ele>1035.4</ele>
        <time>2021-05-27T11:02:50Z</time>
      </trkpt>
      <trkpt lat="45.62474" lon="6.81316">
        <ele>1035.4</ele>
        <time>2021-05-27T11:02:51Z</time>
      </trkpt>
      <trkpt lat="45.62469" lon="6.8132">
        <ele>1035.6</ele>
        <time>2021-05-27T11:02:52Z</time>
      </trkpt>
      <trkpt lat="45.62465" lon="6.81323">
        <ele>1035.4</ele>
        <time>2021-05-27T11:02:53Z</time>
      </trkpt>
      <trkpt lat="45.62461" lon="6.81326">
        <ele>1035.6</ele>
        <time>2021-05-27T11:02:54Z</time>
      </trkpt>
      <trkpt lat="45.62457" lon="6.81329">
        <ele>1035.8</ele>
        <time>2021-05-27T11:02:55Z</time>
      </trkpt>
      <trkpt lat="45.62453" lon="6.81332">
        <ele>1035.6</ele>
        <time>2021-05-27T11:02:56Z</time>
      </trkpt>
      <trkpt lat="45.62449" lon="6.81336">
        <ele>1035.4</ele>
        <time>2021-05-27T11:02:57Z</time>
      </trkpt>
      <trkpt lat="45.62445" lon="6.8134">
        <ele>1035.2</ele>
        <time>2021-05-27T11:02:58Z</time>
      </trkpt>
      <trkpt lat="45.62441" lon="6.81344">
        <ele>1034.8</ele>
        <time>2021-05-27T11:02:59Z</time>
      </trkpt>
      <trkpt lat="45.62437" lon="6.81349">
        <ele>1035</ele>
        <time>2021-05-27T11:03:00Z</time>
      </trkpt>
      <trkpt lat="45.62434" lon="6.81354">
        <ele>1035</ele>
        <time>2021-05-27T11:03:01Z</time>
      </trkpt>
      <trkpt lat="45.62431" lon="6.8136">
        <ele>1035</ele>
        <time>2021-05-27T11:03:02Z</time>
      </trkpt>
      <trkpt lat="45.62428" lon="6.81365">
        <ele>1034.8</ele>
        <time>2021-05-27T11:03:03Z</time>
      </trkpt>
      <trkpt lat="45.62425" lon="6.81371">
        <ele>1034.8</ele>
        <time>2021-05-27T11:03:04Z</time>
      </trkpt>
      <trkpt lat="45.62422" lon="6.81378">
        <ele>1034.8</ele>
        <time>2021-05-27T11:03:05Z</time>
      </trkpt>
      <trkpt lat="45.6242" lon="6.81384">
        <ele>1035</ele>
        <time>2021-05-27T11:03:06Z</time>
      </trkpt>
      <trkpt lat="45.62417" lon="6.8139">
        <ele>1035</ele>
        <time>2021-05-27T11:03:07Z</time>
      </trkpt>
      <trkpt lat="45.62415" lon="6.81395">
        <ele>1035.4</ele>
        <time>2021-05-27T11:03:08Z</time>
      </trkpt>
      <trkpt lat="45.62412" lon="6.81401">
        <ele>1035.6</ele>
        <time>2021-05-27T11:03:09Z</time>
      </trkpt>
      <trkpt lat="45.6241" lon="6.81406">
        <ele>1035.6</ele>
        <time>2021-05-27T11:03:10Z</time>
      </trkpt>
      <trkpt lat="45.62406" lon="6.81412">
        <ele>1035.8</ele>
        <time>2021-05-27T11:03:11Z</time>
      </trkpt>
      <trkpt lat="45.62403" lon="6.81417">
        <ele>1036</ele>
        <time>2021-05-27T11:03:12Z</time>
      </trkpt>
      <trkpt lat="45.62399" lon="6.81422">
        <ele>1036.2</ele>
        <time>2021-05-27T11:03:13Z</time>
      </trkpt>
      <trkpt lat="45.62395" lon="6.81426">
        <ele>1036.6</ele>
        <time>2021-05-27T11:03:14Z</time>
      </trkpt>
      <trkpt lat="45.6239" lon="6.81429">
        <ele>1036.6</ele>
        <time>2021-05-27T11:03:15Z</time>
      </trkpt>
      <trkpt lat="45.62385" lon="6.81432">
        <ele>1037</ele>
        <time>2021-05-27T11:03:16Z</time>
      </trkpt>
      <trkpt lat="45.6238" lon="6.81435">
        <ele>1037.4</ele>
        <time>2021-05-27T11:03:17Z</time>
      </trkpt>
      <trkpt lat="45.62375" lon="6.81438">
        <ele>1037.8</ele>
        <time>2021-05-27T11:03:18Z</time>
      </trkpt>
      <trkpt lat="45.62371" lon="6.81441">
        <ele>1038.6</ele>
        <time>2021-05-27T11:03:19Z</time>
      </trkpt>
      <trkpt lat="45.62366" lon="6.81443">
        <ele>1039</ele>
        <time>2021-05-27T11:03:20Z</time>
      </trkpt>
      <trkpt lat="45.62362" lon="6.81445">
        <ele>1039.4</ele>
        <time>2021-05-27T11:03:21Z</time>
      </trkpt>
      <trkpt lat="45.62357" lon="6.81447">
        <ele>1039.8</ele>
        <time>2021-05-27T11:03:22Z</time>
      </trkpt>
      <trkpt lat="45.62353" lon="6.81449">
        <ele>1040.4</ele>
        <time>2021-05-27T11:03:23Z</time>
      </trkpt>
      <trkpt lat="45.62349" lon="6.81451">
        <ele>1041</ele>
        <time>2021-05-27T11:03:24Z</time>
      </trkpt>
      <trkpt lat="45.62345" lon="6.81453">
        <ele>1041.6</ele>
        <time>2021-05-27T11:03:25Z</time>
      </trkpt>
      <trkpt lat="45.6234" lon="6.81455">
        <ele>1042</ele>
        <time>2021-05-27T11:03:26Z</time>
      </trkpt>
      <trkpt lat="45.62336" lon="6.81458">
        <ele>1042.2</ele>
        <time>2021-05-27T11:03:27Z</time>
      </trkpt>
      <trkpt lat="45.62332" lon="6.8146">
        <ele>1042.8</ele>
        <time>2021-05-27T11:03:28Z</time>
      </trkpt>
      <trkpt lat="45.62328" lon="6.81462">
        <ele>1043.6</ele>
        <time>2021-05-27T11:03:29Z</time>
      </trkpt>
      <trkpt lat="45.62324" lon="6.81465">
        <ele>1043.6</ele>
        <time>2021-05-27T11:03:30Z</time>
      </trkpt>
      <trkpt lat="45.62319" lon="6.81468">
        <ele>1044</ele>
        <time>2021-05-27T11:03:31Z</time>
      </trkpt>
      <trkpt lat="45.62315" lon="6.81472">
        <ele>1044.2</ele>
        <time>2021-05-27T11:03:32Z</time>
      </trkpt>
      <trkpt lat="45.6231" lon="6.81475">
        <ele>1044.6</ele>
        <time>2021-05-27T11:03:33Z</time>
      </trkpt>
      <trkpt lat="45.62306" lon="6.81479">
        <ele>1045</ele>
        <time>2021-05-27T11:03:34Z</time>
      </trkpt>
      <trkpt lat="45.62301" lon="6.81483">
        <ele>1045.6</ele>
        <time>2021-05-27T11:03:35Z</time>
      </trkpt>
      <trkpt lat="45.62297" lon="6.81487">
        <ele>1045.8</ele>
        <time>2021-05-27T11:03:36Z</time>
      </trkpt>
      <trkpt lat="45.62292" lon="6.8149">
        <ele>1046.2</ele>
        <time>2021-05-27T11:03:37Z</time>
      </trkpt>
      <trkpt lat="45.62287" lon="6.81494">
        <ele>1046.8</ele>
        <time>2021-05-27T11:03:38Z</time>
      </trkpt>
      <trkpt lat="45.62283" lon="6.81498">
        <ele>1047.2</ele>
        <time>2021-05-27T11:03:39Z</time>
      </trkpt>
      <trkpt lat="45.62278" lon="6.81501">
        <ele>1047.4</ele>
        <time>2021-05-27T11:03:40Z</time>
      </trkpt>
      <trkpt lat="45.62274" lon="6.81505">
        <ele>1047.6</ele>
        <time>2021-05-27T11:03:41Z</time>
      </trkpt>
      <trkpt lat="45.62269" lon="6.81508">
        <ele>1047.8</ele>
        <time>2021-05-27T11:03:42Z</time>
      </trkpt>
      <trkpt lat="45.62265" lon="6.81512">
        <ele>1047.8</ele>
        <time>2021-05-27T11:03:43Z</time>
      </trkpt>
      <trkpt lat="45.62261" lon="6.81517">
        <ele>1048</ele>
        <time>2021-05-27T11:03:44Z</time>
      </trkpt>
      <trkpt lat="45.62257" lon="6.81522">
        <ele>1048</ele>
        <time>2021-05-27T11:03:45Z</time>
      </trkpt>
      <trkpt lat="45.62253" lon="6.81527">
        <ele>1048</ele>
        <time>2021-05-27T11:03:46Z</time>
      </trkpt>
      <trkpt lat="45.6225" lon="6.81532">
        <ele>1047.8</ele>
        <time>2021-05-27T11:03:47Z</time>
      </trkpt>
      <trkpt lat="45.62247" lon="6.81538">
        <ele>1047.6</ele>
        <time>2021-05-27T11:03:48Z</time>
      </trkpt>
      <trkpt lat="45.62245" lon="6.81544">
        <ele>1047.4</ele>
        <time>2021-05-27T11:03:49Z</time>
      </trkpt>
      <trkpt lat="45.62243" lon="6.8155">
        <ele>1047</ele>
        <time>2021-05-27T11:03:50Z</time>
      </trkpt>
      <trkpt lat="45.62241" lon="6.81557">
        <ele>1047</ele>
        <time>2021-05-27T11:03:51Z</time>
      </trkpt>
      <trkpt lat="45.6224" lon="6.81565">
        <ele>1046.8</ele>
        <time>2021-05-27T11:03:52Z</time>
      </trkpt>
      <trkpt lat="45.62238" lon="6.81572">
        <ele>1046.6</ele>
        <time>2021-05-27T11:03:53Z</time>
      </trkpt>
      <trkpt lat="45.62237" lon="6.81578">
        <ele>1046.6</ele>
        <time>2021-05-27T11:03:54Z</time>
      </trkpt>
      <trkpt lat="45.62235" lon="6.81586">
        <ele>1046.8</ele>
        <time>2021-05-27T11:03:55Z</time>
      </trkpt>
      <trkpt lat="45.62233" lon="6.81593">
        <ele>1046.8</ele>
        <time>2021-05-27T11:03:56Z</time>
      </trkpt>
      <trkpt lat="45.62232" lon="6.816">
        <ele>1046.8</ele>
        <time>2021-05-27T11:03:57Z</time>
      </trkpt>
      <trkpt lat="45.62231" lon="6.81606">
        <ele>1046.6</ele>
        <time>2021-05-27T11:03:58Z</time>
      </trkpt>
      <trkpt lat="45.62228" lon="6.81612">
        <ele>1046.2</ele>
        <time>2021-05-27T11:03:59Z</time>
      </trkpt>
      <trkpt lat="45.62227" lon="6.81618">
        <ele>1046.2</ele>
        <time>2021-05-27T11:04:00Z</time>
      </trkpt>
      <trkpt lat="45.62224" lon="6.81624">
        <ele>1045.8</ele>
        <time>2021-05-27T11:04:01Z</time>
      </trkpt>
      <trkpt lat="45.62221" lon="6.8163">
        <ele>1046</ele>
        <time>2021-05-27T11:04:02Z</time>
      </trkpt>
      <trkpt lat="45.62216" lon="6.81635">
        <ele>1046.2</ele>
        <time>2021-05-27T11:04:03Z</time>
      </trkpt>
      <trkpt lat="45.62212" lon="6.8164">
        <ele>1046.6</ele>
        <time>2021-05-27T11:04:04Z</time>
      </trkpt>
      <trkpt lat="45.62208" lon="6.81644">
        <ele>1047</ele>
        <time>2021-05-27T11:04:05Z</time>
      </trkpt>
      <trkpt lat="45.62204" lon="6.81647">
        <ele>1047.4</ele>
        <time>2021-05-27T11:04:06Z</time>
      </trkpt>
      <trkpt lat="45.62199" lon="6.8165">
        <ele>1047.8</ele>
        <time>2021-05-27T11:04:07Z</time>
      </trkpt>
      <trkpt lat="45.62195" lon="6.81654">
        <ele>1048.4</ele>
        <time>2021-05-27T11:04:08Z</time>
      </trkpt>
      <trkpt lat="45.62191" lon="6.81657">
        <ele>1048.8</ele>
        <time>2021-05-27T11:04:09Z</time>
      </trkpt>
      <trkpt lat="45.62187" lon="6.8166">
        <ele>1049.4</ele>
        <time>2021-05-27T11:04:10Z</time>
      </trkpt>
      <trkpt lat="45.62183" lon="6.81664">
        <ele>1050</ele>
        <time>2021-05-27T11:04:11Z</time>
      </trkpt>
      <trkpt lat="45.62179" lon="6.81667">
        <ele>1050.4</ele>
        <time>2021-05-27T11:04:12Z</time>
      </trkpt>
      <trkpt lat="45.62175" lon="6.8167">
        <ele>1050.8</ele>
        <time>2021-05-27T11:04:13Z</time>
      </trkpt>
      <trkpt lat="45.62171" lon="6.81674">
        <ele>1051.2</ele>
        <time>2021-05-27T11:04:14Z</time>
      </trkpt>
      <trkpt lat="45.62167" lon="6.81677">
        <ele>1051.6</ele>
        <time>2021-05-27T11:04:15Z</time>
      </trkpt>
      <trkpt lat="45.62163" lon="6.81681">
        <ele>1052</ele>
        <time>2021-05-27T11:04:16Z</time>
      </trkpt>
      <trkpt lat="45.62159" lon="6.81686">
        <ele>1052.6</ele>
        <time>2021-05-27T11:04:17Z</time>
      </trkpt>
      <trkpt lat="45.62155" lon="6.8169">
        <ele>1052.8</ele>
        <time>2021-05-27T11:04:18Z</time>
      </trkpt>
      <trkpt lat="45.62151" lon="6.81696">
        <ele>1053.2</ele>
        <time>2021-05-27T11:04:19Z</time>
      </trkpt>
      <trkpt lat="45.62147" lon="6.81701">
        <ele>1053.4</ele>
        <time>2021-05-27T11:04:20Z</time>
      </trkpt>
      <trkpt lat="45.62143" lon="6.81705">
        <ele>1053.6</ele>
        <time>2021-05-27T11:04:21Z</time>
      </trkpt>
      <trkpt lat="45.62139" lon="6.8171">
        <ele>1054</ele>
        <time>2021-05-27T11:04:22Z</time>
      </trkpt>
      <trkpt lat="45.62135" lon="6.81716">
        <ele>1054.2</ele>
        <time>2021-05-27T11:04:23Z</time>
      </trkpt>
      <trkpt lat="45.62132" lon="6.81721">
        <ele>1054.6</ele>
        <time>2021-05-27T11:04:24Z</time>
      </trkpt>
      <trkpt lat="45.62128" lon="6.81726">
        <ele>1055</ele>
        <time>2021-05-27T11:04:25Z</time>
      </trkpt>
      <trkpt lat="45.62124" lon="6.81732">
        <ele>1055.2</ele>
        <time>2021-05-27T11:04:26Z</time>
      </trkpt>
      <trkpt lat="45.62122" lon="6.81738">
        <ele>1055.4</ele>
        <time>2021-05-27T11:04:27Z</time>
      </trkpt>
      <trkpt lat="45.62118" lon="6.81744">
        <ele>1055.4</ele>
        <time>2021-05-27T11:04:28Z</time>
      </trkpt>
      <trkpt lat="45.62115" lon="6.8175">
        <ele>1055.6</ele>
        <time>2021-05-27T11:04:29Z</time>
      </trkpt>
      <trkpt lat="45.62112" lon="6.81756">
        <ele>1055.6</ele>
        <time>2021-05-27T11:04:30Z</time>
      </trkpt>
      <trkpt lat="45.62108" lon="6.81763">
        <ele>1055.8</ele>
        <time>2021-05-27T11:04:31Z</time>
      </trkpt>
      <trkpt lat="45.62105" lon="6.8177">
        <ele>1055.6</ele>
        <time>2021-05-27T11:04:32Z</time>
      </trkpt>
      <trkpt lat="45.62102" lon="6.81777">
        <ele>1055.6</ele>
        <time>2021-05-27T11:04:33Z</time>
      </trkpt>
      <trkpt lat="45.621" lon="6.81784">
        <ele>1056</ele>
        <time>2021-05-27T11:04:34Z</time>
      </trkpt>
      <trkpt lat="45.62098" lon="6.81792">
        <ele>1056.2</ele>
        <time>2021-05-27T11:04:35Z</time>
      </trkpt>
      <trkpt lat="45.62096" lon="6.81799">
        <ele>1056.6</ele>
        <time>2021-05-27T11:04:36Z</time>
      </trkpt>
      <trkpt lat="45.62094" lon="6.81807">
        <ele>1057</ele>
        <time>2021-05-27T11:04:37Z</time>
      </trkpt>
      <trkpt lat="45.62092" lon="6.81815">
        <ele>1057.4</ele>
        <time>2021-05-27T11:04:38Z</time>
      </trkpt>
      <trkpt lat="45.6209" lon="6.81822">
        <ele>1057.8</ele>
        <time>2021-05-27T11:04:39Z</time>
      </trkpt>
      <trkpt lat="45.62088" lon="6.8183">
        <ele>1058.4</ele>
        <time>2021-05-27T11:04:40Z</time>
      </trkpt>
      <trkpt lat="45.62086" lon="6.81838">
        <ele>1058.6</ele>
        <time>2021-05-27T11:04:41Z</time>
      </trkpt>
      <trkpt lat="45.62085" lon="6.81845">
        <ele>1059.2</ele>
        <time>2021-05-27T11:04:42Z</time>
      </trkpt>
      <trkpt lat="45.62084" lon="6.81853">
        <ele>1059.4</ele>
        <time>2021-05-27T11:04:43Z</time>
      </trkpt>
      <trkpt lat="45.62082" lon="6.81861">
        <ele>1059.8</ele>
        <time>2021-05-27T11:04:44Z</time>
      </trkpt>
      <trkpt lat="45.62081" lon="6.81868">
        <ele>1060</ele>
        <time>2021-05-27T11:04:45Z</time>
      </trkpt>
      <trkpt lat="45.6208" lon="6.81876">
        <ele>1060.4</ele>
        <time>2021-05-27T11:04:46Z</time>
      </trkpt>
      <trkpt lat="45.62079" lon="6.81884">
        <ele>1060.4</ele>
        <time>2021-05-27T11:04:47Z</time>
      </trkpt>
      <trkpt lat="45.62078" lon="6.81892">
        <ele>1060.4</ele>
        <time>2021-05-27T11:04:48Z</time>
      </trkpt>
      <trkpt lat="45.62076" lon="6.81899">
        <ele>1060.6</ele>
        <time>2021-05-27T11:04:49Z</time>
      </trkpt>
      <trkpt lat="45.62075" lon="6.81906">
        <ele>1060.8</ele>
        <time>2021-05-27T11:04:50Z</time>
      </trkpt>
      <trkpt lat="45.62074" lon="6.81914">
        <ele>1061</ele>
        <time>2021-05-27T11:04:51Z</time>
      </trkpt>
      <trkpt lat="45.62073" lon="6.81922">
        <ele>1061.4</ele>
        <time>2021-05-27T11:04:52Z</time>
      </trkpt>
      <trkpt lat="45.62071" lon="6.8193">
        <ele>1061.6</ele>
        <time>2021-05-27T11:04:53Z</time>
      </trkpt>
      <trkpt lat="45.62069" lon="6.81938">
        <ele>1061.8</ele>
        <time>2021-05-27T11:04:54Z</time>
      </trkpt>
      <trkpt lat="45.62067" lon="6.81945">
        <ele>1062</ele>
        <time>2021-05-27T11:04:55Z</time>
      </trkpt>
      <trkpt lat="45.62064" lon="6.81953">
        <ele>1062</ele>
        <time>2021-05-27T11:04:56Z</time>
      </trkpt>
      <trkpt lat="45.6206" lon="6.8196">
        <ele>1062</ele>
        <time>2021-05-27T11:04:57Z</time>
      </trkpt>
      <trkpt lat="45.62057" lon="6.81967">
        <ele>1062.4</ele>
        <time>2021-05-27T11:04:58Z</time>
      </trkpt>
      <trkpt lat="45.62054" lon="6.81973">
        <ele>1062.6</ele>
        <time>2021-05-27T11:04:59Z</time>
      </trkpt>
      <trkpt lat="45.6205" lon="6.8198">
        <ele>1062.8</ele>
        <time>2021-05-27T11:05:00Z</time>
      </trkpt>
      <trkpt lat="45.62046" lon="6.81986">
        <ele>1063</ele>
        <time>2021-05-27T11:05:01Z</time>
      </trkpt>
      <trkpt lat="45.62041" lon="6.81993">
        <ele>1063.4</ele>
        <time>2021-05-27T11:05:02Z</time>
      </trkpt>
      <trkpt lat="45.62037" lon="6.82">
        <ele>1064</ele>
        <time>2021-05-27T11:05:03Z</time>
      </trkpt>
      <trkpt lat="45.62034" lon="6.82006">
        <ele>1064.6</ele>
        <time>2021-05-27T11:05:04Z</time>
      </trkpt>
      <trkpt lat="45.62031" lon="6.82012">
        <ele>1065</ele>
        <time>2021-05-27T11:05:05Z</time>
      </trkpt>
      <trkpt lat="45.62027" lon="6.82018">
        <ele>1065.6</ele>
        <time>2021-05-27T11:05:06Z</time>
      </trkpt>
      <trkpt lat="45.62024" lon="6.82024">
        <ele>1066</ele>
        <time>2021-05-27T11:05:07Z</time>
      </trkpt>
      <trkpt lat="45.6202" lon="6.8203">
        <ele>1066.4</ele>
        <time>2021-05-27T11:05:08Z</time>
      </trkpt>
      <trkpt lat="45.62017" lon="6.82037">
        <ele>1066.8</ele>
        <time>2021-05-27T11:05:09Z</time>
      </trkpt>
      <trkpt lat="45.62014" lon="6.82043">
        <ele>1067.2</ele>
        <time>2021-05-27T11:05:10Z</time>
      </trkpt>
      <trkpt lat="45.62011" lon="6.82049">
        <ele>1067.8</ele>
        <time>2021-05-27T11:05:11Z</time>
      </trkpt>
      <trkpt lat="45.62008" lon="6.82055">
        <ele>1068.2</ele>
        <time>2021-05-27T11:05:12Z</time>
      </trkpt>
      <trkpt lat="45.62005" lon="6.82061">
        <ele>1068.6</ele>
        <time>2021-05-27T11:05:13Z</time>
      </trkpt>
      <trkpt lat="45.62002" lon="6.82066">
        <ele>1069</ele>
        <time>2021-05-27T11:05:14Z</time>
      </trkpt>
      <trkpt lat="45.61999" lon="6.82072">
        <ele>1069.2</ele>
        <time>2021-05-27T11:05:15Z</time>
      </trkpt>
      <trkpt lat="45.61996" lon="6.82078">
        <ele>1069.4</ele>
        <time>2021-05-27T11:05:16Z</time>
      </trkpt>
      <trkpt lat="45.61993" lon="6.82084">
        <ele>1069.4</ele>
        <time>2021-05-27T11:05:17Z</time>
      </trkpt>
      <trkpt lat="45.6199" lon="6.8209">
        <ele>1069.4</ele>
        <time>2021-05-27T11:05:18Z</time>
      </trkpt>
      <trkpt lat="45.61987" lon="6.82095">
        <ele>1069</ele>
        <time>2021-05-27T11:05:19Z</time>
      </trkpt>
      <trkpt lat="45.61984" lon="6.82101">
        <ele>1069</ele>
        <time>2021-05-27T11:05:20Z</time>
      </trkpt>
      <trkpt lat="45.61981" lon="6.82106">
        <ele>1068.8</ele>
        <time>2021-05-27T11:05:21Z</time>
      </trkpt>
      <trkpt lat="45.61978" lon="6.82111">
        <ele>1068.6</ele>
        <time>2021-05-27T11:05:22Z</time>
      </trkpt>
      <trkpt lat="45.61975" lon="6.82117">
        <ele>1068.6</ele>
        <time>2021-05-27T11:05:23Z</time>
      </trkpt>
      <trkpt lat="45.61972" lon="6.82122">
        <ele>1068.4</ele>
        <time>2021-05-27T11:05:24Z</time>
      </trkpt>
      <trkpt lat="45.61969" lon="6.82128">
        <ele>1068.6</ele>
        <time>2021-05-27T11:05:25Z</time>
      </trkpt>
      <trkpt lat="45.61965" lon="6.82133">
        <ele>1068.6</ele>
        <time>2021-05-27T11:05:26Z</time>
      </trkpt>
      <trkpt lat="45.61961" lon="6.82139">
        <ele>1068.8</ele>
        <time>2021-05-27T11:05:27Z</time>
      </trkpt>
      <trkpt lat="45.61958" lon="6.82144">
        <ele>1069</ele>
        <time>2021-05-27T11:05:28Z</time>
      </trkpt>
      <trkpt lat="45.61956" lon="6.8215">
        <ele>1069.2</ele>
        <time>2021-05-27T11:05:29Z</time>
      </trkpt>
      <trkpt lat="45.61953" lon="6.82155">
        <ele>1069.4</ele>
        <time>2021-05-27T11:05:30Z</time>
      </trkpt>
      <trkpt lat="45.6195" lon="6.82161">
        <ele>1069.6</ele>
        <time>2021-05-27T11:05:31Z</time>
      </trkpt>
      <trkpt lat="45.61947" lon="6.82167">
        <ele>1070</ele>
        <time>2021-05-27T11:05:32Z</time>
      </trkpt>
      <trkpt lat="45.61944" lon="6.82173">
        <ele>1070.2</ele>
        <time>2021-05-27T11:05:33Z</time>
      </trkpt>
      <trkpt lat="45.61941" lon="6.82178">
        <ele>1070.6</ele>
        <time>2021-05-27T11:05:34Z</time>
      </trkpt>
      <trkpt lat="45.61938" lon="6.82184">
        <ele>1071.2</ele>
        <time>2021-05-27T11:05:35Z</time>
      </trkpt>
      <trkpt lat="45.61935" lon="6.8219">
        <ele>1071.8</ele>
        <time>2021-05-27T11:05:36Z</time>
      </trkpt>
      <trkpt lat="45.61933" lon="6.82197">
        <ele>1072.4</ele>
        <time>2021-05-27T11:05:37Z</time>
      </trkpt>
      <trkpt lat="45.61931" lon="6.82202">
        <ele>1073.2</ele>
        <time>2021-05-27T11:05:38Z</time>
      </trkpt>
      <trkpt lat="45.61928" lon="6.82208">
        <ele>1073.8</ele>
        <time>2021-05-27T11:05:39Z</time>
      </trkpt>
      <trkpt lat="45.61925" lon="6.82214">
        <ele>1074.6</ele>
        <time>2021-05-27T11:05:40Z</time>
      </trkpt>
      <trkpt lat="45.61923" lon="6.82221">
        <ele>1075.4</ele>
        <time>2021-05-27T11:05:41Z</time>
      </trkpt>
      <trkpt lat="45.61921" lon="6.82227">
        <ele>1076</ele>
        <time>2021-05-27T11:05:42Z</time>
      </trkpt>
      <trkpt lat="45.61918" lon="6.82233">
        <ele>1076.8</ele>
        <time>2021-05-27T11:05:43Z</time>
      </trkpt>
      <trkpt lat="45.61916" lon="6.82239">
        <ele>1077.4</ele>
        <time>2021-05-27T11:05:44Z</time>
      </trkpt>
      <trkpt lat="45.61914" lon="6.82244">
        <ele>1078</ele>
        <time>2021-05-27T11:05:45Z</time>
      </trkpt>
      <trkpt lat="45.61912" lon="6.8225">
        <ele>1078.8</ele>
        <time>2021-05-27T11:05:46Z</time>
      </trkpt>
      <trkpt lat="45.61909" lon="6.82256">
        <ele>1079.4</ele>
        <time>2021-05-27T11:05:47Z</time>
      </trkpt>
      <trkpt lat="45.61907" lon="6.82262">
        <ele>1080</ele>
        <time>2021-05-27T11:05:48Z</time>
      </trkpt>
      <trkpt lat="45.61905" lon="6.82269">
        <ele>1080.8</ele>
        <time>2021-05-27T11:05:49Z</time>
      </trkpt>
      <trkpt lat="45.61902" lon="6.82275">
        <ele>1081.2</ele>
        <time>2021-05-27T11:05:50Z</time>
      </trkpt>
      <trkpt lat="45.619" lon="6.82282">
        <ele>1081.8</ele>
        <time>2021-05-27T11:05:51Z</time>
      </trkpt>
      <trkpt lat="45.61898" lon="6.82288">
        <ele>1082.6</ele>
        <time>2021-05-27T11:05:52Z</time>
      </trkpt>
      <trkpt lat="45.61896" lon="6.82294">
        <ele>1083</ele>
        <time>2021-05-27T11:05:53Z</time>
      </trkpt>
      <trkpt lat="45.61893" lon="6.82302">
        <ele>1083.6</ele>
        <time>2021-05-27T11:05:54Z</time>
      </trkpt>
      <trkpt lat="45.61892" lon="6.8231">
        <ele>1084.2</ele>
        <time>2021-05-27T11:05:55Z</time>
      </trkpt>
      <trkpt lat="45.61893" lon="6.82317">
        <ele>1084.6</ele>
        <time>2021-05-27T11:05:56Z</time>
      </trkpt>
      <trkpt lat="45.61895" lon="6.82322">
        <ele>1085</ele>
        <time>2021-05-27T11:05:57Z</time>
      </trkpt>
      <trkpt lat="45.61899" lon="6.82326">
        <ele>1085.4</ele>
        <time>2021-05-27T11:05:58Z</time>
      </trkpt>
      <trkpt lat="45.61902" lon="6.82329">
        <ele>1085.8</ele>
        <time>2021-05-27T11:05:59Z</time>
      </trkpt>
      <trkpt lat="45.61906" lon="6.82327">
        <ele>1086.2</ele>
        <time>2021-05-27T11:06:00Z</time>
      </trkpt>
      <trkpt lat="45.61911" lon="6.82324">
        <ele>1087.2</ele>
        <time>2021-05-27T11:06:01Z</time>
      </trkpt>
      <trkpt lat="45.61916" lon="6.82321">
        <ele>1088</ele>
        <time>2021-05-27T11:06:02Z</time>
      </trkpt>
      <trkpt lat="45.6192" lon="6.82317">
        <ele>1088.6</ele>
        <time>2021-05-27T11:06:03Z</time>
      </trkpt>
      <trkpt lat="45.61924" lon="6.82313">
        <ele>1089.4</ele>
        <time>2021-05-27T11:06:04Z</time>
      </trkpt>
      <trkpt lat="45.61927" lon="6.82308">
        <ele>1090.2</ele>
        <time>2021-05-27T11:06:05Z</time>
      </trkpt>
      <trkpt lat="45.61931" lon="6.82303">
        <ele>1090.6</ele>
        <time>2021-05-27T11:06:06Z</time>
      </trkpt>
      <trkpt lat="45.61933" lon="6.82298">
        <ele>1091.2</ele>
        <time>2021-05-27T11:06:07Z</time>
      </trkpt>
      <trkpt lat="45.61937" lon="6.82292">
        <ele>1091.4</ele>
        <time>2021-05-27T11:06:08Z</time>
      </trkpt>
      <trkpt lat="45.61939" lon="6.82286">
        <ele>1091.6</ele>
        <time>2021-05-27T11:06:09Z</time>
      </trkpt>
      <trkpt lat="45.61942" lon="6.82278">
        <ele>1091.8</ele>
        <time>2021-05-27T11:06:10Z</time>
      </trkpt>
      <trkpt lat="45.61945" lon="6.82272">
        <ele>1092.2</ele>
        <time>2021-05-27T11:06:11Z</time>
      </trkpt>
      <trkpt lat="45.61948" lon="6.82265">
        <ele>1092.4</ele>
        <time>2021-05-27T11:06:12Z</time>
      </trkpt>
      <trkpt lat="45.61951" lon="6.82258">
        <ele>1092.8</ele>
        <time>2021-05-27T11:06:13Z</time>
      </trkpt>
      <trkpt lat="45.61954" lon="6.82252">
        <ele>1093</ele>
        <time>2021-05-27T11:06:14Z</time>
      </trkpt>
      <trkpt lat="45.61957" lon="6.82246">
        <ele>1093</ele>
        <time>2021-05-27T11:06:15Z</time>
      </trkpt>
      <trkpt lat="45.61962" lon="6.8224">
        <ele>1093.2</ele>
        <time>2021-05-27T11:06:16Z</time>
      </trkpt>
      <trkpt lat="45.61966" lon="6.82235">
        <ele>1093</ele>
        <time>2021-05-27T11:06:17Z</time>
      </trkpt>
      <trkpt lat="45.6197" lon="6.8223">
        <ele>1093.2</ele>
        <time>2021-05-27T11:06:18Z</time>
      </trkpt>
      <trkpt lat="45.61974" lon="6.82224">
        <ele>1093.4</ele>
        <time>2021-05-27T11:06:19Z</time>
      </trkpt>
      <trkpt lat="45.61978" lon="6.82217">
        <ele>1093.4</ele>
        <time>2021-05-27T11:06:20Z</time>
      </trkpt>
      <trkpt lat="45.61981" lon="6.82212">
        <ele>1093.6</ele>
        <time>2021-05-27T11:06:21Z</time>
      </trkpt>
      <trkpt lat="45.61985" lon="6.82207">
        <ele>1093.8</ele>
        <time>2021-05-27T11:06:22Z</time>
      </trkpt>
      <trkpt lat="45.61989" lon="6.82202">
        <ele>1093.8</ele>
        <time>2021-05-27T11:06:23Z</time>
      </trkpt>
      <trkpt lat="45.61993" lon="6.82196">
        <ele>1094</ele>
        <time>2021-05-27T11:06:24Z</time>
      </trkpt>
      <trkpt lat="45.61996" lon="6.82189">
        <ele>1094.2</ele>
        <time>2021-05-27T11:06:25Z</time>
      </trkpt>
      <trkpt lat="45.61999" lon="6.82183">
        <ele>1094.4</ele>
        <time>2021-05-27T11:06:26Z</time>
      </trkpt>
      <trkpt lat="45.62003" lon="6.82177">
        <ele>1094.4</ele>
        <time>2021-05-27T11:06:27Z</time>
      </trkpt>
      <trkpt lat="45.62006" lon="6.82172">
        <ele>1094.4</ele>
        <time>2021-05-27T11:06:28Z</time>
      </trkpt>
      <trkpt lat="45.62009" lon="6.82167">
        <ele>1094.6</ele>
        <time>2021-05-27T11:06:29Z</time>
      </trkpt>
      <trkpt lat="45.62012" lon="6.82162">
        <ele>1094.6</ele>
        <time>2021-05-27T11:06:30Z</time>
      </trkpt>
      <trkpt lat="45.62015" lon="6.82155">
        <ele>1094.8</ele>
        <time>2021-05-27T11:06:31Z</time>
      </trkpt>
      <trkpt lat="45.62018" lon="6.82148">
        <ele>1094.8</ele>
        <time>2021-05-27T11:06:32Z</time>
      </trkpt>
      <trkpt lat="45.62021" lon="6.82142">
        <ele>1095</ele>
        <time>2021-05-27T11:06:33Z</time>
      </trkpt>
      <trkpt lat="45.62024" lon="6.82135">
        <ele>1095</ele>
        <time>2021-05-27T11:06:34Z</time>
      </trkpt>
      <trkpt lat="45.62027" lon="6.82129">
        <ele>1095.4</ele>
        <time>2021-05-27T11:06:35Z</time>
      </trkpt>
      <trkpt lat="45.6203" lon="6.82123">
        <ele>1095.2</ele>
        <time>2021-05-27T11:06:36Z</time>
      </trkpt>
      <trkpt lat="45.62034" lon="6.82118">
        <ele>1095.2</ele>
        <time>2021-05-27T11:06:37Z</time>
      </trkpt>
      <trkpt lat="45.62038" lon="6.82115">
        <ele>1095.4</ele>
        <time>2021-05-27T11:06:38Z</time>
      </trkpt>
      <trkpt lat="45.62042" lon="6.82111">
        <ele>1095.8</ele>
        <time>2021-05-27T11:06:39Z</time>
      </trkpt>
      <trkpt lat="45.62046" lon="6.82106">
        <ele>1096.2</ele>
        <time>2021-05-27T11:06:40Z</time>
      </trkpt>
      <trkpt lat="45.6205" lon="6.82102">
        <ele>1096.4</ele>
        <time>2021-05-27T11:06:41Z</time>
      </trkpt>
      <trkpt lat="45.62054" lon="6.82098">
        <ele>1096.4</ele>
        <time>2021-05-27T11:06:42Z</time>
      </trkpt>
      <trkpt lat="45.62058" lon="6.82094">
        <ele>1096.6</ele>
        <time>2021-05-27T11:06:43Z</time>
      </trkpt>
      <trkpt lat="45.62062" lon="6.8209">
        <ele>1096.8</ele>
        <time>2021-05-27T11:06:44Z</time>
      </trkpt>
      <trkpt lat="45.62066" lon="6.82086">
        <ele>1097</ele>
        <time>2021-05-27T11:06:45Z</time>
      </trkpt>
      <trkpt lat="45.6207" lon="6.82083">
        <ele>1097.2</ele>
        <time>2021-05-27T11:06:46Z</time>
      </trkpt>
      <trkpt lat="45.62074" lon="6.8208">
        <ele>1097.6</ele>
        <time>2021-05-27T11:06:47Z</time>
      </trkpt>
      <trkpt lat="45.62077" lon="6.82076">
        <ele>1097.6</ele>
        <time>2021-05-27T11:06:48Z</time>
      </trkpt>
      <trkpt lat="45.62081" lon="6.82071">
        <ele>1097.6</ele>
        <time>2021-05-27T11:06:49Z</time>
      </trkpt>
      <trkpt lat="45.62084" lon="6.82067">
        <ele>1096.8</ele>
        <time>2021-05-27T11:06:50Z</time>
      </trkpt>
      <trkpt lat="45.62088" lon="6.82063">
        <ele>1096.4</ele>
        <time>2021-05-27T11:06:51Z</time>
      </trkpt>
      <trkpt lat="45.62092" lon="6.82059">
        <ele>1096.6</ele>
        <time>2021-05-27T11:06:52Z</time>
      </trkpt>
      <trkpt lat="45.62094" lon="6.82054">
        <ele>1096.6</ele>
        <time>2021-05-27T11:06:53Z</time>
      </trkpt>
      <trkpt lat="45.62098" lon="6.82048">
        <ele>1096.8</ele>
        <time>2021-05-27T11:06:54Z</time>
      </trkpt>
      <trkpt lat="45.621" lon="6.82044">
        <ele>1096.8</ele>
        <time>2021-05-27T11:06:55Z</time>
      </trkpt>
      <trkpt lat="45.62104" lon="6.8204">
        <ele>1097</ele>
        <time>2021-05-27T11:06:56Z</time>
      </trkpt>
      <trkpt lat="45.62107" lon="6.82035">
        <ele>1097.2</ele>
        <time>2021-05-27T11:06:57Z</time>
      </trkpt>
      <trkpt lat="45.62109" lon="6.8203">
        <ele>1097.4</ele>
        <time>2021-05-27T11:06:58Z</time>
      </trkpt>
      <trkpt lat="45.62112" lon="6.82025">
        <ele>1097.8</ele>
        <time>2021-05-27T11:06:59Z</time>
      </trkpt>
      <trkpt lat="45.62116" lon="6.8202">
        <ele>1098.2</ele>
        <time>2021-05-27T11:07:00Z</time>
      </trkpt>
      <trkpt lat="45.62118" lon="6.82015">
        <ele>1098.4</ele>
        <time>2021-05-27T11:07:01Z</time>
      </trkpt>
      <trkpt lat="45.62122" lon="6.8201">
        <ele>1098.8</ele>
        <time>2021-05-27T11:07:02Z</time>
      </trkpt>
      <trkpt lat="45.62125" lon="6.82005">
        <ele>1099</ele>
        <time>2021-05-27T11:07:03Z</time>
      </trkpt>
      <trkpt lat="45.62128" lon="6.82">
        <ele>1099.4</ele>
        <time>2021-05-27T11:07:04Z</time>
      </trkpt>
      <trkpt lat="45.62132" lon="6.81995">
        <ele>1100</ele>
        <time>2021-05-27T11:07:05Z</time>
      </trkpt>
      <trkpt lat="45.62135" lon="6.81991">
        <ele>1100.4</ele>
        <time>2021-05-27T11:07:06Z</time>
      </trkpt>
      <trkpt lat="45.62139" lon="6.81987">
        <ele>1100.8</ele>
        <time>2021-05-27T11:07:07Z</time>
      </trkpt>
      <trkpt lat="45.62143" lon="6.81983">
        <ele>1101.4</ele>
        <time>2021-05-27T11:07:08Z</time>
      </trkpt>
      <trkpt lat="45.62146" lon="6.81978">
        <ele>1101.8</ele>
        <time>2021-05-27T11:07:09Z</time>
      </trkpt>
      <trkpt lat="45.62149" lon="6.81974">
        <ele>1102</ele>
        <time>2021-05-27T11:07:10Z</time>
      </trkpt>
      <trkpt lat="45.62153" lon="6.8197">
        <ele>1102.4</ele>
        <time>2021-05-27T11:07:11Z</time>
      </trkpt>
      <trkpt lat="45.62157" lon="6.81966">
        <ele>1102.8</ele>
        <time>2021-05-27T11:07:12Z</time>
      </trkpt>
      <trkpt lat="45.62161" lon="6.81962">
        <ele>1103.2</ele>
        <time>2021-05-27T11:07:13Z</time>
      </trkpt>
      <trkpt lat="45.62164" lon="6.81959">
        <ele>1103.6</ele>
        <time>2021-05-27T11:07:14Z</time>
      </trkpt>
      <trkpt lat="45.62168" lon="6.81954">
        <ele>1104</ele>
        <time>2021-05-27T11:07:15Z</time>
      </trkpt>
      <trkpt lat="45.62171" lon="6.8195">
        <ele>1104.2</ele>
        <time>2021-05-27T11:07:16Z</time>
      </trkpt>
      <trkpt lat="45.62175" lon="6.81946">
        <ele>1104.8</ele>
        <time>2021-05-27T11:07:17Z</time>
      </trkpt>
      <trkpt lat="45.62179" lon="6.81941">
        <ele>1105</ele>
        <time>2021-05-27T11:07:18Z</time>
      </trkpt>
      <trkpt lat="45.62182" lon="6.81937">
        <ele>1105.2</ele>
        <time>2021-05-27T11:07:19Z</time>
      </trkpt>
      <trkpt lat="45.62186" lon="6.81932">
        <ele>1105.4</ele>
        <time>2021-05-27T11:07:20Z</time>
      </trkpt>
      <trkpt lat="45.62189" lon="6.81928">
        <ele>1105.8</ele>
        <time>2021-05-27T11:07:21Z</time>
      </trkpt>
      <trkpt lat="45.62192" lon="6.81923">
        <ele>1106.2</ele>
        <time>2021-05-27T11:07:22Z</time>
      </trkpt>
      <trkpt lat="45.62196" lon="6.81919">
        <ele>1106.6</ele>
        <time>2021-05-27T11:07:23Z</time>
      </trkpt>
      <trkpt lat="45.622" lon="6.81915">
        <ele>1107</ele>
        <time>2021-05-27T11:07:24Z</time>
      </trkpt>
      <trkpt lat="45.62204" lon="6.8191">
        <ele>1107.4</ele>
        <time>2021-05-27T11:07:25Z</time>
      </trkpt>
      <trkpt lat="45.62208" lon="6.81907">
        <ele>1107.6</ele>
        <time>2021-05-27T11:07:26Z</time>
      </trkpt>
      <trkpt lat="45.62212" lon="6.81904">
        <ele>1107.8</ele>
        <time>2021-05-27T11:07:27Z</time>
      </trkpt>
      <trkpt lat="45.62217" lon="6.81901">
        <ele>1108.2</ele>
        <time>2021-05-27T11:07:28Z</time>
      </trkpt>
      <trkpt lat="45.62222" lon="6.81899">
        <ele>1108.2</ele>
        <time>2021-05-27T11:07:29Z</time>
      </trkpt>
      <trkpt lat="45.62227" lon="6.81897">
        <ele>1108.4</ele>
        <time>2021-05-27T11:07:30Z</time>
      </trkpt>
      <trkpt lat="45.62232" lon="6.81896">
        <ele>1108.6</ele>
        <time>2021-05-27T11:07:31Z</time>
      </trkpt>
      <trkpt lat="45.62237" lon="6.81894">
        <ele>1109</ele>
        <time>2021-05-27T11:07:32Z</time>
      </trkpt>
      <trkpt lat="45.62241" lon="6.81893">
        <ele>1109</ele>
        <time>2021-05-27T11:07:33Z</time>
      </trkpt>
      <trkpt lat="45.62246" lon="6.81892">
        <ele>1109.2</ele>
        <time>2021-05-27T11:07:34Z</time>
      </trkpt>
      <trkpt lat="45.62251" lon="6.8189">
        <ele>1109.4</ele>
        <time>2021-05-27T11:07:35Z</time>
      </trkpt>
      <trkpt lat="45.62256" lon="6.81889">
        <ele>1109.4</ele>
        <time>2021-05-27T11:07:36Z</time>
      </trkpt>
      <trkpt lat="45.6226" lon="6.81887">
        <ele>1109.6</ele>
        <time>2021-05-27T11:07:37Z</time>
      </trkpt>
      <trkpt lat="45.62265" lon="6.81885">
        <ele>1110</ele>
        <time>2021-05-27T11:07:38Z</time>
      </trkpt>
      <trkpt lat="45.62269" lon="6.81883">
        <ele>1110.4</ele>
        <time>2021-05-27T11:07:39Z</time>
      </trkpt>
      <trkpt lat="45.62273" lon="6.8188">
        <ele>1110.6</ele>
        <time>2021-05-27T11:07:40Z</time>
      </trkpt>
      <trkpt lat="45.62278" lon="6.81876">
        <ele>1110.8</ele>
        <time>2021-05-27T11:07:41Z</time>
      </trkpt>
      <trkpt lat="45.62282" lon="6.81873">
        <ele>1111</ele>
        <time>2021-05-27T11:07:42Z</time>
      </trkpt>
      <trkpt lat="45.62286" lon="6.81869">
        <ele>1111.2</ele>
        <time>2021-05-27T11:07:43Z</time>
      </trkpt>
      <trkpt lat="45.62289" lon="6.81865">
        <ele>1111.6</ele>
        <time>2021-05-27T11:07:44Z</time>
      </trkpt>
      <trkpt lat="45.62292" lon="6.8186">
        <ele>1111.8</ele>
        <time>2021-05-27T11:07:45Z</time>
      </trkpt>
      <trkpt lat="45.62296" lon="6.81856">
        <ele>1112.2</ele>
        <time>2021-05-27T11:07:46Z</time>
      </trkpt>
      <trkpt lat="45.62299" lon="6.81852">
        <ele>1112.6</ele>
        <time>2021-05-27T11:07:47Z</time>
      </trkpt>
      <trkpt lat="45.62302" lon="6.81847">
        <ele>1112.8</ele>
        <time>2021-05-27T11:07:48Z</time>
      </trkpt>
      <trkpt lat="45.62305" lon="6.81842">
        <ele>1113.2</ele>
        <time>2021-05-27T11:07:49Z</time>
      </trkpt>
      <trkpt lat="45.62308" lon="6.81837">
        <ele>1113.6</ele>
        <time>2021-05-27T11:07:50Z</time>
      </trkpt>
      <trkpt lat="45.62311" lon="6.81832">
        <ele>1114</ele>
        <time>2021-05-27T11:07:51Z</time>
      </trkpt>
      <trkpt lat="45.62314" lon="6.81828">
        <ele>1114.4</ele>
        <time>2021-05-27T11:07:52Z</time>
      </trkpt>
      <trkpt lat="45.62317" lon="6.81822">
        <ele>1114.4</ele>
        <time>2021-05-27T11:07:53Z</time>
      </trkpt>
      <trkpt lat="45.6232" lon="6.81818">
        <ele>1115</ele>
        <time>2021-05-27T11:07:54Z</time>
      </trkpt>
      <trkpt lat="45.62323" lon="6.81812">
        <ele>1115.4</ele>
        <time>2021-05-27T11:07:55Z</time>
      </trkpt>
      <trkpt lat="45.62326" lon="6.81808">
        <ele>1115.8</ele>
        <time>2021-05-27T11:07:56Z</time>
      </trkpt>
      <trkpt lat="45.62329" lon="6.81803">
        <ele>1116.2</ele>
        <time>2021-05-27T11:07:57Z</time>
      </trkpt>
      <trkpt lat="45.62332" lon="6.81798">
        <ele>1116.6</ele>
        <time>2021-05-27T11:07:58Z</time>
      </trkpt>
      <trkpt lat="45.62336" lon="6.81794">
        <ele>1117</ele>
        <time>2021-05-27T11:07:59Z</time>
      </trkpt>
      <trkpt lat="45.62339" lon="6.8179">
        <ele>1117.2</ele>
        <time>2021-05-27T11:08:00Z</time>
      </trkpt>
      <trkpt lat="45.62343" lon="6.81786">
        <ele>1117.4</ele>
        <time>2021-05-27T11:08:01Z</time>
      </trkpt>
      <trkpt lat="45.62347" lon="6.81783">
        <ele>1117.8</ele>
        <time>2021-05-27T11:08:02Z</time>
      </trkpt>
      <trkpt lat="45.62351" lon="6.8178">
        <ele>1118</ele>
        <time>2021-05-27T11:08:03Z</time>
      </trkpt>
      <trkpt lat="45.62355" lon="6.81777">
        <ele>1118.2</ele>
        <time>2021-05-27T11:08:04Z</time>
      </trkpt>
      <trkpt lat="45.6236" lon="6.81775">
        <ele>1118.6</ele>
        <time>2021-05-27T11:08:05Z</time>
      </trkpt>
      <trkpt lat="45.62364" lon="6.81773">
        <ele>1119</ele>
        <time>2021-05-27T11:08:06Z</time>
      </trkpt>
      <trkpt lat="45.62368" lon="6.81771">
        <ele>1119.2</ele>
        <time>2021-05-27T11:08:07Z</time>
      </trkpt>
      <trkpt lat="45.62373" lon="6.8177">
        <ele>1119.6</ele>
        <time>2021-05-27T11:08:08Z</time>
      </trkpt>
      <trkpt lat="45.62378" lon="6.81768">
        <ele>1119.8</ele>
        <time>2021-05-27T11:08:09Z</time>
      </trkpt>
      <trkpt lat="45.62383" lon="6.81766">
        <ele>1120.2</ele>
        <time>2021-05-27T11:08:10Z</time>
      </trkpt>
      <trkpt lat="45.62388" lon="6.81765">
        <ele>1120.6</ele>
        <time>2021-05-27T11:08:11Z</time>
      </trkpt>
      <trkpt lat="45.62393" lon="6.81763">
        <ele>1120.8</ele>
        <time>2021-05-27T11:08:12Z</time>
      </trkpt>
      <trkpt lat="45.62398" lon="6.81761">
        <ele>1121.2</ele>
        <time>2021-05-27T11:08:13Z</time>
      </trkpt>
      <trkpt lat="45.62403" lon="6.8176">
        <ele>1121.6</ele>
        <time>2021-05-27T11:08:14Z</time>
      </trkpt>
      <trkpt lat="45.62408" lon="6.81758">
        <ele>1122</ele>
        <time>2021-05-27T11:08:15Z</time>
      </trkpt>
      <trkpt lat="45.62412" lon="6.81756">
        <ele>1122</ele>
        <time>2021-05-27T11:08:16Z</time>
      </trkpt>
      <trkpt lat="45.62417" lon="6.81754">
        <ele>1122.2</ele>
        <time>2021-05-27T11:08:17Z</time>
      </trkpt>
      <trkpt lat="45.62421" lon="6.81753">
        <ele>1122.4</ele>
        <time>2021-05-27T11:08:18Z</time>
      </trkpt>
      <trkpt lat="45.62425" lon="6.81751">
        <ele>1122.6</ele>
        <time>2021-05-27T11:08:19Z</time>
      </trkpt>
      <trkpt lat="45.6243" lon="6.81749">
        <ele>1122.8</ele>
        <time>2021-05-27T11:08:20Z</time>
      </trkpt>
      <trkpt lat="45.62435" lon="6.81748">
        <ele>1123.2</ele>
        <time>2021-05-27T11:08:21Z</time>
      </trkpt>
      <trkpt lat="45.6244" lon="6.81746">
        <ele>1123.2</ele>
        <time>2021-05-27T11:08:22Z</time>
      </trkpt>
      <trkpt lat="45.62444" lon="6.81745">
        <ele>1123.4</ele>
        <time>2021-05-27T11:08:23Z</time>
      </trkpt>
      <trkpt lat="45.62449" lon="6.81743">
        <ele>1123.6</ele>
        <time>2021-05-27T11:08:24Z</time>
      </trkpt>
      <trkpt lat="45.62454" lon="6.81742">
        <ele>1123.8</ele>
        <time>2021-05-27T11:08:25Z</time>
      </trkpt>
      <trkpt lat="45.62459" lon="6.81741">
        <ele>1124</ele>
        <time>2021-05-27T11:08:26Z</time>
      </trkpt>
      <trkpt lat="45.62464" lon="6.81741">
        <ele>1124.2</ele>
        <time>2021-05-27T11:08:27Z</time>
      </trkpt>
      <trkpt lat="45.62469" lon="6.8174">
        <ele>1124.4</ele>
        <time>2021-05-27T11:08:28Z</time>
      </trkpt>
      <trkpt lat="45.62474" lon="6.8174">
        <ele>1124.4</ele>
        <time>2021-05-27T11:08:29Z</time>
      </trkpt>
      <trkpt lat="45.62479" lon="6.81739">
        <ele>1124.4</ele>
        <time>2021-05-27T11:08:30Z</time>
      </trkpt>
      <trkpt lat="45.62484" lon="6.81739">
        <ele>1124.6</ele>
        <time>2021-05-27T11:08:31Z</time>
      </trkpt>
      <trkpt lat="45.62489" lon="6.81739">
        <ele>1124.8</ele>
        <time>2021-05-27T11:08:32Z</time>
      </trkpt>
      <trkpt lat="45.62494" lon="6.8174">
        <ele>1125</ele>
        <time>2021-05-27T11:08:33Z</time>
      </trkpt>
      <trkpt lat="45.62499" lon="6.8174">
        <ele>1125</ele>
        <time>2021-05-27T11:08:34Z</time>
      </trkpt>
      <trkpt lat="45.62504" lon="6.81739">
        <ele>1125.2</ele>
        <time>2021-05-27T11:08:35Z</time>
      </trkpt>
      <trkpt lat="45.62509" lon="6.81739">
        <ele>1125.4</ele>
        <time>2021-05-27T11:08:36Z</time>
      </trkpt>
      <trkpt lat="45.62514" lon="6.81739">
        <ele>1125.6</ele>
        <time>2021-05-27T11:08:37Z</time>
      </trkpt>
      <trkpt lat="45.62518" lon="6.8174">
        <ele>1125.6</ele>
        <time>2021-05-27T11:08:38Z</time>
      </trkpt>
      <trkpt lat="45.62523" lon="6.8174">
        <ele>1125.8</ele>
        <time>2021-05-27T11:08:39Z</time>
      </trkpt>
      <trkpt lat="45.62528" lon="6.8174">
        <ele>1126</ele>
        <time>2021-05-27T11:08:40Z</time>
      </trkpt>
      <trkpt lat="45.62533" lon="6.8174">
        <ele>1126.2</ele>
        <time>2021-05-27T11:08:41Z</time>
      </trkpt>
      <trkpt lat="45.62538" lon="6.8174">
        <ele>1126.6</ele>
        <time>2021-05-27T11:08:42Z</time>
      </trkpt>
      <trkpt lat="45.62543" lon="6.8174">
        <ele>1126.6</ele>
        <time>2021-05-27T11:08:43Z</time>
      </trkpt>
      <trkpt lat="45.62548" lon="6.81739">
        <ele>1126.8</ele>
        <time>2021-05-27T11:08:44Z</time>
      </trkpt>
      <trkpt lat="45.62552" lon="6.81738">
        <ele>1127.2</ele>
        <time>2021-05-27T11:08:45Z</time>
      </trkpt>
      <trkpt lat="45.62557" lon="6.81737">
        <ele>1127.6</ele>
        <time>2021-05-27T11:08:46Z</time>
      </trkpt>
      <trkpt lat="45.62561" lon="6.81736">
        <ele>1128</ele>
        <time>2021-05-27T11:08:47Z</time>
      </trkpt>
      <trkpt lat="45.62566" lon="6.81734">
        <ele>1128.4</ele>
        <time>2021-05-27T11:08:48Z</time>
      </trkpt>
      <trkpt lat="45.6257" lon="6.81732">
        <ele>1128.8</ele>
        <time>2021-05-27T11:08:49Z</time>
      </trkpt>
      <trkpt lat="45.62575" lon="6.8173">
        <ele>1129.2</ele>
        <time>2021-05-27T11:08:50Z</time>
      </trkpt>
      <trkpt lat="45.62579" lon="6.81727">
        <ele>1129.6</ele>
        <time>2021-05-27T11:08:51Z</time>
      </trkpt>
      <trkpt lat="45.62584" lon="6.81724">
        <ele>1130.4</ele>
        <time>2021-05-27T11:08:52Z</time>
      </trkpt>
      <trkpt lat="45.62588" lon="6.8172">
        <ele>1130.8</ele>
        <time>2021-05-27T11:08:53Z</time>
      </trkpt>
      <trkpt lat="45.62592" lon="6.81716">
        <ele>1131.2</ele>
        <time>2021-05-27T11:08:54Z</time>
      </trkpt>
      <trkpt lat="45.62596" lon="6.81712">
        <ele>1131.2</ele>
        <time>2021-05-27T11:08:55Z</time>
      </trkpt>
      <trkpt lat="45.626" lon="6.81708">
        <ele>1131</ele>
        <time>2021-05-27T11:08:56Z</time>
      </trkpt>
      <trkpt lat="45.62604" lon="6.81704">
        <ele>1131</ele>
        <time>2021-05-27T11:08:57Z</time>
      </trkpt>
      <trkpt lat="45.62608" lon="6.817">
        <ele>1131.2</ele>
        <time>2021-05-27T11:08:58Z</time>
      </trkpt>
      <trkpt lat="45.62612" lon="6.81697">
        <ele>1131.2</ele>
        <time>2021-05-27T11:08:59Z</time>
      </trkpt>
      <trkpt lat="45.62615" lon="6.81693">
        <ele>1131.4</ele>
        <time>2021-05-27T11:09:00Z</time>
      </trkpt>
      <trkpt lat="45.6262" lon="6.81689">
        <ele>1131.4</ele>
        <time>2021-05-27T11:09:01Z</time>
      </trkpt>
      <trkpt lat="45.62624" lon="6.81685">
        <ele>1131.2</ele>
        <time>2021-05-27T11:09:02Z</time>
      </trkpt>
      <trkpt lat="45.62628" lon="6.81681">
        <ele>1131.4</ele>
        <time>2021-05-27T11:09:03Z</time>
      </trkpt>
      <trkpt lat="45.62632" lon="6.81677">
        <ele>1131.4</ele>
        <time>2021-05-27T11:09:04Z</time>
      </trkpt>
      <trkpt lat="45.62636" lon="6.81672">
        <ele>1131.4</ele>
        <time>2021-05-27T11:09:05Z</time>
      </trkpt>
      <trkpt lat="45.62639" lon="6.81668">
        <ele>1131.2</ele>
        <time>2021-05-27T11:09:06Z</time>
      </trkpt>
      <trkpt lat="45.62643" lon="6.81663">
        <ele>1131.2</ele>
        <time>2021-05-27T11:09:07Z</time>
      </trkpt>
      <trkpt lat="45.62646" lon="6.81658">
        <ele>1131.2</ele>
        <time>2021-05-27T11:09:08Z</time>
      </trkpt>
      <trkpt lat="45.6265" lon="6.81654">
        <ele>1131.4</ele>
        <time>2021-05-27T11:09:09Z</time>
      </trkpt>
      <trkpt lat="45.62654" lon="6.81649">
        <ele>1131.2</ele>
        <time>2021-05-27T11:09:10Z</time>
      </trkpt>
      <trkpt lat="45.62657" lon="6.81644">
        <ele>1131.2</ele>
        <time>2021-05-27T11:09:11Z</time>
      </trkpt>
      <trkpt lat="45.6266" lon="6.81639">
        <ele>1131.4</ele>
        <time>2021-05-27T11:09:12Z</time>
      </trkpt>
      <trkpt lat="45.62664" lon="6.81634">
        <ele>1131.4</ele>
        <time>2021-05-27T11:09:13Z</time>
      </trkpt>
      <trkpt lat="45.62668" lon="6.81629">
        <ele>1131.4</ele>
        <time>2021-05-27T11:09:14Z</time>
      </trkpt>
      <trkpt lat="45.6267" lon="6.81624">
        <ele>1131.4</ele>
        <time>2021-05-27T11:09:15Z</time>
      </trkpt>
      <trkpt lat="45.62674" lon="6.81619">
        <ele>1131.6</ele>
        <time>2021-05-27T11:09:16Z</time>
      </trkpt>
      <trkpt lat="45.62677" lon="6.81614">
        <ele>1131.4</ele>
        <time>2021-05-27T11:09:17Z</time>
      </trkpt>
      <trkpt lat="45.6268" lon="6.81609">
        <ele>1131.4</ele>
        <time>2021-05-27T11:09:18Z</time>
      </trkpt>
      <trkpt lat="45.62683" lon="6.81604">
        <ele>1131.2</ele>
        <time>2021-05-27T11:09:19Z</time>
      </trkpt>
      <trkpt lat="45.62686" lon="6.81599">
        <ele>1131.2</ele>
        <time>2021-05-27T11:09:20Z</time>
      </trkpt>
      <trkpt lat="45.6269" lon="6.81594">
        <ele>1131.2</ele>
        <time>2021-05-27T11:09:21Z</time>
      </trkpt>
      <trkpt lat="45.62693" lon="6.81589">
        <ele>1131.4</ele>
        <time>2021-05-27T11:09:22Z</time>
      </trkpt>
      <trkpt lat="45.62698" lon="6.81587">
        <ele>1131.2</ele>
        <time>2021-05-27T11:09:23Z</time>
      </trkpt>
      <trkpt lat="45.62702" lon="6.81588">
        <ele>1131.4</ele>
        <time>2021-05-27T11:09:24Z</time>
      </trkpt>
      <trkpt lat="45.62704" lon="6.81594">
        <ele>1131.2</ele>
        <time>2021-05-27T11:09:25Z</time>
      </trkpt>
      <trkpt lat="45.62704" lon="6.816">
        <ele>1131</ele>
        <time>2021-05-27T11:09:26Z</time>
      </trkpt>
      <trkpt lat="45.62702" lon="6.81607">
        <ele>1130.8</ele>
        <time>2021-05-27T11:09:27Z</time>
      </trkpt>
      <trkpt lat="45.627" lon="6.81613">
        <ele>1130.6</ele>
        <time>2021-05-27T11:09:28Z</time>
      </trkpt>
      <trkpt lat="45.62697" lon="6.81619">
        <ele>1130.4</ele>
        <time>2021-05-27T11:09:29Z</time>
      </trkpt>
      <trkpt lat="45.62694" lon="6.81626">
        <ele>1130.2</ele>
        <time>2021-05-27T11:09:30Z</time>
      </trkpt>
      <trkpt lat="45.62691" lon="6.81632">
        <ele>1130.2</ele>
        <time>2021-05-27T11:09:31Z</time>
      </trkpt>
      <trkpt lat="45.62688" lon="6.81638">
        <ele>1130</ele>
        <time>2021-05-27T11:09:32Z</time>
      </trkpt>
      <trkpt lat="45.62685" lon="6.81644">
        <ele>1130</ele>
        <time>2021-05-27T11:09:33Z</time>
      </trkpt>
      <trkpt lat="45.62682" lon="6.81651">
        <ele>1129.8</ele>
        <time>2021-05-27T11:09:34Z</time>
      </trkpt>
      <trkpt lat="45.62679" lon="6.81658">
        <ele>1129.4</ele>
        <time>2021-05-27T11:09:35Z</time>
      </trkpt>
      <trkpt lat="45.62676" lon="6.81664">
        <ele>1129.2</ele>
        <time>2021-05-27T11:09:36Z</time>
      </trkpt>
      <trkpt lat="45.62673" lon="6.8167">
        <ele>1129</ele>
        <time>2021-05-27T11:09:37Z</time>
      </trkpt>
      <trkpt lat="45.6267" lon="6.81676">
        <ele>1129.4</ele>
        <time>2021-05-27T11:09:38Z</time>
      </trkpt>
      <trkpt lat="45.62667" lon="6.81682">
        <ele>1130</ele>
        <time>2021-05-27T11:09:39Z</time>
      </trkpt>
      <trkpt lat="45.62664" lon="6.81689">
        <ele>1130.6</ele>
        <time>2021-05-27T11:09:40Z</time>
      </trkpt>
      <trkpt lat="45.62661" lon="6.81695">
        <ele>1131.4</ele>
        <time>2021-05-27T11:09:41Z</time>
      </trkpt>
      <trkpt lat="45.62658" lon="6.81701">
        <ele>1132</ele>
        <time>2021-05-27T11:09:42Z</time>
      </trkpt>
      <trkpt lat="45.62656" lon="6.81707">
        <ele>1132.4</ele>
        <time>2021-05-27T11:09:43Z</time>
      </trkpt>
      <trkpt lat="45.62653" lon="6.81713">
        <ele>1132.6</ele>
        <time>2021-05-27T11:09:44Z</time>
      </trkpt>
      <trkpt lat="45.6265" lon="6.81718">
        <ele>1132.8</ele>
        <time>2021-05-27T11:09:45Z</time>
      </trkpt>
      <trkpt lat="45.62646" lon="6.81724">
        <ele>1133</ele>
        <time>2021-05-27T11:09:46Z</time>
      </trkpt>
      <trkpt lat="45.62643" lon="6.81728">
        <ele>1133</ele>
        <time>2021-05-27T11:09:47Z</time>
      </trkpt>
      <trkpt lat="45.6264" lon="6.81733">
        <ele>1132.8</ele>
        <time>2021-05-27T11:09:48Z</time>
      </trkpt>
      <trkpt lat="45.62637" lon="6.81738">
        <ele>1132.6</ele>
        <time>2021-05-27T11:09:49Z</time>
      </trkpt>
      <trkpt lat="45.62634" lon="6.81742">
        <ele>1132.6</ele>
        <time>2021-05-27T11:09:50Z</time>
      </trkpt>
      <trkpt lat="45.6263" lon="6.81746">
        <ele>1132.4</ele>
        <time>2021-05-27T11:09:51Z</time>
      </trkpt>
      <trkpt lat="45.62627" lon="6.81751">
        <ele>1132.4</ele>
        <time>2021-05-27T11:09:52Z</time>
      </trkpt>
      <trkpt lat="45.62624" lon="6.81756">
        <ele>1132.6</ele>
        <time>2021-05-27T11:09:53Z</time>
      </trkpt>
      <trkpt lat="45.6262" lon="6.81761">
        <ele>1133</ele>
        <time>2021-05-27T11:09:54Z</time>
      </trkpt>
      <trkpt lat="45.62618" lon="6.81766">
        <ele>1133.4</ele>
        <time>2021-05-27T11:09:55Z</time>
      </trkpt>
      <trkpt lat="45.62614" lon="6.81772">
        <ele>1133.8</ele>
        <time>2021-05-27T11:09:56Z</time>
      </trkpt>
      <trkpt lat="45.62612" lon="6.81777">
        <ele>1134.2</ele>
        <time>2021-05-27T11:09:57Z</time>
      </trkpt>
      <trkpt lat="45.62608" lon="6.81783">
        <ele>1134.6</ele>
        <time>2021-05-27T11:09:58Z</time>
      </trkpt>
      <trkpt lat="45.62605" lon="6.81788">
        <ele>1135</ele>
        <time>2021-05-27T11:09:59Z</time>
      </trkpt>
      <trkpt lat="45.62602" lon="6.81792">
        <ele>1135</ele>
        <time>2021-05-27T11:10:00Z</time>
      </trkpt>
      <trkpt lat="45.62598" lon="6.81796">
        <ele>1135.6</ele>
        <time>2021-05-27T11:10:01Z</time>
      </trkpt>
      <trkpt lat="45.62595" lon="6.818">
        <ele>1136.2</ele>
        <time>2021-05-27T11:10:02Z</time>
      </trkpt>
      <trkpt lat="45.62591" lon="6.81803">
        <ele>1136.6</ele>
        <time>2021-05-27T11:10:03Z</time>
      </trkpt>
      <trkpt lat="45.62587" lon="6.81806">
        <ele>1137</ele>
        <time>2021-05-27T11:10:04Z</time>
      </trkpt>
      <trkpt lat="45.62582" lon="6.81809">
        <ele>1137.4</ele>
        <time>2021-05-27T11:10:05Z</time>
      </trkpt>
      <trkpt lat="45.62578" lon="6.81812">
        <ele>1137.8</ele>
        <time>2021-05-27T11:10:06Z</time>
      </trkpt>
      <trkpt lat="45.62573" lon="6.81813">
        <ele>1138.2</ele>
        <time>2021-05-27T11:10:07Z</time>
      </trkpt>
      <trkpt lat="45.62568" lon="6.81815">
        <ele>1138.4</ele>
        <time>2021-05-27T11:10:08Z</time>
      </trkpt>
      <trkpt lat="45.62563" lon="6.81816">
        <ele>1138.4</ele>
        <time>2021-05-27T11:10:09Z</time>
      </trkpt>
      <trkpt lat="45.62558" lon="6.81817">
        <ele>1138.4</ele>
        <time>2021-05-27T11:10:10Z</time>
      </trkpt>
      <trkpt lat="45.62554" lon="6.81818">
        <ele>1138.4</ele>
        <time>2021-05-27T11:10:11Z</time>
      </trkpt>
      <trkpt lat="45.62549" lon="6.81818">
        <ele>1138.2</ele>
        <time>2021-05-27T11:10:12Z</time>
      </trkpt>
      <trkpt lat="45.62545" lon="6.81819">
        <ele>1138.2</ele>
        <time>2021-05-27T11:10:13Z</time>
      </trkpt>
      <trkpt lat="45.62541" lon="6.8182">
        <ele>1138</ele>
        <time>2021-05-27T11:10:14Z</time>
      </trkpt>
      <trkpt lat="45.62537" lon="6.81822">
        <ele>1137.8</ele>
        <time>2021-05-27T11:10:15Z</time>
      </trkpt>
      <trkpt lat="45.62532" lon="6.81824">
        <ele>1137.4</ele>
        <time>2021-05-27T11:10:16Z</time>
      </trkpt>
      <trkpt lat="45.62529" lon="6.81826">
        <ele>1137.6</ele>
        <time>2021-05-27T11:10:17Z</time>
      </trkpt>
      <trkpt lat="45.62524" lon="6.81829">
        <ele>1137.8</ele>
        <time>2021-05-27T11:10:18Z</time>
      </trkpt>
      <trkpt lat="45.62521" lon="6.81832">
        <ele>1138.2</ele>
        <time>2021-05-27T11:10:19Z</time>
      </trkpt>
      <trkpt lat="45.62516" lon="6.81836">
        <ele>1138.8</ele>
        <time>2021-05-27T11:10:20Z</time>
      </trkpt>
      <trkpt lat="45.62511" lon="6.81839">
        <ele>1139.4</ele>
        <time>2021-05-27T11:10:21Z</time>
      </trkpt>
      <trkpt lat="45.62507" lon="6.81843">
        <ele>1139.8</ele>
        <time>2021-05-27T11:10:22Z</time>
      </trkpt>
      <trkpt lat="45.62503" lon="6.81847">
        <ele>1140.2</ele>
        <time>2021-05-27T11:10:23Z</time>
      </trkpt>
      <trkpt lat="45.62499" lon="6.81851">
        <ele>1140.4</ele>
        <time>2021-05-27T11:10:24Z</time>
      </trkpt>
      <trkpt lat="45.62494" lon="6.81855">
        <ele>1140.6</ele>
        <time>2021-05-27T11:10:25Z</time>
      </trkpt>
      <trkpt lat="45.6249" lon="6.81858">
        <ele>1140.6</ele>
        <time>2021-05-27T11:10:26Z</time>
      </trkpt>
      <trkpt lat="45.62486" lon="6.81862">
        <ele>1140.6</ele>
        <time>2021-05-27T11:10:27Z</time>
      </trkpt>
      <trkpt lat="45.62482" lon="6.81865">
        <ele>1141</ele>
        <time>2021-05-27T11:10:28Z</time>
      </trkpt>
      <trkpt lat="45.62477" lon="6.81868">
        <ele>1141.6</ele>
        <time>2021-05-27T11:10:29Z</time>
      </trkpt>
      <trkpt lat="45.62473" lon="6.81872">
        <ele>1142</ele>
        <time>2021-05-27T11:10:30Z</time>
      </trkpt>
      <trkpt lat="45.62469" lon="6.81874">
        <ele>1142.4</ele>
        <time>2021-05-27T11:10:31Z</time>
      </trkpt>
      <trkpt lat="45.62465" lon="6.81877">
        <ele>1142.8</ele>
        <time>2021-05-27T11:10:32Z</time>
      </trkpt>
      <trkpt lat="45.62461" lon="6.8188">
        <ele>1143.6</ele>
        <time>2021-05-27T11:10:33Z</time>
      </trkpt>
      <trkpt lat="45.62457" lon="6.81884">
        <ele>1144.2</ele>
        <time>2021-05-27T11:10:34Z</time>
      </trkpt>
      <trkpt lat="45.62453" lon="6.81887">
        <ele>1144.2</ele>
        <time>2021-05-27T11:10:35Z</time>
      </trkpt>
      <trkpt lat="45.6245" lon="6.8189">
        <ele>1145.6</ele>
        <time>2021-05-27T11:10:36Z</time>
      </trkpt>
      <trkpt lat="45.62445" lon="6.81893">
        <ele>1146</ele>
        <time>2021-05-27T11:10:37Z</time>
      </trkpt>
      <trkpt lat="45.62441" lon="6.81896">
        <ele>1146.8</ele>
        <time>2021-05-27T11:10:38Z</time>
      </trkpt>
      <trkpt lat="45.62437" lon="6.81899">
        <ele>1147.2</ele>
        <time>2021-05-27T11:10:39Z</time>
      </trkpt>
      <trkpt lat="45.62432" lon="6.81902">
        <ele>1147.8</ele>
        <time>2021-05-27T11:10:40Z</time>
      </trkpt>
      <trkpt lat="45.62428" lon="6.81905">
        <ele>1148.4</ele>
        <time>2021-05-27T11:10:41Z</time>
      </trkpt>
      <trkpt lat="45.62423" lon="6.81908">
        <ele>1149</ele>
        <time>2021-05-27T11:10:42Z</time>
      </trkpt>
      <trkpt lat="45.6242" lon="6.81911">
        <ele>1149.8</ele>
        <time>2021-05-27T11:10:43Z</time>
      </trkpt>
      <trkpt lat="45.62415" lon="6.81914">
        <ele>1150.6</ele>
        <time>2021-05-27T11:10:44Z</time>
      </trkpt>
      <trkpt lat="45.62412" lon="6.81917">
        <ele>1151.4</ele>
        <time>2021-05-27T11:10:45Z</time>
      </trkpt>
      <trkpt lat="45.62408" lon="6.8192">
        <ele>1152</ele>
        <time>2021-05-27T11:10:46Z</time>
      </trkpt>
      <trkpt lat="45.62403" lon="6.81923">
        <ele>1153</ele>
        <time>2021-05-27T11:10:47Z</time>
      </trkpt>
      <trkpt lat="45.624" lon="6.81926">
        <ele>1153.6</ele>
        <time>2021-05-27T11:10:48Z</time>
      </trkpt>
      <trkpt lat="45.62396" lon="6.81929">
        <ele>1154.4</ele>
        <time>2021-05-27T11:10:49Z</time>
      </trkpt>
      <trkpt lat="45.62392" lon="6.81933">
        <ele>1155.4</ele>
        <time>2021-05-27T11:10:50Z</time>
      </trkpt>
      <trkpt lat="45.62388" lon="6.81936">
        <ele>1156</ele>
        <time>2021-05-27T11:10:51Z</time>
      </trkpt>
      <trkpt lat="45.62384" lon="6.8194">
        <ele>1156.4</ele>
        <time>2021-05-27T11:10:52Z</time>
      </trkpt>
      <trkpt lat="45.6238" lon="6.81944">
        <ele>1156.8</ele>
        <time>2021-05-27T11:10:53Z</time>
      </trkpt>
      <trkpt lat="45.62375" lon="6.81949">
        <ele>1157.2</ele>
        <time>2021-05-27T11:10:54Z</time>
      </trkpt>
      <trkpt lat="45.62371" lon="6.81954">
        <ele>1157.6</ele>
        <time>2021-05-27T11:10:55Z</time>
      </trkpt>
      <trkpt lat="45.62366" lon="6.81958">
        <ele>1157.8</ele>
        <time>2021-05-27T11:10:56Z</time>
      </trkpt>
      <trkpt lat="45.62362" lon="6.81963">
        <ele>1158.2</ele>
        <time>2021-05-27T11:10:57Z</time>
      </trkpt>
      <trkpt lat="45.62358" lon="6.81968">
        <ele>1158.8</ele>
        <time>2021-05-27T11:10:58Z</time>
      </trkpt>
      <trkpt lat="45.62354" lon="6.81973">
        <ele>1159.4</ele>
        <time>2021-05-27T11:10:59Z</time>
      </trkpt>
      <trkpt lat="45.6235" lon="6.81978">
        <ele>1159.8</ele>
        <time>2021-05-27T11:11:00Z</time>
      </trkpt>
      <trkpt lat="45.62347" lon="6.81984">
        <ele>1160.2</ele>
        <time>2021-05-27T11:11:01Z</time>
      </trkpt>
      <trkpt lat="45.62343" lon="6.81989">
        <ele>1160.6</ele>
        <time>2021-05-27T11:11:02Z</time>
      </trkpt>
      <trkpt lat="45.6234" lon="6.81995">
        <ele>1160.8</ele>
        <time>2021-05-27T11:11:03Z</time>
      </trkpt>
      <trkpt lat="45.62336" lon="6.82001">
        <ele>1161.2</ele>
        <time>2021-05-27T11:11:04Z</time>
      </trkpt>
      <trkpt lat="45.62334" lon="6.82007">
        <ele>1161.8</ele>
        <time>2021-05-27T11:11:05Z</time>
      </trkpt>
      <trkpt lat="45.62331" lon="6.82013">
        <ele>1162.4</ele>
        <time>2021-05-27T11:11:06Z</time>
      </trkpt>
      <trkpt lat="45.62328" lon="6.82019">
        <ele>1163</ele>
        <time>2021-05-27T11:11:07Z</time>
      </trkpt>
      <trkpt lat="45.62325" lon="6.82025">
        <ele>1163.4</ele>
        <time>2021-05-27T11:11:08Z</time>
      </trkpt>
      <trkpt lat="45.62322" lon="6.82031">
        <ele>1164</ele>
        <time>2021-05-27T11:11:09Z</time>
      </trkpt>
      <trkpt lat="45.62319" lon="6.82037">
        <ele>1164.6</ele>
        <time>2021-05-27T11:11:10Z</time>
      </trkpt>
      <trkpt lat="45.62316" lon="6.82043">
        <ele>1165</ele>
        <time>2021-05-27T11:11:11Z</time>
      </trkpt>
      <trkpt lat="45.62313" lon="6.82049">
        <ele>1165.6</ele>
        <time>2021-05-27T11:11:12Z</time>
      </trkpt>
      <trkpt lat="45.6231" lon="6.82054">
        <ele>1166</ele>
        <time>2021-05-27T11:11:13Z</time>
      </trkpt>
      <trkpt lat="45.62308" lon="6.8206">
        <ele>1166.4</ele>
        <time>2021-05-27T11:11:14Z</time>
      </trkpt>
      <trkpt lat="45.62305" lon="6.82065">
        <ele>1167</ele>
        <time>2021-05-27T11:11:15Z</time>
      </trkpt>
      <trkpt lat="45.62301" lon="6.8207">
        <ele>1167.6</ele>
        <time>2021-05-27T11:11:16Z</time>
      </trkpt>
      <trkpt lat="45.62297" lon="6.82074">
        <ele>1168</ele>
        <time>2021-05-27T11:11:17Z</time>
      </trkpt>
      <trkpt lat="45.62293" lon="6.82078">
        <ele>1168.4</ele>
        <time>2021-05-27T11:11:18Z</time>
      </trkpt>
      <trkpt lat="45.62289" lon="6.82081">
        <ele>1168.6</ele>
        <time>2021-05-27T11:11:19Z</time>
      </trkpt>
      <trkpt lat="45.62284" lon="6.82083">
        <ele>1168.8</ele>
        <time>2021-05-27T11:11:20Z</time>
      </trkpt>
      <trkpt lat="45.62279" lon="6.82085">
        <ele>1169.2</ele>
        <time>2021-05-27T11:11:21Z</time>
      </trkpt>
      <trkpt lat="45.62274" lon="6.82087">
        <ele>1169.6</ele>
        <time>2021-05-27T11:11:22Z</time>
      </trkpt>
      <trkpt lat="45.62269" lon="6.82089">
        <ele>1169.8</ele>
        <time>2021-05-27T11:11:23Z</time>
      </trkpt>
      <trkpt lat="45.62264" lon="6.82092">
        <ele>1170</ele>
        <time>2021-05-27T11:11:24Z</time>
      </trkpt>
      <trkpt lat="45.62259" lon="6.82095">
        <ele>1170.4</ele>
        <time>2021-05-27T11:11:25Z</time>
      </trkpt>
      <trkpt lat="45.62255" lon="6.82098">
        <ele>1170.6</ele>
        <time>2021-05-27T11:11:26Z</time>
      </trkpt>
      <trkpt lat="45.6225" lon="6.821">
        <ele>1170.8</ele>
        <time>2021-05-27T11:11:27Z</time>
      </trkpt>
      <trkpt lat="45.62245" lon="6.82104">
        <ele>1171</ele>
        <time>2021-05-27T11:11:28Z</time>
      </trkpt>
      <trkpt lat="45.62241" lon="6.82108">
        <ele>1171.2</ele>
        <time>2021-05-27T11:11:29Z</time>
      </trkpt>
      <trkpt lat="45.62237" lon="6.82111">
        <ele>1171.2</ele>
        <time>2021-05-27T11:11:30Z</time>
      </trkpt>
      <trkpt lat="45.62232" lon="6.82116">
        <ele>1171.4</ele>
        <time>2021-05-27T11:11:31Z</time>
      </trkpt>
      <trkpt lat="45.62228" lon="6.82121">
        <ele>1171.8</ele>
        <time>2021-05-27T11:11:32Z</time>
      </trkpt>
      <trkpt lat="45.62224" lon="6.82126">
        <ele>1172.2</ele>
        <time>2021-05-27T11:11:33Z</time>
      </trkpt>
      <trkpt lat="45.6222" lon="6.82131">
        <ele>1172.4</ele>
        <time>2021-05-27T11:11:34Z</time>
      </trkpt>
      <trkpt lat="45.62217" lon="6.82136">
        <ele>1172.8</ele>
        <time>2021-05-27T11:11:35Z</time>
      </trkpt>
      <trkpt lat="45.62213" lon="6.82142">
        <ele>1172.6</ele>
        <time>2021-05-27T11:11:36Z</time>
      </trkpt>
      <trkpt lat="45.6221" lon="6.82148">
        <ele>1173</ele>
        <time>2021-05-27T11:11:37Z</time>
      </trkpt>
      <trkpt lat="45.62207" lon="6.82154">
        <ele>1173.4</ele>
        <time>2021-05-27T11:11:38Z</time>
      </trkpt>
      <trkpt lat="45.62205" lon="6.82161">
        <ele>1173.8</ele>
        <time>2021-05-27T11:11:39Z</time>
      </trkpt>
      <trkpt lat="45.62203" lon="6.82168">
        <ele>1174</ele>
        <time>2021-05-27T11:11:40Z</time>
      </trkpt>
      <trkpt lat="45.622" lon="6.82174">
        <ele>1174</ele>
        <time>2021-05-27T11:11:41Z</time>
      </trkpt>
      <trkpt lat="45.62197" lon="6.82181">
        <ele>1173.8</ele>
        <time>2021-05-27T11:11:42Z</time>
      </trkpt>
      <trkpt lat="45.62195" lon="6.82189">
        <ele>1173.8</ele>
        <time>2021-05-27T11:11:43Z</time>
      </trkpt>
      <trkpt lat="45.62192" lon="6.82196">
        <ele>1173.6</ele>
        <time>2021-05-27T11:11:44Z</time>
      </trkpt>
      <trkpt lat="45.6219" lon="6.82204">
        <ele>1173.4</ele>
        <time>2021-05-27T11:11:45Z</time>
      </trkpt>
      <trkpt lat="45.62188" lon="6.82212">
        <ele>1173</ele>
        <time>2021-05-27T11:11:46Z</time>
      </trkpt>
      <trkpt lat="45.62187" lon="6.82221">
        <ele>1172.6</ele>
        <time>2021-05-27T11:11:47Z</time>
      </trkpt>
      <trkpt lat="45.62185" lon="6.82229">
        <ele>1172</ele>
        <time>2021-05-27T11:11:48Z</time>
      </trkpt>
      <trkpt lat="45.62183" lon="6.82236">
        <ele>1172</ele>
        <time>2021-05-27T11:11:49Z</time>
      </trkpt>
      <trkpt lat="45.6218" lon="6.82244">
        <ele>1171.8</ele>
        <time>2021-05-27T11:11:50Z</time>
      </trkpt>
      <trkpt lat="45.62177" lon="6.82251">
        <ele>1172</ele>
        <time>2021-05-27T11:11:51Z</time>
      </trkpt>
      <trkpt lat="45.62173" lon="6.82257">
        <ele>1171.8</ele>
        <time>2021-05-27T11:11:52Z</time>
      </trkpt>
      <trkpt lat="45.62169" lon="6.82263">
        <ele>1172.4</ele>
        <time>2021-05-27T11:11:53Z</time>
      </trkpt>
      <trkpt lat="45.62166" lon="6.82269">
        <ele>1172.6</ele>
        <time>2021-05-27T11:11:54Z</time>
      </trkpt>
      <trkpt lat="45.62162" lon="6.82273">
        <ele>1173</ele>
        <time>2021-05-27T11:11:55Z</time>
      </trkpt>
      <trkpt lat="45.62156" lon="6.82277">
        <ele>1173</ele>
        <time>2021-05-27T11:11:56Z</time>
      </trkpt>
      <trkpt lat="45.62151" lon="6.8228">
        <ele>1173.2</ele>
        <time>2021-05-27T11:11:57Z</time>
      </trkpt>
      <trkpt lat="45.62148" lon="6.82285">
        <ele>1173.2</ele>
        <time>2021-05-27T11:11:58Z</time>
      </trkpt>
      <trkpt lat="45.62144" lon="6.82288">
        <ele>1173.6</ele>
        <time>2021-05-27T11:11:59Z</time>
      </trkpt>
      <trkpt lat="45.6214" lon="6.82292">
        <ele>1174</ele>
        <time>2021-05-27T11:12:00Z</time>
      </trkpt>
      <trkpt lat="45.62135" lon="6.82296">
        <ele>1174.2</ele>
        <time>2021-05-27T11:12:01Z</time>
      </trkpt>
      <trkpt lat="45.62131" lon="6.82299">
        <ele>1174.6</ele>
        <time>2021-05-27T11:12:02Z</time>
      </trkpt>
      <trkpt lat="45.62127" lon="6.82303">
        <ele>1175</ele>
        <time>2021-05-27T11:12:03Z</time>
      </trkpt>
      <trkpt lat="45.62124" lon="6.82308">
        <ele>1175.2</ele>
        <time>2021-05-27T11:12:04Z</time>
      </trkpt>
      <trkpt lat="45.6212" lon="6.82313">
        <ele>1175.6</ele>
        <time>2021-05-27T11:12:05Z</time>
      </trkpt>
      <trkpt lat="45.62117" lon="6.82318">
        <ele>1175.6</ele>
        <time>2021-05-27T11:12:06Z</time>
      </trkpt>
      <trkpt lat="45.62115" lon="6.82324">
        <ele>1175.4</ele>
        <time>2021-05-27T11:12:07Z</time>
      </trkpt>
      <trkpt lat="45.62112" lon="6.8233">
        <ele>1175.4</ele>
        <time>2021-05-27T11:12:08Z</time>
      </trkpt>
      <trkpt lat="45.6211" lon="6.82336">
        <ele>1175.6</ele>
        <time>2021-05-27T11:12:09Z</time>
      </trkpt>
      <trkpt lat="45.62108" lon="6.82343">
        <ele>1175.6</ele>
        <time>2021-05-27T11:12:10Z</time>
      </trkpt>
      <trkpt lat="45.62106" lon="6.82349">
        <ele>1175.8</ele>
        <time>2021-05-27T11:12:11Z</time>
      </trkpt>
      <trkpt lat="45.62106" lon="6.82355">
        <ele>1175.8</ele>
        <time>2021-05-27T11:12:12Z</time>
      </trkpt>
      <trkpt lat="45.62104" lon="6.82362">
        <ele>1176</ele>
        <time>2021-05-27T11:12:13Z</time>
      </trkpt>
      <trkpt lat="45.62102" lon="6.82368">
        <ele>1176.4</ele>
        <time>2021-05-27T11:12:14Z</time>
      </trkpt>
      <trkpt lat="45.621" lon="6.82374">
        <ele>1176.8</ele>
        <time>2021-05-27T11:12:15Z</time>
      </trkpt>
      <trkpt lat="45.62098" lon="6.82379">
        <ele>1177</ele>
        <time>2021-05-27T11:12:16Z</time>
      </trkpt>
      <trkpt lat="45.62096" lon="6.82385">
        <ele>1177.2</ele>
        <time>2021-05-27T11:12:17Z</time>
      </trkpt>
      <trkpt lat="45.62094" lon="6.8239">
        <ele>1177.6</ele>
        <time>2021-05-27T11:12:18Z</time>
      </trkpt>
      <trkpt lat="45.62092" lon="6.82396">
        <ele>1177.6</ele>
        <time>2021-05-27T11:12:19Z</time>
      </trkpt>
      <trkpt lat="45.6209" lon="6.82402">
        <ele>1177.6</ele>
        <time>2021-05-27T11:12:20Z</time>
      </trkpt>
      <trkpt lat="45.62088" lon="6.82407">
        <ele>1177.4</ele>
        <time>2021-05-27T11:12:21Z</time>
      </trkpt>
      <trkpt lat="45.62086" lon="6.82413">
        <ele>1177</ele>
        <time>2021-05-27T11:12:22Z</time>
      </trkpt>
      <trkpt lat="45.62084" lon="6.82419">
        <ele>1176.6</ele>
        <time>2021-05-27T11:12:23Z</time>
      </trkpt>
      <trkpt lat="45.62083" lon="6.82425">
        <ele>1176.2</ele>
        <time>2021-05-27T11:12:24Z</time>
      </trkpt>
      <trkpt lat="45.62081" lon="6.82431">
        <ele>1176</ele>
        <time>2021-05-27T11:12:25Z</time>
      </trkpt>
      <trkpt lat="45.62079" lon="6.82438">
        <ele>1176</ele>
        <time>2021-05-27T11:12:26Z</time>
      </trkpt>
      <trkpt lat="45.62077" lon="6.82444">
        <ele>1175.6</ele>
        <time>2021-05-27T11:12:27Z</time>
      </trkpt>
      <trkpt lat="45.62075" lon="6.8245">
        <ele>1175.6</ele>
        <time>2021-05-27T11:12:28Z</time>
      </trkpt>
      <trkpt lat="45.62073" lon="6.82456">
        <ele>1175.4</ele>
        <time>2021-05-27T11:12:29Z</time>
      </trkpt>
      <trkpt lat="45.62071" lon="6.82463">
        <ele>1175</ele>
        <time>2021-05-27T11:12:30Z</time>
      </trkpt>
      <trkpt lat="45.62068" lon="6.82469">
        <ele>1174.6</ele>
        <time>2021-05-27T11:12:31Z</time>
      </trkpt>
      <trkpt lat="45.62066" lon="6.82476">
        <ele>1174.2</ele>
        <time>2021-05-27T11:12:32Z</time>
      </trkpt>
      <trkpt lat="45.62063" lon="6.82482">
        <ele>1173.8</ele>
        <time>2021-05-27T11:12:33Z</time>
      </trkpt>
      <trkpt lat="45.6206" lon="6.82488">
        <ele>1173.6</ele>
        <time>2021-05-27T11:12:34Z</time>
      </trkpt>
      <trkpt lat="45.62058" lon="6.82494">
        <ele>1173.4</ele>
        <time>2021-05-27T11:12:35Z</time>
      </trkpt>
      <trkpt lat="45.62055" lon="6.825">
        <ele>1173.2</ele>
        <time>2021-05-27T11:12:36Z</time>
      </trkpt>
      <trkpt lat="45.62052" lon="6.82506">
        <ele>1172.8</ele>
        <time>2021-05-27T11:12:37Z</time>
      </trkpt>
      <trkpt lat="45.62048" lon="6.82512">
        <ele>1172.6</ele>
        <time>2021-05-27T11:12:38Z</time>
      </trkpt>
      <trkpt lat="45.62046" lon="6.82517">
        <ele>1172</ele>
        <time>2021-05-27T11:12:39Z</time>
      </trkpt>
      <trkpt lat="45.62043" lon="6.82522">
        <ele>1171.8</ele>
        <time>2021-05-27T11:12:40Z</time>
      </trkpt>
      <trkpt lat="45.62039" lon="6.82527">
        <ele>1171.6</ele>
        <time>2021-05-27T11:12:41Z</time>
      </trkpt>
      <trkpt lat="45.62036" lon="6.82532">
        <ele>1171.2</ele>
        <time>2021-05-27T11:12:42Z</time>
      </trkpt>
      <trkpt lat="45.62034" lon="6.82538">
        <ele>1171</ele>
        <time>2021-05-27T11:12:43Z</time>
      </trkpt>
      <trkpt lat="45.62032" lon="6.82545">
        <ele>1170.8</ele>
        <time>2021-05-27T11:12:44Z</time>
      </trkpt>
      <trkpt lat="45.62033" lon="6.82551">
        <ele>1171</ele>
        <time>2021-05-27T11:12:45Z</time>
      </trkpt>
      <trkpt lat="45.62036" lon="6.82555">
        <ele>1171.4</ele>
        <time>2021-05-27T11:12:46Z</time>
      </trkpt>
      <trkpt lat="45.6204" lon="6.82557">
        <ele>1172.2</ele>
        <time>2021-05-27T11:12:47Z</time>
      </trkpt>
      <trkpt lat="45.62045" lon="6.82556">
        <ele>1173.2</ele>
        <time>2021-05-27T11:12:48Z</time>
      </trkpt>
      <trkpt lat="45.6205" lon="6.82552">
        <ele>1174.2</ele>
        <time>2021-05-27T11:12:49Z</time>
      </trkpt>
      <trkpt lat="45.62053" lon="6.82547">
        <ele>1175.6</ele>
        <time>2021-05-27T11:12:50Z</time>
      </trkpt>
      <trkpt lat="45.62057" lon="6.82539">
        <ele>1176.8</ele>
        <time>2021-05-27T11:12:51Z</time>
      </trkpt>
      <trkpt lat="45.6206" lon="6.82533">
        <ele>1177.8</ele>
        <time>2021-05-27T11:12:52Z</time>
      </trkpt>
      <trkpt lat="45.62063" lon="6.82526">
        <ele>1179</ele>
        <time>2021-05-27T11:12:53Z</time>
      </trkpt>
      <trkpt lat="45.62066" lon="6.8252">
        <ele>1179.8</ele>
        <time>2021-05-27T11:12:54Z</time>
      </trkpt>
      <trkpt lat="45.62069" lon="6.82514">
        <ele>1180.2</ele>
        <time>2021-05-27T11:12:55Z</time>
      </trkpt>
      <trkpt lat="45.62072" lon="6.82508">
        <ele>1180.8</ele>
        <time>2021-05-27T11:12:56Z</time>
      </trkpt>
      <trkpt lat="45.62075" lon="6.82501">
        <ele>1181</ele>
        <time>2021-05-27T11:12:57Z</time>
      </trkpt>
      <trkpt lat="45.62077" lon="6.82495">
        <ele>1181.2</ele>
        <time>2021-05-27T11:12:58Z</time>
      </trkpt>
      <trkpt lat="45.6208" lon="6.82488">
        <ele>1181.8</ele>
        <time>2021-05-27T11:12:59Z</time>
      </trkpt>
      <trkpt lat="45.62083" lon="6.82482">
        <ele>1182</ele>
        <time>2021-05-27T11:13:00Z</time>
      </trkpt>
      <trkpt lat="45.62085" lon="6.82475">
        <ele>1182.4</ele>
        <time>2021-05-27T11:13:01Z</time>
      </trkpt>
      <trkpt lat="45.62088" lon="6.82469">
        <ele>1182.8</ele>
        <time>2021-05-27T11:13:02Z</time>
      </trkpt>
      <trkpt lat="45.6209" lon="6.82462">
        <ele>1182.8</ele>
        <time>2021-05-27T11:13:03Z</time>
      </trkpt>
      <trkpt lat="45.62092" lon="6.82455">
        <ele>1182.8</ele>
        <time>2021-05-27T11:13:04Z</time>
      </trkpt>
      <trkpt lat="45.62094" lon="6.82449">
        <ele>1182.6</ele>
        <time>2021-05-27T11:13:05Z</time>
      </trkpt>
      <trkpt lat="45.62097" lon="6.82442">
        <ele>1182.6</ele>
        <time>2021-05-27T11:13:06Z</time>
      </trkpt>
      <trkpt lat="45.62099" lon="6.82435">
        <ele>1182.4</ele>
        <time>2021-05-27T11:13:07Z</time>
      </trkpt>
      <trkpt lat="45.62101" lon="6.82428">
        <ele>1182.8</ele>
        <time>2021-05-27T11:13:08Z</time>
      </trkpt>
      <trkpt lat="45.62104" lon="6.82422">
        <ele>1183</ele>
        <time>2021-05-27T11:13:09Z</time>
      </trkpt>
      <trkpt lat="45.62107" lon="6.82416">
        <ele>1183.4</ele>
        <time>2021-05-27T11:13:10Z</time>
      </trkpt>
      <trkpt lat="45.6211" lon="6.82411">
        <ele>1183.8</ele>
        <time>2021-05-27T11:13:11Z</time>
      </trkpt>
      <trkpt lat="45.62114" lon="6.82405">
        <ele>1184.2</ele>
        <time>2021-05-27T11:13:12Z</time>
      </trkpt>
      <trkpt lat="45.62118" lon="6.82401">
        <ele>1184.6</ele>
        <time>2021-05-27T11:13:13Z</time>
      </trkpt>
      <trkpt lat="45.62122" lon="6.82396">
        <ele>1184.6</ele>
        <time>2021-05-27T11:13:14Z</time>
      </trkpt>
      <trkpt lat="45.62126" lon="6.82391">
        <ele>1184.8</ele>
        <time>2021-05-27T11:13:15Z</time>
      </trkpt>
      <trkpt lat="45.6213" lon="6.82386">
        <ele>1184.8</ele>
        <time>2021-05-27T11:13:16Z</time>
      </trkpt>
      <trkpt lat="45.62134" lon="6.82382">
        <ele>1184.8</ele>
        <time>2021-05-27T11:13:17Z</time>
      </trkpt>
      <trkpt lat="45.62138" lon="6.82377">
        <ele>1184.8</ele>
        <time>2021-05-27T11:13:18Z</time>
      </trkpt>
      <trkpt lat="45.62141" lon="6.82372">
        <ele>1184.8</ele>
        <time>2021-05-27T11:13:19Z</time>
      </trkpt>
      <trkpt lat="45.62145" lon="6.82367">
        <ele>1185</ele>
        <time>2021-05-27T11:13:20Z</time>
      </trkpt>
      <trkpt lat="45.62149" lon="6.82362">
        <ele>1185</ele>
        <time>2021-05-27T11:13:21Z</time>
      </trkpt>
      <trkpt lat="45.62153" lon="6.82358">
        <ele>1185.4</ele>
        <time>2021-05-27T11:13:22Z</time>
      </trkpt>
      <trkpt lat="45.62157" lon="6.82353">
        <ele>1185.8</ele>
        <time>2021-05-27T11:13:23Z</time>
      </trkpt>
      <trkpt lat="45.6216" lon="6.82349">
        <ele>1185.6</ele>
        <time>2021-05-27T11:13:24Z</time>
      </trkpt>
      <trkpt lat="45.62164" lon="6.82344">
        <ele>1185.2</ele>
        <time>2021-05-27T11:13:25Z</time>
      </trkpt>
      <trkpt lat="45.62168" lon="6.82339">
        <ele>1184.6</ele>
        <time>2021-05-27T11:13:26Z</time>
      </trkpt>
      <trkpt lat="45.62172" lon="6.82334">
        <ele>1184</ele>
        <time>2021-05-27T11:13:27Z</time>
      </trkpt>
      <trkpt lat="45.62175" lon="6.8233">
        <ele>1183.6</ele>
        <time>2021-05-27T11:13:28Z</time>
      </trkpt>
      <trkpt lat="45.62179" lon="6.82324">
        <ele>1183.2</ele>
        <time>2021-05-27T11:13:29Z</time>
      </trkpt>
      <trkpt lat="45.62182" lon="6.8232">
        <ele>1182.8</ele>
        <time>2021-05-27T11:13:30Z</time>
      </trkpt>
      <trkpt lat="45.62187" lon="6.82315">
        <ele>1182.8</ele>
        <time>2021-05-27T11:13:31Z</time>
      </trkpt>
      <trkpt lat="45.6219" lon="6.82311">
        <ele>1182.8</ele>
        <time>2021-05-27T11:13:32Z</time>
      </trkpt>
      <trkpt lat="45.62194" lon="6.82306">
        <ele>1182.4</ele>
        <time>2021-05-27T11:13:33Z</time>
      </trkpt>
      <trkpt lat="45.62198" lon="6.82302">
        <ele>1182.2</ele>
        <time>2021-05-27T11:13:34Z</time>
      </trkpt>
      <trkpt lat="45.62202" lon="6.82298">
        <ele>1182.2</ele>
        <time>2021-05-27T11:13:35Z</time>
      </trkpt>
      <trkpt lat="45.62206" lon="6.82294">
        <ele>1182</ele>
        <time>2021-05-27T11:13:36Z</time>
      </trkpt>
      <trkpt lat="45.62211" lon="6.8229">
        <ele>1181.8</ele>
        <time>2021-05-27T11:13:37Z</time>
      </trkpt>
      <trkpt lat="45.62215" lon="6.82285">
        <ele>1182</ele>
        <time>2021-05-27T11:13:38Z</time>
      </trkpt>
      <trkpt lat="45.6222" lon="6.8228">
        <ele>1182.4</ele>
        <time>2021-05-27T11:13:39Z</time>
      </trkpt>
      <trkpt lat="45.62225" lon="6.82276">
        <ele>1183</ele>
        <time>2021-05-27T11:13:40Z</time>
      </trkpt>
      <trkpt lat="45.6223" lon="6.82272">
        <ele>1183.8</ele>
        <time>2021-05-27T11:13:41Z</time>
      </trkpt>
      <trkpt lat="45.62235" lon="6.8227">
        <ele>1184.8</ele>
        <time>2021-05-27T11:13:42Z</time>
      </trkpt>
      <trkpt lat="45.62239" lon="6.82267">
        <ele>1185.8</ele>
        <time>2021-05-27T11:13:43Z</time>
      </trkpt>
      <trkpt lat="45.62244" lon="6.82263">
        <ele>1187</ele>
        <time>2021-05-27T11:13:44Z</time>
      </trkpt>
      <trkpt lat="45.62248" lon="6.82258">
        <ele>1188</ele>
        <time>2021-05-27T11:13:45Z</time>
      </trkpt>
      <trkpt lat="45.62253" lon="6.82256">
        <ele>1189.2</ele>
        <time>2021-05-27T11:13:46Z</time>
      </trkpt>
      <trkpt lat="45.62258" lon="6.82252">
        <ele>1190</ele>
        <time>2021-05-27T11:13:47Z</time>
      </trkpt>
      <trkpt lat="45.62263" lon="6.82248">
        <ele>1190.8</ele>
        <time>2021-05-27T11:13:48Z</time>
      </trkpt>
      <trkpt lat="45.62268" lon="6.82246">
        <ele>1191.8</ele>
        <time>2021-05-27T11:13:49Z</time>
      </trkpt>
      <trkpt lat="45.62272" lon="6.82242">
        <ele>1192.6</ele>
        <time>2021-05-27T11:13:50Z</time>
      </trkpt>
      <trkpt lat="45.62276" lon="6.82239">
        <ele>1193.6</ele>
        <time>2021-05-27T11:13:51Z</time>
      </trkpt>
      <trkpt lat="45.6228" lon="6.82236">
        <ele>1194.4</ele>
        <time>2021-05-27T11:13:52Z</time>
      </trkpt>
      <trkpt lat="45.62285" lon="6.82233">
        <ele>1195</ele>
        <time>2021-05-27T11:13:53Z</time>
      </trkpt>
      <trkpt lat="45.6229" lon="6.8223">
        <ele>1195.8</ele>
        <time>2021-05-27T11:13:54Z</time>
      </trkpt>
      <trkpt lat="45.62294" lon="6.82227">
        <ele>1196.6</ele>
        <time>2021-05-27T11:13:55Z</time>
      </trkpt>
      <trkpt lat="45.62299" lon="6.82224">
        <ele>1197.2</ele>
        <time>2021-05-27T11:13:56Z</time>
      </trkpt>
      <trkpt lat="45.62303" lon="6.82219">
        <ele>1198</ele>
        <time>2021-05-27T11:13:57Z</time>
      </trkpt>
      <trkpt lat="45.62308" lon="6.82214">
        <ele>1198.8</ele>
        <time>2021-05-27T11:13:58Z</time>
      </trkpt>
      <trkpt lat="45.62311" lon="6.82208">
        <ele>1199.4</ele>
        <time>2021-05-27T11:13:59Z</time>
      </trkpt>
      <trkpt lat="45.62315" lon="6.82203">
        <ele>1200.4</ele>
        <time>2021-05-27T11:14:00Z</time>
      </trkpt>
      <trkpt lat="45.62318" lon="6.82198">
        <ele>1201</ele>
        <time>2021-05-27T11:14:01Z</time>
      </trkpt>
      <trkpt lat="45.62322" lon="6.82194">
        <ele>1201.8</ele>
        <time>2021-05-27T11:14:02Z</time>
      </trkpt>
      <trkpt lat="45.62324" lon="6.82188">
        <ele>1202.6</ele>
        <time>2021-05-27T11:14:03Z</time>
      </trkpt>
      <trkpt lat="45.62328" lon="6.82183">
        <ele>1203</ele>
        <time>2021-05-27T11:14:04Z</time>
      </trkpt>
      <trkpt lat="45.62332" lon="6.82179">
        <ele>1203.6</ele>
        <time>2021-05-27T11:14:05Z</time>
      </trkpt>
      <trkpt lat="45.62336" lon="6.82175">
        <ele>1204.2</ele>
        <time>2021-05-27T11:14:06Z</time>
      </trkpt>
      <trkpt lat="45.6234" lon="6.82171">
        <ele>1204.6</ele>
        <time>2021-05-27T11:14:07Z</time>
      </trkpt>
      <trkpt lat="45.62345" lon="6.82167">
        <ele>1205</ele>
        <time>2021-05-27T11:14:08Z</time>
      </trkpt>
      <trkpt lat="45.6235" lon="6.82164">
        <ele>1205.6</ele>
        <time>2021-05-27T11:14:09Z</time>
      </trkpt>
      <trkpt lat="45.62354" lon="6.82161">
        <ele>1206</ele>
        <time>2021-05-27T11:14:10Z</time>
      </trkpt>
      <trkpt lat="45.62359" lon="6.82159">
        <ele>1206.4</ele>
        <time>2021-05-27T11:14:11Z</time>
      </trkpt>
      <trkpt lat="45.62364" lon="6.82156">
        <ele>1207</ele>
        <time>2021-05-27T11:14:12Z</time>
      </trkpt>
      <trkpt lat="45.62368" lon="6.82152">
        <ele>1207.4</ele>
        <time>2021-05-27T11:14:13Z</time>
      </trkpt>
      <trkpt lat="45.62373" lon="6.82149">
        <ele>1207.8</ele>
        <time>2021-05-27T11:14:14Z</time>
      </trkpt>
      <trkpt lat="45.62377" lon="6.82147">
        <ele>1208</ele>
        <time>2021-05-27T11:14:15Z</time>
      </trkpt>
      <trkpt lat="45.62382" lon="6.82145">
        <ele>1209</ele>
        <time>2021-05-27T11:14:16Z</time>
      </trkpt>
      <trkpt lat="45.62386" lon="6.82141">
        <ele>1209.2</ele>
        <time>2021-05-27T11:14:17Z</time>
      </trkpt>
      <trkpt lat="45.62391" lon="6.82138">
        <ele>1209.6</ele>
        <time>2021-05-27T11:14:18Z</time>
      </trkpt>
      <trkpt lat="45.62396" lon="6.82135">
        <ele>1210.4</ele>
        <time>2021-05-27T11:14:19Z</time>
      </trkpt>
      <trkpt lat="45.624" lon="6.82132">
        <ele>1210.6</ele>
        <time>2021-05-27T11:14:20Z</time>
      </trkpt>
      <trkpt lat="45.62404" lon="6.82129">
        <ele>1211</ele>
        <time>2021-05-27T11:14:21Z</time>
      </trkpt>
      <trkpt lat="45.62409" lon="6.82126">
        <ele>1211.4</ele>
        <time>2021-05-27T11:14:22Z</time>
      </trkpt>
      <trkpt lat="45.62413" lon="6.82124">
        <ele>1211.8</ele>
        <time>2021-05-27T11:14:23Z</time>
      </trkpt>
      <trkpt lat="45.62418" lon="6.82122">
        <ele>1212.2</ele>
        <time>2021-05-27T11:14:24Z</time>
      </trkpt>
      <trkpt lat="45.62423" lon="6.8212">
        <ele>1212.4</ele>
        <time>2021-05-27T11:14:25Z</time>
      </trkpt>
      <trkpt lat="45.62428" lon="6.82118">
        <ele>1212.8</ele>
        <time>2021-05-27T11:14:26Z</time>
      </trkpt>
      <trkpt lat="45.62431" lon="6.82115">
        <ele>1213.2</ele>
        <time>2021-05-27T11:14:27Z</time>
      </trkpt>
      <trkpt lat="45.62436" lon="6.82113">
        <ele>1213.8</ele>
        <time>2021-05-27T11:14:28Z</time>
      </trkpt>
      <trkpt lat="45.6244" lon="6.8211">
        <ele>1214</ele>
        <time>2021-05-27T11:14:29Z</time>
      </trkpt>
      <trkpt lat="45.62444" lon="6.82108">
        <ele>1214.8</ele>
        <time>2021-05-27T11:14:30Z</time>
      </trkpt>
      <trkpt lat="45.62448" lon="6.82106">
        <ele>1215.6</ele>
        <time>2021-05-27T11:14:31Z</time>
      </trkpt>
      <trkpt lat="45.62452" lon="6.82105">
        <ele>1216</ele>
        <time>2021-05-27T11:14:32Z</time>
      </trkpt>
      <trkpt lat="45.62457" lon="6.82104">
        <ele>1216.2</ele>
        <time>2021-05-27T11:14:33Z</time>
      </trkpt>
      <trkpt lat="45.62462" lon="6.82103">
        <ele>1216.8</ele>
        <time>2021-05-27T11:14:34Z</time>
      </trkpt>
      <trkpt lat="45.62466" lon="6.82103">
        <ele>1217.2</ele>
        <time>2021-05-27T11:14:35Z</time>
      </trkpt>
      <trkpt lat="45.62471" lon="6.82103">
        <ele>1217.6</ele>
        <time>2021-05-27T11:14:36Z</time>
      </trkpt>
      <trkpt lat="45.62476" lon="6.82102">
        <ele>1218</ele>
        <time>2021-05-27T11:14:37Z</time>
      </trkpt>
      <trkpt lat="45.6248" lon="6.82102">
        <ele>1218.4</ele>
        <time>2021-05-27T11:14:38Z</time>
      </trkpt>
      <trkpt lat="45.62485" lon="6.82102">
        <ele>1219</ele>
        <time>2021-05-27T11:14:39Z</time>
      </trkpt>
      <trkpt lat="45.62489" lon="6.82101">
        <ele>1219.4</ele>
        <time>2021-05-27T11:14:40Z</time>
      </trkpt>
      <trkpt lat="45.62493" lon="6.82101">
        <ele>1219.6</ele>
        <time>2021-05-27T11:14:41Z</time>
      </trkpt>
      <trkpt lat="45.62499" lon="6.82102">
        <ele>1220</ele>
        <time>2021-05-27T11:14:42Z</time>
      </trkpt>
      <trkpt lat="45.62503" lon="6.82103">
        <ele>1220.4</ele>
        <time>2021-05-27T11:14:43Z</time>
      </trkpt>
      <trkpt lat="45.62508" lon="6.82104">
        <ele>1220.6</ele>
        <time>2021-05-27T11:14:44Z</time>
      </trkpt>
      <trkpt lat="45.62513" lon="6.82103">
        <ele>1221</ele>
        <time>2021-05-27T11:14:45Z</time>
      </trkpt>
      <trkpt lat="45.62518" lon="6.82102">
        <ele>1221.6</ele>
        <time>2021-05-27T11:14:46Z</time>
      </trkpt>
      <trkpt lat="45.62523" lon="6.82102">
        <ele>1222</ele>
        <time>2021-05-27T11:14:47Z</time>
      </trkpt>
      <trkpt lat="45.62527" lon="6.82101">
        <ele>1222.2</ele>
        <time>2021-05-27T11:14:48Z</time>
      </trkpt>
      <trkpt lat="45.62532" lon="6.821">
        <ele>1222.6</ele>
        <time>2021-05-27T11:14:49Z</time>
      </trkpt>
      <trkpt lat="45.62537" lon="6.82099">
        <ele>1222.8</ele>
        <time>2021-05-27T11:14:50Z</time>
      </trkpt>
      <trkpt lat="45.62542" lon="6.82098">
        <ele>1223.2</ele>
        <time>2021-05-27T11:14:51Z</time>
      </trkpt>
      <trkpt lat="45.62547" lon="6.82098">
        <ele>1223.6</ele>
        <time>2021-05-27T11:14:52Z</time>
      </trkpt>
      <trkpt lat="45.62553" lon="6.82097">
        <ele>1224</ele>
        <time>2021-05-27T11:14:53Z</time>
      </trkpt>
      <trkpt lat="45.62558" lon="6.82097">
        <ele>1224.2</ele>
        <time>2021-05-27T11:14:54Z</time>
      </trkpt>
      <trkpt lat="45.62563" lon="6.82096">
        <ele>1224.6</ele>
        <time>2021-05-27T11:14:55Z</time>
      </trkpt>
      <trkpt lat="45.62568" lon="6.82097">
        <ele>1225</ele>
        <time>2021-05-27T11:14:56Z</time>
      </trkpt>
      <trkpt lat="45.62572" lon="6.82097">
        <ele>1225.4</ele>
        <time>2021-05-27T11:14:57Z</time>
      </trkpt>
      <trkpt lat="45.62578" lon="6.82096">
        <ele>1225.8</ele>
        <time>2021-05-27T11:14:58Z</time>
      </trkpt>
      <trkpt lat="45.62582" lon="6.82094">
        <ele>1226.2</ele>
        <time>2021-05-27T11:14:59Z</time>
      </trkpt>
      <trkpt lat="45.62588" lon="6.82093">
        <ele>1226.4</ele>
        <time>2021-05-27T11:15:00Z</time>
      </trkpt>
      <trkpt lat="45.62594" lon="6.82092">
        <ele>1226.6</ele>
        <time>2021-05-27T11:15:01Z</time>
      </trkpt>
      <trkpt lat="45.62599" lon="6.82092">
        <ele>1226.8</ele>
        <time>2021-05-27T11:15:02Z</time>
      </trkpt>
      <trkpt lat="45.62604" lon="6.82092">
        <ele>1227.2</ele>
        <time>2021-05-27T11:15:03Z</time>
      </trkpt>
      <trkpt lat="45.62609" lon="6.82091">
        <ele>1227.6</ele>
        <time>2021-05-27T11:15:04Z</time>
      </trkpt>
      <trkpt lat="45.62614" lon="6.82091">
        <ele>1227.8</ele>
        <time>2021-05-27T11:15:05Z</time>
      </trkpt>
      <trkpt lat="45.62619" lon="6.82091">
        <ele>1228.2</ele>
        <time>2021-05-27T11:15:06Z</time>
      </trkpt>
      <trkpt lat="45.62624" lon="6.82089">
        <ele>1228.4</ele>
        <time>2021-05-27T11:15:07Z</time>
      </trkpt>
      <trkpt lat="45.6263" lon="6.82087">
        <ele>1228.8</ele>
        <time>2021-05-27T11:15:08Z</time>
      </trkpt>
      <trkpt lat="45.62635" lon="6.82084">
        <ele>1229.2</ele>
        <time>2021-05-27T11:15:09Z</time>
      </trkpt>
      <trkpt lat="45.6264" lon="6.82082">
        <ele>1229.6</ele>
        <time>2021-05-27T11:15:10Z</time>
      </trkpt>
      <trkpt lat="45.62644" lon="6.82079">
        <ele>1229.6</ele>
        <time>2021-05-27T11:15:11Z</time>
      </trkpt>
      <trkpt lat="45.62649" lon="6.82076">
        <ele>1230.2</ele>
        <time>2021-05-27T11:15:12Z</time>
      </trkpt>
      <trkpt lat="45.62654" lon="6.82072">
        <ele>1230.4</ele>
        <time>2021-05-27T11:15:13Z</time>
      </trkpt>
      <trkpt lat="45.62659" lon="6.82068">
        <ele>1230</ele>
        <time>2021-05-27T11:15:14Z</time>
      </trkpt>
      <trkpt lat="45.62663" lon="6.82064">
        <ele>1230.2</ele>
        <time>2021-05-27T11:15:15Z</time>
      </trkpt>
      <trkpt lat="45.62668" lon="6.8206">
        <ele>1230.4</ele>
        <time>2021-05-27T11:15:16Z</time>
      </trkpt>
      <trkpt lat="45.62672" lon="6.82055">
        <ele>1230.6</ele>
        <time>2021-05-27T11:15:17Z</time>
      </trkpt>
      <trkpt lat="45.62676" lon="6.82049">
        <ele>1231.2</ele>
        <time>2021-05-27T11:15:18Z</time>
      </trkpt>
      <trkpt lat="45.6268" lon="6.82043">
        <ele>1231.2</ele>
        <time>2021-05-27T11:15:19Z</time>
      </trkpt>
      <trkpt lat="45.62684" lon="6.82039">
        <ele>1231.4</ele>
        <time>2021-05-27T11:15:20Z</time>
      </trkpt>
      <trkpt lat="45.62688" lon="6.82035">
        <ele>1231.6</ele>
        <time>2021-05-27T11:15:21Z</time>
      </trkpt>
      <trkpt lat="45.62693" lon="6.82031">
        <ele>1231.6</ele>
        <time>2021-05-27T11:15:22Z</time>
      </trkpt>
      <trkpt lat="45.62698" lon="6.82028">
        <ele>1232</ele>
        <time>2021-05-27T11:15:23Z</time>
      </trkpt>
      <trkpt lat="45.62703" lon="6.82025">
        <ele>1232.6</ele>
        <time>2021-05-27T11:15:24Z</time>
      </trkpt>
      <trkpt lat="45.62708" lon="6.82023">
        <ele>1233</ele>
        <time>2021-05-27T11:15:25Z</time>
      </trkpt>
      <trkpt lat="45.62713" lon="6.82022">
        <ele>1233.4</ele>
        <time>2021-05-27T11:15:26Z</time>
      </trkpt>
      <trkpt lat="45.62718" lon="6.82022">
        <ele>1233.8</ele>
        <time>2021-05-27T11:15:27Z</time>
      </trkpt>
      <trkpt lat="45.62724" lon="6.82023">
        <ele>1234</ele>
        <time>2021-05-27T11:15:28Z</time>
      </trkpt>
      <trkpt lat="45.62729" lon="6.82024">
        <ele>1234.8</ele>
        <time>2021-05-27T11:15:29Z</time>
      </trkpt>
      <trkpt lat="45.62733" lon="6.82026">
        <ele>1235.2</ele>
        <time>2021-05-27T11:15:30Z</time>
      </trkpt>
      <trkpt lat="45.62739" lon="6.82028">
        <ele>1235.6</ele>
        <time>2021-05-27T11:15:31Z</time>
      </trkpt>
      <trkpt lat="45.62744" lon="6.82029">
        <ele>1235.8</ele>
        <time>2021-05-27T11:15:32Z</time>
      </trkpt>
      <trkpt lat="45.62749" lon="6.8203">
        <ele>1236.2</ele>
        <time>2021-05-27T11:15:33Z</time>
      </trkpt>
      <trkpt lat="45.62755" lon="6.8203">
        <ele>1236.4</ele>
        <time>2021-05-27T11:15:34Z</time>
      </trkpt>
      <trkpt lat="45.62759" lon="6.8203">
        <ele>1236.8</ele>
        <time>2021-05-27T11:15:35Z</time>
      </trkpt>
      <trkpt lat="45.62764" lon="6.8203">
        <ele>1237.2</ele>
        <time>2021-05-27T11:15:36Z</time>
      </trkpt>
      <trkpt lat="45.62769" lon="6.82029">
        <ele>1237.6</ele>
        <time>2021-05-27T11:15:37Z</time>
      </trkpt>
      <trkpt lat="45.62773" lon="6.82029">
        <ele>1238</ele>
        <time>2021-05-27T11:15:38Z</time>
      </trkpt>
      <trkpt lat="45.62779" lon="6.82028">
        <ele>1238.4</ele>
        <time>2021-05-27T11:15:39Z</time>
      </trkpt>
      <trkpt lat="45.62783" lon="6.82028">
        <ele>1238.6</ele>
        <time>2021-05-27T11:15:40Z</time>
      </trkpt>
      <trkpt lat="45.62788" lon="6.82028">
        <ele>1238.6</ele>
        <time>2021-05-27T11:15:41Z</time>
      </trkpt>
      <trkpt lat="45.62793" lon="6.82027">
        <ele>1238.8</ele>
        <time>2021-05-27T11:15:42Z</time>
      </trkpt>
      <trkpt lat="45.62798" lon="6.82025">
        <ele>1239</ele>
        <time>2021-05-27T11:15:43Z</time>
      </trkpt>
      <trkpt lat="45.62804" lon="6.82023">
        <ele>1239.6</ele>
        <time>2021-05-27T11:15:44Z</time>
      </trkpt>
      <trkpt lat="45.62809" lon="6.82022">
        <ele>1239.8</ele>
        <time>2021-05-27T11:15:45Z</time>
      </trkpt>
      <trkpt lat="45.62813" lon="6.82019">
        <ele>1239.8</ele>
        <time>2021-05-27T11:15:46Z</time>
      </trkpt>
      <trkpt lat="45.62819" lon="6.82017">
        <ele>1240</ele>
        <time>2021-05-27T11:15:47Z</time>
      </trkpt>
      <trkpt lat="45.62824" lon="6.82014">
        <ele>1240.4</ele>
        <time>2021-05-27T11:15:48Z</time>
      </trkpt>
      <trkpt lat="45.62829" lon="6.82012">
        <ele>1240.8</ele>
        <time>2021-05-27T11:15:49Z</time>
      </trkpt>
      <trkpt lat="45.62835" lon="6.8201">
        <ele>1241</ele>
        <time>2021-05-27T11:15:50Z</time>
      </trkpt>
      <trkpt lat="45.62843" lon="6.82008">
        <ele>1241.6</ele>
        <time>2021-05-27T11:15:51Z</time>
      </trkpt>
      <trkpt lat="45.62848" lon="6.82006">
        <ele>1242</ele>
        <time>2021-05-27T11:15:52Z</time>
      </trkpt>
      <trkpt lat="45.62852" lon="6.82003">
        <ele>1242.4</ele>
        <time>2021-05-27T11:15:53Z</time>
      </trkpt>
      <trkpt lat="45.62857" lon="6.82">
        <ele>1242.6</ele>
        <time>2021-05-27T11:15:54Z</time>
      </trkpt>
      <trkpt lat="45.62862" lon="6.81998">
        <ele>1243</ele>
        <time>2021-05-27T11:15:55Z</time>
      </trkpt>
      <trkpt lat="45.62868" lon="6.81997">
        <ele>1243</ele>
        <time>2021-05-27T11:15:56Z</time>
      </trkpt>
      <trkpt lat="45.62873" lon="6.82">
        <ele>1243.4</ele>
        <time>2021-05-27T11:15:57Z</time>
      </trkpt>
      <trkpt lat="45.62875" lon="6.82004">
        <ele>1243.8</ele>
        <time>2021-05-27T11:15:58Z</time>
      </trkpt>
      <trkpt lat="45.62874" lon="6.8201">
        <ele>1244</ele>
        <time>2021-05-27T11:15:59Z</time>
      </trkpt>
      <trkpt lat="45.62872" lon="6.82016">
        <ele>1244.6</ele>
        <time>2021-05-27T11:16:00Z</time>
      </trkpt>
      <trkpt lat="45.62868" lon="6.82019">
        <ele>1245.2</ele>
        <time>2021-05-27T11:16:01Z</time>
      </trkpt>
      <trkpt lat="45.62864" lon="6.82022">
        <ele>1245.8</ele>
        <time>2021-05-27T11:16:02Z</time>
      </trkpt>
      <trkpt lat="45.62859" lon="6.82025">
        <ele>1246.2</ele>
        <time>2021-05-27T11:16:03Z</time>
      </trkpt>
      <trkpt lat="45.62854" lon="6.82028">
        <ele>1246.6</ele>
        <time>2021-05-27T11:16:04Z</time>
      </trkpt>
      <trkpt lat="45.62849" lon="6.8203">
        <ele>1246.8</ele>
        <time>2021-05-27T11:16:05Z</time>
      </trkpt>
      <trkpt lat="45.62844" lon="6.82032">
        <ele>1246.8</ele>
        <time>2021-05-27T11:16:06Z</time>
      </trkpt>
      <trkpt lat="45.62839" lon="6.82034">
        <ele>1247</ele>
        <time>2021-05-27T11:16:07Z</time>
      </trkpt>
      <trkpt lat="45.62835" lon="6.82036">
        <ele>1247.2</ele>
        <time>2021-05-27T11:16:08Z</time>
      </trkpt>
      <trkpt lat="45.6283" lon="6.82037">
        <ele>1247.6</ele>
        <time>2021-05-27T11:16:09Z</time>
      </trkpt>
      <trkpt lat="45.62825" lon="6.82039">
        <ele>1247.8</ele>
        <time>2021-05-27T11:16:10Z</time>
      </trkpt>
      <trkpt lat="45.62821" lon="6.8204">
        <ele>1248.2</ele>
        <time>2021-05-27T11:16:11Z</time>
      </trkpt>
      <trkpt lat="45.62816" lon="6.82042">
        <ele>1248.8</ele>
        <time>2021-05-27T11:16:12Z</time>
      </trkpt>
      <trkpt lat="45.62812" lon="6.82044">
        <ele>1249</ele>
        <time>2021-05-27T11:16:13Z</time>
      </trkpt>
      <trkpt lat="45.62809" lon="6.82045">
        <ele>1248.4</ele>
        <time>2021-05-27T11:16:14Z</time>
      </trkpt>
      <trkpt lat="45.62807" lon="6.82046">
        <ele>1248</ele>
        <time>2021-05-27T11:16:15Z</time>
      </trkpt>
      <trkpt lat="45.62803" lon="6.82048">
        <ele>1247.6</ele>
        <time>2021-05-27T11:16:16Z</time>
      </trkpt>
      <trkpt lat="45.62799" lon="6.82048">
        <ele>1247</ele>
        <time>2021-05-27T11:16:17Z</time>
      </trkpt>
      <trkpt lat="45.62796" lon="6.82049">
        <ele>1246.4</ele>
        <time>2021-05-27T11:16:18Z</time>
      </trkpt>
      <trkpt lat="45.62793" lon="6.8205">
        <ele>1245.8</ele>
        <time>2021-05-27T11:16:19Z</time>
      </trkpt>
      <trkpt lat="45.62789" lon="6.82051">
        <ele>1245.6</ele>
        <time>2021-05-27T11:16:20Z</time>
      </trkpt>
      <trkpt lat="45.62786" lon="6.82052">
        <ele>1245.2</ele>
        <time>2021-05-27T11:16:21Z</time>
      </trkpt>
      <trkpt lat="45.62783" lon="6.82054">
        <ele>1244.6</ele>
        <time>2021-05-27T11:16:22Z</time>
      </trkpt>
      <trkpt lat="45.62781" lon="6.82056">
        <ele>1244.2</ele>
        <time>2021-05-27T11:16:23Z</time>
      </trkpt>
      <trkpt lat="45.62778" lon="6.82059">
        <ele>1243.8</ele>
        <time>2021-05-27T11:16:24Z</time>
      </trkpt>
      <trkpt lat="45.62775" lon="6.82061">
        <ele>1243.4</ele>
        <time>2021-05-27T11:16:25Z</time>
      </trkpt>
      <trkpt lat="45.62771" lon="6.82064">
        <ele>1243.2</ele>
        <time>2021-05-27T11:16:26Z</time>
      </trkpt>
      <trkpt lat="45.62766" lon="6.82067">
        <ele>1242.8</ele>
        <time>2021-05-27T11:16:27Z</time>
      </trkpt>
      <trkpt lat="45.62761" lon="6.8207">
        <ele>1242.8</ele>
        <time>2021-05-27T11:16:28Z</time>
      </trkpt>
      <trkpt lat="45.62757" lon="6.82072">
        <ele>1243</ele>
        <time>2021-05-27T11:16:29Z</time>
      </trkpt>
      <trkpt lat="45.62754" lon="6.82074">
        <ele>1243.4</ele>
        <time>2021-05-27T11:16:30Z</time>
      </trkpt>
      <trkpt lat="45.6275" lon="6.82077">
        <ele>1243.8</ele>
        <time>2021-05-27T11:16:31Z</time>
      </trkpt>
      <trkpt lat="45.62746" lon="6.82079">
        <ele>1244</ele>
        <time>2021-05-27T11:16:32Z</time>
      </trkpt>
      <trkpt lat="45.62742" lon="6.82082">
        <ele>1244.4</ele>
        <time>2021-05-27T11:16:33Z</time>
      </trkpt>
      <trkpt lat="45.62739" lon="6.82084">
        <ele>1244.6</ele>
        <time>2021-05-27T11:16:34Z</time>
      </trkpt>
      <trkpt lat="45.62734" lon="6.82087">
        <ele>1245</ele>
        <time>2021-05-27T11:16:35Z</time>
      </trkpt>
      <trkpt lat="45.6273" lon="6.82092">
        <ele>1245.4</ele>
        <time>2021-05-27T11:16:36Z</time>
      </trkpt>
      <trkpt lat="45.62727" lon="6.82097">
        <ele>1245.6</ele>
        <time>2021-05-27T11:16:37Z</time>
      </trkpt>
      <trkpt lat="45.62722" lon="6.82103">
        <ele>1245.6</ele>
        <time>2021-05-27T11:16:38Z</time>
      </trkpt>
      <trkpt lat="45.62718" lon="6.82109">
        <ele>1246.2</ele>
        <time>2021-05-27T11:16:39Z</time>
      </trkpt>
      <trkpt lat="45.62714" lon="6.82116">
        <ele>1246.4</ele>
        <time>2021-05-27T11:16:40Z</time>
      </trkpt>
      <trkpt lat="45.62709" lon="6.82123">
        <ele>1246.4</ele>
        <time>2021-05-27T11:16:41Z</time>
      </trkpt>
      <trkpt lat="45.62704" lon="6.82127">
        <ele>1246.6</ele>
        <time>2021-05-27T11:16:42Z</time>
      </trkpt>
      <trkpt lat="45.627" lon="6.82132">
        <ele>1246.8</ele>
        <time>2021-05-27T11:16:43Z</time>
      </trkpt>
      <trkpt lat="45.62696" lon="6.82136">
        <ele>1247</ele>
        <time>2021-05-27T11:16:44Z</time>
      </trkpt>
      <trkpt lat="45.62692" lon="6.8214">
        <ele>1247.2</ele>
        <time>2021-05-27T11:16:45Z</time>
      </trkpt>
      <trkpt lat="45.62687" lon="6.82144">
        <ele>1247</ele>
        <time>2021-05-27T11:16:46Z</time>
      </trkpt>
      <trkpt lat="45.62683" lon="6.82148">
        <ele>1246.6</ele>
        <time>2021-05-27T11:16:47Z</time>
      </trkpt>
      <trkpt lat="45.62678" lon="6.82151">
        <ele>1246.8</ele>
        <time>2021-05-27T11:16:48Z</time>
      </trkpt>
      <trkpt lat="45.62674" lon="6.82154">
        <ele>1246.4</ele>
        <time>2021-05-27T11:16:49Z</time>
      </trkpt>
      <trkpt lat="45.62669" lon="6.82157">
        <ele>1246</ele>
        <time>2021-05-27T11:16:50Z</time>
      </trkpt>
      <trkpt lat="45.62664" lon="6.8216">
        <ele>1245.8</ele>
        <time>2021-05-27T11:16:51Z</time>
      </trkpt>
      <trkpt lat="45.62658" lon="6.82164">
        <ele>1245.6</ele>
        <time>2021-05-27T11:16:52Z</time>
      </trkpt>
      <trkpt lat="45.62652" lon="6.82168">
        <ele>1245.4</ele>
        <time>2021-05-27T11:16:53Z</time>
      </trkpt>
      <trkpt lat="45.62648" lon="6.8217">
        <ele>1245.4</ele>
        <time>2021-05-27T11:16:54Z</time>
      </trkpt>
      <trkpt lat="45.62643" lon="6.82173">
        <ele>1245.2</ele>
        <time>2021-05-27T11:16:55Z</time>
      </trkpt>
      <trkpt lat="45.62637" lon="6.82176">
        <ele>1245</ele>
        <time>2021-05-27T11:16:56Z</time>
      </trkpt>
      <trkpt lat="45.62633" lon="6.82178">
        <ele>1245.4</ele>
        <time>2021-05-27T11:16:57Z</time>
      </trkpt>
      <trkpt lat="45.62627" lon="6.82181">
        <ele>1245.6</ele>
        <time>2021-05-27T11:16:58Z</time>
      </trkpt>
      <trkpt lat="45.62621" lon="6.82183">
        <ele>1245.6</ele>
        <time>2021-05-27T11:16:59Z</time>
      </trkpt>
      <trkpt lat="45.62616" lon="6.82184">
        <ele>1245.8</ele>
        <time>2021-05-27T11:17:00Z</time>
      </trkpt>
      <trkpt lat="45.62612" lon="6.82183">
        <ele>1246</ele>
        <time>2021-05-27T11:17:01Z</time>
      </trkpt>
      <trkpt lat="45.62606" lon="6.82182">
        <ele>1246.2</ele>
        <time>2021-05-27T11:17:02Z</time>
      </trkpt>
      <trkpt lat="45.62601" lon="6.82182">
        <ele>1246.4</ele>
        <time>2021-05-27T11:17:03Z</time>
      </trkpt>
      <trkpt lat="45.62596" lon="6.82181">
        <ele>1246.4</ele>
        <time>2021-05-27T11:17:04Z</time>
      </trkpt>
      <trkpt lat="45.6259" lon="6.8218">
        <ele>1246.4</ele>
        <time>2021-05-27T11:17:05Z</time>
      </trkpt>
      <trkpt lat="45.62586" lon="6.8218">
        <ele>1246.4</ele>
        <time>2021-05-27T11:17:06Z</time>
      </trkpt>
      <trkpt lat="45.62581" lon="6.82181">
        <ele>1246.6</ele>
        <time>2021-05-27T11:17:07Z</time>
      </trkpt>
      <trkpt lat="45.62577" lon="6.82181">
        <ele>1247</ele>
        <time>2021-05-27T11:17:08Z</time>
      </trkpt>
      <trkpt lat="45.62572" lon="6.82182">
        <ele>1247.6</ele>
        <time>2021-05-27T11:17:09Z</time>
      </trkpt>
      <trkpt lat="45.62567" lon="6.82183">
        <ele>1248</ele>
        <time>2021-05-27T11:17:10Z</time>
      </trkpt>
      <trkpt lat="45.62562" lon="6.82185">
        <ele>1248.6</ele>
        <time>2021-05-27T11:17:11Z</time>
      </trkpt>
      <trkpt lat="45.62557" lon="6.82187">
        <ele>1249</ele>
        <time>2021-05-27T11:17:12Z</time>
      </trkpt>
      <trkpt lat="45.62553" lon="6.82188">
        <ele>1249.4</ele>
        <time>2021-05-27T11:17:13Z</time>
      </trkpt>
      <trkpt lat="45.62549" lon="6.8219">
        <ele>1249.8</ele>
        <time>2021-05-27T11:17:14Z</time>
      </trkpt>
      <trkpt lat="45.62546" lon="6.82192">
        <ele>1250.2</ele>
        <time>2021-05-27T11:17:15Z</time>
      </trkpt>
      <trkpt lat="45.62542" lon="6.82195">
        <ele>1250.6</ele>
        <time>2021-05-27T11:17:16Z</time>
      </trkpt>
      <trkpt lat="45.62539" lon="6.82198">
        <ele>1251.2</ele>
        <time>2021-05-27T11:17:17Z</time>
      </trkpt>
      <trkpt lat="45.62534" lon="6.82201">
        <ele>1251.6</ele>
        <time>2021-05-27T11:17:18Z</time>
      </trkpt>
      <trkpt lat="45.62529" lon="6.82204">
        <ele>1252</ele>
        <time>2021-05-27T11:17:19Z</time>
      </trkpt>
      <trkpt lat="45.62524" lon="6.82206">
        <ele>1252.2</ele>
        <time>2021-05-27T11:17:20Z</time>
      </trkpt>
      <trkpt lat="45.62519" lon="6.82209">
        <ele>1252.4</ele>
        <time>2021-05-27T11:17:21Z</time>
      </trkpt>
      <trkpt lat="45.62515" lon="6.82212">
        <ele>1252.4</ele>
        <time>2021-05-27T11:17:22Z</time>
      </trkpt>
      <trkpt lat="45.62511" lon="6.82214">
        <ele>1252.6</ele>
        <time>2021-05-27T11:17:23Z</time>
      </trkpt>
      <trkpt lat="45.62506" lon="6.82216">
        <ele>1252.6</ele>
        <time>2021-05-27T11:17:24Z</time>
      </trkpt>
      <trkpt lat="45.62502" lon="6.82218">
        <ele>1252.6</ele>
        <time>2021-05-27T11:17:25Z</time>
      </trkpt>
      <trkpt lat="45.62498" lon="6.82219">
        <ele>1252.6</ele>
        <time>2021-05-27T11:17:26Z</time>
      </trkpt>
      <trkpt lat="45.62493" lon="6.8222">
        <ele>1252.6</ele>
        <time>2021-05-27T11:17:27Z</time>
      </trkpt>
      <trkpt lat="45.62488" lon="6.82219">
        <ele>1253</ele>
        <time>2021-05-27T11:17:28Z</time>
      </trkpt>
      <trkpt lat="45.62483" lon="6.82219">
        <ele>1253</ele>
        <time>2021-05-27T11:17:29Z</time>
      </trkpt>
      <trkpt lat="45.62477" lon="6.82219">
        <ele>1253.4</ele>
        <time>2021-05-27T11:17:30Z</time>
      </trkpt>
      <trkpt lat="45.62472" lon="6.82222">
        <ele>1253.6</ele>
        <time>2021-05-27T11:17:31Z</time>
      </trkpt>
      <trkpt lat="45.62467" lon="6.82224">
        <ele>1254</ele>
        <time>2021-05-27T11:17:32Z</time>
      </trkpt>
      <trkpt lat="45.62463" lon="6.82227">
        <ele>1254.4</ele>
        <time>2021-05-27T11:17:33Z</time>
      </trkpt>
      <trkpt lat="45.62459" lon="6.82231">
        <ele>1255</ele>
        <time>2021-05-27T11:17:34Z</time>
      </trkpt>
      <trkpt lat="45.62454" lon="6.82234">
        <ele>1255.4</ele>
        <time>2021-05-27T11:17:35Z</time>
      </trkpt>
      <trkpt lat="45.62449" lon="6.82237">
        <ele>1255.8</ele>
        <time>2021-05-27T11:17:36Z</time>
      </trkpt>
      <trkpt lat="45.62445" lon="6.8224">
        <ele>1256.2</ele>
        <time>2021-05-27T11:17:37Z</time>
      </trkpt>
      <trkpt lat="45.62441" lon="6.82244">
        <ele>1256.2</ele>
        <time>2021-05-27T11:17:38Z</time>
      </trkpt>
      <trkpt lat="45.62436" lon="6.82248">
        <ele>1256.2</ele>
        <time>2021-05-27T11:17:39Z</time>
      </trkpt>
      <trkpt lat="45.62432" lon="6.82252">
        <ele>1256</ele>
        <time>2021-05-27T11:17:40Z</time>
      </trkpt>
      <trkpt lat="45.62427" lon="6.82257">
        <ele>1256</ele>
        <time>2021-05-27T11:17:41Z</time>
      </trkpt>
      <trkpt lat="45.62423" lon="6.82262">
        <ele>1255.8</ele>
        <time>2021-05-27T11:17:42Z</time>
      </trkpt>
      <trkpt lat="45.62418" lon="6.82266">
        <ele>1255.6</ele>
        <time>2021-05-27T11:17:43Z</time>
      </trkpt>
      <trkpt lat="45.62413" lon="6.82272">
        <ele>1255.4</ele>
        <time>2021-05-27T11:17:44Z</time>
      </trkpt>
      <trkpt lat="45.6241" lon="6.82277">
        <ele>1255.2</ele>
        <time>2021-05-27T11:17:45Z</time>
      </trkpt>
      <trkpt lat="45.62405" lon="6.82284">
        <ele>1255</ele>
        <time>2021-05-27T11:17:46Z</time>
      </trkpt>
      <trkpt lat="45.62401" lon="6.8229">
        <ele>1254.8</ele>
        <time>2021-05-27T11:17:47Z</time>
      </trkpt>
      <trkpt lat="45.62397" lon="6.82295">
        <ele>1254.6</ele>
        <time>2021-05-27T11:17:48Z</time>
      </trkpt>
      <trkpt lat="45.62394" lon="6.82301">
        <ele>1254.6</ele>
        <time>2021-05-27T11:17:49Z</time>
      </trkpt>
      <trkpt lat="45.6239" lon="6.82306">
        <ele>1254.6</ele>
        <time>2021-05-27T11:17:50Z</time>
      </trkpt>
      <trkpt lat="45.62386" lon="6.82313">
        <ele>1254.8</ele>
        <time>2021-05-27T11:17:51Z</time>
      </trkpt>
      <trkpt lat="45.62383" lon="6.82319">
        <ele>1255</ele>
        <time>2021-05-27T11:17:52Z</time>
      </trkpt>
      <trkpt lat="45.6238" lon="6.82325">
        <ele>1255.4</ele>
        <time>2021-05-27T11:17:53Z</time>
      </trkpt>
      <trkpt lat="45.62376" lon="6.8233">
        <ele>1256</ele>
        <time>2021-05-27T11:17:54Z</time>
      </trkpt>
      <trkpt lat="45.62372" lon="6.82337">
        <ele>1256</ele>
        <time>2021-05-27T11:17:55Z</time>
      </trkpt>
      <trkpt lat="45.6237" lon="6.82343">
        <ele>1256.4</ele>
        <time>2021-05-27T11:17:56Z</time>
      </trkpt>
      <trkpt lat="45.62366" lon="6.82349">
        <ele>1256.8</ele>
        <time>2021-05-27T11:17:57Z</time>
      </trkpt>
      <trkpt lat="45.62364" lon="6.82355">
        <ele>1257.2</ele>
        <time>2021-05-27T11:17:58Z</time>
      </trkpt>
      <trkpt lat="45.62362" lon="6.82361">
        <ele>1257.6</ele>
        <time>2021-05-27T11:17:59Z</time>
      </trkpt>
      <trkpt lat="45.62359" lon="6.82366">
        <ele>1258.2</ele>
        <time>2021-05-27T11:18:00Z</time>
      </trkpt>
      <trkpt lat="45.62356" lon="6.82372">
        <ele>1258.6</ele>
        <time>2021-05-27T11:18:01Z</time>
      </trkpt>
      <trkpt lat="45.62354" lon="6.82378">
        <ele>1258.8</ele>
        <time>2021-05-27T11:18:02Z</time>
      </trkpt>
      <trkpt lat="45.6235" lon="6.82383">
        <ele>1259.2</ele>
        <time>2021-05-27T11:18:03Z</time>
      </trkpt>
      <trkpt lat="45.62348" lon="6.82388">
        <ele>1259</ele>
        <time>2021-05-27T11:18:04Z</time>
      </trkpt>
      <trkpt lat="45.62345" lon="6.82394">
        <ele>1259</ele>
        <time>2021-05-27T11:18:05Z</time>
      </trkpt>
      <trkpt lat="45.62342" lon="6.824">
        <ele>1259</ele>
        <time>2021-05-27T11:18:06Z</time>
      </trkpt>
      <trkpt lat="45.62339" lon="6.82406">
        <ele>1258.6</ele>
        <time>2021-05-27T11:18:07Z</time>
      </trkpt>
      <trkpt lat="45.62336" lon="6.82412">
        <ele>1258.4</ele>
        <time>2021-05-27T11:18:08Z</time>
      </trkpt>
      <trkpt lat="45.62333" lon="6.82418">
        <ele>1258.4</ele>
        <time>2021-05-27T11:18:09Z</time>
      </trkpt>
      <trkpt lat="45.62331" lon="6.82424">
        <ele>1258.8</ele>
        <time>2021-05-27T11:18:10Z</time>
      </trkpt>
      <trkpt lat="45.62328" lon="6.82429">
        <ele>1259.2</ele>
        <time>2021-05-27T11:18:11Z</time>
      </trkpt>
      <trkpt lat="45.62326" lon="6.82435">
        <ele>1259.6</ele>
        <time>2021-05-27T11:18:12Z</time>
      </trkpt>
      <trkpt lat="45.62324" lon="6.8244">
        <ele>1260.2</ele>
        <time>2021-05-27T11:18:13Z</time>
      </trkpt>
      <trkpt lat="45.62321" lon="6.82446">
        <ele>1260.4</ele>
        <time>2021-05-27T11:18:14Z</time>
      </trkpt>
      <trkpt lat="45.62318" lon="6.82452">
        <ele>1260.6</ele>
        <time>2021-05-27T11:18:15Z</time>
      </trkpt>
      <trkpt lat="45.62316" lon="6.82457">
        <ele>1260.6</ele>
        <time>2021-05-27T11:18:16Z</time>
      </trkpt>
      <trkpt lat="45.62314" lon="6.82462">
        <ele>1261.2</ele>
        <time>2021-05-27T11:18:17Z</time>
      </trkpt>
      <trkpt lat="45.62312" lon="6.82468">
        <ele>1261.4</ele>
        <time>2021-05-27T11:18:18Z</time>
      </trkpt>
      <trkpt lat="45.62309" lon="6.82474">
        <ele>1262.2</ele>
        <time>2021-05-27T11:18:19Z</time>
      </trkpt>
      <trkpt lat="45.62307" lon="6.8248">
        <ele>1262.4</ele>
        <time>2021-05-27T11:18:20Z</time>
      </trkpt>
      <trkpt lat="45.62305" lon="6.82486">
        <ele>1263</ele>
        <time>2021-05-27T11:18:21Z</time>
      </trkpt>
      <trkpt lat="45.62303" lon="6.82492">
        <ele>1263.8</ele>
        <time>2021-05-27T11:18:22Z</time>
      </trkpt>
      <trkpt lat="45.62301" lon="6.82497">
        <ele>1264.6</ele>
        <time>2021-05-27T11:18:23Z</time>
      </trkpt>
      <trkpt lat="45.62298" lon="6.82503">
        <ele>1265.8</ele>
        <time>2021-05-27T11:18:24Z</time>
      </trkpt>
      <trkpt lat="45.62296" lon="6.82509">
        <ele>1267</ele>
        <time>2021-05-27T11:18:25Z</time>
      </trkpt>
      <trkpt lat="45.62293" lon="6.82515">
        <ele>1268</ele>
        <time>2021-05-27T11:18:26Z</time>
      </trkpt>
      <trkpt lat="45.62292" lon="6.82521">
        <ele>1269</ele>
        <time>2021-05-27T11:18:27Z</time>
      </trkpt>
      <trkpt lat="45.6229" lon="6.82527">
        <ele>1270</ele>
        <time>2021-05-27T11:18:28Z</time>
      </trkpt>
      <trkpt lat="45.62288" lon="6.82534">
        <ele>1271</ele>
        <time>2021-05-27T11:18:29Z</time>
      </trkpt>
      <trkpt lat="45.62287" lon="6.8254">
        <ele>1271.8</ele>
        <time>2021-05-27T11:18:30Z</time>
      </trkpt>
      <trkpt lat="45.62286" lon="6.82546">
        <ele>1272.8</ele>
        <time>2021-05-27T11:18:31Z</time>
      </trkpt>
      <trkpt lat="45.62285" lon="6.82552">
        <ele>1273.4</ele>
        <time>2021-05-27T11:18:32Z</time>
      </trkpt>
      <trkpt lat="45.62283" lon="6.82558">
        <ele>1275</ele>
        <time>2021-05-27T11:18:33Z</time>
      </trkpt>
      <trkpt lat="45.62282" lon="6.82565">
        <ele>1275.8</ele>
        <time>2021-05-27T11:18:34Z</time>
      </trkpt>
      <trkpt lat="45.6228" lon="6.82572">
        <ele>1276.2</ele>
        <time>2021-05-27T11:18:35Z</time>
      </trkpt>
      <trkpt lat="45.62279" lon="6.82578">
        <ele>1276.8</ele>
        <time>2021-05-27T11:18:36Z</time>
      </trkpt>
      <trkpt lat="45.62278" lon="6.82584">
        <ele>1277.6</ele>
        <time>2021-05-27T11:18:37Z</time>
      </trkpt>
      <trkpt lat="45.62277" lon="6.82591">
        <ele>1278.2</ele>
        <time>2021-05-27T11:18:38Z</time>
      </trkpt>
      <trkpt lat="45.62276" lon="6.82598">
        <ele>1278.8</ele>
        <time>2021-05-27T11:18:39Z</time>
      </trkpt>
      <trkpt lat="45.62277" lon="6.82605">
        <ele>1279.4</ele>
        <time>2021-05-27T11:18:40Z</time>
      </trkpt>
      <trkpt lat="45.62278" lon="6.82611">
        <ele>1280.2</ele>
        <time>2021-05-27T11:18:41Z</time>
      </trkpt>
      <trkpt lat="45.62278" lon="6.82618">
        <ele>1280.8</ele>
        <time>2021-05-27T11:18:42Z</time>
      </trkpt>
      <trkpt lat="45.6228" lon="6.82624">
        <ele>1281.4</ele>
        <time>2021-05-27T11:18:43Z</time>
      </trkpt>
      <trkpt lat="45.62281" lon="6.8263">
        <ele>1282</ele>
        <time>2021-05-27T11:18:44Z</time>
      </trkpt>
      <trkpt lat="45.62283" lon="6.82637">
        <ele>1282.6</ele>
        <time>2021-05-27T11:18:45Z</time>
      </trkpt>
      <trkpt lat="45.62285" lon="6.82643">
        <ele>1283.4</ele>
        <time>2021-05-27T11:18:46Z</time>
      </trkpt>
      <trkpt lat="45.62287" lon="6.82649">
        <ele>1284.2</ele>
        <time>2021-05-27T11:18:47Z</time>
      </trkpt>
      <trkpt lat="45.62289" lon="6.82655">
        <ele>1284.6</ele>
        <time>2021-05-27T11:18:48Z</time>
      </trkpt>
      <trkpt lat="45.62291" lon="6.82662">
        <ele>1285.2</ele>
        <time>2021-05-27T11:18:49Z</time>
      </trkpt>
      <trkpt lat="45.62292" lon="6.82668">
        <ele>1286</ele>
        <time>2021-05-27T11:18:50Z</time>
      </trkpt>
      <trkpt lat="45.62294" lon="6.82674">
        <ele>1286.6</ele>
        <time>2021-05-27T11:18:51Z</time>
      </trkpt>
      <trkpt lat="45.62295" lon="6.82681">
        <ele>1287.4</ele>
        <time>2021-05-27T11:18:52Z</time>
      </trkpt>
      <trkpt lat="45.62297" lon="6.82687">
        <ele>1287.8</ele>
        <time>2021-05-27T11:18:53Z</time>
      </trkpt>
      <trkpt lat="45.62299" lon="6.82694">
        <ele>1288.2</ele>
        <time>2021-05-27T11:18:54Z</time>
      </trkpt>
      <trkpt lat="45.623" lon="6.82701">
        <ele>1288.8</ele>
        <time>2021-05-27T11:18:55Z</time>
      </trkpt>
      <trkpt lat="45.62301" lon="6.82709">
        <ele>1289.2</ele>
        <time>2021-05-27T11:18:56Z</time>
      </trkpt>
      <trkpt lat="45.62302" lon="6.82716">
        <ele>1289.8</ele>
        <time>2021-05-27T11:18:57Z</time>
      </trkpt>
      <trkpt lat="45.62302" lon="6.82724">
        <ele>1290</ele>
        <time>2021-05-27T11:18:58Z</time>
      </trkpt>
      <trkpt lat="45.62302" lon="6.82731">
        <ele>1290.6</ele>
        <time>2021-05-27T11:18:59Z</time>
      </trkpt>
      <trkpt lat="45.62301" lon="6.82739">
        <ele>1291</ele>
        <time>2021-05-27T11:19:00Z</time>
      </trkpt>
      <trkpt lat="45.62301" lon="6.82746">
        <ele>1291.2</ele>
        <time>2021-05-27T11:19:01Z</time>
      </trkpt>
      <trkpt lat="45.623" lon="6.82754">
        <ele>1291.2</ele>
        <time>2021-05-27T11:19:02Z</time>
      </trkpt>
      <trkpt lat="45.62298" lon="6.82761">
        <ele>1291.6</ele>
        <time>2021-05-27T11:19:03Z</time>
      </trkpt>
      <trkpt lat="45.62297" lon="6.82768">
        <ele>1291.6</ele>
        <time>2021-05-27T11:19:04Z</time>
      </trkpt>
      <trkpt lat="45.62295" lon="6.82776">
        <ele>1291.6</ele>
        <time>2021-05-27T11:19:05Z</time>
      </trkpt>
      <trkpt lat="45.62293" lon="6.82783">
        <ele>1292</ele>
        <time>2021-05-27T11:19:06Z</time>
      </trkpt>
      <trkpt lat="45.6229" lon="6.8279">
        <ele>1292.2</ele>
        <time>2021-05-27T11:19:07Z</time>
      </trkpt>
      <trkpt lat="45.62288" lon="6.82797">
        <ele>1292.4</ele>
        <time>2021-05-27T11:19:08Z</time>
      </trkpt>
      <trkpt lat="45.62285" lon="6.82804">
        <ele>1292.6</ele>
        <time>2021-05-27T11:19:09Z</time>
      </trkpt>
      <trkpt lat="45.62283" lon="6.82811">
        <ele>1293</ele>
        <time>2021-05-27T11:19:10Z</time>
      </trkpt>
      <trkpt lat="45.62281" lon="6.82818">
        <ele>1293</ele>
        <time>2021-05-27T11:19:11Z</time>
      </trkpt>
      <trkpt lat="45.62281" lon="6.82826">
        <ele>1293</ele>
        <time>2021-05-27T11:19:12Z</time>
      </trkpt>
      <trkpt lat="45.62283" lon="6.82832">
        <ele>1293.2</ele>
        <time>2021-05-27T11:19:13Z</time>
      </trkpt>
      <trkpt lat="45.62286" lon="6.82835">
        <ele>1293.4</ele>
        <time>2021-05-27T11:19:14Z</time>
      </trkpt>
      <trkpt lat="45.6229" lon="6.82834">
        <ele>1294</ele>
        <time>2021-05-27T11:19:15Z</time>
      </trkpt>
      <trkpt lat="45.62294" lon="6.8283">
        <ele>1294</ele>
        <time>2021-05-27T11:19:16Z</time>
      </trkpt>
      <trkpt lat="45.62296" lon="6.82825">
        <ele>1294.4</ele>
        <time>2021-05-27T11:19:17Z</time>
      </trkpt>
      <trkpt lat="45.62299" lon="6.8282">
        <ele>1294.6</ele>
        <time>2021-05-27T11:19:18Z</time>
      </trkpt>
      <trkpt lat="45.62301" lon="6.82813">
        <ele>1294.8</ele>
        <time>2021-05-27T11:19:19Z</time>
      </trkpt>
      <trkpt lat="45.62304" lon="6.82806">
        <ele>1295</ele>
        <time>2021-05-27T11:19:20Z</time>
      </trkpt>
      <trkpt lat="45.62305" lon="6.82799">
        <ele>1295.4</ele>
        <time>2021-05-27T11:19:21Z</time>
      </trkpt>
      <trkpt lat="45.62307" lon="6.82792">
        <ele>1295.8</ele>
        <time>2021-05-27T11:19:22Z</time>
      </trkpt>
      <trkpt lat="45.62309" lon="6.82786">
        <ele>1296.2</ele>
        <time>2021-05-27T11:19:23Z</time>
      </trkpt>
      <trkpt lat="45.6231" lon="6.82779">
        <ele>1296.8</ele>
        <time>2021-05-27T11:19:24Z</time>
      </trkpt>
      <trkpt lat="45.62312" lon="6.82772">
        <ele>1297</ele>
        <time>2021-05-27T11:19:25Z</time>
      </trkpt>
      <trkpt lat="45.62314" lon="6.82766">
        <ele>1297.6</ele>
        <time>2021-05-27T11:19:26Z</time>
      </trkpt>
      <trkpt lat="45.62316" lon="6.8276">
        <ele>1298.2</ele>
        <time>2021-05-27T11:19:27Z</time>
      </trkpt>
      <trkpt lat="45.62317" lon="6.82754">
        <ele>1298.4</ele>
        <time>2021-05-27T11:19:28Z</time>
      </trkpt>
      <trkpt lat="45.62318" lon="6.82747">
        <ele>1298.8</ele>
        <time>2021-05-27T11:19:29Z</time>
      </trkpt>
      <trkpt lat="45.6232" lon="6.8274">
        <ele>1299.2</ele>
        <time>2021-05-27T11:19:30Z</time>
      </trkpt>
      <trkpt lat="45.6232" lon="6.82734">
        <ele>1299.6</ele>
        <time>2021-05-27T11:19:31Z</time>
      </trkpt>
      <trkpt lat="45.62321" lon="6.82726">
        <ele>1300.2</ele>
        <time>2021-05-27T11:19:32Z</time>
      </trkpt>
      <trkpt lat="45.62322" lon="6.82719">
        <ele>1300.4</ele>
        <time>2021-05-27T11:19:33Z</time>
      </trkpt>
      <trkpt lat="45.62322" lon="6.82712">
        <ele>1300.8</ele>
        <time>2021-05-27T11:19:34Z</time>
      </trkpt>
      <trkpt lat="45.62322" lon="6.82705">
        <ele>1301.2</ele>
        <time>2021-05-27T11:19:35Z</time>
      </trkpt>
      <trkpt lat="45.62322" lon="6.82698">
        <ele>1301.4</ele>
        <time>2021-05-27T11:19:36Z</time>
      </trkpt>
      <trkpt lat="45.62322" lon="6.82691">
        <ele>1301.6</ele>
        <time>2021-05-27T11:19:37Z</time>
      </trkpt>
      <trkpt lat="45.62322" lon="6.82684">
        <ele>1301.8</ele>
        <time>2021-05-27T11:19:38Z</time>
      </trkpt>
      <trkpt lat="45.62322" lon="6.82678">
        <ele>1301.4</ele>
        <time>2021-05-27T11:19:39Z</time>
      </trkpt>
      <trkpt lat="45.6232" lon="6.8267">
        <ele>1301.4</ele>
        <time>2021-05-27T11:19:40Z</time>
      </trkpt>
      <trkpt lat="45.6232" lon="6.82663">
        <ele>1301.6</ele>
        <time>2021-05-27T11:19:41Z</time>
      </trkpt>
      <trkpt lat="45.62319" lon="6.82656">
        <ele>1301.6</ele>
        <time>2021-05-27T11:19:42Z</time>
      </trkpt>
      <trkpt lat="45.62318" lon="6.82649">
        <ele>1301.8</ele>
        <time>2021-05-27T11:19:43Z</time>
      </trkpt>
      <trkpt lat="45.62318" lon="6.82643">
        <ele>1301.8</ele>
        <time>2021-05-27T11:19:44Z</time>
      </trkpt>
      <trkpt lat="45.62317" lon="6.82636">
        <ele>1302</ele>
        <time>2021-05-27T11:19:45Z</time>
      </trkpt>
      <trkpt lat="45.62316" lon="6.82629">
        <ele>1302</ele>
        <time>2021-05-27T11:19:46Z</time>
      </trkpt>
      <trkpt lat="45.62316" lon="6.82622">
        <ele>1302.4</ele>
        <time>2021-05-27T11:19:47Z</time>
      </trkpt>
      <trkpt lat="45.62316" lon="6.82616">
        <ele>1302.6</ele>
        <time>2021-05-27T11:19:48Z</time>
      </trkpt>
      <trkpt lat="45.62315" lon="6.82608">
        <ele>1302.6</ele>
        <time>2021-05-27T11:19:49Z</time>
      </trkpt>
      <trkpt lat="45.62315" lon="6.82602">
        <ele>1303</ele>
        <time>2021-05-27T11:19:50Z</time>
      </trkpt>
      <trkpt lat="45.62316" lon="6.82595">
        <ele>1303.6</ele>
        <time>2021-05-27T11:19:51Z</time>
      </trkpt>
      <trkpt lat="45.62316" lon="6.82588">
        <ele>1303.8</ele>
        <time>2021-05-27T11:19:52Z</time>
      </trkpt>
      <trkpt lat="45.62317" lon="6.82582">
        <ele>1304.4</ele>
        <time>2021-05-27T11:19:53Z</time>
      </trkpt>
      <trkpt lat="45.62318" lon="6.82576">
        <ele>1304.8</ele>
        <time>2021-05-27T11:19:54Z</time>
      </trkpt>
      <trkpt lat="45.6232" lon="6.8257">
        <ele>1305.2</ele>
        <time>2021-05-27T11:19:55Z</time>
      </trkpt>
      <trkpt lat="45.62321" lon="6.82564">
        <ele>1305.6</ele>
        <time>2021-05-27T11:19:56Z</time>
      </trkpt>
      <trkpt lat="45.62323" lon="6.82558">
        <ele>1305.6</ele>
        <time>2021-05-27T11:19:57Z</time>
      </trkpt>
      <trkpt lat="45.62325" lon="6.82551">
        <ele>1306</ele>
        <time>2021-05-27T11:19:58Z</time>
      </trkpt>
      <trkpt lat="45.62327" lon="6.82545">
        <ele>1306.4</ele>
        <time>2021-05-27T11:19:59Z</time>
      </trkpt>
      <trkpt lat="45.6233" lon="6.82539">
        <ele>1306.4</ele>
        <time>2021-05-27T11:20:00Z</time>
      </trkpt>
      <trkpt lat="45.62332" lon="6.82534">
        <ele>1307.2</ele>
        <time>2021-05-27T11:20:01Z</time>
      </trkpt>
      <trkpt lat="45.62334" lon="6.82528">
        <ele>1307.4</ele>
        <time>2021-05-27T11:20:02Z</time>
      </trkpt>
      <trkpt lat="45.62337" lon="6.82523">
        <ele>1307.6</ele>
        <time>2021-05-27T11:20:03Z</time>
      </trkpt>
      <trkpt lat="45.6234" lon="6.82517">
        <ele>1308</ele>
        <time>2021-05-27T11:20:04Z</time>
      </trkpt>
      <trkpt lat="45.62343" lon="6.82512">
        <ele>1308.2</ele>
        <time>2021-05-27T11:20:05Z</time>
      </trkpt>
      <trkpt lat="45.62346" lon="6.82507">
        <ele>1308.6</ele>
        <time>2021-05-27T11:20:06Z</time>
      </trkpt>
      <trkpt lat="45.62348" lon="6.82502">
        <ele>1309</ele>
        <time>2021-05-27T11:20:07Z</time>
      </trkpt>
      <trkpt lat="45.62351" lon="6.82497">
        <ele>1309.2</ele>
        <time>2021-05-27T11:20:08Z</time>
      </trkpt>
      <trkpt lat="45.62355" lon="6.82492">
        <ele>1309.4</ele>
        <time>2021-05-27T11:20:09Z</time>
      </trkpt>
      <trkpt lat="45.62358" lon="6.82487">
        <ele>1309.8</ele>
        <time>2021-05-27T11:20:10Z</time>
      </trkpt>
      <trkpt lat="45.62361" lon="6.82482">
        <ele>1309.8</ele>
        <time>2021-05-27T11:20:11Z</time>
      </trkpt>
      <trkpt lat="45.62364" lon="6.82477">
        <ele>1310</ele>
        <time>2021-05-27T11:20:12Z</time>
      </trkpt>
      <trkpt lat="45.62367" lon="6.82473">
        <ele>1310</ele>
        <time>2021-05-27T11:20:13Z</time>
      </trkpt>
      <trkpt lat="45.62371" lon="6.82469">
        <ele>1310.2</ele>
        <time>2021-05-27T11:20:14Z</time>
      </trkpt>
      <trkpt lat="45.62374" lon="6.82465">
        <ele>1310.8</ele>
        <time>2021-05-27T11:20:15Z</time>
      </trkpt>
      <trkpt lat="45.62378" lon="6.82462">
        <ele>1310.8</ele>
        <time>2021-05-27T11:20:16Z</time>
      </trkpt>
      <trkpt lat="45.62382" lon="6.82458">
        <ele>1311</ele>
        <time>2021-05-27T11:20:17Z</time>
      </trkpt>
      <trkpt lat="45.62386" lon="6.82455">
        <ele>1311.2</ele>
        <time>2021-05-27T11:20:18Z</time>
      </trkpt>
      <trkpt lat="45.62389" lon="6.82452">
        <ele>1311.4</ele>
        <time>2021-05-27T11:20:19Z</time>
      </trkpt>
      <trkpt lat="45.62393" lon="6.82448">
        <ele>1311.6</ele>
        <time>2021-05-27T11:20:20Z</time>
      </trkpt>
      <trkpt lat="45.62397" lon="6.82445">
        <ele>1312</ele>
        <time>2021-05-27T11:20:21Z</time>
      </trkpt>
      <trkpt lat="45.62401" lon="6.82441">
        <ele>1312</ele>
        <time>2021-05-27T11:20:22Z</time>
      </trkpt>
      <trkpt lat="45.62405" lon="6.82438">
        <ele>1312.2</ele>
        <time>2021-05-27T11:20:23Z</time>
      </trkpt>
      <trkpt lat="45.62408" lon="6.82433">
        <ele>1312.4</ele>
        <time>2021-05-27T11:20:24Z</time>
      </trkpt>
      <trkpt lat="45.62412" lon="6.82428">
        <ele>1312.4</ele>
        <time>2021-05-27T11:20:25Z</time>
      </trkpt>
      <trkpt lat="45.62415" lon="6.82424">
        <ele>1312.8</ele>
        <time>2021-05-27T11:20:26Z</time>
      </trkpt>
      <trkpt lat="45.62418" lon="6.82419">
        <ele>1313.2</ele>
        <time>2021-05-27T11:20:27Z</time>
      </trkpt>
      <trkpt lat="45.62421" lon="6.82414">
        <ele>1313.6</ele>
        <time>2021-05-27T11:20:28Z</time>
      </trkpt>
      <trkpt lat="45.62424" lon="6.82409">
        <ele>1314</ele>
        <time>2021-05-27T11:20:29Z</time>
      </trkpt>
      <trkpt lat="45.62427" lon="6.82404">
        <ele>1314.2</ele>
        <time>2021-05-27T11:20:30Z</time>
      </trkpt>
      <trkpt lat="45.62429" lon="6.82399">
        <ele>1314.6</ele>
        <time>2021-05-27T11:20:31Z</time>
      </trkpt>
      <trkpt lat="45.62432" lon="6.82394">
        <ele>1315</ele>
        <time>2021-05-27T11:20:32Z</time>
      </trkpt>
      <trkpt lat="45.62436" lon="6.8239">
        <ele>1315.4</ele>
        <time>2021-05-27T11:20:33Z</time>
      </trkpt>
      <trkpt lat="45.62439" lon="6.82386">
        <ele>1315.8</ele>
        <time>2021-05-27T11:20:34Z</time>
      </trkpt>
      <trkpt lat="45.62443" lon="6.82384">
        <ele>1316</ele>
        <time>2021-05-27T11:20:35Z</time>
      </trkpt>
      <trkpt lat="45.62447" lon="6.82382">
        <ele>1316</ele>
        <time>2021-05-27T11:20:36Z</time>
      </trkpt>
      <trkpt lat="45.62452" lon="6.82382">
        <ele>1316.2</ele>
        <time>2021-05-27T11:20:37Z</time>
      </trkpt>
      <trkpt lat="45.62457" lon="6.82383">
        <ele>1316.6</ele>
        <time>2021-05-27T11:20:38Z</time>
      </trkpt>
      <trkpt lat="45.62461" lon="6.82385">
        <ele>1317</ele>
        <time>2021-05-27T11:20:39Z</time>
      </trkpt>
      <trkpt lat="45.62466" lon="6.82387">
        <ele>1317.2</ele>
        <time>2021-05-27T11:20:40Z</time>
      </trkpt>
      <trkpt lat="45.62471" lon="6.82389">
        <ele>1317.4</ele>
        <time>2021-05-27T11:20:41Z</time>
      </trkpt>
      <trkpt lat="45.62476" lon="6.82391">
        <ele>1317.8</ele>
        <time>2021-05-27T11:20:42Z</time>
      </trkpt>
      <trkpt lat="45.62481" lon="6.82392">
        <ele>1318</ele>
        <time>2021-05-27T11:20:43Z</time>
      </trkpt>
      <trkpt lat="45.62485" lon="6.82394">
        <ele>1318.4</ele>
        <time>2021-05-27T11:20:44Z</time>
      </trkpt>
      <trkpt lat="45.62491" lon="6.82394">
        <ele>1318.6</ele>
        <time>2021-05-27T11:20:45Z</time>
      </trkpt>
      <trkpt lat="45.62495" lon="6.82394">
        <ele>1318.8</ele>
        <time>2021-05-27T11:20:46Z</time>
      </trkpt>
      <trkpt lat="45.625" lon="6.82394">
        <ele>1319</ele>
        <time>2021-05-27T11:20:47Z</time>
      </trkpt>
      <trkpt lat="45.62505" lon="6.82393">
        <ele>1319.4</ele>
        <time>2021-05-27T11:20:48Z</time>
      </trkpt>
      <trkpt lat="45.62509" lon="6.82392">
        <ele>1319.8</ele>
        <time>2021-05-27T11:20:49Z</time>
      </trkpt>
      <trkpt lat="45.62515" lon="6.8239">
        <ele>1320</ele>
        <time>2021-05-27T11:20:50Z</time>
      </trkpt>
      <trkpt lat="45.62519" lon="6.82388">
        <ele>1320.8</ele>
        <time>2021-05-27T11:20:51Z</time>
      </trkpt>
      <trkpt lat="45.62524" lon="6.82386">
        <ele>1321.2</ele>
        <time>2021-05-27T11:20:52Z</time>
      </trkpt>
      <trkpt lat="45.62528" lon="6.82384">
        <ele>1321.6</ele>
        <time>2021-05-27T11:20:53Z</time>
      </trkpt>
      <trkpt lat="45.62533" lon="6.82382">
        <ele>1321.8</ele>
        <time>2021-05-27T11:20:54Z</time>
      </trkpt>
      <trkpt lat="45.62537" lon="6.82381">
        <ele>1322.2</ele>
        <time>2021-05-27T11:20:55Z</time>
      </trkpt>
      <trkpt lat="45.62541" lon="6.82379">
        <ele>1322.8</ele>
        <time>2021-05-27T11:20:56Z</time>
      </trkpt>
      <trkpt lat="45.62546" lon="6.82378">
        <ele>1323.2</ele>
        <time>2021-05-27T11:20:57Z</time>
      </trkpt>
      <trkpt lat="45.6255" lon="6.82376">
        <ele>1323.4</ele>
        <time>2021-05-27T11:20:58Z</time>
      </trkpt>
      <trkpt lat="45.62555" lon="6.82375">
        <ele>1323.8</ele>
        <time>2021-05-27T11:20:59Z</time>
      </trkpt>
      <trkpt lat="45.6256" lon="6.82374">
        <ele>1324.2</ele>
        <time>2021-05-27T11:21:00Z</time>
      </trkpt>
      <trkpt lat="45.62565" lon="6.82374">
        <ele>1324.8</ele>
        <time>2021-05-27T11:21:01Z</time>
      </trkpt>
      <trkpt lat="45.62569" lon="6.82372">
        <ele>1325.4</ele>
        <time>2021-05-27T11:21:02Z</time>
      </trkpt>
      <trkpt lat="45.62574" lon="6.82371">
        <ele>1326</ele>
        <time>2021-05-27T11:21:03Z</time>
      </trkpt>
      <trkpt lat="45.62579" lon="6.8237">
        <ele>1326.4</ele>
        <time>2021-05-27T11:21:04Z</time>
      </trkpt>
      <trkpt lat="45.62583" lon="6.82369">
        <ele>1326.6</ele>
        <time>2021-05-27T11:21:05Z</time>
      </trkpt>
      <trkpt lat="45.62588" lon="6.82367">
        <ele>1327</ele>
        <time>2021-05-27T11:21:06Z</time>
      </trkpt>
      <trkpt lat="45.62593" lon="6.82365">
        <ele>1327.6</ele>
        <time>2021-05-27T11:21:07Z</time>
      </trkpt>
      <trkpt lat="45.62597" lon="6.82363">
        <ele>1328.2</ele>
        <time>2021-05-27T11:21:08Z</time>
      </trkpt>
      <trkpt lat="45.62602" lon="6.8236">
        <ele>1328.4</ele>
        <time>2021-05-27T11:21:09Z</time>
      </trkpt>
      <trkpt lat="45.62606" lon="6.82357">
        <ele>1328.8</ele>
        <time>2021-05-27T11:21:10Z</time>
      </trkpt>
      <trkpt lat="45.6261" lon="6.82354">
        <ele>1329.2</ele>
        <time>2021-05-27T11:21:11Z</time>
      </trkpt>
      <trkpt lat="45.62614" lon="6.82352">
        <ele>1329.4</ele>
        <time>2021-05-27T11:21:12Z</time>
      </trkpt>
      <trkpt lat="45.62618" lon="6.82349">
        <ele>1329.6</ele>
        <time>2021-05-27T11:21:13Z</time>
      </trkpt>
      <trkpt lat="45.62622" lon="6.82348">
        <ele>1329.8</ele>
        <time>2021-05-27T11:21:14Z</time>
      </trkpt>
      <trkpt lat="45.62627" lon="6.82348">
        <ele>1330.4</ele>
        <time>2021-05-27T11:21:15Z</time>
      </trkpt>
      <trkpt lat="45.62631" lon="6.82348">
        <ele>1330.8</ele>
        <time>2021-05-27T11:21:16Z</time>
      </trkpt>
      <trkpt lat="45.62636" lon="6.82348">
        <ele>1331</ele>
        <time>2021-05-27T11:21:17Z</time>
      </trkpt>
      <trkpt lat="45.6264" lon="6.8235">
        <ele>1331</ele>
        <time>2021-05-27T11:21:18Z</time>
      </trkpt>
      <trkpt lat="45.62644" lon="6.82352">
        <ele>1331.4</ele>
        <time>2021-05-27T11:21:19Z</time>
      </trkpt>
      <trkpt lat="45.62648" lon="6.82355">
        <ele>1331.8</ele>
        <time>2021-05-27T11:21:20Z</time>
      </trkpt>
      <trkpt lat="45.62652" lon="6.82358">
        <ele>1332.2</ele>
        <time>2021-05-27T11:21:21Z</time>
      </trkpt>
      <trkpt lat="45.62657" lon="6.82361">
        <ele>1332.2</ele>
        <time>2021-05-27T11:21:22Z</time>
      </trkpt>
      <trkpt lat="45.62661" lon="6.82363">
        <ele>1332.6</ele>
        <time>2021-05-27T11:21:23Z</time>
      </trkpt>
      <trkpt lat="45.62666" lon="6.82364">
        <ele>1332.8</ele>
        <time>2021-05-27T11:21:24Z</time>
      </trkpt>
      <trkpt lat="45.6267" lon="6.82365">
        <ele>1333.2</ele>
        <time>2021-05-27T11:21:25Z</time>
      </trkpt>
      <trkpt lat="45.62675" lon="6.82365">
        <ele>1333.6</ele>
        <time>2021-05-27T11:21:26Z</time>
      </trkpt>
      <trkpt lat="45.6268" lon="6.82365">
        <ele>1334</ele>
        <time>2021-05-27T11:21:27Z</time>
      </trkpt>
      <trkpt lat="45.62684" lon="6.82365">
        <ele>1334.4</ele>
        <time>2021-05-27T11:21:28Z</time>
      </trkpt>
      <trkpt lat="45.62688" lon="6.82364">
        <ele>1334.6</ele>
        <time>2021-05-27T11:21:29Z</time>
      </trkpt>
      <trkpt lat="45.62692" lon="6.82363">
        <ele>1335</ele>
        <time>2021-05-27T11:21:30Z</time>
      </trkpt>
      <trkpt lat="45.62697" lon="6.82362">
        <ele>1335.2</ele>
        <time>2021-05-27T11:21:31Z</time>
      </trkpt>
      <trkpt lat="45.62701" lon="6.8236">
        <ele>1335.4</ele>
        <time>2021-05-27T11:21:32Z</time>
      </trkpt>
      <trkpt lat="45.62705" lon="6.82358">
        <ele>1336.4</ele>
        <time>2021-05-27T11:21:33Z</time>
      </trkpt>
      <trkpt lat="45.62709" lon="6.82358">
        <ele>1336.8</ele>
        <time>2021-05-27T11:21:34Z</time>
      </trkpt>
      <trkpt lat="45.62714" lon="6.82357">
        <ele>1337.4</ele>
        <time>2021-05-27T11:21:35Z</time>
      </trkpt>
      <trkpt lat="45.62719" lon="6.82357">
        <ele>1337.8</ele>
        <time>2021-05-27T11:21:36Z</time>
      </trkpt>
      <trkpt lat="45.62724" lon="6.82358">
        <ele>1337.8</ele>
        <time>2021-05-27T11:21:37Z</time>
      </trkpt>
      <trkpt lat="45.62729" lon="6.82358">
        <ele>1338.4</ele>
        <time>2021-05-27T11:21:38Z</time>
      </trkpt>
      <trkpt lat="45.62733" lon="6.82358">
        <ele>1338.8</ele>
        <time>2021-05-27T11:21:39Z</time>
      </trkpt>
      <trkpt lat="45.62737" lon="6.82357">
        <ele>1339.2</ele>
        <time>2021-05-27T11:21:40Z</time>
      </trkpt>
      <trkpt lat="45.62742" lon="6.82357">
        <ele>1339.8</ele>
        <time>2021-05-27T11:21:41Z</time>
      </trkpt>
      <trkpt lat="45.62747" lon="6.82358">
        <ele>1340.2</ele>
        <time>2021-05-27T11:21:42Z</time>
      </trkpt>
      <trkpt lat="45.62752" lon="6.82358">
        <ele>1340.4</ele>
        <time>2021-05-27T11:21:43Z</time>
      </trkpt>
      <trkpt lat="45.62757" lon="6.82359">
        <ele>1340.8</ele>
        <time>2021-05-27T11:21:44Z</time>
      </trkpt>
      <trkpt lat="45.62763" lon="6.8236">
        <ele>1341</ele>
        <time>2021-05-27T11:21:45Z</time>
      </trkpt>
      <trkpt lat="45.62769" lon="6.8236">
        <ele>1341.2</ele>
        <time>2021-05-27T11:21:46Z</time>
      </trkpt>
      <trkpt lat="45.62773" lon="6.8236">
        <ele>1341.4</ele>
        <time>2021-05-27T11:21:47Z</time>
      </trkpt>
      <trkpt lat="45.62778" lon="6.8236">
        <ele>1341.6</ele>
        <time>2021-05-27T11:21:48Z</time>
      </trkpt>
      <trkpt lat="45.62783" lon="6.82359">
        <ele>1341.8</ele>
        <time>2021-05-27T11:21:49Z</time>
      </trkpt>
      <trkpt lat="45.62788" lon="6.82358">
        <ele>1342</ele>
        <time>2021-05-27T11:21:50Z</time>
      </trkpt>
      <trkpt lat="45.62793" lon="6.82357">
        <ele>1342.2</ele>
        <time>2021-05-27T11:21:51Z</time>
      </trkpt>
      <trkpt lat="45.62798" lon="6.82357">
        <ele>1342.2</ele>
        <time>2021-05-27T11:21:52Z</time>
      </trkpt>
      <trkpt lat="45.62803" lon="6.82356">
        <ele>1342.4</ele>
        <time>2021-05-27T11:21:53Z</time>
      </trkpt>
      <trkpt lat="45.62809" lon="6.82356">
        <ele>1342.4</ele>
        <time>2021-05-27T11:21:54Z</time>
      </trkpt>
      <trkpt lat="45.62814" lon="6.82355">
        <ele>1342.6</ele>
        <time>2021-05-27T11:21:55Z</time>
      </trkpt>
      <trkpt lat="45.62818" lon="6.82355">
        <ele>1342.8</ele>
        <time>2021-05-27T11:21:56Z</time>
      </trkpt>
      <trkpt lat="45.62823" lon="6.82355">
        <ele>1342.8</ele>
        <time>2021-05-27T11:21:57Z</time>
      </trkpt>
      <trkpt lat="45.62828" lon="6.82355">
        <ele>1342.8</ele>
        <time>2021-05-27T11:21:58Z</time>
      </trkpt>
      <trkpt lat="45.62833" lon="6.82354">
        <ele>1343</ele>
        <time>2021-05-27T11:21:59Z</time>
      </trkpt>
      <trkpt lat="45.62838" lon="6.82353">
        <ele>1343.2</ele>
        <time>2021-05-27T11:22:00Z</time>
      </trkpt>
      <trkpt lat="45.62844" lon="6.82352">
        <ele>1343.2</ele>
        <time>2021-05-27T11:22:01Z</time>
      </trkpt>
      <trkpt lat="45.62847" lon="6.82351">
        <ele>1343.4</ele>
        <time>2021-05-27T11:22:02Z</time>
      </trkpt>
      <trkpt lat="45.62853" lon="6.8235">
        <ele>1343.4</ele>
        <time>2021-05-27T11:22:03Z</time>
      </trkpt>
      <trkpt lat="45.62858" lon="6.82349">
        <ele>1343.8</ele>
        <time>2021-05-27T11:22:04Z</time>
      </trkpt>
      <trkpt lat="45.62862" lon="6.82348">
        <ele>1343.8</ele>
        <time>2021-05-27T11:22:05Z</time>
      </trkpt>
      <trkpt lat="45.62867" lon="6.82346">
        <ele>1344</ele>
        <time>2021-05-27T11:22:06Z</time>
      </trkpt>
      <trkpt lat="45.62871" lon="6.82344">
        <ele>1343.8</ele>
        <time>2021-05-27T11:22:07Z</time>
      </trkpt>
      <trkpt lat="45.62876" lon="6.8234">
        <ele>1343.8</ele>
        <time>2021-05-27T11:22:08Z</time>
      </trkpt>
      <trkpt lat="45.6288" lon="6.82337">
        <ele>1343.8</ele>
        <time>2021-05-27T11:22:09Z</time>
      </trkpt>
      <trkpt lat="45.62884" lon="6.82334">
        <ele>1343.8</ele>
        <time>2021-05-27T11:22:10Z</time>
      </trkpt>
      <trkpt lat="45.62888" lon="6.82329">
        <ele>1343.8</ele>
        <time>2021-05-27T11:22:11Z</time>
      </trkpt>
      <trkpt lat="45.62892" lon="6.82325">
        <ele>1344</ele>
        <time>2021-05-27T11:22:12Z</time>
      </trkpt>
      <trkpt lat="45.62896" lon="6.8232">
        <ele>1344.4</ele>
        <time>2021-05-27T11:22:13Z</time>
      </trkpt>
      <trkpt lat="45.62899" lon="6.82315">
        <ele>1344.4</ele>
        <time>2021-05-27T11:22:14Z</time>
      </trkpt>
      <trkpt lat="45.62902" lon="6.8231">
        <ele>1344.6</ele>
        <time>2021-05-27T11:22:15Z</time>
      </trkpt>
      <trkpt lat="45.62906" lon="6.82304">
        <ele>1345</ele>
        <time>2021-05-27T11:22:16Z</time>
      </trkpt>
      <trkpt lat="45.62908" lon="6.823">
        <ele>1345</ele>
        <time>2021-05-27T11:22:17Z</time>
      </trkpt>
      <trkpt lat="45.62912" lon="6.82294">
        <ele>1345</ele>
        <time>2021-05-27T11:22:18Z</time>
      </trkpt>
      <trkpt lat="45.62915" lon="6.82289">
        <ele>1345.2</ele>
        <time>2021-05-27T11:22:19Z</time>
      </trkpt>
      <trkpt lat="45.62918" lon="6.82284">
        <ele>1345.2</ele>
        <time>2021-05-27T11:22:20Z</time>
      </trkpt>
      <trkpt lat="45.62921" lon="6.82279">
        <ele>1345.4</ele>
        <time>2021-05-27T11:22:21Z</time>
      </trkpt>
      <trkpt lat="45.62924" lon="6.82274">
        <ele>1345.4</ele>
        <time>2021-05-27T11:22:22Z</time>
      </trkpt>
      <trkpt lat="45.62928" lon="6.8227">
        <ele>1345.8</ele>
        <time>2021-05-27T11:22:23Z</time>
      </trkpt>
      <trkpt lat="45.62932" lon="6.82267">
        <ele>1346</ele>
        <time>2021-05-27T11:22:24Z</time>
      </trkpt>
      <trkpt lat="45.62936" lon="6.82264">
        <ele>1346</ele>
        <time>2021-05-27T11:22:25Z</time>
      </trkpt>
      <trkpt lat="45.6294" lon="6.8226">
        <ele>1346</ele>
        <time>2021-05-27T11:22:26Z</time>
      </trkpt>
      <trkpt lat="45.62945" lon="6.82258">
        <ele>1346.2</ele>
        <time>2021-05-27T11:22:27Z</time>
      </trkpt>
      <trkpt lat="45.62949" lon="6.82255">
        <ele>1346.4</ele>
        <time>2021-05-27T11:22:28Z</time>
      </trkpt>
      <trkpt lat="45.62954" lon="6.82254">
        <ele>1346.4</ele>
        <time>2021-05-27T11:22:29Z</time>
      </trkpt>
      <trkpt lat="45.62959" lon="6.82253">
        <ele>1346.4</ele>
        <time>2021-05-27T11:22:30Z</time>
      </trkpt>
      <trkpt lat="45.62964" lon="6.82254">
        <ele>1346.4</ele>
        <time>2021-05-27T11:22:31Z</time>
      </trkpt>
      <trkpt lat="45.62969" lon="6.82256">
        <ele>1346.2</ele>
        <time>2021-05-27T11:22:32Z</time>
      </trkpt>
      <trkpt lat="45.62972" lon="6.82261">
        <ele>1346.2</ele>
        <time>2021-05-27T11:22:33Z</time>
      </trkpt>
      <trkpt lat="45.62973" lon="6.82268">
        <ele>1346.2</ele>
        <time>2021-05-27T11:22:34Z</time>
      </trkpt>
      <trkpt lat="45.62971" lon="6.82274">
        <ele>1346</ele>
        <time>2021-05-27T11:22:35Z</time>
      </trkpt>
      <trkpt lat="45.62967" lon="6.82277">
        <ele>1346</ele>
        <time>2021-05-27T11:22:36Z</time>
      </trkpt>
      <trkpt lat="45.62962" lon="6.82278">
        <ele>1346.2</ele>
        <time>2021-05-27T11:22:37Z</time>
      </trkpt>
      <trkpt lat="45.62956" lon="6.8228">
        <ele>1346.6</ele>
        <time>2021-05-27T11:22:38Z</time>
      </trkpt>
      <trkpt lat="45.62951" lon="6.82282">
        <ele>1347</ele>
        <time>2021-05-27T11:22:39Z</time>
      </trkpt>
      <trkpt lat="45.62945" lon="6.82284">
        <ele>1347.4</ele>
        <time>2021-05-27T11:22:40Z</time>
      </trkpt>
      <trkpt lat="45.6294" lon="6.82286">
        <ele>1347.8</ele>
        <time>2021-05-27T11:22:41Z</time>
      </trkpt>
      <trkpt lat="45.62934" lon="6.82289">
        <ele>1348</ele>
        <time>2021-05-27T11:22:42Z</time>
      </trkpt>
      <trkpt lat="45.6293" lon="6.82293">
        <ele>1348.6</ele>
        <time>2021-05-27T11:22:43Z</time>
      </trkpt>
      <trkpt lat="45.62925" lon="6.82298">
        <ele>1349</ele>
        <time>2021-05-27T11:22:44Z</time>
      </trkpt>
      <trkpt lat="45.62922" lon="6.82302">
        <ele>1349.4</ele>
        <time>2021-05-27T11:22:45Z</time>
      </trkpt>
      <trkpt lat="45.62918" lon="6.82307">
        <ele>1349.8</ele>
        <time>2021-05-27T11:22:46Z</time>
      </trkpt>
      <trkpt lat="45.62916" lon="6.82313">
        <ele>1350.4</ele>
        <time>2021-05-27T11:22:47Z</time>
      </trkpt>
      <trkpt lat="45.62913" lon="6.82319">
        <ele>1350.8</ele>
        <time>2021-05-27T11:22:48Z</time>
      </trkpt>
      <trkpt lat="45.6291" lon="6.82325">
        <ele>1351.2</ele>
        <time>2021-05-27T11:22:49Z</time>
      </trkpt>
      <trkpt lat="45.62908" lon="6.8233">
        <ele>1351.6</ele>
        <time>2021-05-27T11:22:50Z</time>
      </trkpt>
      <trkpt lat="45.62905" lon="6.82336">
        <ele>1352.2</ele>
        <time>2021-05-27T11:22:51Z</time>
      </trkpt>
      <trkpt lat="45.62902" lon="6.82342">
        <ele>1352.4</ele>
        <time>2021-05-27T11:22:52Z</time>
      </trkpt>
      <trkpt lat="45.629" lon="6.82347">
        <ele>1353.2</ele>
        <time>2021-05-27T11:22:53Z</time>
      </trkpt>
      <trkpt lat="45.62896" lon="6.82353">
        <ele>1353.6</ele>
        <time>2021-05-27T11:22:54Z</time>
      </trkpt>
      <trkpt lat="45.62894" lon="6.82359">
        <ele>1354.2</ele>
        <time>2021-05-27T11:22:55Z</time>
      </trkpt>
      <trkpt lat="45.62891" lon="6.82365">
        <ele>1354.4</ele>
        <time>2021-05-27T11:22:56Z</time>
      </trkpt>
      <trkpt lat="45.62886" lon="6.8237">
        <ele>1354.6</ele>
        <time>2021-05-27T11:22:57Z</time>
      </trkpt>
      <trkpt lat="45.62882" lon="6.82373">
        <ele>1355</ele>
        <time>2021-05-27T11:22:58Z</time>
      </trkpt>
      <trkpt lat="45.62878" lon="6.82376">
        <ele>1355.2</ele>
        <time>2021-05-27T11:22:59Z</time>
      </trkpt>
      <trkpt lat="45.62874" lon="6.82378">
        <ele>1355.6</ele>
        <time>2021-05-27T11:23:00Z</time>
      </trkpt>
      <trkpt lat="45.62869" lon="6.82379">
        <ele>1355.6</ele>
        <time>2021-05-27T11:23:01Z</time>
      </trkpt>
      <trkpt lat="45.62864" lon="6.82381">
        <ele>1356</ele>
        <time>2021-05-27T11:23:02Z</time>
      </trkpt>
      <trkpt lat="45.6286" lon="6.82382">
        <ele>1356.4</ele>
        <time>2021-05-27T11:23:03Z</time>
      </trkpt>
      <trkpt lat="45.62855" lon="6.82383">
        <ele>1356.6</ele>
        <time>2021-05-27T11:23:04Z</time>
      </trkpt>
      <trkpt lat="45.62851" lon="6.82385">
        <ele>1357</ele>
        <time>2021-05-27T11:23:05Z</time>
      </trkpt>
      <trkpt lat="45.62846" lon="6.82386">
        <ele>1357.2</ele>
        <time>2021-05-27T11:23:06Z</time>
      </trkpt>
      <trkpt lat="45.62841" lon="6.82388">
        <ele>1357.8</ele>
        <time>2021-05-27T11:23:07Z</time>
      </trkpt>
      <trkpt lat="45.62837" lon="6.82389">
        <ele>1358.4</ele>
        <time>2021-05-27T11:23:08Z</time>
      </trkpt>
      <trkpt lat="45.62832" lon="6.8239">
        <ele>1358.6</ele>
        <time>2021-05-27T11:23:09Z</time>
      </trkpt>
      <trkpt lat="45.62827" lon="6.82392">
        <ele>1359</ele>
        <time>2021-05-27T11:23:10Z</time>
      </trkpt>
      <trkpt lat="45.62822" lon="6.82393">
        <ele>1359.4</ele>
        <time>2021-05-27T11:23:11Z</time>
      </trkpt>
      <trkpt lat="45.62818" lon="6.82395">
        <ele>1359.8</ele>
        <time>2021-05-27T11:23:12Z</time>
      </trkpt>
      <trkpt lat="45.62813" lon="6.82397">
        <ele>1360</ele>
        <time>2021-05-27T11:23:13Z</time>
      </trkpt>
      <trkpt lat="45.62808" lon="6.82399">
        <ele>1360.2</ele>
        <time>2021-05-27T11:23:14Z</time>
      </trkpt>
      <trkpt lat="45.62804" lon="6.82402">
        <ele>1360.6</ele>
        <time>2021-05-27T11:23:15Z</time>
      </trkpt>
      <trkpt lat="45.628" lon="6.82404">
        <ele>1360.8</ele>
        <time>2021-05-27T11:23:16Z</time>
      </trkpt>
      <trkpt lat="45.62796" lon="6.82407">
        <ele>1361</ele>
        <time>2021-05-27T11:23:17Z</time>
      </trkpt>
      <trkpt lat="45.62791" lon="6.82409">
        <ele>1361.2</ele>
        <time>2021-05-27T11:23:18Z</time>
      </trkpt>
      <trkpt lat="45.62787" lon="6.82412">
        <ele>1361.4</ele>
        <time>2021-05-27T11:23:19Z</time>
      </trkpt>
      <trkpt lat="45.62783" lon="6.82415">
        <ele>1361.6</ele>
        <time>2021-05-27T11:23:20Z</time>
      </trkpt>
      <trkpt lat="45.62779" lon="6.82417">
        <ele>1361.8</ele>
        <time>2021-05-27T11:23:21Z</time>
      </trkpt>
      <trkpt lat="45.62775" lon="6.8242">
        <ele>1362.2</ele>
        <time>2021-05-27T11:23:22Z</time>
      </trkpt>
      <trkpt lat="45.62771" lon="6.82423">
        <ele>1362.6</ele>
        <time>2021-05-27T11:23:23Z</time>
      </trkpt>
      <trkpt lat="45.62767" lon="6.82426">
        <ele>1363</ele>
        <time>2021-05-27T11:23:24Z</time>
      </trkpt>
      <trkpt lat="45.62763" lon="6.82429">
        <ele>1363.4</ele>
        <time>2021-05-27T11:23:25Z</time>
      </trkpt>
      <trkpt lat="45.62759" lon="6.82431">
        <ele>1363.8</ele>
        <time>2021-05-27T11:23:26Z</time>
      </trkpt>
      <trkpt lat="45.62754" lon="6.82434">
        <ele>1363.8</ele>
        <time>2021-05-27T11:23:27Z</time>
      </trkpt>
      <trkpt lat="45.62749" lon="6.82436">
        <ele>1363.8</ele>
        <time>2021-05-27T11:23:28Z</time>
      </trkpt>
      <trkpt lat="45.62745" lon="6.82438">
        <ele>1364</ele>
        <time>2021-05-27T11:23:29Z</time>
      </trkpt>
      <trkpt lat="45.62741" lon="6.82439">
        <ele>1364.2</ele>
        <time>2021-05-27T11:23:30Z</time>
      </trkpt>
      <trkpt lat="45.62737" lon="6.82441">
        <ele>1364.2</ele>
        <time>2021-05-27T11:23:31Z</time>
      </trkpt>
      <trkpt lat="45.62732" lon="6.82442">
        <ele>1364.6</ele>
        <time>2021-05-27T11:23:32Z</time>
      </trkpt>
      <trkpt lat="45.62727" lon="6.82442">
        <ele>1364.8</ele>
        <time>2021-05-27T11:23:33Z</time>
      </trkpt>
      <trkpt lat="45.62722" lon="6.82442">
        <ele>1365.4</ele>
        <time>2021-05-27T11:23:34Z</time>
      </trkpt>
      <trkpt lat="45.62718" lon="6.82443">
        <ele>1365.8</ele>
        <time>2021-05-27T11:23:35Z</time>
      </trkpt>
      <trkpt lat="45.62714" lon="6.82444">
        <ele>1366</ele>
        <time>2021-05-27T11:23:36Z</time>
      </trkpt>
      <trkpt lat="45.6271" lon="6.82445">
        <ele>1366.4</ele>
        <time>2021-05-27T11:23:37Z</time>
      </trkpt>
      <trkpt lat="45.62706" lon="6.82446">
        <ele>1366.6</ele>
        <time>2021-05-27T11:23:38Z</time>
      </trkpt>
      <trkpt lat="45.62701" lon="6.82446">
        <ele>1367</ele>
        <time>2021-05-27T11:23:39Z</time>
      </trkpt>
      <trkpt lat="45.62696" lon="6.82448">
        <ele>1367.4</ele>
        <time>2021-05-27T11:23:40Z</time>
      </trkpt>
      <trkpt lat="45.62691" lon="6.82449">
        <ele>1367.8</ele>
        <time>2021-05-27T11:23:41Z</time>
      </trkpt>
      <trkpt lat="45.62686" lon="6.82452">
        <ele>1368.2</ele>
        <time>2021-05-27T11:23:42Z</time>
      </trkpt>
      <trkpt lat="45.62682" lon="6.82453">
        <ele>1368.4</ele>
        <time>2021-05-27T11:23:43Z</time>
      </trkpt>
      <trkpt lat="45.62677" lon="6.82456">
        <ele>1368.6</ele>
        <time>2021-05-27T11:23:44Z</time>
      </trkpt>
      <trkpt lat="45.62672" lon="6.82457">
        <ele>1368.8</ele>
        <time>2021-05-27T11:23:45Z</time>
      </trkpt>
      <trkpt lat="45.62668" lon="6.82461">
        <ele>1369.2</ele>
        <time>2021-05-27T11:23:46Z</time>
      </trkpt>
      <trkpt lat="45.62664" lon="6.82463">
        <ele>1369.8</ele>
        <time>2021-05-27T11:23:47Z</time>
      </trkpt>
      <trkpt lat="45.6266" lon="6.82466">
        <ele>1370</ele>
        <time>2021-05-27T11:23:48Z</time>
      </trkpt>
      <trkpt lat="45.62655" lon="6.8247">
        <ele>1370</ele>
        <time>2021-05-27T11:23:49Z</time>
      </trkpt>
      <trkpt lat="45.62651" lon="6.82473">
        <ele>1369.6</ele>
        <time>2021-05-27T11:23:50Z</time>
      </trkpt>
      <trkpt lat="45.62646" lon="6.82476">
        <ele>1369.2</ele>
        <time>2021-05-27T11:23:51Z</time>
      </trkpt>
      <trkpt lat="45.62643" lon="6.82479">
        <ele>1368.6</ele>
        <time>2021-05-27T11:23:52Z</time>
      </trkpt>
      <trkpt lat="45.62639" lon="6.82481">
        <ele>1368.2</ele>
        <time>2021-05-27T11:23:53Z</time>
      </trkpt>
      <trkpt lat="45.62632" lon="6.82484">
        <ele>1367.6</ele>
        <time>2021-05-27T11:23:54Z</time>
      </trkpt>
      <trkpt lat="45.62626" lon="6.82488">
        <ele>1367</ele>
        <time>2021-05-27T11:23:55Z</time>
      </trkpt>
      <trkpt lat="45.62623" lon="6.82492">
        <ele>1366.8</ele>
        <time>2021-05-27T11:23:56Z</time>
      </trkpt>
      <trkpt lat="45.6262" lon="6.82493">
        <ele>1366.2</ele>
        <time>2021-05-27T11:23:57Z</time>
      </trkpt>
      <trkpt lat="45.62615" lon="6.82495">
        <ele>1365.8</ele>
        <time>2021-05-27T11:23:58Z</time>
      </trkpt>
      <trkpt lat="45.6261" lon="6.82498">
        <ele>1365.4</ele>
        <time>2021-05-27T11:23:59Z</time>
      </trkpt>
      <trkpt lat="45.62606" lon="6.82501">
        <ele>1365</ele>
        <time>2021-05-27T11:24:00Z</time>
      </trkpt>
      <trkpt lat="45.62602" lon="6.82505">
        <ele>1364.4</ele>
        <time>2021-05-27T11:24:01Z</time>
      </trkpt>
      <trkpt lat="45.62599" lon="6.82509">
        <ele>1364</ele>
        <time>2021-05-27T11:24:02Z</time>
      </trkpt>
      <trkpt lat="45.62595" lon="6.82512">
        <ele>1363.4</ele>
        <time>2021-05-27T11:24:03Z</time>
      </trkpt>
      <trkpt lat="45.6259" lon="6.82515">
        <ele>1363.2</ele>
        <time>2021-05-27T11:24:04Z</time>
      </trkpt>
      <trkpt lat="45.62586" lon="6.82518">
        <ele>1362.6</ele>
        <time>2021-05-27T11:24:05Z</time>
      </trkpt>
      <trkpt lat="45.62582" lon="6.82522">
        <ele>1362.4</ele>
        <time>2021-05-27T11:24:06Z</time>
      </trkpt>
      <trkpt lat="45.62579" lon="6.82526">
        <ele>1362.2</ele>
        <time>2021-05-27T11:24:07Z</time>
      </trkpt>
      <trkpt lat="45.62576" lon="6.8253">
        <ele>1362</ele>
        <time>2021-05-27T11:24:08Z</time>
      </trkpt>
      <trkpt lat="45.62574" lon="6.82534">
        <ele>1362</ele>
        <time>2021-05-27T11:24:09Z</time>
      </trkpt>
      <trkpt lat="45.62571" lon="6.82538">
        <ele>1361.8</ele>
        <time>2021-05-27T11:24:10Z</time>
      </trkpt>
      <trkpt lat="45.62568" lon="6.82542">
        <ele>1361.6</ele>
        <time>2021-05-27T11:24:11Z</time>
      </trkpt>
      <trkpt lat="45.62565" lon="6.82545">
        <ele>1361.6</ele>
        <time>2021-05-27T11:24:12Z</time>
      </trkpt>
      <trkpt lat="45.62561" lon="6.82548">
        <ele>1361.6</ele>
        <time>2021-05-27T11:24:13Z</time>
      </trkpt>
      <trkpt lat="45.62558" lon="6.82551">
        <ele>1361.8</ele>
        <time>2021-05-27T11:24:14Z</time>
      </trkpt>
      <trkpt lat="45.62555" lon="6.82554">
        <ele>1361.6</ele>
        <time>2021-05-27T11:24:15Z</time>
      </trkpt>
      <trkpt lat="45.62551" lon="6.82557">
        <ele>1361.6</ele>
        <time>2021-05-27T11:24:16Z</time>
      </trkpt>
      <trkpt lat="45.62549" lon="6.8256">
        <ele>1361.6</ele>
        <time>2021-05-27T11:24:17Z</time>
      </trkpt>
      <trkpt lat="45.62545" lon="6.82565">
        <ele>1361.6</ele>
        <time>2021-05-27T11:24:18Z</time>
      </trkpt>
      <trkpt lat="45.62542" lon="6.82569">
        <ele>1361.4</ele>
        <time>2021-05-27T11:24:19Z</time>
      </trkpt>
      <trkpt lat="45.62539" lon="6.82574">
        <ele>1361.6</ele>
        <time>2021-05-27T11:24:20Z</time>
      </trkpt>
      <trkpt lat="45.62535" lon="6.82579">
        <ele>1361.6</ele>
        <time>2021-05-27T11:24:21Z</time>
      </trkpt>
      <trkpt lat="45.62532" lon="6.82585">
        <ele>1361.8</ele>
        <time>2021-05-27T11:24:22Z</time>
      </trkpt>
      <trkpt lat="45.62529" lon="6.82591">
        <ele>1361.8</ele>
        <time>2021-05-27T11:24:23Z</time>
      </trkpt>
      <trkpt lat="45.62526" lon="6.82597">
        <ele>1361.8</ele>
        <time>2021-05-27T11:24:24Z</time>
      </trkpt>
      <trkpt lat="45.62523" lon="6.82603">
        <ele>1362.2</ele>
        <time>2021-05-27T11:24:25Z</time>
      </trkpt>
      <trkpt lat="45.62519" lon="6.8261">
        <ele>1362.8</ele>
        <time>2021-05-27T11:24:26Z</time>
      </trkpt>
      <trkpt lat="45.62517" lon="6.82616">
        <ele>1363.4</ele>
        <time>2021-05-27T11:24:27Z</time>
      </trkpt>
      <trkpt lat="45.62514" lon="6.82622">
        <ele>1363.8</ele>
        <time>2021-05-27T11:24:28Z</time>
      </trkpt>
      <trkpt lat="45.62511" lon="6.82628">
        <ele>1363.8</ele>
        <time>2021-05-27T11:24:29Z</time>
      </trkpt>
      <trkpt lat="45.62508" lon="6.82635">
        <ele>1364.2</ele>
        <time>2021-05-27T11:24:30Z</time>
      </trkpt>
      <trkpt lat="45.62506" lon="6.8264">
        <ele>1364.4</ele>
        <time>2021-05-27T11:24:31Z</time>
      </trkpt>
      <trkpt lat="45.62503" lon="6.82647">
        <ele>1364.6</ele>
        <time>2021-05-27T11:24:32Z</time>
      </trkpt>
      <trkpt lat="45.625" lon="6.82653">
        <ele>1364.8</ele>
        <time>2021-05-27T11:24:33Z</time>
      </trkpt>
      <trkpt lat="45.62497" lon="6.82659">
        <ele>1365</ele>
        <time>2021-05-27T11:24:34Z</time>
      </trkpt>
      <trkpt lat="45.62495" lon="6.82665">
        <ele>1365.4</ele>
        <time>2021-05-27T11:24:35Z</time>
      </trkpt>
      <trkpt lat="45.62492" lon="6.82671">
        <ele>1365.8</ele>
        <time>2021-05-27T11:24:36Z</time>
      </trkpt>
      <trkpt lat="45.62489" lon="6.82677">
        <ele>1366.4</ele>
        <time>2021-05-27T11:24:37Z</time>
      </trkpt>
      <trkpt lat="45.62487" lon="6.82682">
        <ele>1367</ele>
        <time>2021-05-27T11:24:38Z</time>
      </trkpt>
      <trkpt lat="45.62486" lon="6.82689">
        <ele>1367.6</ele>
        <time>2021-05-27T11:24:39Z</time>
      </trkpt>
      <trkpt lat="45.62485" lon="6.82695">
        <ele>1368.2</ele>
        <time>2021-05-27T11:24:40Z</time>
      </trkpt>
      <trkpt lat="45.62484" lon="6.82702">
        <ele>1368.8</ele>
        <time>2021-05-27T11:24:41Z</time>
      </trkpt>
      <trkpt lat="45.62485" lon="6.8271">
        <ele>1369.2</ele>
        <time>2021-05-27T11:24:42Z</time>
      </trkpt>
      <trkpt lat="45.62486" lon="6.82718">
        <ele>1369.8</ele>
        <time>2021-05-27T11:24:43Z</time>
      </trkpt>
      <trkpt lat="45.62487" lon="6.82724">
        <ele>1370.4</ele>
        <time>2021-05-27T11:24:44Z</time>
      </trkpt>
      <trkpt lat="45.62489" lon="6.82731">
        <ele>1371.2</ele>
        <time>2021-05-27T11:24:45Z</time>
      </trkpt>
      <trkpt lat="45.62492" lon="6.82736">
        <ele>1372</ele>
        <time>2021-05-27T11:24:46Z</time>
      </trkpt>
      <trkpt lat="45.62496" lon="6.82742">
        <ele>1372.8</ele>
        <time>2021-05-27T11:24:47Z</time>
      </trkpt>
      <trkpt lat="45.62499" lon="6.82748">
        <ele>1373.6</ele>
        <time>2021-05-27T11:24:48Z</time>
      </trkpt>
      <trkpt lat="45.62501" lon="6.82753">
        <ele>1374.4</ele>
        <time>2021-05-27T11:24:49Z</time>
      </trkpt>
      <trkpt lat="45.62503" lon="6.82759">
        <ele>1375</ele>
        <time>2021-05-27T11:24:50Z</time>
      </trkpt>
      <trkpt lat="45.62506" lon="6.82764">
        <ele>1375.4</ele>
        <time>2021-05-27T11:24:51Z</time>
      </trkpt>
      <trkpt lat="45.62508" lon="6.8277">
        <ele>1375.8</ele>
        <time>2021-05-27T11:24:52Z</time>
      </trkpt>
      <trkpt lat="45.62511" lon="6.82776">
        <ele>1376.2</ele>
        <time>2021-05-27T11:24:53Z</time>
      </trkpt>
      <trkpt lat="45.62513" lon="6.82783">
        <ele>1376.2</ele>
        <time>2021-05-27T11:24:54Z</time>
      </trkpt>
      <trkpt lat="45.62515" lon="6.82789">
        <ele>1376.6</ele>
        <time>2021-05-27T11:24:55Z</time>
      </trkpt>
      <trkpt lat="45.62517" lon="6.82795">
        <ele>1376.8</ele>
        <time>2021-05-27T11:24:56Z</time>
      </trkpt>
      <trkpt lat="45.62518" lon="6.82801">
        <ele>1376.8</ele>
        <time>2021-05-27T11:24:57Z</time>
      </trkpt>
      <trkpt lat="45.62519" lon="6.82807">
        <ele>1376.8</ele>
        <time>2021-05-27T11:24:58Z</time>
      </trkpt>
      <trkpt lat="45.6252" lon="6.82813">
        <ele>1376.6</ele>
        <time>2021-05-27T11:24:59Z</time>
      </trkpt>
      <trkpt lat="45.6252" lon="6.8282">
        <ele>1376.8</ele>
        <time>2021-05-27T11:25:00Z</time>
      </trkpt>
      <trkpt lat="45.62521" lon="6.82826">
        <ele>1376.6</ele>
        <time>2021-05-27T11:25:01Z</time>
      </trkpt>
      <trkpt lat="45.62521" lon="6.82833">
        <ele>1376.6</ele>
        <time>2021-05-27T11:25:02Z</time>
      </trkpt>
      <trkpt lat="45.62521" lon="6.8284">
        <ele>1376.8</ele>
        <time>2021-05-27T11:25:03Z</time>
      </trkpt>
      <trkpt lat="45.6252" lon="6.82846">
        <ele>1377</ele>
        <time>2021-05-27T11:25:04Z</time>
      </trkpt>
      <trkpt lat="45.6252" lon="6.82852">
        <ele>1377.2</ele>
        <time>2021-05-27T11:25:05Z</time>
      </trkpt>
      <trkpt lat="45.62519" lon="6.82859">
        <ele>1377.6</ele>
        <time>2021-05-27T11:25:06Z</time>
      </trkpt>
      <trkpt lat="45.62519" lon="6.82865">
        <ele>1377.8</ele>
        <time>2021-05-27T11:25:07Z</time>
      </trkpt>
      <trkpt lat="45.62518" lon="6.82872">
        <ele>1378</ele>
        <time>2021-05-27T11:25:08Z</time>
      </trkpt>
      <trkpt lat="45.62517" lon="6.82878">
        <ele>1378.2</ele>
        <time>2021-05-27T11:25:09Z</time>
      </trkpt>
      <trkpt lat="45.62516" lon="6.82885">
        <ele>1378.6</ele>
        <time>2021-05-27T11:25:10Z</time>
      </trkpt>
      <trkpt lat="45.62515" lon="6.82891">
        <ele>1378.6</ele>
        <time>2021-05-27T11:25:11Z</time>
      </trkpt>
      <trkpt lat="45.62513" lon="6.82897">
        <ele>1378.8</ele>
        <time>2021-05-27T11:25:12Z</time>
      </trkpt>
      <trkpt lat="45.62513" lon="6.82903">
        <ele>1378.8</ele>
        <time>2021-05-27T11:25:13Z</time>
      </trkpt>
      <trkpt lat="45.62512" lon="6.8291">
        <ele>1379.2</ele>
        <time>2021-05-27T11:25:14Z</time>
      </trkpt>
      <trkpt lat="45.62512" lon="6.82916">
        <ele>1379.2</ele>
        <time>2021-05-27T11:25:15Z</time>
      </trkpt>
      <trkpt lat="45.62512" lon="6.82922">
        <ele>1379.4</ele>
        <time>2021-05-27T11:25:16Z</time>
      </trkpt>
      <trkpt lat="45.62511" lon="6.82929">
        <ele>1379.8</ele>
        <time>2021-05-27T11:25:17Z</time>
      </trkpt>
      <trkpt lat="45.62511" lon="6.82936">
        <ele>1380.4</ele>
        <time>2021-05-27T11:25:18Z</time>
      </trkpt>
      <trkpt lat="45.62511" lon="6.82942">
        <ele>1381.4</ele>
        <time>2021-05-27T11:25:19Z</time>
      </trkpt>
      <trkpt lat="45.6251" lon="6.82949">
        <ele>1382</ele>
        <time>2021-05-27T11:25:20Z</time>
      </trkpt>
      <trkpt lat="45.6251" lon="6.82956">
        <ele>1382.8</ele>
        <time>2021-05-27T11:25:21Z</time>
      </trkpt>
      <trkpt lat="45.62509" lon="6.82962">
        <ele>1383.6</ele>
        <time>2021-05-27T11:25:22Z</time>
      </trkpt>
      <trkpt lat="45.62509" lon="6.82969">
        <ele>1384.4</ele>
        <time>2021-05-27T11:25:23Z</time>
      </trkpt>
      <trkpt lat="45.62509" lon="6.82976">
        <ele>1385</ele>
        <time>2021-05-27T11:25:24Z</time>
      </trkpt>
      <trkpt lat="45.62509" lon="6.82983">
        <ele>1385.6</ele>
        <time>2021-05-27T11:25:25Z</time>
      </trkpt>
      <trkpt lat="45.62509" lon="6.8299">
        <ele>1386.4</ele>
        <time>2021-05-27T11:25:26Z</time>
      </trkpt>
      <trkpt lat="45.62509" lon="6.82996">
        <ele>1386.8</ele>
        <time>2021-05-27T11:25:27Z</time>
      </trkpt>
      <trkpt lat="45.6251" lon="6.83003">
        <ele>1387.4</ele>
        <time>2021-05-27T11:25:28Z</time>
      </trkpt>
      <trkpt lat="45.62511" lon="6.8301">
        <ele>1388.2</ele>
        <time>2021-05-27T11:25:29Z</time>
      </trkpt>
      <trkpt lat="45.62513" lon="6.83016">
        <ele>1389</ele>
        <time>2021-05-27T11:25:30Z</time>
      </trkpt>
      <trkpt lat="45.62516" lon="6.83021">
        <ele>1389.6</ele>
        <time>2021-05-27T11:25:31Z</time>
      </trkpt>
      <trkpt lat="45.62519" lon="6.83026">
        <ele>1390.4</ele>
        <time>2021-05-27T11:25:32Z</time>
      </trkpt>
      <trkpt lat="45.62523" lon="6.83032">
        <ele>1391.4</ele>
        <time>2021-05-27T11:25:33Z</time>
      </trkpt>
      <trkpt lat="45.62525" lon="6.83036">
        <ele>1392.2</ele>
        <time>2021-05-27T11:25:34Z</time>
      </trkpt>
      <trkpt lat="45.62529" lon="6.83042">
        <ele>1392.6</ele>
        <time>2021-05-27T11:25:35Z</time>
      </trkpt>
      <trkpt lat="45.62532" lon="6.83048">
        <ele>1393.2</ele>
        <time>2021-05-27T11:25:36Z</time>
      </trkpt>
      <trkpt lat="45.62535" lon="6.83054">
        <ele>1393.4</ele>
        <time>2021-05-27T11:25:37Z</time>
      </trkpt>
      <trkpt lat="45.62538" lon="6.8306">
        <ele>1393.4</ele>
        <time>2021-05-27T11:25:38Z</time>
      </trkpt>
      <trkpt lat="45.62541" lon="6.83066">
        <ele>1393.4</ele>
        <time>2021-05-27T11:25:39Z</time>
      </trkpt>
      <trkpt lat="45.62543" lon="6.83072">
        <ele>1393.2</ele>
        <time>2021-05-27T11:25:40Z</time>
      </trkpt>
      <trkpt lat="45.62546" lon="6.83079">
        <ele>1393.2</ele>
        <time>2021-05-27T11:25:41Z</time>
      </trkpt>
      <trkpt lat="45.62548" lon="6.83086">
        <ele>1393</ele>
        <time>2021-05-27T11:25:42Z</time>
      </trkpt>
      <trkpt lat="45.62549" lon="6.83092">
        <ele>1392.8</ele>
        <time>2021-05-27T11:25:43Z</time>
      </trkpt>
      <trkpt lat="45.62552" lon="6.83099">
        <ele>1392.4</ele>
        <time>2021-05-27T11:25:44Z</time>
      </trkpt>
      <trkpt lat="45.62554" lon="6.83106">
        <ele>1392.4</ele>
        <time>2021-05-27T11:25:45Z</time>
      </trkpt>
      <trkpt lat="45.62555" lon="6.83113">
        <ele>1392.4</ele>
        <time>2021-05-27T11:25:46Z</time>
      </trkpt>
      <trkpt lat="45.62555" lon="6.83121">
        <ele>1392.2</ele>
        <time>2021-05-27T11:25:47Z</time>
      </trkpt>
      <trkpt lat="45.62554" lon="6.83128">
        <ele>1392.4</ele>
        <time>2021-05-27T11:25:48Z</time>
      </trkpt>
      <trkpt lat="45.62552" lon="6.83136">
        <ele>1392.4</ele>
        <time>2021-05-27T11:25:49Z</time>
      </trkpt>
      <trkpt lat="45.62549" lon="6.83142">
        <ele>1392.8</ele>
        <time>2021-05-27T11:25:50Z</time>
      </trkpt>
      <trkpt lat="45.62546" lon="6.83147">
        <ele>1393</ele>
        <time>2021-05-27T11:25:51Z</time>
      </trkpt>
      <trkpt lat="45.62541" lon="6.83152">
        <ele>1393.2</ele>
        <time>2021-05-27T11:25:52Z</time>
      </trkpt>
      <trkpt lat="45.62537" lon="6.83156">
        <ele>1393.8</ele>
        <time>2021-05-27T11:25:53Z</time>
      </trkpt>
      <trkpt lat="45.62532" lon="6.8316">
        <ele>1393.8</ele>
        <time>2021-05-27T11:25:54Z</time>
      </trkpt>
      <trkpt lat="45.62526" lon="6.83163">
        <ele>1393.8</ele>
        <time>2021-05-27T11:25:55Z</time>
      </trkpt>
      <trkpt lat="45.62521" lon="6.83166">
        <ele>1394.2</ele>
        <time>2021-05-27T11:25:56Z</time>
      </trkpt>
      <trkpt lat="45.62515" lon="6.83169">
        <ele>1395</ele>
        <time>2021-05-27T11:25:57Z</time>
      </trkpt>
      <trkpt lat="45.6251" lon="6.83172">
        <ele>1396.2</ele>
        <time>2021-05-27T11:25:58Z</time>
      </trkpt>
      <trkpt lat="45.62507" lon="6.83175">
        <ele>1396.8</ele>
        <time>2021-05-27T11:25:59Z</time>
      </trkpt>
      <trkpt lat="45.62504" lon="6.8318">
        <ele>1397.8</ele>
        <time>2021-05-27T11:26:00Z</time>
      </trkpt>
      <trkpt lat="45.62503" lon="6.83186">
        <ele>1398.6</ele>
        <time>2021-05-27T11:26:01Z</time>
      </trkpt>
      <trkpt lat="45.62504" lon="6.8319">
        <ele>1399.6</ele>
        <time>2021-05-27T11:26:02Z</time>
      </trkpt>
      <trkpt lat="45.62507" lon="6.83192">
        <ele>1400.2</ele>
        <time>2021-05-27T11:26:03Z</time>
      </trkpt>
      <trkpt lat="45.62512" lon="6.83192">
        <ele>1401</ele>
        <time>2021-05-27T11:26:04Z</time>
      </trkpt>
      <trkpt lat="45.62517" lon="6.8319">
        <ele>1402</ele>
        <time>2021-05-27T11:26:05Z</time>
      </trkpt>
      <trkpt lat="45.62523" lon="6.83188">
        <ele>1402.6</ele>
        <time>2021-05-27T11:26:06Z</time>
      </trkpt>
      <trkpt lat="45.62528" lon="6.83186">
        <ele>1403.4</ele>
        <time>2021-05-27T11:26:07Z</time>
      </trkpt>
      <trkpt lat="45.62533" lon="6.83183">
        <ele>1404.2</ele>
        <time>2021-05-27T11:26:08Z</time>
      </trkpt>
      <trkpt lat="45.62538" lon="6.83179">
        <ele>1404.8</ele>
        <time>2021-05-27T11:26:09Z</time>
      </trkpt>
      <trkpt lat="45.62543" lon="6.83175">
        <ele>1405.4</ele>
        <time>2021-05-27T11:26:10Z</time>
      </trkpt>
      <trkpt lat="45.62549" lon="6.83171">
        <ele>1405.8</ele>
        <time>2021-05-27T11:26:11Z</time>
      </trkpt>
      <trkpt lat="45.62554" lon="6.83167">
        <ele>1406.2</ele>
        <time>2021-05-27T11:26:12Z</time>
      </trkpt>
      <trkpt lat="45.62559" lon="6.83162">
        <ele>1406.8</ele>
        <time>2021-05-27T11:26:13Z</time>
      </trkpt>
      <trkpt lat="45.62563" lon="6.83156">
        <ele>1407.2</ele>
        <time>2021-05-27T11:26:14Z</time>
      </trkpt>
      <trkpt lat="45.62566" lon="6.83148">
        <ele>1407.8</ele>
        <time>2021-05-27T11:26:15Z</time>
      </trkpt>
      <trkpt lat="45.62569" lon="6.83139">
        <ele>1408.2</ele>
        <time>2021-05-27T11:26:16Z</time>
      </trkpt>
      <trkpt lat="45.62571" lon="6.8313">
        <ele>1408.6</ele>
        <time>2021-05-27T11:26:17Z</time>
      </trkpt>
      <trkpt lat="45.62572" lon="6.83121">
        <ele>1409</ele>
        <time>2021-05-27T11:26:18Z</time>
      </trkpt>
      <trkpt lat="45.62572" lon="6.83113">
        <ele>1409.4</ele>
        <time>2021-05-27T11:26:19Z</time>
      </trkpt>
      <trkpt lat="45.62572" lon="6.83104">
        <ele>1409.8</ele>
        <time>2021-05-27T11:26:20Z</time>
      </trkpt>
      <trkpt lat="45.62572" lon="6.83094">
        <ele>1410.4</ele>
        <time>2021-05-27T11:26:21Z</time>
      </trkpt>
      <trkpt lat="45.62572" lon="6.83086">
        <ele>1410.8</ele>
        <time>2021-05-27T11:26:22Z</time>
      </trkpt>
      <trkpt lat="45.62571" lon="6.83078">
        <ele>1411</ele>
        <time>2021-05-27T11:26:23Z</time>
      </trkpt>
      <trkpt lat="45.62571" lon="6.83071">
        <ele>1411.4</ele>
        <time>2021-05-27T11:26:24Z</time>
      </trkpt>
      <trkpt lat="45.62569" lon="6.83063">
        <ele>1411.6</ele>
        <time>2021-05-27T11:26:25Z</time>
      </trkpt>
      <trkpt lat="45.62569" lon="6.83055">
        <ele>1412</ele>
        <time>2021-05-27T11:26:26Z</time>
      </trkpt>
      <trkpt lat="45.62569" lon="6.83047">
        <ele>1412</ele>
        <time>2021-05-27T11:26:27Z</time>
      </trkpt>
      <trkpt lat="45.62568" lon="6.83039">
        <ele>1412.4</ele>
        <time>2021-05-27T11:26:28Z</time>
      </trkpt>
      <trkpt lat="45.62567" lon="6.83032">
        <ele>1412.6</ele>
        <time>2021-05-27T11:26:29Z</time>
      </trkpt>
      <trkpt lat="45.62566" lon="6.83024">
        <ele>1413</ele>
        <time>2021-05-27T11:26:30Z</time>
      </trkpt>
      <trkpt lat="45.62566" lon="6.83016">
        <ele>1413.2</ele>
        <time>2021-05-27T11:26:31Z</time>
      </trkpt>
      <trkpt lat="45.62566" lon="6.83009">
        <ele>1413.4</ele>
        <time>2021-05-27T11:26:32Z</time>
      </trkpt>
      <trkpt lat="45.62565" lon="6.83002">
        <ele>1413.8</ele>
        <time>2021-05-27T11:26:33Z</time>
      </trkpt>
      <trkpt lat="45.62565" lon="6.82994">
        <ele>1414</ele>
        <time>2021-05-27T11:26:34Z</time>
      </trkpt>
      <trkpt lat="45.62566" lon="6.82987">
        <ele>1414.4</ele>
        <time>2021-05-27T11:26:35Z</time>
      </trkpt>
      <trkpt lat="45.62566" lon="6.8298">
        <ele>1414.8</ele>
        <time>2021-05-27T11:26:36Z</time>
      </trkpt>
      <trkpt lat="45.62566" lon="6.82973">
        <ele>1415</ele>
        <time>2021-05-27T11:26:37Z</time>
      </trkpt>
      <trkpt lat="45.62566" lon="6.82966">
        <ele>1415.2</ele>
        <time>2021-05-27T11:26:38Z</time>
      </trkpt>
      <trkpt lat="45.62566" lon="6.82959">
        <ele>1415.8</ele>
        <time>2021-05-27T11:26:39Z</time>
      </trkpt>
      <trkpt lat="45.62567" lon="6.82952">
        <ele>1416</ele>
        <time>2021-05-27T11:26:40Z</time>
      </trkpt>
      <trkpt lat="45.62568" lon="6.82945">
        <ele>1416.2</ele>
        <time>2021-05-27T11:26:41Z</time>
      </trkpt>
      <trkpt lat="45.62569" lon="6.82937">
        <ele>1416.6</ele>
        <time>2021-05-27T11:26:42Z</time>
      </trkpt>
      <trkpt lat="45.62571" lon="6.8293">
        <ele>1417</ele>
        <time>2021-05-27T11:26:43Z</time>
      </trkpt>
      <trkpt lat="45.62573" lon="6.82923">
        <ele>1417</ele>
        <time>2021-05-27T11:26:44Z</time>
      </trkpt>
      <trkpt lat="45.62574" lon="6.82916">
        <ele>1417.4</ele>
        <time>2021-05-27T11:26:45Z</time>
      </trkpt>
      <trkpt lat="45.62576" lon="6.82909">
        <ele>1417.8</ele>
        <time>2021-05-27T11:26:46Z</time>
      </trkpt>
      <trkpt lat="45.62578" lon="6.82903">
        <ele>1418.2</ele>
        <time>2021-05-27T11:26:47Z</time>
      </trkpt>
      <trkpt lat="45.62579" lon="6.82896">
        <ele>1418.4</ele>
        <time>2021-05-27T11:26:48Z</time>
      </trkpt>
      <trkpt lat="45.6258" lon="6.82889">
        <ele>1418.6</ele>
        <time>2021-05-27T11:26:49Z</time>
      </trkpt>
      <trkpt lat="45.6258" lon="6.82882">
        <ele>1419.2</ele>
        <time>2021-05-27T11:26:50Z</time>
      </trkpt>
      <trkpt lat="45.6258" lon="6.82876">
        <ele>1419.6</ele>
        <time>2021-05-27T11:26:51Z</time>
      </trkpt>
      <trkpt lat="45.62579" lon="6.8287">
        <ele>1420</ele>
        <time>2021-05-27T11:26:52Z</time>
      </trkpt>
      <trkpt lat="45.62578" lon="6.82863">
        <ele>1420.2</ele>
        <time>2021-05-27T11:26:53Z</time>
      </trkpt>
      <trkpt lat="45.62577" lon="6.82857">
        <ele>1420.6</ele>
        <time>2021-05-27T11:26:54Z</time>
      </trkpt>
      <trkpt lat="45.62576" lon="6.8285">
        <ele>1421</ele>
        <time>2021-05-27T11:26:55Z</time>
      </trkpt>
      <trkpt lat="45.62575" lon="6.82844">
        <ele>1421.4</ele>
        <time>2021-05-27T11:26:56Z</time>
      </trkpt>
      <trkpt lat="45.62575" lon="6.82838">
        <ele>1421.6</ele>
        <time>2021-05-27T11:26:57Z</time>
      </trkpt>
      <trkpt lat="45.62573" lon="6.8283">
        <ele>1422</ele>
        <time>2021-05-27T11:26:58Z</time>
      </trkpt>
      <trkpt lat="45.62572" lon="6.82823">
        <ele>1422.4</ele>
        <time>2021-05-27T11:26:59Z</time>
      </trkpt>
      <trkpt lat="45.62572" lon="6.82816">
        <ele>1422.8</ele>
        <time>2021-05-27T11:27:00Z</time>
      </trkpt>
      <trkpt lat="45.62572" lon="6.8281">
        <ele>1423</ele>
        <time>2021-05-27T11:27:01Z</time>
      </trkpt>
      <trkpt lat="45.62571" lon="6.82804">
        <ele>1423.4</ele>
        <time>2021-05-27T11:27:02Z</time>
      </trkpt>
      <trkpt lat="45.62571" lon="6.82797">
        <ele>1424</ele>
        <time>2021-05-27T11:27:03Z</time>
      </trkpt>
      <trkpt lat="45.62571" lon="6.82791">
        <ele>1424.2</ele>
        <time>2021-05-27T11:27:04Z</time>
      </trkpt>
      <trkpt lat="45.62571" lon="6.82784">
        <ele>1424</ele>
        <time>2021-05-27T11:27:05Z</time>
      </trkpt>
      <trkpt lat="45.62571" lon="6.82778">
        <ele>1423.6</ele>
        <time>2021-05-27T11:27:06Z</time>
      </trkpt>
      <trkpt lat="45.62572" lon="6.82771">
        <ele>1422.8</ele>
        <time>2021-05-27T11:27:07Z</time>
      </trkpt>
      <trkpt lat="45.62574" lon="6.82763">
        <ele>1422.4</ele>
        <time>2021-05-27T11:27:08Z</time>
      </trkpt>
      <trkpt lat="45.62576" lon="6.82756">
        <ele>1422.2</ele>
        <time>2021-05-27T11:27:09Z</time>
      </trkpt>
      <trkpt lat="45.62579" lon="6.82749">
        <ele>1422</ele>
        <time>2021-05-27T11:27:10Z</time>
      </trkpt>
      <trkpt lat="45.62582" lon="6.82743">
        <ele>1421.6</ele>
        <time>2021-05-27T11:27:11Z</time>
      </trkpt>
      <trkpt lat="45.62586" lon="6.82737">
        <ele>1421.2</ele>
        <time>2021-05-27T11:27:12Z</time>
      </trkpt>
      <trkpt lat="45.62589" lon="6.82732">
        <ele>1421.2</ele>
        <time>2021-05-27T11:27:13Z</time>
      </trkpt>
      <trkpt lat="45.62594" lon="6.82727">
        <ele>1421</ele>
        <time>2021-05-27T11:27:14Z</time>
      </trkpt>
      <trkpt lat="45.62598" lon="6.82723">
        <ele>1420.8</ele>
        <time>2021-05-27T11:27:15Z</time>
      </trkpt>
      <trkpt lat="45.62603" lon="6.82719">
        <ele>1420.8</ele>
        <time>2021-05-27T11:27:16Z</time>
      </trkpt>
      <trkpt lat="45.62607" lon="6.82714">
        <ele>1420.6</ele>
        <time>2021-05-27T11:27:17Z</time>
      </trkpt>
      <trkpt lat="45.62612" lon="6.8271">
        <ele>1420.6</ele>
        <time>2021-05-27T11:27:18Z</time>
      </trkpt>
      <trkpt lat="45.62616" lon="6.82707">
        <ele>1420.6</ele>
        <time>2021-05-27T11:27:19Z</time>
      </trkpt>
      <trkpt lat="45.62621" lon="6.82704">
        <ele>1420.6</ele>
        <time>2021-05-27T11:27:20Z</time>
      </trkpt>
      <trkpt lat="45.62626" lon="6.827">
        <ele>1420.8</ele>
        <time>2021-05-27T11:27:21Z</time>
      </trkpt>
      <trkpt lat="45.6263" lon="6.82698">
        <ele>1421</ele>
        <time>2021-05-27T11:27:22Z</time>
      </trkpt>
      <trkpt lat="45.62635" lon="6.82696">
        <ele>1421</ele>
        <time>2021-05-27T11:27:23Z</time>
      </trkpt>
      <trkpt lat="45.6264" lon="6.82693">
        <ele>1421</ele>
        <time>2021-05-27T11:27:24Z</time>
      </trkpt>
      <trkpt lat="45.62645" lon="6.82692">
        <ele>1421</ele>
        <time>2021-05-27T11:27:25Z</time>
      </trkpt>
      <trkpt lat="45.62651" lon="6.82691">
        <ele>1421.2</ele>
        <time>2021-05-27T11:27:26Z</time>
      </trkpt>
      <trkpt lat="45.62655" lon="6.82691">
        <ele>1421.2</ele>
        <time>2021-05-27T11:27:27Z</time>
      </trkpt>
      <trkpt lat="45.6266" lon="6.82691">
        <ele>1421.6</ele>
        <time>2021-05-27T11:27:28Z</time>
      </trkpt>
      <trkpt lat="45.62666" lon="6.82692">
        <ele>1421.8</ele>
        <time>2021-05-27T11:27:29Z</time>
      </trkpt>
      <trkpt lat="45.6267" lon="6.82693">
        <ele>1422.2</ele>
        <time>2021-05-27T11:27:30Z</time>
      </trkpt>
      <trkpt lat="45.62676" lon="6.82694">
        <ele>1422.8</ele>
        <time>2021-05-27T11:27:31Z</time>
      </trkpt>
      <trkpt lat="45.6268" lon="6.82695">
        <ele>1423.4</ele>
        <time>2021-05-27T11:27:32Z</time>
      </trkpt>
      <trkpt lat="45.62685" lon="6.82696">
        <ele>1424</ele>
        <time>2021-05-27T11:27:33Z</time>
      </trkpt>
      <trkpt lat="45.62689" lon="6.82695">
        <ele>1424.6</ele>
        <time>2021-05-27T11:27:34Z</time>
      </trkpt>
      <trkpt lat="45.62694" lon="6.82693">
        <ele>1425.2</ele>
        <time>2021-05-27T11:27:35Z</time>
      </trkpt>
      <trkpt lat="45.62699" lon="6.82691">
        <ele>1426</ele>
        <time>2021-05-27T11:27:36Z</time>
      </trkpt>
      <trkpt lat="45.62704" lon="6.82689">
        <ele>1426.8</ele>
        <time>2021-05-27T11:27:37Z</time>
      </trkpt>
      <trkpt lat="45.62709" lon="6.82687">
        <ele>1427.2</ele>
        <time>2021-05-27T11:27:38Z</time>
      </trkpt>
      <trkpt lat="45.62714" lon="6.82684">
        <ele>1427.8</ele>
        <time>2021-05-27T11:27:39Z</time>
      </trkpt>
      <trkpt lat="45.62718" lon="6.82682">
        <ele>1428.4</ele>
        <time>2021-05-27T11:27:40Z</time>
      </trkpt>
      <trkpt lat="45.62723" lon="6.82679">
        <ele>1429</ele>
        <time>2021-05-27T11:27:41Z</time>
      </trkpt>
      <trkpt lat="45.62727" lon="6.82676">
        <ele>1429.6</ele>
        <time>2021-05-27T11:27:42Z</time>
      </trkpt>
      <trkpt lat="45.62732" lon="6.82673">
        <ele>1430.2</ele>
        <time>2021-05-27T11:27:43Z</time>
      </trkpt>
      <trkpt lat="45.62736" lon="6.82671">
        <ele>1430.6</ele>
        <time>2021-05-27T11:27:44Z</time>
      </trkpt>
      <trkpt lat="45.6274" lon="6.8267">
        <ele>1431.4</ele>
        <time>2021-05-27T11:27:45Z</time>
      </trkpt>
      <trkpt lat="45.62745" lon="6.8267">
        <ele>1432.2</ele>
        <time>2021-05-27T11:27:46Z</time>
      </trkpt>
      <trkpt lat="45.6275" lon="6.8267">
        <ele>1433</ele>
        <time>2021-05-27T11:27:47Z</time>
      </trkpt>
      <trkpt lat="45.62755" lon="6.8267">
        <ele>1433.8</ele>
        <time>2021-05-27T11:27:48Z</time>
      </trkpt>
      <trkpt lat="45.6276" lon="6.82671">
        <ele>1434.4</ele>
        <time>2021-05-27T11:27:49Z</time>
      </trkpt>
      <trkpt lat="45.62764" lon="6.82672">
        <ele>1434.8</ele>
        <time>2021-05-27T11:27:50Z</time>
      </trkpt>
      <trkpt lat="45.62769" lon="6.82673">
        <ele>1435.4</ele>
        <time>2021-05-27T11:27:51Z</time>
      </trkpt>
      <trkpt lat="45.62773" lon="6.82674">
        <ele>1436</ele>
        <time>2021-05-27T11:27:52Z</time>
      </trkpt>
      <trkpt lat="45.62777" lon="6.82674">
        <ele>1436.8</ele>
        <time>2021-05-27T11:27:53Z</time>
      </trkpt>
      <trkpt lat="45.62781" lon="6.82674">
        <ele>1437.4</ele>
        <time>2021-05-27T11:27:54Z</time>
      </trkpt>
      <trkpt lat="45.62786" lon="6.82674">
        <ele>1438</ele>
        <time>2021-05-27T11:27:55Z</time>
      </trkpt>
      <trkpt lat="45.62791" lon="6.82675">
        <ele>1438.6</ele>
        <time>2021-05-27T11:27:56Z</time>
      </trkpt>
      <trkpt lat="45.62796" lon="6.82676">
        <ele>1439.2</ele>
        <time>2021-05-27T11:27:57Z</time>
      </trkpt>
      <trkpt lat="45.62801" lon="6.82677">
        <ele>1439.8</ele>
        <time>2021-05-27T11:27:58Z</time>
      </trkpt>
      <trkpt lat="45.62806" lon="6.8268">
        <ele>1440.4</ele>
        <time>2021-05-27T11:27:59Z</time>
      </trkpt>
      <trkpt lat="45.62811" lon="6.82683">
        <ele>1440.6</ele>
        <time>2021-05-27T11:28:00Z</time>
      </trkpt>
      <trkpt lat="45.62815" lon="6.82688">
        <ele>1441.2</ele>
        <time>2021-05-27T11:28:01Z</time>
      </trkpt>
      <trkpt lat="45.62818" lon="6.82694">
        <ele>1441.8</ele>
        <time>2021-05-27T11:28:02Z</time>
      </trkpt>
      <trkpt lat="45.62815" lon="6.82703">
        <ele>1442</ele>
        <time>2021-05-27T11:28:03Z</time>
      </trkpt>
      <trkpt lat="45.62811" lon="6.82708">
        <ele>1442.4</ele>
        <time>2021-05-27T11:28:04Z</time>
      </trkpt>
      <trkpt lat="45.62806" lon="6.82708">
        <ele>1442.6</ele>
        <time>2021-05-27T11:28:05Z</time>
      </trkpt>
      <trkpt lat="45.62802" lon="6.82708">
        <ele>1443</ele>
        <time>2021-05-27T11:28:06Z</time>
      </trkpt>
      <trkpt lat="45.62797" lon="6.82707">
        <ele>1443.6</ele>
        <time>2021-05-27T11:28:07Z</time>
      </trkpt>
      <trkpt lat="45.62792" lon="6.82705">
        <ele>1444.2</ele>
        <time>2021-05-27T11:28:08Z</time>
      </trkpt>
      <trkpt lat="45.62787" lon="6.82703">
        <ele>1444.6</ele>
        <time>2021-05-27T11:28:09Z</time>
      </trkpt>
      <trkpt lat="45.62781" lon="6.82701">
        <ele>1445</ele>
        <time>2021-05-27T11:28:10Z</time>
      </trkpt>
      <trkpt lat="45.62776" lon="6.82699">
        <ele>1445.2</ele>
        <time>2021-05-27T11:28:11Z</time>
      </trkpt>
      <trkpt lat="45.62771" lon="6.82697">
        <ele>1445.8</ele>
        <time>2021-05-27T11:28:12Z</time>
      </trkpt>
      <trkpt lat="45.62765" lon="6.82696">
        <ele>1446.2</ele>
        <time>2021-05-27T11:28:13Z</time>
      </trkpt>
      <trkpt lat="45.6276" lon="6.82695">
        <ele>1446.8</ele>
        <time>2021-05-27T11:28:14Z</time>
      </trkpt>
      <trkpt lat="45.62755" lon="6.82695">
        <ele>1447.4</ele>
        <time>2021-05-27T11:28:15Z</time>
      </trkpt>
      <trkpt lat="45.62751" lon="6.82698">
        <ele>1447.8</ele>
        <time>2021-05-27T11:28:16Z</time>
      </trkpt>
      <trkpt lat="45.62746" lon="6.82701">
        <ele>1448.4</ele>
        <time>2021-05-27T11:28:17Z</time>
      </trkpt>
      <trkpt lat="45.62741" lon="6.82705">
        <ele>1449</ele>
        <time>2021-05-27T11:28:18Z</time>
      </trkpt>
      <trkpt lat="45.62736" lon="6.8271">
        <ele>1449.6</ele>
        <time>2021-05-27T11:28:19Z</time>
      </trkpt>
      <trkpt lat="45.62732" lon="6.82716">
        <ele>1450</ele>
        <time>2021-05-27T11:28:20Z</time>
      </trkpt>
      <trkpt lat="45.62729" lon="6.82721">
        <ele>1450.8</ele>
        <time>2021-05-27T11:28:21Z</time>
      </trkpt>
      <trkpt lat="45.62725" lon="6.82726">
        <ele>1451.2</ele>
        <time>2021-05-27T11:28:22Z</time>
      </trkpt>
      <trkpt lat="45.62722" lon="6.82732">
        <ele>1451.6</ele>
        <time>2021-05-27T11:28:23Z</time>
      </trkpt>
      <trkpt lat="45.62717" lon="6.82739">
        <ele>1452</ele>
        <time>2021-05-27T11:28:24Z</time>
      </trkpt>
      <trkpt lat="45.62713" lon="6.82745">
        <ele>1452.6</ele>
        <time>2021-05-27T11:28:25Z</time>
      </trkpt>
      <trkpt lat="45.62709" lon="6.8275">
        <ele>1453</ele>
        <time>2021-05-27T11:28:26Z</time>
      </trkpt>
      <trkpt lat="45.62705" lon="6.82753">
        <ele>1453.6</ele>
        <time>2021-05-27T11:28:27Z</time>
      </trkpt>
      <trkpt lat="45.627" lon="6.82756">
        <ele>1454</ele>
        <time>2021-05-27T11:28:28Z</time>
      </trkpt>
      <trkpt lat="45.62695" lon="6.82758">
        <ele>1454.6</ele>
        <time>2021-05-27T11:28:29Z</time>
      </trkpt>
      <trkpt lat="45.62691" lon="6.8276">
        <ele>1454.8</ele>
        <time>2021-05-27T11:28:30Z</time>
      </trkpt>
      <trkpt lat="45.62686" lon="6.82762">
        <ele>1455.2</ele>
        <time>2021-05-27T11:28:31Z</time>
      </trkpt>
      <trkpt lat="45.62681" lon="6.82764">
        <ele>1455.4</ele>
        <time>2021-05-27T11:28:32Z</time>
      </trkpt>
      <trkpt lat="45.62676" lon="6.82766">
        <ele>1456</ele>
        <time>2021-05-27T11:28:33Z</time>
      </trkpt>
      <trkpt lat="45.6267" lon="6.82769">
        <ele>1456.2</ele>
        <time>2021-05-27T11:28:34Z</time>
      </trkpt>
      <trkpt lat="45.62666" lon="6.82772">
        <ele>1456.6</ele>
        <time>2021-05-27T11:28:35Z</time>
      </trkpt>
      <trkpt lat="45.62661" lon="6.82775">
        <ele>1457</ele>
        <time>2021-05-27T11:28:36Z</time>
      </trkpt>
      <trkpt lat="45.62656" lon="6.82778">
        <ele>1457.2</ele>
        <time>2021-05-27T11:28:37Z</time>
      </trkpt>
      <trkpt lat="45.62651" lon="6.82781">
        <ele>1457.8</ele>
        <time>2021-05-27T11:28:38Z</time>
      </trkpt>
      <trkpt lat="45.62646" lon="6.82785">
        <ele>1458.2</ele>
        <time>2021-05-27T11:28:39Z</time>
      </trkpt>
      <trkpt lat="45.62641" lon="6.8279">
        <ele>1458.6</ele>
        <time>2021-05-27T11:28:40Z</time>
      </trkpt>
      <trkpt lat="45.62637" lon="6.82796">
        <ele>1458.8</ele>
        <time>2021-05-27T11:28:41Z</time>
      </trkpt>
      <trkpt lat="45.62634" lon="6.82802">
        <ele>1459.4</ele>
        <time>2021-05-27T11:28:42Z</time>
      </trkpt>
      <trkpt lat="45.62632" lon="6.82809">
        <ele>1459.8</ele>
        <time>2021-05-27T11:28:43Z</time>
      </trkpt>
      <trkpt lat="45.62632" lon="6.82816">
        <ele>1460.2</ele>
        <time>2021-05-27T11:28:44Z</time>
      </trkpt>
      <trkpt lat="45.62632" lon="6.82824">
        <ele>1460.4</ele>
        <time>2021-05-27T11:28:45Z</time>
      </trkpt>
      <trkpt lat="45.62634" lon="6.82832">
        <ele>1460.6</ele>
        <time>2021-05-27T11:28:46Z</time>
      </trkpt>
      <trkpt lat="45.62636" lon="6.8284">
        <ele>1460.8</ele>
        <time>2021-05-27T11:28:47Z</time>
      </trkpt>
      <trkpt lat="45.62638" lon="6.82847">
        <ele>1461.2</ele>
        <time>2021-05-27T11:28:48Z</time>
      </trkpt>
      <trkpt lat="45.6264" lon="6.82855">
        <ele>1461.4</ele>
        <time>2021-05-27T11:28:49Z</time>
      </trkpt>
      <trkpt lat="45.62643" lon="6.82862">
        <ele>1461.8</ele>
        <time>2021-05-27T11:28:50Z</time>
      </trkpt>
      <trkpt lat="45.62646" lon="6.82869">
        <ele>1462.2</ele>
        <time>2021-05-27T11:28:51Z</time>
      </trkpt>
      <trkpt lat="45.62648" lon="6.82875">
        <ele>1462.6</ele>
        <time>2021-05-27T11:28:52Z</time>
      </trkpt>
      <trkpt lat="45.62652" lon="6.82881">
        <ele>1462.8</ele>
        <time>2021-05-27T11:28:53Z</time>
      </trkpt>
      <trkpt lat="45.62654" lon="6.82888">
        <ele>1463.2</ele>
        <time>2021-05-27T11:28:54Z</time>
      </trkpt>
      <trkpt lat="45.62657" lon="6.82894">
        <ele>1463.4</ele>
        <time>2021-05-27T11:28:55Z</time>
      </trkpt>
      <trkpt lat="45.62659" lon="6.82901">
        <ele>1463.6</ele>
        <time>2021-05-27T11:28:56Z</time>
      </trkpt>
      <trkpt lat="45.62662" lon="6.82907">
        <ele>1463.8</ele>
        <time>2021-05-27T11:28:57Z</time>
      </trkpt>
      <trkpt lat="45.62665" lon="6.82913">
        <ele>1464.2</ele>
        <time>2021-05-27T11:28:58Z</time>
      </trkpt>
      <trkpt lat="45.62667" lon="6.8292">
        <ele>1464.6</ele>
        <time>2021-05-27T11:28:59Z</time>
      </trkpt>
      <trkpt lat="45.62669" lon="6.82926">
        <ele>1465.2</ele>
        <time>2021-05-27T11:29:00Z</time>
      </trkpt>
      <trkpt lat="45.62672" lon="6.82933">
        <ele>1465.8</ele>
        <time>2021-05-27T11:29:01Z</time>
      </trkpt>
      <trkpt lat="45.62674" lon="6.8294">
        <ele>1466</ele>
        <time>2021-05-27T11:29:02Z</time>
      </trkpt>
      <trkpt lat="45.62677" lon="6.82947">
        <ele>1466.2</ele>
        <time>2021-05-27T11:29:03Z</time>
      </trkpt>
      <trkpt lat="45.62679" lon="6.82954">
        <ele>1466</ele>
        <time>2021-05-27T11:29:04Z</time>
      </trkpt>
      <trkpt lat="45.62682" lon="6.8296">
        <ele>1466</ele>
        <time>2021-05-27T11:29:05Z</time>
      </trkpt>
      <trkpt lat="45.62685" lon="6.82967">
        <ele>1466.2</ele>
        <time>2021-05-27T11:29:06Z</time>
      </trkpt>
      <trkpt lat="45.62688" lon="6.82974">
        <ele>1466.2</ele>
        <time>2021-05-27T11:29:07Z</time>
      </trkpt>
      <trkpt lat="45.6269" lon="6.8298">
        <ele>1466.2</ele>
        <time>2021-05-27T11:29:08Z</time>
      </trkpt>
      <trkpt lat="45.62693" lon="6.82987">
        <ele>1466.2</ele>
        <time>2021-05-27T11:29:09Z</time>
      </trkpt>
      <trkpt lat="45.62695" lon="6.82994">
        <ele>1466.6</ele>
        <time>2021-05-27T11:29:10Z</time>
      </trkpt>
      <trkpt lat="45.62698" lon="6.83001">
        <ele>1466.8</ele>
        <time>2021-05-27T11:29:11Z</time>
      </trkpt>
      <trkpt lat="45.627" lon="6.83009">
        <ele>1467.2</ele>
        <time>2021-05-27T11:29:12Z</time>
      </trkpt>
      <trkpt lat="45.62703" lon="6.83016">
        <ele>1467.2</ele>
        <time>2021-05-27T11:29:13Z</time>
      </trkpt>
      <trkpt lat="45.62704" lon="6.83025">
        <ele>1467.2</ele>
        <time>2021-05-27T11:29:14Z</time>
      </trkpt>
      <trkpt lat="45.62706" lon="6.83033">
        <ele>1467.2</ele>
        <time>2021-05-27T11:29:15Z</time>
      </trkpt>
      <trkpt lat="45.62706" lon="6.83041">
        <ele>1467.4</ele>
        <time>2021-05-27T11:29:16Z</time>
      </trkpt>
      <trkpt lat="45.62705" lon="6.8305">
        <ele>1467.6</ele>
        <time>2021-05-27T11:29:17Z</time>
      </trkpt>
      <trkpt lat="45.62704" lon="6.83058">
        <ele>1467.6</ele>
        <time>2021-05-27T11:29:18Z</time>
      </trkpt>
      <trkpt lat="45.62702" lon="6.83065">
        <ele>1467.2</ele>
        <time>2021-05-27T11:29:19Z</time>
      </trkpt>
      <trkpt lat="45.627" lon="6.83073">
        <ele>1467</ele>
        <time>2021-05-27T11:29:20Z</time>
      </trkpt>
      <trkpt lat="45.62698" lon="6.8308">
        <ele>1467</ele>
        <time>2021-05-27T11:29:21Z</time>
      </trkpt>
      <trkpt lat="45.62696" lon="6.83087">
        <ele>1466.4</ele>
        <time>2021-05-27T11:29:22Z</time>
      </trkpt>
      <trkpt lat="45.62694" lon="6.83094">
        <ele>1466.4</ele>
        <time>2021-05-27T11:29:23Z</time>
      </trkpt>
      <trkpt lat="45.62692" lon="6.83101">
        <ele>1466</ele>
        <time>2021-05-27T11:29:24Z</time>
      </trkpt>
      <trkpt lat="45.6269" lon="6.83109">
        <ele>1465.4</ele>
        <time>2021-05-27T11:29:25Z</time>
      </trkpt>
      <trkpt lat="45.62689" lon="6.83116">
        <ele>1464.8</ele>
        <time>2021-05-27T11:29:26Z</time>
      </trkpt>
      <trkpt lat="45.62688" lon="6.83123">
        <ele>1464.4</ele>
        <time>2021-05-27T11:29:27Z</time>
      </trkpt>
      <trkpt lat="45.62687" lon="6.83131">
        <ele>1463.8</ele>
        <time>2021-05-27T11:29:28Z</time>
      </trkpt>
      <trkpt lat="45.62686" lon="6.83138">
        <ele>1463.2</ele>
        <time>2021-05-27T11:29:29Z</time>
      </trkpt>
      <trkpt lat="45.62685" lon="6.83147">
        <ele>1462.8</ele>
        <time>2021-05-27T11:29:30Z</time>
      </trkpt>
      <trkpt lat="45.62685" lon="6.83155">
        <ele>1462.6</ele>
        <time>2021-05-27T11:29:31Z</time>
      </trkpt>
      <trkpt lat="45.62684" lon="6.83163">
        <ele>1462.2</ele>
        <time>2021-05-27T11:29:32Z</time>
      </trkpt>
      <trkpt lat="45.62682" lon="6.8317">
        <ele>1461.8</ele>
        <time>2021-05-27T11:29:33Z</time>
      </trkpt>
      <trkpt lat="45.62681" lon="6.83178">
        <ele>1461.4</ele>
        <time>2021-05-27T11:29:34Z</time>
      </trkpt>
      <trkpt lat="45.62679" lon="6.83185">
        <ele>1461</ele>
        <time>2021-05-27T11:29:35Z</time>
      </trkpt>
      <trkpt lat="45.62676" lon="6.83192">
        <ele>1460.6</ele>
        <time>2021-05-27T11:29:36Z</time>
      </trkpt>
      <trkpt lat="45.62674" lon="6.83199">
        <ele>1460.2</ele>
        <time>2021-05-27T11:29:37Z</time>
      </trkpt>
      <trkpt lat="45.62671" lon="6.83206">
        <ele>1459.8</ele>
        <time>2021-05-27T11:29:38Z</time>
      </trkpt>
      <trkpt lat="45.62668" lon="6.83212">
        <ele>1459.6</ele>
        <time>2021-05-27T11:29:39Z</time>
      </trkpt>
      <trkpt lat="45.62665" lon="6.83219">
        <ele>1459.2</ele>
        <time>2021-05-27T11:29:40Z</time>
      </trkpt>
      <trkpt lat="45.62662" lon="6.83226">
        <ele>1459</ele>
        <time>2021-05-27T11:29:41Z</time>
      </trkpt>
      <trkpt lat="45.6266" lon="6.83232">
        <ele>1458.8</ele>
        <time>2021-05-27T11:29:42Z</time>
      </trkpt>
      <trkpt lat="45.62656" lon="6.83239">
        <ele>1458.4</ele>
        <time>2021-05-27T11:29:43Z</time>
      </trkpt>
      <trkpt lat="45.62653" lon="6.83245">
        <ele>1458</ele>
        <time>2021-05-27T11:29:44Z</time>
      </trkpt>
      <trkpt lat="45.6265" lon="6.83252">
        <ele>1457.6</ele>
        <time>2021-05-27T11:29:45Z</time>
      </trkpt>
      <trkpt lat="45.62648" lon="6.83258">
        <ele>1457.4</ele>
        <time>2021-05-27T11:29:46Z</time>
      </trkpt>
      <trkpt lat="45.62646" lon="6.83266">
        <ele>1457.2</ele>
        <time>2021-05-27T11:29:47Z</time>
      </trkpt>
      <trkpt lat="45.62644" lon="6.83274">
        <ele>1457.4</ele>
        <time>2021-05-27T11:29:48Z</time>
      </trkpt>
      <trkpt lat="45.62642" lon="6.83281">
        <ele>1457.6</ele>
        <time>2021-05-27T11:29:49Z</time>
      </trkpt>
      <trkpt lat="45.62639" lon="6.83289">
        <ele>1457.8</ele>
        <time>2021-05-27T11:29:50Z</time>
      </trkpt>
      <trkpt lat="45.62637" lon="6.83296">
        <ele>1458.4</ele>
        <time>2021-05-27T11:29:51Z</time>
      </trkpt>
      <trkpt lat="45.62634" lon="6.83304">
        <ele>1458.8</ele>
        <time>2021-05-27T11:29:52Z</time>
      </trkpt>
      <trkpt lat="45.62631" lon="6.83311">
        <ele>1459.6</ele>
        <time>2021-05-27T11:29:53Z</time>
      </trkpt>
      <trkpt lat="45.62628" lon="6.83318">
        <ele>1460</ele>
        <time>2021-05-27T11:29:54Z</time>
      </trkpt>
      <trkpt lat="45.62624" lon="6.83325">
        <ele>1460.2</ele>
        <time>2021-05-27T11:29:55Z</time>
      </trkpt>
      <trkpt lat="45.6262" lon="6.83331">
        <ele>1460.2</ele>
        <time>2021-05-27T11:29:56Z</time>
      </trkpt>
      <trkpt lat="45.62615" lon="6.83336">
        <ele>1460.2</ele>
        <time>2021-05-27T11:29:57Z</time>
      </trkpt>
      <trkpt lat="45.6261" lon="6.83341">
        <ele>1460.2</ele>
        <time>2021-05-27T11:29:58Z</time>
      </trkpt>
      <trkpt lat="45.62606" lon="6.83346">
        <ele>1460.4</ele>
        <time>2021-05-27T11:29:59Z</time>
      </trkpt>
      <trkpt lat="45.62601" lon="6.83351">
        <ele>1460.4</ele>
        <time>2021-05-27T11:30:00Z</time>
      </trkpt>
      <trkpt lat="45.62596" lon="6.83356">
        <ele>1460.4</ele>
        <time>2021-05-27T11:30:01Z</time>
      </trkpt>
      <trkpt lat="45.62592" lon="6.83361">
        <ele>1460.4</ele>
        <time>2021-05-27T11:30:02Z</time>
      </trkpt>
      <trkpt lat="45.62588" lon="6.83366">
        <ele>1460.8</ele>
        <time>2021-05-27T11:30:03Z</time>
      </trkpt>
      <trkpt lat="45.62585" lon="6.83371">
        <ele>1461.4</ele>
        <time>2021-05-27T11:30:04Z</time>
      </trkpt>
      <trkpt lat="45.62581" lon="6.83377">
        <ele>1462</ele>
        <time>2021-05-27T11:30:05Z</time>
      </trkpt>
      <trkpt lat="45.62578" lon="6.83383">
        <ele>1462.6</ele>
        <time>2021-05-27T11:30:06Z</time>
      </trkpt>
      <trkpt lat="45.62575" lon="6.83388">
        <ele>1463.4</ele>
        <time>2021-05-27T11:30:07Z</time>
      </trkpt>
      <trkpt lat="45.62574" lon="6.83396">
        <ele>1464.2</ele>
        <time>2021-05-27T11:30:08Z</time>
      </trkpt>
      <trkpt lat="45.62572" lon="6.83405">
        <ele>1464.8</ele>
        <time>2021-05-27T11:30:09Z</time>
      </trkpt>
      <trkpt lat="45.62571" lon="6.83413">
        <ele>1465.2</ele>
        <time>2021-05-27T11:30:10Z</time>
      </trkpt>
      <trkpt lat="45.6257" lon="6.83421">
        <ele>1465.8</ele>
        <time>2021-05-27T11:30:11Z</time>
      </trkpt>
      <trkpt lat="45.62569" lon="6.83428">
        <ele>1466.2</ele>
        <time>2021-05-27T11:30:12Z</time>
      </trkpt>
      <trkpt lat="45.62568" lon="6.83436">
        <ele>1466.4</ele>
        <time>2021-05-27T11:30:13Z</time>
      </trkpt>
      <trkpt lat="45.62566" lon="6.83443">
        <ele>1467</ele>
        <time>2021-05-27T11:30:14Z</time>
      </trkpt>
      <trkpt lat="45.62565" lon="6.8345">
        <ele>1467</ele>
        <time>2021-05-27T11:30:15Z</time>
      </trkpt>
      <trkpt lat="45.62563" lon="6.83457">
        <ele>1467</ele>
        <time>2021-05-27T11:30:16Z</time>
      </trkpt>
      <trkpt lat="45.62561" lon="6.83464">
        <ele>1467</ele>
        <time>2021-05-27T11:30:17Z</time>
      </trkpt>
      <trkpt lat="45.62558" lon="6.83471">
        <ele>1467</ele>
        <time>2021-05-27T11:30:18Z</time>
      </trkpt>
      <trkpt lat="45.62555" lon="6.83477">
        <ele>1467</ele>
        <time>2021-05-27T11:30:19Z</time>
      </trkpt>
      <trkpt lat="45.6255" lon="6.83482">
        <ele>1467.6</ele>
        <time>2021-05-27T11:30:20Z</time>
      </trkpt>
      <trkpt lat="45.62546" lon="6.83486">
        <ele>1468</ele>
        <time>2021-05-27T11:30:21Z</time>
      </trkpt>
      <trkpt lat="45.62541" lon="6.83491">
        <ele>1468.2</ele>
        <time>2021-05-27T11:30:22Z</time>
      </trkpt>
      <trkpt lat="45.62536" lon="6.83496">
        <ele>1468.6</ele>
        <time>2021-05-27T11:30:23Z</time>
      </trkpt>
      <trkpt lat="45.62532" lon="6.835">
        <ele>1469.2</ele>
        <time>2021-05-27T11:30:24Z</time>
      </trkpt>
      <trkpt lat="45.62527" lon="6.83505">
        <ele>1469.8</ele>
        <time>2021-05-27T11:30:25Z</time>
      </trkpt>
      <trkpt lat="45.62523" lon="6.83509">
        <ele>1470.4</ele>
        <time>2021-05-27T11:30:26Z</time>
      </trkpt>
      <trkpt lat="45.62518" lon="6.83514">
        <ele>1471</ele>
        <time>2021-05-27T11:30:27Z</time>
      </trkpt>
      <trkpt lat="45.62514" lon="6.83518">
        <ele>1471.6</ele>
        <time>2021-05-27T11:30:28Z</time>
      </trkpt>
      <trkpt lat="45.62509" lon="6.83521">
        <ele>1472.2</ele>
        <time>2021-05-27T11:30:29Z</time>
      </trkpt>
      <trkpt lat="45.62505" lon="6.83526">
        <ele>1472.8</ele>
        <time>2021-05-27T11:30:30Z</time>
      </trkpt>
      <trkpt lat="45.625" lon="6.83529">
        <ele>1473.6</ele>
        <time>2021-05-27T11:30:31Z</time>
      </trkpt>
      <trkpt lat="45.62495" lon="6.83533">
        <ele>1474</ele>
        <time>2021-05-27T11:30:32Z</time>
      </trkpt>
      <trkpt lat="45.62491" lon="6.83536">
        <ele>1474.6</ele>
        <time>2021-05-27T11:30:33Z</time>
      </trkpt>
      <trkpt lat="45.62485" lon="6.8354">
        <ele>1475.2</ele>
        <time>2021-05-27T11:30:34Z</time>
      </trkpt>
      <trkpt lat="45.62481" lon="6.83544">
        <ele>1475.6</ele>
        <time>2021-05-27T11:30:35Z</time>
      </trkpt>
      <trkpt lat="45.62476" lon="6.83548">
        <ele>1476</ele>
        <time>2021-05-27T11:30:36Z</time>
      </trkpt>
      <trkpt lat="45.62472" lon="6.83552">
        <ele>1476.4</ele>
        <time>2021-05-27T11:30:37Z</time>
      </trkpt>
      <trkpt lat="45.62468" lon="6.83556">
        <ele>1476.6</ele>
        <time>2021-05-27T11:30:38Z</time>
      </trkpt>
      <trkpt lat="45.62465" lon="6.83561">
        <ele>1476.8</ele>
        <time>2021-05-27T11:30:39Z</time>
      </trkpt>
      <trkpt lat="45.62461" lon="6.83565">
        <ele>1477</ele>
        <time>2021-05-27T11:30:40Z</time>
      </trkpt>
      <trkpt lat="45.62457" lon="6.8357">
        <ele>1477.4</ele>
        <time>2021-05-27T11:30:41Z</time>
      </trkpt>
      <trkpt lat="45.62453" lon="6.83573">
        <ele>1477.8</ele>
        <time>2021-05-27T11:30:42Z</time>
      </trkpt>
      <trkpt lat="45.62449" lon="6.83576">
        <ele>1478</ele>
        <time>2021-05-27T11:30:43Z</time>
      </trkpt>
      <trkpt lat="45.62446" lon="6.8358">
        <ele>1478</ele>
        <time>2021-05-27T11:30:44Z</time>
      </trkpt>
      <trkpt lat="45.62443" lon="6.83584">
        <ele>1478.2</ele>
        <time>2021-05-27T11:30:45Z</time>
      </trkpt>
      <trkpt lat="45.62439" lon="6.83589">
        <ele>1478.2</ele>
        <time>2021-05-27T11:30:46Z</time>
      </trkpt>
      <trkpt lat="45.62436" lon="6.83595">
        <ele>1478.4</ele>
        <time>2021-05-27T11:30:47Z</time>
      </trkpt>
      <trkpt lat="45.62433" lon="6.83602">
        <ele>1478.4</ele>
        <time>2021-05-27T11:30:48Z</time>
      </trkpt>
      <trkpt lat="45.62431" lon="6.83608">
        <ele>1478.8</ele>
        <time>2021-05-27T11:30:49Z</time>
      </trkpt>
      <trkpt lat="45.62429" lon="6.83616">
        <ele>1479</ele>
        <time>2021-05-27T11:30:50Z</time>
      </trkpt>
      <trkpt lat="45.62428" lon="6.83624">
        <ele>1479.2</ele>
        <time>2021-05-27T11:30:51Z</time>
      </trkpt>
      <trkpt lat="45.62426" lon="6.83632">
        <ele>1479.8</ele>
        <time>2021-05-27T11:30:52Z</time>
      </trkpt>
      <trkpt lat="45.62425" lon="6.8364">
        <ele>1480.2</ele>
        <time>2021-05-27T11:30:53Z</time>
      </trkpt>
      <trkpt lat="45.62424" lon="6.83647">
        <ele>1480.8</ele>
        <time>2021-05-27T11:30:54Z</time>
      </trkpt>
      <trkpt lat="45.62423" lon="6.83655">
        <ele>1481.4</ele>
        <time>2021-05-27T11:30:55Z</time>
      </trkpt>
      <trkpt lat="45.62421" lon="6.83662">
        <ele>1481.6</ele>
        <time>2021-05-27T11:30:56Z</time>
      </trkpt>
      <trkpt lat="45.62418" lon="6.83669">
        <ele>1482</ele>
        <time>2021-05-27T11:30:57Z</time>
      </trkpt>
      <trkpt lat="45.62416" lon="6.83676">
        <ele>1482.4</ele>
        <time>2021-05-27T11:30:58Z</time>
      </trkpt>
      <trkpt lat="45.62413" lon="6.83683">
        <ele>1482.4</ele>
        <time>2021-05-27T11:30:59Z</time>
      </trkpt>
      <trkpt lat="45.6241" lon="6.83689">
        <ele>1482.6</ele>
        <time>2021-05-27T11:31:00Z</time>
      </trkpt>
      <trkpt lat="45.62406" lon="6.83695">
        <ele>1482.4</ele>
        <time>2021-05-27T11:31:01Z</time>
      </trkpt>
      <trkpt lat="45.62402" lon="6.837">
        <ele>1482.2</ele>
        <time>2021-05-27T11:31:02Z</time>
      </trkpt>
      <trkpt lat="45.62398" lon="6.83704">
        <ele>1481.8</ele>
        <time>2021-05-27T11:31:03Z</time>
      </trkpt>
      <trkpt lat="45.62394" lon="6.83708">
        <ele>1481.8</ele>
        <time>2021-05-27T11:31:04Z</time>
      </trkpt>
      <trkpt lat="45.6239" lon="6.83711">
        <ele>1481.4</ele>
        <time>2021-05-27T11:31:05Z</time>
      </trkpt>
      <trkpt lat="45.62387" lon="6.83716">
        <ele>1481</ele>
        <time>2021-05-27T11:31:06Z</time>
      </trkpt>
      <trkpt lat="45.62383" lon="6.83721">
        <ele>1480</ele>
        <time>2021-05-27T11:31:07Z</time>
      </trkpt>
      <trkpt lat="45.6238" lon="6.83727">
        <ele>1479.4</ele>
        <time>2021-05-27T11:31:08Z</time>
      </trkpt>
      <trkpt lat="45.62378" lon="6.83734">
        <ele>1479</ele>
        <time>2021-05-27T11:31:09Z</time>
      </trkpt>
      <trkpt lat="45.62376" lon="6.83741">
        <ele>1478.8</ele>
        <time>2021-05-27T11:31:10Z</time>
      </trkpt>
      <trkpt lat="45.62373" lon="6.83748">
        <ele>1479</ele>
        <time>2021-05-27T11:31:11Z</time>
      </trkpt>
      <trkpt lat="45.6237" lon="6.83754">
        <ele>1479.6</ele>
        <time>2021-05-27T11:31:12Z</time>
      </trkpt>
      <trkpt lat="45.62366" lon="6.8376">
        <ele>1480</ele>
        <time>2021-05-27T11:31:13Z</time>
      </trkpt>
      <trkpt lat="45.62363" lon="6.83766">
        <ele>1480.6</ele>
        <time>2021-05-27T11:31:14Z</time>
      </trkpt>
      <trkpt lat="45.62359" lon="6.83773">
        <ele>1481</ele>
        <time>2021-05-27T11:31:15Z</time>
      </trkpt>
      <trkpt lat="45.62353" lon="6.83777">
        <ele>1481.6</ele>
        <time>2021-05-27T11:31:16Z</time>
      </trkpt>
      <trkpt lat="45.62348" lon="6.8378">
        <ele>1482.4</ele>
        <time>2021-05-27T11:31:17Z</time>
      </trkpt>
      <trkpt lat="45.62343" lon="6.83782">
        <ele>1483.2</ele>
        <time>2021-05-27T11:31:18Z</time>
      </trkpt>
      <trkpt lat="45.62337" lon="6.83785">
        <ele>1483.8</ele>
        <time>2021-05-27T11:31:19Z</time>
      </trkpt>
      <trkpt lat="45.62332" lon="6.83788">
        <ele>1485</ele>
        <time>2021-05-27T11:31:20Z</time>
      </trkpt>
      <trkpt lat="45.62327" lon="6.83792">
        <ele>1485.6</ele>
        <time>2021-05-27T11:31:21Z</time>
      </trkpt>
      <trkpt lat="45.62322" lon="6.83795">
        <ele>1486.2</ele>
        <time>2021-05-27T11:31:22Z</time>
      </trkpt>
      <trkpt lat="45.62317" lon="6.83798">
        <ele>1487.2</ele>
        <time>2021-05-27T11:31:23Z</time>
      </trkpt>
      <trkpt lat="45.62312" lon="6.83801">
        <ele>1487.8</ele>
        <time>2021-05-27T11:31:24Z</time>
      </trkpt>
      <trkpt lat="45.62307" lon="6.83805">
        <ele>1488.4</ele>
        <time>2021-05-27T11:31:25Z</time>
      </trkpt>
      <trkpt lat="45.62303" lon="6.8381">
        <ele>1489</ele>
        <time>2021-05-27T11:31:26Z</time>
      </trkpt>
      <trkpt lat="45.62299" lon="6.83815">
        <ele>1489.4</ele>
        <time>2021-05-27T11:31:27Z</time>
      </trkpt>
      <trkpt lat="45.62295" lon="6.8382">
        <ele>1490</ele>
        <time>2021-05-27T11:31:28Z</time>
      </trkpt>
      <trkpt lat="45.62292" lon="6.83827">
        <ele>1490.6</ele>
        <time>2021-05-27T11:31:29Z</time>
      </trkpt>
      <trkpt lat="45.6229" lon="6.83833">
        <ele>1491.2</ele>
        <time>2021-05-27T11:31:30Z</time>
      </trkpt>
      <trkpt lat="45.62287" lon="6.8384">
        <ele>1491.4</ele>
        <time>2021-05-27T11:31:31Z</time>
      </trkpt>
      <trkpt lat="45.62284" lon="6.83846">
        <ele>1491.6</ele>
        <time>2021-05-27T11:31:32Z</time>
      </trkpt>
      <trkpt lat="45.62281" lon="6.83852">
        <ele>1492</ele>
        <time>2021-05-27T11:31:33Z</time>
      </trkpt>
      <trkpt lat="45.62278" lon="6.8386">
        <ele>1492.2</ele>
        <time>2021-05-27T11:31:34Z</time>
      </trkpt>
      <trkpt lat="45.62276" lon="6.83868">
        <ele>1492.8</ele>
        <time>2021-05-27T11:31:35Z</time>
      </trkpt>
      <trkpt lat="45.62273" lon="6.83875">
        <ele>1493.2</ele>
        <time>2021-05-27T11:31:36Z</time>
      </trkpt>
      <trkpt lat="45.6227" lon="6.83883">
        <ele>1493.4</ele>
        <time>2021-05-27T11:31:37Z</time>
      </trkpt>
      <trkpt lat="45.62268" lon="6.83891">
        <ele>1493.4</ele>
        <time>2021-05-27T11:31:38Z</time>
      </trkpt>
      <trkpt lat="45.62265" lon="6.839">
        <ele>1493.6</ele>
        <time>2021-05-27T11:31:39Z</time>
      </trkpt>
      <trkpt lat="45.62263" lon="6.83907">
        <ele>1493.8</ele>
        <time>2021-05-27T11:31:40Z</time>
      </trkpt>
      <trkpt lat="45.62259" lon="6.83913">
        <ele>1494</ele>
        <time>2021-05-27T11:31:41Z</time>
      </trkpt>
      <trkpt lat="45.62256" lon="6.8392">
        <ele>1494</ele>
        <time>2021-05-27T11:31:42Z</time>
      </trkpt>
      <trkpt lat="45.62253" lon="6.83927">
        <ele>1494.4</ele>
        <time>2021-05-27T11:31:43Z</time>
      </trkpt>
      <trkpt lat="45.6225" lon="6.83934">
        <ele>1494.6</ele>
        <time>2021-05-27T11:31:44Z</time>
      </trkpt>
      <trkpt lat="45.62247" lon="6.83941">
        <ele>1494.8</ele>
        <time>2021-05-27T11:31:45Z</time>
      </trkpt>
      <trkpt lat="45.62243" lon="6.83947">
        <ele>1495</ele>
        <time>2021-05-27T11:31:46Z</time>
      </trkpt>
      <trkpt lat="45.62239" lon="6.83953">
        <ele>1495.4</ele>
        <time>2021-05-27T11:31:47Z</time>
      </trkpt>
      <trkpt lat="45.62235" lon="6.83958">
        <ele>1495.6</ele>
        <time>2021-05-27T11:31:48Z</time>
      </trkpt>
      <trkpt lat="45.62231" lon="6.83964">
        <ele>1496</ele>
        <time>2021-05-27T11:31:49Z</time>
      </trkpt>
      <trkpt lat="45.62227" lon="6.8397">
        <ele>1496</ele>
        <time>2021-05-27T11:31:50Z</time>
      </trkpt>
      <trkpt lat="45.62224" lon="6.83974">
        <ele>1496.4</ele>
        <time>2021-05-27T11:31:51Z</time>
      </trkpt>
      <trkpt lat="45.6222" lon="6.8398">
        <ele>1497</ele>
        <time>2021-05-27T11:31:52Z</time>
      </trkpt>
      <trkpt lat="45.62217" lon="6.83986">
        <ele>1497</ele>
        <time>2021-05-27T11:31:53Z</time>
      </trkpt>
      <trkpt lat="45.62215" lon="6.83991">
        <ele>1497.4</ele>
        <time>2021-05-27T11:31:54Z</time>
      </trkpt>
      <trkpt lat="45.62212" lon="6.83996">
        <ele>1497</ele>
        <time>2021-05-27T11:31:55Z</time>
      </trkpt>
      <trkpt lat="45.6221" lon="6.84">
        <ele>1496.8</ele>
        <time>2021-05-27T11:31:56Z</time>
      </trkpt>
      <trkpt lat="45.62207" lon="6.84005">
        <ele>1496.6</ele>
        <time>2021-05-27T11:31:57Z</time>
      </trkpt>
      <trkpt lat="45.62204" lon="6.84009">
        <ele>1496.4</ele>
        <time>2021-05-27T11:31:58Z</time>
      </trkpt>
      <trkpt lat="45.62201" lon="6.84011">
        <ele>1496</ele>
        <time>2021-05-27T11:31:59Z</time>
      </trkpt>
      <trkpt lat="45.62198" lon="6.84014">
        <ele>1495.8</ele>
        <time>2021-05-27T11:32:00Z</time>
      </trkpt>
      <trkpt lat="45.62195" lon="6.84017">
        <ele>1495.4</ele>
        <time>2021-05-27T11:32:01Z</time>
      </trkpt>
      <trkpt lat="45.62191" lon="6.84021">
        <ele>1495</ele>
        <time>2021-05-27T11:32:02Z</time>
      </trkpt>
      <trkpt lat="45.62188" lon="6.84025">
        <ele>1494.8</ele>
        <time>2021-05-27T11:32:03Z</time>
      </trkpt>
      <trkpt lat="45.62184" lon="6.84028">
        <ele>1494.4</ele>
        <time>2021-05-27T11:32:04Z</time>
      </trkpt>
      <trkpt lat="45.6218" lon="6.84032">
        <ele>1494.2</ele>
        <time>2021-05-27T11:32:05Z</time>
      </trkpt>
      <trkpt lat="45.62175" lon="6.84038">
        <ele>1494.2</ele>
        <time>2021-05-27T11:32:06Z</time>
      </trkpt>
      <trkpt lat="45.62171" lon="6.84042">
        <ele>1494</ele>
        <time>2021-05-27T11:32:07Z</time>
      </trkpt>
      <trkpt lat="45.62167" lon="6.84046">
        <ele>1494.2</ele>
        <time>2021-05-27T11:32:08Z</time>
      </trkpt>
      <trkpt lat="45.62164" lon="6.8405">
        <ele>1494.8</ele>
        <time>2021-05-27T11:32:09Z</time>
      </trkpt>
      <trkpt lat="45.62161" lon="6.84055">
        <ele>1495.8</ele>
        <time>2021-05-27T11:32:10Z</time>
      </trkpt>
      <trkpt lat="45.62157" lon="6.84059">
        <ele>1496.6</ele>
        <time>2021-05-27T11:32:11Z</time>
      </trkpt>
      <trkpt lat="45.62154" lon="6.84063">
        <ele>1497.8</ele>
        <time>2021-05-27T11:32:12Z</time>
      </trkpt>
      <trkpt lat="45.6215" lon="6.84068">
        <ele>1498.6</ele>
        <time>2021-05-27T11:32:13Z</time>
      </trkpt>
      <trkpt lat="45.62148" lon="6.84073">
        <ele>1499.8</ele>
        <time>2021-05-27T11:32:14Z</time>
      </trkpt>
      <trkpt lat="45.62144" lon="6.84078">
        <ele>1500.6</ele>
        <time>2021-05-27T11:32:15Z</time>
      </trkpt>
      <trkpt lat="45.62141" lon="6.84082">
        <ele>1501.4</ele>
        <time>2021-05-27T11:32:16Z</time>
      </trkpt>
      <trkpt lat="45.62137" lon="6.84088">
        <ele>1501.6</ele>
        <time>2021-05-27T11:32:17Z</time>
      </trkpt>
      <trkpt lat="45.62134" lon="6.84093">
        <ele>1501.8</ele>
        <time>2021-05-27T11:32:18Z</time>
      </trkpt>
      <trkpt lat="45.6213" lon="6.84098">
        <ele>1501.6</ele>
        <time>2021-05-27T11:32:19Z</time>
      </trkpt>
      <trkpt lat="45.62126" lon="6.84103">
        <ele>1501.6</ele>
        <time>2021-05-27T11:32:20Z</time>
      </trkpt>
      <trkpt lat="45.62123" lon="6.84108">
        <ele>1501.6</ele>
        <time>2021-05-27T11:32:21Z</time>
      </trkpt>
      <trkpt lat="45.62119" lon="6.84112">
        <ele>1502</ele>
        <time>2021-05-27T11:32:22Z</time>
      </trkpt>
      <trkpt lat="45.62116" lon="6.84117">
        <ele>1502.6</ele>
        <time>2021-05-27T11:32:23Z</time>
      </trkpt>
      <trkpt lat="45.62112" lon="6.84122">
        <ele>1503</ele>
        <time>2021-05-27T11:32:24Z</time>
      </trkpt>
      <trkpt lat="45.62108" lon="6.84127">
        <ele>1503.6</ele>
        <time>2021-05-27T11:32:25Z</time>
      </trkpt>
      <trkpt lat="45.62105" lon="6.84131">
        <ele>1504.2</ele>
        <time>2021-05-27T11:32:26Z</time>
      </trkpt>
      <trkpt lat="45.62102" lon="6.84136">
        <ele>1504.8</ele>
        <time>2021-05-27T11:32:27Z</time>
      </trkpt>
      <trkpt lat="45.62098" lon="6.8414">
        <ele>1505.4</ele>
        <time>2021-05-27T11:32:28Z</time>
      </trkpt>
      <trkpt lat="45.62094" lon="6.84145">
        <ele>1505.8</ele>
        <time>2021-05-27T11:32:29Z</time>
      </trkpt>
      <trkpt lat="45.62091" lon="6.84151">
        <ele>1506.4</ele>
        <time>2021-05-27T11:32:30Z</time>
      </trkpt>
      <trkpt lat="45.62088" lon="6.84157">
        <ele>1507</ele>
        <time>2021-05-27T11:32:31Z</time>
      </trkpt>
      <trkpt lat="45.62085" lon="6.84163">
        <ele>1507.8</ele>
        <time>2021-05-27T11:32:32Z</time>
      </trkpt>
      <trkpt lat="45.62082" lon="6.84169">
        <ele>1508.4</ele>
        <time>2021-05-27T11:32:33Z</time>
      </trkpt>
      <trkpt lat="45.62078" lon="6.84176">
        <ele>1509</ele>
        <time>2021-05-27T11:32:34Z</time>
      </trkpt>
      <trkpt lat="45.62076" lon="6.84183">
        <ele>1509.6</ele>
        <time>2021-05-27T11:32:35Z</time>
      </trkpt>
      <trkpt lat="45.62073" lon="6.8419">
        <ele>1510.2</ele>
        <time>2021-05-27T11:32:36Z</time>
      </trkpt>
      <trkpt lat="45.6207" lon="6.84196">
        <ele>1510.6</ele>
        <time>2021-05-27T11:32:37Z</time>
      </trkpt>
      <trkpt lat="45.62067" lon="6.84203">
        <ele>1511.2</ele>
        <time>2021-05-27T11:32:38Z</time>
      </trkpt>
      <trkpt lat="45.62064" lon="6.8421">
        <ele>1511.6</ele>
        <time>2021-05-27T11:32:39Z</time>
      </trkpt>
      <trkpt lat="45.62061" lon="6.84217">
        <ele>1512.4</ele>
        <time>2021-05-27T11:32:40Z</time>
      </trkpt>
      <trkpt lat="45.62058" lon="6.84225">
        <ele>1513</ele>
        <time>2021-05-27T11:32:41Z</time>
      </trkpt>
      <trkpt lat="45.62056" lon="6.84233">
        <ele>1513.6</ele>
        <time>2021-05-27T11:32:42Z</time>
      </trkpt>
      <trkpt lat="45.62054" lon="6.8424">
        <ele>1514.2</ele>
        <time>2021-05-27T11:32:43Z</time>
      </trkpt>
      <trkpt lat="45.62052" lon="6.84248">
        <ele>1514.8</ele>
        <time>2021-05-27T11:32:44Z</time>
      </trkpt>
      <trkpt lat="45.62051" lon="6.84255">
        <ele>1515.4</ele>
        <time>2021-05-27T11:32:45Z</time>
      </trkpt>
      <trkpt lat="45.62048" lon="6.84263">
        <ele>1516</ele>
        <time>2021-05-27T11:32:46Z</time>
      </trkpt>
      <trkpt lat="45.62046" lon="6.8427">
        <ele>1516.6</ele>
        <time>2021-05-27T11:32:47Z</time>
      </trkpt>
      <trkpt lat="45.62044" lon="6.84278">
        <ele>1517</ele>
        <time>2021-05-27T11:32:48Z</time>
      </trkpt>
      <trkpt lat="45.62043" lon="6.84285">
        <ele>1517.2</ele>
        <time>2021-05-27T11:32:49Z</time>
      </trkpt>
      <trkpt lat="45.62041" lon="6.84292">
        <ele>1517.6</ele>
        <time>2021-05-27T11:32:50Z</time>
      </trkpt>
      <trkpt lat="45.62039" lon="6.843">
        <ele>1518</ele>
        <time>2021-05-27T11:32:51Z</time>
      </trkpt>
      <trkpt lat="45.62037" lon="6.84307">
        <ele>1518.4</ele>
        <time>2021-05-27T11:32:52Z</time>
      </trkpt>
      <trkpt lat="45.62036" lon="6.84314">
        <ele>1519</ele>
        <time>2021-05-27T11:32:53Z</time>
      </trkpt>
      <trkpt lat="45.62034" lon="6.84321">
        <ele>1519.6</ele>
        <time>2021-05-27T11:32:54Z</time>
      </trkpt>
      <trkpt lat="45.62032" lon="6.84328">
        <ele>1520</ele>
        <time>2021-05-27T11:32:55Z</time>
      </trkpt>
      <trkpt lat="45.62029" lon="6.84334">
        <ele>1520.4</ele>
        <time>2021-05-27T11:32:56Z</time>
      </trkpt>
      <trkpt lat="45.62027" lon="6.84341">
        <ele>1520.8</ele>
        <time>2021-05-27T11:32:57Z</time>
      </trkpt>
      <trkpt lat="45.62024" lon="6.84348">
        <ele>1521</ele>
        <time>2021-05-27T11:32:58Z</time>
      </trkpt>
      <trkpt lat="45.62022" lon="6.84356">
        <ele>1521.4</ele>
        <time>2021-05-27T11:32:59Z</time>
      </trkpt>
      <trkpt lat="45.6202" lon="6.84364">
        <ele>1521.8</ele>
        <time>2021-05-27T11:33:00Z</time>
      </trkpt>
      <trkpt lat="45.62018" lon="6.84371">
        <ele>1522.2</ele>
        <time>2021-05-27T11:33:01Z</time>
      </trkpt>
      <trkpt lat="45.62016" lon="6.84378">
        <ele>1522.4</ele>
        <time>2021-05-27T11:33:02Z</time>
      </trkpt>
      <trkpt lat="45.62014" lon="6.84385">
        <ele>1522.6</ele>
        <time>2021-05-27T11:33:03Z</time>
      </trkpt>
      <trkpt lat="45.62011" lon="6.84392">
        <ele>1522.8</ele>
        <time>2021-05-27T11:33:04Z</time>
      </trkpt>
      <trkpt lat="45.62007" lon="6.844">
        <ele>1523</ele>
        <time>2021-05-27T11:33:05Z</time>
      </trkpt>
      <trkpt lat="45.62005" lon="6.84408">
        <ele>1523.2</ele>
        <time>2021-05-27T11:33:06Z</time>
      </trkpt>
      <trkpt lat="45.62002" lon="6.84417">
        <ele>1523.6</ele>
        <time>2021-05-27T11:33:07Z</time>
      </trkpt>
      <trkpt lat="45.61999" lon="6.84424">
        <ele>1523.8</ele>
        <time>2021-05-27T11:33:08Z</time>
      </trkpt>
      <trkpt lat="45.61995" lon="6.8443">
        <ele>1523.8</ele>
        <time>2021-05-27T11:33:09Z</time>
      </trkpt>
      <trkpt lat="45.61991" lon="6.84435">
        <ele>1524.2</ele>
        <time>2021-05-27T11:33:10Z</time>
      </trkpt>
      <trkpt lat="45.61988" lon="6.8444">
        <ele>1524.2</ele>
        <time>2021-05-27T11:33:11Z</time>
      </trkpt>
      <trkpt lat="45.61984" lon="6.84447">
        <ele>1524.4</ele>
        <time>2021-05-27T11:33:12Z</time>
      </trkpt>
      <trkpt lat="45.6198" lon="6.84453">
        <ele>1524.6</ele>
        <time>2021-05-27T11:33:13Z</time>
      </trkpt>
      <trkpt lat="45.61977" lon="6.8446">
        <ele>1524.6</ele>
        <time>2021-05-27T11:33:14Z</time>
      </trkpt>
      <trkpt lat="45.61974" lon="6.84466">
        <ele>1524.6</ele>
        <time>2021-05-27T11:33:15Z</time>
      </trkpt>
      <trkpt lat="45.61971" lon="6.84473">
        <ele>1524.6</ele>
        <time>2021-05-27T11:33:16Z</time>
      </trkpt>
      <trkpt lat="45.61969" lon="6.84481">
        <ele>1524.8</ele>
        <time>2021-05-27T11:33:17Z</time>
      </trkpt>
      <trkpt lat="45.61966" lon="6.84487">
        <ele>1525</ele>
        <time>2021-05-27T11:33:18Z</time>
      </trkpt>
      <trkpt lat="45.61966" lon="6.84495">
        <ele>1525.2</ele>
        <time>2021-05-27T11:33:19Z</time>
      </trkpt>
      <trkpt lat="45.61967" lon="6.84502">
        <ele>1525.2</ele>
        <time>2021-05-27T11:33:20Z</time>
      </trkpt>
      <trkpt lat="45.61971" lon="6.84508">
        <ele>1525.2</ele>
        <time>2021-05-27T11:33:21Z</time>
      </trkpt>
      <trkpt lat="45.61975" lon="6.84509">
        <ele>1525.2</ele>
        <time>2021-05-27T11:33:22Z</time>
      </trkpt>
      <trkpt lat="45.61979" lon="6.84508">
        <ele>1525.4</ele>
        <time>2021-05-27T11:33:23Z</time>
      </trkpt>
      <trkpt lat="45.61983" lon="6.84504">
        <ele>1525.6</ele>
        <time>2021-05-27T11:33:24Z</time>
      </trkpt>
      <trkpt lat="45.61987" lon="6.84498">
        <ele>1526</ele>
        <time>2021-05-27T11:33:25Z</time>
      </trkpt>
      <trkpt lat="45.6199" lon="6.84492">
        <ele>1526.4</ele>
        <time>2021-05-27T11:33:26Z</time>
      </trkpt>
      <trkpt lat="45.61994" lon="6.84484">
        <ele>1526.6</ele>
        <time>2021-05-27T11:33:27Z</time>
      </trkpt>
      <trkpt lat="45.61997" lon="6.84476">
        <ele>1526.8</ele>
        <time>2021-05-27T11:33:28Z</time>
      </trkpt>
      <trkpt lat="45.62001" lon="6.84468">
        <ele>1527</ele>
        <time>2021-05-27T11:33:29Z</time>
      </trkpt>
      <trkpt lat="45.62004" lon="6.8446">
        <ele>1527.2</ele>
        <time>2021-05-27T11:33:30Z</time>
      </trkpt>
      <trkpt lat="45.62008" lon="6.84453">
        <ele>1527.6</ele>
        <time>2021-05-27T11:33:31Z</time>
      </trkpt>
      <trkpt lat="45.62011" lon="6.84445">
        <ele>1527.8</ele>
        <time>2021-05-27T11:33:32Z</time>
      </trkpt>
      <trkpt lat="45.62013" lon="6.84437">
        <ele>1528.2</ele>
        <time>2021-05-27T11:33:33Z</time>
      </trkpt>
      <trkpt lat="45.62017" lon="6.8443">
        <ele>1528.4</ele>
        <time>2021-05-27T11:33:34Z</time>
      </trkpt>
      <trkpt lat="45.6202" lon="6.84423">
        <ele>1528.6</ele>
        <time>2021-05-27T11:33:35Z</time>
      </trkpt>
      <trkpt lat="45.62024" lon="6.84416">
        <ele>1528.8</ele>
        <time>2021-05-27T11:33:36Z</time>
      </trkpt>
      <trkpt lat="45.62028" lon="6.84411">
        <ele>1529.2</ele>
        <time>2021-05-27T11:33:37Z</time>
      </trkpt>
      <trkpt lat="45.62033" lon="6.84405">
        <ele>1529.6</ele>
        <time>2021-05-27T11:33:38Z</time>
      </trkpt>
      <trkpt lat="45.62037" lon="6.84398">
        <ele>1529.8</ele>
        <time>2021-05-27T11:33:39Z</time>
      </trkpt>
      <trkpt lat="45.6204" lon="6.8439">
        <ele>1530</ele>
        <time>2021-05-27T11:33:40Z</time>
      </trkpt>
      <trkpt lat="45.62042" lon="6.84383">
        <ele>1530.2</ele>
        <time>2021-05-27T11:33:41Z</time>
      </trkpt>
      <trkpt lat="45.62045" lon="6.84375">
        <ele>1530.2</ele>
        <time>2021-05-27T11:33:42Z</time>
      </trkpt>
      <trkpt lat="45.62048" lon="6.84368">
        <ele>1530.6</ele>
        <time>2021-05-27T11:33:43Z</time>
      </trkpt>
      <trkpt lat="45.6205" lon="6.8436">
        <ele>1530.8</ele>
        <time>2021-05-27T11:33:44Z</time>
      </trkpt>
      <trkpt lat="45.62052" lon="6.84352">
        <ele>1531.2</ele>
        <time>2021-05-27T11:33:45Z</time>
      </trkpt>
      <trkpt lat="45.62055" lon="6.84345">
        <ele>1531.4</ele>
        <time>2021-05-27T11:33:46Z</time>
      </trkpt>
      <trkpt lat="45.62058" lon="6.84338">
        <ele>1531.6</ele>
        <time>2021-05-27T11:33:47Z</time>
      </trkpt>
      <trkpt lat="45.62062" lon="6.84333">
        <ele>1532.2</ele>
        <time>2021-05-27T11:33:48Z</time>
      </trkpt>
      <trkpt lat="45.62065" lon="6.84326">
        <ele>1532.4</ele>
        <time>2021-05-27T11:33:49Z</time>
      </trkpt>
      <trkpt lat="45.62068" lon="6.84318">
        <ele>1532.8</ele>
        <time>2021-05-27T11:33:50Z</time>
      </trkpt>
      <trkpt lat="45.62071" lon="6.84312">
        <ele>1533.2</ele>
        <time>2021-05-27T11:33:51Z</time>
      </trkpt>
      <trkpt lat="45.62075" lon="6.84305">
        <ele>1533.6</ele>
        <time>2021-05-27T11:33:52Z</time>
      </trkpt>
      <trkpt lat="45.62077" lon="6.84298">
        <ele>1533.8</ele>
        <time>2021-05-27T11:33:53Z</time>
      </trkpt>
      <trkpt lat="45.6208" lon="6.8429">
        <ele>1534</ele>
        <time>2021-05-27T11:33:54Z</time>
      </trkpt>
      <trkpt lat="45.62083" lon="6.84284">
        <ele>1534.4</ele>
        <time>2021-05-27T11:33:55Z</time>
      </trkpt>
      <trkpt lat="45.62086" lon="6.84277">
        <ele>1534.6</ele>
        <time>2021-05-27T11:33:56Z</time>
      </trkpt>
      <trkpt lat="45.62089" lon="6.84271">
        <ele>1534.8</ele>
        <time>2021-05-27T11:33:57Z</time>
      </trkpt>
      <trkpt lat="45.62092" lon="6.84264">
        <ele>1535.2</ele>
        <time>2021-05-27T11:33:58Z</time>
      </trkpt>
      <trkpt lat="45.62095" lon="6.84258">
        <ele>1535.4</ele>
        <time>2021-05-27T11:33:59Z</time>
      </trkpt>
      <trkpt lat="45.62098" lon="6.84251">
        <ele>1535.4</ele>
        <time>2021-05-27T11:34:00Z</time>
      </trkpt>
      <trkpt lat="45.62101" lon="6.84244">
        <ele>1535.6</ele>
        <time>2021-05-27T11:34:01Z</time>
      </trkpt>
      <trkpt lat="45.62104" lon="6.84238">
        <ele>1535.8</ele>
        <time>2021-05-27T11:34:02Z</time>
      </trkpt>
      <trkpt lat="45.62108" lon="6.84232">
        <ele>1535.8</ele>
        <time>2021-05-27T11:34:03Z</time>
      </trkpt>
      <trkpt lat="45.62111" lon="6.84226">
        <ele>1536</ele>
        <time>2021-05-27T11:34:04Z</time>
      </trkpt>
      <trkpt lat="45.62115" lon="6.8422">
        <ele>1536</ele>
        <time>2021-05-27T11:34:05Z</time>
      </trkpt>
      <trkpt lat="45.62118" lon="6.84213">
        <ele>1536</ele>
        <time>2021-05-27T11:34:06Z</time>
      </trkpt>
      <trkpt lat="45.62122" lon="6.84207">
        <ele>1536.2</ele>
        <time>2021-05-27T11:34:07Z</time>
      </trkpt>
      <trkpt lat="45.62126" lon="6.84202">
        <ele>1536.4</ele>
        <time>2021-05-27T11:34:08Z</time>
      </trkpt>
      <trkpt lat="45.6213" lon="6.84197">
        <ele>1536.4</ele>
        <time>2021-05-27T11:34:09Z</time>
      </trkpt>
      <trkpt lat="45.62134" lon="6.84192">
        <ele>1536.4</ele>
        <time>2021-05-27T11:34:10Z</time>
      </trkpt>
      <trkpt lat="45.62139" lon="6.84187">
        <ele>1536.6</ele>
        <time>2021-05-27T11:34:11Z</time>
      </trkpt>
      <trkpt lat="45.62143" lon="6.84182">
        <ele>1536.8</ele>
        <time>2021-05-27T11:34:12Z</time>
      </trkpt>
      <trkpt lat="45.62148" lon="6.84177">
        <ele>1537.2</ele>
        <time>2021-05-27T11:34:13Z</time>
      </trkpt>
      <trkpt lat="45.62152" lon="6.84172">
        <ele>1537.4</ele>
        <time>2021-05-27T11:34:14Z</time>
      </trkpt>
      <trkpt lat="45.62157" lon="6.84167">
        <ele>1537.4</ele>
        <time>2021-05-27T11:34:15Z</time>
      </trkpt>
      <trkpt lat="45.62161" lon="6.84162">
        <ele>1538</ele>
        <time>2021-05-27T11:34:16Z</time>
      </trkpt>
      <trkpt lat="45.62165" lon="6.84156">
        <ele>1538</ele>
        <time>2021-05-27T11:34:17Z</time>
      </trkpt>
      <trkpt lat="45.6217" lon="6.8415">
        <ele>1538</ele>
        <time>2021-05-27T11:34:18Z</time>
      </trkpt>
      <trkpt lat="45.62174" lon="6.84145">
        <ele>1538</ele>
        <time>2021-05-27T11:34:19Z</time>
      </trkpt>
      <trkpt lat="45.62178" lon="6.84138">
        <ele>1538</ele>
        <time>2021-05-27T11:34:20Z</time>
      </trkpt>
      <trkpt lat="45.62181" lon="6.84132">
        <ele>1537.8</ele>
        <time>2021-05-27T11:34:21Z</time>
      </trkpt>
      <trkpt lat="45.62185" lon="6.84125">
        <ele>1537.6</ele>
        <time>2021-05-27T11:34:22Z</time>
      </trkpt>
      <trkpt lat="45.62188" lon="6.84118">
        <ele>1537.4</ele>
        <time>2021-05-27T11:34:23Z</time>
      </trkpt>
      <trkpt lat="45.62191" lon="6.84111">
        <ele>1537.2</ele>
        <time>2021-05-27T11:34:24Z</time>
      </trkpt>
      <trkpt lat="45.62195" lon="6.84105">
        <ele>1536.8</ele>
        <time>2021-05-27T11:34:25Z</time>
      </trkpt>
      <trkpt lat="45.62198" lon="6.84098">
        <ele>1536.6</ele>
        <time>2021-05-27T11:34:26Z</time>
      </trkpt>
      <trkpt lat="45.62203" lon="6.84093">
        <ele>1536.2</ele>
        <time>2021-05-27T11:34:27Z</time>
      </trkpt>
      <trkpt lat="45.62207" lon="6.84088">
        <ele>1536</ele>
        <time>2021-05-27T11:34:28Z</time>
      </trkpt>
      <trkpt lat="45.62213" lon="6.84083">
        <ele>1535.6</ele>
        <time>2021-05-27T11:34:29Z</time>
      </trkpt>
      <trkpt lat="45.62219" lon="6.84079">
        <ele>1535.2</ele>
        <time>2021-05-27T11:34:30Z</time>
      </trkpt>
      <trkpt lat="45.62224" lon="6.84075">
        <ele>1534.8</ele>
        <time>2021-05-27T11:34:31Z</time>
      </trkpt>
      <trkpt lat="45.6223" lon="6.84072">
        <ele>1534.8</ele>
        <time>2021-05-27T11:34:32Z</time>
      </trkpt>
      <trkpt lat="45.62236" lon="6.84068">
        <ele>1534.6</ele>
        <time>2021-05-27T11:34:33Z</time>
      </trkpt>
      <trkpt lat="45.62243" lon="6.84064">
        <ele>1534.4</ele>
        <time>2021-05-27T11:34:34Z</time>
      </trkpt>
      <trkpt lat="45.62249" lon="6.84061">
        <ele>1534.4</ele>
        <time>2021-05-27T11:34:35Z</time>
      </trkpt>
      <trkpt lat="45.62255" lon="6.84058">
        <ele>1534.4</ele>
        <time>2021-05-27T11:34:36Z</time>
      </trkpt>
      <trkpt lat="45.62261" lon="6.84056">
        <ele>1534.4</ele>
        <time>2021-05-27T11:34:37Z</time>
      </trkpt>
      <trkpt lat="45.62268" lon="6.84053">
        <ele>1534.4</ele>
        <time>2021-05-27T11:34:38Z</time>
      </trkpt>
      <trkpt lat="45.62274" lon="6.84051">
        <ele>1534.6</ele>
        <time>2021-05-27T11:34:39Z</time>
      </trkpt>
      <trkpt lat="45.6228" lon="6.84048">
        <ele>1534.8</ele>
        <time>2021-05-27T11:34:40Z</time>
      </trkpt>
      <trkpt lat="45.62286" lon="6.84046">
        <ele>1535.2</ele>
        <time>2021-05-27T11:34:41Z</time>
      </trkpt>
      <trkpt lat="45.62292" lon="6.84043">
        <ele>1535.2</ele>
        <time>2021-05-27T11:34:42Z</time>
      </trkpt>
      <trkpt lat="45.62299" lon="6.8404">
        <ele>1535.4</ele>
        <time>2021-05-27T11:34:43Z</time>
      </trkpt>
      <trkpt lat="45.62305" lon="6.84037">
        <ele>1535.4</ele>
        <time>2021-05-27T11:34:44Z</time>
      </trkpt>
      <trkpt lat="45.62311" lon="6.84034">
        <ele>1535.6</ele>
        <time>2021-05-27T11:34:45Z</time>
      </trkpt>
      <trkpt lat="45.62316" lon="6.84032">
        <ele>1535.8</ele>
        <time>2021-05-27T11:34:46Z</time>
      </trkpt>
      <trkpt lat="45.62322" lon="6.84028">
        <ele>1536.2</ele>
        <time>2021-05-27T11:34:47Z</time>
      </trkpt>
      <trkpt lat="45.62328" lon="6.84025">
        <ele>1536.4</ele>
        <time>2021-05-27T11:34:48Z</time>
      </trkpt>
      <trkpt lat="45.62332" lon="6.84021">
        <ele>1536.6</ele>
        <time>2021-05-27T11:34:49Z</time>
      </trkpt>
      <trkpt lat="45.62337" lon="6.84017">
        <ele>1537</ele>
        <time>2021-05-27T11:34:50Z</time>
      </trkpt>
      <trkpt lat="45.62341" lon="6.84013">
        <ele>1537.4</ele>
        <time>2021-05-27T11:34:51Z</time>
      </trkpt>
      <trkpt lat="45.62346" lon="6.84009">
        <ele>1537.4</ele>
        <time>2021-05-27T11:34:52Z</time>
      </trkpt>
      <trkpt lat="45.62349" lon="6.84004">
        <ele>1537.8</ele>
        <time>2021-05-27T11:34:53Z</time>
      </trkpt>
      <trkpt lat="45.62353" lon="6.83998">
        <ele>1538.2</ele>
        <time>2021-05-27T11:34:54Z</time>
      </trkpt>
      <trkpt lat="45.62356" lon="6.83992">
        <ele>1538.6</ele>
        <time>2021-05-27T11:34:55Z</time>
      </trkpt>
      <trkpt lat="45.6236" lon="6.83986">
        <ele>1539</ele>
        <time>2021-05-27T11:34:56Z</time>
      </trkpt>
      <trkpt lat="45.62364" lon="6.8398">
        <ele>1539.4</ele>
        <time>2021-05-27T11:34:57Z</time>
      </trkpt>
      <trkpt lat="45.62368" lon="6.83974">
        <ele>1539.6</ele>
        <time>2021-05-27T11:34:58Z</time>
      </trkpt>
      <trkpt lat="45.62372" lon="6.83968">
        <ele>1540</ele>
        <time>2021-05-27T11:34:59Z</time>
      </trkpt>
      <trkpt lat="45.62375" lon="6.83961">
        <ele>1540.4</ele>
        <time>2021-05-27T11:35:00Z</time>
      </trkpt>
      <trkpt lat="45.62379" lon="6.83954">
        <ele>1540.8</ele>
        <time>2021-05-27T11:35:01Z</time>
      </trkpt>
      <trkpt lat="45.62382" lon="6.83946">
        <ele>1541.2</ele>
        <time>2021-05-27T11:35:02Z</time>
      </trkpt>
      <trkpt lat="45.62386" lon="6.8394">
        <ele>1541.8</ele>
        <time>2021-05-27T11:35:03Z</time>
      </trkpt>
      <trkpt lat="45.6239" lon="6.83935">
        <ele>1542.2</ele>
        <time>2021-05-27T11:35:04Z</time>
      </trkpt>
      <trkpt lat="45.62394" lon="6.8393">
        <ele>1542.4</ele>
        <time>2021-05-27T11:35:05Z</time>
      </trkpt>
      <trkpt lat="45.62397" lon="6.83926">
        <ele>1543</ele>
        <time>2021-05-27T11:35:06Z</time>
      </trkpt>
      <trkpt lat="45.62401" lon="6.83921">
        <ele>1543.8</ele>
        <time>2021-05-27T11:35:07Z</time>
      </trkpt>
      <trkpt lat="45.62405" lon="6.83917">
        <ele>1544.4</ele>
        <time>2021-05-27T11:35:08Z</time>
      </trkpt>
      <trkpt lat="45.6241" lon="6.83912">
        <ele>1544.6</ele>
        <time>2021-05-27T11:35:09Z</time>
      </trkpt>
      <trkpt lat="45.62413" lon="6.83909">
        <ele>1544.6</ele>
        <time>2021-05-27T11:35:10Z</time>
      </trkpt>
      <trkpt lat="45.62417" lon="6.83904">
        <ele>1544.8</ele>
        <time>2021-05-27T11:35:11Z</time>
      </trkpt>
      <trkpt lat="45.62421" lon="6.83901">
        <ele>1545</ele>
        <time>2021-05-27T11:35:12Z</time>
      </trkpt>
      <trkpt lat="45.62425" lon="6.83899">
        <ele>1545.2</ele>
        <time>2021-05-27T11:35:13Z</time>
      </trkpt>
      <trkpt lat="45.62429" lon="6.83896">
        <ele>1545</ele>
        <time>2021-05-27T11:35:14Z</time>
      </trkpt>
      <trkpt lat="45.62434" lon="6.83894">
        <ele>1544.8</ele>
        <time>2021-05-27T11:35:15Z</time>
      </trkpt>
      <trkpt lat="45.62438" lon="6.83892">
        <ele>1544.6</ele>
        <time>2021-05-27T11:35:16Z</time>
      </trkpt>
      <trkpt lat="45.62442" lon="6.83891">
        <ele>1544</ele>
        <time>2021-05-27T11:35:17Z</time>
      </trkpt>
      <trkpt lat="45.62446" lon="6.83889">
        <ele>1544</ele>
        <time>2021-05-27T11:35:18Z</time>
      </trkpt>
      <trkpt lat="45.62451" lon="6.83888">
        <ele>1544</ele>
        <time>2021-05-27T11:35:19Z</time>
      </trkpt>
      <trkpt lat="45.62455" lon="6.83885">
        <ele>1544.2</ele>
        <time>2021-05-27T11:35:20Z</time>
      </trkpt>
      <trkpt lat="45.62459" lon="6.83883">
        <ele>1544</ele>
        <time>2021-05-27T11:35:21Z</time>
      </trkpt>
      <trkpt lat="45.62463" lon="6.83882">
        <ele>1544</ele>
        <time>2021-05-27T11:35:22Z</time>
      </trkpt>
      <trkpt lat="45.62469" lon="6.83881">
        <ele>1544</ele>
        <time>2021-05-27T11:35:23Z</time>
      </trkpt>
      <trkpt lat="45.62474" lon="6.8388">
        <ele>1544</ele>
        <time>2021-05-27T11:35:24Z</time>
      </trkpt>
      <trkpt lat="45.62479" lon="6.83879">
        <ele>1544.2</ele>
        <time>2021-05-27T11:35:25Z</time>
      </trkpt>
      <trkpt lat="45.62484" lon="6.83879">
        <ele>1545</ele>
        <time>2021-05-27T11:35:26Z</time>
      </trkpt>
      <trkpt lat="45.62489" lon="6.83879">
        <ele>1545.8</ele>
        <time>2021-05-27T11:35:27Z</time>
      </trkpt>
      <trkpt lat="45.62494" lon="6.83878">
        <ele>1546.6</ele>
        <time>2021-05-27T11:35:28Z</time>
      </trkpt>
      <trkpt lat="45.62499" lon="6.83878">
        <ele>1547.8</ele>
        <time>2021-05-27T11:35:29Z</time>
      </trkpt>
      <trkpt lat="45.62503" lon="6.83878">
        <ele>1549</ele>
        <time>2021-05-27T11:35:30Z</time>
      </trkpt>
      <trkpt lat="45.62508" lon="6.83878">
        <ele>1550</ele>
        <time>2021-05-27T11:35:31Z</time>
      </trkpt>
      <trkpt lat="45.62513" lon="6.83877">
        <ele>1551</ele>
        <time>2021-05-27T11:35:32Z</time>
      </trkpt>
      <trkpt lat="45.62518" lon="6.83875">
        <ele>1551.8</ele>
        <time>2021-05-27T11:35:33Z</time>
      </trkpt>
      <trkpt lat="45.62523" lon="6.83873">
        <ele>1552.8</ele>
        <time>2021-05-27T11:35:34Z</time>
      </trkpt>
      <trkpt lat="45.62527" lon="6.83871">
        <ele>1553.6</ele>
        <time>2021-05-27T11:35:35Z</time>
      </trkpt>
      <trkpt lat="45.62533" lon="6.83868">
        <ele>1554.2</ele>
        <time>2021-05-27T11:35:36Z</time>
      </trkpt>
      <trkpt lat="45.62537" lon="6.83865">
        <ele>1555</ele>
        <time>2021-05-27T11:35:37Z</time>
      </trkpt>
      <trkpt lat="45.62541" lon="6.83862">
        <ele>1555.6</ele>
        <time>2021-05-27T11:35:38Z</time>
      </trkpt>
      <trkpt lat="45.62546" lon="6.83859">
        <ele>1556.6</ele>
        <time>2021-05-27T11:35:39Z</time>
      </trkpt>
      <trkpt lat="45.6255" lon="6.83856">
        <ele>1557</ele>
        <time>2021-05-27T11:35:40Z</time>
      </trkpt>
      <trkpt lat="45.62554" lon="6.83853">
        <ele>1557.6</ele>
        <time>2021-05-27T11:35:41Z</time>
      </trkpt>
      <trkpt lat="45.62558" lon="6.83849">
        <ele>1558.4</ele>
        <time>2021-05-27T11:35:42Z</time>
      </trkpt>
      <trkpt lat="45.62562" lon="6.83844">
        <ele>1559</ele>
        <time>2021-05-27T11:35:43Z</time>
      </trkpt>
      <trkpt lat="45.62566" lon="6.83838">
        <ele>1559.6</ele>
        <time>2021-05-27T11:35:44Z</time>
      </trkpt>
      <trkpt lat="45.6257" lon="6.83834">
        <ele>1560.2</ele>
        <time>2021-05-27T11:35:45Z</time>
      </trkpt>
      <trkpt lat="45.62574" lon="6.83828">
        <ele>1560.8</ele>
        <time>2021-05-27T11:35:46Z</time>
      </trkpt>
      <trkpt lat="45.62577" lon="6.83824">
        <ele>1561.4</ele>
        <time>2021-05-27T11:35:47Z</time>
      </trkpt>
      <trkpt lat="45.6258" lon="6.83819">
        <ele>1561.8</ele>
        <time>2021-05-27T11:35:48Z</time>
      </trkpt>
      <trkpt lat="45.62582" lon="6.83813">
        <ele>1562.4</ele>
        <time>2021-05-27T11:35:49Z</time>
      </trkpt>
      <trkpt lat="45.62586" lon="6.83807">
        <ele>1563</ele>
        <time>2021-05-27T11:35:50Z</time>
      </trkpt>
      <trkpt lat="45.6259" lon="6.83802">
        <ele>1563.4</ele>
        <time>2021-05-27T11:35:51Z</time>
      </trkpt>
      <trkpt lat="45.62593" lon="6.83798">
        <ele>1564</ele>
        <time>2021-05-27T11:35:52Z</time>
      </trkpt>
      <trkpt lat="45.62596" lon="6.83793">
        <ele>1564.4</ele>
        <time>2021-05-27T11:35:53Z</time>
      </trkpt>
      <trkpt lat="45.62601" lon="6.83789">
        <ele>1565.2</ele>
        <time>2021-05-27T11:35:54Z</time>
      </trkpt>
      <trkpt lat="45.62605" lon="6.83785">
        <ele>1565.6</ele>
        <time>2021-05-27T11:35:55Z</time>
      </trkpt>
      <trkpt lat="45.62609" lon="6.83781">
        <ele>1566.2</ele>
        <time>2021-05-27T11:35:56Z</time>
      </trkpt>
      <trkpt lat="45.62612" lon="6.83776">
        <ele>1567</ele>
        <time>2021-05-27T11:35:57Z</time>
      </trkpt>
      <trkpt lat="45.62615" lon="6.83771">
        <ele>1567.6</ele>
        <time>2021-05-27T11:35:58Z</time>
      </trkpt>
      <trkpt lat="45.62619" lon="6.83766">
        <ele>1568.2</ele>
        <time>2021-05-27T11:35:59Z</time>
      </trkpt>
      <trkpt lat="45.62622" lon="6.83761">
        <ele>1568.6</ele>
        <time>2021-05-27T11:36:00Z</time>
      </trkpt>
      <trkpt lat="45.62625" lon="6.83755">
        <ele>1569.2</ele>
        <time>2021-05-27T11:36:01Z</time>
      </trkpt>
      <trkpt lat="45.62628" lon="6.8375">
        <ele>1569.8</ele>
        <time>2021-05-27T11:36:02Z</time>
      </trkpt>
      <trkpt lat="45.62631" lon="6.83744">
        <ele>1570.2</ele>
        <time>2021-05-27T11:36:03Z</time>
      </trkpt>
      <trkpt lat="45.62634" lon="6.83738">
        <ele>1570.6</ele>
        <time>2021-05-27T11:36:04Z</time>
      </trkpt>
      <trkpt lat="45.62636" lon="6.83732">
        <ele>1570.8</ele>
        <time>2021-05-27T11:36:05Z</time>
      </trkpt>
      <trkpt lat="45.6264" lon="6.83726">
        <ele>1571</ele>
        <time>2021-05-27T11:36:06Z</time>
      </trkpt>
      <trkpt lat="45.62642" lon="6.83721">
        <ele>1571.6</ele>
        <time>2021-05-27T11:36:07Z</time>
      </trkpt>
      <trkpt lat="45.62645" lon="6.83715">
        <ele>1572</ele>
        <time>2021-05-27T11:36:08Z</time>
      </trkpt>
      <trkpt lat="45.62648" lon="6.8371">
        <ele>1572.2</ele>
        <time>2021-05-27T11:36:09Z</time>
      </trkpt>
      <trkpt lat="45.62651" lon="6.83705">
        <ele>1572.8</ele>
        <time>2021-05-27T11:36:10Z</time>
      </trkpt>
      <trkpt lat="45.62654" lon="6.83699">
        <ele>1573.2</ele>
        <time>2021-05-27T11:36:11Z</time>
      </trkpt>
      <trkpt lat="45.62657" lon="6.83694">
        <ele>1573.6</ele>
        <time>2021-05-27T11:36:12Z</time>
      </trkpt>
      <trkpt lat="45.6266" lon="6.83689">
        <ele>1574</ele>
        <time>2021-05-27T11:36:13Z</time>
      </trkpt>
      <trkpt lat="45.62663" lon="6.83683">
        <ele>1574.4</ele>
        <time>2021-05-27T11:36:14Z</time>
      </trkpt>
      <trkpt lat="45.62667" lon="6.83678">
        <ele>1574.8</ele>
        <time>2021-05-27T11:36:15Z</time>
      </trkpt>
      <trkpt lat="45.6267" lon="6.83673">
        <ele>1574.8</ele>
        <time>2021-05-27T11:36:16Z</time>
      </trkpt>
      <trkpt lat="45.62674" lon="6.83669">
        <ele>1575.2</ele>
        <time>2021-05-27T11:36:17Z</time>
      </trkpt>
      <trkpt lat="45.62678" lon="6.83665">
        <ele>1575.8</ele>
        <time>2021-05-27T11:36:18Z</time>
      </trkpt>
      <trkpt lat="45.62682" lon="6.83661">
        <ele>1576</ele>
        <time>2021-05-27T11:36:19Z</time>
      </trkpt>
      <trkpt lat="45.62687" lon="6.83658">
        <ele>1576.6</ele>
        <time>2021-05-27T11:36:20Z</time>
      </trkpt>
      <trkpt lat="45.62691" lon="6.83656">
        <ele>1576.8</ele>
        <time>2021-05-27T11:36:21Z</time>
      </trkpt>
      <trkpt lat="45.62696" lon="6.83654">
        <ele>1577.2</ele>
        <time>2021-05-27T11:36:22Z</time>
      </trkpt>
      <trkpt lat="45.62701" lon="6.83652">
        <ele>1577.8</ele>
        <time>2021-05-27T11:36:23Z</time>
      </trkpt>
      <trkpt lat="45.62706" lon="6.83649">
        <ele>1578</ele>
        <time>2021-05-27T11:36:24Z</time>
      </trkpt>
      <trkpt lat="45.6271" lon="6.83646">
        <ele>1578.2</ele>
        <time>2021-05-27T11:36:25Z</time>
      </trkpt>
      <trkpt lat="45.62714" lon="6.83642">
        <ele>1578.4</ele>
        <time>2021-05-27T11:36:26Z</time>
      </trkpt>
      <trkpt lat="45.62719" lon="6.83638">
        <ele>1578.6</ele>
        <time>2021-05-27T11:36:27Z</time>
      </trkpt>
      <trkpt lat="45.62723" lon="6.83634">
        <ele>1578.6</ele>
        <time>2021-05-27T11:36:28Z</time>
      </trkpt>
      <trkpt lat="45.62727" lon="6.8363">
        <ele>1579</ele>
        <time>2021-05-27T11:36:29Z</time>
      </trkpt>
      <trkpt lat="45.62732" lon="6.83626">
        <ele>1579.4</ele>
        <time>2021-05-27T11:36:30Z</time>
      </trkpt>
      <trkpt lat="45.62736" lon="6.83623">
        <ele>1579.8</ele>
        <time>2021-05-27T11:36:31Z</time>
      </trkpt>
      <trkpt lat="45.6274" lon="6.83619">
        <ele>1580.2</ele>
        <time>2021-05-27T11:36:32Z</time>
      </trkpt>
      <trkpt lat="45.62745" lon="6.83615">
        <ele>1580.4</ele>
        <time>2021-05-27T11:36:33Z</time>
      </trkpt>
      <trkpt lat="45.62749" lon="6.83611">
        <ele>1581</ele>
        <time>2021-05-27T11:36:34Z</time>
      </trkpt>
      <trkpt lat="45.62753" lon="6.83608">
        <ele>1581.4</ele>
        <time>2021-05-27T11:36:35Z</time>
      </trkpt>
      <trkpt lat="45.62757" lon="6.83603">
        <ele>1581.6</ele>
        <time>2021-05-27T11:36:36Z</time>
      </trkpt>
      <trkpt lat="45.62761" lon="6.83599">
        <ele>1582</ele>
        <time>2021-05-27T11:36:37Z</time>
      </trkpt>
      <trkpt lat="45.62765" lon="6.83593">
        <ele>1582.4</ele>
        <time>2021-05-27T11:36:38Z</time>
      </trkpt>
      <trkpt lat="45.62769" lon="6.83588">
        <ele>1583</ele>
        <time>2021-05-27T11:36:39Z</time>
      </trkpt>
      <trkpt lat="45.62772" lon="6.83584">
        <ele>1583</ele>
        <time>2021-05-27T11:36:40Z</time>
      </trkpt>
      <trkpt lat="45.62775" lon="6.83579">
        <ele>1583.6</ele>
        <time>2021-05-27T11:36:41Z</time>
      </trkpt>
      <trkpt lat="45.62777" lon="6.83573">
        <ele>1583.8</ele>
        <time>2021-05-27T11:36:42Z</time>
      </trkpt>
      <trkpt lat="45.6278" lon="6.83566">
        <ele>1583.8</ele>
        <time>2021-05-27T11:36:43Z</time>
      </trkpt>
      <trkpt lat="45.62784" lon="6.83559">
        <ele>1584.4</ele>
        <time>2021-05-27T11:36:44Z</time>
      </trkpt>
      <trkpt lat="45.62787" lon="6.83554">
        <ele>1584.8</ele>
        <time>2021-05-27T11:36:45Z</time>
      </trkpt>
      <trkpt lat="45.62789" lon="6.83548">
        <ele>1585</ele>
        <time>2021-05-27T11:36:46Z</time>
      </trkpt>
      <trkpt lat="45.62792" lon="6.83541">
        <ele>1585.2</ele>
        <time>2021-05-27T11:36:47Z</time>
      </trkpt>
      <trkpt lat="45.62794" lon="6.83534">
        <ele>1585.6</ele>
        <time>2021-05-27T11:36:48Z</time>
      </trkpt>
      <trkpt lat="45.62796" lon="6.83528">
        <ele>1585.8</ele>
        <time>2021-05-27T11:36:49Z</time>
      </trkpt>
      <trkpt lat="45.62799" lon="6.83522">
        <ele>1586.2</ele>
        <time>2021-05-27T11:36:50Z</time>
      </trkpt>
      <trkpt lat="45.62802" lon="6.83516">
        <ele>1586.6</ele>
        <time>2021-05-27T11:36:51Z</time>
      </trkpt>
      <trkpt lat="45.62805" lon="6.83511">
        <ele>1587</ele>
        <time>2021-05-27T11:36:52Z</time>
      </trkpt>
      <trkpt lat="45.62809" lon="6.83505">
        <ele>1587.4</ele>
        <time>2021-05-27T11:36:53Z</time>
      </trkpt>
      <trkpt lat="45.62813" lon="6.83501">
        <ele>1587.6</ele>
        <time>2021-05-27T11:36:54Z</time>
      </trkpt>
      <trkpt lat="45.62817" lon="6.835">
        <ele>1588</ele>
        <time>2021-05-27T11:36:55Z</time>
      </trkpt>
      <trkpt lat="45.62821" lon="6.83503">
        <ele>1588.2</ele>
        <time>2021-05-27T11:36:56Z</time>
      </trkpt>
      <trkpt lat="45.62821" lon="6.83508">
        <ele>1588.6</ele>
        <time>2021-05-27T11:36:57Z</time>
      </trkpt>
      <trkpt lat="45.6282" lon="6.83513">
        <ele>1588.8</ele>
        <time>2021-05-27T11:36:58Z</time>
      </trkpt>
      <trkpt lat="45.62817" lon="6.83519">
        <ele>1589.2</ele>
        <time>2021-05-27T11:36:59Z</time>
      </trkpt>
      <trkpt lat="45.62812" lon="6.83524">
        <ele>1589.4</ele>
        <time>2021-05-27T11:37:00Z</time>
      </trkpt>
      <trkpt lat="45.62809" lon="6.8353">
        <ele>1590</ele>
        <time>2021-05-27T11:37:01Z</time>
      </trkpt>
      <trkpt lat="45.62805" lon="6.83538">
        <ele>1590</ele>
        <time>2021-05-27T11:37:02Z</time>
      </trkpt>
      <trkpt lat="45.62802" lon="6.83544">
        <ele>1590.2</ele>
        <time>2021-05-27T11:37:03Z</time>
      </trkpt>
      <trkpt lat="45.62799" lon="6.83552">
        <ele>1590</ele>
        <time>2021-05-27T11:37:04Z</time>
      </trkpt>
      <trkpt lat="45.62796" lon="6.83559">
        <ele>1589.8</ele>
        <time>2021-05-27T11:37:05Z</time>
      </trkpt>
      <trkpt lat="45.62792" lon="6.83567">
        <ele>1589.4</ele>
        <time>2021-05-27T11:37:06Z</time>
      </trkpt>
      <trkpt lat="45.62789" lon="6.83575">
        <ele>1589</ele>
        <time>2021-05-27T11:37:07Z</time>
      </trkpt>
      <trkpt lat="45.62787" lon="6.83582">
        <ele>1589</ele>
        <time>2021-05-27T11:37:08Z</time>
      </trkpt>
      <trkpt lat="45.62784" lon="6.83591">
        <ele>1589</ele>
        <time>2021-05-27T11:37:09Z</time>
      </trkpt>
      <trkpt lat="45.62781" lon="6.83597">
        <ele>1589.2</ele>
        <time>2021-05-27T11:37:10Z</time>
      </trkpt>
      <trkpt lat="45.62778" lon="6.83604">
        <ele>1589.4</ele>
        <time>2021-05-27T11:37:11Z</time>
      </trkpt>
      <trkpt lat="45.62775" lon="6.8361">
        <ele>1589.4</ele>
        <time>2021-05-27T11:37:12Z</time>
      </trkpt>
      <trkpt lat="45.62772" lon="6.83617">
        <ele>1589.6</ele>
        <time>2021-05-27T11:37:13Z</time>
      </trkpt>
      <trkpt lat="45.62768" lon="6.83623">
        <ele>1589.4</ele>
        <time>2021-05-27T11:37:14Z</time>
      </trkpt>
      <trkpt lat="45.62763" lon="6.83628">
        <ele>1589.4</ele>
        <time>2021-05-27T11:37:15Z</time>
      </trkpt>
      <trkpt lat="45.62759" lon="6.83633">
        <ele>1589</ele>
        <time>2021-05-27T11:37:16Z</time>
      </trkpt>
      <trkpt lat="45.62754" lon="6.83637">
        <ele>1588.8</ele>
        <time>2021-05-27T11:37:17Z</time>
      </trkpt>
      <trkpt lat="45.62749" lon="6.8364">
        <ele>1588.8</ele>
        <time>2021-05-27T11:37:18Z</time>
      </trkpt>
      <trkpt lat="45.62744" lon="6.83644">
        <ele>1589</ele>
        <time>2021-05-27T11:37:19Z</time>
      </trkpt>
      <trkpt lat="45.62739" lon="6.83648">
        <ele>1589.2</ele>
        <time>2021-05-27T11:37:20Z</time>
      </trkpt>
      <trkpt lat="45.62735" lon="6.83653">
        <ele>1589.4</ele>
        <time>2021-05-27T11:37:21Z</time>
      </trkpt>
      <trkpt lat="45.62731" lon="6.8366">
        <ele>1589.6</ele>
        <time>2021-05-27T11:37:22Z</time>
      </trkpt>
      <trkpt lat="45.62728" lon="6.83666">
        <ele>1589.8</ele>
        <time>2021-05-27T11:37:23Z</time>
      </trkpt>
      <trkpt lat="45.62725" lon="6.83673">
        <ele>1590</ele>
        <time>2021-05-27T11:37:24Z</time>
      </trkpt>
      <trkpt lat="45.62722" lon="6.8368">
        <ele>1590.4</ele>
        <time>2021-05-27T11:37:25Z</time>
      </trkpt>
      <trkpt lat="45.62719" lon="6.83686">
        <ele>1590.6</ele>
        <time>2021-05-27T11:37:26Z</time>
      </trkpt>
      <trkpt lat="45.62716" lon="6.83692">
        <ele>1591</ele>
        <time>2021-05-27T11:37:27Z</time>
      </trkpt>
      <trkpt lat="45.62713" lon="6.83699">
        <ele>1591.2</ele>
        <time>2021-05-27T11:37:28Z</time>
      </trkpt>
      <trkpt lat="45.62711" lon="6.83705">
        <ele>1591.4</ele>
        <time>2021-05-27T11:37:29Z</time>
      </trkpt>
      <trkpt lat="45.62708" lon="6.83711">
        <ele>1591.6</ele>
        <time>2021-05-27T11:37:30Z</time>
      </trkpt>
      <trkpt lat="45.62705" lon="6.83717">
        <ele>1591.4</ele>
        <time>2021-05-27T11:37:31Z</time>
      </trkpt>
      <trkpt lat="45.62702" lon="6.83724">
        <ele>1591.4</ele>
        <time>2021-05-27T11:37:32Z</time>
      </trkpt>
      <trkpt lat="45.627" lon="6.8373">
        <ele>1591.4</ele>
        <time>2021-05-27T11:37:33Z</time>
      </trkpt>
      <trkpt lat="45.62698" lon="6.83736">
        <ele>1591.2</ele>
        <time>2021-05-27T11:37:34Z</time>
      </trkpt>
      <trkpt lat="45.62695" lon="6.83742">
        <ele>1591</ele>
        <time>2021-05-27T11:37:35Z</time>
      </trkpt>
      <trkpt lat="45.62692" lon="6.83748">
        <ele>1591</ele>
        <time>2021-05-27T11:37:36Z</time>
      </trkpt>
      <trkpt lat="45.62688" lon="6.83754">
        <ele>1590.8</ele>
        <time>2021-05-27T11:37:37Z</time>
      </trkpt>
      <trkpt lat="45.62685" lon="6.8376">
        <ele>1590.6</ele>
        <time>2021-05-27T11:37:38Z</time>
      </trkpt>
      <trkpt lat="45.62684" lon="6.83768">
        <ele>1590.4</ele>
        <time>2021-05-27T11:37:39Z</time>
      </trkpt>
      <trkpt lat="45.62681" lon="6.83774">
        <ele>1590.2</ele>
        <time>2021-05-27T11:37:40Z</time>
      </trkpt>
      <trkpt lat="45.62678" lon="6.8378">
        <ele>1590</ele>
        <time>2021-05-27T11:37:41Z</time>
      </trkpt>
      <trkpt lat="45.62675" lon="6.83786">
        <ele>1590</ele>
        <time>2021-05-27T11:37:42Z</time>
      </trkpt>
      <trkpt lat="45.62672" lon="6.83792">
        <ele>1590</ele>
        <time>2021-05-27T11:37:43Z</time>
      </trkpt>
      <trkpt lat="45.62669" lon="6.83798">
        <ele>1590.4</ele>
        <time>2021-05-27T11:37:44Z</time>
      </trkpt>
      <trkpt lat="45.62665" lon="6.83802">
        <ele>1590.8</ele>
        <time>2021-05-27T11:37:45Z</time>
      </trkpt>
      <trkpt lat="45.62661" lon="6.83806">
        <ele>1590.8</ele>
        <time>2021-05-27T11:37:46Z</time>
      </trkpt>
      <trkpt lat="45.62658" lon="6.83811">
        <ele>1591</ele>
        <time>2021-05-27T11:37:47Z</time>
      </trkpt>
      <trkpt lat="45.62654" lon="6.83816">
        <ele>1591.4</ele>
        <time>2021-05-27T11:37:48Z</time>
      </trkpt>
      <trkpt lat="45.6265" lon="6.83821">
        <ele>1591.8</ele>
        <time>2021-05-27T11:37:49Z</time>
      </trkpt>
      <trkpt lat="45.62645" lon="6.83824">
        <ele>1592.4</ele>
        <time>2021-05-27T11:37:50Z</time>
      </trkpt>
      <trkpt lat="45.62641" lon="6.83828">
        <ele>1593.2</ele>
        <time>2021-05-27T11:37:51Z</time>
      </trkpt>
      <trkpt lat="45.62637" lon="6.83831">
        <ele>1593.6</ele>
        <time>2021-05-27T11:37:52Z</time>
      </trkpt>
      <trkpt lat="45.62635" lon="6.83837">
        <ele>1594.2</ele>
        <time>2021-05-27T11:37:53Z</time>
      </trkpt>
      <trkpt lat="45.62632" lon="6.83844">
        <ele>1594.6</ele>
        <time>2021-05-27T11:37:54Z</time>
      </trkpt>
      <trkpt lat="45.62629" lon="6.8385">
        <ele>1595.4</ele>
        <time>2021-05-27T11:37:55Z</time>
      </trkpt>
      <trkpt lat="45.62627" lon="6.83856">
        <ele>1595.8</ele>
        <time>2021-05-27T11:37:56Z</time>
      </trkpt>
      <trkpt lat="45.62623" lon="6.83861">
        <ele>1596.2</ele>
        <time>2021-05-27T11:37:57Z</time>
      </trkpt>
      <trkpt lat="45.6262" lon="6.83865">
        <ele>1596.6</ele>
        <time>2021-05-27T11:37:58Z</time>
      </trkpt>
      <trkpt lat="45.62616" lon="6.83871">
        <ele>1597</ele>
        <time>2021-05-27T11:37:59Z</time>
      </trkpt>
      <trkpt lat="45.62614" lon="6.83876">
        <ele>1597.4</ele>
        <time>2021-05-27T11:38:00Z</time>
      </trkpt>
      <trkpt lat="45.62612" lon="6.8388">
        <ele>1597.8</ele>
        <time>2021-05-27T11:38:01Z</time>
      </trkpt>
      <trkpt lat="45.62609" lon="6.83885">
        <ele>1598.2</ele>
        <time>2021-05-27T11:38:02Z</time>
      </trkpt>
      <trkpt lat="45.62607" lon="6.83891">
        <ele>1598.6</ele>
        <time>2021-05-27T11:38:03Z</time>
      </trkpt>
      <trkpt lat="45.62604" lon="6.83896">
        <ele>1598.8</ele>
        <time>2021-05-27T11:38:04Z</time>
      </trkpt>
      <trkpt lat="45.62602" lon="6.83902">
        <ele>1599</ele>
        <time>2021-05-27T11:38:05Z</time>
      </trkpt>
      <trkpt lat="45.62598" lon="6.83907">
        <ele>1599.2</ele>
        <time>2021-05-27T11:38:06Z</time>
      </trkpt>
      <trkpt lat="45.62596" lon="6.83912">
        <ele>1599.4</ele>
        <time>2021-05-27T11:38:07Z</time>
      </trkpt>
      <trkpt lat="45.62592" lon="6.83918">
        <ele>1599.6</ele>
        <time>2021-05-27T11:38:08Z</time>
      </trkpt>
      <trkpt lat="45.62589" lon="6.83922">
        <ele>1599.8</ele>
        <time>2021-05-27T11:38:09Z</time>
      </trkpt>
      <trkpt lat="45.62586" lon="6.83927">
        <ele>1599.8</ele>
        <time>2021-05-27T11:38:10Z</time>
      </trkpt>
      <trkpt lat="45.62582" lon="6.83932">
        <ele>1599.8</ele>
        <time>2021-05-27T11:38:11Z</time>
      </trkpt>
      <trkpt lat="45.62579" lon="6.83938">
        <ele>1599.8</ele>
        <time>2021-05-27T11:38:12Z</time>
      </trkpt>
      <trkpt lat="45.62577" lon="6.83944">
        <ele>1599.8</ele>
        <time>2021-05-27T11:38:13Z</time>
      </trkpt>
      <trkpt lat="45.62574" lon="6.8395">
        <ele>1599.8</ele>
        <time>2021-05-27T11:38:14Z</time>
      </trkpt>
      <trkpt lat="45.62571" lon="6.83955">
        <ele>1600</ele>
        <time>2021-05-27T11:38:15Z</time>
      </trkpt>
      <trkpt lat="45.62568" lon="6.8396">
        <ele>1600.2</ele>
        <time>2021-05-27T11:38:16Z</time>
      </trkpt>
      <trkpt lat="45.62565" lon="6.83966">
        <ele>1600.2</ele>
        <time>2021-05-27T11:38:17Z</time>
      </trkpt>
      <trkpt lat="45.62562" lon="6.83972">
        <ele>1600.4</ele>
        <time>2021-05-27T11:38:18Z</time>
      </trkpt>
      <trkpt lat="45.62559" lon="6.83977">
        <ele>1600.6</ele>
        <time>2021-05-27T11:38:19Z</time>
      </trkpt>
      <trkpt lat="45.62556" lon="6.83982">
        <ele>1600.8</ele>
        <time>2021-05-27T11:38:20Z</time>
      </trkpt>
      <trkpt lat="45.62553" lon="6.83987">
        <ele>1601.2</ele>
        <time>2021-05-27T11:38:21Z</time>
      </trkpt>
      <trkpt lat="45.62549" lon="6.83991">
        <ele>1601.8</ele>
        <time>2021-05-27T11:38:22Z</time>
      </trkpt>
      <trkpt lat="45.62544" lon="6.83994">
        <ele>1602.6</ele>
        <time>2021-05-27T11:38:23Z</time>
      </trkpt>
      <trkpt lat="45.6254" lon="6.83997">
        <ele>1603.2</ele>
        <time>2021-05-27T11:38:24Z</time>
      </trkpt>
      <trkpt lat="45.62536" lon="6.83999">
        <ele>1603.4</ele>
        <time>2021-05-27T11:38:25Z</time>
      </trkpt>
      <trkpt lat="45.62532" lon="6.84001">
        <ele>1603.8</ele>
        <time>2021-05-27T11:38:26Z</time>
      </trkpt>
      <trkpt lat="45.62527" lon="6.84003">
        <ele>1604</ele>
        <time>2021-05-27T11:38:27Z</time>
      </trkpt>
      <trkpt lat="45.62523" lon="6.84004">
        <ele>1604.4</ele>
        <time>2021-05-27T11:38:28Z</time>
      </trkpt>
      <trkpt lat="45.62517" lon="6.84007">
        <ele>1605</ele>
        <time>2021-05-27T11:38:29Z</time>
      </trkpt>
      <trkpt lat="45.62513" lon="6.8401">
        <ele>1605.6</ele>
        <time>2021-05-27T11:38:30Z</time>
      </trkpt>
      <trkpt lat="45.62509" lon="6.84013">
        <ele>1606.2</ele>
        <time>2021-05-27T11:38:31Z</time>
      </trkpt>
      <trkpt lat="45.62504" lon="6.84017">
        <ele>1606.8</ele>
        <time>2021-05-27T11:38:32Z</time>
      </trkpt>
      <trkpt lat="45.625" lon="6.8402">
        <ele>1607.4</ele>
        <time>2021-05-27T11:38:33Z</time>
      </trkpt>
      <trkpt lat="45.62496" lon="6.84025">
        <ele>1607.8</ele>
        <time>2021-05-27T11:38:34Z</time>
      </trkpt>
      <trkpt lat="45.62492" lon="6.84029">
        <ele>1608.4</ele>
        <time>2021-05-27T11:38:35Z</time>
      </trkpt>
      <trkpt lat="45.62488" lon="6.84033">
        <ele>1608.8</ele>
        <time>2021-05-27T11:38:36Z</time>
      </trkpt>
      <trkpt lat="45.62484" lon="6.84038">
        <ele>1609.2</ele>
        <time>2021-05-27T11:38:37Z</time>
      </trkpt>
      <trkpt lat="45.62481" lon="6.84043">
        <ele>1609.8</ele>
        <time>2021-05-27T11:38:38Z</time>
      </trkpt>
      <trkpt lat="45.62477" lon="6.84048">
        <ele>1610.2</ele>
        <time>2021-05-27T11:38:39Z</time>
      </trkpt>
      <trkpt lat="45.62473" lon="6.84052">
        <ele>1610.6</ele>
        <time>2021-05-27T11:38:40Z</time>
      </trkpt>
      <trkpt lat="45.62468" lon="6.84057">
        <ele>1611</ele>
        <time>2021-05-27T11:38:41Z</time>
      </trkpt>
      <trkpt lat="45.62464" lon="6.84061">
        <ele>1611.4</ele>
        <time>2021-05-27T11:38:42Z</time>
      </trkpt>
      <trkpt lat="45.6246" lon="6.84066">
        <ele>1611.4</ele>
        <time>2021-05-27T11:38:43Z</time>
      </trkpt>
      <trkpt lat="45.62457" lon="6.84072">
        <ele>1611.6</ele>
        <time>2021-05-27T11:38:44Z</time>
      </trkpt>
      <trkpt lat="45.62455" lon="6.84078">
        <ele>1611.8</ele>
        <time>2021-05-27T11:38:45Z</time>
      </trkpt>
      <trkpt lat="45.62453" lon="6.84084">
        <ele>1612</ele>
        <time>2021-05-27T11:38:46Z</time>
      </trkpt>
      <trkpt lat="45.62451" lon="6.8409">
        <ele>1612.4</ele>
        <time>2021-05-27T11:38:47Z</time>
      </trkpt>
      <trkpt lat="45.62449" lon="6.84096">
        <ele>1612.8</ele>
        <time>2021-05-27T11:38:48Z</time>
      </trkpt>
      <trkpt lat="45.62446" lon="6.84103">
        <ele>1613</ele>
        <time>2021-05-27T11:38:49Z</time>
      </trkpt>
      <trkpt lat="45.62444" lon="6.84109">
        <ele>1613.4</ele>
        <time>2021-05-27T11:38:50Z</time>
      </trkpt>
      <trkpt lat="45.62441" lon="6.84116">
        <ele>1613.6</ele>
        <time>2021-05-27T11:38:51Z</time>
      </trkpt>
      <trkpt lat="45.62438" lon="6.84122">
        <ele>1613.4</ele>
        <time>2021-05-27T11:38:52Z</time>
      </trkpt>
      <trkpt lat="45.62435" lon="6.84127">
        <ele>1613.2</ele>
        <time>2021-05-27T11:38:53Z</time>
      </trkpt>
      <trkpt lat="45.62431" lon="6.84133">
        <ele>1613</ele>
        <time>2021-05-27T11:38:54Z</time>
      </trkpt>
      <trkpt lat="45.62428" lon="6.84138">
        <ele>1613</ele>
        <time>2021-05-27T11:38:55Z</time>
      </trkpt>
      <trkpt lat="45.62423" lon="6.84142">
        <ele>1612.6</ele>
        <time>2021-05-27T11:38:56Z</time>
      </trkpt>
      <trkpt lat="45.62419" lon="6.84146">
        <ele>1612.8</ele>
        <time>2021-05-27T11:38:57Z</time>
      </trkpt>
      <trkpt lat="45.62414" lon="6.84149">
        <ele>1613.2</ele>
        <time>2021-05-27T11:38:58Z</time>
      </trkpt>
      <trkpt lat="45.6241" lon="6.84152">
        <ele>1613.4</ele>
        <time>2021-05-27T11:38:59Z</time>
      </trkpt>
      <trkpt lat="45.62406" lon="6.84155">
        <ele>1613.2</ele>
        <time>2021-05-27T11:39:00Z</time>
      </trkpt>
      <trkpt lat="45.62402" lon="6.84158">
        <ele>1613</ele>
        <time>2021-05-27T11:39:01Z</time>
      </trkpt>
      <trkpt lat="45.62398" lon="6.84161">
        <ele>1613</ele>
        <time>2021-05-27T11:39:02Z</time>
      </trkpt>
      <trkpt lat="45.62394" lon="6.84163">
        <ele>1612.8</ele>
        <time>2021-05-27T11:39:03Z</time>
      </trkpt>
      <trkpt lat="45.6239" lon="6.84166">
        <ele>1612.8</ele>
        <time>2021-05-27T11:39:04Z</time>
      </trkpt>
      <trkpt lat="45.62385" lon="6.84169">
        <ele>1612.6</ele>
        <time>2021-05-27T11:39:05Z</time>
      </trkpt>
      <trkpt lat="45.6238" lon="6.84174">
        <ele>1612.6</ele>
        <time>2021-05-27T11:39:06Z</time>
      </trkpt>
      <trkpt lat="45.62376" lon="6.84176">
        <ele>1612.6</ele>
        <time>2021-05-27T11:39:07Z</time>
      </trkpt>
      <trkpt lat="45.62372" lon="6.84179">
        <ele>1613</ele>
        <time>2021-05-27T11:39:08Z</time>
      </trkpt>
      <trkpt lat="45.62367" lon="6.84183">
        <ele>1613.2</ele>
        <time>2021-05-27T11:39:09Z</time>
      </trkpt>
      <trkpt lat="45.62364" lon="6.84187">
        <ele>1613.6</ele>
        <time>2021-05-27T11:39:10Z</time>
      </trkpt>
      <trkpt lat="45.6236" lon="6.8419">
        <ele>1614</ele>
        <time>2021-05-27T11:39:11Z</time>
      </trkpt>
      <trkpt lat="45.62356" lon="6.84195">
        <ele>1614.6</ele>
        <time>2021-05-27T11:39:12Z</time>
      </trkpt>
      <trkpt lat="45.62353" lon="6.842">
        <ele>1615.4</ele>
        <time>2021-05-27T11:39:13Z</time>
      </trkpt>
      <trkpt lat="45.6235" lon="6.84205">
        <ele>1616</ele>
        <time>2021-05-27T11:39:14Z</time>
      </trkpt>
      <trkpt lat="45.62346" lon="6.8421">
        <ele>1616.8</ele>
        <time>2021-05-27T11:39:15Z</time>
      </trkpt>
      <trkpt lat="45.62343" lon="6.84215">
        <ele>1617.8</ele>
        <time>2021-05-27T11:39:16Z</time>
      </trkpt>
      <trkpt lat="45.6234" lon="6.84222">
        <ele>1618.6</ele>
        <time>2021-05-27T11:39:17Z</time>
      </trkpt>
      <trkpt lat="45.62336" lon="6.84228">
        <ele>1619.4</ele>
        <time>2021-05-27T11:39:18Z</time>
      </trkpt>
      <trkpt lat="45.62333" lon="6.84235">
        <ele>1620</ele>
        <time>2021-05-27T11:39:19Z</time>
      </trkpt>
      <trkpt lat="45.62331" lon="6.84242">
        <ele>1620.6</ele>
        <time>2021-05-27T11:39:20Z</time>
      </trkpt>
      <trkpt lat="45.62328" lon="6.84249">
        <ele>1621.2</ele>
        <time>2021-05-27T11:39:21Z</time>
      </trkpt>
      <trkpt lat="45.62326" lon="6.84257">
        <ele>1621.4</ele>
        <time>2021-05-27T11:39:22Z</time>
      </trkpt>
      <trkpt lat="45.62324" lon="6.84266">
        <ele>1621.2</ele>
        <time>2021-05-27T11:39:23Z</time>
      </trkpt>
      <trkpt lat="45.62322" lon="6.84274">
        <ele>1621.6</ele>
        <time>2021-05-27T11:39:24Z</time>
      </trkpt>
      <trkpt lat="45.6232" lon="6.84282">
        <ele>1621.8</ele>
        <time>2021-05-27T11:39:25Z</time>
      </trkpt>
      <trkpt lat="45.62318" lon="6.84291">
        <ele>1622.4</ele>
        <time>2021-05-27T11:39:26Z</time>
      </trkpt>
      <trkpt lat="45.62316" lon="6.84299">
        <ele>1622.6</ele>
        <time>2021-05-27T11:39:27Z</time>
      </trkpt>
      <trkpt lat="45.62315" lon="6.84308">
        <ele>1623.2</ele>
        <time>2021-05-27T11:39:28Z</time>
      </trkpt>
      <trkpt lat="45.62314" lon="6.84317">
        <ele>1623.6</ele>
        <time>2021-05-27T11:39:29Z</time>
      </trkpt>
      <trkpt lat="45.62314" lon="6.84326">
        <ele>1624.2</ele>
        <time>2021-05-27T11:39:30Z</time>
      </trkpt>
      <trkpt lat="45.62313" lon="6.84335">
        <ele>1624.6</ele>
        <time>2021-05-27T11:39:31Z</time>
      </trkpt>
      <trkpt lat="45.62312" lon="6.84344">
        <ele>1624.8</ele>
        <time>2021-05-27T11:39:32Z</time>
      </trkpt>
      <trkpt lat="45.6231" lon="6.84352">
        <ele>1625</ele>
        <time>2021-05-27T11:39:33Z</time>
      </trkpt>
      <trkpt lat="45.62308" lon="6.8436">
        <ele>1625</ele>
        <time>2021-05-27T11:39:34Z</time>
      </trkpt>
      <trkpt lat="45.62306" lon="6.84368">
        <ele>1625.2</ele>
        <time>2021-05-27T11:39:35Z</time>
      </trkpt>
      <trkpt lat="45.62302" lon="6.84375">
        <ele>1625.6</ele>
        <time>2021-05-27T11:39:36Z</time>
      </trkpt>
      <trkpt lat="45.62298" lon="6.84384">
        <ele>1626</ele>
        <time>2021-05-27T11:39:37Z</time>
      </trkpt>
      <trkpt lat="45.62295" lon="6.84391">
        <ele>1626.6</ele>
        <time>2021-05-27T11:39:38Z</time>
      </trkpt>
      <trkpt lat="45.62293" lon="6.84399">
        <ele>1627</ele>
        <time>2021-05-27T11:39:39Z</time>
      </trkpt>
      <trkpt lat="45.62291" lon="6.84406">
        <ele>1627.8</ele>
        <time>2021-05-27T11:39:40Z</time>
      </trkpt>
      <trkpt lat="45.62288" lon="6.84413">
        <ele>1628.2</ele>
        <time>2021-05-27T11:39:41Z</time>
      </trkpt>
      <trkpt lat="45.62284" lon="6.84421">
        <ele>1628.8</ele>
        <time>2021-05-27T11:39:42Z</time>
      </trkpt>
      <trkpt lat="45.62281" lon="6.84429">
        <ele>1629</ele>
        <time>2021-05-27T11:39:43Z</time>
      </trkpt>
      <trkpt lat="45.62278" lon="6.84436">
        <ele>1629.4</ele>
        <time>2021-05-27T11:39:44Z</time>
      </trkpt>
      <trkpt lat="45.62275" lon="6.84444">
        <ele>1629.8</ele>
        <time>2021-05-27T11:39:45Z</time>
      </trkpt>
      <trkpt lat="45.62273" lon="6.84452">
        <ele>1630.4</ele>
        <time>2021-05-27T11:39:46Z</time>
      </trkpt>
      <trkpt lat="45.6227" lon="6.8446">
        <ele>1630.8</ele>
        <time>2021-05-27T11:39:47Z</time>
      </trkpt>
      <trkpt lat="45.62267" lon="6.84467">
        <ele>1631.2</ele>
        <time>2021-05-27T11:39:48Z</time>
      </trkpt>
      <trkpt lat="45.62265" lon="6.84474">
        <ele>1631.6</ele>
        <time>2021-05-27T11:39:49Z</time>
      </trkpt>
      <trkpt lat="45.62261" lon="6.84482">
        <ele>1632.2</ele>
        <time>2021-05-27T11:39:50Z</time>
      </trkpt>
      <trkpt lat="45.62258" lon="6.84489">
        <ele>1632.8</ele>
        <time>2021-05-27T11:39:51Z</time>
      </trkpt>
      <trkpt lat="45.62254" lon="6.84496">
        <ele>1633</ele>
        <time>2021-05-27T11:39:52Z</time>
      </trkpt>
      <trkpt lat="45.62251" lon="6.84503">
        <ele>1633.4</ele>
        <time>2021-05-27T11:39:53Z</time>
      </trkpt>
      <trkpt lat="45.62246" lon="6.84509">
        <ele>1633.4</ele>
        <time>2021-05-27T11:39:54Z</time>
      </trkpt>
      <trkpt lat="45.62243" lon="6.84516">
        <ele>1633.6</ele>
        <time>2021-05-27T11:39:55Z</time>
      </trkpt>
      <trkpt lat="45.62238" lon="6.84522">
        <ele>1634</ele>
        <time>2021-05-27T11:39:56Z</time>
      </trkpt>
      <trkpt lat="45.62234" lon="6.84528">
        <ele>1634.4</ele>
        <time>2021-05-27T11:39:57Z</time>
      </trkpt>
      <trkpt lat="45.62229" lon="6.84533">
        <ele>1634.8</ele>
        <time>2021-05-27T11:39:58Z</time>
      </trkpt>
      <trkpt lat="45.62225" lon="6.84539">
        <ele>1635.2</ele>
        <time>2021-05-27T11:39:59Z</time>
      </trkpt>
      <trkpt lat="45.62221" lon="6.84544">
        <ele>1635.2</ele>
        <time>2021-05-27T11:40:00Z</time>
      </trkpt>
      <trkpt lat="45.62217" lon="6.8455">
        <ele>1636.2</ele>
        <time>2021-05-27T11:40:01Z</time>
      </trkpt>
      <trkpt lat="45.62213" lon="6.84555">
        <ele>1636.8</ele>
        <time>2021-05-27T11:40:02Z</time>
      </trkpt>
      <trkpt lat="45.6221" lon="6.84562">
        <ele>1637.2</ele>
        <time>2021-05-27T11:40:03Z</time>
      </trkpt>
      <trkpt lat="45.62207" lon="6.84568">
        <ele>1637.2</ele>
        <time>2021-05-27T11:40:04Z</time>
      </trkpt>
      <trkpt lat="45.62204" lon="6.84575">
        <ele>1638.6</ele>
        <time>2021-05-27T11:40:05Z</time>
      </trkpt>
      <trkpt lat="45.62202" lon="6.84582">
        <ele>1639</ele>
        <time>2021-05-27T11:40:06Z</time>
      </trkpt>
      <trkpt lat="45.62199" lon="6.8459">
        <ele>1639.4</ele>
        <time>2021-05-27T11:40:07Z</time>
      </trkpt>
      <trkpt lat="45.62196" lon="6.84597">
        <ele>1639.4</ele>
        <time>2021-05-27T11:40:08Z</time>
      </trkpt>
      <trkpt lat="45.62192" lon="6.84604">
        <ele>1639.2</ele>
        <time>2021-05-27T11:40:09Z</time>
      </trkpt>
      <trkpt lat="45.62189" lon="6.8461">
        <ele>1639.2</ele>
        <time>2021-05-27T11:40:10Z</time>
      </trkpt>
      <trkpt lat="45.62186" lon="6.84616">
        <ele>1639.2</ele>
        <time>2021-05-27T11:40:11Z</time>
      </trkpt>
      <trkpt lat="45.62182" lon="6.84622">
        <ele>1639.2</ele>
        <time>2021-05-27T11:40:12Z</time>
      </trkpt>
      <trkpt lat="45.62179" lon="6.84628">
        <ele>1639</ele>
        <time>2021-05-27T11:40:13Z</time>
      </trkpt>
      <trkpt lat="45.62177" lon="6.84635">
        <ele>1639</ele>
        <time>2021-05-27T11:40:14Z</time>
      </trkpt>
      <trkpt lat="45.62175" lon="6.84642">
        <ele>1639.4</ele>
        <time>2021-05-27T11:40:15Z</time>
      </trkpt>
      <trkpt lat="45.62173" lon="6.8465">
        <ele>1639.8</ele>
        <time>2021-05-27T11:40:16Z</time>
      </trkpt>
      <trkpt lat="45.62172" lon="6.84658">
        <ele>1640.2</ele>
        <time>2021-05-27T11:40:17Z</time>
      </trkpt>
      <trkpt lat="45.62172" lon="6.84666">
        <ele>1640.6</ele>
        <time>2021-05-27T11:40:18Z</time>
      </trkpt>
      <trkpt lat="45.62172" lon="6.84674">
        <ele>1641</ele>
        <time>2021-05-27T11:40:19Z</time>
      </trkpt>
      <trkpt lat="45.62173" lon="6.84682">
        <ele>1641.6</ele>
        <time>2021-05-27T11:40:20Z</time>
      </trkpt>
      <trkpt lat="45.62173" lon="6.8469">
        <ele>1642.2</ele>
        <time>2021-05-27T11:40:21Z</time>
      </trkpt>
      <trkpt lat="45.62173" lon="6.84698">
        <ele>1642.6</ele>
        <time>2021-05-27T11:40:22Z</time>
      </trkpt>
      <trkpt lat="45.62174" lon="6.84706">
        <ele>1643.2</ele>
        <time>2021-05-27T11:40:23Z</time>
      </trkpt>
      <trkpt lat="45.62174" lon="6.84715">
        <ele>1643.6</ele>
        <time>2021-05-27T11:40:24Z</time>
      </trkpt>
      <trkpt lat="45.62174" lon="6.84723">
        <ele>1643.8</ele>
        <time>2021-05-27T11:40:25Z</time>
      </trkpt>
      <trkpt lat="45.62175" lon="6.84732">
        <ele>1644.2</ele>
        <time>2021-05-27T11:40:26Z</time>
      </trkpt>
      <trkpt lat="45.62175" lon="6.84741">
        <ele>1644.4</ele>
        <time>2021-05-27T11:40:27Z</time>
      </trkpt>
      <trkpt lat="45.62175" lon="6.84749">
        <ele>1644.2</ele>
        <time>2021-05-27T11:40:28Z</time>
      </trkpt>
      <trkpt lat="45.62176" lon="6.84758">
        <ele>1644.2</ele>
        <time>2021-05-27T11:40:29Z</time>
      </trkpt>
      <trkpt lat="45.62176" lon="6.84766">
        <ele>1644.2</ele>
        <time>2021-05-27T11:40:30Z</time>
      </trkpt>
      <trkpt lat="45.62176" lon="6.84774">
        <ele>1643.8</ele>
        <time>2021-05-27T11:40:31Z</time>
      </trkpt>
      <trkpt lat="45.62176" lon="6.84784">
        <ele>1644</ele>
        <time>2021-05-27T11:40:32Z</time>
      </trkpt>
      <trkpt lat="45.62176" lon="6.84792">
        <ele>1644.2</ele>
        <time>2021-05-27T11:40:33Z</time>
      </trkpt>
      <trkpt lat="45.62176" lon="6.84802">
        <ele>1644.6</ele>
        <time>2021-05-27T11:40:34Z</time>
      </trkpt>
      <trkpt lat="45.62176" lon="6.84811">
        <ele>1645.2</ele>
        <time>2021-05-27T11:40:35Z</time>
      </trkpt>
      <trkpt lat="45.62176" lon="6.8482">
        <ele>1645.6</ele>
        <time>2021-05-27T11:40:36Z</time>
      </trkpt>
      <trkpt lat="45.62176" lon="6.84828">
        <ele>1646.4</ele>
        <time>2021-05-27T11:40:37Z</time>
      </trkpt>
      <trkpt lat="45.62176" lon="6.84837">
        <ele>1647</ele>
        <time>2021-05-27T11:40:38Z</time>
      </trkpt>
      <trkpt lat="45.62175" lon="6.84846">
        <ele>1647.6</ele>
        <time>2021-05-27T11:40:39Z</time>
      </trkpt>
      <trkpt lat="45.62175" lon="6.84854">
        <ele>1648.4</ele>
        <time>2021-05-27T11:40:40Z</time>
      </trkpt>
      <trkpt lat="45.62175" lon="6.84863">
        <ele>1649.2</ele>
        <time>2021-05-27T11:40:41Z</time>
      </trkpt>
      <trkpt lat="45.62174" lon="6.84872">
        <ele>1650</ele>
        <time>2021-05-27T11:40:42Z</time>
      </trkpt>
      <trkpt lat="45.62173" lon="6.8488">
        <ele>1650.8</ele>
        <time>2021-05-27T11:40:43Z</time>
      </trkpt>
      <trkpt lat="45.62173" lon="6.84888">
        <ele>1651.4</ele>
        <time>2021-05-27T11:40:44Z</time>
      </trkpt>
      <trkpt lat="45.62173" lon="6.84897">
        <ele>1652</ele>
        <time>2021-05-27T11:40:45Z</time>
      </trkpt>
      <trkpt lat="45.62172" lon="6.84906">
        <ele>1652.6</ele>
        <time>2021-05-27T11:40:46Z</time>
      </trkpt>
      <trkpt lat="45.62173" lon="6.84914">
        <ele>1653.2</ele>
        <time>2021-05-27T11:40:47Z</time>
      </trkpt>
      <trkpt lat="45.62173" lon="6.84922">
        <ele>1653.8</ele>
        <time>2021-05-27T11:40:48Z</time>
      </trkpt>
      <trkpt lat="45.62174" lon="6.8493">
        <ele>1654.4</ele>
        <time>2021-05-27T11:40:49Z</time>
      </trkpt>
      <trkpt lat="45.62174" lon="6.84939">
        <ele>1654.8</ele>
        <time>2021-05-27T11:40:50Z</time>
      </trkpt>
      <trkpt lat="45.62175" lon="6.84947">
        <ele>1655.2</ele>
        <time>2021-05-27T11:40:51Z</time>
      </trkpt>
      <trkpt lat="45.62175" lon="6.84955">
        <ele>1655.6</ele>
        <time>2021-05-27T11:40:52Z</time>
      </trkpt>
      <trkpt lat="45.62176" lon="6.84964">
        <ele>1656.2</ele>
        <time>2021-05-27T11:40:53Z</time>
      </trkpt>
      <trkpt lat="45.62177" lon="6.84972">
        <ele>1656.6</ele>
        <time>2021-05-27T11:40:54Z</time>
      </trkpt>
      <trkpt lat="45.62178" lon="6.84981">
        <ele>1657</ele>
        <time>2021-05-27T11:40:55Z</time>
      </trkpt>
      <trkpt lat="45.62178" lon="6.84989">
        <ele>1657.8</ele>
        <time>2021-05-27T11:40:56Z</time>
      </trkpt>
      <trkpt lat="45.62179" lon="6.84998">
        <ele>1658.2</ele>
        <time>2021-05-27T11:40:57Z</time>
      </trkpt>
      <trkpt lat="45.62179" lon="6.85007">
        <ele>1658.8</ele>
        <time>2021-05-27T11:40:58Z</time>
      </trkpt>
      <trkpt lat="45.6218" lon="6.85015">
        <ele>1659.4</ele>
        <time>2021-05-27T11:40:59Z</time>
      </trkpt>
      <trkpt lat="45.6218" lon="6.85024">
        <ele>1660</ele>
        <time>2021-05-27T11:41:00Z</time>
      </trkpt>
      <trkpt lat="45.6218" lon="6.85032">
        <ele>1660.6</ele>
        <time>2021-05-27T11:41:01Z</time>
      </trkpt>
      <trkpt lat="45.6218" lon="6.85041">
        <ele>1661.2</ele>
        <time>2021-05-27T11:41:02Z</time>
      </trkpt>
      <trkpt lat="45.62179" lon="6.85049">
        <ele>1661.8</ele>
        <time>2021-05-27T11:41:03Z</time>
      </trkpt>
      <trkpt lat="45.62178" lon="6.85058">
        <ele>1662.2</ele>
        <time>2021-05-27T11:41:04Z</time>
      </trkpt>
      <trkpt lat="45.62175" lon="6.85066">
        <ele>1662.8</ele>
        <time>2021-05-27T11:41:05Z</time>
      </trkpt>
      <trkpt lat="45.62173" lon="6.85074">
        <ele>1663</ele>
        <time>2021-05-27T11:41:06Z</time>
      </trkpt>
      <trkpt lat="45.62171" lon="6.85082">
        <ele>1663.8</ele>
        <time>2021-05-27T11:41:07Z</time>
      </trkpt>
      <trkpt lat="45.62168" lon="6.8509">
        <ele>1664.4</ele>
        <time>2021-05-27T11:41:08Z</time>
      </trkpt>
      <trkpt lat="45.62166" lon="6.85098">
        <ele>1664.8</ele>
        <time>2021-05-27T11:41:09Z</time>
      </trkpt>
      <trkpt lat="45.62163" lon="6.85107">
        <ele>1665.4</ele>
        <time>2021-05-27T11:41:10Z</time>
      </trkpt>
      <trkpt lat="45.62161" lon="6.85115">
        <ele>1665.6</ele>
        <time>2021-05-27T11:41:11Z</time>
      </trkpt>
      <trkpt lat="45.62159" lon="6.85123">
        <ele>1665.6</ele>
        <time>2021-05-27T11:41:12Z</time>
      </trkpt>
      <trkpt lat="45.62157" lon="6.85131">
        <ele>1665.8</ele>
        <time>2021-05-27T11:41:13Z</time>
      </trkpt>
      <trkpt lat="45.62155" lon="6.85139">
        <ele>1666</ele>
        <time>2021-05-27T11:41:14Z</time>
      </trkpt>
      <trkpt lat="45.62154" lon="6.85147">
        <ele>1666.2</ele>
        <time>2021-05-27T11:41:15Z</time>
      </trkpt>
      <trkpt lat="45.62152" lon="6.85156">
        <ele>1666.4</ele>
        <time>2021-05-27T11:41:16Z</time>
      </trkpt>
      <trkpt lat="45.6215" lon="6.85163">
        <ele>1667</ele>
        <time>2021-05-27T11:41:17Z</time>
      </trkpt>
      <trkpt lat="45.62149" lon="6.85172">
        <ele>1667</ele>
        <time>2021-05-27T11:41:18Z</time>
      </trkpt>
      <trkpt lat="45.62148" lon="6.8518">
        <ele>1667</ele>
        <time>2021-05-27T11:41:19Z</time>
      </trkpt>
      <trkpt lat="45.62146" lon="6.85188">
        <ele>1667.4</ele>
        <time>2021-05-27T11:41:20Z</time>
      </trkpt>
      <trkpt lat="45.62146" lon="6.85197">
        <ele>1668</ele>
        <time>2021-05-27T11:41:21Z</time>
      </trkpt>
      <trkpt lat="45.62145" lon="6.85206">
        <ele>1668.2</ele>
        <time>2021-05-27T11:41:22Z</time>
      </trkpt>
      <trkpt lat="45.62144" lon="6.85214">
        <ele>1668.4</ele>
        <time>2021-05-27T11:41:23Z</time>
      </trkpt>
      <trkpt lat="45.62143" lon="6.85222">
        <ele>1669</ele>
        <time>2021-05-27T11:41:24Z</time>
      </trkpt>
      <trkpt lat="45.62143" lon="6.8523">
        <ele>1669.2</ele>
        <time>2021-05-27T11:41:25Z</time>
      </trkpt>
      <trkpt lat="45.62142" lon="6.85238">
        <ele>1669.4</ele>
        <time>2021-05-27T11:41:26Z</time>
      </trkpt>
      <trkpt lat="45.62142" lon="6.85245">
        <ele>1669.8</ele>
        <time>2021-05-27T11:41:27Z</time>
      </trkpt>
      <trkpt lat="45.62142" lon="6.85253">
        <ele>1670</ele>
        <time>2021-05-27T11:41:28Z</time>
      </trkpt>
      <trkpt lat="45.62142" lon="6.85261">
        <ele>1670.4</ele>
        <time>2021-05-27T11:41:29Z</time>
      </trkpt>
      <trkpt lat="45.62142" lon="6.85268">
        <ele>1671</ele>
        <time>2021-05-27T11:41:30Z</time>
      </trkpt>
      <trkpt lat="45.62143" lon="6.85276">
        <ele>1671</ele>
        <time>2021-05-27T11:41:31Z</time>
      </trkpt>
      <trkpt lat="45.62143" lon="6.85284">
        <ele>1671.4</ele>
        <time>2021-05-27T11:41:32Z</time>
      </trkpt>
      <trkpt lat="45.62143" lon="6.85293">
        <ele>1671.6</ele>
        <time>2021-05-27T11:41:33Z</time>
      </trkpt>
      <trkpt lat="45.62143" lon="6.85301">
        <ele>1672</ele>
        <time>2021-05-27T11:41:34Z</time>
      </trkpt>
      <trkpt lat="45.62144" lon="6.85309">
        <ele>1672.2</ele>
        <time>2021-05-27T11:41:35Z</time>
      </trkpt>
      <trkpt lat="45.62144" lon="6.85318">
        <ele>1672.6</ele>
        <time>2021-05-27T11:41:36Z</time>
      </trkpt>
      <trkpt lat="45.62144" lon="6.85326">
        <ele>1673</ele>
        <time>2021-05-27T11:41:37Z</time>
      </trkpt>
      <trkpt lat="45.62144" lon="6.85334">
        <ele>1673.6</ele>
        <time>2021-05-27T11:41:38Z</time>
      </trkpt>
      <trkpt lat="45.62145" lon="6.85342">
        <ele>1674</ele>
        <time>2021-05-27T11:41:39Z</time>
      </trkpt>
      <trkpt lat="45.62145" lon="6.8535">
        <ele>1674.4</ele>
        <time>2021-05-27T11:41:40Z</time>
      </trkpt>
      <trkpt lat="45.62146" lon="6.85358">
        <ele>1674.6</ele>
        <time>2021-05-27T11:41:41Z</time>
      </trkpt>
      <trkpt lat="45.62147" lon="6.85366">
        <ele>1674.6</ele>
        <time>2021-05-27T11:41:42Z</time>
      </trkpt>
      <trkpt lat="45.62148" lon="6.85374">
        <ele>1674.6</ele>
        <time>2021-05-27T11:41:43Z</time>
      </trkpt>
      <trkpt lat="45.62148" lon="6.85382">
        <ele>1675</ele>
        <time>2021-05-27T11:41:44Z</time>
      </trkpt>
      <trkpt lat="45.62149" lon="6.8539">
        <ele>1675.4</ele>
        <time>2021-05-27T11:41:45Z</time>
      </trkpt>
      <trkpt lat="45.62149" lon="6.85398">
        <ele>1675.6</ele>
        <time>2021-05-27T11:41:46Z</time>
      </trkpt>
      <trkpt lat="45.6215" lon="6.85407">
        <ele>1675.6</ele>
        <time>2021-05-27T11:41:47Z</time>
      </trkpt>
      <trkpt lat="45.62151" lon="6.85415">
        <ele>1675.8</ele>
        <time>2021-05-27T11:41:48Z</time>
      </trkpt>
      <trkpt lat="45.62152" lon="6.85423">
        <ele>1676.2</ele>
        <time>2021-05-27T11:41:49Z</time>
      </trkpt>
      <trkpt lat="45.62154" lon="6.85431">
        <ele>1676.4</ele>
        <time>2021-05-27T11:41:50Z</time>
      </trkpt>
      <trkpt lat="45.62156" lon="6.85438">
        <ele>1677</ele>
        <time>2021-05-27T11:41:51Z</time>
      </trkpt>
      <trkpt lat="45.62159" lon="6.85445">
        <ele>1677.2</ele>
        <time>2021-05-27T11:41:52Z</time>
      </trkpt>
      <trkpt lat="45.62161" lon="6.85453">
        <ele>1677.2</ele>
        <time>2021-05-27T11:41:53Z</time>
      </trkpt>
      <trkpt lat="45.62164" lon="6.8546">
        <ele>1677.6</ele>
        <time>2021-05-27T11:41:54Z</time>
      </trkpt>
      <trkpt lat="45.62166" lon="6.85467">
        <ele>1677.8</ele>
        <time>2021-05-27T11:41:55Z</time>
      </trkpt>
      <trkpt lat="45.62168" lon="6.85474">
        <ele>1678.4</ele>
        <time>2021-05-27T11:41:56Z</time>
      </trkpt>
      <trkpt lat="45.6217" lon="6.85482">
        <ele>1679</ele>
        <time>2021-05-27T11:41:57Z</time>
      </trkpt>
      <trkpt lat="45.62171" lon="6.8549">
        <ele>1679.4</ele>
        <time>2021-05-27T11:41:58Z</time>
      </trkpt>
      <trkpt lat="45.62172" lon="6.85498">
        <ele>1679.8</ele>
        <time>2021-05-27T11:41:59Z</time>
      </trkpt>
      <trkpt lat="45.62171" lon="6.85506">
        <ele>1680</ele>
        <time>2021-05-27T11:42:00Z</time>
      </trkpt>
      <trkpt lat="45.6217" lon="6.85515">
        <ele>1680.4</ele>
        <time>2021-05-27T11:42:01Z</time>
      </trkpt>
      <trkpt lat="45.62169" lon="6.85522">
        <ele>1680.6</ele>
        <time>2021-05-27T11:42:02Z</time>
      </trkpt>
      <trkpt lat="45.62166" lon="6.8553">
        <ele>1680.8</ele>
        <time>2021-05-27T11:42:03Z</time>
      </trkpt>
      <trkpt lat="45.62165" lon="6.85537">
        <ele>1681.2</ele>
        <time>2021-05-27T11:42:04Z</time>
      </trkpt>
      <trkpt lat="45.62163" lon="6.85545">
        <ele>1681.2</ele>
        <time>2021-05-27T11:42:05Z</time>
      </trkpt>
      <trkpt lat="45.62161" lon="6.85552">
        <ele>1681.4</ele>
        <time>2021-05-27T11:42:06Z</time>
      </trkpt>
      <trkpt lat="45.62159" lon="6.8556">
        <ele>1681.4</ele>
        <time>2021-05-27T11:42:07Z</time>
      </trkpt>
      <trkpt lat="45.62157" lon="6.85567">
        <ele>1681.6</ele>
        <time>2021-05-27T11:42:08Z</time>
      </trkpt>
      <trkpt lat="45.62154" lon="6.85575">
        <ele>1681.8</ele>
        <time>2021-05-27T11:42:09Z</time>
      </trkpt>
      <trkpt lat="45.62152" lon="6.85582">
        <ele>1681.8</ele>
        <time>2021-05-27T11:42:10Z</time>
      </trkpt>
      <trkpt lat="45.6215" lon="6.8559">
        <ele>1682.2</ele>
        <time>2021-05-27T11:42:11Z</time>
      </trkpt>
      <trkpt lat="45.62149" lon="6.85598">
        <ele>1682.4</ele>
        <time>2021-05-27T11:42:12Z</time>
      </trkpt>
      <trkpt lat="45.62147" lon="6.85605">
        <ele>1682.6</ele>
        <time>2021-05-27T11:42:13Z</time>
      </trkpt>
      <trkpt lat="45.62145" lon="6.85612">
        <ele>1682.8</ele>
        <time>2021-05-27T11:42:14Z</time>
      </trkpt>
      <trkpt lat="45.62143" lon="6.8562">
        <ele>1683</ele>
        <time>2021-05-27T11:42:15Z</time>
      </trkpt>
      <trkpt lat="45.62142" lon="6.85628">
        <ele>1683.2</ele>
        <time>2021-05-27T11:42:16Z</time>
      </trkpt>
      <trkpt lat="45.62141" lon="6.85635">
        <ele>1683.6</ele>
        <time>2021-05-27T11:42:17Z</time>
      </trkpt>
      <trkpt lat="45.6214" lon="6.85643">
        <ele>1684.2</ele>
        <time>2021-05-27T11:42:18Z</time>
      </trkpt>
      <trkpt lat="45.6214" lon="6.85651">
        <ele>1684.2</ele>
        <time>2021-05-27T11:42:19Z</time>
      </trkpt>
      <trkpt lat="45.6214" lon="6.85658">
        <ele>1684.2</ele>
        <time>2021-05-27T11:42:20Z</time>
      </trkpt>
      <trkpt lat="45.6214" lon="6.85666">
        <ele>1684.2</ele>
        <time>2021-05-27T11:42:21Z</time>
      </trkpt>
      <trkpt lat="45.62141" lon="6.85674">
        <ele>1684.2</ele>
        <time>2021-05-27T11:42:22Z</time>
      </trkpt>
      <trkpt lat="45.62142" lon="6.85682">
        <ele>1684.4</ele>
        <time>2021-05-27T11:42:23Z</time>
      </trkpt>
      <trkpt lat="45.62143" lon="6.8569">
        <ele>1684.8</ele>
        <time>2021-05-27T11:42:24Z</time>
      </trkpt>
      <trkpt lat="45.62144" lon="6.85698">
        <ele>1684.8</ele>
        <time>2021-05-27T11:42:25Z</time>
      </trkpt>
      <trkpt lat="45.62145" lon="6.85705">
        <ele>1685</ele>
        <time>2021-05-27T11:42:26Z</time>
      </trkpt>
      <trkpt lat="45.62145" lon="6.85713">
        <ele>1685</ele>
        <time>2021-05-27T11:42:27Z</time>
      </trkpt>
      <trkpt lat="45.62143" lon="6.85721">
        <ele>1685.2</ele>
        <time>2021-05-27T11:42:28Z</time>
      </trkpt>
      <trkpt lat="45.62141" lon="6.85728">
        <ele>1685.4</ele>
        <time>2021-05-27T11:42:29Z</time>
      </trkpt>
      <trkpt lat="45.62137" lon="6.85734">
        <ele>1685.4</ele>
        <time>2021-05-27T11:42:30Z</time>
      </trkpt>
      <trkpt lat="45.62134" lon="6.85741">
        <ele>1685.6</ele>
        <time>2021-05-27T11:42:31Z</time>
      </trkpt>
      <trkpt lat="45.62131" lon="6.85747">
        <ele>1686.2</ele>
        <time>2021-05-27T11:42:32Z</time>
      </trkpt>
      <trkpt lat="45.62128" lon="6.85754">
        <ele>1686.6</ele>
        <time>2021-05-27T11:42:33Z</time>
      </trkpt>
      <trkpt lat="45.62125" lon="6.8576">
        <ele>1687</ele>
        <time>2021-05-27T11:42:34Z</time>
      </trkpt>
      <trkpt lat="45.62124" lon="6.85768">
        <ele>1686.8</ele>
        <time>2021-05-27T11:42:35Z</time>
      </trkpt>
      <trkpt lat="45.62122" lon="6.85775">
        <ele>1687.2</ele>
        <time>2021-05-27T11:42:36Z</time>
      </trkpt>
      <trkpt lat="45.6212" lon="6.85783">
        <ele>1687.4</ele>
        <time>2021-05-27T11:42:37Z</time>
      </trkpt>
      <trkpt lat="45.62118" lon="6.85791">
        <ele>1687.6</ele>
        <time>2021-05-27T11:42:38Z</time>
      </trkpt>
      <trkpt lat="45.62118" lon="6.85799">
        <ele>1687.8</ele>
        <time>2021-05-27T11:42:39Z</time>
      </trkpt>
      <trkpt lat="45.62117" lon="6.85808">
        <ele>1688</ele>
        <time>2021-05-27T11:42:40Z</time>
      </trkpt>
      <trkpt lat="45.62117" lon="6.85816">
        <ele>1688</ele>
        <time>2021-05-27T11:42:41Z</time>
      </trkpt>
      <trkpt lat="45.62116" lon="6.85825">
        <ele>1688</ele>
        <time>2021-05-27T11:42:42Z</time>
      </trkpt>
      <trkpt lat="45.62116" lon="6.85833">
        <ele>1688</ele>
        <time>2021-05-27T11:42:43Z</time>
      </trkpt>
      <trkpt lat="45.62116" lon="6.85841">
        <ele>1688</ele>
        <time>2021-05-27T11:42:44Z</time>
      </trkpt>
      <trkpt lat="45.62116" lon="6.85849">
        <ele>1688.2</ele>
        <time>2021-05-27T11:42:45Z</time>
      </trkpt>
      <trkpt lat="45.62116" lon="6.85858">
        <ele>1688.4</ele>
        <time>2021-05-27T11:42:46Z</time>
      </trkpt>
      <trkpt lat="45.62115" lon="6.85866">
        <ele>1688.4</ele>
        <time>2021-05-27T11:42:47Z</time>
      </trkpt>
      <trkpt lat="45.62114" lon="6.85874">
        <ele>1688.4</ele>
        <time>2021-05-27T11:42:48Z</time>
      </trkpt>
      <trkpt lat="45.62114" lon="6.85882">
        <ele>1688.4</ele>
        <time>2021-05-27T11:42:49Z</time>
      </trkpt>
      <trkpt lat="45.62113" lon="6.8589">
        <ele>1688.2</ele>
        <time>2021-05-27T11:42:50Z</time>
      </trkpt>
      <trkpt lat="45.62112" lon="6.85898">
        <ele>1687.6</ele>
        <time>2021-05-27T11:42:51Z</time>
      </trkpt>
      <trkpt lat="45.62111" lon="6.85906">
        <ele>1687.2</ele>
        <time>2021-05-27T11:42:52Z</time>
      </trkpt>
      <trkpt lat="45.62109" lon="6.85914">
        <ele>1687</ele>
        <time>2021-05-27T11:42:53Z</time>
      </trkpt>
      <trkpt lat="45.62108" lon="6.85922">
        <ele>1687</ele>
        <time>2021-05-27T11:42:54Z</time>
      </trkpt>
      <trkpt lat="45.62106" lon="6.8593">
        <ele>1686.6</ele>
        <time>2021-05-27T11:42:55Z</time>
      </trkpt>
      <trkpt lat="45.62104" lon="6.85937">
        <ele>1686.2</ele>
        <time>2021-05-27T11:42:56Z</time>
      </trkpt>
      <trkpt lat="45.62103" lon="6.85945">
        <ele>1685.8</ele>
        <time>2021-05-27T11:42:57Z</time>
      </trkpt>
      <trkpt lat="45.62102" lon="6.85953">
        <ele>1685.4</ele>
        <time>2021-05-27T11:42:58Z</time>
      </trkpt>
      <trkpt lat="45.62101" lon="6.85961">
        <ele>1684.8</ele>
        <time>2021-05-27T11:42:59Z</time>
      </trkpt>
      <trkpt lat="45.62102" lon="6.85969">
        <ele>1684.6</ele>
        <time>2021-05-27T11:43:00Z</time>
      </trkpt>
      <trkpt lat="45.62105" lon="6.85974">
        <ele>1684.2</ele>
        <time>2021-05-27T11:43:01Z</time>
      </trkpt>
      <trkpt lat="45.6211" lon="6.85976">
        <ele>1684</ele>
        <time>2021-05-27T11:43:02Z</time>
      </trkpt>
      <trkpt lat="45.62115" lon="6.85975">
        <ele>1683.8</ele>
        <time>2021-05-27T11:43:03Z</time>
      </trkpt>
      <trkpt lat="45.62118" lon="6.8597">
        <ele>1684</ele>
        <time>2021-05-27T11:43:04Z</time>
      </trkpt>
      <trkpt lat="45.6212" lon="6.85963">
        <ele>1684.4</ele>
        <time>2021-05-27T11:43:05Z</time>
      </trkpt>
      <trkpt lat="45.62122" lon="6.85954">
        <ele>1685</ele>
        <time>2021-05-27T11:43:06Z</time>
      </trkpt>
      <trkpt lat="45.62124" lon="6.85946">
        <ele>1685.6</ele>
        <time>2021-05-27T11:43:07Z</time>
      </trkpt>
      <trkpt lat="45.62124" lon="6.85938">
        <ele>1686.6</ele>
        <time>2021-05-27T11:43:08Z</time>
      </trkpt>
      <trkpt lat="45.62125" lon="6.8593">
        <ele>1687.4</ele>
        <time>2021-05-27T11:43:09Z</time>
      </trkpt>
      <trkpt lat="45.62126" lon="6.85922">
        <ele>1687.8</ele>
        <time>2021-05-27T11:43:10Z</time>
      </trkpt>
      <trkpt lat="45.62127" lon="6.85914">
        <ele>1688.6</ele>
        <time>2021-05-27T11:43:11Z</time>
      </trkpt>
      <trkpt lat="45.62128" lon="6.85907">
        <ele>1689</ele>
        <time>2021-05-27T11:43:12Z</time>
      </trkpt>
      <trkpt lat="45.62129" lon="6.859">
        <ele>1689.2</ele>
        <time>2021-05-27T11:43:13Z</time>
      </trkpt>
      <trkpt lat="45.6213" lon="6.85893">
        <ele>1689.4</ele>
        <time>2021-05-27T11:43:14Z</time>
      </trkpt>
      <trkpt lat="45.62131" lon="6.85886">
        <ele>1689.8</ele>
        <time>2021-05-27T11:43:15Z</time>
      </trkpt>
      <trkpt lat="45.62132" lon="6.85878">
        <ele>1690.2</ele>
        <time>2021-05-27T11:43:16Z</time>
      </trkpt>
      <trkpt lat="45.62134" lon="6.85871">
        <ele>1690.4</ele>
        <time>2021-05-27T11:43:17Z</time>
      </trkpt>
      <trkpt lat="45.62134" lon="6.85864">
        <ele>1691</ele>
        <time>2021-05-27T11:43:18Z</time>
      </trkpt>
      <trkpt lat="45.62135" lon="6.85857">
        <ele>1691.4</ele>
        <time>2021-05-27T11:43:19Z</time>
      </trkpt>
      <trkpt lat="45.62136" lon="6.8585">
        <ele>1691.8</ele>
        <time>2021-05-27T11:43:20Z</time>
      </trkpt>
      <trkpt lat="45.62137" lon="6.85844">
        <ele>1692</ele>
        <time>2021-05-27T11:43:21Z</time>
      </trkpt>
      <trkpt lat="45.62138" lon="6.85836">
        <ele>1692</ele>
        <time>2021-05-27T11:43:22Z</time>
      </trkpt>
      <trkpt lat="45.6214" lon="6.8583">
        <ele>1692.2</ele>
        <time>2021-05-27T11:43:23Z</time>
      </trkpt>
      <trkpt lat="45.6214" lon="6.85823">
        <ele>1692.4</ele>
        <time>2021-05-27T11:43:24Z</time>
      </trkpt>
      <trkpt lat="45.62141" lon="6.85816">
        <ele>1692.6</ele>
        <time>2021-05-27T11:43:25Z</time>
      </trkpt>
      <trkpt lat="45.62142" lon="6.85809">
        <ele>1693.2</ele>
        <time>2021-05-27T11:43:26Z</time>
      </trkpt>
      <trkpt lat="45.62143" lon="6.85802">
        <ele>1693.6</ele>
        <time>2021-05-27T11:43:27Z</time>
      </trkpt>
      <trkpt lat="45.62144" lon="6.85795">
        <ele>1693.8</ele>
        <time>2021-05-27T11:43:28Z</time>
      </trkpt>
      <trkpt lat="45.62146" lon="6.85788">
        <ele>1694</ele>
        <time>2021-05-27T11:43:29Z</time>
      </trkpt>
      <trkpt lat="45.62147" lon="6.85782">
        <ele>1694.4</ele>
        <time>2021-05-27T11:43:30Z</time>
      </trkpt>
      <trkpt lat="45.62149" lon="6.85775">
        <ele>1694.6</ele>
        <time>2021-05-27T11:43:31Z</time>
      </trkpt>
      <trkpt lat="45.6215" lon="6.85769">
        <ele>1694.8</ele>
        <time>2021-05-27T11:43:32Z</time>
      </trkpt>
      <trkpt lat="45.62153" lon="6.85763">
        <ele>1695</ele>
        <time>2021-05-27T11:43:33Z</time>
      </trkpt>
      <trkpt lat="45.62155" lon="6.85757">
        <ele>1695.2</ele>
        <time>2021-05-27T11:43:34Z</time>
      </trkpt>
      <trkpt lat="45.62158" lon="6.85752">
        <ele>1695.6</ele>
        <time>2021-05-27T11:43:35Z</time>
      </trkpt>
      <trkpt lat="45.62162" lon="6.85747">
        <ele>1695.8</ele>
        <time>2021-05-27T11:43:36Z</time>
      </trkpt>
      <trkpt lat="45.62165" lon="6.85742">
        <ele>1695.4</ele>
        <time>2021-05-27T11:43:37Z</time>
      </trkpt>
      <trkpt lat="45.62168" lon="6.85738">
        <ele>1695</ele>
        <time>2021-05-27T11:43:38Z</time>
      </trkpt>
      <trkpt lat="45.62172" lon="6.85733">
        <ele>1694.6</ele>
        <time>2021-05-27T11:43:39Z</time>
      </trkpt>
      <trkpt lat="45.62175" lon="6.85729">
        <ele>1694</ele>
        <time>2021-05-27T11:43:40Z</time>
      </trkpt>
      <trkpt lat="45.62179" lon="6.85725">
        <ele>1693.2</ele>
        <time>2021-05-27T11:43:41Z</time>
      </trkpt>
      <trkpt lat="45.62183" lon="6.85721">
        <ele>1692.8</ele>
        <time>2021-05-27T11:43:42Z</time>
      </trkpt>
      <trkpt lat="45.62187" lon="6.85716">
        <ele>1692.4</ele>
        <time>2021-05-27T11:43:43Z</time>
      </trkpt>
      <trkpt lat="45.6219" lon="6.85711">
        <ele>1692.2</ele>
        <time>2021-05-27T11:43:44Z</time>
      </trkpt>
      <trkpt lat="45.62193" lon="6.85705">
        <ele>1692</ele>
        <time>2021-05-27T11:43:45Z</time>
      </trkpt>
      <trkpt lat="45.62195" lon="6.85699">
        <ele>1691.6</ele>
        <time>2021-05-27T11:43:46Z</time>
      </trkpt>
      <trkpt lat="45.62197" lon="6.85692">
        <ele>1691.6</ele>
        <time>2021-05-27T11:43:47Z</time>
      </trkpt>
      <trkpt lat="45.62198" lon="6.85685">
        <ele>1691.8</ele>
        <time>2021-05-27T11:43:48Z</time>
      </trkpt>
      <trkpt lat="45.62199" lon="6.85678">
        <ele>1691.8</ele>
        <time>2021-05-27T11:43:49Z</time>
      </trkpt>
      <trkpt lat="45.62199" lon="6.85672">
        <ele>1691.8</ele>
        <time>2021-05-27T11:43:50Z</time>
      </trkpt>
      <trkpt lat="45.62199" lon="6.85665">
        <ele>1692.2</ele>
        <time>2021-05-27T11:43:51Z</time>
      </trkpt>
      <trkpt lat="45.62199" lon="6.85658">
        <ele>1692.2</ele>
        <time>2021-05-27T11:43:52Z</time>
      </trkpt>
      <trkpt lat="45.62199" lon="6.8565">
        <ele>1692.4</ele>
        <time>2021-05-27T11:43:53Z</time>
      </trkpt>
      <trkpt lat="45.62199" lon="6.85643">
        <ele>1692.6</ele>
        <time>2021-05-27T11:43:54Z</time>
      </trkpt>
      <trkpt lat="45.62199" lon="6.85636">
        <ele>1692.8</ele>
        <time>2021-05-27T11:43:55Z</time>
      </trkpt>
      <trkpt lat="45.62199" lon="6.85628">
        <ele>1693.2</ele>
        <time>2021-05-27T11:43:56Z</time>
      </trkpt>
      <trkpt lat="45.622" lon="6.85622">
        <ele>1693.6</ele>
        <time>2021-05-27T11:43:57Z</time>
      </trkpt>
      <trkpt lat="45.62201" lon="6.85616">
        <ele>1693.6</ele>
        <time>2021-05-27T11:43:58Z</time>
      </trkpt>
      <trkpt lat="45.62203" lon="6.8561">
        <ele>1693.6</ele>
        <time>2021-05-27T11:43:59Z</time>
      </trkpt>
      <trkpt lat="45.62205" lon="6.85603">
        <ele>1693.2</ele>
        <time>2021-05-27T11:44:00Z</time>
      </trkpt>
      <trkpt lat="45.62208" lon="6.85597">
        <ele>1692.2</ele>
        <time>2021-05-27T11:44:01Z</time>
      </trkpt>
      <trkpt lat="45.62211" lon="6.85591">
        <ele>1691.8</ele>
        <time>2021-05-27T11:44:02Z</time>
      </trkpt>
      <trkpt lat="45.62215" lon="6.85585">
        <ele>1691.4</ele>
        <time>2021-05-27T11:44:03Z</time>
      </trkpt>
      <trkpt lat="45.62219" lon="6.8558">
        <ele>1691</ele>
        <time>2021-05-27T11:44:04Z</time>
      </trkpt>
      <trkpt lat="45.62222" lon="6.85574">
        <ele>1691</ele>
        <time>2021-05-27T11:44:05Z</time>
      </trkpt>
      <trkpt lat="45.62225" lon="6.85569">
        <ele>1691.4</ele>
        <time>2021-05-27T11:44:06Z</time>
      </trkpt>
      <trkpt lat="45.62229" lon="6.85564">
        <ele>1692</ele>
        <time>2021-05-27T11:44:07Z</time>
      </trkpt>
      <trkpt lat="45.62232" lon="6.85558">
        <ele>1692.8</ele>
        <time>2021-05-27T11:44:08Z</time>
      </trkpt>
      <trkpt lat="45.62236" lon="6.85553">
        <ele>1693.4</ele>
        <time>2021-05-27T11:44:09Z</time>
      </trkpt>
      <trkpt lat="45.62238" lon="6.85547">
        <ele>1694.2</ele>
        <time>2021-05-27T11:44:10Z</time>
      </trkpt>
      <trkpt lat="45.6224" lon="6.85541">
        <ele>1694.8</ele>
        <time>2021-05-27T11:44:11Z</time>
      </trkpt>
      <trkpt lat="45.62242" lon="6.85535">
        <ele>1695.4</ele>
        <time>2021-05-27T11:44:12Z</time>
      </trkpt>
      <trkpt lat="45.62243" lon="6.85528">
        <ele>1696</ele>
        <time>2021-05-27T11:44:13Z</time>
      </trkpt>
      <trkpt lat="45.62245" lon="6.85521">
        <ele>1696.4</ele>
        <time>2021-05-27T11:44:14Z</time>
      </trkpt>
      <trkpt lat="45.62246" lon="6.85514">
        <ele>1697</ele>
        <time>2021-05-27T11:44:15Z</time>
      </trkpt>
      <trkpt lat="45.62247" lon="6.85508">
        <ele>1697.4</ele>
        <time>2021-05-27T11:44:16Z</time>
      </trkpt>
      <trkpt lat="45.62248" lon="6.855">
        <ele>1697.8</ele>
        <time>2021-05-27T11:44:17Z</time>
      </trkpt>
      <trkpt lat="45.62249" lon="6.85494">
        <ele>1698.2</ele>
        <time>2021-05-27T11:44:18Z</time>
      </trkpt>
      <trkpt lat="45.6225" lon="6.85487">
        <ele>1698.6</ele>
        <time>2021-05-27T11:44:19Z</time>
      </trkpt>
      <trkpt lat="45.62251" lon="6.8548">
        <ele>1698.6</ele>
        <time>2021-05-27T11:44:20Z</time>
      </trkpt>
      <trkpt lat="45.62252" lon="6.85473">
        <ele>1699</ele>
        <time>2021-05-27T11:44:21Z</time>
      </trkpt>
      <trkpt lat="45.62253" lon="6.85467">
        <ele>1699.4</ele>
        <time>2021-05-27T11:44:22Z</time>
      </trkpt>
      <trkpt lat="45.62255" lon="6.8546">
        <ele>1700</ele>
        <time>2021-05-27T11:44:23Z</time>
      </trkpt>
      <trkpt lat="45.62256" lon="6.85455">
        <ele>1700.8</ele>
        <time>2021-05-27T11:44:24Z</time>
      </trkpt>
      <trkpt lat="45.62258" lon="6.85449">
        <ele>1701.6</ele>
        <time>2021-05-27T11:44:25Z</time>
      </trkpt>
      <trkpt lat="45.6226" lon="6.85443">
        <ele>1702.4</ele>
        <time>2021-05-27T11:44:26Z</time>
      </trkpt>
      <trkpt lat="45.6226" lon="6.85436">
        <ele>1703.2</ele>
        <time>2021-05-27T11:44:27Z</time>
      </trkpt>
      <trkpt lat="45.6226" lon="6.85429">
        <ele>1703.6</ele>
        <time>2021-05-27T11:44:28Z</time>
      </trkpt>
      <trkpt lat="45.6226" lon="6.85422">
        <ele>1704.2</ele>
        <time>2021-05-27T11:44:29Z</time>
      </trkpt>
      <trkpt lat="45.6226" lon="6.85416">
        <ele>1705</ele>
        <time>2021-05-27T11:44:30Z</time>
      </trkpt>
      <trkpt lat="45.6226" lon="6.85409">
        <ele>1705.4</ele>
        <time>2021-05-27T11:44:31Z</time>
      </trkpt>
      <trkpt lat="45.6226" lon="6.85402">
        <ele>1705.6</ele>
        <time>2021-05-27T11:44:32Z</time>
      </trkpt>
      <trkpt lat="45.6226" lon="6.85395">
        <ele>1706.2</ele>
        <time>2021-05-27T11:44:33Z</time>
      </trkpt>
      <trkpt lat="45.62259" lon="6.85387">
        <ele>1706.2</ele>
        <time>2021-05-27T11:44:34Z</time>
      </trkpt>
      <trkpt lat="45.62259" lon="6.8538">
        <ele>1706.6</ele>
        <time>2021-05-27T11:44:35Z</time>
      </trkpt>
      <trkpt lat="45.62258" lon="6.85372">
        <ele>1707.2</ele>
        <time>2021-05-27T11:44:36Z</time>
      </trkpt>
      <trkpt lat="45.62257" lon="6.85365">
        <ele>1707.8</ele>
        <time>2021-05-27T11:44:37Z</time>
      </trkpt>
      <trkpt lat="45.62257" lon="6.85358">
        <ele>1708.2</ele>
        <time>2021-05-27T11:44:38Z</time>
      </trkpt>
      <trkpt lat="45.62257" lon="6.85351">
        <ele>1708.8</ele>
        <time>2021-05-27T11:44:39Z</time>
      </trkpt>
      <trkpt lat="45.62258" lon="6.85344">
        <ele>1709.4</ele>
        <time>2021-05-27T11:44:40Z</time>
      </trkpt>
      <trkpt lat="45.62259" lon="6.85338">
        <ele>1710</ele>
        <time>2021-05-27T11:44:41Z</time>
      </trkpt>
      <trkpt lat="45.6226" lon="6.85331">
        <ele>1710.4</ele>
        <time>2021-05-27T11:44:42Z</time>
      </trkpt>
      <trkpt lat="45.62261" lon="6.85325">
        <ele>1711</ele>
        <time>2021-05-27T11:44:43Z</time>
      </trkpt>
      <trkpt lat="45.62262" lon="6.85318">
        <ele>1711.6</ele>
        <time>2021-05-27T11:44:44Z</time>
      </trkpt>
      <trkpt lat="45.62263" lon="6.85312">
        <ele>1712</ele>
        <time>2021-05-27T11:44:45Z</time>
      </trkpt>
      <trkpt lat="45.62264" lon="6.85305">
        <ele>1712.4</ele>
        <time>2021-05-27T11:44:46Z</time>
      </trkpt>
      <trkpt lat="45.62265" lon="6.85298">
        <ele>1713</ele>
        <time>2021-05-27T11:44:47Z</time>
      </trkpt>
      <trkpt lat="45.62267" lon="6.85291">
        <ele>1713.6</ele>
        <time>2021-05-27T11:44:48Z</time>
      </trkpt>
      <trkpt lat="45.62268" lon="6.85284">
        <ele>1714</ele>
        <time>2021-05-27T11:44:49Z</time>
      </trkpt>
      <trkpt lat="45.6227" lon="6.85278">
        <ele>1714.6</ele>
        <time>2021-05-27T11:44:50Z</time>
      </trkpt>
      <trkpt lat="45.62272" lon="6.85272">
        <ele>1715.2</ele>
        <time>2021-05-27T11:44:51Z</time>
      </trkpt>
      <trkpt lat="45.62275" lon="6.85266">
        <ele>1715.8</ele>
        <time>2021-05-27T11:44:52Z</time>
      </trkpt>
      <trkpt lat="45.62277" lon="6.8526">
        <ele>1716.4</ele>
        <time>2021-05-27T11:44:53Z</time>
      </trkpt>
      <trkpt lat="45.62279" lon="6.85254">
        <ele>1717</ele>
        <time>2021-05-27T11:44:54Z</time>
      </trkpt>
      <trkpt lat="45.62281" lon="6.85247">
        <ele>1717.4</ele>
        <time>2021-05-27T11:44:55Z</time>
      </trkpt>
      <trkpt lat="45.62283" lon="6.8524">
        <ele>1718</ele>
        <time>2021-05-27T11:44:56Z</time>
      </trkpt>
      <trkpt lat="45.62286" lon="6.85234">
        <ele>1718.4</ele>
        <time>2021-05-27T11:44:57Z</time>
      </trkpt>
      <trkpt lat="45.62288" lon="6.85227">
        <ele>1718.8</ele>
        <time>2021-05-27T11:44:58Z</time>
      </trkpt>
      <trkpt lat="45.6229" lon="6.8522">
        <ele>1719.2</ele>
        <time>2021-05-27T11:44:59Z</time>
      </trkpt>
      <trkpt lat="45.62292" lon="6.85213">
        <ele>1719.4</ele>
        <time>2021-05-27T11:45:00Z</time>
      </trkpt>
      <trkpt lat="45.62295" lon="6.85206">
        <ele>1719.8</ele>
        <time>2021-05-27T11:45:01Z</time>
      </trkpt>
      <trkpt lat="45.62297" lon="6.85199">
        <ele>1719.8</ele>
        <time>2021-05-27T11:45:02Z</time>
      </trkpt>
      <trkpt lat="45.62299" lon="6.85191">
        <ele>1720.2</ele>
        <time>2021-05-27T11:45:03Z</time>
      </trkpt>
      <trkpt lat="45.623" lon="6.85186">
        <ele>1720.6</ele>
        <time>2021-05-27T11:45:04Z</time>
      </trkpt>
      <trkpt lat="45.62302" lon="6.8518">
        <ele>1721.2</ele>
        <time>2021-05-27T11:45:05Z</time>
      </trkpt>
      <trkpt lat="45.62305" lon="6.85173">
        <ele>1721.6</ele>
        <time>2021-05-27T11:45:06Z</time>
      </trkpt>
      <trkpt lat="45.62306" lon="6.85166">
        <ele>1722</ele>
        <time>2021-05-27T11:45:07Z</time>
      </trkpt>
      <trkpt lat="45.62307" lon="6.8516">
        <ele>1722.6</ele>
        <time>2021-05-27T11:45:08Z</time>
      </trkpt>
      <trkpt lat="45.62308" lon="6.85153">
        <ele>1722.8</ele>
        <time>2021-05-27T11:45:09Z</time>
      </trkpt>
      <trkpt lat="45.6231" lon="6.85146">
        <ele>1723.2</ele>
        <time>2021-05-27T11:45:10Z</time>
      </trkpt>
      <trkpt lat="45.62311" lon="6.8514">
        <ele>1723.8</ele>
        <time>2021-05-27T11:45:11Z</time>
      </trkpt>
      <trkpt lat="45.62312" lon="6.85133">
        <ele>1724.2</ele>
        <time>2021-05-27T11:45:12Z</time>
      </trkpt>
      <trkpt lat="45.62314" lon="6.85127">
        <ele>1724.6</ele>
        <time>2021-05-27T11:45:13Z</time>
      </trkpt>
      <trkpt lat="45.62315" lon="6.8512">
        <ele>1724.8</ele>
        <time>2021-05-27T11:45:14Z</time>
      </trkpt>
      <trkpt lat="45.62316" lon="6.85113">
        <ele>1725.2</ele>
        <time>2021-05-27T11:45:15Z</time>
      </trkpt>
      <trkpt lat="45.62316" lon="6.85106">
        <ele>1725.6</ele>
        <time>2021-05-27T11:45:16Z</time>
      </trkpt>
      <trkpt lat="45.62317" lon="6.85099">
        <ele>1725.8</ele>
        <time>2021-05-27T11:45:17Z</time>
      </trkpt>
      <trkpt lat="45.62319" lon="6.85092">
        <ele>1726</ele>
        <time>2021-05-27T11:45:18Z</time>
      </trkpt>
      <trkpt lat="45.62321" lon="6.85087">
        <ele>1726.2</ele>
        <time>2021-05-27T11:45:19Z</time>
      </trkpt>
      <trkpt lat="45.62324" lon="6.85082">
        <ele>1726.4</ele>
        <time>2021-05-27T11:45:20Z</time>
      </trkpt>
      <trkpt lat="45.62329" lon="6.85082">
        <ele>1726.4</ele>
        <time>2021-05-27T11:45:21Z</time>
      </trkpt>
      <trkpt lat="45.62332" lon="6.85084">
        <ele>1726.6</ele>
        <time>2021-05-27T11:45:22Z</time>
      </trkpt>
      <trkpt lat="45.62332" lon="6.85089">
        <ele>1726.6</ele>
        <time>2021-05-27T11:45:23Z</time>
      </trkpt>
      <trkpt lat="45.62333" lon="6.85095">
        <ele>1726.4</ele>
        <time>2021-05-27T11:45:24Z</time>
      </trkpt>
      <trkpt lat="45.62332" lon="6.85103">
        <ele>1726.2</ele>
        <time>2021-05-27T11:45:25Z</time>
      </trkpt>
      <trkpt lat="45.62331" lon="6.85111">
        <ele>1726.2</ele>
        <time>2021-05-27T11:45:26Z</time>
      </trkpt>
      <trkpt lat="45.6233" lon="6.85119">
        <ele>1726</ele>
        <time>2021-05-27T11:45:27Z</time>
      </trkpt>
      <trkpt lat="45.62328" lon="6.85128">
        <ele>1725.8</ele>
        <time>2021-05-27T11:45:28Z</time>
      </trkpt>
      <trkpt lat="45.62327" lon="6.85136">
        <ele>1725.4</ele>
        <time>2021-05-27T11:45:29Z</time>
      </trkpt>
      <trkpt lat="45.62324" lon="6.85145">
        <ele>1725.4</ele>
        <time>2021-05-27T11:45:30Z</time>
      </trkpt>
      <trkpt lat="45.62323" lon="6.85154">
        <ele>1725.2</ele>
        <time>2021-05-27T11:45:31Z</time>
      </trkpt>
      <trkpt lat="45.62321" lon="6.85163">
        <ele>1725.2</ele>
        <time>2021-05-27T11:45:32Z</time>
      </trkpt>
      <trkpt lat="45.62318" lon="6.85172">
        <ele>1725</ele>
        <time>2021-05-27T11:45:33Z</time>
      </trkpt>
      <trkpt lat="45.62316" lon="6.85181">
        <ele>1725</ele>
        <time>2021-05-27T11:45:34Z</time>
      </trkpt>
      <trkpt lat="45.62313" lon="6.8519">
        <ele>1725.2</ele>
        <time>2021-05-27T11:45:35Z</time>
      </trkpt>
      <trkpt lat="45.6231" lon="6.852">
        <ele>1725.4</ele>
        <time>2021-05-27T11:45:36Z</time>
      </trkpt>
      <trkpt lat="45.62307" lon="6.85209">
        <ele>1725.6</ele>
        <time>2021-05-27T11:45:37Z</time>
      </trkpt>
      <trkpt lat="45.62304" lon="6.85219">
        <ele>1725.6</ele>
        <time>2021-05-27T11:45:38Z</time>
      </trkpt>
      <trkpt lat="45.62302" lon="6.85228">
        <ele>1725.4</ele>
        <time>2021-05-27T11:45:39Z</time>
      </trkpt>
      <trkpt lat="45.62299" lon="6.85238">
        <ele>1725.2</ele>
        <time>2021-05-27T11:45:40Z</time>
      </trkpt>
      <trkpt lat="45.62297" lon="6.85248">
        <ele>1725.6</ele>
        <time>2021-05-27T11:45:41Z</time>
      </trkpt>
      <trkpt lat="45.62296" lon="6.85259">
        <ele>1725.8</ele>
        <time>2021-05-27T11:45:42Z</time>
      </trkpt>
      <trkpt lat="45.62294" lon="6.8527">
        <ele>1725.4</ele>
        <time>2021-05-27T11:45:43Z</time>
      </trkpt>
      <trkpt lat="45.62292" lon="6.85281">
        <ele>1725.2</ele>
        <time>2021-05-27T11:45:44Z</time>
      </trkpt>
      <trkpt lat="45.62291" lon="6.85292">
        <ele>1725</ele>
        <time>2021-05-27T11:45:45Z</time>
      </trkpt>
      <trkpt lat="45.62289" lon="6.85303">
        <ele>1724.8</ele>
        <time>2021-05-27T11:45:46Z</time>
      </trkpt>
      <trkpt lat="45.62287" lon="6.85314">
        <ele>1724.8</ele>
        <time>2021-05-27T11:45:47Z</time>
      </trkpt>
      <trkpt lat="45.62286" lon="6.85324">
        <ele>1724.8</ele>
        <time>2021-05-27T11:45:48Z</time>
      </trkpt>
      <trkpt lat="45.62285" lon="6.85335">
        <ele>1725</ele>
        <time>2021-05-27T11:45:49Z</time>
      </trkpt>
      <trkpt lat="45.62284" lon="6.85345">
        <ele>1725</ele>
        <time>2021-05-27T11:45:50Z</time>
      </trkpt>
      <trkpt lat="45.62284" lon="6.85356">
        <ele>1725.2</ele>
        <time>2021-05-27T11:45:51Z</time>
      </trkpt>
      <trkpt lat="45.62285" lon="6.85366">
        <ele>1725.4</ele>
        <time>2021-05-27T11:45:52Z</time>
      </trkpt>
      <trkpt lat="45.62286" lon="6.85377">
        <ele>1725.6</ele>
        <time>2021-05-27T11:45:53Z</time>
      </trkpt>
      <trkpt lat="45.62288" lon="6.85388">
        <ele>1725.8</ele>
        <time>2021-05-27T11:45:54Z</time>
      </trkpt>
      <trkpt lat="45.62289" lon="6.85398">
        <ele>1725.8</ele>
        <time>2021-05-27T11:45:55Z</time>
      </trkpt>
      <trkpt lat="45.62291" lon="6.85408">
        <ele>1725.8</ele>
        <time>2021-05-27T11:45:56Z</time>
      </trkpt>
      <trkpt lat="45.62294" lon="6.85417">
        <ele>1725.8</ele>
        <time>2021-05-27T11:45:57Z</time>
      </trkpt>
      <trkpt lat="45.62295" lon="6.85426">
        <ele>1726.2</ele>
        <time>2021-05-27T11:45:58Z</time>
      </trkpt>
      <trkpt lat="45.62297" lon="6.85434">
        <ele>1726.2</ele>
        <time>2021-05-27T11:45:59Z</time>
      </trkpt>
      <trkpt lat="45.62298" lon="6.85444">
        <ele>1726.6</ele>
        <time>2021-05-27T11:46:00Z</time>
      </trkpt>
      <trkpt lat="45.623" lon="6.85453">
        <ele>1726.6</ele>
        <time>2021-05-27T11:46:01Z</time>
      </trkpt>
      <trkpt lat="45.623" lon="6.85463">
        <ele>1727</ele>
        <time>2021-05-27T11:46:02Z</time>
      </trkpt>
      <trkpt lat="45.62302" lon="6.85471">
        <ele>1727.6</ele>
        <time>2021-05-27T11:46:03Z</time>
      </trkpt>
      <trkpt lat="45.62302" lon="6.8548">
        <ele>1728</ele>
        <time>2021-05-27T11:46:04Z</time>
      </trkpt>
      <trkpt lat="45.62304" lon="6.85489">
        <ele>1728.4</ele>
        <time>2021-05-27T11:46:05Z</time>
      </trkpt>
      <trkpt lat="45.62305" lon="6.85497">
        <ele>1728.8</ele>
        <time>2021-05-27T11:46:06Z</time>
      </trkpt>
      <trkpt lat="45.62306" lon="6.85504">
        <ele>1729.2</ele>
        <time>2021-05-27T11:46:07Z</time>
      </trkpt>
      <trkpt lat="45.62307" lon="6.85513">
        <ele>1729.4</ele>
        <time>2021-05-27T11:46:08Z</time>
      </trkpt>
      <trkpt lat="45.62308" lon="6.85521">
        <ele>1729.4</ele>
        <time>2021-05-27T11:46:09Z</time>
      </trkpt>
      <trkpt lat="45.62308" lon="6.85529">
        <ele>1729.4</ele>
        <time>2021-05-27T11:46:10Z</time>
      </trkpt>
      <trkpt lat="45.62308" lon="6.85538">
        <ele>1729.6</ele>
        <time>2021-05-27T11:46:11Z</time>
      </trkpt>
      <trkpt lat="45.62308" lon="6.85546">
        <ele>1729.8</ele>
        <time>2021-05-27T11:46:12Z</time>
      </trkpt>
      <trkpt lat="45.62308" lon="6.85554">
        <ele>1730</ele>
        <time>2021-05-27T11:46:13Z</time>
      </trkpt>
      <trkpt lat="45.62308" lon="6.85562">
        <ele>1730.2</ele>
        <time>2021-05-27T11:46:14Z</time>
      </trkpt>
      <trkpt lat="45.62307" lon="6.8557">
        <ele>1730.2</ele>
        <time>2021-05-27T11:46:15Z</time>
      </trkpt>
      <trkpt lat="45.62307" lon="6.85578">
        <ele>1730.6</ele>
        <time>2021-05-27T11:46:16Z</time>
      </trkpt>
      <trkpt lat="45.62306" lon="6.85586">
        <ele>1730.8</ele>
        <time>2021-05-27T11:46:17Z</time>
      </trkpt>
      <trkpt lat="45.62306" lon="6.85593">
        <ele>1731</ele>
        <time>2021-05-27T11:46:18Z</time>
      </trkpt>
      <trkpt lat="45.62305" lon="6.85601">
        <ele>1731</ele>
        <time>2021-05-27T11:46:19Z</time>
      </trkpt>
      <trkpt lat="45.62304" lon="6.85609">
        <ele>1731.2</ele>
        <time>2021-05-27T11:46:20Z</time>
      </trkpt>
      <trkpt lat="45.62303" lon="6.85616">
        <ele>1731.4</ele>
        <time>2021-05-27T11:46:21Z</time>
      </trkpt>
      <trkpt lat="45.62302" lon="6.85624">
        <ele>1731.4</ele>
        <time>2021-05-27T11:46:22Z</time>
      </trkpt>
      <trkpt lat="45.62302" lon="6.85632">
        <ele>1731.4</ele>
        <time>2021-05-27T11:46:23Z</time>
      </trkpt>
      <trkpt lat="45.62301" lon="6.85639">
        <ele>1731.4</ele>
        <time>2021-05-27T11:46:24Z</time>
      </trkpt>
      <trkpt lat="45.623" lon="6.85647">
        <ele>1731.6</ele>
        <time>2021-05-27T11:46:25Z</time>
      </trkpt>
      <trkpt lat="45.623" lon="6.85655">
        <ele>1731.4</ele>
        <time>2021-05-27T11:46:26Z</time>
      </trkpt>
      <trkpt lat="45.623" lon="6.85662">
        <ele>1731.4</ele>
        <time>2021-05-27T11:46:27Z</time>
      </trkpt>
      <trkpt lat="45.62299" lon="6.8567">
        <ele>1731.6</ele>
        <time>2021-05-27T11:46:28Z</time>
      </trkpt>
      <trkpt lat="45.62299" lon="6.85676">
        <ele>1731.6</ele>
        <time>2021-05-27T11:46:29Z</time>
      </trkpt>
      <trkpt lat="45.62298" lon="6.85684">
        <ele>1732.2</ele>
        <time>2021-05-27T11:46:30Z</time>
      </trkpt>
      <trkpt lat="45.62297" lon="6.8569">
        <ele>1732.4</ele>
        <time>2021-05-27T11:46:31Z</time>
      </trkpt>
      <trkpt lat="45.62296" lon="6.85698">
        <ele>1733</ele>
        <time>2021-05-27T11:46:32Z</time>
      </trkpt>
      <trkpt lat="45.62294" lon="6.85704">
        <ele>1733.4</ele>
        <time>2021-05-27T11:46:33Z</time>
      </trkpt>
      <trkpt lat="45.62293" lon="6.85711">
        <ele>1734.2</ele>
        <time>2021-05-27T11:46:34Z</time>
      </trkpt>
      <trkpt lat="45.62291" lon="6.85718">
        <ele>1734.8</ele>
        <time>2021-05-27T11:46:35Z</time>
      </trkpt>
      <trkpt lat="45.62289" lon="6.85724">
        <ele>1735.4</ele>
        <time>2021-05-27T11:46:36Z</time>
      </trkpt>
      <trkpt lat="45.62287" lon="6.85731">
        <ele>1736</ele>
        <time>2021-05-27T11:46:37Z</time>
      </trkpt>
      <trkpt lat="45.62285" lon="6.85738">
        <ele>1736.6</ele>
        <time>2021-05-27T11:46:38Z</time>
      </trkpt>
      <trkpt lat="45.62283" lon="6.85744">
        <ele>1737.2</ele>
        <time>2021-05-27T11:46:39Z</time>
      </trkpt>
      <trkpt lat="45.62281" lon="6.85751">
        <ele>1738</ele>
        <time>2021-05-27T11:46:40Z</time>
      </trkpt>
      <trkpt lat="45.62279" lon="6.85757">
        <ele>1738.6</ele>
        <time>2021-05-27T11:46:41Z</time>
      </trkpt>
      <trkpt lat="45.62277" lon="6.85763">
        <ele>1739.4</ele>
        <time>2021-05-27T11:46:42Z</time>
      </trkpt>
      <trkpt lat="45.62274" lon="6.85769">
        <ele>1740.2</ele>
        <time>2021-05-27T11:46:43Z</time>
      </trkpt>
      <trkpt lat="45.62271" lon="6.85775">
        <ele>1740.6</ele>
        <time>2021-05-27T11:46:44Z</time>
      </trkpt>
      <trkpt lat="45.62269" lon="6.85781">
        <ele>1741.4</ele>
        <time>2021-05-27T11:46:45Z</time>
      </trkpt>
      <trkpt lat="45.62267" lon="6.85787">
        <ele>1742</ele>
        <time>2021-05-27T11:46:46Z</time>
      </trkpt>
      <trkpt lat="45.62265" lon="6.85793">
        <ele>1742.6</ele>
        <time>2021-05-27T11:46:47Z</time>
      </trkpt>
      <trkpt lat="45.62263" lon="6.858">
        <ele>1743.4</ele>
        <time>2021-05-27T11:46:48Z</time>
      </trkpt>
      <trkpt lat="45.62263" lon="6.85808">
        <ele>1744</ele>
        <time>2021-05-27T11:46:49Z</time>
      </trkpt>
      <trkpt lat="45.62262" lon="6.85815">
        <ele>1744.8</ele>
        <time>2021-05-27T11:46:50Z</time>
      </trkpt>
      <trkpt lat="45.62262" lon="6.85823">
        <ele>1745.4</ele>
        <time>2021-05-27T11:46:51Z</time>
      </trkpt>
      <trkpt lat="45.62263" lon="6.8583">
        <ele>1745.8</ele>
        <time>2021-05-27T11:46:52Z</time>
      </trkpt>
      <trkpt lat="45.62263" lon="6.85838">
        <ele>1746.2</ele>
        <time>2021-05-27T11:46:53Z</time>
      </trkpt>
      <trkpt lat="45.62263" lon="6.85846">
        <ele>1746.4</ele>
        <time>2021-05-27T11:46:54Z</time>
      </trkpt>
      <trkpt lat="45.62264" lon="6.85853">
        <ele>1746.4</ele>
        <time>2021-05-27T11:46:55Z</time>
      </trkpt>
      <trkpt lat="45.62265" lon="6.85861">
        <ele>1746.4</ele>
        <time>2021-05-27T11:46:56Z</time>
      </trkpt>
      <trkpt lat="45.62265" lon="6.85868">
        <ele>1746.6</ele>
        <time>2021-05-27T11:46:57Z</time>
      </trkpt>
      <trkpt lat="45.62265" lon="6.85876">
        <ele>1746.8</ele>
        <time>2021-05-27T11:46:58Z</time>
      </trkpt>
      <trkpt lat="45.62266" lon="6.85884">
        <ele>1747</ele>
        <time>2021-05-27T11:46:59Z</time>
      </trkpt>
      <trkpt lat="45.62267" lon="6.85891">
        <ele>1747</ele>
        <time>2021-05-27T11:47:00Z</time>
      </trkpt>
      <trkpt lat="45.62267" lon="6.85898">
        <ele>1747.2</ele>
        <time>2021-05-27T11:47:01Z</time>
      </trkpt>
      <trkpt lat="45.62268" lon="6.85906">
        <ele>1747.2</ele>
        <time>2021-05-27T11:47:02Z</time>
      </trkpt>
      <trkpt lat="45.62268" lon="6.85914">
        <ele>1747.6</ele>
        <time>2021-05-27T11:47:03Z</time>
      </trkpt>
      <trkpt lat="45.62268" lon="6.85921">
        <ele>1748.4</ele>
        <time>2021-05-27T11:47:04Z</time>
      </trkpt>
      <trkpt lat="45.62268" lon="6.85928">
        <ele>1749</ele>
        <time>2021-05-27T11:47:05Z</time>
      </trkpt>
      <trkpt lat="45.62268" lon="6.85936">
        <ele>1749.2</ele>
        <time>2021-05-27T11:47:06Z</time>
      </trkpt>
      <trkpt lat="45.62269" lon="6.85943">
        <ele>1749.4</ele>
        <time>2021-05-27T11:47:07Z</time>
      </trkpt>
      <trkpt lat="45.62269" lon="6.85951">
        <ele>1749.2</ele>
        <time>2021-05-27T11:47:08Z</time>
      </trkpt>
      <trkpt lat="45.6227" lon="6.85958">
        <ele>1749.2</ele>
        <time>2021-05-27T11:47:09Z</time>
      </trkpt>
      <trkpt lat="45.6227" lon="6.85966">
        <ele>1749</ele>
        <time>2021-05-27T11:47:10Z</time>
      </trkpt>
      <trkpt lat="45.62271" lon="6.85973">
        <ele>1748.4</ele>
        <time>2021-05-27T11:47:11Z</time>
      </trkpt>
      <trkpt lat="45.62271" lon="6.8598">
        <ele>1748.2</ele>
        <time>2021-05-27T11:47:12Z</time>
      </trkpt>
      <trkpt lat="45.62273" lon="6.85988">
        <ele>1748</ele>
        <time>2021-05-27T11:47:13Z</time>
      </trkpt>
      <trkpt lat="45.62274" lon="6.85995">
        <ele>1748</ele>
        <time>2021-05-27T11:47:14Z</time>
      </trkpt>
      <trkpt lat="45.62276" lon="6.86002">
        <ele>1748</ele>
        <time>2021-05-27T11:47:15Z</time>
      </trkpt>
      <trkpt lat="45.62278" lon="6.86009">
        <ele>1748</ele>
        <time>2021-05-27T11:47:16Z</time>
      </trkpt>
      <trkpt lat="45.62281" lon="6.86016">
        <ele>1747.8</ele>
        <time>2021-05-27T11:47:17Z</time>
      </trkpt>
      <trkpt lat="45.62283" lon="6.86022">
        <ele>1747.8</ele>
        <time>2021-05-27T11:47:18Z</time>
      </trkpt>
      <trkpt lat="45.62286" lon="6.86029">
        <ele>1748</ele>
        <time>2021-05-27T11:47:19Z</time>
      </trkpt>
      <trkpt lat="45.62289" lon="6.86035">
        <ele>1748.6</ele>
        <time>2021-05-27T11:47:20Z</time>
      </trkpt>
      <trkpt lat="45.62292" lon="6.86042">
        <ele>1748.6</ele>
        <time>2021-05-27T11:47:21Z</time>
      </trkpt>
      <trkpt lat="45.62295" lon="6.86048">
        <ele>1749</ele>
        <time>2021-05-27T11:47:22Z</time>
      </trkpt>
      <trkpt lat="45.62298" lon="6.86054">
        <ele>1749.6</ele>
        <time>2021-05-27T11:47:23Z</time>
      </trkpt>
      <trkpt lat="45.62302" lon="6.8606">
        <ele>1750.4</ele>
        <time>2021-05-27T11:47:24Z</time>
      </trkpt>
      <trkpt lat="45.62305" lon="6.86066">
        <ele>1751</ele>
        <time>2021-05-27T11:47:25Z</time>
      </trkpt>
      <trkpt lat="45.62308" lon="6.86072">
        <ele>1751.8</ele>
        <time>2021-05-27T11:47:26Z</time>
      </trkpt>
      <trkpt lat="45.62311" lon="6.86078">
        <ele>1752.8</ele>
        <time>2021-05-27T11:47:27Z</time>
      </trkpt>
      <trkpt lat="45.62314" lon="6.86085">
        <ele>1753.8</ele>
        <time>2021-05-27T11:47:28Z</time>
      </trkpt>
      <trkpt lat="45.62316" lon="6.86091">
        <ele>1754.4</ele>
        <time>2021-05-27T11:47:29Z</time>
      </trkpt>
      <trkpt lat="45.62319" lon="6.86098">
        <ele>1755.4</ele>
        <time>2021-05-27T11:47:30Z</time>
      </trkpt>
      <trkpt lat="45.62322" lon="6.86104">
        <ele>1756</ele>
        <time>2021-05-27T11:47:31Z</time>
      </trkpt>
      <trkpt lat="45.62324" lon="6.86111">
        <ele>1757</ele>
        <time>2021-05-27T11:47:32Z</time>
      </trkpt>
      <trkpt lat="45.62326" lon="6.86117">
        <ele>1757.4</ele>
        <time>2021-05-27T11:47:33Z</time>
      </trkpt>
      <trkpt lat="45.62328" lon="6.86124">
        <ele>1758</ele>
        <time>2021-05-27T11:47:34Z</time>
      </trkpt>
      <trkpt lat="45.6233" lon="6.86131">
        <ele>1758.8</ele>
        <time>2021-05-27T11:47:35Z</time>
      </trkpt>
      <trkpt lat="45.62332" lon="6.86139">
        <ele>1759.4</ele>
        <time>2021-05-27T11:47:36Z</time>
      </trkpt>
      <trkpt lat="45.62333" lon="6.86146">
        <ele>1759.8</ele>
        <time>2021-05-27T11:47:37Z</time>
      </trkpt>
      <trkpt lat="45.62334" lon="6.86153">
        <ele>1760.2</ele>
        <time>2021-05-27T11:47:38Z</time>
      </trkpt>
      <trkpt lat="45.62335" lon="6.86161">
        <ele>1760.8</ele>
        <time>2021-05-27T11:47:39Z</time>
      </trkpt>
      <trkpt lat="45.62336" lon="6.86168">
        <ele>1761.2</ele>
        <time>2021-05-27T11:47:40Z</time>
      </trkpt>
      <trkpt lat="45.62338" lon="6.86175">
        <ele>1761.8</ele>
        <time>2021-05-27T11:47:41Z</time>
      </trkpt>
      <trkpt lat="45.62339" lon="6.86182">
        <ele>1762.4</ele>
        <time>2021-05-27T11:47:42Z</time>
      </trkpt>
      <trkpt lat="45.6234" lon="6.8619">
        <ele>1762.4</ele>
        <time>2021-05-27T11:47:43Z</time>
      </trkpt>
      <trkpt lat="45.62341" lon="6.86197">
        <ele>1762.8</ele>
        <time>2021-05-27T11:47:44Z</time>
      </trkpt>
      <trkpt lat="45.62343" lon="6.86204">
        <ele>1763.4</ele>
        <time>2021-05-27T11:47:45Z</time>
      </trkpt>
      <trkpt lat="45.62344" lon="6.86211">
        <ele>1764</ele>
        <time>2021-05-27T11:47:46Z</time>
      </trkpt>
      <trkpt lat="45.62346" lon="6.86218">
        <ele>1764.2</ele>
        <time>2021-05-27T11:47:47Z</time>
      </trkpt>
      <trkpt lat="45.62347" lon="6.86225">
        <ele>1765</ele>
        <time>2021-05-27T11:47:48Z</time>
      </trkpt>
      <trkpt lat="45.62348" lon="6.86232">
        <ele>1765.6</ele>
        <time>2021-05-27T11:47:49Z</time>
      </trkpt>
      <trkpt lat="45.6235" lon="6.86239">
        <ele>1766</ele>
        <time>2021-05-27T11:47:50Z</time>
      </trkpt>
      <trkpt lat="45.62352" lon="6.86246">
        <ele>1766.4</ele>
        <time>2021-05-27T11:47:51Z</time>
      </trkpt>
      <trkpt lat="45.62354" lon="6.86253">
        <ele>1766.6</ele>
        <time>2021-05-27T11:47:52Z</time>
      </trkpt>
      <trkpt lat="45.62355" lon="6.8626">
        <ele>1767</ele>
        <time>2021-05-27T11:47:53Z</time>
      </trkpt>
      <trkpt lat="45.62356" lon="6.86267">
        <ele>1767.4</ele>
        <time>2021-05-27T11:47:54Z</time>
      </trkpt>
      <trkpt lat="45.62358" lon="6.86274">
        <ele>1768</ele>
        <time>2021-05-27T11:47:55Z</time>
      </trkpt>
      <trkpt lat="45.6236" lon="6.86281">
        <ele>1768.8</ele>
        <time>2021-05-27T11:47:56Z</time>
      </trkpt>
      <trkpt lat="45.62361" lon="6.86289">
        <ele>1769.4</ele>
        <time>2021-05-27T11:47:57Z</time>
      </trkpt>
      <trkpt lat="45.62362" lon="6.86296">
        <ele>1770</ele>
        <time>2021-05-27T11:47:58Z</time>
      </trkpt>
      <trkpt lat="45.62364" lon="6.86304">
        <ele>1770.2</ele>
        <time>2021-05-27T11:47:59Z</time>
      </trkpt>
      <trkpt lat="45.62365" lon="6.86311">
        <ele>1770.8</ele>
        <time>2021-05-27T11:48:00Z</time>
      </trkpt>
      <trkpt lat="45.62366" lon="6.86318">
        <ele>1771.4</ele>
        <time>2021-05-27T11:48:01Z</time>
      </trkpt>
      <trkpt lat="45.62367" lon="6.86326">
        <ele>1771.8</ele>
        <time>2021-05-27T11:48:02Z</time>
      </trkpt>
      <trkpt lat="45.62368" lon="6.86333">
        <ele>1772.6</ele>
        <time>2021-05-27T11:48:03Z</time>
      </trkpt>
      <trkpt lat="45.6237" lon="6.8634">
        <ele>1773</ele>
        <time>2021-05-27T11:48:04Z</time>
      </trkpt>
      <trkpt lat="45.62371" lon="6.86347">
        <ele>1773.6</ele>
        <time>2021-05-27T11:48:05Z</time>
      </trkpt>
      <trkpt lat="45.62372" lon="6.86354">
        <ele>1774.2</ele>
        <time>2021-05-27T11:48:06Z</time>
      </trkpt>
      <trkpt lat="45.62373" lon="6.86361">
        <ele>1774.8</ele>
        <time>2021-05-27T11:48:07Z</time>
      </trkpt>
      <trkpt lat="45.62374" lon="6.86368">
        <ele>1775.4</ele>
        <time>2021-05-27T11:48:08Z</time>
      </trkpt>
      <trkpt lat="45.62374" lon="6.86376">
        <ele>1776</ele>
        <time>2021-05-27T11:48:09Z</time>
      </trkpt>
      <trkpt lat="45.62376" lon="6.86383">
        <ele>1776.6</ele>
        <time>2021-05-27T11:48:10Z</time>
      </trkpt>
      <trkpt lat="45.62377" lon="6.8639">
        <ele>1777</ele>
        <time>2021-05-27T11:48:11Z</time>
      </trkpt>
      <trkpt lat="45.62378" lon="6.86397">
        <ele>1777</ele>
        <time>2021-05-27T11:48:12Z</time>
      </trkpt>
      <trkpt lat="45.62379" lon="6.86404">
        <ele>1777.4</ele>
        <time>2021-05-27T11:48:13Z</time>
      </trkpt>
      <trkpt lat="45.6238" lon="6.86411">
        <ele>1777.6</ele>
        <time>2021-05-27T11:48:14Z</time>
      </trkpt>
      <trkpt lat="45.62381" lon="6.86418">
        <ele>1777.8</ele>
        <time>2021-05-27T11:48:15Z</time>
      </trkpt>
      <trkpt lat="45.62382" lon="6.86425">
        <ele>1778.2</ele>
        <time>2021-05-27T11:48:16Z</time>
      </trkpt>
      <trkpt lat="45.62384" lon="6.86432">
        <ele>1778.4</ele>
        <time>2021-05-27T11:48:17Z</time>
      </trkpt>
      <trkpt lat="45.62385" lon="6.86438">
        <ele>1778.6</ele>
        <time>2021-05-27T11:48:18Z</time>
      </trkpt>
      <trkpt lat="45.62386" lon="6.86445">
        <ele>1778.8</ele>
        <time>2021-05-27T11:48:19Z</time>
      </trkpt>
      <trkpt lat="45.62387" lon="6.86452">
        <ele>1779.2</ele>
        <time>2021-05-27T11:48:20Z</time>
      </trkpt>
      <trkpt lat="45.62388" lon="6.86459">
        <ele>1779.6</ele>
        <time>2021-05-27T11:48:21Z</time>
      </trkpt>
      <trkpt lat="45.62389" lon="6.86466">
        <ele>1779.8</ele>
        <time>2021-05-27T11:48:22Z</time>
      </trkpt>
      <trkpt lat="45.6239" lon="6.86472">
        <ele>1780.2</ele>
        <time>2021-05-27T11:48:23Z</time>
      </trkpt>
      <trkpt lat="45.62392" lon="6.86479">
        <ele>1780.6</ele>
        <time>2021-05-27T11:48:24Z</time>
      </trkpt>
      <trkpt lat="45.62394" lon="6.86486">
        <ele>1780.8</ele>
        <time>2021-05-27T11:48:25Z</time>
      </trkpt>
      <trkpt lat="45.62395" lon="6.86492">
        <ele>1780.6</ele>
        <time>2021-05-27T11:48:26Z</time>
      </trkpt>
      <trkpt lat="45.62397" lon="6.86499">
        <ele>1781</ele>
        <time>2021-05-27T11:48:27Z</time>
      </trkpt>
      <trkpt lat="45.62399" lon="6.86506">
        <ele>1781.2</ele>
        <time>2021-05-27T11:48:28Z</time>
      </trkpt>
      <trkpt lat="45.62402" lon="6.86512">
        <ele>1781.6</ele>
        <time>2021-05-27T11:48:29Z</time>
      </trkpt>
      <trkpt lat="45.62405" lon="6.86517">
        <ele>1782</ele>
        <time>2021-05-27T11:48:30Z</time>
      </trkpt>
      <trkpt lat="45.6241" lon="6.86521">
        <ele>1782</ele>
        <time>2021-05-27T11:48:31Z</time>
      </trkpt>
      <trkpt lat="45.62414" lon="6.86522">
        <ele>1782</ele>
        <time>2021-05-27T11:48:32Z</time>
      </trkpt>
      <trkpt lat="45.62418" lon="6.86519">
        <ele>1781.8</ele>
        <time>2021-05-27T11:48:33Z</time>
      </trkpt>
      <trkpt lat="45.62421" lon="6.86514">
        <ele>1781.4</ele>
        <time>2021-05-27T11:48:34Z</time>
      </trkpt>
      <trkpt lat="45.62421" lon="6.86508">
        <ele>1781.4</ele>
        <time>2021-05-27T11:48:35Z</time>
      </trkpt>
      <trkpt lat="45.6242" lon="6.865">
        <ele>1781.8</ele>
        <time>2021-05-27T11:48:36Z</time>
      </trkpt>
      <trkpt lat="45.62418" lon="6.86494">
        <ele>1782</ele>
        <time>2021-05-27T11:48:37Z</time>
      </trkpt>
      <trkpt lat="45.62416" lon="6.86487">
        <ele>1782.6</ele>
        <time>2021-05-27T11:48:38Z</time>
      </trkpt>
      <trkpt lat="45.62413" lon="6.86479">
        <ele>1782.8</ele>
        <time>2021-05-27T11:48:39Z</time>
      </trkpt>
      <trkpt lat="45.6241" lon="6.86472">
        <ele>1783.4</ele>
        <time>2021-05-27T11:48:40Z</time>
      </trkpt>
      <trkpt lat="45.62408" lon="6.86464">
        <ele>1783.8</ele>
        <time>2021-05-27T11:48:41Z</time>
      </trkpt>
      <trkpt lat="45.62406" lon="6.86456">
        <ele>1784</ele>
        <time>2021-05-27T11:48:42Z</time>
      </trkpt>
      <trkpt lat="45.62405" lon="6.86448">
        <ele>1784.2</ele>
        <time>2021-05-27T11:48:43Z</time>
      </trkpt>
      <trkpt lat="45.62404" lon="6.8644">
        <ele>1784.8</ele>
        <time>2021-05-27T11:48:44Z</time>
      </trkpt>
      <trkpt lat="45.62404" lon="6.86433">
        <ele>1785.4</ele>
        <time>2021-05-27T11:48:45Z</time>
      </trkpt>
      <trkpt lat="45.62404" lon="6.86425">
        <ele>1786.2</ele>
        <time>2021-05-27T11:48:46Z</time>
      </trkpt>
      <trkpt lat="45.62404" lon="6.86417">
        <ele>1786.8</ele>
        <time>2021-05-27T11:48:47Z</time>
      </trkpt>
      <trkpt lat="45.62405" lon="6.86409">
        <ele>1787.4</ele>
        <time>2021-05-27T11:48:48Z</time>
      </trkpt>
      <trkpt lat="45.62405" lon="6.86401">
        <ele>1787.8</ele>
        <time>2021-05-27T11:48:49Z</time>
      </trkpt>
      <trkpt lat="45.62405" lon="6.86393">
        <ele>1788.4</ele>
        <time>2021-05-27T11:48:50Z</time>
      </trkpt>
      <trkpt lat="45.62406" lon="6.86385">
        <ele>1789.2</ele>
        <time>2021-05-27T11:48:51Z</time>
      </trkpt>
      <trkpt lat="45.62406" lon="6.86377">
        <ele>1789.8</ele>
        <time>2021-05-27T11:48:52Z</time>
      </trkpt>
      <trkpt lat="45.62407" lon="6.8637">
        <ele>1790.4</ele>
        <time>2021-05-27T11:48:53Z</time>
      </trkpt>
      <trkpt lat="45.62407" lon="6.86362">
        <ele>1791.2</ele>
        <time>2021-05-27T11:48:54Z</time>
      </trkpt>
      <trkpt lat="45.62408" lon="6.86354">
        <ele>1791.8</ele>
        <time>2021-05-27T11:48:55Z</time>
      </trkpt>
      <trkpt lat="45.62408" lon="6.86347">
        <ele>1792.2</ele>
        <time>2021-05-27T11:48:56Z</time>
      </trkpt>
      <trkpt lat="45.62409" lon="6.86339">
        <ele>1792.6</ele>
        <time>2021-05-27T11:48:57Z</time>
      </trkpt>
      <trkpt lat="45.6241" lon="6.86332">
        <ele>1793</ele>
        <time>2021-05-27T11:48:58Z</time>
      </trkpt>
      <trkpt lat="45.62412" lon="6.86324">
        <ele>1793.4</ele>
        <time>2021-05-27T11:48:59Z</time>
      </trkpt>
      <trkpt lat="45.62412" lon="6.86317">
        <ele>1794.2</ele>
        <time>2021-05-27T11:49:00Z</time>
      </trkpt>
      <trkpt lat="45.62413" lon="6.8631">
        <ele>1794.4</ele>
        <time>2021-05-27T11:49:01Z</time>
      </trkpt>
      <trkpt lat="45.62414" lon="6.86303">
        <ele>1794.8</ele>
        <time>2021-05-27T11:49:02Z</time>
      </trkpt>
      <trkpt lat="45.62414" lon="6.86295">
        <ele>1795.2</ele>
        <time>2021-05-27T11:49:03Z</time>
      </trkpt>
      <trkpt lat="45.62415" lon="6.86288">
        <ele>1795.4</ele>
        <time>2021-05-27T11:49:04Z</time>
      </trkpt>
      <trkpt lat="45.62415" lon="6.8628">
        <ele>1795.6</ele>
        <time>2021-05-27T11:49:05Z</time>
      </trkpt>
      <trkpt lat="45.62415" lon="6.86273">
        <ele>1796</ele>
        <time>2021-05-27T11:49:06Z</time>
      </trkpt>
      <trkpt lat="45.62416" lon="6.86265">
        <ele>1796.2</ele>
        <time>2021-05-27T11:49:07Z</time>
      </trkpt>
      <trkpt lat="45.62416" lon="6.86258">
        <ele>1796.6</ele>
        <time>2021-05-27T11:49:08Z</time>
      </trkpt>
      <trkpt lat="45.62416" lon="6.86251">
        <ele>1797</ele>
        <time>2021-05-27T11:49:09Z</time>
      </trkpt>
      <trkpt lat="45.62416" lon="6.86244">
        <ele>1797.4</ele>
        <time>2021-05-27T11:49:10Z</time>
      </trkpt>
      <trkpt lat="45.62416" lon="6.86237">
        <ele>1798.2</ele>
        <time>2021-05-27T11:49:11Z</time>
      </trkpt>
      <trkpt lat="45.62415" lon="6.86231">
        <ele>1798.4</ele>
        <time>2021-05-27T11:49:12Z</time>
      </trkpt>
      <trkpt lat="45.62415" lon="6.86224">
        <ele>1797.8</ele>
        <time>2021-05-27T11:49:13Z</time>
      </trkpt>
      <trkpt lat="45.62414" lon="6.86217">
        <ele>1796.4</ele>
        <time>2021-05-27T11:49:14Z</time>
      </trkpt>
      <trkpt lat="45.62413" lon="6.8621">
        <ele>1795.4</ele>
        <time>2021-05-27T11:49:15Z</time>
      </trkpt>
      <trkpt lat="45.62413" lon="6.86203">
        <ele>1794.2</ele>
        <time>2021-05-27T11:49:16Z</time>
      </trkpt>
      <trkpt lat="45.62412" lon="6.86196">
        <ele>1792.8</ele>
        <time>2021-05-27T11:49:17Z</time>
      </trkpt>
      <trkpt lat="45.62412" lon="6.86189">
        <ele>1791.4</ele>
        <time>2021-05-27T11:49:18Z</time>
      </trkpt>
      <trkpt lat="45.62411" lon="6.86182">
        <ele>1791</ele>
        <time>2021-05-27T11:49:19Z</time>
      </trkpt>
      <trkpt lat="45.62411" lon="6.86176">
        <ele>1790.6</ele>
        <time>2021-05-27T11:49:20Z</time>
      </trkpt>
      <trkpt lat="45.6241" lon="6.86169">
        <ele>1790.2</ele>
        <time>2021-05-27T11:49:21Z</time>
      </trkpt>
      <trkpt lat="45.6241" lon="6.86162">
        <ele>1790</ele>
        <time>2021-05-27T11:49:22Z</time>
      </trkpt>
      <trkpt lat="45.6241" lon="6.86155">
        <ele>1789.4</ele>
        <time>2021-05-27T11:49:23Z</time>
      </trkpt>
      <trkpt lat="45.6241" lon="6.86149">
        <ele>1788.8</ele>
        <time>2021-05-27T11:49:24Z</time>
      </trkpt>
      <trkpt lat="45.6241" lon="6.86142">
        <ele>1788.4</ele>
        <time>2021-05-27T11:49:25Z</time>
      </trkpt>
      <trkpt lat="45.6241" lon="6.86135">
        <ele>1788</ele>
        <time>2021-05-27T11:49:26Z</time>
      </trkpt>
      <trkpt lat="45.62409" lon="6.86129">
        <ele>1787.6</ele>
        <time>2021-05-27T11:49:27Z</time>
      </trkpt>
      <trkpt lat="45.62409" lon="6.86122">
        <ele>1787.2</ele>
        <time>2021-05-27T11:49:28Z</time>
      </trkpt>
      <trkpt lat="45.62408" lon="6.86115">
        <ele>1786.8</ele>
        <time>2021-05-27T11:49:29Z</time>
      </trkpt>
      <trkpt lat="45.62407" lon="6.86108">
        <ele>1786.2</ele>
        <time>2021-05-27T11:49:30Z</time>
      </trkpt>
      <trkpt lat="45.62406" lon="6.86102">
        <ele>1786</ele>
        <time>2021-05-27T11:49:31Z</time>
      </trkpt>
      <trkpt lat="45.62406" lon="6.86095">
        <ele>1786.2</ele>
        <time>2021-05-27T11:49:32Z</time>
      </trkpt>
      <trkpt lat="45.62405" lon="6.86088">
        <ele>1786</ele>
        <time>2021-05-27T11:49:33Z</time>
      </trkpt>
      <trkpt lat="45.62404" lon="6.8608">
        <ele>1786</ele>
        <time>2021-05-27T11:49:34Z</time>
      </trkpt>
      <trkpt lat="45.62404" lon="6.86073">
        <ele>1786</ele>
        <time>2021-05-27T11:49:35Z</time>
      </trkpt>
      <trkpt lat="45.62403" lon="6.86065">
        <ele>1786.6</ele>
        <time>2021-05-27T11:49:36Z</time>
      </trkpt>
      <trkpt lat="45.62402" lon="6.86058">
        <ele>1787.6</ele>
        <time>2021-05-27T11:49:37Z</time>
      </trkpt>
      <trkpt lat="45.62402" lon="6.8605">
        <ele>1788.8</ele>
        <time>2021-05-27T11:49:38Z</time>
      </trkpt>
      <trkpt lat="45.62402" lon="6.86042">
        <ele>1790</ele>
        <time>2021-05-27T11:49:39Z</time>
      </trkpt>
      <trkpt lat="45.62402" lon="6.86035">
        <ele>1791.4</ele>
        <time>2021-05-27T11:49:40Z</time>
      </trkpt>
      <trkpt lat="45.62402" lon="6.86027">
        <ele>1792.6</ele>
        <time>2021-05-27T11:49:41Z</time>
      </trkpt>
      <trkpt lat="45.62402" lon="6.8602">
        <ele>1793.8</ele>
        <time>2021-05-27T11:49:42Z</time>
      </trkpt>
      <trkpt lat="45.62402" lon="6.86013">
        <ele>1795.2</ele>
        <time>2021-05-27T11:49:43Z</time>
      </trkpt>
      <trkpt lat="45.62402" lon="6.86005">
        <ele>1796</ele>
        <time>2021-05-27T11:49:44Z</time>
      </trkpt>
      <trkpt lat="45.62402" lon="6.85998">
        <ele>1797</ele>
        <time>2021-05-27T11:49:45Z</time>
      </trkpt>
      <trkpt lat="45.62402" lon="6.85991">
        <ele>1798</ele>
        <time>2021-05-27T11:49:46Z</time>
      </trkpt>
      <trkpt lat="45.62402" lon="6.85983">
        <ele>1799.2</ele>
        <time>2021-05-27T11:49:47Z</time>
      </trkpt>
      <trkpt lat="45.62402" lon="6.85976">
        <ele>1800.2</ele>
        <time>2021-05-27T11:49:48Z</time>
      </trkpt>
      <trkpt lat="45.62402" lon="6.85969">
        <ele>1801.2</ele>
        <time>2021-05-27T11:49:49Z</time>
      </trkpt>
      <trkpt lat="45.62402" lon="6.85962">
        <ele>1802</ele>
        <time>2021-05-27T11:49:50Z</time>
      </trkpt>
      <trkpt lat="45.62402" lon="6.85954">
        <ele>1802.8</ele>
        <time>2021-05-27T11:49:51Z</time>
      </trkpt>
      <trkpt lat="45.62402" lon="6.85947">
        <ele>1803.4</ele>
        <time>2021-05-27T11:49:52Z</time>
      </trkpt>
      <trkpt lat="45.62402" lon="6.8594">
        <ele>1804.2</ele>
        <time>2021-05-27T11:49:53Z</time>
      </trkpt>
      <trkpt lat="45.62402" lon="6.85933">
        <ele>1804.8</ele>
        <time>2021-05-27T11:49:54Z</time>
      </trkpt>
      <trkpt lat="45.62402" lon="6.85926">
        <ele>1805.6</ele>
        <time>2021-05-27T11:49:55Z</time>
      </trkpt>
      <trkpt lat="45.62402" lon="6.85919">
        <ele>1806.2</ele>
        <time>2021-05-27T11:49:56Z</time>
      </trkpt>
      <trkpt lat="45.62402" lon="6.85912">
        <ele>1807</ele>
        <time>2021-05-27T11:49:57Z</time>
      </trkpt>
      <trkpt lat="45.62403" lon="6.85905">
        <ele>1807.6</ele>
        <time>2021-05-27T11:49:58Z</time>
      </trkpt>
      <trkpt lat="45.62403" lon="6.85898">
        <ele>1808.2</ele>
        <time>2021-05-27T11:49:59Z</time>
      </trkpt>
      <trkpt lat="45.62403" lon="6.85891">
        <ele>1808.2</ele>
        <time>2021-05-27T11:50:00Z</time>
      </trkpt>
      <trkpt lat="45.62403" lon="6.85884">
        <ele>1809.2</ele>
        <time>2021-05-27T11:50:01Z</time>
      </trkpt>
      <trkpt lat="45.62403" lon="6.85877">
        <ele>1809.6</ele>
        <time>2021-05-27T11:50:02Z</time>
      </trkpt>
      <trkpt lat="45.62403" lon="6.85869">
        <ele>1810</ele>
        <time>2021-05-27T11:50:03Z</time>
      </trkpt>
      <trkpt lat="45.62403" lon="6.85862">
        <ele>1810.4</ele>
        <time>2021-05-27T11:50:04Z</time>
      </trkpt>
      <trkpt lat="45.62404" lon="6.85855">
        <ele>1811</ele>
        <time>2021-05-27T11:50:05Z</time>
      </trkpt>
      <trkpt lat="45.62404" lon="6.85848">
        <ele>1811.6</ele>
        <time>2021-05-27T11:50:06Z</time>
      </trkpt>
      <trkpt lat="45.62404" lon="6.8584">
        <ele>1812</ele>
        <time>2021-05-27T11:50:07Z</time>
      </trkpt>
      <trkpt lat="45.62406" lon="6.85833">
        <ele>1812.2</ele>
        <time>2021-05-27T11:50:08Z</time>
      </trkpt>
      <trkpt lat="45.62408" lon="6.85827">
        <ele>1812.6</ele>
        <time>2021-05-27T11:50:09Z</time>
      </trkpt>
      <trkpt lat="45.62411" lon="6.85822">
        <ele>1813.2</ele>
        <time>2021-05-27T11:50:10Z</time>
      </trkpt>
      <trkpt lat="45.62414" lon="6.85817">
        <ele>1813.2</ele>
        <time>2021-05-27T11:50:11Z</time>
      </trkpt>
      <trkpt lat="45.62417" lon="6.85812">
        <ele>1813</ele>
        <time>2021-05-27T11:50:12Z</time>
      </trkpt>
      <trkpt lat="45.62418" lon="6.85805">
        <ele>1813.2</ele>
        <time>2021-05-27T11:50:13Z</time>
      </trkpt>
      <trkpt lat="45.62419" lon="6.85798">
        <ele>1813.2</ele>
        <time>2021-05-27T11:50:14Z</time>
      </trkpt>
      <trkpt lat="45.6242" lon="6.85792">
        <ele>1813.6</ele>
        <time>2021-05-27T11:50:15Z</time>
      </trkpt>
      <trkpt lat="45.62421" lon="6.85785">
        <ele>1814.2</ele>
        <time>2021-05-27T11:50:16Z</time>
      </trkpt>
      <trkpt lat="45.62422" lon="6.85778">
        <ele>1814.2</ele>
        <time>2021-05-27T11:50:17Z</time>
      </trkpt>
      <trkpt lat="45.62423" lon="6.85771">
        <ele>1814.6</ele>
        <time>2021-05-27T11:50:18Z</time>
      </trkpt>
      <trkpt lat="45.62425" lon="6.85765">
        <ele>1815</ele>
        <time>2021-05-27T11:50:19Z</time>
      </trkpt>
      <trkpt lat="45.62428" lon="6.8576">
        <ele>1815.4</ele>
        <time>2021-05-27T11:50:20Z</time>
      </trkpt>
      <trkpt lat="45.6243" lon="6.85754">
        <ele>1815</ele>
        <time>2021-05-27T11:50:21Z</time>
      </trkpt>
      <trkpt lat="45.62433" lon="6.85749">
        <ele>1815.6</ele>
        <time>2021-05-27T11:50:22Z</time>
      </trkpt>
      <trkpt lat="45.62436" lon="6.85744">
        <ele>1816</ele>
        <time>2021-05-27T11:50:23Z</time>
      </trkpt>
      <trkpt lat="45.62439" lon="6.85739">
        <ele>1816.2</ele>
        <time>2021-05-27T11:50:24Z</time>
      </trkpt>
      <trkpt lat="45.62442" lon="6.85735">
        <ele>1816.8</ele>
        <time>2021-05-27T11:50:25Z</time>
      </trkpt>
      <trkpt lat="45.62446" lon="6.85731">
        <ele>1816.8</ele>
        <time>2021-05-27T11:50:26Z</time>
      </trkpt>
      <trkpt lat="45.62449" lon="6.85727">
        <ele>1817.6</ele>
        <time>2021-05-27T11:50:27Z</time>
      </trkpt>
      <trkpt lat="45.62452" lon="6.85723">
        <ele>1818.4</ele>
        <time>2021-05-27T11:50:28Z</time>
      </trkpt>
      <trkpt lat="45.62456" lon="6.85719">
        <ele>1819</ele>
        <time>2021-05-27T11:50:29Z</time>
      </trkpt>
      <trkpt lat="45.62459" lon="6.85714">
        <ele>1819.2</ele>
        <time>2021-05-27T11:50:30Z</time>
      </trkpt>
      <trkpt lat="45.62463" lon="6.8571">
        <ele>1819.6</ele>
        <time>2021-05-27T11:50:31Z</time>
      </trkpt>
      <trkpt lat="45.62467" lon="6.85705">
        <ele>1820</ele>
        <time>2021-05-27T11:50:32Z</time>
      </trkpt>
      <trkpt lat="45.6247" lon="6.85701">
        <ele>1820.6</ele>
        <time>2021-05-27T11:50:33Z</time>
      </trkpt>
      <trkpt lat="45.62474" lon="6.85697">
        <ele>1820.8</ele>
        <time>2021-05-27T11:50:34Z</time>
      </trkpt>
      <trkpt lat="45.62477" lon="6.85693">
        <ele>1821.6</ele>
        <time>2021-05-27T11:50:35Z</time>
      </trkpt>
      <trkpt lat="45.62481" lon="6.85688">
        <ele>1822.2</ele>
        <time>2021-05-27T11:50:36Z</time>
      </trkpt>
      <trkpt lat="45.62484" lon="6.85683">
        <ele>1822.6</ele>
        <time>2021-05-27T11:50:37Z</time>
      </trkpt>
      <trkpt lat="45.62487" lon="6.85678">
        <ele>1823</ele>
        <time>2021-05-27T11:50:38Z</time>
      </trkpt>
      <trkpt lat="45.6249" lon="6.85674">
        <ele>1823.2</ele>
        <time>2021-05-27T11:50:39Z</time>
      </trkpt>
      <trkpt lat="45.62493" lon="6.85668">
        <ele>1823.2</ele>
        <time>2021-05-27T11:50:40Z</time>
      </trkpt>
      <trkpt lat="45.62496" lon="6.85662">
        <ele>1823.6</ele>
        <time>2021-05-27T11:50:41Z</time>
      </trkpt>
      <trkpt lat="45.62499" lon="6.85657">
        <ele>1823.4</ele>
        <time>2021-05-27T11:50:42Z</time>
      </trkpt>
      <trkpt lat="45.62501" lon="6.85651">
        <ele>1823.6</ele>
        <time>2021-05-27T11:50:43Z</time>
      </trkpt>
      <trkpt lat="45.62504" lon="6.85646">
        <ele>1823.8</ele>
        <time>2021-05-27T11:50:44Z</time>
      </trkpt>
      <trkpt lat="45.62507" lon="6.8564">
        <ele>1824</ele>
        <time>2021-05-27T11:50:45Z</time>
      </trkpt>
      <trkpt lat="45.62509" lon="6.85635">
        <ele>1824.2</ele>
        <time>2021-05-27T11:50:46Z</time>
      </trkpt>
      <trkpt lat="45.62512" lon="6.85629">
        <ele>1824.4</ele>
        <time>2021-05-27T11:50:47Z</time>
      </trkpt>
      <trkpt lat="45.62515" lon="6.85623">
        <ele>1824.6</ele>
        <time>2021-05-27T11:50:48Z</time>
      </trkpt>
      <trkpt lat="45.62517" lon="6.85617">
        <ele>1824.8</ele>
        <time>2021-05-27T11:50:49Z</time>
      </trkpt>
      <trkpt lat="45.62519" lon="6.85611">
        <ele>1824.8</ele>
        <time>2021-05-27T11:50:50Z</time>
      </trkpt>
      <trkpt lat="45.62522" lon="6.85605">
        <ele>1825.2</ele>
        <time>2021-05-27T11:50:51Z</time>
      </trkpt>
      <trkpt lat="45.62525" lon="6.85599">
        <ele>1825.4</ele>
        <time>2021-05-27T11:50:52Z</time>
      </trkpt>
      <trkpt lat="45.62527" lon="6.85593">
        <ele>1825.6</ele>
        <time>2021-05-27T11:50:53Z</time>
      </trkpt>
      <trkpt lat="45.6253" lon="6.85587">
        <ele>1825.4</ele>
        <time>2021-05-27T11:50:54Z</time>
      </trkpt>
      <trkpt lat="45.62532" lon="6.85581">
        <ele>1825.4</ele>
        <time>2021-05-27T11:50:55Z</time>
      </trkpt>
      <trkpt lat="45.62535" lon="6.85575">
        <ele>1824.8</ele>
        <time>2021-05-27T11:50:56Z</time>
      </trkpt>
      <trkpt lat="45.62537" lon="6.85569">
        <ele>1824.4</ele>
        <time>2021-05-27T11:50:57Z</time>
      </trkpt>
      <trkpt lat="45.6254" lon="6.85563">
        <ele>1824.4</ele>
        <time>2021-05-27T11:50:58Z</time>
      </trkpt>
      <trkpt lat="45.62542" lon="6.85558">
        <ele>1824.4</ele>
        <time>2021-05-27T11:50:59Z</time>
      </trkpt>
      <trkpt lat="45.62545" lon="6.85552">
        <ele>1824.4</ele>
        <time>2021-05-27T11:51:00Z</time>
      </trkpt>
      <trkpt lat="45.62548" lon="6.85547">
        <ele>1824.4</ele>
        <time>2021-05-27T11:51:01Z</time>
      </trkpt>
      <trkpt lat="45.62551" lon="6.85542">
        <ele>1824.6</ele>
        <time>2021-05-27T11:51:02Z</time>
      </trkpt>
      <trkpt lat="45.62554" lon="6.85536">
        <ele>1824.4</ele>
        <time>2021-05-27T11:51:03Z</time>
      </trkpt>
      <trkpt lat="45.62557" lon="6.85532">
        <ele>1824.2</ele>
        <time>2021-05-27T11:51:04Z</time>
      </trkpt>
      <trkpt lat="45.62559" lon="6.85526">
        <ele>1824.4</ele>
        <time>2021-05-27T11:51:05Z</time>
      </trkpt>
      <trkpt lat="45.62561" lon="6.8552">
        <ele>1824.4</ele>
        <time>2021-05-27T11:51:06Z</time>
      </trkpt>
      <trkpt lat="45.62563" lon="6.85514">
        <ele>1824.8</ele>
        <time>2021-05-27T11:51:07Z</time>
      </trkpt>
      <trkpt lat="45.62564" lon="6.85507">
        <ele>1825.2</ele>
        <time>2021-05-27T11:51:08Z</time>
      </trkpt>
      <trkpt lat="45.62565" lon="6.855">
        <ele>1825.2</ele>
        <time>2021-05-27T11:51:09Z</time>
      </trkpt>
      <trkpt lat="45.62566" lon="6.85493">
        <ele>1825.4</ele>
        <time>2021-05-27T11:51:10Z</time>
      </trkpt>
      <trkpt lat="45.62567" lon="6.85486">
        <ele>1825.4</ele>
        <time>2021-05-27T11:51:11Z</time>
      </trkpt>
      <trkpt lat="45.62568" lon="6.85479">
        <ele>1825.4</ele>
        <time>2021-05-27T11:51:12Z</time>
      </trkpt>
      <trkpt lat="45.62568" lon="6.85472">
        <ele>1824.8</ele>
        <time>2021-05-27T11:51:13Z</time>
      </trkpt>
      <trkpt lat="45.62569" lon="6.85465">
        <ele>1825</ele>
        <time>2021-05-27T11:51:14Z</time>
      </trkpt>
      <trkpt lat="45.62569" lon="6.85458">
        <ele>1825.4</ele>
        <time>2021-05-27T11:51:15Z</time>
      </trkpt>
      <trkpt lat="45.62569" lon="6.85451">
        <ele>1825.6</ele>
        <time>2021-05-27T11:51:16Z</time>
      </trkpt>
      <trkpt lat="45.62569" lon="6.85444">
        <ele>1825.4</ele>
        <time>2021-05-27T11:51:17Z</time>
      </trkpt>
      <trkpt lat="45.62569" lon="6.85437">
        <ele>1825.2</ele>
        <time>2021-05-27T11:51:18Z</time>
      </trkpt>
      <trkpt lat="45.6257" lon="6.8543">
        <ele>1825.2</ele>
        <time>2021-05-27T11:51:19Z</time>
      </trkpt>
      <trkpt lat="45.62571" lon="6.85423">
        <ele>1824.8</ele>
        <time>2021-05-27T11:51:20Z</time>
      </trkpt>
      <trkpt lat="45.62572" lon="6.85416">
        <ele>1824.8</ele>
        <time>2021-05-27T11:51:21Z</time>
      </trkpt>
      <trkpt lat="45.62572" lon="6.8541">
        <ele>1825.2</ele>
        <time>2021-05-27T11:51:22Z</time>
      </trkpt>
      <trkpt lat="45.62574" lon="6.85404">
        <ele>1825.6</ele>
        <time>2021-05-27T11:51:23Z</time>
      </trkpt>
      <trkpt lat="45.62575" lon="6.85397">
        <ele>1825.8</ele>
        <time>2021-05-27T11:51:24Z</time>
      </trkpt>
      <trkpt lat="45.62576" lon="6.85391">
        <ele>1826.6</ele>
        <time>2021-05-27T11:51:25Z</time>
      </trkpt>
      <trkpt lat="45.62576" lon="6.85384">
        <ele>1827</ele>
        <time>2021-05-27T11:51:26Z</time>
      </trkpt>
      <trkpt lat="45.62577" lon="6.85377">
        <ele>1827.4</ele>
        <time>2021-05-27T11:51:27Z</time>
      </trkpt>
      <trkpt lat="45.62578" lon="6.8537">
        <ele>1827.6</ele>
        <time>2021-05-27T11:51:28Z</time>
      </trkpt>
      <trkpt lat="45.62578" lon="6.85363">
        <ele>1827.8</ele>
        <time>2021-05-27T11:51:29Z</time>
      </trkpt>
      <trkpt lat="45.62578" lon="6.85356">
        <ele>1828.2</ele>
        <time>2021-05-27T11:51:30Z</time>
      </trkpt>
      <trkpt lat="45.62579" lon="6.8535">
        <ele>1828.2</ele>
        <time>2021-05-27T11:51:31Z</time>
      </trkpt>
      <trkpt lat="45.62579" lon="6.85343">
        <ele>1828.6</ele>
        <time>2021-05-27T11:51:32Z</time>
      </trkpt>
      <trkpt lat="45.62579" lon="6.85336">
        <ele>1828.8</ele>
        <time>2021-05-27T11:51:33Z</time>
      </trkpt>
      <trkpt lat="45.62579" lon="6.85329">
        <ele>1829.2</ele>
        <time>2021-05-27T11:51:34Z</time>
      </trkpt>
      <trkpt lat="45.6258" lon="6.85323">
        <ele>1829.6</ele>
        <time>2021-05-27T11:51:35Z</time>
      </trkpt>
      <trkpt lat="45.6258" lon="6.85316">
        <ele>1829.8</ele>
        <time>2021-05-27T11:51:36Z</time>
      </trkpt>
      <trkpt lat="45.6258" lon="6.8531">
        <ele>1830.4</ele>
        <time>2021-05-27T11:51:37Z</time>
      </trkpt>
      <trkpt lat="45.6258" lon="6.85303">
        <ele>1830.6</ele>
        <time>2021-05-27T11:51:38Z</time>
      </trkpt>
      <trkpt lat="45.62581" lon="6.85297">
        <ele>1831</ele>
        <time>2021-05-27T11:51:39Z</time>
      </trkpt>
      <trkpt lat="45.62581" lon="6.8529">
        <ele>1831.2</ele>
        <time>2021-05-27T11:51:40Z</time>
      </trkpt>
      <trkpt lat="45.62582" lon="6.85284">
        <ele>1831.4</ele>
        <time>2021-05-27T11:51:41Z</time>
      </trkpt>
      <trkpt lat="45.62582" lon="6.85277">
        <ele>1831.6</ele>
        <time>2021-05-27T11:51:42Z</time>
      </trkpt>
      <trkpt lat="45.62582" lon="6.85271">
        <ele>1831.6</ele>
        <time>2021-05-27T11:51:43Z</time>
      </trkpt>
      <trkpt lat="45.62582" lon="6.85265">
        <ele>1831.8</ele>
        <time>2021-05-27T11:51:44Z</time>
      </trkpt>
      <trkpt lat="45.62583" lon="6.85258">
        <ele>1832</ele>
        <time>2021-05-27T11:51:45Z</time>
      </trkpt>
      <trkpt lat="45.62584" lon="6.85252">
        <ele>1832.2</ele>
        <time>2021-05-27T11:51:46Z</time>
      </trkpt>
      <trkpt lat="45.62584" lon="6.85246">
        <ele>1832.2</ele>
        <time>2021-05-27T11:51:47Z</time>
      </trkpt>
      <trkpt lat="45.62585" lon="6.85239">
        <ele>1832.6</ele>
        <time>2021-05-27T11:51:48Z</time>
      </trkpt>
      <trkpt lat="45.62586" lon="6.85233">
        <ele>1832.6</ele>
        <time>2021-05-27T11:51:49Z</time>
      </trkpt>
      <trkpt lat="45.62587" lon="6.85226">
        <ele>1833</ele>
        <time>2021-05-27T11:51:50Z</time>
      </trkpt>
      <trkpt lat="45.62588" lon="6.8522">
        <ele>1833</ele>
        <time>2021-05-27T11:51:51Z</time>
      </trkpt>
      <trkpt lat="45.6259" lon="6.85214">
        <ele>1833</ele>
        <time>2021-05-27T11:51:52Z</time>
      </trkpt>
      <trkpt lat="45.62592" lon="6.85208">
        <ele>1833</ele>
        <time>2021-05-27T11:51:53Z</time>
      </trkpt>
      <trkpt lat="45.62594" lon="6.85202">
        <ele>1833.4</ele>
        <time>2021-05-27T11:51:54Z</time>
      </trkpt>
      <trkpt lat="45.62596" lon="6.85195">
        <ele>1833.8</ele>
        <time>2021-05-27T11:51:55Z</time>
      </trkpt>
      <trkpt lat="45.62598" lon="6.85189">
        <ele>1834.2</ele>
        <time>2021-05-27T11:51:56Z</time>
      </trkpt>
      <trkpt lat="45.626" lon="6.85182">
        <ele>1834.6</ele>
        <time>2021-05-27T11:51:57Z</time>
      </trkpt>
      <trkpt lat="45.62602" lon="6.85176">
        <ele>1835.2</ele>
        <time>2021-05-27T11:51:58Z</time>
      </trkpt>
      <trkpt lat="45.62604" lon="6.85169">
        <ele>1835.8</ele>
        <time>2021-05-27T11:51:59Z</time>
      </trkpt>
      <trkpt lat="45.62605" lon="6.85163">
        <ele>1836.8</ele>
        <time>2021-05-27T11:52:00Z</time>
      </trkpt>
      <trkpt lat="45.62607" lon="6.85157">
        <ele>1837.6</ele>
        <time>2021-05-27T11:52:01Z</time>
      </trkpt>
      <trkpt lat="45.62609" lon="6.8515">
        <ele>1838</ele>
        <time>2021-05-27T11:52:02Z</time>
      </trkpt>
      <trkpt lat="45.62612" lon="6.85144">
        <ele>1838.4</ele>
        <time>2021-05-27T11:52:03Z</time>
      </trkpt>
      <trkpt lat="45.62613" lon="6.85138">
        <ele>1839.2</ele>
        <time>2021-05-27T11:52:04Z</time>
      </trkpt>
      <trkpt lat="45.62616" lon="6.85132">
        <ele>1840</ele>
        <time>2021-05-27T11:52:05Z</time>
      </trkpt>
      <trkpt lat="45.62619" lon="6.85126">
        <ele>1840.4</ele>
        <time>2021-05-27T11:52:06Z</time>
      </trkpt>
      <trkpt lat="45.62622" lon="6.8512">
        <ele>1841.2</ele>
        <time>2021-05-27T11:52:07Z</time>
      </trkpt>
      <trkpt lat="45.62625" lon="6.85114">
        <ele>1841.4</ele>
        <time>2021-05-27T11:52:08Z</time>
      </trkpt>
      <trkpt lat="45.62628" lon="6.85108">
        <ele>1842.6</ele>
        <time>2021-05-27T11:52:09Z</time>
      </trkpt>
      <trkpt lat="45.62632" lon="6.85102">
        <ele>1843.2</ele>
        <time>2021-05-27T11:52:10Z</time>
      </trkpt>
      <trkpt lat="45.62635" lon="6.85097">
        <ele>1844.2</ele>
        <time>2021-05-27T11:52:11Z</time>
      </trkpt>
      <trkpt lat="45.62639" lon="6.85092">
        <ele>1844.4</ele>
        <time>2021-05-27T11:52:12Z</time>
      </trkpt>
      <trkpt lat="45.62643" lon="6.85088">
        <ele>1845.2</ele>
        <time>2021-05-27T11:52:13Z</time>
      </trkpt>
      <trkpt lat="45.62647" lon="6.85084">
        <ele>1845.4</ele>
        <time>2021-05-27T11:52:14Z</time>
      </trkpt>
      <trkpt lat="45.62652" lon="6.85079">
        <ele>1845.8</ele>
        <time>2021-05-27T11:52:15Z</time>
      </trkpt>
      <trkpt lat="45.62655" lon="6.85075">
        <ele>1846.6</ele>
        <time>2021-05-27T11:52:16Z</time>
      </trkpt>
      <trkpt lat="45.62659" lon="6.85069">
        <ele>1847</ele>
        <time>2021-05-27T11:52:17Z</time>
      </trkpt>
      <trkpt lat="45.62663" lon="6.85063">
        <ele>1847.6</ele>
        <time>2021-05-27T11:52:18Z</time>
      </trkpt>
      <trkpt lat="45.62666" lon="6.85056">
        <ele>1847.8</ele>
        <time>2021-05-27T11:52:19Z</time>
      </trkpt>
      <trkpt lat="45.62668" lon="6.85049">
        <ele>1848</ele>
        <time>2021-05-27T11:52:20Z</time>
      </trkpt>
      <trkpt lat="45.62671" lon="6.85043">
        <ele>1848.4</ele>
        <time>2021-05-27T11:52:21Z</time>
      </trkpt>
      <trkpt lat="45.62674" lon="6.85036">
        <ele>1848.4</ele>
        <time>2021-05-27T11:52:22Z</time>
      </trkpt>
      <trkpt lat="45.62676" lon="6.85029">
        <ele>1849</ele>
        <time>2021-05-27T11:52:23Z</time>
      </trkpt>
      <trkpt lat="45.62678" lon="6.85023">
        <ele>1849</ele>
        <time>2021-05-27T11:52:24Z</time>
      </trkpt>
      <trkpt lat="45.62681" lon="6.85016">
        <ele>1848.8</ele>
        <time>2021-05-27T11:52:25Z</time>
      </trkpt>
      <trkpt lat="45.62684" lon="6.8501">
        <ele>1849.2</ele>
        <time>2021-05-27T11:52:26Z</time>
      </trkpt>
      <trkpt lat="45.62686" lon="6.85004">
        <ele>1849</ele>
        <time>2021-05-27T11:52:27Z</time>
      </trkpt>
      <trkpt lat="45.62689" lon="6.84998">
        <ele>1848.6</ele>
        <time>2021-05-27T11:52:28Z</time>
      </trkpt>
      <trkpt lat="45.62692" lon="6.84993">
        <ele>1848.2</ele>
        <time>2021-05-27T11:52:29Z</time>
      </trkpt>
      <trkpt lat="45.62695" lon="6.84988">
        <ele>1848.2</ele>
        <time>2021-05-27T11:52:30Z</time>
      </trkpt>
      <trkpt lat="45.62698" lon="6.84983">
        <ele>1848.4</ele>
        <time>2021-05-27T11:52:31Z</time>
      </trkpt>
      <trkpt lat="45.62702" lon="6.84979">
        <ele>1848.8</ele>
        <time>2021-05-27T11:52:32Z</time>
      </trkpt>
      <trkpt lat="45.62706" lon="6.84974">
        <ele>1848.6</ele>
        <time>2021-05-27T11:52:33Z</time>
      </trkpt>
      <trkpt lat="45.62711" lon="6.8497">
        <ele>1848.2</ele>
        <time>2021-05-27T11:52:34Z</time>
      </trkpt>
      <trkpt lat="45.62715" lon="6.84967">
        <ele>1848</ele>
        <time>2021-05-27T11:52:35Z</time>
      </trkpt>
      <trkpt lat="45.62719" lon="6.84965">
        <ele>1847.8</ele>
        <time>2021-05-27T11:52:36Z</time>
      </trkpt>
      <trkpt lat="45.62723" lon="6.84962">
        <ele>1848</ele>
        <time>2021-05-27T11:52:37Z</time>
      </trkpt>
      <trkpt lat="45.62727" lon="6.84959">
        <ele>1848.2</ele>
        <time>2021-05-27T11:52:38Z</time>
      </trkpt>
      <trkpt lat="45.62731" lon="6.84956">
        <ele>1848.2</ele>
        <time>2021-05-27T11:52:39Z</time>
      </trkpt>
      <trkpt lat="45.62734" lon="6.84952">
        <ele>1848.6</ele>
        <time>2021-05-27T11:52:40Z</time>
      </trkpt>
      <trkpt lat="45.62737" lon="6.84947">
        <ele>1848.8</ele>
        <time>2021-05-27T11:52:41Z</time>
      </trkpt>
      <trkpt lat="45.6274" lon="6.84942">
        <ele>1849</ele>
        <time>2021-05-27T11:52:42Z</time>
      </trkpt>
      <trkpt lat="45.62743" lon="6.84938">
        <ele>1849.2</ele>
        <time>2021-05-27T11:52:43Z</time>
      </trkpt>
      <trkpt lat="45.62745" lon="6.84934">
        <ele>1849.6</ele>
        <time>2021-05-27T11:52:44Z</time>
      </trkpt>
      <trkpt lat="45.62748" lon="6.8493">
        <ele>1850.2</ele>
        <time>2021-05-27T11:52:45Z</time>
      </trkpt>
      <trkpt lat="45.6275" lon="6.84925">
        <ele>1850.2</ele>
        <time>2021-05-27T11:52:46Z</time>
      </trkpt>
      <trkpt lat="45.62753" lon="6.84921">
        <ele>1850.2</ele>
        <time>2021-05-27T11:52:47Z</time>
      </trkpt>
      <trkpt lat="45.62755" lon="6.84916">
        <ele>1850.2</ele>
        <time>2021-05-27T11:52:48Z</time>
      </trkpt>
      <trkpt lat="45.62758" lon="6.84912">
        <ele>1849.8</ele>
        <time>2021-05-27T11:52:49Z</time>
      </trkpt>
      <trkpt lat="45.62761" lon="6.84907">
        <ele>1850</ele>
        <time>2021-05-27T11:52:50Z</time>
      </trkpt>
      <trkpt lat="45.62763" lon="6.84901">
        <ele>1850</ele>
        <time>2021-05-27T11:52:51Z</time>
      </trkpt>
      <trkpt lat="45.62765" lon="6.84897">
        <ele>1850.6</ele>
        <time>2021-05-27T11:52:52Z</time>
      </trkpt>
      <trkpt lat="45.62768" lon="6.84892">
        <ele>1850.4</ele>
        <time>2021-05-27T11:52:53Z</time>
      </trkpt>
      <trkpt lat="45.62771" lon="6.84888">
        <ele>1850.8</ele>
        <time>2021-05-27T11:52:54Z</time>
      </trkpt>
      <trkpt lat="45.62773" lon="6.84884">
        <ele>1851.2</ele>
        <time>2021-05-27T11:52:55Z</time>
      </trkpt>
      <trkpt lat="45.62777" lon="6.8488">
        <ele>1851.6</ele>
        <time>2021-05-27T11:52:56Z</time>
      </trkpt>
      <trkpt lat="45.6278" lon="6.84877">
        <ele>1852</ele>
        <time>2021-05-27T11:52:57Z</time>
      </trkpt>
      <trkpt lat="45.62783" lon="6.84873">
        <ele>1852.8</ele>
        <time>2021-05-27T11:52:58Z</time>
      </trkpt>
      <trkpt lat="45.62786" lon="6.84869">
        <ele>1853.2</ele>
        <time>2021-05-27T11:52:59Z</time>
      </trkpt>
      <trkpt lat="45.62789" lon="6.84865">
        <ele>1853.6</ele>
        <time>2021-05-27T11:53:00Z</time>
      </trkpt>
      <trkpt lat="45.62793" lon="6.84863">
        <ele>1854</ele>
        <time>2021-05-27T11:53:01Z</time>
      </trkpt>
      <trkpt lat="45.62796" lon="6.8486">
        <ele>1854.4</ele>
        <time>2021-05-27T11:53:02Z</time>
      </trkpt>
      <trkpt lat="45.62801" lon="6.84858">
        <ele>1855</ele>
        <time>2021-05-27T11:53:03Z</time>
      </trkpt>
      <trkpt lat="45.62804" lon="6.84856">
        <ele>1855.2</ele>
        <time>2021-05-27T11:53:04Z</time>
      </trkpt>
      <trkpt lat="45.62807" lon="6.84853">
        <ele>1855.8</ele>
        <time>2021-05-27T11:53:05Z</time>
      </trkpt>
      <trkpt lat="45.62811" lon="6.84852">
        <ele>1856</ele>
        <time>2021-05-27T11:53:06Z</time>
      </trkpt>
      <trkpt lat="45.62815" lon="6.84849">
        <ele>1856.2</ele>
        <time>2021-05-27T11:53:07Z</time>
      </trkpt>
      <trkpt lat="45.62819" lon="6.84847">
        <ele>1855.6</ele>
        <time>2021-05-27T11:53:08Z</time>
      </trkpt>
      <trkpt lat="45.62823" lon="6.84846">
        <ele>1856.4</ele>
        <time>2021-05-27T11:53:09Z</time>
      </trkpt>
      <trkpt lat="45.62827" lon="6.84844">
        <ele>1857</ele>
        <time>2021-05-27T11:53:10Z</time>
      </trkpt>
      <trkpt lat="45.62831" lon="6.84842">
        <ele>1857.4</ele>
        <time>2021-05-27T11:53:11Z</time>
      </trkpt>
      <trkpt lat="45.62835" lon="6.8484">
        <ele>1857.8</ele>
        <time>2021-05-27T11:53:12Z</time>
      </trkpt>
      <trkpt lat="45.62838" lon="6.84838">
        <ele>1858</ele>
        <time>2021-05-27T11:53:13Z</time>
      </trkpt>
      <trkpt lat="45.62842" lon="6.84837">
        <ele>1858.2</ele>
        <time>2021-05-27T11:53:14Z</time>
      </trkpt>
      <trkpt lat="45.62846" lon="6.84836">
        <ele>1858.6</ele>
        <time>2021-05-27T11:53:15Z</time>
      </trkpt>
      <trkpt lat="45.6285" lon="6.84833">
        <ele>1859</ele>
        <time>2021-05-27T11:53:16Z</time>
      </trkpt>
      <trkpt lat="45.62854" lon="6.84831">
        <ele>1859.2</ele>
        <time>2021-05-27T11:53:17Z</time>
      </trkpt>
      <trkpt lat="45.62858" lon="6.84829">
        <ele>1859.4</ele>
        <time>2021-05-27T11:53:18Z</time>
      </trkpt>
      <trkpt lat="45.62862" lon="6.84827">
        <ele>1859.8</ele>
        <time>2021-05-27T11:53:19Z</time>
      </trkpt>
      <trkpt lat="45.62866" lon="6.84825">
        <ele>1859.8</ele>
        <time>2021-05-27T11:53:20Z</time>
      </trkpt>
      <trkpt lat="45.62869" lon="6.84824">
        <ele>1860.2</ele>
        <time>2021-05-27T11:53:21Z</time>
      </trkpt>
      <trkpt lat="45.62873" lon="6.84822">
        <ele>1860.6</ele>
        <time>2021-05-27T11:53:22Z</time>
      </trkpt>
      <trkpt lat="45.62877" lon="6.8482">
        <ele>1861</ele>
        <time>2021-05-27T11:53:23Z</time>
      </trkpt>
      <trkpt lat="45.62881" lon="6.84817">
        <ele>1861.6</ele>
        <time>2021-05-27T11:53:24Z</time>
      </trkpt>
      <trkpt lat="45.62885" lon="6.84814">
        <ele>1861.8</ele>
        <time>2021-05-27T11:53:25Z</time>
      </trkpt>
      <trkpt lat="45.6289" lon="6.84811">
        <ele>1861.8</ele>
        <time>2021-05-27T11:53:26Z</time>
      </trkpt>
      <trkpt lat="45.62894" lon="6.84808">
        <ele>1861.6</ele>
        <time>2021-05-27T11:53:27Z</time>
      </trkpt>
      <trkpt lat="45.62898" lon="6.84804">
        <ele>1861.2</ele>
        <time>2021-05-27T11:53:28Z</time>
      </trkpt>
      <trkpt lat="45.62902" lon="6.848">
        <ele>1861</ele>
        <time>2021-05-27T11:53:29Z</time>
      </trkpt>
      <trkpt lat="45.62906" lon="6.84796">
        <ele>1860.6</ele>
        <time>2021-05-27T11:53:30Z</time>
      </trkpt>
      <trkpt lat="45.62909" lon="6.84792">
        <ele>1860.2</ele>
        <time>2021-05-27T11:53:31Z</time>
      </trkpt>
      <trkpt lat="45.62913" lon="6.84787">
        <ele>1860</ele>
        <time>2021-05-27T11:53:32Z</time>
      </trkpt>
      <trkpt lat="45.62917" lon="6.84784">
        <ele>1860.2</ele>
        <time>2021-05-27T11:53:33Z</time>
      </trkpt>
      <trkpt lat="45.6292" lon="6.8478">
        <ele>1860</ele>
        <time>2021-05-27T11:53:34Z</time>
      </trkpt>
      <trkpt lat="45.62924" lon="6.84776">
        <ele>1860</ele>
        <time>2021-05-27T11:53:35Z</time>
      </trkpt>
      <trkpt lat="45.62928" lon="6.84772">
        <ele>1859.8</ele>
        <time>2021-05-27T11:53:36Z</time>
      </trkpt>
      <trkpt lat="45.62932" lon="6.84767">
        <ele>1859.8</ele>
        <time>2021-05-27T11:53:37Z</time>
      </trkpt>
      <trkpt lat="45.62934" lon="6.84763">
        <ele>1859.8</ele>
        <time>2021-05-27T11:53:38Z</time>
      </trkpt>
      <trkpt lat="45.62938" lon="6.84759">
        <ele>1859.6</ele>
        <time>2021-05-27T11:53:39Z</time>
      </trkpt>
      <trkpt lat="45.6294" lon="6.84754">
        <ele>1859.8</ele>
        <time>2021-05-27T11:53:40Z</time>
      </trkpt>
      <trkpt lat="45.62944" lon="6.84749">
        <ele>1860</ele>
        <time>2021-05-27T11:53:41Z</time>
      </trkpt>
      <trkpt lat="45.62947" lon="6.84745">
        <ele>1860.2</ele>
        <time>2021-05-27T11:53:42Z</time>
      </trkpt>
      <trkpt lat="45.6295" lon="6.8474">
        <ele>1860.4</ele>
        <time>2021-05-27T11:53:43Z</time>
      </trkpt>
      <trkpt lat="45.62953" lon="6.84736">
        <ele>1860.8</ele>
        <time>2021-05-27T11:53:44Z</time>
      </trkpt>
      <trkpt lat="45.62956" lon="6.84732">
        <ele>1860.8</ele>
        <time>2021-05-27T11:53:45Z</time>
      </trkpt>
      <trkpt lat="45.6296" lon="6.84728">
        <ele>1860.8</ele>
        <time>2021-05-27T11:53:46Z</time>
      </trkpt>
      <trkpt lat="45.62963" lon="6.84725">
        <ele>1861</ele>
        <time>2021-05-27T11:53:47Z</time>
      </trkpt>
      <trkpt lat="45.62966" lon="6.84721">
        <ele>1860.8</ele>
        <time>2021-05-27T11:53:48Z</time>
      </trkpt>
      <trkpt lat="45.6297" lon="6.84717">
        <ele>1860.6</ele>
        <time>2021-05-27T11:53:49Z</time>
      </trkpt>
      <trkpt lat="45.62974" lon="6.84713">
        <ele>1860.4</ele>
        <time>2021-05-27T11:53:50Z</time>
      </trkpt>
      <trkpt lat="45.62977" lon="6.84708">
        <ele>1860.4</ele>
        <time>2021-05-27T11:53:51Z</time>
      </trkpt>
      <trkpt lat="45.6298" lon="6.84705">
        <ele>1860.4</ele>
        <time>2021-05-27T11:53:52Z</time>
      </trkpt>
      <trkpt lat="45.62983" lon="6.847">
        <ele>1860</ele>
        <time>2021-05-27T11:53:53Z</time>
      </trkpt>
      <trkpt lat="45.62986" lon="6.84696">
        <ele>1859.6</ele>
        <time>2021-05-27T11:53:54Z</time>
      </trkpt>
      <trkpt lat="45.62989" lon="6.84692">
        <ele>1859.2</ele>
        <time>2021-05-27T11:53:55Z</time>
      </trkpt>
      <trkpt lat="45.62992" lon="6.84688">
        <ele>1859.4</ele>
        <time>2021-05-27T11:53:56Z</time>
      </trkpt>
      <trkpt lat="45.62995" lon="6.84685">
        <ele>1859.4</ele>
        <time>2021-05-27T11:53:57Z</time>
      </trkpt>
      <trkpt lat="45.62998" lon="6.84681">
        <ele>1859.6</ele>
        <time>2021-05-27T11:53:58Z</time>
      </trkpt>
      <trkpt lat="45.63" lon="6.84678">
        <ele>1859.8</ele>
        <time>2021-05-27T11:53:59Z</time>
      </trkpt>
      <trkpt lat="45.63002" lon="6.84675">
        <ele>1860.2</ele>
        <time>2021-05-27T11:54:00Z</time>
      </trkpt>
      <trkpt lat="45.63004" lon="6.84672">
        <ele>1860.8</ele>
        <time>2021-05-27T11:54:01Z</time>
      </trkpt>
      <trkpt lat="45.63006" lon="6.8467">
        <ele>1861.2</ele>
        <time>2021-05-27T11:54:02Z</time>
      </trkpt>
      <trkpt lat="45.63008" lon="6.84668">
        <ele>1861.2</ele>
        <time>2021-05-27T11:54:03Z</time>
      </trkpt>
      <trkpt lat="45.63009" lon="6.84666">
        <ele>1861.4</ele>
        <time>2021-05-27T11:54:04Z</time>
      </trkpt>
      <trkpt lat="45.63011" lon="6.84664">
        <ele>1861.6</ele>
        <time>2021-05-27T11:54:05Z</time>
      </trkpt>
      <trkpt lat="45.63012" lon="6.84661">
        <ele>1861.8</ele>
        <time>2021-05-27T11:54:07Z</time>
      </trkpt>
      <trkpt lat="45.63014" lon="6.8466">
        <ele>1861.6</ele>
        <time>2021-05-27T11:54:09Z</time>
      </trkpt>
      <trkpt lat="45.63017" lon="6.84661">
        <ele>1860.4</ele>
        <time>2021-05-27T11:54:12Z</time>
      </trkpt>
      <trkpt lat="45.6302" lon="6.84664">
        <ele>1859.8</ele>
        <time>2021-05-27T11:54:14Z</time>
      </trkpt>
      <trkpt lat="45.63023" lon="6.84666">
        <ele>1859.4</ele>
        <time>2021-05-27T11:54:15Z</time>
      </trkpt>
      <trkpt lat="45.63026" lon="6.84668">
        <ele>1859</ele>
        <time>2021-05-27T11:54:16Z</time>
      </trkpt>
      <trkpt lat="45.63029" lon="6.84671">
        <ele>1858.8</ele>
        <time>2021-05-27T11:54:17Z</time>
      </trkpt>
      <trkpt lat="45.63032" lon="6.84674">
        <ele>1858.8</ele>
        <time>2021-05-27T11:54:18Z</time>
      </trkpt>
      <trkpt lat="45.63035" lon="6.84677">
        <ele>1858</ele>
        <time>2021-05-27T11:54:19Z</time>
      </trkpt>
      <trkpt lat="45.63037" lon="6.8468">
        <ele>1858</ele>
        <time>2021-05-27T11:54:20Z</time>
      </trkpt>
      <trkpt lat="45.63041" lon="6.84684">
        <ele>1858</ele>
        <time>2021-05-27T11:54:21Z</time>
      </trkpt>
      <trkpt lat="45.63044" lon="6.84688">
        <ele>1858.2</ele>
        <time>2021-05-27T11:54:22Z</time>
      </trkpt>
      <trkpt lat="45.63047" lon="6.84692">
        <ele>1858.4</ele>
        <time>2021-05-27T11:54:23Z</time>
      </trkpt>
      <trkpt lat="45.6305" lon="6.84695">
        <ele>1858.4</ele>
        <time>2021-05-27T11:54:24Z</time>
      </trkpt>
      <trkpt lat="45.63053" lon="6.84698">
        <ele>1858.8</ele>
        <time>2021-05-27T11:54:25Z</time>
      </trkpt>
      <trkpt lat="45.63056" lon="6.84702">
        <ele>1859.2</ele>
        <time>2021-05-27T11:54:26Z</time>
      </trkpt>
      <trkpt lat="45.6306" lon="6.84705">
        <ele>1859.4</ele>
        <time>2021-05-27T11:54:27Z</time>
      </trkpt>
      <trkpt lat="45.63063" lon="6.84708">
        <ele>1859.8</ele>
        <time>2021-05-27T11:54:28Z</time>
      </trkpt>
      <trkpt lat="45.63067" lon="6.84711">
        <ele>1860.2</ele>
        <time>2021-05-27T11:54:29Z</time>
      </trkpt>
      <trkpt lat="45.63071" lon="6.84714">
        <ele>1860.6</ele>
        <time>2021-05-27T11:54:30Z</time>
      </trkpt>
      <trkpt lat="45.63074" lon="6.84717">
        <ele>1861</ele>
        <time>2021-05-27T11:54:31Z</time>
      </trkpt>
      <trkpt lat="45.63077" lon="6.84719">
        <ele>1861.4</ele>
        <time>2021-05-27T11:54:32Z</time>
      </trkpt>
      <trkpt lat="45.63081" lon="6.84722">
        <ele>1861.8</ele>
        <time>2021-05-27T11:54:33Z</time>
      </trkpt>
      <trkpt lat="45.63085" lon="6.84724">
        <ele>1862.4</ele>
        <time>2021-05-27T11:54:34Z</time>
      </trkpt>
      <trkpt lat="45.6309" lon="6.84726">
        <ele>1862.4</ele>
        <time>2021-05-27T11:54:35Z</time>
      </trkpt>
      <trkpt lat="45.63094" lon="6.84728">
        <ele>1862.4</ele>
        <time>2021-05-27T11:54:36Z</time>
      </trkpt>
      <trkpt lat="45.63098" lon="6.84731">
        <ele>1862.8</ele>
        <time>2021-05-27T11:54:37Z</time>
      </trkpt>
      <trkpt lat="45.63102" lon="6.84734">
        <ele>1863.2</ele>
        <time>2021-05-27T11:54:38Z</time>
      </trkpt>
      <trkpt lat="45.63106" lon="6.84736">
        <ele>1863.6</ele>
        <time>2021-05-27T11:54:39Z</time>
      </trkpt>
      <trkpt lat="45.6311" lon="6.8474">
        <ele>1864</ele>
        <time>2021-05-27T11:54:40Z</time>
      </trkpt>
      <trkpt lat="45.63114" lon="6.84743">
        <ele>1864.4</ele>
        <time>2021-05-27T11:54:41Z</time>
      </trkpt>
      <trkpt lat="45.63118" lon="6.84747">
        <ele>1864.8</ele>
        <time>2021-05-27T11:54:42Z</time>
      </trkpt>
      <trkpt lat="45.63121" lon="6.84751">
        <ele>1865.2</ele>
        <time>2021-05-27T11:54:43Z</time>
      </trkpt>
      <trkpt lat="45.63124" lon="6.84755">
        <ele>1865.6</ele>
        <time>2021-05-27T11:54:44Z</time>
      </trkpt>
      <trkpt lat="45.63127" lon="6.84759">
        <ele>1866.2</ele>
        <time>2021-05-27T11:54:45Z</time>
      </trkpt>
      <trkpt lat="45.63131" lon="6.84763">
        <ele>1866.4</ele>
        <time>2021-05-27T11:54:46Z</time>
      </trkpt>
      <trkpt lat="45.63134" lon="6.84768">
        <ele>1866.2</ele>
        <time>2021-05-27T11:54:47Z</time>
      </trkpt>
      <trkpt lat="45.63138" lon="6.84772">
        <ele>1866.4</ele>
        <time>2021-05-27T11:54:48Z</time>
      </trkpt>
      <trkpt lat="45.63142" lon="6.84776">
        <ele>1866.6</ele>
        <time>2021-05-27T11:54:49Z</time>
      </trkpt>
      <trkpt lat="45.63146" lon="6.8478">
        <ele>1866</ele>
        <time>2021-05-27T11:54:50Z</time>
      </trkpt>
      <trkpt lat="45.6315" lon="6.84783">
        <ele>1865.8</ele>
        <time>2021-05-27T11:54:51Z</time>
      </trkpt>
      <trkpt lat="45.63154" lon="6.84786">
        <ele>1866.2</ele>
        <time>2021-05-27T11:54:52Z</time>
      </trkpt>
      <trkpt lat="45.63157" lon="6.84789">
        <ele>1866.4</ele>
        <time>2021-05-27T11:54:53Z</time>
      </trkpt>
      <trkpt lat="45.63161" lon="6.84792">
        <ele>1866.8</ele>
        <time>2021-05-27T11:54:54Z</time>
      </trkpt>
      <trkpt lat="45.63165" lon="6.84794">
        <ele>1867.4</ele>
        <time>2021-05-27T11:54:55Z</time>
      </trkpt>
      <trkpt lat="45.6317" lon="6.84797">
        <ele>1868</ele>
        <time>2021-05-27T11:54:56Z</time>
      </trkpt>
      <trkpt lat="45.63174" lon="6.848">
        <ele>1868.4</ele>
        <time>2021-05-27T11:54:57Z</time>
      </trkpt>
      <trkpt lat="45.63178" lon="6.84804">
        <ele>1869.2</ele>
        <time>2021-05-27T11:54:58Z</time>
      </trkpt>
      <trkpt lat="45.6318" lon="6.84807">
        <ele>1869.8</ele>
        <time>2021-05-27T11:54:59Z</time>
      </trkpt>
      <trkpt lat="45.63184" lon="6.84811">
        <ele>1870.4</ele>
        <time>2021-05-27T11:55:00Z</time>
      </trkpt>
      <trkpt lat="45.63188" lon="6.84815">
        <ele>1870.8</ele>
        <time>2021-05-27T11:55:01Z</time>
      </trkpt>
      <trkpt lat="45.63191" lon="6.84819">
        <ele>1871.6</ele>
        <time>2021-05-27T11:55:02Z</time>
      </trkpt>
      <trkpt lat="45.63194" lon="6.84823">
        <ele>1872</ele>
        <time>2021-05-27T11:55:03Z</time>
      </trkpt>
      <trkpt lat="45.63196" lon="6.84827">
        <ele>1872.6</ele>
        <time>2021-05-27T11:55:04Z</time>
      </trkpt>
      <trkpt lat="45.632" lon="6.84831">
        <ele>1873</ele>
        <time>2021-05-27T11:55:05Z</time>
      </trkpt>
      <trkpt lat="45.63203" lon="6.84835">
        <ele>1873.6</ele>
        <time>2021-05-27T11:55:06Z</time>
      </trkpt>
      <trkpt lat="45.63205" lon="6.84839">
        <ele>1874</ele>
        <time>2021-05-27T11:55:07Z</time>
      </trkpt>
      <trkpt lat="45.63208" lon="6.84844">
        <ele>1874.4</ele>
        <time>2021-05-27T11:55:08Z</time>
      </trkpt>
      <trkpt lat="45.63212" lon="6.84848">
        <ele>1874.6</ele>
        <time>2021-05-27T11:55:09Z</time>
      </trkpt>
      <trkpt lat="45.63214" lon="6.84853">
        <ele>1875.2</ele>
        <time>2021-05-27T11:55:10Z</time>
      </trkpt>
      <trkpt lat="45.63217" lon="6.84857">
        <ele>1875.6</ele>
        <time>2021-05-27T11:55:11Z</time>
      </trkpt>
      <trkpt lat="45.6322" lon="6.84861">
        <ele>1876.4</ele>
        <time>2021-05-27T11:55:12Z</time>
      </trkpt>
      <trkpt lat="45.63223" lon="6.84865">
        <ele>1876.6</ele>
        <time>2021-05-27T11:55:13Z</time>
      </trkpt>
      <trkpt lat="45.63226" lon="6.84869">
        <ele>1877.2</ele>
        <time>2021-05-27T11:55:14Z</time>
      </trkpt>
      <trkpt lat="45.6323" lon="6.84872">
        <ele>1877.6</ele>
        <time>2021-05-27T11:55:15Z</time>
      </trkpt>
      <trkpt lat="45.63233" lon="6.84876">
        <ele>1877.8</ele>
        <time>2021-05-27T11:55:16Z</time>
      </trkpt>
      <trkpt lat="45.63236" lon="6.8488">
        <ele>1878.2</ele>
        <time>2021-05-27T11:55:17Z</time>
      </trkpt>
      <trkpt lat="45.63239" lon="6.84883">
        <ele>1878.6</ele>
        <time>2021-05-27T11:55:18Z</time>
      </trkpt>
      <trkpt lat="45.63242" lon="6.84887">
        <ele>1879</ele>
        <time>2021-05-27T11:55:19Z</time>
      </trkpt>
      <trkpt lat="45.63245" lon="6.8489">
        <ele>1879.2</ele>
        <time>2021-05-27T11:55:20Z</time>
      </trkpt>
      <trkpt lat="45.63248" lon="6.84893">
        <ele>1879.4</ele>
        <time>2021-05-27T11:55:21Z</time>
      </trkpt>
      <trkpt lat="45.63252" lon="6.84896">
        <ele>1880</ele>
        <time>2021-05-27T11:55:22Z</time>
      </trkpt>
      <trkpt lat="45.63255" lon="6.84898">
        <ele>1880.2</ele>
        <time>2021-05-27T11:55:23Z</time>
      </trkpt>
      <trkpt lat="45.63259" lon="6.84901">
        <ele>1880.8</ele>
        <time>2021-05-27T11:55:24Z</time>
      </trkpt>
      <trkpt lat="45.63262" lon="6.84903">
        <ele>1881.2</ele>
        <time>2021-05-27T11:55:25Z</time>
      </trkpt>
      <trkpt lat="45.63266" lon="6.84904">
        <ele>1881.8</ele>
        <time>2021-05-27T11:55:26Z</time>
      </trkpt>
      <trkpt lat="45.6327" lon="6.84906">
        <ele>1882.2</ele>
        <time>2021-05-27T11:55:27Z</time>
      </trkpt>
      <trkpt lat="45.63274" lon="6.84908">
        <ele>1882.4</ele>
        <time>2021-05-27T11:55:28Z</time>
      </trkpt>
      <trkpt lat="45.63277" lon="6.8491">
        <ele>1883</ele>
        <time>2021-05-27T11:55:29Z</time>
      </trkpt>
      <trkpt lat="45.63281" lon="6.84911">
        <ele>1883.4</ele>
        <time>2021-05-27T11:55:30Z</time>
      </trkpt>
      <trkpt lat="45.63285" lon="6.84912">
        <ele>1883.6</ele>
        <time>2021-05-27T11:55:31Z</time>
      </trkpt>
      <trkpt lat="45.63289" lon="6.84914">
        <ele>1883.8</ele>
        <time>2021-05-27T11:55:32Z</time>
      </trkpt>
      <trkpt lat="45.63293" lon="6.84915">
        <ele>1884.2</ele>
        <time>2021-05-27T11:55:33Z</time>
      </trkpt>
      <trkpt lat="45.63297" lon="6.84916">
        <ele>1884.6</ele>
        <time>2021-05-27T11:55:34Z</time>
      </trkpt>
      <trkpt lat="45.63301" lon="6.84916">
        <ele>1885</ele>
        <time>2021-05-27T11:55:35Z</time>
      </trkpt>
      <trkpt lat="45.63306" lon="6.84916">
        <ele>1885.2</ele>
        <time>2021-05-27T11:55:36Z</time>
      </trkpt>
      <trkpt lat="45.6331" lon="6.84916">
        <ele>1885.4</ele>
        <time>2021-05-27T11:55:37Z</time>
      </trkpt>
      <trkpt lat="45.63314" lon="6.84916">
        <ele>1885.4</ele>
        <time>2021-05-27T11:55:38Z</time>
      </trkpt>
      <trkpt lat="45.63319" lon="6.84915">
        <ele>1885.6</ele>
        <time>2021-05-27T11:55:39Z</time>
      </trkpt>
      <trkpt lat="45.63323" lon="6.84915">
        <ele>1885.8</ele>
        <time>2021-05-27T11:55:40Z</time>
      </trkpt>
      <trkpt lat="45.63327" lon="6.84914">
        <ele>1885.8</ele>
        <time>2021-05-27T11:55:41Z</time>
      </trkpt>
      <trkpt lat="45.63331" lon="6.84912">
        <ele>1885.6</ele>
        <time>2021-05-27T11:55:42Z</time>
      </trkpt>
      <trkpt lat="45.63335" lon="6.84912">
        <ele>1885.6</ele>
        <time>2021-05-27T11:55:43Z</time>
      </trkpt>
      <trkpt lat="45.63339" lon="6.84912">
        <ele>1885.6</ele>
        <time>2021-05-27T11:55:44Z</time>
      </trkpt>
      <trkpt lat="45.63344" lon="6.84912">
        <ele>1885.6</ele>
        <time>2021-05-27T11:55:45Z</time>
      </trkpt>
      <trkpt lat="45.63348" lon="6.84912">
        <ele>1885.6</ele>
        <time>2021-05-27T11:55:46Z</time>
      </trkpt>
      <trkpt lat="45.63353" lon="6.84912">
        <ele>1885.8</ele>
        <time>2021-05-27T11:55:47Z</time>
      </trkpt>
      <trkpt lat="45.63357" lon="6.84913">
        <ele>1886</ele>
        <time>2021-05-27T11:55:48Z</time>
      </trkpt>
      <trkpt lat="45.63361" lon="6.84913">
        <ele>1886</ele>
        <time>2021-05-27T11:55:49Z</time>
      </trkpt>
      <trkpt lat="45.63366" lon="6.84914">
        <ele>1886.2</ele>
        <time>2021-05-27T11:55:50Z</time>
      </trkpt>
      <trkpt lat="45.6337" lon="6.84915">
        <ele>1886.2</ele>
        <time>2021-05-27T11:55:51Z</time>
      </trkpt>
      <trkpt lat="45.63374" lon="6.84915">
        <ele>1886.4</ele>
        <time>2021-05-27T11:55:52Z</time>
      </trkpt>
      <trkpt lat="45.63379" lon="6.84916">
        <ele>1886.4</ele>
        <time>2021-05-27T11:55:53Z</time>
      </trkpt>
      <trkpt lat="45.63383" lon="6.84916">
        <ele>1886.2</ele>
        <time>2021-05-27T11:55:54Z</time>
      </trkpt>
      <trkpt lat="45.63387" lon="6.84916">
        <ele>1886.4</ele>
        <time>2021-05-27T11:55:55Z</time>
      </trkpt>
      <trkpt lat="45.63391" lon="6.84916">
        <ele>1886.6</ele>
        <time>2021-05-27T11:55:56Z</time>
      </trkpt>
      <trkpt lat="45.63396" lon="6.84917">
        <ele>1886.8</ele>
        <time>2021-05-27T11:55:57Z</time>
      </trkpt>
      <trkpt lat="45.63399" lon="6.84917">
        <ele>1887</ele>
        <time>2021-05-27T11:55:58Z</time>
      </trkpt>
      <trkpt lat="45.63405" lon="6.84918">
        <ele>1887</ele>
        <time>2021-05-27T11:55:59Z</time>
      </trkpt>
      <trkpt lat="45.63408" lon="6.84918">
        <ele>1887</ele>
        <time>2021-05-27T11:56:00Z</time>
      </trkpt>
      <trkpt lat="45.63412" lon="6.84918">
        <ele>1887.2</ele>
        <time>2021-05-27T11:56:01Z</time>
      </trkpt>
      <trkpt lat="45.63417" lon="6.84919">
        <ele>1887.6</ele>
        <time>2021-05-27T11:56:02Z</time>
      </trkpt>
      <trkpt lat="45.63421" lon="6.8492">
        <ele>1887.8</ele>
        <time>2021-05-27T11:56:03Z</time>
      </trkpt>
      <trkpt lat="45.63425" lon="6.8492">
        <ele>1888</ele>
        <time>2021-05-27T11:56:04Z</time>
      </trkpt>
      <trkpt lat="45.63429" lon="6.84922">
        <ele>1888</ele>
        <time>2021-05-27T11:56:05Z</time>
      </trkpt>
      <trkpt lat="45.63433" lon="6.84923">
        <ele>1888.2</ele>
        <time>2021-05-27T11:56:06Z</time>
      </trkpt>
      <trkpt lat="45.63437" lon="6.84925">
        <ele>1888.6</ele>
        <time>2021-05-27T11:56:07Z</time>
      </trkpt>
      <trkpt lat="45.63441" lon="6.84928">
        <ele>1888.8</ele>
        <time>2021-05-27T11:56:08Z</time>
      </trkpt>
      <trkpt lat="45.63444" lon="6.8493">
        <ele>1889</ele>
        <time>2021-05-27T11:56:09Z</time>
      </trkpt>
      <trkpt lat="45.63448" lon="6.84934">
        <ele>1888.8</ele>
        <time>2021-05-27T11:56:10Z</time>
      </trkpt>
      <trkpt lat="45.63452" lon="6.84937">
        <ele>1888.8</ele>
        <time>2021-05-27T11:56:11Z</time>
      </trkpt>
      <trkpt lat="45.63455" lon="6.84941">
        <ele>1889</ele>
        <time>2021-05-27T11:56:12Z</time>
      </trkpt>
      <trkpt lat="45.63458" lon="6.84945">
        <ele>1889</ele>
        <time>2021-05-27T11:56:13Z</time>
      </trkpt>
      <trkpt lat="45.63461" lon="6.84949">
        <ele>1889.2</ele>
        <time>2021-05-27T11:56:14Z</time>
      </trkpt>
      <trkpt lat="45.63464" lon="6.84954">
        <ele>1889.2</ele>
        <time>2021-05-27T11:56:15Z</time>
      </trkpt>
      <trkpt lat="45.63467" lon="6.84958">
        <ele>1889.6</ele>
        <time>2021-05-27T11:56:16Z</time>
      </trkpt>
      <trkpt lat="45.63469" lon="6.84964">
        <ele>1889.6</ele>
        <time>2021-05-27T11:56:17Z</time>
      </trkpt>
      <trkpt lat="45.63471" lon="6.84968">
        <ele>1889.6</ele>
        <time>2021-05-27T11:56:18Z</time>
      </trkpt>
      <trkpt lat="45.63473" lon="6.84974">
        <ele>1889.6</ele>
        <time>2021-05-27T11:56:19Z</time>
      </trkpt>
      <trkpt lat="45.63475" lon="6.84979">
        <ele>1889.2</ele>
        <time>2021-05-27T11:56:20Z</time>
      </trkpt>
      <trkpt lat="45.63477" lon="6.84984">
        <ele>1888.6</ele>
        <time>2021-05-27T11:56:21Z</time>
      </trkpt>
      <trkpt lat="45.6348" lon="6.84989">
        <ele>1888</ele>
        <time>2021-05-27T11:56:22Z</time>
      </trkpt>
      <trkpt lat="45.63482" lon="6.84994">
        <ele>1887.8</ele>
        <time>2021-05-27T11:56:23Z</time>
      </trkpt>
      <trkpt lat="45.63485" lon="6.84998">
        <ele>1887.6</ele>
        <time>2021-05-27T11:56:24Z</time>
      </trkpt>
      <trkpt lat="45.63488" lon="6.85002">
        <ele>1887.4</ele>
        <time>2021-05-27T11:56:25Z</time>
      </trkpt>
      <trkpt lat="45.6349" lon="6.85007">
        <ele>1887.2</ele>
        <time>2021-05-27T11:56:26Z</time>
      </trkpt>
      <trkpt lat="45.63493" lon="6.8501">
        <ele>1886.8</ele>
        <time>2021-05-27T11:56:27Z</time>
      </trkpt>
      <trkpt lat="45.63497" lon="6.85013">
        <ele>1886.4</ele>
        <time>2021-05-27T11:56:28Z</time>
      </trkpt>
      <trkpt lat="45.635" lon="6.85016">
        <ele>1885.8</ele>
        <time>2021-05-27T11:56:29Z</time>
      </trkpt>
      <trkpt lat="45.63504" lon="6.85018">
        <ele>1885.4</ele>
        <time>2021-05-27T11:56:30Z</time>
      </trkpt>
      <trkpt lat="45.63508" lon="6.8502">
        <ele>1885.2</ele>
        <time>2021-05-27T11:56:31Z</time>
      </trkpt>
      <trkpt lat="45.63512" lon="6.85022">
        <ele>1885</ele>
        <time>2021-05-27T11:56:32Z</time>
      </trkpt>
      <trkpt lat="45.63516" lon="6.85024">
        <ele>1884.6</ele>
        <time>2021-05-27T11:56:33Z</time>
      </trkpt>
      <trkpt lat="45.6352" lon="6.85025">
        <ele>1884.4</ele>
        <time>2021-05-27T11:56:34Z</time>
      </trkpt>
      <trkpt lat="45.63524" lon="6.85026">
        <ele>1884.6</ele>
        <time>2021-05-27T11:56:35Z</time>
      </trkpt>
      <trkpt lat="45.63528" lon="6.85028">
        <ele>1884.4</ele>
        <time>2021-05-27T11:56:36Z</time>
      </trkpt>
      <trkpt lat="45.63532" lon="6.85029">
        <ele>1884.2</ele>
        <time>2021-05-27T11:56:37Z</time>
      </trkpt>
      <trkpt lat="45.63535" lon="6.85031">
        <ele>1884</ele>
        <time>2021-05-27T11:56:38Z</time>
      </trkpt>
      <trkpt lat="45.63539" lon="6.85032">
        <ele>1884</ele>
        <time>2021-05-27T11:56:39Z</time>
      </trkpt>
      <trkpt lat="45.63543" lon="6.85034">
        <ele>1884.2</ele>
        <time>2021-05-27T11:56:40Z</time>
      </trkpt>
      <trkpt lat="45.63548" lon="6.85036">
        <ele>1884.4</ele>
        <time>2021-05-27T11:56:41Z</time>
      </trkpt>
      <trkpt lat="45.63552" lon="6.85038">
        <ele>1884.6</ele>
        <time>2021-05-27T11:56:42Z</time>
      </trkpt>
      <trkpt lat="45.63557" lon="6.8504">
        <ele>1885</ele>
        <time>2021-05-27T11:56:43Z</time>
      </trkpt>
      <trkpt lat="45.63562" lon="6.85042">
        <ele>1885.4</ele>
        <time>2021-05-27T11:56:44Z</time>
      </trkpt>
      <trkpt lat="45.63566" lon="6.85045">
        <ele>1885.8</ele>
        <time>2021-05-27T11:56:45Z</time>
      </trkpt>
      <trkpt lat="45.6357" lon="6.85047">
        <ele>1886.2</ele>
        <time>2021-05-27T11:56:46Z</time>
      </trkpt>
      <trkpt lat="45.63575" lon="6.8505">
        <ele>1886.4</ele>
        <time>2021-05-27T11:56:47Z</time>
      </trkpt>
      <trkpt lat="45.63579" lon="6.85052">
        <ele>1886.8</ele>
        <time>2021-05-27T11:56:48Z</time>
      </trkpt>
      <trkpt lat="45.63584" lon="6.85054">
        <ele>1887.2</ele>
        <time>2021-05-27T11:56:49Z</time>
      </trkpt>
      <trkpt lat="45.63588" lon="6.85056">
        <ele>1887.6</ele>
        <time>2021-05-27T11:56:50Z</time>
      </trkpt>
      <trkpt lat="45.63592" lon="6.85057">
        <ele>1888</ele>
        <time>2021-05-27T11:56:51Z</time>
      </trkpt>
      <trkpt lat="45.63596" lon="6.85056">
        <ele>1888.2</ele>
        <time>2021-05-27T11:56:52Z</time>
      </trkpt>
      <trkpt lat="45.63599" lon="6.85053">
        <ele>1888.6</ele>
        <time>2021-05-27T11:56:53Z</time>
      </trkpt>
      <trkpt lat="45.63602" lon="6.8505">
        <ele>1888.6</ele>
        <time>2021-05-27T11:56:54Z</time>
      </trkpt>
      <trkpt lat="45.63605" lon="6.85046">
        <ele>1888.6</ele>
        <time>2021-05-27T11:56:55Z</time>
      </trkpt>
      <trkpt lat="45.63608" lon="6.85041">
        <ele>1888.6</ele>
        <time>2021-05-27T11:56:56Z</time>
      </trkpt>
      <trkpt lat="45.63612" lon="6.85037">
        <ele>1888.8</ele>
        <time>2021-05-27T11:56:57Z</time>
      </trkpt>
      <trkpt lat="45.63615" lon="6.85033">
        <ele>1889</ele>
        <time>2021-05-27T11:56:58Z</time>
      </trkpt>
      <trkpt lat="45.63619" lon="6.85029">
        <ele>1889.4</ele>
        <time>2021-05-27T11:56:59Z</time>
      </trkpt>
      <trkpt lat="45.63622" lon="6.85025">
        <ele>1889.6</ele>
        <time>2021-05-27T11:57:00Z</time>
      </trkpt>
      <trkpt lat="45.63625" lon="6.85021">
        <ele>1890</ele>
        <time>2021-05-27T11:57:01Z</time>
      </trkpt>
      <trkpt lat="45.63629" lon="6.85017">
        <ele>1890.4</ele>
        <time>2021-05-27T11:57:02Z</time>
      </trkpt>
      <trkpt lat="45.63632" lon="6.85013">
        <ele>1890.8</ele>
        <time>2021-05-27T11:57:03Z</time>
      </trkpt>
      <trkpt lat="45.63635" lon="6.85009">
        <ele>1891.2</ele>
        <time>2021-05-27T11:57:04Z</time>
      </trkpt>
      <trkpt lat="45.63639" lon="6.85005">
        <ele>1891.6</ele>
        <time>2021-05-27T11:57:05Z</time>
      </trkpt>
      <trkpt lat="45.63643" lon="6.85001">
        <ele>1892</ele>
        <time>2021-05-27T11:57:06Z</time>
      </trkpt>
      <trkpt lat="45.63646" lon="6.84997">
        <ele>1892.4</ele>
        <time>2021-05-27T11:57:07Z</time>
      </trkpt>
      <trkpt lat="45.6365" lon="6.84993">
        <ele>1892.6</ele>
        <time>2021-05-27T11:57:08Z</time>
      </trkpt>
      <trkpt lat="45.63653" lon="6.84989">
        <ele>1893.2</ele>
        <time>2021-05-27T11:57:09Z</time>
      </trkpt>
      <trkpt lat="45.63657" lon="6.84985">
        <ele>1893.4</ele>
        <time>2021-05-27T11:57:10Z</time>
      </trkpt>
      <trkpt lat="45.6366" lon="6.84981">
        <ele>1893.8</ele>
        <time>2021-05-27T11:57:11Z</time>
      </trkpt>
      <trkpt lat="45.63663" lon="6.84977">
        <ele>1894.2</ele>
        <time>2021-05-27T11:57:12Z</time>
      </trkpt>
      <trkpt lat="45.63667" lon="6.84974">
        <ele>1894.8</ele>
        <time>2021-05-27T11:57:13Z</time>
      </trkpt>
      <trkpt lat="45.6367" lon="6.8497">
        <ele>1895.2</ele>
        <time>2021-05-27T11:57:14Z</time>
      </trkpt>
      <trkpt lat="45.63674" lon="6.84967">
        <ele>1895.8</ele>
        <time>2021-05-27T11:57:15Z</time>
      </trkpt>
      <trkpt lat="45.63677" lon="6.84964">
        <ele>1896.2</ele>
        <time>2021-05-27T11:57:16Z</time>
      </trkpt>
      <trkpt lat="45.63681" lon="6.84961">
        <ele>1896.8</ele>
        <time>2021-05-27T11:57:17Z</time>
      </trkpt>
      <trkpt lat="45.63684" lon="6.84958">
        <ele>1897.2</ele>
        <time>2021-05-27T11:57:18Z</time>
      </trkpt>
      <trkpt lat="45.63687" lon="6.84955">
        <ele>1897.8</ele>
        <time>2021-05-27T11:57:19Z</time>
      </trkpt>
      <trkpt lat="45.63691" lon="6.84951">
        <ele>1898.2</ele>
        <time>2021-05-27T11:57:20Z</time>
      </trkpt>
      <trkpt lat="45.63694" lon="6.84948">
        <ele>1898.2</ele>
        <time>2021-05-27T11:57:21Z</time>
      </trkpt>
      <trkpt lat="45.63698" lon="6.84944">
        <ele>1898.8</ele>
        <time>2021-05-27T11:57:22Z</time>
      </trkpt>
      <trkpt lat="45.63701" lon="6.8494">
        <ele>1899.4</ele>
        <time>2021-05-27T11:57:23Z</time>
      </trkpt>
      <trkpt lat="45.63705" lon="6.84936">
        <ele>1899.8</ele>
        <time>2021-05-27T11:57:24Z</time>
      </trkpt>
      <trkpt lat="45.63707" lon="6.84932">
        <ele>1900.6</ele>
        <time>2021-05-27T11:57:25Z</time>
      </trkpt>
      <trkpt lat="45.6371" lon="6.84927">
        <ele>1901</ele>
        <time>2021-05-27T11:57:26Z</time>
      </trkpt>
      <trkpt lat="45.63713" lon="6.84922">
        <ele>1901.6</ele>
        <time>2021-05-27T11:57:27Z</time>
      </trkpt>
      <trkpt lat="45.63716" lon="6.84918">
        <ele>1902</ele>
        <time>2021-05-27T11:57:28Z</time>
      </trkpt>
      <trkpt lat="45.63718" lon="6.84913">
        <ele>1902.6</ele>
        <time>2021-05-27T11:57:29Z</time>
      </trkpt>
      <trkpt lat="45.63721" lon="6.84908">
        <ele>1903</ele>
        <time>2021-05-27T11:57:30Z</time>
      </trkpt>
      <trkpt lat="45.63723" lon="6.84902">
        <ele>1903.4</ele>
        <time>2021-05-27T11:57:31Z</time>
      </trkpt>
      <trkpt lat="45.63726" lon="6.84898">
        <ele>1903.8</ele>
        <time>2021-05-27T11:57:32Z</time>
      </trkpt>
      <trkpt lat="45.63728" lon="6.84893">
        <ele>1904.2</ele>
        <time>2021-05-27T11:57:33Z</time>
      </trkpt>
      <trkpt lat="45.63732" lon="6.84888">
        <ele>1904.4</ele>
        <time>2021-05-27T11:57:34Z</time>
      </trkpt>
      <trkpt lat="45.63734" lon="6.84883">
        <ele>1904.8</ele>
        <time>2021-05-27T11:57:35Z</time>
      </trkpt>
      <trkpt lat="45.63737" lon="6.84878">
        <ele>1905.2</ele>
        <time>2021-05-27T11:57:36Z</time>
      </trkpt>
      <trkpt lat="45.63739" lon="6.84873">
        <ele>1905.4</ele>
        <time>2021-05-27T11:57:37Z</time>
      </trkpt>
      <trkpt lat="45.63742" lon="6.84868">
        <ele>1905.8</ele>
        <time>2021-05-27T11:57:38Z</time>
      </trkpt>
      <trkpt lat="45.63745" lon="6.84863">
        <ele>1906</ele>
        <time>2021-05-27T11:57:39Z</time>
      </trkpt>
      <trkpt lat="45.63748" lon="6.84858">
        <ele>1906</ele>
        <time>2021-05-27T11:57:40Z</time>
      </trkpt>
      <trkpt lat="45.6375" lon="6.84853">
        <ele>1905.8</ele>
        <time>2021-05-27T11:57:41Z</time>
      </trkpt>
      <trkpt lat="45.63753" lon="6.84848">
        <ele>1906</ele>
        <time>2021-05-27T11:57:42Z</time>
      </trkpt>
      <trkpt lat="45.63755" lon="6.84842">
        <ele>1906.2</ele>
        <time>2021-05-27T11:57:43Z</time>
      </trkpt>
      <trkpt lat="45.63757" lon="6.84837">
        <ele>1906</ele>
        <time>2021-05-27T11:57:44Z</time>
      </trkpt>
      <trkpt lat="45.6376" lon="6.84831">
        <ele>1905.8</ele>
        <time>2021-05-27T11:57:45Z</time>
      </trkpt>
      <trkpt lat="45.63762" lon="6.84825">
        <ele>1905.8</ele>
        <time>2021-05-27T11:57:46Z</time>
      </trkpt>
      <trkpt lat="45.63763" lon="6.84819">
        <ele>1905.8</ele>
        <time>2021-05-27T11:57:47Z</time>
      </trkpt>
      <trkpt lat="45.63765" lon="6.84814">
        <ele>1905.6</ele>
        <time>2021-05-27T11:57:48Z</time>
      </trkpt>
      <trkpt lat="45.63766" lon="6.84808">
        <ele>1905.8</ele>
        <time>2021-05-27T11:57:49Z</time>
      </trkpt>
      <trkpt lat="45.63767" lon="6.84802">
        <ele>1906</ele>
        <time>2021-05-27T11:57:50Z</time>
      </trkpt>
      <trkpt lat="45.63768" lon="6.84796">
        <ele>1906.2</ele>
        <time>2021-05-27T11:57:51Z</time>
      </trkpt>
      <trkpt lat="45.63769" lon="6.8479">
        <ele>1906.4</ele>
        <time>2021-05-27T11:57:52Z</time>
      </trkpt>
      <trkpt lat="45.63769" lon="6.84783">
        <ele>1906.6</ele>
        <time>2021-05-27T11:57:53Z</time>
      </trkpt>
      <trkpt lat="45.63769" lon="6.84777">
        <ele>1906.8</ele>
        <time>2021-05-27T11:57:54Z</time>
      </trkpt>
      <trkpt lat="45.63769" lon="6.84771">
        <ele>1907</ele>
        <time>2021-05-27T11:57:55Z</time>
      </trkpt>
      <trkpt lat="45.63769" lon="6.84766">
        <ele>1907.2</ele>
        <time>2021-05-27T11:57:56Z</time>
      </trkpt>
      <trkpt lat="45.63769" lon="6.84759">
        <ele>1907.4</ele>
        <time>2021-05-27T11:57:57Z</time>
      </trkpt>
      <trkpt lat="45.63769" lon="6.84753">
        <ele>1907.4</ele>
        <time>2021-05-27T11:57:58Z</time>
      </trkpt>
      <trkpt lat="45.63768" lon="6.84747">
        <ele>1907.4</ele>
        <time>2021-05-27T11:57:59Z</time>
      </trkpt>
      <trkpt lat="45.63768" lon="6.84741">
        <ele>1907.8</ele>
        <time>2021-05-27T11:58:00Z</time>
      </trkpt>
      <trkpt lat="45.6377" lon="6.84735">
        <ele>1907.8</ele>
        <time>2021-05-27T11:58:01Z</time>
      </trkpt>
      <trkpt lat="45.6377" lon="6.84729">
        <ele>1908</ele>
        <time>2021-05-27T11:58:02Z</time>
      </trkpt>
      <trkpt lat="45.63771" lon="6.84723">
        <ele>1908</ele>
        <time>2021-05-27T11:58:03Z</time>
      </trkpt>
      <trkpt lat="45.63772" lon="6.84716">
        <ele>1908.2</ele>
        <time>2021-05-27T11:58:04Z</time>
      </trkpt>
      <trkpt lat="45.63773" lon="6.8471">
        <ele>1908.2</ele>
        <time>2021-05-27T11:58:05Z</time>
      </trkpt>
      <trkpt lat="45.63775" lon="6.84704">
        <ele>1908.4</ele>
        <time>2021-05-27T11:58:06Z</time>
      </trkpt>
      <trkpt lat="45.63778" lon="6.84699">
        <ele>1908.4</ele>
        <time>2021-05-27T11:58:07Z</time>
      </trkpt>
      <trkpt lat="45.63781" lon="6.84694">
        <ele>1908.4</ele>
        <time>2021-05-27T11:58:08Z</time>
      </trkpt>
      <trkpt lat="45.63784" lon="6.8469">
        <ele>1908.4</ele>
        <time>2021-05-27T11:58:09Z</time>
      </trkpt>
      <trkpt lat="45.63788" lon="6.84686">
        <ele>1908.6</ele>
        <time>2021-05-27T11:58:10Z</time>
      </trkpt>
      <trkpt lat="45.63792" lon="6.84682">
        <ele>1908.6</ele>
        <time>2021-05-27T11:58:11Z</time>
      </trkpt>
      <trkpt lat="45.63796" lon="6.8468">
        <ele>1908.6</ele>
        <time>2021-05-27T11:58:12Z</time>
      </trkpt>
      <trkpt lat="45.638" lon="6.84678">
        <ele>1908.8</ele>
        <time>2021-05-27T11:58:13Z</time>
      </trkpt>
      <trkpt lat="45.63804" lon="6.84675">
        <ele>1908.4</ele>
        <time>2021-05-27T11:58:14Z</time>
      </trkpt>
      <trkpt lat="45.63808" lon="6.84673">
        <ele>1907.8</ele>
        <time>2021-05-27T11:58:15Z</time>
      </trkpt>
      <trkpt lat="45.63812" lon="6.84671">
        <ele>1907.6</ele>
        <time>2021-05-27T11:58:16Z</time>
      </trkpt>
      <trkpt lat="45.63815" lon="6.8467">
        <ele>1906.8</ele>
        <time>2021-05-27T11:58:17Z</time>
      </trkpt>
      <trkpt lat="45.6382" lon="6.84669">
        <ele>1906.2</ele>
        <time>2021-05-27T11:58:18Z</time>
      </trkpt>
      <trkpt lat="45.63823" lon="6.84669">
        <ele>1905.2</ele>
        <time>2021-05-27T11:58:19Z</time>
      </trkpt>
      <trkpt lat="45.63828" lon="6.84668">
        <ele>1904</ele>
        <time>2021-05-27T11:58:20Z</time>
      </trkpt>
      <trkpt lat="45.63832" lon="6.84668">
        <ele>1903.2</ele>
        <time>2021-05-27T11:58:21Z</time>
      </trkpt>
      <trkpt lat="45.63836" lon="6.84668">
        <ele>1902.2</ele>
        <time>2021-05-27T11:58:22Z</time>
      </trkpt>
      <trkpt lat="45.63841" lon="6.84667">
        <ele>1901.4</ele>
        <time>2021-05-27T11:58:23Z</time>
      </trkpt>
      <trkpt lat="45.63845" lon="6.84667">
        <ele>1900.4</ele>
        <time>2021-05-27T11:58:24Z</time>
      </trkpt>
      <trkpt lat="45.63849" lon="6.84666">
        <ele>1899.4</ele>
        <time>2021-05-27T11:58:25Z</time>
      </trkpt>
      <trkpt lat="45.63853" lon="6.84665">
        <ele>1898.8</ele>
        <time>2021-05-27T11:58:26Z</time>
      </trkpt>
      <trkpt lat="45.63858" lon="6.84665">
        <ele>1899</ele>
        <time>2021-05-27T11:58:27Z</time>
      </trkpt>
      <trkpt lat="45.63862" lon="6.84664">
        <ele>1899.4</ele>
        <time>2021-05-27T11:58:28Z</time>
      </trkpt>
      <trkpt lat="45.63867" lon="6.84662">
        <ele>1900</ele>
        <time>2021-05-27T11:58:29Z</time>
      </trkpt>
      <trkpt lat="45.63871" lon="6.84661">
        <ele>1900.8</ele>
        <time>2021-05-27T11:58:30Z</time>
      </trkpt>
      <trkpt lat="45.63876" lon="6.8466">
        <ele>1901.8</ele>
        <time>2021-05-27T11:58:31Z</time>
      </trkpt>
      <trkpt lat="45.6388" lon="6.84658">
        <ele>1902.8</ele>
        <time>2021-05-27T11:58:32Z</time>
      </trkpt>
      <trkpt lat="45.63884" lon="6.84657">
        <ele>1903.8</ele>
        <time>2021-05-27T11:58:33Z</time>
      </trkpt>
      <trkpt lat="45.63888" lon="6.84655">
        <ele>1904.4</ele>
        <time>2021-05-27T11:58:34Z</time>
      </trkpt>
      <trkpt lat="45.63893" lon="6.84654">
        <ele>1905.8</ele>
        <time>2021-05-27T11:58:35Z</time>
      </trkpt>
      <trkpt lat="45.63897" lon="6.84654">
        <ele>1906.6</ele>
        <time>2021-05-27T11:58:36Z</time>
      </trkpt>
      <trkpt lat="45.63902" lon="6.84652">
        <ele>1907.4</ele>
        <time>2021-05-27T11:58:37Z</time>
      </trkpt>
      <trkpt lat="45.63907" lon="6.84651">
        <ele>1908.2</ele>
        <time>2021-05-27T11:58:38Z</time>
      </trkpt>
      <trkpt lat="45.63911" lon="6.84651">
        <ele>1909</ele>
        <time>2021-05-27T11:58:39Z</time>
      </trkpt>
      <trkpt lat="45.63916" lon="6.8465">
        <ele>1910</ele>
        <time>2021-05-27T11:58:40Z</time>
      </trkpt>
      <trkpt lat="45.6392" lon="6.84648">
        <ele>1910.6</ele>
        <time>2021-05-27T11:58:41Z</time>
      </trkpt>
      <trkpt lat="45.63924" lon="6.84646">
        <ele>1911.4</ele>
        <time>2021-05-27T11:58:42Z</time>
      </trkpt>
      <trkpt lat="45.63928" lon="6.84643">
        <ele>1912.2</ele>
        <time>2021-05-27T11:58:43Z</time>
      </trkpt>
      <trkpt lat="45.63932" lon="6.8464">
        <ele>1912.8</ele>
        <time>2021-05-27T11:58:44Z</time>
      </trkpt>
      <trkpt lat="45.63936" lon="6.84636">
        <ele>1913.6</ele>
        <time>2021-05-27T11:58:45Z</time>
      </trkpt>
      <trkpt lat="45.63939" lon="6.84632">
        <ele>1914.4</ele>
        <time>2021-05-27T11:58:46Z</time>
      </trkpt>
      <trkpt lat="45.63943" lon="6.84628">
        <ele>1914.8</ele>
        <time>2021-05-27T11:58:47Z</time>
      </trkpt>
      <trkpt lat="45.63946" lon="6.84623">
        <ele>1915.6</ele>
        <time>2021-05-27T11:58:48Z</time>
      </trkpt>
      <trkpt lat="45.63949" lon="6.84618">
        <ele>1916</ele>
        <time>2021-05-27T11:58:49Z</time>
      </trkpt>
      <trkpt lat="45.63952" lon="6.84612">
        <ele>1916.6</ele>
        <time>2021-05-27T11:58:50Z</time>
      </trkpt>
      <trkpt lat="45.63956" lon="6.84608">
        <ele>1917</ele>
        <time>2021-05-27T11:58:51Z</time>
      </trkpt>
      <trkpt lat="45.63959" lon="6.84603">
        <ele>1917.8</ele>
        <time>2021-05-27T11:58:52Z</time>
      </trkpt>
      <trkpt lat="45.63963" lon="6.846">
        <ele>1918</ele>
        <time>2021-05-27T11:58:53Z</time>
      </trkpt>
      <trkpt lat="45.63967" lon="6.84596">
        <ele>1918.2</ele>
        <time>2021-05-27T11:58:54Z</time>
      </trkpt>
      <trkpt lat="45.63971" lon="6.84592">
        <ele>1918.6</ele>
        <time>2021-05-27T11:58:55Z</time>
      </trkpt>
      <trkpt lat="45.63974" lon="6.84588">
        <ele>1919.2</ele>
        <time>2021-05-27T11:58:56Z</time>
      </trkpt>
      <trkpt lat="45.63979" lon="6.84585">
        <ele>1919.4</ele>
        <time>2021-05-27T11:58:57Z</time>
      </trkpt>
      <trkpt lat="45.63982" lon="6.84581">
        <ele>1919.4</ele>
        <time>2021-05-27T11:58:58Z</time>
      </trkpt>
      <trkpt lat="45.63987" lon="6.84578">
        <ele>1919.8</ele>
        <time>2021-05-27T11:58:59Z</time>
      </trkpt>
      <trkpt lat="45.6399" lon="6.84574">
        <ele>1920</ele>
        <time>2021-05-27T11:59:00Z</time>
      </trkpt>
      <trkpt lat="45.63994" lon="6.84571">
        <ele>1920.8</ele>
        <time>2021-05-27T11:59:01Z</time>
      </trkpt>
      <trkpt lat="45.63997" lon="6.84568">
        <ele>1921.4</ele>
        <time>2021-05-27T11:59:02Z</time>
      </trkpt>
      <trkpt lat="45.64001" lon="6.84565">
        <ele>1921.8</ele>
        <time>2021-05-27T11:59:03Z</time>
      </trkpt>
      <trkpt lat="45.64004" lon="6.84562">
        <ele>1922.4</ele>
        <time>2021-05-27T11:59:04Z</time>
      </trkpt>
      <trkpt lat="45.64008" lon="6.84559">
        <ele>1923</ele>
        <time>2021-05-27T11:59:05Z</time>
      </trkpt>
      <trkpt lat="45.64012" lon="6.84556">
        <ele>1923.2</ele>
        <time>2021-05-27T11:59:06Z</time>
      </trkpt>
      <trkpt lat="45.64016" lon="6.84552">
        <ele>1923.6</ele>
        <time>2021-05-27T11:59:07Z</time>
      </trkpt>
      <trkpt lat="45.6402" lon="6.84548">
        <ele>1924</ele>
        <time>2021-05-27T11:59:08Z</time>
      </trkpt>
      <trkpt lat="45.64023" lon="6.84545">
        <ele>1924.2</ele>
        <time>2021-05-27T11:59:09Z</time>
      </trkpt>
      <trkpt lat="45.64027" lon="6.84542">
        <ele>1924.4</ele>
        <time>2021-05-27T11:59:10Z</time>
      </trkpt>
      <trkpt lat="45.64031" lon="6.84539">
        <ele>1924.6</ele>
        <time>2021-05-27T11:59:11Z</time>
      </trkpt>
      <trkpt lat="45.64035" lon="6.84536">
        <ele>1925.2</ele>
        <time>2021-05-27T11:59:12Z</time>
      </trkpt>
      <trkpt lat="45.64039" lon="6.84534">
        <ele>1925.4</ele>
        <time>2021-05-27T11:59:13Z</time>
      </trkpt>
      <trkpt lat="45.64043" lon="6.84531">
        <ele>1925.8</ele>
        <time>2021-05-27T11:59:14Z</time>
      </trkpt>
      <trkpt lat="45.64047" lon="6.84529">
        <ele>1926</ele>
        <time>2021-05-27T11:59:15Z</time>
      </trkpt>
      <trkpt lat="45.64052" lon="6.84527">
        <ele>1926.4</ele>
        <time>2021-05-27T11:59:16Z</time>
      </trkpt>
      <trkpt lat="45.64055" lon="6.84525">
        <ele>1926.6</ele>
        <time>2021-05-27T11:59:17Z</time>
      </trkpt>
      <trkpt lat="45.64059" lon="6.84522">
        <ele>1927</ele>
        <time>2021-05-27T11:59:18Z</time>
      </trkpt>
      <trkpt lat="45.64063" lon="6.84518">
        <ele>1927.2</ele>
        <time>2021-05-27T11:59:19Z</time>
      </trkpt>
      <trkpt lat="45.64066" lon="6.84515">
        <ele>1927.4</ele>
        <time>2021-05-27T11:59:20Z</time>
      </trkpt>
      <trkpt lat="45.6407" lon="6.84512">
        <ele>1927.4</ele>
        <time>2021-05-27T11:59:21Z</time>
      </trkpt>
      <trkpt lat="45.64074" lon="6.84509">
        <ele>1927.6</ele>
        <time>2021-05-27T11:59:22Z</time>
      </trkpt>
      <trkpt lat="45.64077" lon="6.84505">
        <ele>1927.8</ele>
        <time>2021-05-27T11:59:23Z</time>
      </trkpt>
      <trkpt lat="45.64081" lon="6.84502">
        <ele>1928</ele>
        <time>2021-05-27T11:59:24Z</time>
      </trkpt>
      <trkpt lat="45.64085" lon="6.84498">
        <ele>1928.2</ele>
        <time>2021-05-27T11:59:25Z</time>
      </trkpt>
      <trkpt lat="45.64089" lon="6.84494">
        <ele>1928.2</ele>
        <time>2021-05-27T11:59:26Z</time>
      </trkpt>
      <trkpt lat="45.64092" lon="6.84491">
        <ele>1928.4</ele>
        <time>2021-05-27T11:59:27Z</time>
      </trkpt>
      <trkpt lat="45.64096" lon="6.84488">
        <ele>1928.6</ele>
        <time>2021-05-27T11:59:28Z</time>
      </trkpt>
      <trkpt lat="45.641" lon="6.84484">
        <ele>1929</ele>
        <time>2021-05-27T11:59:29Z</time>
      </trkpt>
      <trkpt lat="45.64104" lon="6.8448">
        <ele>1929</ele>
        <time>2021-05-27T11:59:30Z</time>
      </trkpt>
      <trkpt lat="45.64108" lon="6.84477">
        <ele>1929.4</ele>
        <time>2021-05-27T11:59:31Z</time>
      </trkpt>
      <trkpt lat="45.64111" lon="6.84473">
        <ele>1929.6</ele>
        <time>2021-05-27T11:59:32Z</time>
      </trkpt>
      <trkpt lat="45.64114" lon="6.84469">
        <ele>1929.8</ele>
        <time>2021-05-27T11:59:33Z</time>
      </trkpt>
      <trkpt lat="45.64119" lon="6.84466">
        <ele>1929.6</ele>
        <time>2021-05-27T11:59:34Z</time>
      </trkpt>
      <trkpt lat="45.64123" lon="6.84463">
        <ele>1929.2</ele>
        <time>2021-05-27T11:59:35Z</time>
      </trkpt>
      <trkpt lat="45.64127" lon="6.8446">
        <ele>1929.2</ele>
        <time>2021-05-27T11:59:36Z</time>
      </trkpt>
      <trkpt lat="45.64131" lon="6.84457">
        <ele>1929</ele>
        <time>2021-05-27T11:59:37Z</time>
      </trkpt>
      <trkpt lat="45.64134" lon="6.84454">
        <ele>1928.8</ele>
        <time>2021-05-27T11:59:38Z</time>
      </trkpt>
      <trkpt lat="45.64138" lon="6.84451">
        <ele>1928.8</ele>
        <time>2021-05-27T11:59:39Z</time>
      </trkpt>
      <trkpt lat="45.64141" lon="6.84448">
        <ele>1928.6</ele>
        <time>2021-05-27T11:59:40Z</time>
      </trkpt>
      <trkpt lat="45.64145" lon="6.84445">
        <ele>1928</ele>
        <time>2021-05-27T11:59:41Z</time>
      </trkpt>
      <trkpt lat="45.64149" lon="6.84442">
        <ele>1927.6</ele>
        <time>2021-05-27T11:59:42Z</time>
      </trkpt>
      <trkpt lat="45.64153" lon="6.84439">
        <ele>1927</ele>
        <time>2021-05-27T11:59:43Z</time>
      </trkpt>
      <trkpt lat="45.64157" lon="6.84437">
        <ele>1926.4</ele>
        <time>2021-05-27T11:59:44Z</time>
      </trkpt>
      <trkpt lat="45.64161" lon="6.84435">
        <ele>1926</ele>
        <time>2021-05-27T11:59:45Z</time>
      </trkpt>
      <trkpt lat="45.64165" lon="6.84434">
        <ele>1925.6</ele>
        <time>2021-05-27T11:59:46Z</time>
      </trkpt>
      <trkpt lat="45.64169" lon="6.84433">
        <ele>1925.4</ele>
        <time>2021-05-27T11:59:47Z</time>
      </trkpt>
      <trkpt lat="45.64173" lon="6.84434">
        <ele>1925.4</ele>
        <time>2021-05-27T11:59:48Z</time>
      </trkpt>
      <trkpt lat="45.64177" lon="6.84436">
        <ele>1925.2</ele>
        <time>2021-05-27T11:59:49Z</time>
      </trkpt>
      <trkpt lat="45.64181" lon="6.8444">
        <ele>1925.6</ele>
        <time>2021-05-27T11:59:50Z</time>
      </trkpt>
      <trkpt lat="45.64184" lon="6.84445">
        <ele>1925.4</ele>
        <time>2021-05-27T11:59:51Z</time>
      </trkpt>
      <trkpt lat="45.64186" lon="6.84451">
        <ele>1925.6</ele>
        <time>2021-05-27T11:59:52Z</time>
      </trkpt>
      <trkpt lat="45.64188" lon="6.84456">
        <ele>1926</ele>
        <time>2021-05-27T11:59:53Z</time>
      </trkpt>
      <trkpt lat="45.64191" lon="6.84463">
        <ele>1926.2</ele>
        <time>2021-05-27T11:59:54Z</time>
      </trkpt>
      <trkpt lat="45.64193" lon="6.84468">
        <ele>1926.4</ele>
        <time>2021-05-27T11:59:55Z</time>
      </trkpt>
      <trkpt lat="45.64194" lon="6.84474">
        <ele>1926.6</ele>
        <time>2021-05-27T11:59:56Z</time>
      </trkpt>
      <trkpt lat="45.64196" lon="6.84481">
        <ele>1927</ele>
        <time>2021-05-27T11:59:57Z</time>
      </trkpt>
      <trkpt lat="45.64197" lon="6.84486">
        <ele>1927.4</ele>
        <time>2021-05-27T11:59:58Z</time>
      </trkpt>
      <trkpt lat="45.64199" lon="6.84492">
        <ele>1927.8</ele>
        <time>2021-05-27T11:59:59Z</time>
      </trkpt>
      <trkpt lat="45.64202" lon="6.84498">
        <ele>1927.8</ele>
        <time>2021-05-27T12:00:00Z</time>
      </trkpt>
      <trkpt lat="45.64204" lon="6.84504">
        <ele>1929.2</ele>
        <time>2021-05-27T12:00:01Z</time>
      </trkpt>
      <trkpt lat="45.64205" lon="6.8451">
        <ele>1929.6</ele>
        <time>2021-05-27T12:00:02Z</time>
      </trkpt>
      <trkpt lat="45.64207" lon="6.84515">
        <ele>1930.2</ele>
        <time>2021-05-27T12:00:03Z</time>
      </trkpt>
      <trkpt lat="45.64209" lon="6.84521">
        <ele>1930.6</ele>
        <time>2021-05-27T12:00:04Z</time>
      </trkpt>
      <trkpt lat="45.64212" lon="6.84527">
        <ele>1931</ele>
        <time>2021-05-27T12:00:05Z</time>
      </trkpt>
      <trkpt lat="45.64214" lon="6.84533">
        <ele>1931.4</ele>
        <time>2021-05-27T12:00:06Z</time>
      </trkpt>
      <trkpt lat="45.64217" lon="6.84539">
        <ele>1932</ele>
        <time>2021-05-27T12:00:07Z</time>
      </trkpt>
      <trkpt lat="45.6422" lon="6.84545">
        <ele>1932.4</ele>
        <time>2021-05-27T12:00:08Z</time>
      </trkpt>
      <trkpt lat="45.64222" lon="6.84551">
        <ele>1932.8</ele>
        <time>2021-05-27T12:00:09Z</time>
      </trkpt>
      <trkpt lat="45.64225" lon="6.84556">
        <ele>1933</ele>
        <time>2021-05-27T12:00:10Z</time>
      </trkpt>
      <trkpt lat="45.64229" lon="6.84562">
        <ele>1933.4</ele>
        <time>2021-05-27T12:00:11Z</time>
      </trkpt>
      <trkpt lat="45.64233" lon="6.84568">
        <ele>1933.8</ele>
        <time>2021-05-27T12:00:12Z</time>
      </trkpt>
      <trkpt lat="45.64236" lon="6.84573">
        <ele>1934</ele>
        <time>2021-05-27T12:00:13Z</time>
      </trkpt>
      <trkpt lat="45.6424" lon="6.84578">
        <ele>1934.2</ele>
        <time>2021-05-27T12:00:14Z</time>
      </trkpt>
      <trkpt lat="45.64244" lon="6.84583">
        <ele>1934.6</ele>
        <time>2021-05-27T12:00:15Z</time>
      </trkpt>
      <trkpt lat="45.64248" lon="6.84589">
        <ele>1934.8</ele>
        <time>2021-05-27T12:00:16Z</time>
      </trkpt>
      <trkpt lat="45.64252" lon="6.84594">
        <ele>1935</ele>
        <time>2021-05-27T12:00:17Z</time>
      </trkpt>
      <trkpt lat="45.64256" lon="6.846">
        <ele>1935.4</ele>
        <time>2021-05-27T12:00:18Z</time>
      </trkpt>
      <trkpt lat="45.6426" lon="6.84606">
        <ele>1935.8</ele>
        <time>2021-05-27T12:00:19Z</time>
      </trkpt>
      <trkpt lat="45.64264" lon="6.84612">
        <ele>1936</ele>
        <time>2021-05-27T12:00:20Z</time>
      </trkpt>
      <trkpt lat="45.64267" lon="6.84617">
        <ele>1936.2</ele>
        <time>2021-05-27T12:00:21Z</time>
      </trkpt>
      <trkpt lat="45.64271" lon="6.84623">
        <ele>1936.6</ele>
        <time>2021-05-27T12:00:22Z</time>
      </trkpt>
      <trkpt lat="45.64275" lon="6.8463">
        <ele>1937</ele>
        <time>2021-05-27T12:00:23Z</time>
      </trkpt>
      <trkpt lat="45.64278" lon="6.84636">
        <ele>1937.6</ele>
        <time>2021-05-27T12:00:24Z</time>
      </trkpt>
      <trkpt lat="45.64282" lon="6.84642">
        <ele>1938</ele>
        <time>2021-05-27T12:00:25Z</time>
      </trkpt>
      <trkpt lat="45.64285" lon="6.84648">
        <ele>1938.6</ele>
        <time>2021-05-27T12:00:26Z</time>
      </trkpt>
      <trkpt lat="45.64289" lon="6.84654">
        <ele>1939.2</ele>
        <time>2021-05-27T12:00:27Z</time>
      </trkpt>
      <trkpt lat="45.64292" lon="6.8466">
        <ele>1939.8</ele>
        <time>2021-05-27T12:00:28Z</time>
      </trkpt>
      <trkpt lat="45.64296" lon="6.84666">
        <ele>1940.2</ele>
        <time>2021-05-27T12:00:29Z</time>
      </trkpt>
      <trkpt lat="45.643" lon="6.84672">
        <ele>1940.8</ele>
        <time>2021-05-27T12:00:30Z</time>
      </trkpt>
      <trkpt lat="45.64304" lon="6.84678">
        <ele>1941.6</ele>
        <time>2021-05-27T12:00:31Z</time>
      </trkpt>
      <trkpt lat="45.64308" lon="6.84684">
        <ele>1942.2</ele>
        <time>2021-05-27T12:00:32Z</time>
      </trkpt>
      <trkpt lat="45.64311" lon="6.8469">
        <ele>1943</ele>
        <time>2021-05-27T12:00:33Z</time>
      </trkpt>
      <trkpt lat="45.64315" lon="6.84696">
        <ele>1943.8</ele>
        <time>2021-05-27T12:00:34Z</time>
      </trkpt>
      <trkpt lat="45.64319" lon="6.84701">
        <ele>1944.4</ele>
        <time>2021-05-27T12:00:35Z</time>
      </trkpt>
      <trkpt lat="45.64323" lon="6.84707">
        <ele>1945.2</ele>
        <time>2021-05-27T12:00:36Z</time>
      </trkpt>
      <trkpt lat="45.64326" lon="6.84712">
        <ele>1945.8</ele>
        <time>2021-05-27T12:00:37Z</time>
      </trkpt>
      <trkpt lat="45.6433" lon="6.84717">
        <ele>1946.6</ele>
        <time>2021-05-27T12:00:38Z</time>
      </trkpt>
      <trkpt lat="45.64334" lon="6.84722">
        <ele>1947.4</ele>
        <time>2021-05-27T12:00:39Z</time>
      </trkpt>
      <trkpt lat="45.64338" lon="6.84727">
        <ele>1948</ele>
        <time>2021-05-27T12:00:40Z</time>
      </trkpt>
      <trkpt lat="45.64342" lon="6.84731">
        <ele>1948.6</ele>
        <time>2021-05-27T12:00:41Z</time>
      </trkpt>
      <trkpt lat="45.64346" lon="6.84735">
        <ele>1949.2</ele>
        <time>2021-05-27T12:00:42Z</time>
      </trkpt>
      <trkpt lat="45.6435" lon="6.84739">
        <ele>1949.8</ele>
        <time>2021-05-27T12:00:43Z</time>
      </trkpt>
      <trkpt lat="45.64354" lon="6.84743">
        <ele>1950.6</ele>
        <time>2021-05-27T12:00:44Z</time>
      </trkpt>
      <trkpt lat="45.64358" lon="6.84747">
        <ele>1951.4</ele>
        <time>2021-05-27T12:00:45Z</time>
      </trkpt>
      <trkpt lat="45.64362" lon="6.84751">
        <ele>1952</ele>
        <time>2021-05-27T12:00:46Z</time>
      </trkpt>
      <trkpt lat="45.64365" lon="6.84755">
        <ele>1952.8</ele>
        <time>2021-05-27T12:00:47Z</time>
      </trkpt>
      <trkpt lat="45.64369" lon="6.84759">
        <ele>1953.4</ele>
        <time>2021-05-27T12:00:48Z</time>
      </trkpt>
      <trkpt lat="45.64373" lon="6.84762">
        <ele>1954</ele>
        <time>2021-05-27T12:00:49Z</time>
      </trkpt>
      <trkpt lat="45.64377" lon="6.84764">
        <ele>1954.8</ele>
        <time>2021-05-27T12:00:50Z</time>
      </trkpt>
      <trkpt lat="45.64381" lon="6.84767">
        <ele>1955.2</ele>
        <time>2021-05-27T12:00:51Z</time>
      </trkpt>
      <trkpt lat="45.64386" lon="6.84769">
        <ele>1955.6</ele>
        <time>2021-05-27T12:00:52Z</time>
      </trkpt>
      <trkpt lat="45.64391" lon="6.8477">
        <ele>1956.2</ele>
        <time>2021-05-27T12:00:53Z</time>
      </trkpt>
      <trkpt lat="45.64395" lon="6.84772">
        <ele>1956.8</ele>
        <time>2021-05-27T12:00:54Z</time>
      </trkpt>
      <trkpt lat="45.644" lon="6.84774">
        <ele>1957.4</ele>
        <time>2021-05-27T12:00:55Z</time>
      </trkpt>
      <trkpt lat="45.64405" lon="6.84776">
        <ele>1957.8</ele>
        <time>2021-05-27T12:00:56Z</time>
      </trkpt>
      <trkpt lat="45.6441" lon="6.84778">
        <ele>1958.2</ele>
        <time>2021-05-27T12:00:57Z</time>
      </trkpt>
      <trkpt lat="45.64414" lon="6.8478">
        <ele>1958.6</ele>
        <time>2021-05-27T12:00:58Z</time>
      </trkpt>
      <trkpt lat="45.64419" lon="6.84783">
        <ele>1959.2</ele>
        <time>2021-05-27T12:00:59Z</time>
      </trkpt>
      <trkpt lat="45.64424" lon="6.84786">
        <ele>1959.6</ele>
        <time>2021-05-27T12:01:00Z</time>
      </trkpt>
      <trkpt lat="45.64428" lon="6.84789">
        <ele>1960.2</ele>
        <time>2021-05-27T12:01:01Z</time>
      </trkpt>
      <trkpt lat="45.64432" lon="6.84793">
        <ele>1960.6</ele>
        <time>2021-05-27T12:01:02Z</time>
      </trkpt>
      <trkpt lat="45.64436" lon="6.84796">
        <ele>1961.2</ele>
        <time>2021-05-27T12:01:03Z</time>
      </trkpt>
      <trkpt lat="45.6444" lon="6.848">
        <ele>1961.8</ele>
        <time>2021-05-27T12:01:04Z</time>
      </trkpt>
      <trkpt lat="45.64444" lon="6.84805">
        <ele>1962.2</ele>
        <time>2021-05-27T12:01:05Z</time>
      </trkpt>
      <trkpt lat="45.64449" lon="6.84809">
        <ele>1962.8</ele>
        <time>2021-05-27T12:01:06Z</time>
      </trkpt>
      <trkpt lat="45.64452" lon="6.84814">
        <ele>1963.2</ele>
        <time>2021-05-27T12:01:07Z</time>
      </trkpt>
      <trkpt lat="45.64456" lon="6.84819">
        <ele>1963.8</ele>
        <time>2021-05-27T12:01:08Z</time>
      </trkpt>
      <trkpt lat="45.64459" lon="6.84824">
        <ele>1964.2</ele>
        <time>2021-05-27T12:01:09Z</time>
      </trkpt>
      <trkpt lat="45.64462" lon="6.8483">
        <ele>1964.4</ele>
        <time>2021-05-27T12:01:10Z</time>
      </trkpt>
      <trkpt lat="45.64466" lon="6.84836">
        <ele>1964.6</ele>
        <time>2021-05-27T12:01:11Z</time>
      </trkpt>
      <trkpt lat="45.64469" lon="6.84842">
        <ele>1965</ele>
        <time>2021-05-27T12:01:12Z</time>
      </trkpt>
      <trkpt lat="45.64472" lon="6.84848">
        <ele>1965.6</ele>
        <time>2021-05-27T12:01:13Z</time>
      </trkpt>
      <trkpt lat="45.64475" lon="6.84854">
        <ele>1965.8</ele>
        <time>2021-05-27T12:01:14Z</time>
      </trkpt>
      <trkpt lat="45.64478" lon="6.8486">
        <ele>1966</ele>
        <time>2021-05-27T12:01:15Z</time>
      </trkpt>
      <trkpt lat="45.64481" lon="6.84865">
        <ele>1966.4</ele>
        <time>2021-05-27T12:01:16Z</time>
      </trkpt>
      <trkpt lat="45.64484" lon="6.84872">
        <ele>1966.8</ele>
        <time>2021-05-27T12:01:17Z</time>
      </trkpt>
      <trkpt lat="45.64487" lon="6.84877">
        <ele>1967.4</ele>
        <time>2021-05-27T12:01:18Z</time>
      </trkpt>
      <trkpt lat="45.6449" lon="6.84883">
        <ele>1967.8</ele>
        <time>2021-05-27T12:01:19Z</time>
      </trkpt>
      <trkpt lat="45.64492" lon="6.84889">
        <ele>1968.2</ele>
        <time>2021-05-27T12:01:20Z</time>
      </trkpt>
      <trkpt lat="45.64495" lon="6.84894">
        <ele>1968.8</ele>
        <time>2021-05-27T12:01:21Z</time>
      </trkpt>
      <trkpt lat="45.64499" lon="6.849">
        <ele>1969.2</ele>
        <time>2021-05-27T12:01:22Z</time>
      </trkpt>
      <trkpt lat="45.64502" lon="6.84904">
        <ele>1969.6</ele>
        <time>2021-05-27T12:01:23Z</time>
      </trkpt>
      <trkpt lat="45.64505" lon="6.84909">
        <ele>1970</ele>
        <time>2021-05-27T12:01:24Z</time>
      </trkpt>
      <trkpt lat="45.64509" lon="6.84914">
        <ele>1970.4</ele>
        <time>2021-05-27T12:01:25Z</time>
      </trkpt>
      <trkpt lat="45.64513" lon="6.84918">
        <ele>1970.6</ele>
        <time>2021-05-27T12:01:26Z</time>
      </trkpt>
      <trkpt lat="45.64516" lon="6.84922">
        <ele>1971</ele>
        <time>2021-05-27T12:01:27Z</time>
      </trkpt>
      <trkpt lat="45.64521" lon="6.84926">
        <ele>1971.4</ele>
        <time>2021-05-27T12:01:28Z</time>
      </trkpt>
      <trkpt lat="45.64525" lon="6.8493">
        <ele>1971.8</ele>
        <time>2021-05-27T12:01:29Z</time>
      </trkpt>
      <trkpt lat="45.64529" lon="6.84935">
        <ele>1972</ele>
        <time>2021-05-27T12:01:30Z</time>
      </trkpt>
      <trkpt lat="45.64532" lon="6.84939">
        <ele>1972.4</ele>
        <time>2021-05-27T12:01:31Z</time>
      </trkpt>
      <trkpt lat="45.64536" lon="6.84943">
        <ele>1972.8</ele>
        <time>2021-05-27T12:01:32Z</time>
      </trkpt>
      <trkpt lat="45.6454" lon="6.84948">
        <ele>1973</ele>
        <time>2021-05-27T12:01:33Z</time>
      </trkpt>
      <trkpt lat="45.64543" lon="6.84952">
        <ele>1973.4</ele>
        <time>2021-05-27T12:01:34Z</time>
      </trkpt>
      <trkpt lat="45.64546" lon="6.84957">
        <ele>1973.8</ele>
        <time>2021-05-27T12:01:35Z</time>
      </trkpt>
      <trkpt lat="45.64549" lon="6.84962">
        <ele>1974</ele>
        <time>2021-05-27T12:01:36Z</time>
      </trkpt>
      <trkpt lat="45.64552" lon="6.84967">
        <ele>1974</ele>
        <time>2021-05-27T12:01:37Z</time>
      </trkpt>
      <trkpt lat="45.64554" lon="6.84972">
        <ele>1973.6</ele>
        <time>2021-05-27T12:01:38Z</time>
      </trkpt>
      <trkpt lat="45.64556" lon="6.84977">
        <ele>1972.8</ele>
        <time>2021-05-27T12:01:39Z</time>
      </trkpt>
      <trkpt lat="45.64558" lon="6.84982">
        <ele>1971.8</ele>
        <time>2021-05-27T12:01:40Z</time>
      </trkpt>
      <trkpt lat="45.64561" lon="6.84988">
        <ele>1970.8</ele>
        <time>2021-05-27T12:01:41Z</time>
      </trkpt>
      <trkpt lat="45.64564" lon="6.84993">
        <ele>1970</ele>
        <time>2021-05-27T12:01:42Z</time>
      </trkpt>
      <trkpt lat="45.64566" lon="6.84998">
        <ele>1969.2</ele>
        <time>2021-05-27T12:01:43Z</time>
      </trkpt>
      <trkpt lat="45.64569" lon="6.85003">
        <ele>1968.6</ele>
        <time>2021-05-27T12:01:44Z</time>
      </trkpt>
      <trkpt lat="45.64572" lon="6.85008">
        <ele>1968</ele>
        <time>2021-05-27T12:01:45Z</time>
      </trkpt>
      <trkpt lat="45.64575" lon="6.85013">
        <ele>1967.6</ele>
        <time>2021-05-27T12:01:46Z</time>
      </trkpt>
      <trkpt lat="45.64579" lon="6.85018">
        <ele>1967.4</ele>
        <time>2021-05-27T12:01:47Z</time>
      </trkpt>
      <trkpt lat="45.64582" lon="6.85023">
        <ele>1967.4</ele>
        <time>2021-05-27T12:01:48Z</time>
      </trkpt>
      <trkpt lat="45.64586" lon="6.85029">
        <ele>1967.4</ele>
        <time>2021-05-27T12:01:49Z</time>
      </trkpt>
      <trkpt lat="45.64589" lon="6.85034">
        <ele>1967.4</ele>
        <time>2021-05-27T12:01:50Z</time>
      </trkpt>
      <trkpt lat="45.64592" lon="6.85039">
        <ele>1967.6</ele>
        <time>2021-05-27T12:01:51Z</time>
      </trkpt>
      <trkpt lat="45.64596" lon="6.85044">
        <ele>1968</ele>
        <time>2021-05-27T12:01:52Z</time>
      </trkpt>
      <trkpt lat="45.646" lon="6.85048">
        <ele>1968.2</ele>
        <time>2021-05-27T12:01:53Z</time>
      </trkpt>
      <trkpt lat="45.64604" lon="6.85053">
        <ele>1968.4</ele>
        <time>2021-05-27T12:01:54Z</time>
      </trkpt>
      <trkpt lat="45.64607" lon="6.85058">
        <ele>1968.6</ele>
        <time>2021-05-27T12:01:55Z</time>
      </trkpt>
      <trkpt lat="45.64611" lon="6.85062">
        <ele>1969</ele>
        <time>2021-05-27T12:01:56Z</time>
      </trkpt>
      <trkpt lat="45.64614" lon="6.85067">
        <ele>1969.2</ele>
        <time>2021-05-27T12:01:57Z</time>
      </trkpt>
      <trkpt lat="45.64617" lon="6.85071">
        <ele>1969.6</ele>
        <time>2021-05-27T12:01:58Z</time>
      </trkpt>
      <trkpt lat="45.6462" lon="6.85075">
        <ele>1970.2</ele>
        <time>2021-05-27T12:01:59Z</time>
      </trkpt>
      <trkpt lat="45.64624" lon="6.8508">
        <ele>1970.6</ele>
        <time>2021-05-27T12:02:00Z</time>
      </trkpt>
      <trkpt lat="45.64628" lon="6.85084">
        <ele>1971.2</ele>
        <time>2021-05-27T12:02:01Z</time>
      </trkpt>
      <trkpt lat="45.64632" lon="6.85089">
        <ele>1971.4</ele>
        <time>2021-05-27T12:02:02Z</time>
      </trkpt>
      <trkpt lat="45.64635" lon="6.85093">
        <ele>1972</ele>
        <time>2021-05-27T12:02:03Z</time>
      </trkpt>
      <trkpt lat="45.64638" lon="6.85098">
        <ele>1972.6</ele>
        <time>2021-05-27T12:02:04Z</time>
      </trkpt>
      <trkpt lat="45.64641" lon="6.85103">
        <ele>1972.8</ele>
        <time>2021-05-27T12:02:05Z</time>
      </trkpt>
      <trkpt lat="45.64644" lon="6.85107">
        <ele>1973.4</ele>
        <time>2021-05-27T12:02:06Z</time>
      </trkpt>
      <trkpt lat="45.64647" lon="6.85112">
        <ele>1973.8</ele>
        <time>2021-05-27T12:02:07Z</time>
      </trkpt>
      <trkpt lat="45.6465" lon="6.85116">
        <ele>1974.6</ele>
        <time>2021-05-27T12:02:08Z</time>
      </trkpt>
      <trkpt lat="45.64653" lon="6.8512">
        <ele>1975.2</ele>
        <time>2021-05-27T12:02:09Z</time>
      </trkpt>
      <trkpt lat="45.64656" lon="6.85124">
        <ele>1975.8</ele>
        <time>2021-05-27T12:02:10Z</time>
      </trkpt>
      <trkpt lat="45.6466" lon="6.85128">
        <ele>1976.2</ele>
        <time>2021-05-27T12:02:11Z</time>
      </trkpt>
      <trkpt lat="45.64663" lon="6.85132">
        <ele>1976.8</ele>
        <time>2021-05-27T12:02:12Z</time>
      </trkpt>
      <trkpt lat="45.64666" lon="6.85137">
        <ele>1977.4</ele>
        <time>2021-05-27T12:02:13Z</time>
      </trkpt>
      <trkpt lat="45.64669" lon="6.85141">
        <ele>1978</ele>
        <time>2021-05-27T12:02:14Z</time>
      </trkpt>
      <trkpt lat="45.64672" lon="6.85146">
        <ele>1978.2</ele>
        <time>2021-05-27T12:02:15Z</time>
      </trkpt>
      <trkpt lat="45.64676" lon="6.8515">
        <ele>1978.6</ele>
        <time>2021-05-27T12:02:16Z</time>
      </trkpt>
      <trkpt lat="45.64679" lon="6.85154">
        <ele>1979</ele>
        <time>2021-05-27T12:02:17Z</time>
      </trkpt>
      <trkpt lat="45.64682" lon="6.85159">
        <ele>1979.2</ele>
        <time>2021-05-27T12:02:18Z</time>
      </trkpt>
      <trkpt lat="45.64685" lon="6.85163">
        <ele>1979.2</ele>
        <time>2021-05-27T12:02:19Z</time>
      </trkpt>
      <trkpt lat="45.64688" lon="6.85167">
        <ele>1980</ele>
        <time>2021-05-27T12:02:20Z</time>
      </trkpt>
      <trkpt lat="45.6469" lon="6.85171">
        <ele>1980.6</ele>
        <time>2021-05-27T12:02:21Z</time>
      </trkpt>
      <trkpt lat="45.64693" lon="6.85175">
        <ele>1980.6</ele>
        <time>2021-05-27T12:02:22Z</time>
      </trkpt>
      <trkpt lat="45.64695" lon="6.85179">
        <ele>1980.4</ele>
        <time>2021-05-27T12:02:23Z</time>
      </trkpt>
      <trkpt lat="45.64698" lon="6.85182">
        <ele>1980</ele>
        <time>2021-05-27T12:02:24Z</time>
      </trkpt>
      <trkpt lat="45.647" lon="6.85186">
        <ele>1979.4</ele>
        <time>2021-05-27T12:02:25Z</time>
      </trkpt>
      <trkpt lat="45.64703" lon="6.85189">
        <ele>1978.6</ele>
        <time>2021-05-27T12:02:26Z</time>
      </trkpt>
      <trkpt lat="45.64706" lon="6.85193">
        <ele>1977.8</ele>
        <time>2021-05-27T12:02:27Z</time>
      </trkpt>
      <trkpt lat="45.64708" lon="6.85197">
        <ele>1976.8</ele>
        <time>2021-05-27T12:02:28Z</time>
      </trkpt>
      <trkpt lat="45.64712" lon="6.85201">
        <ele>1975.8</ele>
        <time>2021-05-27T12:02:29Z</time>
      </trkpt>
      <trkpt lat="45.64716" lon="6.85204">
        <ele>1974.8</ele>
        <time>2021-05-27T12:02:30Z</time>
      </trkpt>
      <trkpt lat="45.6472" lon="6.85207">
        <ele>1974</ele>
        <time>2021-05-27T12:02:31Z</time>
      </trkpt>
      <trkpt lat="45.64724" lon="6.85209">
        <ele>1973.6</ele>
        <time>2021-05-27T12:02:32Z</time>
      </trkpt>
      <trkpt lat="45.64728" lon="6.8521">
        <ele>1973.8</ele>
        <time>2021-05-27T12:02:33Z</time>
      </trkpt>
      <trkpt lat="45.64733" lon="6.85212">
        <ele>1973.8</ele>
        <time>2021-05-27T12:02:34Z</time>
      </trkpt>
      <trkpt lat="45.64737" lon="6.85212">
        <ele>1974</ele>
        <time>2021-05-27T12:02:35Z</time>
      </trkpt>
      <trkpt lat="45.64743" lon="6.85214">
        <ele>1974.4</ele>
        <time>2021-05-27T12:02:36Z</time>
      </trkpt>
      <trkpt lat="45.64747" lon="6.85215">
        <ele>1974.8</ele>
        <time>2021-05-27T12:02:37Z</time>
      </trkpt>
      <trkpt lat="45.64751" lon="6.85216">
        <ele>1974.8</ele>
        <time>2021-05-27T12:02:38Z</time>
      </trkpt>
      <trkpt lat="45.64756" lon="6.85217">
        <ele>1974.8</ele>
        <time>2021-05-27T12:02:39Z</time>
      </trkpt>
      <trkpt lat="45.6476" lon="6.85218">
        <ele>1974.6</ele>
        <time>2021-05-27T12:02:40Z</time>
      </trkpt>
      <trkpt lat="45.64765" lon="6.8522">
        <ele>1974.6</ele>
        <time>2021-05-27T12:02:41Z</time>
      </trkpt>
      <trkpt lat="45.6477" lon="6.85222">
        <ele>1974.6</ele>
        <time>2021-05-27T12:02:42Z</time>
      </trkpt>
      <trkpt lat="45.64775" lon="6.85224">
        <ele>1975</ele>
        <time>2021-05-27T12:02:43Z</time>
      </trkpt>
      <trkpt lat="45.64779" lon="6.85226">
        <ele>1975.2</ele>
        <time>2021-05-27T12:02:44Z</time>
      </trkpt>
      <trkpt lat="45.64784" lon="6.8523">
        <ele>1975.2</ele>
        <time>2021-05-27T12:02:45Z</time>
      </trkpt>
      <trkpt lat="45.64788" lon="6.85233">
        <ele>1975.2</ele>
        <time>2021-05-27T12:02:46Z</time>
      </trkpt>
      <trkpt lat="45.64793" lon="6.85236">
        <ele>1975.4</ele>
        <time>2021-05-27T12:02:47Z</time>
      </trkpt>
      <trkpt lat="45.64798" lon="6.85238">
        <ele>1975.8</ele>
        <time>2021-05-27T12:02:48Z</time>
      </trkpt>
      <trkpt lat="45.64802" lon="6.85241">
        <ele>1976.2</ele>
        <time>2021-05-27T12:02:49Z</time>
      </trkpt>
      <trkpt lat="45.64807" lon="6.85244">
        <ele>1976.4</ele>
        <time>2021-05-27T12:02:50Z</time>
      </trkpt>
      <trkpt lat="45.64812" lon="6.85247">
        <ele>1976.8</ele>
        <time>2021-05-27T12:02:51Z</time>
      </trkpt>
      <trkpt lat="45.64816" lon="6.8525">
        <ele>1977</ele>
        <time>2021-05-27T12:02:52Z</time>
      </trkpt>
      <trkpt lat="45.64821" lon="6.85252">
        <ele>1977.4</ele>
        <time>2021-05-27T12:02:53Z</time>
      </trkpt>
      <trkpt lat="45.64826" lon="6.85255">
        <ele>1977.8</ele>
        <time>2021-05-27T12:02:54Z</time>
      </trkpt>
      <trkpt lat="45.64831" lon="6.85258">
        <ele>1978.2</ele>
        <time>2021-05-27T12:02:55Z</time>
      </trkpt>
      <trkpt lat="45.64837" lon="6.8526">
        <ele>1978.8</ele>
        <time>2021-05-27T12:02:56Z</time>
      </trkpt>
      <trkpt lat="45.64842" lon="6.85263">
        <ele>1979.2</ele>
        <time>2021-05-27T12:02:57Z</time>
      </trkpt>
      <trkpt lat="45.64847" lon="6.85266">
        <ele>1979.6</ele>
        <time>2021-05-27T12:02:58Z</time>
      </trkpt>
      <trkpt lat="45.64852" lon="6.85268">
        <ele>1980.2</ele>
        <time>2021-05-27T12:02:59Z</time>
      </trkpt>
      <trkpt lat="45.64856" lon="6.85271">
        <ele>1980.6</ele>
        <time>2021-05-27T12:03:00Z</time>
      </trkpt>
      <trkpt lat="45.64861" lon="6.85273">
        <ele>1981</ele>
        <time>2021-05-27T12:03:01Z</time>
      </trkpt>
      <trkpt lat="45.64866" lon="6.85275">
        <ele>1981.2</ele>
        <time>2021-05-27T12:03:02Z</time>
      </trkpt>
      <trkpt lat="45.64871" lon="6.85278">
        <ele>1981.6</ele>
        <time>2021-05-27T12:03:03Z</time>
      </trkpt>
      <trkpt lat="45.64876" lon="6.85281">
        <ele>1982</ele>
        <time>2021-05-27T12:03:04Z</time>
      </trkpt>
      <trkpt lat="45.64882" lon="6.85284">
        <ele>1982.4</ele>
        <time>2021-05-27T12:03:05Z</time>
      </trkpt>
      <trkpt lat="45.64886" lon="6.85287">
        <ele>1983</ele>
        <time>2021-05-27T12:03:06Z</time>
      </trkpt>
      <trkpt lat="45.64892" lon="6.8529">
        <ele>1983.4</ele>
        <time>2021-05-27T12:03:07Z</time>
      </trkpt>
      <trkpt lat="45.64896" lon="6.85294">
        <ele>1984</ele>
        <time>2021-05-27T12:03:08Z</time>
      </trkpt>
      <trkpt lat="45.64901" lon="6.85298">
        <ele>1984.4</ele>
        <time>2021-05-27T12:03:09Z</time>
      </trkpt>
      <trkpt lat="45.64905" lon="6.85303">
        <ele>1985</ele>
        <time>2021-05-27T12:03:10Z</time>
      </trkpt>
      <trkpt lat="45.64908" lon="6.85308">
        <ele>1985.4</ele>
        <time>2021-05-27T12:03:11Z</time>
      </trkpt>
      <trkpt lat="45.64912" lon="6.85314">
        <ele>1985.8</ele>
        <time>2021-05-27T12:03:12Z</time>
      </trkpt>
      <trkpt lat="45.64915" lon="6.8532">
        <ele>1986.4</ele>
        <time>2021-05-27T12:03:13Z</time>
      </trkpt>
      <trkpt lat="45.64918" lon="6.85326">
        <ele>1986.8</ele>
        <time>2021-05-27T12:03:14Z</time>
      </trkpt>
      <trkpt lat="45.6492" lon="6.85332">
        <ele>1987.4</ele>
        <time>2021-05-27T12:03:15Z</time>
      </trkpt>
      <trkpt lat="45.64923" lon="6.85338">
        <ele>1987.6</ele>
        <time>2021-05-27T12:03:16Z</time>
      </trkpt>
      <trkpt lat="45.64926" lon="6.85344">
        <ele>1988.2</ele>
        <time>2021-05-27T12:03:17Z</time>
      </trkpt>
      <trkpt lat="45.64928" lon="6.8535">
        <ele>1988.2</ele>
        <time>2021-05-27T12:03:18Z</time>
      </trkpt>
      <trkpt lat="45.64931" lon="6.85356">
        <ele>1988.6</ele>
        <time>2021-05-27T12:03:19Z</time>
      </trkpt>
      <trkpt lat="45.64933" lon="6.85362">
        <ele>1989</ele>
        <time>2021-05-27T12:03:20Z</time>
      </trkpt>
      <trkpt lat="45.64936" lon="6.85368">
        <ele>1989.4</ele>
        <time>2021-05-27T12:03:21Z</time>
      </trkpt>
      <trkpt lat="45.64939" lon="6.85373">
        <ele>1990</ele>
        <time>2021-05-27T12:03:22Z</time>
      </trkpt>
      <trkpt lat="45.64941" lon="6.85379">
        <ele>1990.2</ele>
        <time>2021-05-27T12:03:23Z</time>
      </trkpt>
      <trkpt lat="45.64944" lon="6.85384">
        <ele>1990.6</ele>
        <time>2021-05-27T12:03:24Z</time>
      </trkpt>
      <trkpt lat="45.64946" lon="6.8539">
        <ele>1991.2</ele>
        <time>2021-05-27T12:03:25Z</time>
      </trkpt>
      <trkpt lat="45.64949" lon="6.85395">
        <ele>1991.6</ele>
        <time>2021-05-27T12:03:26Z</time>
      </trkpt>
      <trkpt lat="45.64951" lon="6.854">
        <ele>1991.6</ele>
        <time>2021-05-27T12:03:27Z</time>
      </trkpt>
      <trkpt lat="45.64954" lon="6.85406">
        <ele>1992</ele>
        <time>2021-05-27T12:03:28Z</time>
      </trkpt>
      <trkpt lat="45.64956" lon="6.85411">
        <ele>1992.4</ele>
        <time>2021-05-27T12:03:29Z</time>
      </trkpt>
      <trkpt lat="45.64958" lon="6.85416">
        <ele>1992.8</ele>
        <time>2021-05-27T12:03:30Z</time>
      </trkpt>
      <trkpt lat="45.6496" lon="6.85421">
        <ele>1993.6</ele>
        <time>2021-05-27T12:03:31Z</time>
      </trkpt>
      <trkpt lat="45.64962" lon="6.85427">
        <ele>1994</ele>
        <time>2021-05-27T12:03:32Z</time>
      </trkpt>
      <trkpt lat="45.64964" lon="6.85432">
        <ele>1994.6</ele>
        <time>2021-05-27T12:03:33Z</time>
      </trkpt>
      <trkpt lat="45.64965" lon="6.85438">
        <ele>1994.6</ele>
        <time>2021-05-27T12:03:34Z</time>
      </trkpt>
      <trkpt lat="45.64967" lon="6.85444">
        <ele>1994.4</ele>
        <time>2021-05-27T12:03:35Z</time>
      </trkpt>
      <trkpt lat="45.64968" lon="6.8545">
        <ele>1994.6</ele>
        <time>2021-05-27T12:03:36Z</time>
      </trkpt>
      <trkpt lat="45.64969" lon="6.85456">
        <ele>1994.6</ele>
        <time>2021-05-27T12:03:37Z</time>
      </trkpt>
      <trkpt lat="45.6497" lon="6.85462">
        <ele>1995</ele>
        <time>2021-05-27T12:03:38Z</time>
      </trkpt>
      <trkpt lat="45.64971" lon="6.85468">
        <ele>1995</ele>
        <time>2021-05-27T12:03:39Z</time>
      </trkpt>
      <trkpt lat="45.64972" lon="6.85474">
        <ele>1995</ele>
        <time>2021-05-27T12:03:40Z</time>
      </trkpt>
      <trkpt lat="45.64973" lon="6.85481">
        <ele>1994.8</ele>
        <time>2021-05-27T12:03:41Z</time>
      </trkpt>
      <trkpt lat="45.64974" lon="6.85487">
        <ele>1994.8</ele>
        <time>2021-05-27T12:03:42Z</time>
      </trkpt>
      <trkpt lat="45.64976" lon="6.85492">
        <ele>1995</ele>
        <time>2021-05-27T12:03:43Z</time>
      </trkpt>
      <trkpt lat="45.64979" lon="6.85499">
        <ele>1995.2</ele>
        <time>2021-05-27T12:03:44Z</time>
      </trkpt>
      <trkpt lat="45.6498" lon="6.85504">
        <ele>1995.6</ele>
        <time>2021-05-27T12:03:45Z</time>
      </trkpt>
      <trkpt lat="45.64982" lon="6.85509">
        <ele>1996</ele>
        <time>2021-05-27T12:03:46Z</time>
      </trkpt>
      <trkpt lat="45.64985" lon="6.85514">
        <ele>1996.2</ele>
        <time>2021-05-27T12:03:47Z</time>
      </trkpt>
      <trkpt lat="45.64987" lon="6.85518">
        <ele>1996.6</ele>
        <time>2021-05-27T12:03:48Z</time>
      </trkpt>
      <trkpt lat="45.6499" lon="6.85523">
        <ele>1997</ele>
        <time>2021-05-27T12:03:49Z</time>
      </trkpt>
      <trkpt lat="45.64993" lon="6.85528">
        <ele>1997.4</ele>
        <time>2021-05-27T12:03:50Z</time>
      </trkpt>
      <trkpt lat="45.64996" lon="6.85532">
        <ele>1997.8</ele>
        <time>2021-05-27T12:03:51Z</time>
      </trkpt>
      <trkpt lat="45.64999" lon="6.85537">
        <ele>1998.2</ele>
        <time>2021-05-27T12:03:52Z</time>
      </trkpt>
      <trkpt lat="45.65003" lon="6.85542">
        <ele>1998.6</ele>
        <time>2021-05-27T12:03:53Z</time>
      </trkpt>
      <trkpt lat="45.65005" lon="6.85545">
        <ele>1998.6</ele>
        <time>2021-05-27T12:03:54Z</time>
      </trkpt>
      <trkpt lat="45.65008" lon="6.85549">
        <ele>1999</ele>
        <time>2021-05-27T12:03:55Z</time>
      </trkpt>
      <trkpt lat="45.65011" lon="6.85554">
        <ele>1999</ele>
        <time>2021-05-27T12:03:56Z</time>
      </trkpt>
      <trkpt lat="45.65014" lon="6.85558">
        <ele>1999</ele>
        <time>2021-05-27T12:03:57Z</time>
      </trkpt>
      <trkpt lat="45.65017" lon="6.85562">
        <ele>1999.2</ele>
        <time>2021-05-27T12:03:58Z</time>
      </trkpt>
      <trkpt lat="45.65019" lon="6.85567">
        <ele>1999.6</ele>
        <time>2021-05-27T12:03:59Z</time>
      </trkpt>
      <trkpt lat="45.65021" lon="6.85572">
        <ele>2000</ele>
        <time>2021-05-27T12:04:00Z</time>
      </trkpt>
      <trkpt lat="45.65023" lon="6.85578">
        <ele>2000.4</ele>
        <time>2021-05-27T12:04:01Z</time>
      </trkpt>
      <trkpt lat="45.65025" lon="6.85583">
        <ele>2000.4</ele>
        <time>2021-05-27T12:04:02Z</time>
      </trkpt>
      <trkpt lat="45.65027" lon="6.85588">
        <ele>2000.8</ele>
        <time>2021-05-27T12:04:03Z</time>
      </trkpt>
      <trkpt lat="45.6503" lon="6.85594">
        <ele>2001.2</ele>
        <time>2021-05-27T12:04:04Z</time>
      </trkpt>
      <trkpt lat="45.65033" lon="6.856">
        <ele>2001.2</ele>
        <time>2021-05-27T12:04:05Z</time>
      </trkpt>
      <trkpt lat="45.65035" lon="6.85606">
        <ele>2001.2</ele>
        <time>2021-05-27T12:04:06Z</time>
      </trkpt>
      <trkpt lat="45.65036" lon="6.85611">
        <ele>2001.2</ele>
        <time>2021-05-27T12:04:07Z</time>
      </trkpt>
      <trkpt lat="45.65038" lon="6.85615">
        <ele>2001</ele>
        <time>2021-05-27T12:04:08Z</time>
      </trkpt>
      <trkpt lat="45.6504" lon="6.8562">
        <ele>2000.8</ele>
        <time>2021-05-27T12:04:09Z</time>
      </trkpt>
      <trkpt lat="45.65043" lon="6.85626">
        <ele>2000.8</ele>
        <time>2021-05-27T12:04:10Z</time>
      </trkpt>
      <trkpt lat="45.65046" lon="6.8563">
        <ele>2001</ele>
        <time>2021-05-27T12:04:11Z</time>
      </trkpt>
      <trkpt lat="45.6505" lon="6.85635">
        <ele>2001</ele>
        <time>2021-05-27T12:04:12Z</time>
      </trkpt>
      <trkpt lat="45.65053" lon="6.85639">
        <ele>2001.2</ele>
        <time>2021-05-27T12:04:13Z</time>
      </trkpt>
      <trkpt lat="45.65056" lon="6.85643">
        <ele>2001.4</ele>
        <time>2021-05-27T12:04:14Z</time>
      </trkpt>
      <trkpt lat="45.6506" lon="6.85648">
        <ele>2001.6</ele>
        <time>2021-05-27T12:04:15Z</time>
      </trkpt>
      <trkpt lat="45.65063" lon="6.85651">
        <ele>2001.4</ele>
        <time>2021-05-27T12:04:16Z</time>
      </trkpt>
      <trkpt lat="45.65067" lon="6.85655">
        <ele>2001.6</ele>
        <time>2021-05-27T12:04:17Z</time>
      </trkpt>
      <trkpt lat="45.65071" lon="6.85658">
        <ele>2002</ele>
        <time>2021-05-27T12:04:18Z</time>
      </trkpt>
      <trkpt lat="45.65076" lon="6.85661">
        <ele>2002.2</ele>
        <time>2021-05-27T12:04:19Z</time>
      </trkpt>
      <trkpt lat="45.65081" lon="6.85664">
        <ele>2002.6</ele>
        <time>2021-05-27T12:04:20Z</time>
      </trkpt>
      <trkpt lat="45.65084" lon="6.85666">
        <ele>2002.6</ele>
        <time>2021-05-27T12:04:21Z</time>
      </trkpt>
      <trkpt lat="45.65089" lon="6.85669">
        <ele>2002.8</ele>
        <time>2021-05-27T12:04:22Z</time>
      </trkpt>
      <trkpt lat="45.65096" lon="6.85673">
        <ele>2002.8</ele>
        <time>2021-05-27T12:04:23Z</time>
      </trkpt>
      <trkpt lat="45.65101" lon="6.85677">
        <ele>2002.8</ele>
        <time>2021-05-27T12:04:24Z</time>
      </trkpt>
      <trkpt lat="45.65107" lon="6.8568">
        <ele>2002.8</ele>
        <time>2021-05-27T12:04:25Z</time>
      </trkpt>
      <trkpt lat="45.65115" lon="6.85682">
        <ele>2003</ele>
        <time>2021-05-27T12:04:26Z</time>
      </trkpt>
      <trkpt lat="45.65122" lon="6.85686">
        <ele>2003.6</ele>
        <time>2021-05-27T12:04:27Z</time>
      </trkpt>
      <trkpt lat="45.65127" lon="6.8569">
        <ele>2003.8</ele>
        <time>2021-05-27T12:04:28Z</time>
      </trkpt>
      <trkpt lat="45.65132" lon="6.85694">
        <ele>2004.2</ele>
        <time>2021-05-27T12:04:29Z</time>
      </trkpt>
      <trkpt lat="45.65135" lon="6.85698">
        <ele>2004.6</ele>
        <time>2021-05-27T12:04:30Z</time>
      </trkpt>
      <trkpt lat="45.6514" lon="6.85701">
        <ele>2005</ele>
        <time>2021-05-27T12:04:31Z</time>
      </trkpt>
      <trkpt lat="45.65148" lon="6.85705">
        <ele>2005.4</ele>
        <time>2021-05-27T12:04:32Z</time>
      </trkpt>
      <trkpt lat="45.65153" lon="6.85708">
        <ele>2006</ele>
        <time>2021-05-27T12:04:33Z</time>
      </trkpt>
      <trkpt lat="45.65159" lon="6.85711">
        <ele>2006.4</ele>
        <time>2021-05-27T12:04:34Z</time>
      </trkpt>
      <trkpt lat="45.65163" lon="6.85713">
        <ele>2006.8</ele>
        <time>2021-05-27T12:04:35Z</time>
      </trkpt>
      <trkpt lat="45.65168" lon="6.85717">
        <ele>2007</ele>
        <time>2021-05-27T12:04:36Z</time>
      </trkpt>
      <trkpt lat="45.65174" lon="6.85721">
        <ele>2007.2</ele>
        <time>2021-05-27T12:04:37Z</time>
      </trkpt>
      <trkpt lat="45.65178" lon="6.85724">
        <ele>2007.8</ele>
        <time>2021-05-27T12:04:38Z</time>
      </trkpt>
      <trkpt lat="45.65183" lon="6.85729">
        <ele>2008.4</ele>
        <time>2021-05-27T12:04:39Z</time>
      </trkpt>
      <trkpt lat="45.65188" lon="6.85733">
        <ele>2009</ele>
        <time>2021-05-27T12:04:40Z</time>
      </trkpt>
      <trkpt lat="45.65191" lon="6.85738">
        <ele>2009.4</ele>
        <time>2021-05-27T12:04:41Z</time>
      </trkpt>
      <trkpt lat="45.65194" lon="6.85742">
        <ele>2009.6</ele>
        <time>2021-05-27T12:04:42Z</time>
      </trkpt>
      <trkpt lat="45.65198" lon="6.85747">
        <ele>2009.6</ele>
        <time>2021-05-27T12:04:43Z</time>
      </trkpt>
      <trkpt lat="45.65202" lon="6.85751">
        <ele>2009.8</ele>
        <time>2021-05-27T12:04:44Z</time>
      </trkpt>
      <trkpt lat="45.65206" lon="6.85756">
        <ele>2009.8</ele>
        <time>2021-05-27T12:04:45Z</time>
      </trkpt>
      <trkpt lat="45.6521" lon="6.8576">
        <ele>2009.8</ele>
        <time>2021-05-27T12:04:46Z</time>
      </trkpt>
      <trkpt lat="45.65214" lon="6.85765">
        <ele>2009.4</ele>
        <time>2021-05-27T12:04:47Z</time>
      </trkpt>
      <trkpt lat="45.65218" lon="6.8577">
        <ele>2009.4</ele>
        <time>2021-05-27T12:04:48Z</time>
      </trkpt>
      <trkpt lat="45.65222" lon="6.85774">
        <ele>2009.6</ele>
        <time>2021-05-27T12:04:49Z</time>
      </trkpt>
      <trkpt lat="45.65226" lon="6.85778">
        <ele>2009.6</ele>
        <time>2021-05-27T12:04:50Z</time>
      </trkpt>
      <trkpt lat="45.65231" lon="6.85782">
        <ele>2009.8</ele>
        <time>2021-05-27T12:04:51Z</time>
      </trkpt>
      <trkpt lat="45.65234" lon="6.85785">
        <ele>2009.8</ele>
        <time>2021-05-27T12:04:52Z</time>
      </trkpt>
      <trkpt lat="45.65239" lon="6.85788">
        <ele>2009.8</ele>
        <time>2021-05-27T12:04:53Z</time>
      </trkpt>
      <trkpt lat="45.65243" lon="6.8579">
        <ele>2010</ele>
        <time>2021-05-27T12:04:54Z</time>
      </trkpt>
      <trkpt lat="45.65248" lon="6.85794">
        <ele>2010</ele>
        <time>2021-05-27T12:04:55Z</time>
      </trkpt>
      <trkpt lat="45.65252" lon="6.85797">
        <ele>2009.8</ele>
        <time>2021-05-27T12:04:56Z</time>
      </trkpt>
      <trkpt lat="45.65257" lon="6.858">
        <ele>2009.8</ele>
        <time>2021-05-27T12:04:57Z</time>
      </trkpt>
      <trkpt lat="45.65261" lon="6.85802">
        <ele>2009.8</ele>
        <time>2021-05-27T12:04:58Z</time>
      </trkpt>
      <trkpt lat="45.65267" lon="6.85805">
        <ele>2009.8</ele>
        <time>2021-05-27T12:04:59Z</time>
      </trkpt>
      <trkpt lat="45.6527" lon="6.85807">
        <ele>2009.8</ele>
        <time>2021-05-27T12:05:00Z</time>
      </trkpt>
      <trkpt lat="45.65276" lon="6.8581">
        <ele>2009.6</ele>
        <time>2021-05-27T12:05:01Z</time>
      </trkpt>
      <trkpt lat="45.6528" lon="6.85812">
        <ele>2009.2</ele>
        <time>2021-05-27T12:05:02Z</time>
      </trkpt>
      <trkpt lat="45.65285" lon="6.85815">
        <ele>2008.8</ele>
        <time>2021-05-27T12:05:03Z</time>
      </trkpt>
      <trkpt lat="45.65291" lon="6.85818">
        <ele>2008.4</ele>
        <time>2021-05-27T12:05:04Z</time>
      </trkpt>
      <trkpt lat="45.65296" lon="6.85821">
        <ele>2008.2</ele>
        <time>2021-05-27T12:05:05Z</time>
      </trkpt>
      <trkpt lat="45.65301" lon="6.85824">
        <ele>2007.6</ele>
        <time>2021-05-27T12:05:06Z</time>
      </trkpt>
      <trkpt lat="45.65305" lon="6.85826">
        <ele>2007.2</ele>
        <time>2021-05-27T12:05:07Z</time>
      </trkpt>
      <trkpt lat="45.65309" lon="6.85829">
        <ele>2006.6</ele>
        <time>2021-05-27T12:05:08Z</time>
      </trkpt>
      <trkpt lat="45.65315" lon="6.85832">
        <ele>2006.2</ele>
        <time>2021-05-27T12:05:09Z</time>
      </trkpt>
      <trkpt lat="45.65319" lon="6.85834">
        <ele>2005.6</ele>
        <time>2021-05-27T12:05:10Z</time>
      </trkpt>
      <trkpt lat="45.65324" lon="6.85838">
        <ele>2005</ele>
        <time>2021-05-27T12:05:11Z</time>
      </trkpt>
      <trkpt lat="45.65329" lon="6.8584">
        <ele>2004.6</ele>
        <time>2021-05-27T12:05:12Z</time>
      </trkpt>
      <trkpt lat="45.65333" lon="6.85844">
        <ele>2004.2</ele>
        <time>2021-05-27T12:05:13Z</time>
      </trkpt>
      <trkpt lat="45.65337" lon="6.85848">
        <ele>2003.8</ele>
        <time>2021-05-27T12:05:14Z</time>
      </trkpt>
      <trkpt lat="45.65341" lon="6.85853">
        <ele>2003.6</ele>
        <time>2021-05-27T12:05:15Z</time>
      </trkpt>
      <trkpt lat="45.65344" lon="6.85856">
        <ele>2003.4</ele>
        <time>2021-05-27T12:05:16Z</time>
      </trkpt>
      <trkpt lat="45.65348" lon="6.8586">
        <ele>2003</ele>
        <time>2021-05-27T12:05:17Z</time>
      </trkpt>
      <trkpt lat="45.65352" lon="6.85864">
        <ele>2002.8</ele>
        <time>2021-05-27T12:05:18Z</time>
      </trkpt>
      <trkpt lat="45.65356" lon="6.85869">
        <ele>2002.4</ele>
        <time>2021-05-27T12:05:19Z</time>
      </trkpt>
      <trkpt lat="45.65359" lon="6.85873">
        <ele>2001.8</ele>
        <time>2021-05-27T12:05:20Z</time>
      </trkpt>
      <trkpt lat="45.65362" lon="6.85877">
        <ele>2001.2</ele>
        <time>2021-05-27T12:05:21Z</time>
      </trkpt>
      <trkpt lat="45.65365" lon="6.85881">
        <ele>2000.6</ele>
        <time>2021-05-27T12:05:22Z</time>
      </trkpt>
      <trkpt lat="45.65368" lon="6.85886">
        <ele>2000.2</ele>
        <time>2021-05-27T12:05:23Z</time>
      </trkpt>
      <trkpt lat="45.6537" lon="6.8589">
        <ele>1999.8</ele>
        <time>2021-05-27T12:05:24Z</time>
      </trkpt>
      <trkpt lat="45.65373" lon="6.85895">
        <ele>1999.6</ele>
        <time>2021-05-27T12:05:25Z</time>
      </trkpt>
      <trkpt lat="45.65375" lon="6.85899">
        <ele>1999.4</ele>
        <time>2021-05-27T12:05:26Z</time>
      </trkpt>
      <trkpt lat="45.65379" lon="6.85903">
        <ele>1999.2</ele>
        <time>2021-05-27T12:05:27Z</time>
      </trkpt>
      <trkpt lat="45.65381" lon="6.85907">
        <ele>1999.2</ele>
        <time>2021-05-27T12:05:28Z</time>
      </trkpt>
      <trkpt lat="45.65384" lon="6.85911">
        <ele>1999</ele>
        <time>2021-05-27T12:05:29Z</time>
      </trkpt>
      <trkpt lat="45.65387" lon="6.85915">
        <ele>1999</ele>
        <time>2021-05-27T12:05:30Z</time>
      </trkpt>
      <trkpt lat="45.6539" lon="6.85919">
        <ele>1999</ele>
        <time>2021-05-27T12:05:31Z</time>
      </trkpt>
      <trkpt lat="45.65392" lon="6.85924">
        <ele>1998.8</ele>
        <time>2021-05-27T12:05:32Z</time>
      </trkpt>
      <trkpt lat="45.65394" lon="6.85928">
        <ele>1998.8</ele>
        <time>2021-05-27T12:05:33Z</time>
      </trkpt>
      <trkpt lat="45.65396" lon="6.85933">
        <ele>1998.8</ele>
        <time>2021-05-27T12:05:34Z</time>
      </trkpt>
      <trkpt lat="45.65398" lon="6.85937">
        <ele>1998.6</ele>
        <time>2021-05-27T12:05:35Z</time>
      </trkpt>
      <trkpt lat="45.65401" lon="6.85941">
        <ele>1998.6</ele>
        <time>2021-05-27T12:05:36Z</time>
      </trkpt>
      <trkpt lat="45.65404" lon="6.85945">
        <ele>1998.8</ele>
        <time>2021-05-27T12:05:37Z</time>
      </trkpt>
      <trkpt lat="45.65407" lon="6.85948">
        <ele>1998.8</ele>
        <time>2021-05-27T12:05:38Z</time>
      </trkpt>
      <trkpt lat="45.65409" lon="6.85952">
        <ele>1998.8</ele>
        <time>2021-05-27T12:05:39Z</time>
      </trkpt>
      <trkpt lat="45.65412" lon="6.85954">
        <ele>1998.6</ele>
        <time>2021-05-27T12:05:40Z</time>
      </trkpt>
      <trkpt lat="45.65415" lon="6.85957">
        <ele>1998.6</ele>
        <time>2021-05-27T12:05:41Z</time>
      </trkpt>
      <trkpt lat="45.65419" lon="6.8596">
        <ele>1998.8</ele>
        <time>2021-05-27T12:05:42Z</time>
      </trkpt>
      <trkpt lat="45.65422" lon="6.85962">
        <ele>1999</ele>
        <time>2021-05-27T12:05:43Z</time>
      </trkpt>
      <trkpt lat="45.65426" lon="6.85964">
        <ele>1999</ele>
        <time>2021-05-27T12:05:44Z</time>
      </trkpt>
      <trkpt lat="45.6543" lon="6.85965">
        <ele>1998.8</ele>
        <time>2021-05-27T12:05:45Z</time>
      </trkpt>
      <trkpt lat="45.65434" lon="6.85966">
        <ele>1999</ele>
        <time>2021-05-27T12:05:46Z</time>
      </trkpt>
      <trkpt lat="45.65439" lon="6.85968">
        <ele>1999</ele>
        <time>2021-05-27T12:05:47Z</time>
      </trkpt>
      <trkpt lat="45.65443" lon="6.85969">
        <ele>1999.4</ele>
        <time>2021-05-27T12:05:48Z</time>
      </trkpt>
      <trkpt lat="45.65448" lon="6.85971">
        <ele>2000</ele>
        <time>2021-05-27T12:05:49Z</time>
      </trkpt>
      <trkpt lat="45.65452" lon="6.85972">
        <ele>2000.4</ele>
        <time>2021-05-27T12:05:50Z</time>
      </trkpt>
      <trkpt lat="45.65456" lon="6.85972">
        <ele>2001.2</ele>
        <time>2021-05-27T12:05:51Z</time>
      </trkpt>
      <trkpt lat="45.65461" lon="6.85974">
        <ele>2002</ele>
        <time>2021-05-27T12:05:52Z</time>
      </trkpt>
      <trkpt lat="45.65465" lon="6.85975">
        <ele>2003</ele>
        <time>2021-05-27T12:05:53Z</time>
      </trkpt>
      <trkpt lat="45.65469" lon="6.85977">
        <ele>2003.6</ele>
        <time>2021-05-27T12:05:54Z</time>
      </trkpt>
      <trkpt lat="45.65473" lon="6.8598">
        <ele>2004.2</ele>
        <time>2021-05-27T12:05:55Z</time>
      </trkpt>
      <trkpt lat="45.65477" lon="6.85982">
        <ele>2004.6</ele>
        <time>2021-05-27T12:05:56Z</time>
      </trkpt>
      <trkpt lat="45.65481" lon="6.85985">
        <ele>2005</ele>
        <time>2021-05-27T12:05:57Z</time>
      </trkpt>
      <trkpt lat="45.65484" lon="6.85989">
        <ele>2005.2</ele>
        <time>2021-05-27T12:05:58Z</time>
      </trkpt>
      <trkpt lat="45.65488" lon="6.85992">
        <ele>2005.4</ele>
        <time>2021-05-27T12:05:59Z</time>
      </trkpt>
      <trkpt lat="45.65491" lon="6.85996">
        <ele>2005.4</ele>
        <time>2021-05-27T12:06:00Z</time>
      </trkpt>
      <trkpt lat="45.65494" lon="6.86001">
        <ele>2005.6</ele>
        <time>2021-05-27T12:06:01Z</time>
      </trkpt>
      <trkpt lat="45.65496" lon="6.86005">
        <ele>2005.8</ele>
        <time>2021-05-27T12:06:02Z</time>
      </trkpt>
      <trkpt lat="45.65499" lon="6.8601">
        <ele>2006.2</ele>
        <time>2021-05-27T12:06:03Z</time>
      </trkpt>
      <trkpt lat="45.65501" lon="6.86015">
        <ele>2006.6</ele>
        <time>2021-05-27T12:06:04Z</time>
      </trkpt>
      <trkpt lat="45.65503" lon="6.8602">
        <ele>2006.8</ele>
        <time>2021-05-27T12:06:05Z</time>
      </trkpt>
      <trkpt lat="45.65505" lon="6.86025">
        <ele>2007.2</ele>
        <time>2021-05-27T12:06:06Z</time>
      </trkpt>
      <trkpt lat="45.65508" lon="6.8603">
        <ele>2007.4</ele>
        <time>2021-05-27T12:06:07Z</time>
      </trkpt>
      <trkpt lat="45.6551" lon="6.86034">
        <ele>2007.4</ele>
        <time>2021-05-27T12:06:08Z</time>
      </trkpt>
      <trkpt lat="45.65512" lon="6.86039">
        <ele>2007.4</ele>
        <time>2021-05-27T12:06:09Z</time>
      </trkpt>
      <trkpt lat="45.65515" lon="6.86043">
        <ele>2007.4</ele>
        <time>2021-05-27T12:06:10Z</time>
      </trkpt>
      <trkpt lat="45.65517" lon="6.86047">
        <ele>2007.2</ele>
        <time>2021-05-27T12:06:11Z</time>
      </trkpt>
      <trkpt lat="45.65519" lon="6.86052">
        <ele>2007.4</ele>
        <time>2021-05-27T12:06:12Z</time>
      </trkpt>
      <trkpt lat="45.6552" lon="6.86056">
        <ele>2007.4</ele>
        <time>2021-05-27T12:06:13Z</time>
      </trkpt>
      <trkpt lat="45.65522" lon="6.86061">
        <ele>2007.4</ele>
        <time>2021-05-27T12:06:14Z</time>
      </trkpt>
      <trkpt lat="45.65523" lon="6.86066">
        <ele>2007.4</ele>
        <time>2021-05-27T12:06:15Z</time>
      </trkpt>
      <trkpt lat="45.65525" lon="6.8607">
        <ele>2007.4</ele>
        <time>2021-05-27T12:06:16Z</time>
      </trkpt>
      <trkpt lat="45.65528" lon="6.86075">
        <ele>2007.2</ele>
        <time>2021-05-27T12:06:17Z</time>
      </trkpt>
      <trkpt lat="45.6553" lon="6.86079">
        <ele>2006.8</ele>
        <time>2021-05-27T12:06:18Z</time>
      </trkpt>
      <trkpt lat="45.65533" lon="6.86084">
        <ele>2006.6</ele>
        <time>2021-05-27T12:06:19Z</time>
      </trkpt>
      <trkpt lat="45.65535" lon="6.86088">
        <ele>2006.4</ele>
        <time>2021-05-27T12:06:20Z</time>
      </trkpt>
      <trkpt lat="45.65538" lon="6.86093">
        <ele>2006.2</ele>
        <time>2021-05-27T12:06:21Z</time>
      </trkpt>
      <trkpt lat="45.65541" lon="6.86097">
        <ele>2006.2</ele>
        <time>2021-05-27T12:06:22Z</time>
      </trkpt>
      <trkpt lat="45.65545" lon="6.86101">
        <ele>2006.2</ele>
        <time>2021-05-27T12:06:23Z</time>
      </trkpt>
      <trkpt lat="45.65548" lon="6.86105">
        <ele>2006.4</ele>
        <time>2021-05-27T12:06:24Z</time>
      </trkpt>
      <trkpt lat="45.65551" lon="6.8611">
        <ele>2006.6</ele>
        <time>2021-05-27T12:06:25Z</time>
      </trkpt>
      <trkpt lat="45.65554" lon="6.86113">
        <ele>2006.8</ele>
        <time>2021-05-27T12:06:26Z</time>
      </trkpt>
      <trkpt lat="45.65557" lon="6.86116">
        <ele>2006.8</ele>
        <time>2021-05-27T12:06:27Z</time>
      </trkpt>
      <trkpt lat="45.65562" lon="6.86119">
        <ele>2007</ele>
        <time>2021-05-27T12:06:28Z</time>
      </trkpt>
      <trkpt lat="45.65565" lon="6.86122">
        <ele>2007</ele>
        <time>2021-05-27T12:06:29Z</time>
      </trkpt>
      <trkpt lat="45.6557" lon="6.86124">
        <ele>2007</ele>
        <time>2021-05-27T12:06:30Z</time>
      </trkpt>
      <trkpt lat="45.65573" lon="6.86126">
        <ele>2007</ele>
        <time>2021-05-27T12:06:31Z</time>
      </trkpt>
      <trkpt lat="45.65577" lon="6.86128">
        <ele>2007</ele>
        <time>2021-05-27T12:06:32Z</time>
      </trkpt>
      <trkpt lat="45.65581" lon="6.86129">
        <ele>2007.2</ele>
        <time>2021-05-27T12:06:33Z</time>
      </trkpt>
      <trkpt lat="45.65585" lon="6.8613">
        <ele>2007.4</ele>
        <time>2021-05-27T12:06:34Z</time>
      </trkpt>
      <trkpt lat="45.65589" lon="6.86131">
        <ele>2007.4</ele>
        <time>2021-05-27T12:06:35Z</time>
      </trkpt>
      <trkpt lat="45.65594" lon="6.86133">
        <ele>2007.8</ele>
        <time>2021-05-27T12:06:36Z</time>
      </trkpt>
      <trkpt lat="45.65598" lon="6.86134">
        <ele>2008</ele>
        <time>2021-05-27T12:06:37Z</time>
      </trkpt>
      <trkpt lat="45.65603" lon="6.86135">
        <ele>2008</ele>
        <time>2021-05-27T12:06:38Z</time>
      </trkpt>
      <trkpt lat="45.65607" lon="6.86136">
        <ele>2008.2</ele>
        <time>2021-05-27T12:06:39Z</time>
      </trkpt>
      <trkpt lat="45.65612" lon="6.86139">
        <ele>2008.2</ele>
        <time>2021-05-27T12:06:40Z</time>
      </trkpt>
      <trkpt lat="45.65617" lon="6.86141">
        <ele>2007.8</ele>
        <time>2021-05-27T12:06:41Z</time>
      </trkpt>
      <trkpt lat="45.65621" lon="6.86144">
        <ele>2008</ele>
        <time>2021-05-27T12:06:42Z</time>
      </trkpt>
      <trkpt lat="45.65625" lon="6.86147">
        <ele>2008.2</ele>
        <time>2021-05-27T12:06:43Z</time>
      </trkpt>
      <trkpt lat="45.65629" lon="6.86152">
        <ele>2008.4</ele>
        <time>2021-05-27T12:06:44Z</time>
      </trkpt>
      <trkpt lat="45.65632" lon="6.86156">
        <ele>2009</ele>
        <time>2021-05-27T12:06:45Z</time>
      </trkpt>
      <trkpt lat="45.65636" lon="6.8616">
        <ele>2009.8</ele>
        <time>2021-05-27T12:06:46Z</time>
      </trkpt>
      <trkpt lat="45.65639" lon="6.86164">
        <ele>2010.2</ele>
        <time>2021-05-27T12:06:47Z</time>
      </trkpt>
      <trkpt lat="45.65643" lon="6.86168">
        <ele>2010.6</ele>
        <time>2021-05-27T12:06:48Z</time>
      </trkpt>
      <trkpt lat="45.65647" lon="6.86173">
        <ele>2010.8</ele>
        <time>2021-05-27T12:06:49Z</time>
      </trkpt>
      <trkpt lat="45.6565" lon="6.86177">
        <ele>2010.6</ele>
        <time>2021-05-27T12:06:50Z</time>
      </trkpt>
      <trkpt lat="45.65654" lon="6.86182">
        <ele>2010.4</ele>
        <time>2021-05-27T12:06:51Z</time>
      </trkpt>
      <trkpt lat="45.65657" lon="6.86188">
        <ele>2010</ele>
        <time>2021-05-27T12:06:52Z</time>
      </trkpt>
      <trkpt lat="45.6566" lon="6.86193">
        <ele>2010</ele>
        <time>2021-05-27T12:06:53Z</time>
      </trkpt>
      <trkpt lat="45.65663" lon="6.86198">
        <ele>2009.8</ele>
        <time>2021-05-27T12:06:54Z</time>
      </trkpt>
      <trkpt lat="45.65666" lon="6.86204">
        <ele>2010</ele>
        <time>2021-05-27T12:06:55Z</time>
      </trkpt>
      <trkpt lat="45.65668" lon="6.86209">
        <ele>2010.2</ele>
        <time>2021-05-27T12:06:56Z</time>
      </trkpt>
      <trkpt lat="45.6567" lon="6.86215">
        <ele>2010.8</ele>
        <time>2021-05-27T12:06:57Z</time>
      </trkpt>
      <trkpt lat="45.65672" lon="6.86221">
        <ele>2010.8</ele>
        <time>2021-05-27T12:06:58Z</time>
      </trkpt>
      <trkpt lat="45.65674" lon="6.86227">
        <ele>2011</ele>
        <time>2021-05-27T12:06:59Z</time>
      </trkpt>
      <trkpt lat="45.65675" lon="6.86233">
        <ele>2011</ele>
        <time>2021-05-27T12:07:00Z</time>
      </trkpt>
      <trkpt lat="45.65677" lon="6.86239">
        <ele>2011.2</ele>
        <time>2021-05-27T12:07:01Z</time>
      </trkpt>
      <trkpt lat="45.65679" lon="6.86245">
        <ele>2011.8</ele>
        <time>2021-05-27T12:07:02Z</time>
      </trkpt>
      <trkpt lat="45.65682" lon="6.8625">
        <ele>2012.6</ele>
        <time>2021-05-27T12:07:03Z</time>
      </trkpt>
      <trkpt lat="45.65684" lon="6.86255">
        <ele>2013.2</ele>
        <time>2021-05-27T12:07:04Z</time>
      </trkpt>
      <trkpt lat="45.65686" lon="6.86261">
        <ele>2013.8</ele>
        <time>2021-05-27T12:07:05Z</time>
      </trkpt>
      <trkpt lat="45.65689" lon="6.86266">
        <ele>2014.2</ele>
        <time>2021-05-27T12:07:06Z</time>
      </trkpt>
      <trkpt lat="45.65692" lon="6.86271">
        <ele>2014.4</ele>
        <time>2021-05-27T12:07:07Z</time>
      </trkpt>
      <trkpt lat="45.65695" lon="6.86276">
        <ele>2014.8</ele>
        <time>2021-05-27T12:07:08Z</time>
      </trkpt>
      <trkpt lat="45.65699" lon="6.86282">
        <ele>2015.2</ele>
        <time>2021-05-27T12:07:09Z</time>
      </trkpt>
      <trkpt lat="45.65703" lon="6.86286">
        <ele>2015.6</ele>
        <time>2021-05-27T12:07:10Z</time>
      </trkpt>
      <trkpt lat="45.65707" lon="6.86291">
        <ele>2016</ele>
        <time>2021-05-27T12:07:11Z</time>
      </trkpt>
      <trkpt lat="45.6571" lon="6.86296">
        <ele>2016.4</ele>
        <time>2021-05-27T12:07:12Z</time>
      </trkpt>
      <trkpt lat="45.65714" lon="6.863">
        <ele>2016.6</ele>
        <time>2021-05-27T12:07:13Z</time>
      </trkpt>
      <trkpt lat="45.65716" lon="6.86304">
        <ele>2017</ele>
        <time>2021-05-27T12:07:14Z</time>
      </trkpt>
      <trkpt lat="45.6572" lon="6.86308">
        <ele>2017.2</ele>
        <time>2021-05-27T12:07:15Z</time>
      </trkpt>
      <trkpt lat="45.65725" lon="6.86312">
        <ele>2017.2</ele>
        <time>2021-05-27T12:07:16Z</time>
      </trkpt>
      <trkpt lat="45.65729" lon="6.86316">
        <ele>2017</ele>
        <time>2021-05-27T12:07:17Z</time>
      </trkpt>
      <trkpt lat="45.65733" lon="6.86319">
        <ele>2016.8</ele>
        <time>2021-05-27T12:07:18Z</time>
      </trkpt>
      <trkpt lat="45.65738" lon="6.86322">
        <ele>2016.6</ele>
        <time>2021-05-27T12:07:19Z</time>
      </trkpt>
      <trkpt lat="45.65741" lon="6.86326">
        <ele>2016.2</ele>
        <time>2021-05-27T12:07:20Z</time>
      </trkpt>
      <trkpt lat="45.65746" lon="6.86329">
        <ele>2015.8</ele>
        <time>2021-05-27T12:07:21Z</time>
      </trkpt>
      <trkpt lat="45.6575" lon="6.86332">
        <ele>2015.4</ele>
        <time>2021-05-27T12:07:22Z</time>
      </trkpt>
      <trkpt lat="45.65755" lon="6.86335">
        <ele>2015.2</ele>
        <time>2021-05-27T12:07:23Z</time>
      </trkpt>
      <trkpt lat="45.6576" lon="6.86338">
        <ele>2015.2</ele>
        <time>2021-05-27T12:07:24Z</time>
      </trkpt>
      <trkpt lat="45.65764" lon="6.86341">
        <ele>2015.2</ele>
        <time>2021-05-27T12:07:25Z</time>
      </trkpt>
      <trkpt lat="45.65769" lon="6.86343">
        <ele>2015.2</ele>
        <time>2021-05-27T12:07:26Z</time>
      </trkpt>
      <trkpt lat="45.65773" lon="6.86346">
        <ele>2015.2</ele>
        <time>2021-05-27T12:07:27Z</time>
      </trkpt>
      <trkpt lat="45.65778" lon="6.86349">
        <ele>2015.2</ele>
        <time>2021-05-27T12:07:28Z</time>
      </trkpt>
      <trkpt lat="45.65782" lon="6.86352">
        <ele>2015.2</ele>
        <time>2021-05-27T12:07:29Z</time>
      </trkpt>
      <trkpt lat="45.65787" lon="6.86355">
        <ele>2015</ele>
        <time>2021-05-27T12:07:30Z</time>
      </trkpt>
      <trkpt lat="45.65791" lon="6.86358">
        <ele>2015</ele>
        <time>2021-05-27T12:07:31Z</time>
      </trkpt>
      <trkpt lat="45.65796" lon="6.86362">
        <ele>2015</ele>
        <time>2021-05-27T12:07:32Z</time>
      </trkpt>
      <trkpt lat="45.658" lon="6.86366">
        <ele>2014.8</ele>
        <time>2021-05-27T12:07:33Z</time>
      </trkpt>
      <trkpt lat="45.65804" lon="6.8637">
        <ele>2015</ele>
        <time>2021-05-27T12:07:34Z</time>
      </trkpt>
      <trkpt lat="45.65809" lon="6.86374">
        <ele>2015.4</ele>
        <time>2021-05-27T12:07:35Z</time>
      </trkpt>
      <trkpt lat="45.65813" lon="6.86378">
        <ele>2015.6</ele>
        <time>2021-05-27T12:07:36Z</time>
      </trkpt>
      <trkpt lat="45.65818" lon="6.86383">
        <ele>2016</ele>
        <time>2021-05-27T12:07:37Z</time>
      </trkpt>
      <trkpt lat="45.65822" lon="6.86387">
        <ele>2016.4</ele>
        <time>2021-05-27T12:07:38Z</time>
      </trkpt>
      <trkpt lat="45.65826" lon="6.86391">
        <ele>2016.6</ele>
        <time>2021-05-27T12:07:39Z</time>
      </trkpt>
      <trkpt lat="45.6583" lon="6.86395">
        <ele>2017</ele>
        <time>2021-05-27T12:07:40Z</time>
      </trkpt>
      <trkpt lat="45.65834" lon="6.86399">
        <ele>2017.2</ele>
        <time>2021-05-27T12:07:41Z</time>
      </trkpt>
      <trkpt lat="45.65838" lon="6.86403">
        <ele>2017.2</ele>
        <time>2021-05-27T12:07:42Z</time>
      </trkpt>
      <trkpt lat="45.65843" lon="6.86406">
        <ele>2017.2</ele>
        <time>2021-05-27T12:07:43Z</time>
      </trkpt>
      <trkpt lat="45.65849" lon="6.86408">
        <ele>2017.4</ele>
        <time>2021-05-27T12:07:44Z</time>
      </trkpt>
      <trkpt lat="45.65854" lon="6.86411">
        <ele>2017.4</ele>
        <time>2021-05-27T12:07:45Z</time>
      </trkpt>
      <trkpt lat="45.6586" lon="6.86413">
        <ele>2017.2</ele>
        <time>2021-05-27T12:07:46Z</time>
      </trkpt>
      <trkpt lat="45.65865" lon="6.86416">
        <ele>2017.2</ele>
        <time>2021-05-27T12:07:47Z</time>
      </trkpt>
      <trkpt lat="45.6587" lon="6.86418">
        <ele>2016.8</ele>
        <time>2021-05-27T12:07:48Z</time>
      </trkpt>
      <trkpt lat="45.65875" lon="6.86421">
        <ele>2016.6</ele>
        <time>2021-05-27T12:07:49Z</time>
      </trkpt>
      <trkpt lat="45.65881" lon="6.86424">
        <ele>2016.2</ele>
        <time>2021-05-27T12:07:50Z</time>
      </trkpt>
      <trkpt lat="45.65886" lon="6.86427">
        <ele>2015.8</ele>
        <time>2021-05-27T12:07:51Z</time>
      </trkpt>
      <trkpt lat="45.65891" lon="6.86431">
        <ele>2015.6</ele>
        <time>2021-05-27T12:07:52Z</time>
      </trkpt>
      <trkpt lat="45.65896" lon="6.86435">
        <ele>2015.2</ele>
        <time>2021-05-27T12:07:53Z</time>
      </trkpt>
      <trkpt lat="45.65901" lon="6.86439">
        <ele>2015</ele>
        <time>2021-05-27T12:07:54Z</time>
      </trkpt>
      <trkpt lat="45.65906" lon="6.86444">
        <ele>2014.6</ele>
        <time>2021-05-27T12:07:55Z</time>
      </trkpt>
      <trkpt lat="45.6591" lon="6.86449">
        <ele>2014.2</ele>
        <time>2021-05-27T12:07:56Z</time>
      </trkpt>
      <trkpt lat="45.65913" lon="6.86455">
        <ele>2014</ele>
        <time>2021-05-27T12:07:57Z</time>
      </trkpt>
      <trkpt lat="45.65916" lon="6.86462">
        <ele>2013.6</ele>
        <time>2021-05-27T12:07:58Z</time>
      </trkpt>
      <trkpt lat="45.65919" lon="6.86468">
        <ele>2013.6</ele>
        <time>2021-05-27T12:07:59Z</time>
      </trkpt>
      <trkpt lat="45.65923" lon="6.86474">
        <ele>2013.4</ele>
        <time>2021-05-27T12:08:00Z</time>
      </trkpt>
      <trkpt lat="45.65926" lon="6.86481">
        <ele>2013.8</ele>
        <time>2021-05-27T12:08:01Z</time>
      </trkpt>
      <trkpt lat="45.65929" lon="6.86487">
        <ele>2014</ele>
        <time>2021-05-27T12:08:02Z</time>
      </trkpt>
      <trkpt lat="45.65932" lon="6.86494">
        <ele>2014.2</ele>
        <time>2021-05-27T12:08:03Z</time>
      </trkpt>
      <trkpt lat="45.65935" lon="6.865">
        <ele>2014.2</ele>
        <time>2021-05-27T12:08:04Z</time>
      </trkpt>
      <trkpt lat="45.65938" lon="6.86507">
        <ele>2014.2</ele>
        <time>2021-05-27T12:08:05Z</time>
      </trkpt>
      <trkpt lat="45.65941" lon="6.86514">
        <ele>2014</ele>
        <time>2021-05-27T12:08:06Z</time>
      </trkpt>
      <trkpt lat="45.65944" lon="6.8652">
        <ele>2013.8</ele>
        <time>2021-05-27T12:08:07Z</time>
      </trkpt>
      <trkpt lat="45.65947" lon="6.86527">
        <ele>2013.6</ele>
        <time>2021-05-27T12:08:08Z</time>
      </trkpt>
      <trkpt lat="45.6595" lon="6.86534">
        <ele>2013.8</ele>
        <time>2021-05-27T12:08:09Z</time>
      </trkpt>
      <trkpt lat="45.65953" lon="6.86541">
        <ele>2014.2</ele>
        <time>2021-05-27T12:08:10Z</time>
      </trkpt>
      <trkpt lat="45.65956" lon="6.86547">
        <ele>2014.4</ele>
        <time>2021-05-27T12:08:11Z</time>
      </trkpt>
      <trkpt lat="45.65959" lon="6.86554">
        <ele>2015</ele>
        <time>2021-05-27T12:08:12Z</time>
      </trkpt>
      <trkpt lat="45.65961" lon="6.8656">
        <ele>2015.6</ele>
        <time>2021-05-27T12:08:13Z</time>
      </trkpt>
      <trkpt lat="45.65964" lon="6.86567">
        <ele>2016.6</ele>
        <time>2021-05-27T12:08:14Z</time>
      </trkpt>
      <trkpt lat="45.65967" lon="6.86573">
        <ele>2016.8</ele>
        <time>2021-05-27T12:08:15Z</time>
      </trkpt>
      <trkpt lat="45.6597" lon="6.86578">
        <ele>2017.2</ele>
        <time>2021-05-27T12:08:16Z</time>
      </trkpt>
      <trkpt lat="45.65973" lon="6.86584">
        <ele>2018.2</ele>
        <time>2021-05-27T12:08:17Z</time>
      </trkpt>
      <trkpt lat="45.65976" lon="6.86589">
        <ele>2019.4</ele>
        <time>2021-05-27T12:08:18Z</time>
      </trkpt>
      <trkpt lat="45.6598" lon="6.86594">
        <ele>2021</ele>
        <time>2021-05-27T12:08:19Z</time>
      </trkpt>
      <trkpt lat="45.65984" lon="6.86598">
        <ele>2022.2</ele>
        <time>2021-05-27T12:08:20Z</time>
      </trkpt>
      <trkpt lat="45.65988" lon="6.86602">
        <ele>2023.6</ele>
        <time>2021-05-27T12:08:21Z</time>
      </trkpt>
      <trkpt lat="45.65992" lon="6.86607">
        <ele>2025.2</ele>
        <time>2021-05-27T12:08:22Z</time>
      </trkpt>
      <trkpt lat="45.65995" lon="6.86611">
        <ele>2026.4</ele>
        <time>2021-05-27T12:08:23Z</time>
      </trkpt>
      <trkpt lat="45.65999" lon="6.86615">
        <ele>2027.8</ele>
        <time>2021-05-27T12:08:24Z</time>
      </trkpt>
      <trkpt lat="45.66003" lon="6.8662">
        <ele>2029</ele>
        <time>2021-05-27T12:08:25Z</time>
      </trkpt>
      <trkpt lat="45.66006" lon="6.86624">
        <ele>2030.4</ele>
        <time>2021-05-27T12:08:26Z</time>
      </trkpt>
      <trkpt lat="45.6601" lon="6.86629">
        <ele>2031.6</ele>
        <time>2021-05-27T12:08:27Z</time>
      </trkpt>
      <trkpt lat="45.66014" lon="6.86634">
        <ele>2033</ele>
        <time>2021-05-27T12:08:28Z</time>
      </trkpt>
      <trkpt lat="45.66018" lon="6.86639">
        <ele>2034</ele>
        <time>2021-05-27T12:08:29Z</time>
      </trkpt>
      <trkpt lat="45.66021" lon="6.86644">
        <ele>2035</ele>
        <time>2021-05-27T12:08:30Z</time>
      </trkpt>
      <trkpt lat="45.66024" lon="6.86649">
        <ele>2036</ele>
        <time>2021-05-27T12:08:31Z</time>
      </trkpt>
      <trkpt lat="45.66028" lon="6.86655">
        <ele>2037</ele>
        <time>2021-05-27T12:08:32Z</time>
      </trkpt>
      <trkpt lat="45.66031" lon="6.8666">
        <ele>2037.8</ele>
        <time>2021-05-27T12:08:33Z</time>
      </trkpt>
      <trkpt lat="45.66035" lon="6.86665">
        <ele>2038.6</ele>
        <time>2021-05-27T12:08:34Z</time>
      </trkpt>
      <trkpt lat="45.66038" lon="6.8667">
        <ele>2039.4</ele>
        <time>2021-05-27T12:08:35Z</time>
      </trkpt>
      <trkpt lat="45.66041" lon="6.86675">
        <ele>2040</ele>
        <time>2021-05-27T12:08:36Z</time>
      </trkpt>
      <trkpt lat="45.66044" lon="6.8668">
        <ele>2040.6</ele>
        <time>2021-05-27T12:08:37Z</time>
      </trkpt>
      <trkpt lat="45.66048" lon="6.86685">
        <ele>2041.4</ele>
        <time>2021-05-27T12:08:38Z</time>
      </trkpt>
      <trkpt lat="45.66051" lon="6.8669">
        <ele>2041.8</ele>
        <time>2021-05-27T12:08:39Z</time>
      </trkpt>
      <trkpt lat="45.66054" lon="6.86694">
        <ele>2042.4</ele>
        <time>2021-05-27T12:08:40Z</time>
      </trkpt>
      <trkpt lat="45.66058" lon="6.86699">
        <ele>2043</ele>
        <time>2021-05-27T12:08:41Z</time>
      </trkpt>
      <trkpt lat="45.66062" lon="6.86703">
        <ele>2043.4</ele>
        <time>2021-05-27T12:08:42Z</time>
      </trkpt>
      <trkpt lat="45.66065" lon="6.86707">
        <ele>2044</ele>
        <time>2021-05-27T12:08:43Z</time>
      </trkpt>
      <trkpt lat="45.66069" lon="6.86712">
        <ele>2044.4</ele>
        <time>2021-05-27T12:08:44Z</time>
      </trkpt>
      <trkpt lat="45.66073" lon="6.86716">
        <ele>2044.8</ele>
        <time>2021-05-27T12:08:45Z</time>
      </trkpt>
      <trkpt lat="45.66077" lon="6.8672">
        <ele>2045.2</ele>
        <time>2021-05-27T12:08:46Z</time>
      </trkpt>
      <trkpt lat="45.6608" lon="6.86724">
        <ele>2045.8</ele>
        <time>2021-05-27T12:08:47Z</time>
      </trkpt>
      <trkpt lat="45.66084" lon="6.86728">
        <ele>2046.2</ele>
        <time>2021-05-27T12:08:48Z</time>
      </trkpt>
      <trkpt lat="45.66088" lon="6.86732">
        <ele>2046.4</ele>
        <time>2021-05-27T12:08:49Z</time>
      </trkpt>
      <trkpt lat="45.66091" lon="6.86736">
        <ele>2046.4</ele>
        <time>2021-05-27T12:08:50Z</time>
      </trkpt>
      <trkpt lat="45.66095" lon="6.8674">
        <ele>2046.6</ele>
        <time>2021-05-27T12:08:51Z</time>
      </trkpt>
      <trkpt lat="45.66098" lon="6.86744">
        <ele>2046.4</ele>
        <time>2021-05-27T12:08:52Z</time>
      </trkpt>
      <trkpt lat="45.66101" lon="6.86748">
        <ele>2046.4</ele>
        <time>2021-05-27T12:08:53Z</time>
      </trkpt>
      <trkpt lat="45.66105" lon="6.86751">
        <ele>2046.2</ele>
        <time>2021-05-27T12:08:54Z</time>
      </trkpt>
      <trkpt lat="45.66108" lon="6.86755">
        <ele>2046.2</ele>
        <time>2021-05-27T12:08:55Z</time>
      </trkpt>
      <trkpt lat="45.66112" lon="6.86759">
        <ele>2046.4</ele>
        <time>2021-05-27T12:08:56Z</time>
      </trkpt>
      <trkpt lat="45.66115" lon="6.86763">
        <ele>2046.2</ele>
        <time>2021-05-27T12:08:57Z</time>
      </trkpt>
      <trkpt lat="45.66119" lon="6.86766">
        <ele>2046</ele>
        <time>2021-05-27T12:08:58Z</time>
      </trkpt>
      <trkpt lat="45.66122" lon="6.8677">
        <ele>2045.8</ele>
        <time>2021-05-27T12:08:59Z</time>
      </trkpt>
      <trkpt lat="45.66125" lon="6.86774">
        <ele>2045.4</ele>
        <time>2021-05-27T12:09:00Z</time>
      </trkpt>
      <trkpt lat="45.66129" lon="6.86778">
        <ele>2045.2</ele>
        <time>2021-05-27T12:09:01Z</time>
      </trkpt>
      <trkpt lat="45.66132" lon="6.86782">
        <ele>2044.8</ele>
        <time>2021-05-27T12:09:02Z</time>
      </trkpt>
      <trkpt lat="45.66135" lon="6.86786">
        <ele>2044.2</ele>
        <time>2021-05-27T12:09:03Z</time>
      </trkpt>
      <trkpt lat="45.66137" lon="6.8679">
        <ele>2043.8</ele>
        <time>2021-05-27T12:09:04Z</time>
      </trkpt>
      <trkpt lat="45.66141" lon="6.86794">
        <ele>2043.4</ele>
        <time>2021-05-27T12:09:05Z</time>
      </trkpt>
      <trkpt lat="45.66143" lon="6.86799">
        <ele>2043</ele>
        <time>2021-05-27T12:09:06Z</time>
      </trkpt>
      <trkpt lat="45.66146" lon="6.86804">
        <ele>2042.6</ele>
        <time>2021-05-27T12:09:07Z</time>
      </trkpt>
      <trkpt lat="45.66148" lon="6.86809">
        <ele>2042</ele>
        <time>2021-05-27T12:09:08Z</time>
      </trkpt>
      <trkpt lat="45.66151" lon="6.86814">
        <ele>2041.8</ele>
        <time>2021-05-27T12:09:09Z</time>
      </trkpt>
      <trkpt lat="45.66153" lon="6.86818">
        <ele>2041.4</ele>
        <time>2021-05-27T12:09:10Z</time>
      </trkpt>
      <trkpt lat="45.66156" lon="6.86823">
        <ele>2040.8</ele>
        <time>2021-05-27T12:09:11Z</time>
      </trkpt>
      <trkpt lat="45.66159" lon="6.86828">
        <ele>2040.4</ele>
        <time>2021-05-27T12:09:12Z</time>
      </trkpt>
      <trkpt lat="45.66161" lon="6.86833">
        <ele>2040</ele>
        <time>2021-05-27T12:09:13Z</time>
      </trkpt>
      <trkpt lat="45.66163" lon="6.86838">
        <ele>2039.6</ele>
        <time>2021-05-27T12:09:14Z</time>
      </trkpt>
      <trkpt lat="45.66167" lon="6.86844">
        <ele>2039.4</ele>
        <time>2021-05-27T12:09:15Z</time>
      </trkpt>
      <trkpt lat="45.66169" lon="6.86848">
        <ele>2038.8</ele>
        <time>2021-05-27T12:09:16Z</time>
      </trkpt>
      <trkpt lat="45.66172" lon="6.86853">
        <ele>2038.6</ele>
        <time>2021-05-27T12:09:17Z</time>
      </trkpt>
      <trkpt lat="45.66173" lon="6.86858">
        <ele>2038</ele>
        <time>2021-05-27T12:09:18Z</time>
      </trkpt>
      <trkpt lat="45.66175" lon="6.86864">
        <ele>2037.6</ele>
        <time>2021-05-27T12:09:19Z</time>
      </trkpt>
      <trkpt lat="45.66177" lon="6.8687">
        <ele>2037.4</ele>
        <time>2021-05-27T12:09:20Z</time>
      </trkpt>
      <trkpt lat="45.66179" lon="6.86876">
        <ele>2037</ele>
        <time>2021-05-27T12:09:21Z</time>
      </trkpt>
      <trkpt lat="45.66182" lon="6.86881">
        <ele>2036.8</ele>
        <time>2021-05-27T12:09:22Z</time>
      </trkpt>
      <trkpt lat="45.66186" lon="6.86886">
        <ele>2036.8</ele>
        <time>2021-05-27T12:09:23Z</time>
      </trkpt>
      <trkpt lat="45.66189" lon="6.86891">
        <ele>2037.2</ele>
        <time>2021-05-27T12:09:24Z</time>
      </trkpt>
      <trkpt lat="45.66192" lon="6.86896">
        <ele>2037.8</ele>
        <time>2021-05-27T12:09:25Z</time>
      </trkpt>
      <trkpt lat="45.66195" lon="6.869">
        <ele>2038.4</ele>
        <time>2021-05-27T12:09:26Z</time>
      </trkpt>
      <trkpt lat="45.66198" lon="6.86903">
        <ele>2039.4</ele>
        <time>2021-05-27T12:09:27Z</time>
      </trkpt>
      <trkpt lat="45.66201" lon="6.86906">
        <ele>2040.4</ele>
        <time>2021-05-27T12:09:28Z</time>
      </trkpt>
      <trkpt lat="45.66204" lon="6.86909">
        <ele>2041</ele>
        <time>2021-05-27T12:09:29Z</time>
      </trkpt>
      <trkpt lat="45.66208" lon="6.86912">
        <ele>2041.2</ele>
        <time>2021-05-27T12:09:30Z</time>
      </trkpt>
      <trkpt lat="45.66211" lon="6.86914">
        <ele>2041</ele>
        <time>2021-05-27T12:09:31Z</time>
      </trkpt>
      <trkpt lat="45.66215" lon="6.86917">
        <ele>2041</ele>
        <time>2021-05-27T12:09:32Z</time>
      </trkpt>
      <trkpt lat="45.66219" lon="6.8692">
        <ele>2041</ele>
        <time>2021-05-27T12:09:33Z</time>
      </trkpt>
      <trkpt lat="45.66223" lon="6.86923">
        <ele>2041.2</ele>
        <time>2021-05-27T12:09:34Z</time>
      </trkpt>
      <trkpt lat="45.66226" lon="6.86926">
        <ele>2041.2</ele>
        <time>2021-05-27T12:09:35Z</time>
      </trkpt>
      <trkpt lat="45.66229" lon="6.8693">
        <ele>2041.2</ele>
        <time>2021-05-27T12:09:36Z</time>
      </trkpt>
      <trkpt lat="45.66232" lon="6.86934">
        <ele>2041</ele>
        <time>2021-05-27T12:09:37Z</time>
      </trkpt>
      <trkpt lat="45.66236" lon="6.86939">
        <ele>2040.8</ele>
        <time>2021-05-27T12:09:38Z</time>
      </trkpt>
      <trkpt lat="45.66238" lon="6.86944">
        <ele>2040.8</ele>
        <time>2021-05-27T12:09:39Z</time>
      </trkpt>
      <trkpt lat="45.6624" lon="6.86949">
        <ele>2040.8</ele>
        <time>2021-05-27T12:09:40Z</time>
      </trkpt>
      <trkpt lat="45.66242" lon="6.86954">
        <ele>2041</ele>
        <time>2021-05-27T12:09:41Z</time>
      </trkpt>
      <trkpt lat="45.66243" lon="6.8696">
        <ele>2041.8</ele>
        <time>2021-05-27T12:09:42Z</time>
      </trkpt>
      <trkpt lat="45.66244" lon="6.86966">
        <ele>2042.8</ele>
        <time>2021-05-27T12:09:43Z</time>
      </trkpt>
      <trkpt lat="45.66244" lon="6.86972">
        <ele>2043.2</ele>
        <time>2021-05-27T12:09:44Z</time>
      </trkpt>
      <trkpt lat="45.66244" lon="6.86978">
        <ele>2043.4</ele>
        <time>2021-05-27T12:09:45Z</time>
      </trkpt>
      <trkpt lat="45.66245" lon="6.86983">
        <ele>2043.6</ele>
        <time>2021-05-27T12:09:46Z</time>
      </trkpt>
      <trkpt lat="45.66245" lon="6.86989">
        <ele>2043.6</ele>
        <time>2021-05-27T12:09:47Z</time>
      </trkpt>
      <trkpt lat="45.66245" lon="6.86995">
        <ele>2043.6</ele>
        <time>2021-05-27T12:09:48Z</time>
      </trkpt>
      <trkpt lat="45.66244" lon="6.87">
        <ele>2043.4</ele>
        <time>2021-05-27T12:09:49Z</time>
      </trkpt>
      <trkpt lat="45.66244" lon="6.87006">
        <ele>2043.4</ele>
        <time>2021-05-27T12:09:50Z</time>
      </trkpt>
      <trkpt lat="45.66243" lon="6.87012">
        <ele>2043.2</ele>
        <time>2021-05-27T12:09:51Z</time>
      </trkpt>
      <trkpt lat="45.66242" lon="6.87017">
        <ele>2043.4</ele>
        <time>2021-05-27T12:09:52Z</time>
      </trkpt>
      <trkpt lat="45.6624" lon="6.87021">
        <ele>2043.6</ele>
        <time>2021-05-27T12:09:53Z</time>
      </trkpt>
      <trkpt lat="45.66239" lon="6.87024">
        <ele>2043.8</ele>
        <time>2021-05-27T12:09:54Z</time>
      </trkpt>
      <trkpt lat="45.66238" lon="6.87026">
        <ele>2043.8</ele>
        <time>2021-05-27T12:09:56Z</time>
      </trkpt>
      <trkpt lat="45.66236" lon="6.87031">
        <ele>2048.4</ele>
        <time>2021-05-27T12:10:28Z</time>
      </trkpt>
      <trkpt lat="45.66236" lon="6.87035">
        <ele>2048.6</ele>
        <time>2021-05-27T12:10:29Z</time>
      </trkpt>
      <trkpt lat="45.66235" lon="6.8704">
        <ele>2048.6</ele>
        <time>2021-05-27T12:10:30Z</time>
      </trkpt>
      <trkpt lat="45.66234" lon="6.87045">
        <ele>2048.8</ele>
        <time>2021-05-27T12:10:31Z</time>
      </trkpt>
      <trkpt lat="45.66233" lon="6.87051">
        <ele>2049</ele>
        <time>2021-05-27T12:10:32Z</time>
      </trkpt>
      <trkpt lat="45.66233" lon="6.87057">
        <ele>2049.6</ele>
        <time>2021-05-27T12:10:33Z</time>
      </trkpt>
      <trkpt lat="45.66234" lon="6.87063">
        <ele>2050.2</ele>
        <time>2021-05-27T12:10:34Z</time>
      </trkpt>
      <trkpt lat="45.66236" lon="6.87068">
        <ele>2050.8</ele>
        <time>2021-05-27T12:10:35Z</time>
      </trkpt>
      <trkpt lat="45.66238" lon="6.87073">
        <ele>2051.4</ele>
        <time>2021-05-27T12:10:36Z</time>
      </trkpt>
      <trkpt lat="45.66242" lon="6.87076">
        <ele>2052</ele>
        <time>2021-05-27T12:10:37Z</time>
      </trkpt>
      <trkpt lat="45.66246" lon="6.87078">
        <ele>2052.8</ele>
        <time>2021-05-27T12:10:38Z</time>
      </trkpt>
      <trkpt lat="45.6625" lon="6.87077">
        <ele>2053.4</ele>
        <time>2021-05-27T12:10:39Z</time>
      </trkpt>
      <trkpt lat="45.66255" lon="6.87076">
        <ele>2054</ele>
        <time>2021-05-27T12:10:40Z</time>
      </trkpt>
      <trkpt lat="45.6626" lon="6.87073">
        <ele>2054.2</ele>
        <time>2021-05-27T12:10:41Z</time>
      </trkpt>
      <trkpt lat="45.66266" lon="6.8707">
        <ele>2054.4</ele>
        <time>2021-05-27T12:10:42Z</time>
      </trkpt>
      <trkpt lat="45.6627" lon="6.87067">
        <ele>2055</ele>
        <time>2021-05-27T12:10:43Z</time>
      </trkpt>
      <trkpt lat="45.66275" lon="6.87064">
        <ele>2055.6</ele>
        <time>2021-05-27T12:10:44Z</time>
      </trkpt>
      <trkpt lat="45.6628" lon="6.87061">
        <ele>2056.6</ele>
        <time>2021-05-27T12:10:45Z</time>
      </trkpt>
      <trkpt lat="45.66285" lon="6.87059">
        <ele>2057.4</ele>
        <time>2021-05-27T12:10:46Z</time>
      </trkpt>
      <trkpt lat="45.6629" lon="6.87056">
        <ele>2058</ele>
        <time>2021-05-27T12:10:47Z</time>
      </trkpt>
      <trkpt lat="45.66294" lon="6.87053">
        <ele>2058.8</ele>
        <time>2021-05-27T12:10:48Z</time>
      </trkpt>
      <trkpt lat="45.66299" lon="6.87051">
        <ele>2059.4</ele>
        <time>2021-05-27T12:10:49Z</time>
      </trkpt>
      <trkpt lat="45.66304" lon="6.87048">
        <ele>2060</ele>
        <time>2021-05-27T12:10:50Z</time>
      </trkpt>
      <trkpt lat="45.66309" lon="6.87046">
        <ele>2060.4</ele>
        <time>2021-05-27T12:10:51Z</time>
      </trkpt>
      <trkpt lat="45.66314" lon="6.87044">
        <ele>2060.8</ele>
        <time>2021-05-27T12:10:52Z</time>
      </trkpt>
      <trkpt lat="45.66318" lon="6.87042">
        <ele>2061.4</ele>
        <time>2021-05-27T12:10:53Z</time>
      </trkpt>
      <trkpt lat="45.66324" lon="6.87041">
        <ele>2062.2</ele>
        <time>2021-05-27T12:10:54Z</time>
      </trkpt>
      <trkpt lat="45.66329" lon="6.8704">
        <ele>2062.6</ele>
        <time>2021-05-27T12:10:55Z</time>
      </trkpt>
      <trkpt lat="45.66333" lon="6.8704">
        <ele>2063.4</ele>
        <time>2021-05-27T12:10:56Z</time>
      </trkpt>
      <trkpt lat="45.6634" lon="6.87041">
        <ele>2063.6</ele>
        <time>2021-05-27T12:10:57Z</time>
      </trkpt>
      <trkpt lat="45.66345" lon="6.87042">
        <ele>2064</ele>
        <time>2021-05-27T12:10:58Z</time>
      </trkpt>
      <trkpt lat="45.66349" lon="6.87043">
        <ele>2064.4</ele>
        <time>2021-05-27T12:10:59Z</time>
      </trkpt>
      <trkpt lat="45.66354" lon="6.87045">
        <ele>2064.8</ele>
        <time>2021-05-27T12:11:00Z</time>
      </trkpt>
      <trkpt lat="45.66358" lon="6.87045">
        <ele>2065.2</ele>
        <time>2021-05-27T12:11:01Z</time>
      </trkpt>
      <trkpt lat="45.66363" lon="6.87047">
        <ele>2065.4</ele>
        <time>2021-05-27T12:11:02Z</time>
      </trkpt>
      <trkpt lat="45.66368" lon="6.87048">
        <ele>2065.4</ele>
        <time>2021-05-27T12:11:03Z</time>
      </trkpt>
      <trkpt lat="45.66372" lon="6.8705">
        <ele>2065.2</ele>
        <time>2021-05-27T12:11:04Z</time>
      </trkpt>
      <trkpt lat="45.66377" lon="6.87051">
        <ele>2064.6</ele>
        <time>2021-05-27T12:11:05Z</time>
      </trkpt>
      <trkpt lat="45.66382" lon="6.87051">
        <ele>2064.2</ele>
        <time>2021-05-27T12:11:06Z</time>
      </trkpt>
      <trkpt lat="45.66386" lon="6.87052">
        <ele>2063.8</ele>
        <time>2021-05-27T12:11:07Z</time>
      </trkpt>
      <trkpt lat="45.6639" lon="6.87052">
        <ele>2063.4</ele>
        <time>2021-05-27T12:11:08Z</time>
      </trkpt>
      <trkpt lat="45.66395" lon="6.87053">
        <ele>2062.6</ele>
        <time>2021-05-27T12:11:09Z</time>
      </trkpt>
      <trkpt lat="45.66399" lon="6.87054">
        <ele>2062.2</ele>
        <time>2021-05-27T12:11:10Z</time>
      </trkpt>
      <trkpt lat="45.66404" lon="6.87056">
        <ele>2061.8</ele>
        <time>2021-05-27T12:11:11Z</time>
      </trkpt>
      <trkpt lat="45.66409" lon="6.87058">
        <ele>2061.6</ele>
        <time>2021-05-27T12:11:12Z</time>
      </trkpt>
      <trkpt lat="45.66413" lon="6.87059">
        <ele>2061.4</ele>
        <time>2021-05-27T12:11:13Z</time>
      </trkpt>
      <trkpt lat="45.66417" lon="6.87061">
        <ele>2061.4</ele>
        <time>2021-05-27T12:11:14Z</time>
      </trkpt>
      <trkpt lat="45.66421" lon="6.87063">
        <ele>2061</ele>
        <time>2021-05-27T12:11:15Z</time>
      </trkpt>
      <trkpt lat="45.66425" lon="6.87065">
        <ele>2061</ele>
        <time>2021-05-27T12:11:16Z</time>
      </trkpt>
      <trkpt lat="45.66429" lon="6.87068">
        <ele>2061</ele>
        <time>2021-05-27T12:11:17Z</time>
      </trkpt>
      <trkpt lat="45.66433" lon="6.87071">
        <ele>2061</ele>
        <time>2021-05-27T12:11:18Z</time>
      </trkpt>
      <trkpt lat="45.66437" lon="6.87074">
        <ele>2061.4</ele>
        <time>2021-05-27T12:11:19Z</time>
      </trkpt>
      <trkpt lat="45.66441" lon="6.87076">
        <ele>2062.2</ele>
        <time>2021-05-27T12:11:20Z</time>
      </trkpt>
      <trkpt lat="45.66445" lon="6.87079">
        <ele>2063.2</ele>
        <time>2021-05-27T12:11:21Z</time>
      </trkpt>
      <trkpt lat="45.66449" lon="6.87082">
        <ele>2064</ele>
        <time>2021-05-27T12:11:22Z</time>
      </trkpt>
      <trkpt lat="45.66452" lon="6.87085">
        <ele>2065</ele>
        <time>2021-05-27T12:11:23Z</time>
      </trkpt>
      <trkpt lat="45.66456" lon="6.87088">
        <ele>2066.2</ele>
        <time>2021-05-27T12:11:24Z</time>
      </trkpt>
      <trkpt lat="45.6646" lon="6.87091">
        <ele>2067.4</ele>
        <time>2021-05-27T12:11:25Z</time>
      </trkpt>
      <trkpt lat="45.66464" lon="6.87094">
        <ele>2068.6</ele>
        <time>2021-05-27T12:11:26Z</time>
      </trkpt>
      <trkpt lat="45.66468" lon="6.87097">
        <ele>2069.8</ele>
        <time>2021-05-27T12:11:27Z</time>
      </trkpt>
      <trkpt lat="45.66471" lon="6.87101">
        <ele>2071.2</ele>
        <time>2021-05-27T12:11:28Z</time>
      </trkpt>
      <trkpt lat="45.66474" lon="6.87104">
        <ele>2072</ele>
        <time>2021-05-27T12:11:29Z</time>
      </trkpt>
      <trkpt lat="45.66477" lon="6.87108">
        <ele>2072.6</ele>
        <time>2021-05-27T12:11:30Z</time>
      </trkpt>
      <trkpt lat="45.6648" lon="6.87112">
        <ele>2073.4</ele>
        <time>2021-05-27T12:11:31Z</time>
      </trkpt>
      <trkpt lat="45.66484" lon="6.87115">
        <ele>2074.2</ele>
        <time>2021-05-27T12:11:32Z</time>
      </trkpt>
      <trkpt lat="45.66487" lon="6.87118">
        <ele>2074.8</ele>
        <time>2021-05-27T12:11:33Z</time>
      </trkpt>
      <trkpt lat="45.6649" lon="6.87121">
        <ele>2075.8</ele>
        <time>2021-05-27T12:11:34Z</time>
      </trkpt>
      <trkpt lat="45.66494" lon="6.87124">
        <ele>2076.6</ele>
        <time>2021-05-27T12:11:35Z</time>
      </trkpt>
      <trkpt lat="45.66497" lon="6.87126">
        <ele>2077.2</ele>
        <time>2021-05-27T12:11:36Z</time>
      </trkpt>
      <trkpt lat="45.66501" lon="6.87128">
        <ele>2078</ele>
        <time>2021-05-27T12:11:37Z</time>
      </trkpt>
      <trkpt lat="45.66505" lon="6.87129">
        <ele>2078.8</ele>
        <time>2021-05-27T12:11:38Z</time>
      </trkpt>
      <trkpt lat="45.66508" lon="6.87131">
        <ele>2079.4</ele>
        <time>2021-05-27T12:11:39Z</time>
      </trkpt>
      <trkpt lat="45.66511" lon="6.87132">
        <ele>2080</ele>
        <time>2021-05-27T12:11:40Z</time>
      </trkpt>
      <trkpt lat="45.66515" lon="6.87134">
        <ele>2080.6</ele>
        <time>2021-05-27T12:11:41Z</time>
      </trkpt>
      <trkpt lat="45.66518" lon="6.87134">
        <ele>2081.2</ele>
        <time>2021-05-27T12:11:42Z</time>
      </trkpt>
      <trkpt lat="45.66521" lon="6.87135">
        <ele>2081.8</ele>
        <time>2021-05-27T12:11:43Z</time>
      </trkpt>
      <trkpt lat="45.66524" lon="6.87136">
        <ele>2082.6</ele>
        <time>2021-05-27T12:11:44Z</time>
      </trkpt>
      <trkpt lat="45.66528" lon="6.87137">
        <ele>2083.2</ele>
        <time>2021-05-27T12:11:45Z</time>
      </trkpt>
      <trkpt lat="45.66532" lon="6.87138">
        <ele>2083.8</ele>
        <time>2021-05-27T12:11:46Z</time>
      </trkpt>
      <trkpt lat="45.66535" lon="6.87138">
        <ele>2084.8</ele>
        <time>2021-05-27T12:11:47Z</time>
      </trkpt>
      <trkpt lat="45.66539" lon="6.87139">
        <ele>2085.2</ele>
        <time>2021-05-27T12:11:48Z</time>
      </trkpt>
      <trkpt lat="45.66542" lon="6.8714">
        <ele>2085.8</ele>
        <time>2021-05-27T12:11:49Z</time>
      </trkpt>
      <trkpt lat="45.66546" lon="6.87141">
        <ele>2086.2</ele>
        <time>2021-05-27T12:11:50Z</time>
      </trkpt>
      <trkpt lat="45.6655" lon="6.87141">
        <ele>2086.6</ele>
        <time>2021-05-27T12:11:51Z</time>
      </trkpt>
      <trkpt lat="45.66554" lon="6.87142">
        <ele>2087.2</ele>
        <time>2021-05-27T12:11:52Z</time>
      </trkpt>
      <trkpt lat="45.66558" lon="6.87142">
        <ele>2087.6</ele>
        <time>2021-05-27T12:11:53Z</time>
      </trkpt>
      <trkpt lat="45.66561" lon="6.87143">
        <ele>2088</ele>
        <time>2021-05-27T12:11:54Z</time>
      </trkpt>
      <trkpt lat="45.66564" lon="6.87144">
        <ele>2088.4</ele>
        <time>2021-05-27T12:11:55Z</time>
      </trkpt>
      <trkpt lat="45.66568" lon="6.87146">
        <ele>2088.8</ele>
        <time>2021-05-27T12:11:56Z</time>
      </trkpt>
      <trkpt lat="45.66572" lon="6.87147">
        <ele>2089</ele>
        <time>2021-05-27T12:11:57Z</time>
      </trkpt>
      <trkpt lat="45.66575" lon="6.87148">
        <ele>2089.4</ele>
        <time>2021-05-27T12:11:58Z</time>
      </trkpt>
      <trkpt lat="45.66579" lon="6.87149">
        <ele>2090</ele>
        <time>2021-05-27T12:11:59Z</time>
      </trkpt>
      <trkpt lat="45.66582" lon="6.87151">
        <ele>2090.4</ele>
        <time>2021-05-27T12:12:00Z</time>
      </trkpt>
      <trkpt lat="45.66586" lon="6.87152">
        <ele>2091</ele>
        <time>2021-05-27T12:12:01Z</time>
      </trkpt>
      <trkpt lat="45.66589" lon="6.87154">
        <ele>2091.2</ele>
        <time>2021-05-27T12:12:02Z</time>
      </trkpt>
      <trkpt lat="45.66592" lon="6.87155">
        <ele>2091</ele>
        <time>2021-05-27T12:12:03Z</time>
      </trkpt>
      <trkpt lat="45.66596" lon="6.87157">
        <ele>2091.6</ele>
        <time>2021-05-27T12:12:04Z</time>
      </trkpt>
      <trkpt lat="45.66599" lon="6.87159">
        <ele>2091.8</ele>
        <time>2021-05-27T12:12:05Z</time>
      </trkpt>
      <trkpt lat="45.66603" lon="6.87162">
        <ele>2092</ele>
        <time>2021-05-27T12:12:06Z</time>
      </trkpt>
      <trkpt lat="45.66606" lon="6.87164">
        <ele>2092</ele>
        <time>2021-05-27T12:12:07Z</time>
      </trkpt>
      <trkpt lat="45.6661" lon="6.87167">
        <ele>2092</ele>
        <time>2021-05-27T12:12:08Z</time>
      </trkpt>
      <trkpt lat="45.66612" lon="6.8717">
        <ele>2092</ele>
        <time>2021-05-27T12:12:09Z</time>
      </trkpt>
      <trkpt lat="45.66616" lon="6.87173">
        <ele>2091.8</ele>
        <time>2021-05-27T12:12:10Z</time>
      </trkpt>
      <trkpt lat="45.66619" lon="6.87176">
        <ele>2091.8</ele>
        <time>2021-05-27T12:12:11Z</time>
      </trkpt>
      <trkpt lat="45.66622" lon="6.87178">
        <ele>2091.6</ele>
        <time>2021-05-27T12:12:12Z</time>
      </trkpt>
      <trkpt lat="45.66625" lon="6.8718">
        <ele>2091.2</ele>
        <time>2021-05-27T12:12:13Z</time>
      </trkpt>
      <trkpt lat="45.66629" lon="6.87183">
        <ele>2090.8</ele>
        <time>2021-05-27T12:12:14Z</time>
      </trkpt>
      <trkpt lat="45.66632" lon="6.87185">
        <ele>2090.2</ele>
        <time>2021-05-27T12:12:15Z</time>
      </trkpt>
      <trkpt lat="45.66635" lon="6.87187">
        <ele>2089.6</ele>
        <time>2021-05-27T12:12:16Z</time>
      </trkpt>
      <trkpt lat="45.66639" lon="6.87189">
        <ele>2089</ele>
        <time>2021-05-27T12:12:17Z</time>
      </trkpt>
      <trkpt lat="45.66643" lon="6.8719">
        <ele>2088.2</ele>
        <time>2021-05-27T12:12:18Z</time>
      </trkpt>
      <trkpt lat="45.66645" lon="6.87191">
        <ele>2087.6</ele>
        <time>2021-05-27T12:12:19Z</time>
      </trkpt>
      <trkpt lat="45.6665" lon="6.87192">
        <ele>2087</ele>
        <time>2021-05-27T12:12:20Z</time>
      </trkpt>
      <trkpt lat="45.66653" lon="6.87193">
        <ele>2086.2</ele>
        <time>2021-05-27T12:12:21Z</time>
      </trkpt>
      <trkpt lat="45.66657" lon="6.87193">
        <ele>2085.8</ele>
        <time>2021-05-27T12:12:22Z</time>
      </trkpt>
      <trkpt lat="45.66661" lon="6.87194">
        <ele>2085.4</ele>
        <time>2021-05-27T12:12:23Z</time>
      </trkpt>
      <trkpt lat="45.66664" lon="6.87195">
        <ele>2085</ele>
        <time>2021-05-27T12:12:24Z</time>
      </trkpt>
      <trkpt lat="45.66668" lon="6.87196">
        <ele>2084.6</ele>
        <time>2021-05-27T12:12:25Z</time>
      </trkpt>
      <trkpt lat="45.66672" lon="6.87197">
        <ele>2084.2</ele>
        <time>2021-05-27T12:12:26Z</time>
      </trkpt>
      <trkpt lat="45.66676" lon="6.87198">
        <ele>2084</ele>
        <time>2021-05-27T12:12:27Z</time>
      </trkpt>
      <trkpt lat="45.66679" lon="6.87199">
        <ele>2083.8</ele>
        <time>2021-05-27T12:12:28Z</time>
      </trkpt>
      <trkpt lat="45.66682" lon="6.872">
        <ele>2083.6</ele>
        <time>2021-05-27T12:12:29Z</time>
      </trkpt>
      <trkpt lat="45.66686" lon="6.87201">
        <ele>2083.2</ele>
        <time>2021-05-27T12:12:30Z</time>
      </trkpt>
      <trkpt lat="45.66691" lon="6.87203">
        <ele>2083</ele>
        <time>2021-05-27T12:12:31Z</time>
      </trkpt>
      <trkpt lat="45.66693" lon="6.87205">
        <ele>2082.8</ele>
        <time>2021-05-27T12:12:32Z</time>
      </trkpt>
      <trkpt lat="45.66697" lon="6.87206">
        <ele>2082.6</ele>
        <time>2021-05-27T12:12:33Z</time>
      </trkpt>
      <trkpt lat="45.667" lon="6.87208">
        <ele>2082.4</ele>
        <time>2021-05-27T12:12:34Z</time>
      </trkpt>
      <trkpt lat="45.66705" lon="6.87208">
        <ele>2082.4</ele>
        <time>2021-05-27T12:12:35Z</time>
      </trkpt>
      <trkpt lat="45.66708" lon="6.87209">
        <ele>2082.6</ele>
        <time>2021-05-27T12:12:36Z</time>
      </trkpt>
      <trkpt lat="45.66712" lon="6.87211">
        <ele>2083</ele>
        <time>2021-05-27T12:12:37Z</time>
      </trkpt>
      <trkpt lat="45.66715" lon="6.87213">
        <ele>2083</ele>
        <time>2021-05-27T12:12:38Z</time>
      </trkpt>
      <trkpt lat="45.66719" lon="6.87215">
        <ele>2083</ele>
        <time>2021-05-27T12:12:39Z</time>
      </trkpt>
      <trkpt lat="45.66723" lon="6.87217">
        <ele>2083</ele>
        <time>2021-05-27T12:12:40Z</time>
      </trkpt>
      <trkpt lat="45.66725" lon="6.87219">
        <ele>2083</ele>
        <time>2021-05-27T12:12:41Z</time>
      </trkpt>
      <trkpt lat="45.66729" lon="6.87221">
        <ele>2083</ele>
        <time>2021-05-27T12:12:42Z</time>
      </trkpt>
      <trkpt lat="45.66732" lon="6.87223">
        <ele>2082.8</ele>
        <time>2021-05-27T12:12:43Z</time>
      </trkpt>
      <trkpt lat="45.66736" lon="6.87225">
        <ele>2082.6</ele>
        <time>2021-05-27T12:12:44Z</time>
      </trkpt>
      <trkpt lat="45.6674" lon="6.87227">
        <ele>2082.6</ele>
        <time>2021-05-27T12:12:45Z</time>
      </trkpt>
      <trkpt lat="45.66743" lon="6.87229">
        <ele>2082.2</ele>
        <time>2021-05-27T12:12:46Z</time>
      </trkpt>
      <trkpt lat="45.66747" lon="6.8723">
        <ele>2082.2</ele>
        <time>2021-05-27T12:12:47Z</time>
      </trkpt>
      <trkpt lat="45.6675" lon="6.87232">
        <ele>2082</ele>
        <time>2021-05-27T12:12:48Z</time>
      </trkpt>
      <trkpt lat="45.66754" lon="6.87234">
        <ele>2081.8</ele>
        <time>2021-05-27T12:12:49Z</time>
      </trkpt>
      <trkpt lat="45.66758" lon="6.87235">
        <ele>2081.6</ele>
        <time>2021-05-27T12:12:50Z</time>
      </trkpt>
      <trkpt lat="45.66762" lon="6.87236">
        <ele>2081.4</ele>
        <time>2021-05-27T12:12:51Z</time>
      </trkpt>
      <trkpt lat="45.66766" lon="6.87236">
        <ele>2080.8</ele>
        <time>2021-05-27T12:12:52Z</time>
      </trkpt>
      <trkpt lat="45.6677" lon="6.87236">
        <ele>2080.6</ele>
        <time>2021-05-27T12:12:53Z</time>
      </trkpt>
      <trkpt lat="45.66774" lon="6.87237">
        <ele>2080.4</ele>
        <time>2021-05-27T12:12:54Z</time>
      </trkpt>
      <trkpt lat="45.66777" lon="6.87237">
        <ele>2080.4</ele>
        <time>2021-05-27T12:12:55Z</time>
      </trkpt>
      <trkpt lat="45.66781" lon="6.87237">
        <ele>2080.4</ele>
        <time>2021-05-27T12:12:56Z</time>
      </trkpt>
      <trkpt lat="45.66785" lon="6.87238">
        <ele>2080.4</ele>
        <time>2021-05-27T12:12:57Z</time>
      </trkpt>
      <trkpt lat="45.66789" lon="6.87237">
        <ele>2080.6</ele>
        <time>2021-05-27T12:12:58Z</time>
      </trkpt>
      <trkpt lat="45.66793" lon="6.87236">
        <ele>2080.6</ele>
        <time>2021-05-27T12:12:59Z</time>
      </trkpt>
      <trkpt lat="45.66796" lon="6.87235">
        <ele>2080.6</ele>
        <time>2021-05-27T12:13:00Z</time>
      </trkpt>
      <trkpt lat="45.668" lon="6.87234">
        <ele>2080.6</ele>
        <time>2021-05-27T12:13:01Z</time>
      </trkpt>
      <trkpt lat="45.66803" lon="6.87233">
        <ele>2080.4</ele>
        <time>2021-05-27T12:13:02Z</time>
      </trkpt>
      <trkpt lat="45.66807" lon="6.87232">
        <ele>2080.2</ele>
        <time>2021-05-27T12:13:03Z</time>
      </trkpt>
      <trkpt lat="45.66812" lon="6.87231">
        <ele>2080</ele>
        <time>2021-05-27T12:13:04Z</time>
      </trkpt>
      <trkpt lat="45.66815" lon="6.87231">
        <ele>2079.8</ele>
        <time>2021-05-27T12:13:05Z</time>
      </trkpt>
      <trkpt lat="45.66819" lon="6.8723">
        <ele>2080</ele>
        <time>2021-05-27T12:13:06Z</time>
      </trkpt>
      <trkpt lat="45.66822" lon="6.87229">
        <ele>2080.4</ele>
        <time>2021-05-27T12:13:07Z</time>
      </trkpt>
      <trkpt lat="45.66826" lon="6.87229">
        <ele>2080.8</ele>
        <time>2021-05-27T12:13:08Z</time>
      </trkpt>
      <trkpt lat="45.6683" lon="6.87229">
        <ele>2081.2</ele>
        <time>2021-05-27T12:13:09Z</time>
      </trkpt>
      <trkpt lat="45.66834" lon="6.8723">
        <ele>2081.8</ele>
        <time>2021-05-27T12:13:10Z</time>
      </trkpt>
      <trkpt lat="45.66837" lon="6.87231">
        <ele>2082</ele>
        <time>2021-05-27T12:13:11Z</time>
      </trkpt>
      <trkpt lat="45.66841" lon="6.87232">
        <ele>2082</ele>
        <time>2021-05-27T12:13:12Z</time>
      </trkpt>
      <trkpt lat="45.66844" lon="6.87234">
        <ele>2082</ele>
        <time>2021-05-27T12:13:13Z</time>
      </trkpt>
      <trkpt lat="45.66847" lon="6.87236">
        <ele>2082.2</ele>
        <time>2021-05-27T12:13:14Z</time>
      </trkpt>
      <trkpt lat="45.6685" lon="6.8724">
        <ele>2082.2</ele>
        <time>2021-05-27T12:13:15Z</time>
      </trkpt>
      <trkpt lat="45.66853" lon="6.87243">
        <ele>2082.4</ele>
        <time>2021-05-27T12:13:16Z</time>
      </trkpt>
      <trkpt lat="45.66855" lon="6.87247">
        <ele>2082.8</ele>
        <time>2021-05-27T12:13:17Z</time>
      </trkpt>
      <trkpt lat="45.66858" lon="6.87251">
        <ele>2083</ele>
        <time>2021-05-27T12:13:18Z</time>
      </trkpt>
      <trkpt lat="45.6686" lon="6.87256">
        <ele>2083.2</ele>
        <time>2021-05-27T12:13:19Z</time>
      </trkpt>
      <trkpt lat="45.66862" lon="6.8726">
        <ele>2083.4</ele>
        <time>2021-05-27T12:13:20Z</time>
      </trkpt>
      <trkpt lat="45.66864" lon="6.87264">
        <ele>2083.6</ele>
        <time>2021-05-27T12:13:21Z</time>
      </trkpt>
      <trkpt lat="45.66868" lon="6.87267">
        <ele>2083.8</ele>
        <time>2021-05-27T12:13:22Z</time>
      </trkpt>
      <trkpt lat="45.6687" lon="6.8727">
        <ele>2083.8</ele>
        <time>2021-05-27T12:13:23Z</time>
      </trkpt>
      <trkpt lat="45.66874" lon="6.87272">
        <ele>2083.8</ele>
        <time>2021-05-27T12:13:24Z</time>
      </trkpt>
      <trkpt lat="45.66877" lon="6.87273">
        <ele>2083.8</ele>
        <time>2021-05-27T12:13:25Z</time>
      </trkpt>
      <trkpt lat="45.66881" lon="6.87274">
        <ele>2083.8</ele>
        <time>2021-05-27T12:13:26Z</time>
      </trkpt>
      <trkpt lat="45.66884" lon="6.87274">
        <ele>2083.8</ele>
        <time>2021-05-27T12:13:27Z</time>
      </trkpt>
      <trkpt lat="45.66888" lon="6.87273">
        <ele>2084.2</ele>
        <time>2021-05-27T12:13:28Z</time>
      </trkpt>
      <trkpt lat="45.66891" lon="6.87272">
        <ele>2084.8</ele>
        <time>2021-05-27T12:13:29Z</time>
      </trkpt>
      <trkpt lat="45.66894" lon="6.8727">
        <ele>2085.6</ele>
        <time>2021-05-27T12:13:30Z</time>
      </trkpt>
      <trkpt lat="45.66898" lon="6.87269">
        <ele>2086.4</ele>
        <time>2021-05-27T12:13:31Z</time>
      </trkpt>
      <trkpt lat="45.66902" lon="6.87267">
        <ele>2087.2</ele>
        <time>2021-05-27T12:13:32Z</time>
      </trkpt>
      <trkpt lat="45.66905" lon="6.87265">
        <ele>2087.8</ele>
        <time>2021-05-27T12:13:33Z</time>
      </trkpt>
      <trkpt lat="45.66909" lon="6.87263">
        <ele>2088.8</ele>
        <time>2021-05-27T12:13:34Z</time>
      </trkpt>
      <trkpt lat="45.66912" lon="6.87261">
        <ele>2089.2</ele>
        <time>2021-05-27T12:13:35Z</time>
      </trkpt>
      <trkpt lat="45.66916" lon="6.87259">
        <ele>2090.2</ele>
        <time>2021-05-27T12:13:36Z</time>
      </trkpt>
      <trkpt lat="45.66919" lon="6.87258">
        <ele>2090.8</ele>
        <time>2021-05-27T12:13:37Z</time>
      </trkpt>
      <trkpt lat="45.66923" lon="6.87256">
        <ele>2091.8</ele>
        <time>2021-05-27T12:13:38Z</time>
      </trkpt>
      <trkpt lat="45.66926" lon="6.87254">
        <ele>2092.6</ele>
        <time>2021-05-27T12:13:39Z</time>
      </trkpt>
      <trkpt lat="45.6693" lon="6.87252">
        <ele>2093.2</ele>
        <time>2021-05-27T12:13:40Z</time>
      </trkpt>
      <trkpt lat="45.66933" lon="6.87251">
        <ele>2094</ele>
        <time>2021-05-27T12:13:41Z</time>
      </trkpt>
      <trkpt lat="45.66936" lon="6.8725">
        <ele>2095</ele>
        <time>2021-05-27T12:13:42Z</time>
      </trkpt>
      <trkpt lat="45.66939" lon="6.8725">
        <ele>2096</ele>
        <time>2021-05-27T12:13:43Z</time>
      </trkpt>
      <trkpt lat="45.66942" lon="6.87252">
        <ele>2096.6</ele>
        <time>2021-05-27T12:13:44Z</time>
      </trkpt>
      <trkpt lat="45.66945" lon="6.87254">
        <ele>2097.4</ele>
        <time>2021-05-27T12:13:45Z</time>
      </trkpt>
      <trkpt lat="45.66949" lon="6.87256">
        <ele>2098.2</ele>
        <time>2021-05-27T12:13:46Z</time>
      </trkpt>
      <trkpt lat="45.66951" lon="6.87259">
        <ele>2098.8</ele>
        <time>2021-05-27T12:13:47Z</time>
      </trkpt>
      <trkpt lat="45.66954" lon="6.87262">
        <ele>2099.2</ele>
        <time>2021-05-27T12:13:48Z</time>
      </trkpt>
      <trkpt lat="45.66957" lon="6.87265">
        <ele>2099.4</ele>
        <time>2021-05-27T12:13:49Z</time>
      </trkpt>
      <trkpt lat="45.66959" lon="6.87267">
        <ele>2099.6</ele>
        <time>2021-05-27T12:13:50Z</time>
      </trkpt>
      <trkpt lat="45.66962" lon="6.8727">
        <ele>2099.8</ele>
        <time>2021-05-27T12:13:51Z</time>
      </trkpt>
      <trkpt lat="45.66965" lon="6.87271">
        <ele>2100.2</ele>
        <time>2021-05-27T12:13:52Z</time>
      </trkpt>
      <trkpt lat="45.66968" lon="6.87273">
        <ele>2100.4</ele>
        <time>2021-05-27T12:13:53Z</time>
      </trkpt>
      <trkpt lat="45.66971" lon="6.87274">
        <ele>2100.4</ele>
        <time>2021-05-27T12:13:54Z</time>
      </trkpt>
      <trkpt lat="45.66973" lon="6.87276">
        <ele>2100.6</ele>
        <time>2021-05-27T12:13:55Z</time>
      </trkpt>
      <trkpt lat="45.66977" lon="6.87277">
        <ele>2100.6</ele>
        <time>2021-05-27T12:13:56Z</time>
      </trkpt>
      <trkpt lat="45.66979" lon="6.87278">
        <ele>2100.6</ele>
        <time>2021-05-27T12:13:57Z</time>
      </trkpt>
      <trkpt lat="45.66982" lon="6.8728">
        <ele>2101</ele>
        <time>2021-05-27T12:13:58Z</time>
      </trkpt>
      <trkpt lat="45.66985" lon="6.87281">
        <ele>2101.4</ele>
        <time>2021-05-27T12:13:59Z</time>
      </trkpt>
      <trkpt lat="45.66988" lon="6.87282">
        <ele>2101.6</ele>
        <time>2021-05-27T12:14:00Z</time>
      </trkpt>
      <trkpt lat="45.6699" lon="6.87284">
        <ele>2101.4</ele>
        <time>2021-05-27T12:14:01Z</time>
      </trkpt>
      <trkpt lat="45.66993" lon="6.87285">
        <ele>2101.2</ele>
        <time>2021-05-27T12:14:02Z</time>
      </trkpt>
      <trkpt lat="45.66996" lon="6.87286">
        <ele>2101.2</ele>
        <time>2021-05-27T12:14:03Z</time>
      </trkpt>
      <trkpt lat="45.66998" lon="6.87287">
        <ele>2100.8</ele>
        <time>2021-05-27T12:14:04Z</time>
      </trkpt>
      <trkpt lat="45.67001" lon="6.87288">
        <ele>2100.2</ele>
        <time>2021-05-27T12:14:05Z</time>
      </trkpt>
      <trkpt lat="45.67003" lon="6.87289">
        <ele>2099.6</ele>
        <time>2021-05-27T12:14:06Z</time>
      </trkpt>
      <trkpt lat="45.67006" lon="6.8729">
        <ele>2098.8</ele>
        <time>2021-05-27T12:14:07Z</time>
      </trkpt>
      <trkpt lat="45.67008" lon="6.87292">
        <ele>2098</ele>
        <time>2021-05-27T12:14:08Z</time>
      </trkpt>
      <trkpt lat="45.67011" lon="6.87294">
        <ele>2097.4</ele>
        <time>2021-05-27T12:14:09Z</time>
      </trkpt>
      <trkpt lat="45.67013" lon="6.87296">
        <ele>2096.8</ele>
        <time>2021-05-27T12:14:10Z</time>
      </trkpt>
      <trkpt lat="45.67015" lon="6.87298">
        <ele>2096</ele>
        <time>2021-05-27T12:14:11Z</time>
      </trkpt>
      <trkpt lat="45.67017" lon="6.87299">
        <ele>2095.2</ele>
        <time>2021-05-27T12:14:12Z</time>
      </trkpt>
      <trkpt lat="45.6702" lon="6.873">
        <ele>2094.8</ele>
        <time>2021-05-27T12:14:13Z</time>
      </trkpt>
      <trkpt lat="45.67021" lon="6.87302">
        <ele>2094.6</ele>
        <time>2021-05-27T12:14:14Z</time>
      </trkpt>
      <trkpt lat="45.67023" lon="6.87304">
        <ele>2094</ele>
        <time>2021-05-27T12:14:15Z</time>
      </trkpt>
      <trkpt lat="45.67025" lon="6.87305">
        <ele>2093.6</ele>
        <time>2021-05-27T12:14:16Z</time>
      </trkpt>
      <trkpt lat="45.67027" lon="6.87305">
        <ele>2093</ele>
        <time>2021-05-27T12:14:17Z</time>
      </trkpt>
      <trkpt lat="45.67029" lon="6.87307">
        <ele>2092</ele>
        <time>2021-05-27T12:14:19Z</time>
      </trkpt>
      <trkpt lat="45.67031" lon="6.87309">
        <ele>2091</ele>
        <time>2021-05-27T12:14:21Z</time>
      </trkpt>
      <trkpt lat="45.67033" lon="6.87311">
        <ele>2090</ele>
        <time>2021-05-27T12:14:23Z</time>
      </trkpt>
      <trkpt lat="45.67036" lon="6.87314">
        <ele>2089.2</ele>
        <time>2021-05-27T12:14:25Z</time>
      </trkpt>
      <trkpt lat="45.67038" lon="6.87316">
        <ele>2088.6</ele>
        <time>2021-05-27T12:14:27Z</time>
      </trkpt>
      <trkpt lat="45.6704" lon="6.87318">
        <ele>2088.2</ele>
        <time>2021-05-27T12:14:28Z</time>
      </trkpt>
      <trkpt lat="45.67042" lon="6.8732">
        <ele>2088</ele>
        <time>2021-05-27T12:14:29Z</time>
      </trkpt>
      <trkpt lat="45.67043" lon="6.87322">
        <ele>2087.6</ele>
        <time>2021-05-27T12:14:30Z</time>
      </trkpt>
      <trkpt lat="45.67045" lon="6.87324">
        <ele>2087.8</ele>
        <time>2021-05-27T12:14:31Z</time>
      </trkpt>
      <trkpt lat="45.67047" lon="6.87326">
        <ele>2087.8</ele>
        <time>2021-05-27T12:14:32Z</time>
      </trkpt>
      <trkpt lat="45.67049" lon="6.87328">
        <ele>2087.6</ele>
        <time>2021-05-27T12:14:33Z</time>
      </trkpt>
      <trkpt lat="45.67052" lon="6.8733">
        <ele>2087.8</ele>
        <time>2021-05-27T12:14:34Z</time>
      </trkpt>
      <trkpt lat="45.67054" lon="6.87332">
        <ele>2087.8</ele>
        <time>2021-05-27T12:14:35Z</time>
      </trkpt>
      <trkpt lat="45.67057" lon="6.87334">
        <ele>2087.6</ele>
        <time>2021-05-27T12:14:36Z</time>
      </trkpt>
      <trkpt lat="45.67059" lon="6.87336">
        <ele>2087.6</ele>
        <time>2021-05-27T12:14:37Z</time>
      </trkpt>
      <trkpt lat="45.67061" lon="6.87339">
        <ele>2087.6</ele>
        <time>2021-05-27T12:14:38Z</time>
      </trkpt>
      <trkpt lat="45.67063" lon="6.87342">
        <ele>2087.4</ele>
        <time>2021-05-27T12:14:39Z</time>
      </trkpt>
      <trkpt lat="45.67065" lon="6.87346">
        <ele>2087.4</ele>
        <time>2021-05-27T12:14:40Z</time>
      </trkpt>
      <trkpt lat="45.67067" lon="6.8735">
        <ele>2087.2</ele>
        <time>2021-05-27T12:14:41Z</time>
      </trkpt>
      <trkpt lat="45.67068" lon="6.87354">
        <ele>2087</ele>
        <time>2021-05-27T12:14:42Z</time>
      </trkpt>
      <trkpt lat="45.67068" lon="6.87358">
        <ele>2086.8</ele>
        <time>2021-05-27T12:14:43Z</time>
      </trkpt>
      <trkpt lat="45.67067" lon="6.87363">
        <ele>2087</ele>
        <time>2021-05-27T12:14:44Z</time>
      </trkpt>
      <trkpt lat="45.67066" lon="6.87367">
        <ele>2087.2</ele>
        <time>2021-05-27T12:14:45Z</time>
      </trkpt>
      <trkpt lat="45.67064" lon="6.87371">
        <ele>2087.8</ele>
        <time>2021-05-27T12:14:46Z</time>
      </trkpt>
      <trkpt lat="45.67061" lon="6.87373">
        <ele>2088.6</ele>
        <time>2021-05-27T12:14:47Z</time>
      </trkpt>
      <trkpt lat="45.67057" lon="6.87375">
        <ele>2089.6</ele>
        <time>2021-05-27T12:14:48Z</time>
      </trkpt>
      <trkpt lat="45.67054" lon="6.87376">
        <ele>2090.8</ele>
        <time>2021-05-27T12:14:49Z</time>
      </trkpt>
      <trkpt lat="45.6705" lon="6.87375">
        <ele>2092.4</ele>
        <time>2021-05-27T12:14:50Z</time>
      </trkpt>
      <trkpt lat="45.67046" lon="6.87375">
        <ele>2094</ele>
        <time>2021-05-27T12:14:51Z</time>
      </trkpt>
      <trkpt lat="45.67043" lon="6.87374">
        <ele>2095.6</ele>
        <time>2021-05-27T12:14:52Z</time>
      </trkpt>
      <trkpt lat="45.67039" lon="6.87372">
        <ele>2097</ele>
        <time>2021-05-27T12:14:53Z</time>
      </trkpt>
      <trkpt lat="45.67035" lon="6.8737">
        <ele>2098.6</ele>
        <time>2021-05-27T12:14:54Z</time>
      </trkpt>
      <trkpt lat="45.67032" lon="6.87368">
        <ele>2100</ele>
        <time>2021-05-27T12:14:55Z</time>
      </trkpt>
      <trkpt lat="45.67029" lon="6.87365">
        <ele>2101</ele>
        <time>2021-05-27T12:14:56Z</time>
      </trkpt>
      <trkpt lat="45.67025" lon="6.87363">
        <ele>2102.2</ele>
        <time>2021-05-27T12:14:57Z</time>
      </trkpt>
      <trkpt lat="45.67022" lon="6.87361">
        <ele>2103.6</ele>
        <time>2021-05-27T12:14:58Z</time>
      </trkpt>
      <trkpt lat="45.67019" lon="6.87358">
        <ele>2104.4</ele>
        <time>2021-05-27T12:14:59Z</time>
      </trkpt>
      <trkpt lat="45.67015" lon="6.87355">
        <ele>2105.4</ele>
        <time>2021-05-27T12:15:00Z</time>
      </trkpt>
      <trkpt lat="45.67012" lon="6.87352">
        <ele>2106.6</ele>
        <time>2021-05-27T12:15:01Z</time>
      </trkpt>
      <trkpt lat="45.67008" lon="6.87349">
        <ele>2107.6</ele>
        <time>2021-05-27T12:15:02Z</time>
      </trkpt>
      <trkpt lat="45.67005" lon="6.87346">
        <ele>2109</ele>
        <time>2021-05-27T12:15:03Z</time>
      </trkpt>
      <trkpt lat="45.67002" lon="6.87342">
        <ele>2110</ele>
        <time>2021-05-27T12:15:04Z</time>
      </trkpt>
      <trkpt lat="45.66999" lon="6.8734">
        <ele>2111</ele>
        <time>2021-05-27T12:15:05Z</time>
      </trkpt>
      <trkpt lat="45.66996" lon="6.87337">
        <ele>2112</ele>
        <time>2021-05-27T12:15:06Z</time>
      </trkpt>
      <trkpt lat="45.66993" lon="6.87334">
        <ele>2113</ele>
        <time>2021-05-27T12:15:07Z</time>
      </trkpt>
      <trkpt lat="45.66989" lon="6.87331">
        <ele>2113.8</ele>
        <time>2021-05-27T12:15:08Z</time>
      </trkpt>
      <trkpt lat="45.66986" lon="6.87328">
        <ele>2114.4</ele>
        <time>2021-05-27T12:15:09Z</time>
      </trkpt>
      <trkpt lat="45.66983" lon="6.87326">
        <ele>2115.4</ele>
        <time>2021-05-27T12:15:10Z</time>
      </trkpt>
      <trkpt lat="45.66979" lon="6.87323">
        <ele>2116.2</ele>
        <time>2021-05-27T12:15:11Z</time>
      </trkpt>
      <trkpt lat="45.66975" lon="6.87322">
        <ele>2117.2</ele>
        <time>2021-05-27T12:15:12Z</time>
      </trkpt>
      <trkpt lat="45.66972" lon="6.8732">
        <ele>2118</ele>
        <time>2021-05-27T12:15:13Z</time>
      </trkpt>
      <trkpt lat="45.66968" lon="6.87318">
        <ele>2118.8</ele>
        <time>2021-05-27T12:15:14Z</time>
      </trkpt>
      <trkpt lat="45.66964" lon="6.87317">
        <ele>2119.6</ele>
        <time>2021-05-27T12:15:15Z</time>
      </trkpt>
      <trkpt lat="45.66961" lon="6.87316">
        <ele>2120</ele>
        <time>2021-05-27T12:15:16Z</time>
      </trkpt>
      <trkpt lat="45.66957" lon="6.87315">
        <ele>2120.6</ele>
        <time>2021-05-27T12:15:17Z</time>
      </trkpt>
      <trkpt lat="45.66953" lon="6.87315">
        <ele>2121.4</ele>
        <time>2021-05-27T12:15:18Z</time>
      </trkpt>
      <trkpt lat="45.66949" lon="6.87316">
        <ele>2122.2</ele>
        <time>2021-05-27T12:15:19Z</time>
      </trkpt>
      <trkpt lat="45.66946" lon="6.87318">
        <ele>2122.6</ele>
        <time>2021-05-27T12:15:20Z</time>
      </trkpt>
      <trkpt lat="45.66943" lon="6.87321">
        <ele>2123.2</ele>
        <time>2021-05-27T12:15:21Z</time>
      </trkpt>
      <trkpt lat="45.66941" lon="6.87326">
        <ele>2123.6</ele>
        <time>2021-05-27T12:15:22Z</time>
      </trkpt>
      <trkpt lat="45.66941" lon="6.87332">
        <ele>2124</ele>
        <time>2021-05-27T12:15:23Z</time>
      </trkpt>
      <trkpt lat="45.66941" lon="6.87338">
        <ele>2124.2</ele>
        <time>2021-05-27T12:15:24Z</time>
      </trkpt>
      <trkpt lat="45.66943" lon="6.87343">
        <ele>2124.4</ele>
        <time>2021-05-27T12:15:25Z</time>
      </trkpt>
      <trkpt lat="45.66945" lon="6.87348">
        <ele>2124.8</ele>
        <time>2021-05-27T12:15:26Z</time>
      </trkpt>
      <trkpt lat="45.66948" lon="6.87352">
        <ele>2125</ele>
        <time>2021-05-27T12:15:27Z</time>
      </trkpt>
      <trkpt lat="45.66951" lon="6.87356">
        <ele>2125.4</ele>
        <time>2021-05-27T12:15:28Z</time>
      </trkpt>
      <trkpt lat="45.66955" lon="6.8736">
        <ele>2125.6</ele>
        <time>2021-05-27T12:15:29Z</time>
      </trkpt>
      <trkpt lat="45.66958" lon="6.87363">
        <ele>2126</ele>
        <time>2021-05-27T12:15:30Z</time>
      </trkpt>
      <trkpt lat="45.66961" lon="6.87366">
        <ele>2126.2</ele>
        <time>2021-05-27T12:15:31Z</time>
      </trkpt>
      <trkpt lat="45.66964" lon="6.8737">
        <ele>2126.6</ele>
        <time>2021-05-27T12:15:32Z</time>
      </trkpt>
      <trkpt lat="45.66968" lon="6.87373">
        <ele>2126.8</ele>
        <time>2021-05-27T12:15:33Z</time>
      </trkpt>
      <trkpt lat="45.66971" lon="6.87376">
        <ele>2127.2</ele>
        <time>2021-05-27T12:15:34Z</time>
      </trkpt>
      <trkpt lat="45.66974" lon="6.8738">
        <ele>2127.6</ele>
        <time>2021-05-27T12:15:35Z</time>
      </trkpt>
      <trkpt lat="45.66977" lon="6.87383">
        <ele>2127.8</ele>
        <time>2021-05-27T12:15:36Z</time>
      </trkpt>
      <trkpt lat="45.6698" lon="6.87386">
        <ele>2127.8</ele>
        <time>2021-05-27T12:15:37Z</time>
      </trkpt>
      <trkpt lat="45.66983" lon="6.87389">
        <ele>2127.8</ele>
        <time>2021-05-27T12:15:38Z</time>
      </trkpt>
      <trkpt lat="45.66985" lon="6.87393">
        <ele>2127.8</ele>
        <time>2021-05-27T12:15:39Z</time>
      </trkpt>
      <trkpt lat="45.66988" lon="6.87395">
        <ele>2128.2</ele>
        <time>2021-05-27T12:15:40Z</time>
      </trkpt>
      <trkpt lat="45.66991" lon="6.87398">
        <ele>2128.2</ele>
        <time>2021-05-27T12:15:41Z</time>
      </trkpt>
      <trkpt lat="45.66995" lon="6.87402">
        <ele>2128.6</ele>
        <time>2021-05-27T12:15:42Z</time>
      </trkpt>
      <trkpt lat="45.66997" lon="6.87404">
        <ele>2128.8</ele>
        <time>2021-05-27T12:15:43Z</time>
      </trkpt>
      <trkpt lat="45.67" lon="6.87408">
        <ele>2129.2</ele>
        <time>2021-05-27T12:15:44Z</time>
      </trkpt>
      <trkpt lat="45.67003" lon="6.87411">
        <ele>2129.6</ele>
        <time>2021-05-27T12:15:45Z</time>
      </trkpt>
      <trkpt lat="45.67005" lon="6.87414">
        <ele>2130</ele>
        <time>2021-05-27T12:15:46Z</time>
      </trkpt>
      <trkpt lat="45.67008" lon="6.87416">
        <ele>2130.2</ele>
        <time>2021-05-27T12:15:47Z</time>
      </trkpt>
      <trkpt lat="45.67011" lon="6.87419">
        <ele>2130.4</ele>
        <time>2021-05-27T12:15:48Z</time>
      </trkpt>
      <trkpt lat="45.67014" lon="6.87421">
        <ele>2130.6</ele>
        <time>2021-05-27T12:15:49Z</time>
      </trkpt>
      <trkpt lat="45.67017" lon="6.87423">
        <ele>2130.8</ele>
        <time>2021-05-27T12:15:50Z</time>
      </trkpt>
      <trkpt lat="45.67019" lon="6.87425">
        <ele>2131</ele>
        <time>2021-05-27T12:15:51Z</time>
      </trkpt>
      <trkpt lat="45.67021" lon="6.87428">
        <ele>2131.2</ele>
        <time>2021-05-27T12:15:52Z</time>
      </trkpt>
      <trkpt lat="45.67023" lon="6.8743">
        <ele>2131.4</ele>
        <time>2021-05-27T12:15:53Z</time>
      </trkpt>
      <trkpt lat="45.67025" lon="6.87432">
        <ele>2131.2</ele>
        <time>2021-05-27T12:15:54Z</time>
      </trkpt>
      <trkpt lat="45.67027" lon="6.87434">
        <ele>2131</ele>
        <time>2021-05-27T12:15:55Z</time>
      </trkpt>
      <trkpt lat="45.67029" lon="6.87438">
        <ele>2130.2</ele>
        <time>2021-05-27T12:15:57Z</time>
      </trkpt>
      <trkpt lat="45.67031" lon="6.8744">
        <ele>2129.4</ele>
        <time>2021-05-27T12:15:58Z</time>
      </trkpt>
      <trkpt lat="45.67033" lon="6.87443">
        <ele>2128.8</ele>
        <time>2021-05-27T12:15:59Z</time>
      </trkpt>
      <trkpt lat="45.67035" lon="6.87446">
        <ele>2128</ele>
        <time>2021-05-27T12:16:00Z</time>
      </trkpt>
      <trkpt lat="45.67037" lon="6.87449">
        <ele>2127.2</ele>
        <time>2021-05-27T12:16:01Z</time>
      </trkpt>
      <trkpt lat="45.67039" lon="6.87452">
        <ele>2126.6</ele>
        <time>2021-05-27T12:16:02Z</time>
      </trkpt>
      <trkpt lat="45.67041" lon="6.87454">
        <ele>2126.2</ele>
        <time>2021-05-27T12:16:03Z</time>
      </trkpt>
      <trkpt lat="45.67044" lon="6.87457">
        <ele>2125.8</ele>
        <time>2021-05-27T12:16:04Z</time>
      </trkpt>
      <trkpt lat="45.67046" lon="6.87459">
        <ele>2125.6</ele>
        <time>2021-05-27T12:16:05Z</time>
      </trkpt>
      <trkpt lat="45.67048" lon="6.87462">
        <ele>2125.4</ele>
        <time>2021-05-27T12:16:06Z</time>
      </trkpt>
      <trkpt lat="45.67051" lon="6.87464">
        <ele>2125</ele>
        <time>2021-05-27T12:16:07Z</time>
      </trkpt>
      <trkpt lat="45.67053" lon="6.87466">
        <ele>2124.4</ele>
        <time>2021-05-27T12:16:08Z</time>
      </trkpt>
      <trkpt lat="45.67055" lon="6.87469">
        <ele>2124.2</ele>
        <time>2021-05-27T12:16:09Z</time>
      </trkpt>
      <trkpt lat="45.67058" lon="6.87472">
        <ele>2123.8</ele>
        <time>2021-05-27T12:16:10Z</time>
      </trkpt>
      <trkpt lat="45.6706" lon="6.87474">
        <ele>2123.2</ele>
        <time>2021-05-27T12:16:11Z</time>
      </trkpt>
      <trkpt lat="45.67063" lon="6.87477">
        <ele>2123.2</ele>
        <time>2021-05-27T12:16:12Z</time>
      </trkpt>
      <trkpt lat="45.67065" lon="6.8748">
        <ele>2123.2</ele>
        <time>2021-05-27T12:16:13Z</time>
      </trkpt>
      <trkpt lat="45.67067" lon="6.87482">
        <ele>2123</ele>
        <time>2021-05-27T12:16:14Z</time>
      </trkpt>
      <trkpt lat="45.6707" lon="6.87486">
        <ele>2123</ele>
        <time>2021-05-27T12:16:15Z</time>
      </trkpt>
      <trkpt lat="45.67072" lon="6.87489">
        <ele>2122.8</ele>
        <time>2021-05-27T12:16:16Z</time>
      </trkpt>
      <trkpt lat="45.67074" lon="6.87492">
        <ele>2122.6</ele>
        <time>2021-05-27T12:16:17Z</time>
      </trkpt>
      <trkpt lat="45.67077" lon="6.87495">
        <ele>2122.4</ele>
        <time>2021-05-27T12:16:18Z</time>
      </trkpt>
      <trkpt lat="45.6708" lon="6.87498">
        <ele>2122.4</ele>
        <time>2021-05-27T12:16:19Z</time>
      </trkpt>
      <trkpt lat="45.67082" lon="6.87502">
        <ele>2122.4</ele>
        <time>2021-05-27T12:16:20Z</time>
      </trkpt>
      <trkpt lat="45.67086" lon="6.87505">
        <ele>2122.8</ele>
        <time>2021-05-27T12:16:21Z</time>
      </trkpt>
      <trkpt lat="45.67088" lon="6.87508">
        <ele>2123.2</ele>
        <time>2021-05-27T12:16:22Z</time>
      </trkpt>
      <trkpt lat="45.67092" lon="6.87511">
        <ele>2123.6</ele>
        <time>2021-05-27T12:16:23Z</time>
      </trkpt>
      <trkpt lat="45.67094" lon="6.87515">
        <ele>2124.4</ele>
        <time>2021-05-27T12:16:24Z</time>
      </trkpt>
      <trkpt lat="45.67097" lon="6.87518">
        <ele>2125.2</ele>
        <time>2021-05-27T12:16:25Z</time>
      </trkpt>
      <trkpt lat="45.671" lon="6.8752">
        <ele>2125.8</ele>
        <time>2021-05-27T12:16:26Z</time>
      </trkpt>
      <trkpt lat="45.67103" lon="6.87523">
        <ele>2126.4</ele>
        <time>2021-05-27T12:16:27Z</time>
      </trkpt>
      <trkpt lat="45.67106" lon="6.87526">
        <ele>2126.6</ele>
        <time>2021-05-27T12:16:28Z</time>
      </trkpt>
      <trkpt lat="45.67109" lon="6.87529">
        <ele>2126.6</ele>
        <time>2021-05-27T12:16:29Z</time>
      </trkpt>
      <trkpt lat="45.67112" lon="6.87532">
        <ele>2126.6</ele>
        <time>2021-05-27T12:16:30Z</time>
      </trkpt>
      <trkpt lat="45.67115" lon="6.87535">
        <ele>2126.8</ele>
        <time>2021-05-27T12:16:31Z</time>
      </trkpt>
      <trkpt lat="45.67118" lon="6.87539">
        <ele>2127.2</ele>
        <time>2021-05-27T12:16:32Z</time>
      </trkpt>
      <trkpt lat="45.6712" lon="6.87542">
        <ele>2127.6</ele>
        <time>2021-05-27T12:16:33Z</time>
      </trkpt>
      <trkpt lat="45.67123" lon="6.87545">
        <ele>2128</ele>
        <time>2021-05-27T12:16:34Z</time>
      </trkpt>
      <trkpt lat="45.67126" lon="6.87549">
        <ele>2128.4</ele>
        <time>2021-05-27T12:16:35Z</time>
      </trkpt>
      <trkpt lat="45.67128" lon="6.87552">
        <ele>2128.6</ele>
        <time>2021-05-27T12:16:36Z</time>
      </trkpt>
      <trkpt lat="45.67132" lon="6.87555">
        <ele>2128.6</ele>
        <time>2021-05-27T12:16:37Z</time>
      </trkpt>
      <trkpt lat="45.67134" lon="6.87559">
        <ele>2128.8</ele>
        <time>2021-05-27T12:16:38Z</time>
      </trkpt>
      <trkpt lat="45.67137" lon="6.87562">
        <ele>2128.6</ele>
        <time>2021-05-27T12:16:39Z</time>
      </trkpt>
      <trkpt lat="45.6714" lon="6.87565">
        <ele>2128.6</ele>
        <time>2021-05-27T12:16:40Z</time>
      </trkpt>
      <trkpt lat="45.67143" lon="6.87568">
        <ele>2129</ele>
        <time>2021-05-27T12:16:41Z</time>
      </trkpt>
      <trkpt lat="45.67147" lon="6.87572">
        <ele>2129.6</ele>
        <time>2021-05-27T12:16:42Z</time>
      </trkpt>
      <trkpt lat="45.6715" lon="6.87576">
        <ele>2130.4</ele>
        <time>2021-05-27T12:16:43Z</time>
      </trkpt>
      <trkpt lat="45.67154" lon="6.8758">
        <ele>2131</ele>
        <time>2021-05-27T12:16:44Z</time>
      </trkpt>
      <trkpt lat="45.67157" lon="6.87584">
        <ele>2131.2</ele>
        <time>2021-05-27T12:16:45Z</time>
      </trkpt>
      <trkpt lat="45.67161" lon="6.87589">
        <ele>2131</ele>
        <time>2021-05-27T12:16:46Z</time>
      </trkpt>
      <trkpt lat="45.67165" lon="6.87593">
        <ele>2131.4</ele>
        <time>2021-05-27T12:16:47Z</time>
      </trkpt>
      <trkpt lat="45.67168" lon="6.87597">
        <ele>2132</ele>
        <time>2021-05-27T12:16:48Z</time>
      </trkpt>
      <trkpt lat="45.67172" lon="6.87601">
        <ele>2132.8</ele>
        <time>2021-05-27T12:16:49Z</time>
      </trkpt>
      <trkpt lat="45.67176" lon="6.87605">
        <ele>2133.8</ele>
        <time>2021-05-27T12:16:50Z</time>
      </trkpt>
      <trkpt lat="45.67179" lon="6.87608">
        <ele>2134.6</ele>
        <time>2021-05-27T12:16:51Z</time>
      </trkpt>
      <trkpt lat="45.67182" lon="6.87612">
        <ele>2135.4</ele>
        <time>2021-05-27T12:16:52Z</time>
      </trkpt>
      <trkpt lat="45.67186" lon="6.87616">
        <ele>2135.8</ele>
        <time>2021-05-27T12:16:53Z</time>
      </trkpt>
      <trkpt lat="45.67189" lon="6.87621">
        <ele>2136.4</ele>
        <time>2021-05-27T12:16:54Z</time>
      </trkpt>
      <trkpt lat="45.67192" lon="6.87625">
        <ele>2136.8</ele>
        <time>2021-05-27T12:16:55Z</time>
      </trkpt>
      <trkpt lat="45.67196" lon="6.87628">
        <ele>2137.6</ele>
        <time>2021-05-27T12:16:56Z</time>
      </trkpt>
      <trkpt lat="45.67199" lon="6.87632">
        <ele>2138.4</ele>
        <time>2021-05-27T12:16:57Z</time>
      </trkpt>
      <trkpt lat="45.67203" lon="6.87636">
        <ele>2139</ele>
        <time>2021-05-27T12:16:58Z</time>
      </trkpt>
      <trkpt lat="45.67206" lon="6.8764">
        <ele>2139.4</ele>
        <time>2021-05-27T12:16:59Z</time>
      </trkpt>
      <trkpt lat="45.6721" lon="6.87644">
        <ele>2139.6</ele>
        <time>2021-05-27T12:17:00Z</time>
      </trkpt>
      <trkpt lat="45.67213" lon="6.87648">
        <ele>2139.6</ele>
        <time>2021-05-27T12:17:01Z</time>
      </trkpt>
      <trkpt lat="45.67217" lon="6.87652">
        <ele>2139.4</ele>
        <time>2021-05-27T12:17:02Z</time>
      </trkpt>
      <trkpt lat="45.6722" lon="6.87655">
        <ele>2139.2</ele>
        <time>2021-05-27T12:17:03Z</time>
      </trkpt>
      <trkpt lat="45.67223" lon="6.87659">
        <ele>2138.8</ele>
        <time>2021-05-27T12:17:04Z</time>
      </trkpt>
      <trkpt lat="45.67226" lon="6.87663">
        <ele>2138.4</ele>
        <time>2021-05-27T12:17:05Z</time>
      </trkpt>
      <trkpt lat="45.67229" lon="6.87667">
        <ele>2138</ele>
        <time>2021-05-27T12:17:06Z</time>
      </trkpt>
      <trkpt lat="45.67233" lon="6.8767">
        <ele>2137.6</ele>
        <time>2021-05-27T12:17:07Z</time>
      </trkpt>
      <trkpt lat="45.67236" lon="6.87674">
        <ele>2137.2</ele>
        <time>2021-05-27T12:17:08Z</time>
      </trkpt>
      <trkpt lat="45.6724" lon="6.87677">
        <ele>2137</ele>
        <time>2021-05-27T12:17:09Z</time>
      </trkpt>
      <trkpt lat="45.67244" lon="6.87681">
        <ele>2137</ele>
        <time>2021-05-27T12:17:10Z</time>
      </trkpt>
      <trkpt lat="45.67247" lon="6.87684">
        <ele>2136.8</ele>
        <time>2021-05-27T12:17:11Z</time>
      </trkpt>
      <trkpt lat="45.6725" lon="6.87688">
        <ele>2136.8</ele>
        <time>2021-05-27T12:17:12Z</time>
      </trkpt>
      <trkpt lat="45.67253" lon="6.87692">
        <ele>2136.8</ele>
        <time>2021-05-27T12:17:13Z</time>
      </trkpt>
      <trkpt lat="45.67256" lon="6.87696">
        <ele>2136.8</ele>
        <time>2021-05-27T12:17:14Z</time>
      </trkpt>
      <trkpt lat="45.6726" lon="6.877">
        <ele>2136.4</ele>
        <time>2021-05-27T12:17:15Z</time>
      </trkpt>
      <trkpt lat="45.67263" lon="6.87703">
        <ele>2136.2</ele>
        <time>2021-05-27T12:17:16Z</time>
      </trkpt>
      <trkpt lat="45.67266" lon="6.87707">
        <ele>2136.6</ele>
        <time>2021-05-27T12:17:17Z</time>
      </trkpt>
      <trkpt lat="45.67269" lon="6.87711">
        <ele>2137</ele>
        <time>2021-05-27T12:17:18Z</time>
      </trkpt>
      <trkpt lat="45.67272" lon="6.87715">
        <ele>2137.8</ele>
        <time>2021-05-27T12:17:19Z</time>
      </trkpt>
      <trkpt lat="45.67276" lon="6.87719">
        <ele>2138.4</ele>
        <time>2021-05-27T12:17:20Z</time>
      </trkpt>
      <trkpt lat="45.67278" lon="6.87722">
        <ele>2139.4</ele>
        <time>2021-05-27T12:17:21Z</time>
      </trkpt>
      <trkpt lat="45.67281" lon="6.87726">
        <ele>2140.4</ele>
        <time>2021-05-27T12:17:22Z</time>
      </trkpt>
      <trkpt lat="45.67285" lon="6.87729">
        <ele>2141</ele>
        <time>2021-05-27T12:17:23Z</time>
      </trkpt>
      <trkpt lat="45.67288" lon="6.87732">
        <ele>2141.4</ele>
        <time>2021-05-27T12:17:24Z</time>
      </trkpt>
      <trkpt lat="45.67292" lon="6.87735">
        <ele>2142</ele>
        <time>2021-05-27T12:17:25Z</time>
      </trkpt>
      <trkpt lat="45.67295" lon="6.87738">
        <ele>2142.4</ele>
        <time>2021-05-27T12:17:26Z</time>
      </trkpt>
      <trkpt lat="45.67298" lon="6.87742">
        <ele>2143</ele>
        <time>2021-05-27T12:17:27Z</time>
      </trkpt>
      <trkpt lat="45.67301" lon="6.87745">
        <ele>2143.8</ele>
        <time>2021-05-27T12:17:28Z</time>
      </trkpt>
      <trkpt lat="45.67304" lon="6.87748">
        <ele>2144.6</ele>
        <time>2021-05-27T12:17:29Z</time>
      </trkpt>
      <trkpt lat="45.67308" lon="6.87752">
        <ele>2145.2</ele>
        <time>2021-05-27T12:17:30Z</time>
      </trkpt>
      <trkpt lat="45.67311" lon="6.87756">
        <ele>2145.8</ele>
        <time>2021-05-27T12:17:31Z</time>
      </trkpt>
      <trkpt lat="45.67314" lon="6.8776">
        <ele>2146</ele>
        <time>2021-05-27T12:17:32Z</time>
      </trkpt>
      <trkpt lat="45.67317" lon="6.87763">
        <ele>2146.8</ele>
        <time>2021-05-27T12:17:33Z</time>
      </trkpt>
      <trkpt lat="45.67319" lon="6.87767">
        <ele>2147.4</ele>
        <time>2021-05-27T12:17:34Z</time>
      </trkpt>
      <trkpt lat="45.67322" lon="6.87771">
        <ele>2148.2</ele>
        <time>2021-05-27T12:17:35Z</time>
      </trkpt>
      <trkpt lat="45.67325" lon="6.87774">
        <ele>2148.8</ele>
        <time>2021-05-27T12:17:36Z</time>
      </trkpt>
      <trkpt lat="45.67329" lon="6.87776">
        <ele>2149.4</ele>
        <time>2021-05-27T12:17:37Z</time>
      </trkpt>
      <trkpt lat="45.67333" lon="6.8778">
        <ele>2149.8</ele>
        <time>2021-05-27T12:17:38Z</time>
      </trkpt>
      <trkpt lat="45.67336" lon="6.87784">
        <ele>2150.4</ele>
        <time>2021-05-27T12:17:39Z</time>
      </trkpt>
      <trkpt lat="45.67339" lon="6.87788">
        <ele>2150.8</ele>
        <time>2021-05-27T12:17:40Z</time>
      </trkpt>
      <trkpt lat="45.67342" lon="6.87792">
        <ele>2151.4</ele>
        <time>2021-05-27T12:17:41Z</time>
      </trkpt>
      <trkpt lat="45.67345" lon="6.87796">
        <ele>2152</ele>
        <time>2021-05-27T12:17:42Z</time>
      </trkpt>
      <trkpt lat="45.67348" lon="6.878">
        <ele>2152.6</ele>
        <time>2021-05-27T12:17:43Z</time>
      </trkpt>
      <trkpt lat="45.67352" lon="6.87804">
        <ele>2153.2</ele>
        <time>2021-05-27T12:17:44Z</time>
      </trkpt>
      <trkpt lat="45.67355" lon="6.87808">
        <ele>2154</ele>
        <time>2021-05-27T12:17:45Z</time>
      </trkpt>
      <trkpt lat="45.67359" lon="6.87812">
        <ele>2154.2</ele>
        <time>2021-05-27T12:17:46Z</time>
      </trkpt>
      <trkpt lat="45.67363" lon="6.87817">
        <ele>2153.8</ele>
        <time>2021-05-27T12:17:47Z</time>
      </trkpt>
      <trkpt lat="45.67366" lon="6.87821">
        <ele>2153.4</ele>
        <time>2021-05-27T12:17:48Z</time>
      </trkpt>
      <trkpt lat="45.6737" lon="6.87825">
        <ele>2153</ele>
        <time>2021-05-27T12:17:49Z</time>
      </trkpt>
      <trkpt lat="45.67374" lon="6.87829">
        <ele>2152.8</ele>
        <time>2021-05-27T12:17:50Z</time>
      </trkpt>
      <trkpt lat="45.67378" lon="6.87833">
        <ele>2152.6</ele>
        <time>2021-05-27T12:17:51Z</time>
      </trkpt>
      <trkpt lat="45.67381" lon="6.87837">
        <ele>2152.8</ele>
        <time>2021-05-27T12:17:52Z</time>
      </trkpt>
      <trkpt lat="45.67385" lon="6.87841">
        <ele>2153.2</ele>
        <time>2021-05-27T12:17:53Z</time>
      </trkpt>
      <trkpt lat="45.67389" lon="6.87845">
        <ele>2153.8</ele>
        <time>2021-05-27T12:17:54Z</time>
      </trkpt>
      <trkpt lat="45.67393" lon="6.87849">
        <ele>2154.6</ele>
        <time>2021-05-27T12:17:55Z</time>
      </trkpt>
      <trkpt lat="45.67397" lon="6.87853">
        <ele>2155.4</ele>
        <time>2021-05-27T12:17:56Z</time>
      </trkpt>
      <trkpt lat="45.67401" lon="6.87856">
        <ele>2156.2</ele>
        <time>2021-05-27T12:17:57Z</time>
      </trkpt>
      <trkpt lat="45.67405" lon="6.8786">
        <ele>2156.6</ele>
        <time>2021-05-27T12:17:58Z</time>
      </trkpt>
      <trkpt lat="45.67409" lon="6.87865">
        <ele>2157.4</ele>
        <time>2021-05-27T12:17:59Z</time>
      </trkpt>
      <trkpt lat="45.67413" lon="6.8787">
        <ele>2158.2</ele>
        <time>2021-05-27T12:18:00Z</time>
      </trkpt>
      <trkpt lat="45.67417" lon="6.87874">
        <ele>2158.8</ele>
        <time>2021-05-27T12:18:01Z</time>
      </trkpt>
      <trkpt lat="45.6742" lon="6.87879">
        <ele>2159.6</ele>
        <time>2021-05-27T12:18:02Z</time>
      </trkpt>
      <trkpt lat="45.67425" lon="6.87884">
        <ele>2160.2</ele>
        <time>2021-05-27T12:18:03Z</time>
      </trkpt>
      <trkpt lat="45.67429" lon="6.87889">
        <ele>2161</ele>
        <time>2021-05-27T12:18:04Z</time>
      </trkpt>
      <trkpt lat="45.67434" lon="6.87894">
        <ele>2161.4</ele>
        <time>2021-05-27T12:18:05Z</time>
      </trkpt>
      <trkpt lat="45.67438" lon="6.87899">
        <ele>2162</ele>
        <time>2021-05-27T12:18:06Z</time>
      </trkpt>
      <trkpt lat="45.67442" lon="6.87904">
        <ele>2162.4</ele>
        <time>2021-05-27T12:18:07Z</time>
      </trkpt>
      <trkpt lat="45.67447" lon="6.87909">
        <ele>2163</ele>
        <time>2021-05-27T12:18:08Z</time>
      </trkpt>
      <trkpt lat="45.67452" lon="6.87914">
        <ele>2163.6</ele>
        <time>2021-05-27T12:18:09Z</time>
      </trkpt>
      <trkpt lat="45.67456" lon="6.8792">
        <ele>2164</ele>
        <time>2021-05-27T12:18:10Z</time>
      </trkpt>
      <trkpt lat="45.6746" lon="6.87925">
        <ele>2164.4</ele>
        <time>2021-05-27T12:18:11Z</time>
      </trkpt>
      <trkpt lat="45.67465" lon="6.8793">
        <ele>2165</ele>
        <time>2021-05-27T12:18:12Z</time>
      </trkpt>
      <trkpt lat="45.6747" lon="6.87935">
        <ele>2165.6</ele>
        <time>2021-05-27T12:18:13Z</time>
      </trkpt>
      <trkpt lat="45.67474" lon="6.8794">
        <ele>2165.8</ele>
        <time>2021-05-27T12:18:14Z</time>
      </trkpt>
      <trkpt lat="45.67479" lon="6.87944">
        <ele>2166.2</ele>
        <time>2021-05-27T12:18:15Z</time>
      </trkpt>
      <trkpt lat="45.67484" lon="6.8795">
        <ele>2166.8</ele>
        <time>2021-05-27T12:18:16Z</time>
      </trkpt>
      <trkpt lat="45.67488" lon="6.87955">
        <ele>2167.2</ele>
        <time>2021-05-27T12:18:17Z</time>
      </trkpt>
      <trkpt lat="45.67493" lon="6.87961">
        <ele>2167.8</ele>
        <time>2021-05-27T12:18:18Z</time>
      </trkpt>
      <trkpt lat="45.67498" lon="6.87966">
        <ele>2168.4</ele>
        <time>2021-05-27T12:18:19Z</time>
      </trkpt>
      <trkpt lat="45.67502" lon="6.87972">
        <ele>2168.8</ele>
        <time>2021-05-27T12:18:20Z</time>
      </trkpt>
      <trkpt lat="45.67507" lon="6.87977">
        <ele>2169.6</ele>
        <time>2021-05-27T12:18:21Z</time>
      </trkpt>
      <trkpt lat="45.67512" lon="6.87983">
        <ele>2170</ele>
        <time>2021-05-27T12:18:22Z</time>
      </trkpt>
      <trkpt lat="45.67517" lon="6.87989">
        <ele>2170.4</ele>
        <time>2021-05-27T12:18:23Z</time>
      </trkpt>
      <trkpt lat="45.67522" lon="6.87994">
        <ele>2170.8</ele>
        <time>2021-05-27T12:18:24Z</time>
      </trkpt>
      <trkpt lat="45.67527" lon="6.88">
        <ele>2171.6</ele>
        <time>2021-05-27T12:18:25Z</time>
      </trkpt>
      <trkpt lat="45.67532" lon="6.88006">
        <ele>2172</ele>
        <time>2021-05-27T12:18:26Z</time>
      </trkpt>
      <trkpt lat="45.67537" lon="6.88011">
        <ele>2172.4</ele>
        <time>2021-05-27T12:18:27Z</time>
      </trkpt>
      <trkpt lat="45.67541" lon="6.88017">
        <ele>2172.8</ele>
        <time>2021-05-27T12:18:28Z</time>
      </trkpt>
      <trkpt lat="45.67547" lon="6.88022">
        <ele>2173.2</ele>
        <time>2021-05-27T12:18:29Z</time>
      </trkpt>
      <trkpt lat="45.67551" lon="6.88028">
        <ele>2173.6</ele>
        <time>2021-05-27T12:18:30Z</time>
      </trkpt>
      <trkpt lat="45.67556" lon="6.88034">
        <ele>2174</ele>
        <time>2021-05-27T12:18:31Z</time>
      </trkpt>
      <trkpt lat="45.67561" lon="6.88039">
        <ele>2174.4</ele>
        <time>2021-05-27T12:18:32Z</time>
      </trkpt>
      <trkpt lat="45.67565" lon="6.88044">
        <ele>2174.6</ele>
        <time>2021-05-27T12:18:33Z</time>
      </trkpt>
      <trkpt lat="45.67571" lon="6.8805">
        <ele>2175</ele>
        <time>2021-05-27T12:18:34Z</time>
      </trkpt>
      <trkpt lat="45.67576" lon="6.88056">
        <ele>2175.8</ele>
        <time>2021-05-27T12:18:35Z</time>
      </trkpt>
      <trkpt lat="45.67581" lon="6.88061">
        <ele>2176</ele>
        <time>2021-05-27T12:18:36Z</time>
      </trkpt>
      <trkpt lat="45.67586" lon="6.88066">
        <ele>2176.4</ele>
        <time>2021-05-27T12:18:37Z</time>
      </trkpt>
      <trkpt lat="45.67591" lon="6.88072">
        <ele>2176.6</ele>
        <time>2021-05-27T12:18:38Z</time>
      </trkpt>
      <trkpt lat="45.67596" lon="6.88078">
        <ele>2177.2</ele>
        <time>2021-05-27T12:18:39Z</time>
      </trkpt>
      <trkpt lat="45.67601" lon="6.88083">
        <ele>2177.6</ele>
        <time>2021-05-27T12:18:40Z</time>
      </trkpt>
      <trkpt lat="45.67607" lon="6.88089">
        <ele>2177.6</ele>
        <time>2021-05-27T12:18:41Z</time>
      </trkpt>
      <trkpt lat="45.67612" lon="6.88094">
        <ele>2178</ele>
        <time>2021-05-27T12:18:42Z</time>
      </trkpt>
      <trkpt lat="45.67617" lon="6.881">
        <ele>2178.2</ele>
        <time>2021-05-27T12:18:43Z</time>
      </trkpt>
      <trkpt lat="45.67622" lon="6.88106">
        <ele>2178.6</ele>
        <time>2021-05-27T12:18:44Z</time>
      </trkpt>
      <trkpt lat="45.67627" lon="6.88112">
        <ele>2178.6</ele>
        <time>2021-05-27T12:18:45Z</time>
      </trkpt>
      <trkpt lat="45.67632" lon="6.88118">
        <ele>2179</ele>
        <time>2021-05-27T12:18:46Z</time>
      </trkpt>
      <trkpt lat="45.67637" lon="6.88123">
        <ele>2179.4</ele>
        <time>2021-05-27T12:18:47Z</time>
      </trkpt>
      <trkpt lat="45.67642" lon="6.88129">
        <ele>2179.8</ele>
        <time>2021-05-27T12:18:48Z</time>
      </trkpt>
      <trkpt lat="45.67647" lon="6.88134">
        <ele>2180.4</ele>
        <time>2021-05-27T12:18:49Z</time>
      </trkpt>
      <trkpt lat="45.67652" lon="6.88139">
        <ele>2180.8</ele>
        <time>2021-05-27T12:18:50Z</time>
      </trkpt>
      <trkpt lat="45.67657" lon="6.88144">
        <ele>2181.2</ele>
        <time>2021-05-27T12:18:51Z</time>
      </trkpt>
      <trkpt lat="45.67662" lon="6.88148">
        <ele>2181.6</ele>
        <time>2021-05-27T12:18:52Z</time>
      </trkpt>
      <trkpt lat="45.67667" lon="6.88152">
        <ele>2182</ele>
        <time>2021-05-27T12:18:53Z</time>
      </trkpt>
      <trkpt lat="45.67672" lon="6.88156">
        <ele>2182.4</ele>
        <time>2021-05-27T12:18:54Z</time>
      </trkpt>
      <trkpt lat="45.67677" lon="6.88159">
        <ele>2182.8</ele>
        <time>2021-05-27T12:18:55Z</time>
      </trkpt>
      <trkpt lat="45.67682" lon="6.88162">
        <ele>2183</ele>
        <time>2021-05-27T12:18:56Z</time>
      </trkpt>
      <trkpt lat="45.67687" lon="6.88165">
        <ele>2183.2</ele>
        <time>2021-05-27T12:18:57Z</time>
      </trkpt>
      <trkpt lat="45.67692" lon="6.88168">
        <ele>2183.6</ele>
        <time>2021-05-27T12:18:58Z</time>
      </trkpt>
      <trkpt lat="45.67696" lon="6.88172">
        <ele>2183.8</ele>
        <time>2021-05-27T12:18:59Z</time>
      </trkpt>
      <trkpt lat="45.67701" lon="6.88174">
        <ele>2184.2</ele>
        <time>2021-05-27T12:19:00Z</time>
      </trkpt>
      <trkpt lat="45.67706" lon="6.88177">
        <ele>2184.8</ele>
        <time>2021-05-27T12:19:01Z</time>
      </trkpt>
      <trkpt lat="45.67711" lon="6.88179">
        <ele>2185.2</ele>
        <time>2021-05-27T12:19:02Z</time>
      </trkpt>
      <trkpt lat="45.67716" lon="6.88181">
        <ele>2185.4</ele>
        <time>2021-05-27T12:19:03Z</time>
      </trkpt>
      <trkpt lat="45.6772" lon="6.88184">
        <ele>2186</ele>
        <time>2021-05-27T12:19:04Z</time>
      </trkpt>
      <trkpt lat="45.67724" lon="6.88186">
        <ele>2186.4</ele>
        <time>2021-05-27T12:19:05Z</time>
      </trkpt>
      <trkpt lat="45.67729" lon="6.88188">
        <ele>2186.8</ele>
        <time>2021-05-27T12:19:06Z</time>
      </trkpt>
      <trkpt lat="45.67733" lon="6.88191">
        <ele>2187.2</ele>
        <time>2021-05-27T12:19:07Z</time>
      </trkpt>
      <trkpt lat="45.67738" lon="6.88193">
        <ele>2187.2</ele>
        <time>2021-05-27T12:19:08Z</time>
      </trkpt>
      <trkpt lat="45.67743" lon="6.88195">
        <ele>2186.8</ele>
        <time>2021-05-27T12:19:09Z</time>
      </trkpt>
      <trkpt lat="45.67748" lon="6.88196">
        <ele>2186.4</ele>
        <time>2021-05-27T12:19:10Z</time>
      </trkpt>
      <trkpt lat="45.67752" lon="6.88198">
        <ele>2185.8</ele>
        <time>2021-05-27T12:19:11Z</time>
      </trkpt>
      <trkpt lat="45.67757" lon="6.882">
        <ele>2185.4</ele>
        <time>2021-05-27T12:19:12Z</time>
      </trkpt>
      <trkpt lat="45.67762" lon="6.88202">
        <ele>2184.6</ele>
        <time>2021-05-27T12:19:13Z</time>
      </trkpt>
      <trkpt lat="45.67766" lon="6.88204">
        <ele>2184</ele>
        <time>2021-05-27T12:19:14Z</time>
      </trkpt>
      <trkpt lat="45.6777" lon="6.88206">
        <ele>2183.4</ele>
        <time>2021-05-27T12:19:15Z</time>
      </trkpt>
      <trkpt lat="45.67775" lon="6.88209">
        <ele>2182.4</ele>
        <time>2021-05-27T12:19:16Z</time>
      </trkpt>
      <trkpt lat="45.67779" lon="6.88211">
        <ele>2181.6</ele>
        <time>2021-05-27T12:19:17Z</time>
      </trkpt>
      <trkpt lat="45.67783" lon="6.88213">
        <ele>2181</ele>
        <time>2021-05-27T12:19:18Z</time>
      </trkpt>
      <trkpt lat="45.67788" lon="6.88215">
        <ele>2180.6</ele>
        <time>2021-05-27T12:19:19Z</time>
      </trkpt>
      <trkpt lat="45.67793" lon="6.88217">
        <ele>2180.2</ele>
        <time>2021-05-27T12:19:20Z</time>
      </trkpt>
      <trkpt lat="45.67796" lon="6.8822">
        <ele>2179.6</ele>
        <time>2021-05-27T12:19:21Z</time>
      </trkpt>
      <trkpt lat="45.67801" lon="6.88222">
        <ele>2179.2</ele>
        <time>2021-05-27T12:19:22Z</time>
      </trkpt>
      <trkpt lat="45.67805" lon="6.88225">
        <ele>2178.6</ele>
        <time>2021-05-27T12:19:23Z</time>
      </trkpt>
      <trkpt lat="45.6781" lon="6.88226">
        <ele>2178.2</ele>
        <time>2021-05-27T12:19:24Z</time>
      </trkpt>
      <trkpt lat="45.67815" lon="6.88228">
        <ele>2178</ele>
        <time>2021-05-27T12:19:25Z</time>
      </trkpt>
      <trkpt lat="45.67819" lon="6.8823">
        <ele>2177.8</ele>
        <time>2021-05-27T12:19:26Z</time>
      </trkpt>
      <trkpt lat="45.67824" lon="6.88233">
        <ele>2177.6</ele>
        <time>2021-05-27T12:19:27Z</time>
      </trkpt>
      <trkpt lat="45.67828" lon="6.88235">
        <ele>2177.8</ele>
        <time>2021-05-27T12:19:28Z</time>
      </trkpt>
      <trkpt lat="45.67833" lon="6.88237">
        <ele>2177.8</ele>
        <time>2021-05-27T12:19:29Z</time>
      </trkpt>
      <trkpt lat="45.67837" lon="6.88239">
        <ele>2177.8</ele>
        <time>2021-05-27T12:19:30Z</time>
      </trkpt>
      <trkpt lat="45.67841" lon="6.88242">
        <ele>2177.8</ele>
        <time>2021-05-27T12:19:31Z</time>
      </trkpt>
      <trkpt lat="45.67845" lon="6.88244">
        <ele>2177.6</ele>
        <time>2021-05-27T12:19:32Z</time>
      </trkpt>
      <trkpt lat="45.67849" lon="6.88245">
        <ele>2177.4</ele>
        <time>2021-05-27T12:19:33Z</time>
      </trkpt>
      <trkpt lat="45.67853" lon="6.88247">
        <ele>2177.2</ele>
        <time>2021-05-27T12:19:34Z</time>
      </trkpt>
      <trkpt lat="45.67858" lon="6.88248">
        <ele>2177.2</ele>
        <time>2021-05-27T12:19:35Z</time>
      </trkpt>
      <trkpt lat="45.67862" lon="6.88251">
        <ele>2177.4</ele>
        <time>2021-05-27T12:19:36Z</time>
      </trkpt>
      <trkpt lat="45.67866" lon="6.88253">
        <ele>2177.8</ele>
        <time>2021-05-27T12:19:37Z</time>
      </trkpt>
      <trkpt lat="45.6787" lon="6.88255">
        <ele>2178.4</ele>
        <time>2021-05-27T12:19:38Z</time>
      </trkpt>
      <trkpt lat="45.67874" lon="6.88258">
        <ele>2178.8</ele>
        <time>2021-05-27T12:19:39Z</time>
      </trkpt>
      <trkpt lat="45.67878" lon="6.8826">
        <ele>2179.4</ele>
        <time>2021-05-27T12:19:40Z</time>
      </trkpt>
      <trkpt lat="45.67882" lon="6.88262">
        <ele>2180</ele>
        <time>2021-05-27T12:19:41Z</time>
      </trkpt>
      <trkpt lat="45.67886" lon="6.88264">
        <ele>2180.6</ele>
        <time>2021-05-27T12:19:42Z</time>
      </trkpt>
      <trkpt lat="45.67889" lon="6.88267">
        <ele>2181.4</ele>
        <time>2021-05-27T12:19:43Z</time>
      </trkpt>
      <trkpt lat="45.67893" lon="6.8827">
        <ele>2182</ele>
        <time>2021-05-27T12:19:44Z</time>
      </trkpt>
      <trkpt lat="45.67897" lon="6.88272">
        <ele>2182.6</ele>
        <time>2021-05-27T12:19:45Z</time>
      </trkpt>
      <trkpt lat="45.679" lon="6.88275">
        <ele>2183.2</ele>
        <time>2021-05-27T12:19:46Z</time>
      </trkpt>
      <trkpt lat="45.67904" lon="6.88278">
        <ele>2183.8</ele>
        <time>2021-05-27T12:19:47Z</time>
      </trkpt>
      <trkpt lat="45.67907" lon="6.88281">
        <ele>2184</ele>
        <time>2021-05-27T12:19:48Z</time>
      </trkpt>
      <trkpt lat="45.67911" lon="6.88284">
        <ele>2184.4</ele>
        <time>2021-05-27T12:19:49Z</time>
      </trkpt>
      <trkpt lat="45.67914" lon="6.88287">
        <ele>2184.4</ele>
        <time>2021-05-27T12:19:50Z</time>
      </trkpt>
      <trkpt lat="45.67917" lon="6.88289">
        <ele>2184.6</ele>
        <time>2021-05-27T12:19:51Z</time>
      </trkpt>
      <trkpt lat="45.6792" lon="6.88292">
        <ele>2184.6</ele>
        <time>2021-05-27T12:19:52Z</time>
      </trkpt>
      <trkpt lat="45.67923" lon="6.88294">
        <ele>2184.6</ele>
        <time>2021-05-27T12:19:53Z</time>
      </trkpt>
      <trkpt lat="45.67926" lon="6.88296">
        <ele>2184.6</ele>
        <time>2021-05-27T12:19:54Z</time>
      </trkpt>
      <trkpt lat="45.67928" lon="6.88298">
        <ele>2184.4</ele>
        <time>2021-05-27T12:19:55Z</time>
      </trkpt>
      <trkpt lat="45.67931" lon="6.883">
        <ele>2183.8</ele>
        <time>2021-05-27T12:19:56Z</time>
      </trkpt>
      <trkpt lat="45.67933" lon="6.88302">
        <ele>2183.6</ele>
        <time>2021-05-27T12:19:57Z</time>
      </trkpt>
      <trkpt lat="45.67936" lon="6.88304">
        <ele>2183.4</ele>
        <time>2021-05-27T12:19:58Z</time>
      </trkpt>
      <trkpt lat="45.67938" lon="6.88306">
        <ele>2183.2</ele>
        <time>2021-05-27T12:19:59Z</time>
      </trkpt>
      <trkpt lat="45.6794" lon="6.88309">
        <ele>2183.2</ele>
        <time>2021-05-27T12:20:00Z</time>
      </trkpt>
      <trkpt lat="45.67942" lon="6.88311">
        <ele>2182.8</ele>
        <time>2021-05-27T12:20:01Z</time>
      </trkpt>
      <trkpt lat="45.67944" lon="6.88314">
        <ele>2182.2</ele>
        <time>2021-05-27T12:20:02Z</time>
      </trkpt>
      <trkpt lat="45.67946" lon="6.88316">
        <ele>2181.8</ele>
        <time>2021-05-27T12:20:03Z</time>
      </trkpt>
      <trkpt lat="45.67948" lon="6.88319">
        <ele>2181.4</ele>
        <time>2021-05-27T12:20:04Z</time>
      </trkpt>
      <trkpt lat="45.6795" lon="6.88321">
        <ele>2181.2</ele>
        <time>2021-05-27T12:20:05Z</time>
      </trkpt>
      <trkpt lat="45.67952" lon="6.88323">
        <ele>2180.8</ele>
        <time>2021-05-27T12:20:06Z</time>
      </trkpt>
      <trkpt lat="45.67955" lon="6.88324">
        <ele>2180.4</ele>
        <time>2021-05-27T12:20:07Z</time>
      </trkpt>
      <trkpt lat="45.67957" lon="6.88325">
        <ele>2179.8</ele>
        <time>2021-05-27T12:20:08Z</time>
      </trkpt>
      <trkpt lat="45.6796" lon="6.88327">
        <ele>2179.4</ele>
        <time>2021-05-27T12:20:09Z</time>
      </trkpt>
      <trkpt lat="45.67962" lon="6.88328">
        <ele>2178.8</ele>
        <time>2021-05-27T12:20:10Z</time>
      </trkpt>
      <trkpt lat="45.67964" lon="6.8833">
        <ele>2178.4</ele>
        <time>2021-05-27T12:20:11Z</time>
      </trkpt>
      <trkpt lat="45.67966" lon="6.88332">
        <ele>2178.4</ele>
        <time>2021-05-27T12:20:12Z</time>
      </trkpt>
      <trkpt lat="45.67968" lon="6.88333">
        <ele>2177.4</ele>
        <time>2021-05-27T12:20:13Z</time>
      </trkpt>
      <trkpt lat="45.6797" lon="6.88335">
        <ele>2176.8</ele>
        <time>2021-05-27T12:20:14Z</time>
      </trkpt>
      <trkpt lat="45.67972" lon="6.88336">
        <ele>2176.2</ele>
        <time>2021-05-27T12:20:15Z</time>
      </trkpt>
      <trkpt lat="45.67974" lon="6.88338">
        <ele>2175.8</ele>
        <time>2021-05-27T12:20:16Z</time>
      </trkpt>
      <trkpt lat="45.67976" lon="6.8834">
        <ele>2175.2</ele>
        <time>2021-05-27T12:20:17Z</time>
      </trkpt>
      <trkpt lat="45.67978" lon="6.88344">
        <ele>2174.8</ele>
        <time>2021-05-27T12:20:18Z</time>
      </trkpt>
      <trkpt lat="45.6798" lon="6.88347">
        <ele>2174.4</ele>
        <time>2021-05-27T12:20:19Z</time>
      </trkpt>
      <trkpt lat="45.67982" lon="6.88352">
        <ele>2174</ele>
        <time>2021-05-27T12:20:20Z</time>
      </trkpt>
      <trkpt lat="45.67984" lon="6.88356">
        <ele>2173.8</ele>
        <time>2021-05-27T12:20:21Z</time>
      </trkpt>
      <trkpt lat="45.67986" lon="6.8836">
        <ele>2173.6</ele>
        <time>2021-05-27T12:20:22Z</time>
      </trkpt>
      <trkpt lat="45.67987" lon="6.88364">
        <ele>2173.4</ele>
        <time>2021-05-27T12:20:23Z</time>
      </trkpt>
      <trkpt lat="45.67988" lon="6.88368">
        <ele>2173.4</ele>
        <time>2021-05-27T12:20:24Z</time>
      </trkpt>
      <trkpt lat="45.67989" lon="6.88372">
        <ele>2173.6</ele>
        <time>2021-05-27T12:20:25Z</time>
      </trkpt>
      <trkpt lat="45.6799" lon="6.88377">
        <ele>2173.4</ele>
        <time>2021-05-27T12:20:26Z</time>
      </trkpt>
      <trkpt lat="45.67991" lon="6.88382">
        <ele>2173.4</ele>
        <time>2021-05-27T12:20:27Z</time>
      </trkpt>
      <trkpt lat="45.67992" lon="6.88388">
        <ele>2173.6</ele>
        <time>2021-05-27T12:20:28Z</time>
      </trkpt>
      <trkpt lat="45.67993" lon="6.88394">
        <ele>2173.4</ele>
        <time>2021-05-27T12:20:29Z</time>
      </trkpt>
      <trkpt lat="45.67994" lon="6.88399">
        <ele>2173.6</ele>
        <time>2021-05-27T12:20:30Z</time>
      </trkpt>
      <trkpt lat="45.67995" lon="6.88406">
        <ele>2174</ele>
        <time>2021-05-27T12:20:31Z</time>
      </trkpt>
      <trkpt lat="45.67996" lon="6.88412">
        <ele>2174</ele>
        <time>2021-05-27T12:20:32Z</time>
      </trkpt>
      <trkpt lat="45.67996" lon="6.88417">
        <ele>2174.4</ele>
        <time>2021-05-27T12:20:33Z</time>
      </trkpt>
      <trkpt lat="45.67997" lon="6.88422">
        <ele>2175</ele>
        <time>2021-05-27T12:20:34Z</time>
      </trkpt>
      <trkpt lat="45.67997" lon="6.88426">
        <ele>2175.6</ele>
        <time>2021-05-27T12:20:35Z</time>
      </trkpt>
      <trkpt lat="45.67998" lon="6.88429">
        <ele>2176</ele>
        <time>2021-05-27T12:20:36Z</time>
      </trkpt>
      <trkpt lat="45.67998" lon="6.88432">
        <ele>2176.4</ele>
        <time>2021-05-27T12:20:37Z</time>
      </trkpt>
      <trkpt lat="45.67998" lon="6.88434">
        <ele>2176.4</ele>
        <time>2021-05-27T12:20:38Z</time>
      </trkpt>
      <trkpt lat="45.67999" lon="6.88437">
        <ele>2176.4</ele>
        <time>2021-05-27T12:20:39Z</time>
      </trkpt>
      <trkpt lat="45.68001" lon="6.88437">
        <ele>2195</ele>
        <time>2021-05-27T12:22:42Z</time>
      </trkpt>
      <trkpt lat="45.68" lon="6.88432">
        <ele>2194.4</ele>
        <time>2021-05-27T12:22:43Z</time>
      </trkpt>
      <trkpt lat="45.67998" lon="6.88427">
        <ele>2194</ele>
        <time>2021-05-27T12:22:44Z</time>
      </trkpt>
      <trkpt lat="45.67997" lon="6.8842">
        <ele>2193.2</ele>
        <time>2021-05-27T12:22:45Z</time>
      </trkpt>
      <trkpt lat="45.67996" lon="6.88412">
        <ele>2193.2</ele>
        <time>2021-05-27T12:22:46Z</time>
      </trkpt>
      <trkpt lat="45.67995" lon="6.88404">
        <ele>2193.2</ele>
        <time>2021-05-27T12:22:47Z</time>
      </trkpt>
      <trkpt lat="45.67993" lon="6.88395">
        <ele>2192.8</ele>
        <time>2021-05-27T12:22:48Z</time>
      </trkpt>
      <trkpt lat="45.67991" lon="6.88386">
        <ele>2192.4</ele>
        <time>2021-05-27T12:22:49Z</time>
      </trkpt>
      <trkpt lat="45.67988" lon="6.88377">
        <ele>2192.2</ele>
        <time>2021-05-27T12:22:50Z</time>
      </trkpt>
      <trkpt lat="45.67986" lon="6.88368">
        <ele>2191.8</ele>
        <time>2021-05-27T12:22:51Z</time>
      </trkpt>
      <trkpt lat="45.67983" lon="6.8836">
        <ele>2191.4</ele>
        <time>2021-05-27T12:22:52Z</time>
      </trkpt>
      <trkpt lat="45.6798" lon="6.88353">
        <ele>2191.4</ele>
        <time>2021-05-27T12:22:53Z</time>
      </trkpt>
      <trkpt lat="45.67977" lon="6.88346">
        <ele>2191.2</ele>
        <time>2021-05-27T12:22:54Z</time>
      </trkpt>
      <trkpt lat="45.67973" lon="6.8834">
        <ele>2191.2</ele>
        <time>2021-05-27T12:22:55Z</time>
      </trkpt>
      <trkpt lat="45.67968" lon="6.88334">
        <ele>2190.8</ele>
        <time>2021-05-27T12:22:56Z</time>
      </trkpt>
      <trkpt lat="45.67963" lon="6.88329">
        <ele>2191.2</ele>
        <time>2021-05-27T12:22:57Z</time>
      </trkpt>
      <trkpt lat="45.67957" lon="6.88325">
        <ele>2191</ele>
        <time>2021-05-27T12:22:58Z</time>
      </trkpt>
      <trkpt lat="45.67952" lon="6.88321">
        <ele>2191</ele>
        <time>2021-05-27T12:22:59Z</time>
      </trkpt>
      <trkpt lat="45.67946" lon="6.88316">
        <ele>2190.6</ele>
        <time>2021-05-27T12:23:00Z</time>
      </trkpt>
      <trkpt lat="45.67941" lon="6.88311">
        <ele>2190.8</ele>
        <time>2021-05-27T12:23:01Z</time>
      </trkpt>
      <trkpt lat="45.67937" lon="6.88306">
        <ele>2191</ele>
        <time>2021-05-27T12:23:02Z</time>
      </trkpt>
      <trkpt lat="45.67932" lon="6.88302">
        <ele>2191.4</ele>
        <time>2021-05-27T12:23:03Z</time>
      </trkpt>
      <trkpt lat="45.67927" lon="6.88298">
        <ele>2191.4</ele>
        <time>2021-05-27T12:23:04Z</time>
      </trkpt>
      <trkpt lat="45.67922" lon="6.88293">
        <ele>2191.2</ele>
        <time>2021-05-27T12:23:05Z</time>
      </trkpt>
      <trkpt lat="45.67917" lon="6.88288">
        <ele>2191.2</ele>
        <time>2021-05-27T12:23:06Z</time>
      </trkpt>
      <trkpt lat="45.67912" lon="6.88283">
        <ele>2190.8</ele>
        <time>2021-05-27T12:23:07Z</time>
      </trkpt>
      <trkpt lat="45.67906" lon="6.88279">
        <ele>2190.2</ele>
        <time>2021-05-27T12:23:08Z</time>
      </trkpt>
      <trkpt lat="45.67901" lon="6.88274">
        <ele>2189.6</ele>
        <time>2021-05-27T12:23:09Z</time>
      </trkpt>
      <trkpt lat="45.67895" lon="6.88269">
        <ele>2189.4</ele>
        <time>2021-05-27T12:23:10Z</time>
      </trkpt>
      <trkpt lat="45.67889" lon="6.88265">
        <ele>2188.8</ele>
        <time>2021-05-27T12:23:11Z</time>
      </trkpt>
      <trkpt lat="45.67883" lon="6.88261">
        <ele>2188.8</ele>
        <time>2021-05-27T12:23:12Z</time>
      </trkpt>
      <trkpt lat="45.67876" lon="6.88257">
        <ele>2188.6</ele>
        <time>2021-05-27T12:23:13Z</time>
      </trkpt>
      <trkpt lat="45.67869" lon="6.88254">
        <ele>2188.2</ele>
        <time>2021-05-27T12:23:14Z</time>
      </trkpt>
      <trkpt lat="45.67862" lon="6.8825">
        <ele>2187.8</ele>
        <time>2021-05-27T12:23:15Z</time>
      </trkpt>
      <trkpt lat="45.67854" lon="6.88246">
        <ele>2187.4</ele>
        <time>2021-05-27T12:23:16Z</time>
      </trkpt>
      <trkpt lat="45.67847" lon="6.88242">
        <ele>2187.2</ele>
        <time>2021-05-27T12:23:17Z</time>
      </trkpt>
      <trkpt lat="45.67839" lon="6.88238">
        <ele>2186.6</ele>
        <time>2021-05-27T12:23:18Z</time>
      </trkpt>
      <trkpt lat="45.6783" lon="6.88234">
        <ele>2186</ele>
        <time>2021-05-27T12:23:19Z</time>
      </trkpt>
      <trkpt lat="45.67822" lon="6.8823">
        <ele>2185</ele>
        <time>2021-05-27T12:23:20Z</time>
      </trkpt>
      <trkpt lat="45.67813" lon="6.88226">
        <ele>2184.8</ele>
        <time>2021-05-27T12:23:21Z</time>
      </trkpt>
      <trkpt lat="45.67805" lon="6.88222">
        <ele>2184.6</ele>
        <time>2021-05-27T12:23:22Z</time>
      </trkpt>
      <trkpt lat="45.67796" lon="6.88218">
        <ele>2184.2</ele>
        <time>2021-05-27T12:23:23Z</time>
      </trkpt>
      <trkpt lat="45.67788" lon="6.88214">
        <ele>2183.8</ele>
        <time>2021-05-27T12:23:24Z</time>
      </trkpt>
      <trkpt lat="45.67779" lon="6.8821">
        <ele>2183.4</ele>
        <time>2021-05-27T12:23:25Z</time>
      </trkpt>
      <trkpt lat="45.6777" lon="6.88206">
        <ele>2183</ele>
        <time>2021-05-27T12:23:26Z</time>
      </trkpt>
      <trkpt lat="45.67761" lon="6.88202">
        <ele>2182.2</ele>
        <time>2021-05-27T12:23:27Z</time>
      </trkpt>
      <trkpt lat="45.67752" lon="6.88197">
        <ele>2182</ele>
        <time>2021-05-27T12:23:28Z</time>
      </trkpt>
      <trkpt lat="45.67742" lon="6.88193">
        <ele>2181.4</ele>
        <time>2021-05-27T12:23:29Z</time>
      </trkpt>
      <trkpt lat="45.67733" lon="6.88188">
        <ele>2180.8</ele>
        <time>2021-05-27T12:23:30Z</time>
      </trkpt>
      <trkpt lat="45.67724" lon="6.88184">
        <ele>2180.4</ele>
        <time>2021-05-27T12:23:31Z</time>
      </trkpt>
      <trkpt lat="45.67714" lon="6.8818">
        <ele>2179.8</ele>
        <time>2021-05-27T12:23:32Z</time>
      </trkpt>
      <trkpt lat="45.67705" lon="6.88175">
        <ele>2179.2</ele>
        <time>2021-05-27T12:23:33Z</time>
      </trkpt>
      <trkpt lat="45.67696" lon="6.8817">
        <ele>2178.6</ele>
        <time>2021-05-27T12:23:34Z</time>
      </trkpt>
      <trkpt lat="45.67687" lon="6.88165">
        <ele>2178</ele>
        <time>2021-05-27T12:23:35Z</time>
      </trkpt>
      <trkpt lat="45.67677" lon="6.88159">
        <ele>2177.4</ele>
        <time>2021-05-27T12:23:36Z</time>
      </trkpt>
      <trkpt lat="45.67668" lon="6.88152">
        <ele>2177.2</ele>
        <time>2021-05-27T12:23:37Z</time>
      </trkpt>
      <trkpt lat="45.6766" lon="6.88145">
        <ele>2176.6</ele>
        <time>2021-05-27T12:23:38Z</time>
      </trkpt>
      <trkpt lat="45.67651" lon="6.88137">
        <ele>2176</ele>
        <time>2021-05-27T12:23:39Z</time>
      </trkpt>
      <trkpt lat="45.67643" lon="6.88128">
        <ele>2175.6</ele>
        <time>2021-05-27T12:23:40Z</time>
      </trkpt>
      <trkpt lat="45.67634" lon="6.8812">
        <ele>2175</ele>
        <time>2021-05-27T12:23:41Z</time>
      </trkpt>
      <trkpt lat="45.67626" lon="6.88111">
        <ele>2174.6</ele>
        <time>2021-05-27T12:23:42Z</time>
      </trkpt>
      <trkpt lat="45.67619" lon="6.88102">
        <ele>2174</ele>
        <time>2021-05-27T12:23:43Z</time>
      </trkpt>
      <trkpt lat="45.67611" lon="6.88094">
        <ele>2173.6</ele>
        <time>2021-05-27T12:23:44Z</time>
      </trkpt>
      <trkpt lat="45.67603" lon="6.88085">
        <ele>2173.2</ele>
        <time>2021-05-27T12:23:45Z</time>
      </trkpt>
      <trkpt lat="45.67596" lon="6.88077">
        <ele>2172.6</ele>
        <time>2021-05-27T12:23:46Z</time>
      </trkpt>
      <trkpt lat="45.67589" lon="6.88069">
        <ele>2172.2</ele>
        <time>2021-05-27T12:23:47Z</time>
      </trkpt>
      <trkpt lat="45.67583" lon="6.88061">
        <ele>2172</ele>
        <time>2021-05-27T12:23:48Z</time>
      </trkpt>
      <trkpt lat="45.67576" lon="6.88054">
        <ele>2171.6</ele>
        <time>2021-05-27T12:23:49Z</time>
      </trkpt>
      <trkpt lat="45.67569" lon="6.88046">
        <ele>2171.4</ele>
        <time>2021-05-27T12:23:50Z</time>
      </trkpt>
      <trkpt lat="45.67563" lon="6.88039">
        <ele>2171.2</ele>
        <time>2021-05-27T12:23:51Z</time>
      </trkpt>
      <trkpt lat="45.67557" lon="6.88032">
        <ele>2171</ele>
        <time>2021-05-27T12:23:52Z</time>
      </trkpt>
      <trkpt lat="45.6755" lon="6.88024">
        <ele>2171</ele>
        <time>2021-05-27T12:23:53Z</time>
      </trkpt>
      <trkpt lat="45.67544" lon="6.88017">
        <ele>2171</ele>
        <time>2021-05-27T12:23:54Z</time>
      </trkpt>
      <trkpt lat="45.67537" lon="6.8801">
        <ele>2170.8</ele>
        <time>2021-05-27T12:23:55Z</time>
      </trkpt>
      <trkpt lat="45.67531" lon="6.88003">
        <ele>2170.6</ele>
        <time>2021-05-27T12:23:56Z</time>
      </trkpt>
      <trkpt lat="45.67524" lon="6.87996">
        <ele>2170.4</ele>
        <time>2021-05-27T12:23:57Z</time>
      </trkpt>
      <trkpt lat="45.67518" lon="6.87989">
        <ele>2170.4</ele>
        <time>2021-05-27T12:23:58Z</time>
      </trkpt>
      <trkpt lat="45.67512" lon="6.87982">
        <ele>2170</ele>
        <time>2021-05-27T12:23:59Z</time>
      </trkpt>
      <trkpt lat="45.67506" lon="6.87975">
        <ele>2170</ele>
        <time>2021-05-27T12:24:00Z</time>
      </trkpt>
      <trkpt lat="45.675" lon="6.87968">
        <ele>2169.8</ele>
        <time>2021-05-27T12:24:01Z</time>
      </trkpt>
      <trkpt lat="45.67494" lon="6.87961">
        <ele>2169.8</ele>
        <time>2021-05-27T12:24:02Z</time>
      </trkpt>
      <trkpt lat="45.67488" lon="6.87954">
        <ele>2169.8</ele>
        <time>2021-05-27T12:24:03Z</time>
      </trkpt>
      <trkpt lat="45.67483" lon="6.87948">
        <ele>2169.6</ele>
        <time>2021-05-27T12:24:04Z</time>
      </trkpt>
      <trkpt lat="45.67477" lon="6.87941">
        <ele>2169.4</ele>
        <time>2021-05-27T12:24:05Z</time>
      </trkpt>
      <trkpt lat="45.67472" lon="6.87934">
        <ele>2169.4</ele>
        <time>2021-05-27T12:24:06Z</time>
      </trkpt>
      <trkpt lat="45.67466" lon="6.87928">
        <ele>2169.4</ele>
        <time>2021-05-27T12:24:07Z</time>
      </trkpt>
      <trkpt lat="45.6746" lon="6.87922">
        <ele>2169.4</ele>
        <time>2021-05-27T12:24:08Z</time>
      </trkpt>
      <trkpt lat="45.67454" lon="6.87915">
        <ele>2168.8</ele>
        <time>2021-05-27T12:24:09Z</time>
      </trkpt>
      <trkpt lat="45.67448" lon="6.87909">
        <ele>2169</ele>
        <time>2021-05-27T12:24:10Z</time>
      </trkpt>
      <trkpt lat="45.67442" lon="6.87902">
        <ele>2168.6</ele>
        <time>2021-05-27T12:24:11Z</time>
      </trkpt>
      <trkpt lat="45.67436" lon="6.87896">
        <ele>2168.4</ele>
        <time>2021-05-27T12:24:12Z</time>
      </trkpt>
      <trkpt lat="45.6743" lon="6.87889">
        <ele>2168.4</ele>
        <time>2021-05-27T12:24:13Z</time>
      </trkpt>
      <trkpt lat="45.67425" lon="6.87883">
        <ele>2168.8</ele>
        <time>2021-05-27T12:24:14Z</time>
      </trkpt>
      <trkpt lat="45.67419" lon="6.87876">
        <ele>2168.8</ele>
        <time>2021-05-27T12:24:15Z</time>
      </trkpt>
      <trkpt lat="45.67413" lon="6.8787">
        <ele>2168.6</ele>
        <time>2021-05-27T12:24:16Z</time>
      </trkpt>
      <trkpt lat="45.67408" lon="6.87863">
        <ele>2168.6</ele>
        <time>2021-05-27T12:24:17Z</time>
      </trkpt>
      <trkpt lat="45.67402" lon="6.87857">
        <ele>2168.8</ele>
        <time>2021-05-27T12:24:18Z</time>
      </trkpt>
      <trkpt lat="45.67396" lon="6.87851">
        <ele>2168.4</ele>
        <time>2021-05-27T12:24:19Z</time>
      </trkpt>
      <trkpt lat="45.6739" lon="6.87845">
        <ele>2168.6</ele>
        <time>2021-05-27T12:24:20Z</time>
      </trkpt>
      <trkpt lat="45.67385" lon="6.87838">
        <ele>2168.4</ele>
        <time>2021-05-27T12:24:21Z</time>
      </trkpt>
      <trkpt lat="45.67379" lon="6.87832">
        <ele>2168</ele>
        <time>2021-05-27T12:24:22Z</time>
      </trkpt>
      <trkpt lat="45.67373" lon="6.87826">
        <ele>2167.8</ele>
        <time>2021-05-27T12:24:23Z</time>
      </trkpt>
      <trkpt lat="45.67368" lon="6.87819">
        <ele>2167.6</ele>
        <time>2021-05-27T12:24:24Z</time>
      </trkpt>
      <trkpt lat="45.67362" lon="6.87813">
        <ele>2167.8</ele>
        <time>2021-05-27T12:24:25Z</time>
      </trkpt>
      <trkpt lat="45.67356" lon="6.87806">
        <ele>2167.6</ele>
        <time>2021-05-27T12:24:26Z</time>
      </trkpt>
      <trkpt lat="45.6735" lon="6.878">
        <ele>2167.2</ele>
        <time>2021-05-27T12:24:27Z</time>
      </trkpt>
      <trkpt lat="45.67345" lon="6.87795">
        <ele>2166.8</ele>
        <time>2021-05-27T12:24:28Z</time>
      </trkpt>
      <trkpt lat="45.67341" lon="6.87791">
        <ele>2166.6</ele>
        <time>2021-05-27T12:24:29Z</time>
      </trkpt>
      <trkpt lat="45.67338" lon="6.87789">
        <ele>2166.4</ele>
        <time>2021-05-27T12:24:30Z</time>
      </trkpt>
      <trkpt lat="45.67337" lon="6.87787">
        <ele>2166</ele>
        <time>2021-05-27T12:24:31Z</time>
      </trkpt>
      <trkpt lat="45.67335" lon="6.87786">
        <ele>2165.2</ele>
        <time>2021-05-27T12:24:34Z</time>
      </trkpt>
      <trkpt lat="45.67337" lon="6.87787">
        <ele>2163.8</ele>
        <time>2021-05-27T12:24:40Z</time>
      </trkpt>
      <trkpt lat="45.67339" lon="6.87788">
        <ele>2163.4</ele>
        <time>2021-05-27T12:24:42Z</time>
      </trkpt>
      <trkpt lat="45.67337" lon="6.87787">
        <ele>2160.6</ele>
        <time>2021-05-27T12:25:02Z</time>
      </trkpt>
      <trkpt lat="45.67335" lon="6.87787">
        <ele>2160</ele>
        <time>2021-05-27T12:25:06Z</time>
      </trkpt>
      <trkpt lat="45.67333" lon="6.87788">
        <ele>2159.6</ele>
        <time>2021-05-27T12:25:11Z</time>
      </trkpt>
      <trkpt lat="45.67331" lon="6.8779">
        <ele>2158.8</ele>
        <time>2021-05-27T12:25:17Z</time>
      </trkpt>
      <trkpt lat="45.6733" lon="6.87786">
        <ele>2158.8</ele>
        <time>2021-05-27T12:25:22Z</time>
      </trkpt>
      <trkpt lat="45.67328" lon="6.87782">
        <ele>2158.6</ele>
        <time>2021-05-27T12:25:24Z</time>
      </trkpt>
      <trkpt lat="45.67327" lon="6.8778">
        <ele>2158.4</ele>
        <time>2021-05-27T12:25:25Z</time>
      </trkpt>
      <trkpt lat="45.67325" lon="6.87778">
        <ele>2158.4</ele>
        <time>2021-05-27T12:25:26Z</time>
      </trkpt>
      <trkpt lat="45.67323" lon="6.87776">
        <ele>2158.2</ele>
        <time>2021-05-27T12:25:27Z</time>
      </trkpt>
      <trkpt lat="45.6732" lon="6.87772">
        <ele>2158.4</ele>
        <time>2021-05-27T12:25:28Z</time>
      </trkpt>
      <trkpt lat="45.67317" lon="6.87769">
        <ele>2158.6</ele>
        <time>2021-05-27T12:25:29Z</time>
      </trkpt>
      <trkpt lat="45.67313" lon="6.87765">
        <ele>2158.8</ele>
        <time>2021-05-27T12:25:30Z</time>
      </trkpt>
      <trkpt lat="45.6731" lon="6.87761">
        <ele>2159</ele>
        <time>2021-05-27T12:25:31Z</time>
      </trkpt>
      <trkpt lat="45.67307" lon="6.87756">
        <ele>2159.2</ele>
        <time>2021-05-27T12:25:32Z</time>
      </trkpt>
      <trkpt lat="45.67302" lon="6.87751">
        <ele>2158.8</ele>
        <time>2021-05-27T12:25:33Z</time>
      </trkpt>
      <trkpt lat="45.67298" lon="6.87745">
        <ele>2158.6</ele>
        <time>2021-05-27T12:25:34Z</time>
      </trkpt>
      <trkpt lat="45.67292" lon="6.87739">
        <ele>2158.2</ele>
        <time>2021-05-27T12:25:35Z</time>
      </trkpt>
      <trkpt lat="45.67287" lon="6.87733">
        <ele>2158</ele>
        <time>2021-05-27T12:25:36Z</time>
      </trkpt>
      <trkpt lat="45.67282" lon="6.87728">
        <ele>2157.6</ele>
        <time>2021-05-27T12:25:37Z</time>
      </trkpt>
      <trkpt lat="45.67277" lon="6.87722">
        <ele>2157.6</ele>
        <time>2021-05-27T12:25:38Z</time>
      </trkpt>
      <trkpt lat="45.67272" lon="6.87716">
        <ele>2157.4</ele>
        <time>2021-05-27T12:25:39Z</time>
      </trkpt>
      <trkpt lat="45.67267" lon="6.8771">
        <ele>2157.4</ele>
        <time>2021-05-27T12:25:40Z</time>
      </trkpt>
      <trkpt lat="45.67261" lon="6.87703">
        <ele>2156.8</ele>
        <time>2021-05-27T12:25:41Z</time>
      </trkpt>
      <trkpt lat="45.67255" lon="6.87696">
        <ele>2156.6</ele>
        <time>2021-05-27T12:25:42Z</time>
      </trkpt>
      <trkpt lat="45.67249" lon="6.8769">
        <ele>2156.8</ele>
        <time>2021-05-27T12:25:43Z</time>
      </trkpt>
      <trkpt lat="45.67243" lon="6.87682">
        <ele>2156.2</ele>
        <time>2021-05-27T12:25:44Z</time>
      </trkpt>
      <trkpt lat="45.67236" lon="6.87675">
        <ele>2157</ele>
        <time>2021-05-27T12:25:45Z</time>
      </trkpt>
      <trkpt lat="45.67229" lon="6.87667">
        <ele>2156.6</ele>
        <time>2021-05-27T12:25:46Z</time>
      </trkpt>
      <trkpt lat="45.67223" lon="6.8766">
        <ele>2156.2</ele>
        <time>2021-05-27T12:25:47Z</time>
      </trkpt>
      <trkpt lat="45.67217" lon="6.87653">
        <ele>2156.8</ele>
        <time>2021-05-27T12:25:48Z</time>
      </trkpt>
      <trkpt lat="45.6721" lon="6.87646">
        <ele>2156.6</ele>
        <time>2021-05-27T12:25:49Z</time>
      </trkpt>
      <trkpt lat="45.67204" lon="6.87638">
        <ele>2156.4</ele>
        <time>2021-05-27T12:25:50Z</time>
      </trkpt>
      <trkpt lat="45.67197" lon="6.8763">
        <ele>2156.2</ele>
        <time>2021-05-27T12:25:51Z</time>
      </trkpt>
      <trkpt lat="45.6719" lon="6.87623">
        <ele>2156</ele>
        <time>2021-05-27T12:25:52Z</time>
      </trkpt>
      <trkpt lat="45.67184" lon="6.87615">
        <ele>2156.2</ele>
        <time>2021-05-27T12:25:53Z</time>
      </trkpt>
      <trkpt lat="45.67177" lon="6.87607">
        <ele>2156</ele>
        <time>2021-05-27T12:25:54Z</time>
      </trkpt>
      <trkpt lat="45.6717" lon="6.876">
        <ele>2156</ele>
        <time>2021-05-27T12:25:55Z</time>
      </trkpt>
      <trkpt lat="45.67163" lon="6.87592">
        <ele>2155.8</ele>
        <time>2021-05-27T12:25:56Z</time>
      </trkpt>
      <trkpt lat="45.67156" lon="6.87584">
        <ele>2155.8</ele>
        <time>2021-05-27T12:25:57Z</time>
      </trkpt>
      <trkpt lat="45.67149" lon="6.87576">
        <ele>2156.2</ele>
        <time>2021-05-27T12:25:58Z</time>
      </trkpt>
      <trkpt lat="45.67143" lon="6.87569">
        <ele>2155.8</ele>
        <time>2021-05-27T12:25:59Z</time>
      </trkpt>
      <trkpt lat="45.67136" lon="6.87562">
        <ele>2156.8</ele>
        <time>2021-05-27T12:26:00Z</time>
      </trkpt>
      <trkpt lat="45.6713" lon="6.87555">
        <ele>2157.8</ele>
        <time>2021-05-27T12:26:01Z</time>
      </trkpt>
      <trkpt lat="45.67124" lon="6.87548">
        <ele>2158.2</ele>
        <time>2021-05-27T12:26:02Z</time>
      </trkpt>
      <trkpt lat="45.67118" lon="6.8754">
        <ele>2159</ele>
        <time>2021-05-27T12:26:03Z</time>
      </trkpt>
      <trkpt lat="45.67112" lon="6.87533">
        <ele>2159.2</ele>
        <time>2021-05-27T12:26:04Z</time>
      </trkpt>
      <trkpt lat="45.67105" lon="6.87525">
        <ele>2159.2</ele>
        <time>2021-05-27T12:26:05Z</time>
      </trkpt>
      <trkpt lat="45.67098" lon="6.87517">
        <ele>2158.8</ele>
        <time>2021-05-27T12:26:06Z</time>
      </trkpt>
      <trkpt lat="45.67091" lon="6.8751">
        <ele>2158.8</ele>
        <time>2021-05-27T12:26:07Z</time>
      </trkpt>
      <trkpt lat="45.67084" lon="6.87502">
        <ele>2159.2</ele>
        <time>2021-05-27T12:26:08Z</time>
      </trkpt>
      <trkpt lat="45.67076" lon="6.87494">
        <ele>2159.2</ele>
        <time>2021-05-27T12:26:09Z</time>
      </trkpt>
      <trkpt lat="45.67069" lon="6.87486">
        <ele>2159.4</ele>
        <time>2021-05-27T12:26:10Z</time>
      </trkpt>
      <trkpt lat="45.67062" lon="6.87478">
        <ele>2159.4</ele>
        <time>2021-05-27T12:26:11Z</time>
      </trkpt>
      <trkpt lat="45.67054" lon="6.87469">
        <ele>2159</ele>
        <time>2021-05-27T12:26:12Z</time>
      </trkpt>
      <trkpt lat="45.67047" lon="6.8746">
        <ele>2158.8</ele>
        <time>2021-05-27T12:26:13Z</time>
      </trkpt>
      <trkpt lat="45.67039" lon="6.87451">
        <ele>2158.6</ele>
        <time>2021-05-27T12:26:14Z</time>
      </trkpt>
      <trkpt lat="45.67031" lon="6.87441">
        <ele>2157.8</ele>
        <time>2021-05-27T12:26:15Z</time>
      </trkpt>
      <trkpt lat="45.67023" lon="6.87432">
        <ele>2157.2</ele>
        <time>2021-05-27T12:26:16Z</time>
      </trkpt>
      <trkpt lat="45.67015" lon="6.87423">
        <ele>2157</ele>
        <time>2021-05-27T12:26:17Z</time>
      </trkpt>
      <trkpt lat="45.67007" lon="6.87413">
        <ele>2156.4</ele>
        <time>2021-05-27T12:26:18Z</time>
      </trkpt>
      <trkpt lat="45.66999" lon="6.87403">
        <ele>2156</ele>
        <time>2021-05-27T12:26:19Z</time>
      </trkpt>
      <trkpt lat="45.66989" lon="6.87394">
        <ele>2155.8</ele>
        <time>2021-05-27T12:26:20Z</time>
      </trkpt>
      <trkpt lat="45.66981" lon="6.87385">
        <ele>2155.4</ele>
        <time>2021-05-27T12:26:21Z</time>
      </trkpt>
      <trkpt lat="45.66973" lon="6.87376">
        <ele>2155.2</ele>
        <time>2021-05-27T12:26:22Z</time>
      </trkpt>
      <trkpt lat="45.66965" lon="6.87368">
        <ele>2154.4</ele>
        <time>2021-05-27T12:26:23Z</time>
      </trkpt>
      <trkpt lat="45.66959" lon="6.8736">
        <ele>2153.6</ele>
        <time>2021-05-27T12:26:24Z</time>
      </trkpt>
      <trkpt lat="45.66952" lon="6.87352">
        <ele>2153.4</ele>
        <time>2021-05-27T12:26:25Z</time>
      </trkpt>
      <trkpt lat="45.66947" lon="6.87344">
        <ele>2153.2</ele>
        <time>2021-05-27T12:26:26Z</time>
      </trkpt>
      <trkpt lat="45.66942" lon="6.87337">
        <ele>2152.4</ele>
        <time>2021-05-27T12:26:27Z</time>
      </trkpt>
      <trkpt lat="45.6694" lon="6.87329">
        <ele>2151.8</ele>
        <time>2021-05-27T12:26:28Z</time>
      </trkpt>
      <trkpt lat="45.66941" lon="6.87322">
        <ele>2150.8</ele>
        <time>2021-05-27T12:26:29Z</time>
      </trkpt>
      <trkpt lat="45.66944" lon="6.87316">
        <ele>2149.6</ele>
        <time>2021-05-27T12:26:30Z</time>
      </trkpt>
      <trkpt lat="45.66949" lon="6.87314">
        <ele>2149</ele>
        <time>2021-05-27T12:26:31Z</time>
      </trkpt>
      <trkpt lat="45.66955" lon="6.87314">
        <ele>2148.4</ele>
        <time>2021-05-27T12:26:32Z</time>
      </trkpt>
      <trkpt lat="45.66961" lon="6.87316">
        <ele>2148</ele>
        <time>2021-05-27T12:26:33Z</time>
      </trkpt>
      <trkpt lat="45.66969" lon="6.87319">
        <ele>2147.6</ele>
        <time>2021-05-27T12:26:34Z</time>
      </trkpt>
      <trkpt lat="45.66977" lon="6.87323">
        <ele>2147.2</ele>
        <time>2021-05-27T12:26:35Z</time>
      </trkpt>
      <trkpt lat="45.66983" lon="6.87328">
        <ele>2146.6</ele>
        <time>2021-05-27T12:26:36Z</time>
      </trkpt>
      <trkpt lat="45.66991" lon="6.87334">
        <ele>2146</ele>
        <time>2021-05-27T12:26:37Z</time>
      </trkpt>
      <trkpt lat="45.66998" lon="6.8734">
        <ele>2145.8</ele>
        <time>2021-05-27T12:26:38Z</time>
      </trkpt>
      <trkpt lat="45.67005" lon="6.87347">
        <ele>2145.2</ele>
        <time>2021-05-27T12:26:39Z</time>
      </trkpt>
      <trkpt lat="45.67013" lon="6.87354">
        <ele>2144.8</ele>
        <time>2021-05-27T12:26:40Z</time>
      </trkpt>
      <trkpt lat="45.6702" lon="6.8736">
        <ele>2144.2</ele>
        <time>2021-05-27T12:26:41Z</time>
      </trkpt>
      <trkpt lat="45.67027" lon="6.87366">
        <ele>2144</ele>
        <time>2021-05-27T12:26:42Z</time>
      </trkpt>
      <trkpt lat="45.67035" lon="6.87372">
        <ele>2143.8</ele>
        <time>2021-05-27T12:26:43Z</time>
      </trkpt>
      <trkpt lat="45.67043" lon="6.87376">
        <ele>2143.2</ele>
        <time>2021-05-27T12:26:44Z</time>
      </trkpt>
      <trkpt lat="45.67052" lon="6.87378">
        <ele>2142.6</ele>
        <time>2021-05-27T12:26:45Z</time>
      </trkpt>
      <trkpt lat="45.67058" lon="6.87376">
        <ele>2142</ele>
        <time>2021-05-27T12:26:46Z</time>
      </trkpt>
      <trkpt lat="45.67064" lon="6.87371">
        <ele>2141.6</ele>
        <time>2021-05-27T12:26:47Z</time>
      </trkpt>
      <trkpt lat="45.67067" lon="6.87363">
        <ele>2141.2</ele>
        <time>2021-05-27T12:26:48Z</time>
      </trkpt>
      <trkpt lat="45.67067" lon="6.87354">
        <ele>2140.8</ele>
        <time>2021-05-27T12:26:49Z</time>
      </trkpt>
      <trkpt lat="45.67065" lon="6.87346">
        <ele>2140.8</ele>
        <time>2021-05-27T12:26:50Z</time>
      </trkpt>
      <trkpt lat="45.67061" lon="6.87338">
        <ele>2141</ele>
        <time>2021-05-27T12:26:51Z</time>
      </trkpt>
      <trkpt lat="45.67055" lon="6.8733">
        <ele>2141</ele>
        <time>2021-05-27T12:26:52Z</time>
      </trkpt>
      <trkpt lat="45.67049" lon="6.87323">
        <ele>2140.8</ele>
        <time>2021-05-27T12:26:53Z</time>
      </trkpt>
      <trkpt lat="45.67043" lon="6.87317">
        <ele>2140.8</ele>
        <time>2021-05-27T12:26:54Z</time>
      </trkpt>
      <trkpt lat="45.67037" lon="6.87311">
        <ele>2140.8</ele>
        <time>2021-05-27T12:26:55Z</time>
      </trkpt>
      <trkpt lat="45.6703" lon="6.87305">
        <ele>2140.6</ele>
        <time>2021-05-27T12:26:56Z</time>
      </trkpt>
      <trkpt lat="45.67023" lon="6.87299">
        <ele>2140.4</ele>
        <time>2021-05-27T12:26:57Z</time>
      </trkpt>
      <trkpt lat="45.67015" lon="6.87294">
        <ele>2140.6</ele>
        <time>2021-05-27T12:26:58Z</time>
      </trkpt>
      <trkpt lat="45.67008" lon="6.87289">
        <ele>2140.4</ele>
        <time>2021-05-27T12:26:59Z</time>
      </trkpt>
      <trkpt lat="45.67" lon="6.87285">
        <ele>2140.2</ele>
        <time>2021-05-27T12:27:00Z</time>
      </trkpt>
      <trkpt lat="45.66991" lon="6.87282">
        <ele>2140</ele>
        <time>2021-05-27T12:27:01Z</time>
      </trkpt>
      <trkpt lat="45.66983" lon="6.87279">
        <ele>2139.6</ele>
        <time>2021-05-27T12:27:02Z</time>
      </trkpt>
      <trkpt lat="45.66975" lon="6.87275">
        <ele>2139.6</ele>
        <time>2021-05-27T12:27:03Z</time>
      </trkpt>
      <trkpt lat="45.66967" lon="6.87271">
        <ele>2139</ele>
        <time>2021-05-27T12:27:04Z</time>
      </trkpt>
      <trkpt lat="45.66959" lon="6.87265">
        <ele>2138.8</ele>
        <time>2021-05-27T12:27:05Z</time>
      </trkpt>
      <trkpt lat="45.66951" lon="6.87259">
        <ele>2137.8</ele>
        <time>2021-05-27T12:27:06Z</time>
      </trkpt>
      <trkpt lat="45.66944" lon="6.87253">
        <ele>2137.6</ele>
        <time>2021-05-27T12:27:07Z</time>
      </trkpt>
      <trkpt lat="45.66936" lon="6.87249">
        <ele>2137</ele>
        <time>2021-05-27T12:27:08Z</time>
      </trkpt>
      <trkpt lat="45.66929" lon="6.87248">
        <ele>2136.6</ele>
        <time>2021-05-27T12:27:09Z</time>
      </trkpt>
      <trkpt lat="45.6692" lon="6.8725">
        <ele>2136.4</ele>
        <time>2021-05-27T12:27:10Z</time>
      </trkpt>
      <trkpt lat="45.66911" lon="6.87255">
        <ele>2136</ele>
        <time>2021-05-27T12:27:11Z</time>
      </trkpt>
      <trkpt lat="45.66903" lon="6.8726">
        <ele>2135.6</ele>
        <time>2021-05-27T12:27:12Z</time>
      </trkpt>
      <trkpt lat="45.66894" lon="6.87264">
        <ele>2134.8</ele>
        <time>2021-05-27T12:27:13Z</time>
      </trkpt>
      <trkpt lat="45.66885" lon="6.87268">
        <ele>2134</ele>
        <time>2021-05-27T12:27:14Z</time>
      </trkpt>
      <trkpt lat="45.66876" lon="6.87269">
        <ele>2132.8</ele>
        <time>2021-05-27T12:27:15Z</time>
      </trkpt>
      <trkpt lat="45.66868" lon="6.87267">
        <ele>2131.8</ele>
        <time>2021-05-27T12:27:16Z</time>
      </trkpt>
      <trkpt lat="45.6686" lon="6.87261">
        <ele>2131.4</ele>
        <time>2021-05-27T12:27:17Z</time>
      </trkpt>
      <trkpt lat="45.66855" lon="6.87252">
        <ele>2131</ele>
        <time>2021-05-27T12:27:18Z</time>
      </trkpt>
      <trkpt lat="45.66849" lon="6.87243">
        <ele>2130.2</ele>
        <time>2021-05-27T12:27:19Z</time>
      </trkpt>
      <trkpt lat="45.66842" lon="6.87234">
        <ele>2130</ele>
        <time>2021-05-27T12:27:20Z</time>
      </trkpt>
      <trkpt lat="45.66835" lon="6.87228">
        <ele>2129.8</ele>
        <time>2021-05-27T12:27:21Z</time>
      </trkpt>
      <trkpt lat="45.66826" lon="6.87224">
        <ele>2129.2</ele>
        <time>2021-05-27T12:27:22Z</time>
      </trkpt>
      <trkpt lat="45.66816" lon="6.87224">
        <ele>2129.2</ele>
        <time>2021-05-27T12:27:23Z</time>
      </trkpt>
      <trkpt lat="45.66807" lon="6.87226">
        <ele>2128.8</ele>
        <time>2021-05-27T12:27:24Z</time>
      </trkpt>
      <trkpt lat="45.66798" lon="6.87228">
        <ele>2128.4</ele>
        <time>2021-05-27T12:27:25Z</time>
      </trkpt>
      <trkpt lat="45.66789" lon="6.87231">
        <ele>2128.8</ele>
        <time>2021-05-27T12:27:26Z</time>
      </trkpt>
      <trkpt lat="45.66779" lon="6.87232">
        <ele>2128.2</ele>
        <time>2021-05-27T12:27:27Z</time>
      </trkpt>
      <trkpt lat="45.66769" lon="6.87232">
        <ele>2127.8</ele>
        <time>2021-05-27T12:27:28Z</time>
      </trkpt>
      <trkpt lat="45.66759" lon="6.8723">
        <ele>2127.2</ele>
        <time>2021-05-27T12:27:29Z</time>
      </trkpt>
      <trkpt lat="45.66749" lon="6.87229">
        <ele>2126.4</ele>
        <time>2021-05-27T12:27:30Z</time>
      </trkpt>
      <trkpt lat="45.6674" lon="6.87225">
        <ele>2125.8</ele>
        <time>2021-05-27T12:27:31Z</time>
      </trkpt>
      <trkpt lat="45.66731" lon="6.8722">
        <ele>2124.8</ele>
        <time>2021-05-27T12:27:32Z</time>
      </trkpt>
      <trkpt lat="45.66722" lon="6.87215">
        <ele>2124</ele>
        <time>2021-05-27T12:27:33Z</time>
      </trkpt>
      <trkpt lat="45.66713" lon="6.8721">
        <ele>2123.4</ele>
        <time>2021-05-27T12:27:34Z</time>
      </trkpt>
      <trkpt lat="45.66703" lon="6.87205">
        <ele>2123</ele>
        <time>2021-05-27T12:27:35Z</time>
      </trkpt>
      <trkpt lat="45.66693" lon="6.87201">
        <ele>2122.4</ele>
        <time>2021-05-27T12:27:36Z</time>
      </trkpt>
      <trkpt lat="45.66684" lon="6.87198">
        <ele>2121.8</ele>
        <time>2021-05-27T12:27:37Z</time>
      </trkpt>
      <trkpt lat="45.66675" lon="6.87196">
        <ele>2121.2</ele>
        <time>2021-05-27T12:27:38Z</time>
      </trkpt>
      <trkpt lat="45.66665" lon="6.87194">
        <ele>2120.6</ele>
        <time>2021-05-27T12:27:39Z</time>
      </trkpt>
      <trkpt lat="45.66655" lon="6.87192">
        <ele>2119.8</ele>
        <time>2021-05-27T12:27:40Z</time>
      </trkpt>
      <trkpt lat="45.66645" lon="6.8719">
        <ele>2119.4</ele>
        <time>2021-05-27T12:27:41Z</time>
      </trkpt>
      <trkpt lat="45.66636" lon="6.87186">
        <ele>2118.6</ele>
        <time>2021-05-27T12:27:42Z</time>
      </trkpt>
      <trkpt lat="45.66626" lon="6.87182">
        <ele>2117.6</ele>
        <time>2021-05-27T12:27:43Z</time>
      </trkpt>
      <trkpt lat="45.66616" lon="6.87176">
        <ele>2116.4</ele>
        <time>2021-05-27T12:27:44Z</time>
      </trkpt>
      <trkpt lat="45.66608" lon="6.87169">
        <ele>2115.4</ele>
        <time>2021-05-27T12:27:45Z</time>
      </trkpt>
      <trkpt lat="45.66598" lon="6.87162">
        <ele>2114.8</ele>
        <time>2021-05-27T12:27:46Z</time>
      </trkpt>
      <trkpt lat="45.6659" lon="6.87155">
        <ele>2113.8</ele>
        <time>2021-05-27T12:27:47Z</time>
      </trkpt>
      <trkpt lat="45.6658" lon="6.8715">
        <ele>2113</ele>
        <time>2021-05-27T12:27:48Z</time>
      </trkpt>
      <trkpt lat="45.66571" lon="6.87146">
        <ele>2112.2</ele>
        <time>2021-05-27T12:27:49Z</time>
      </trkpt>
      <trkpt lat="45.66561" lon="6.87142">
        <ele>2111.4</ele>
        <time>2021-05-27T12:27:50Z</time>
      </trkpt>
      <trkpt lat="45.6655" lon="6.87139">
        <ele>2110.8</ele>
        <time>2021-05-27T12:27:51Z</time>
      </trkpt>
      <trkpt lat="45.6654" lon="6.87137">
        <ele>2110</ele>
        <time>2021-05-27T12:27:52Z</time>
      </trkpt>
      <trkpt lat="45.66528" lon="6.87134">
        <ele>2109.4</ele>
        <time>2021-05-27T12:27:53Z</time>
      </trkpt>
      <trkpt lat="45.66521" lon="6.87133">
        <ele>2108.6</ele>
        <time>2021-05-27T12:27:54Z</time>
      </trkpt>
      <trkpt lat="45.66511" lon="6.8713">
        <ele>2107.8</ele>
        <time>2021-05-27T12:27:55Z</time>
      </trkpt>
      <trkpt lat="45.66502" lon="6.87127">
        <ele>2107</ele>
        <time>2021-05-27T12:27:56Z</time>
      </trkpt>
      <trkpt lat="45.66493" lon="6.87122">
        <ele>2106.2</ele>
        <time>2021-05-27T12:27:57Z</time>
      </trkpt>
      <trkpt lat="45.66484" lon="6.87116">
        <ele>2105.8</ele>
        <time>2021-05-27T12:27:58Z</time>
      </trkpt>
      <trkpt lat="45.66476" lon="6.87108">
        <ele>2105</ele>
        <time>2021-05-27T12:27:59Z</time>
      </trkpt>
      <trkpt lat="45.66466" lon="6.87099">
        <ele>2104.2</ele>
        <time>2021-05-27T12:28:00Z</time>
      </trkpt>
      <trkpt lat="45.66457" lon="6.87091">
        <ele>2103.4</ele>
        <time>2021-05-27T12:28:01Z</time>
      </trkpt>
      <trkpt lat="45.6645" lon="6.87085">
        <ele>2103</ele>
        <time>2021-05-27T12:28:02Z</time>
      </trkpt>
      <trkpt lat="45.66441" lon="6.87078">
        <ele>2102.6</ele>
        <time>2021-05-27T12:28:03Z</time>
      </trkpt>
      <trkpt lat="45.66431" lon="6.87072">
        <ele>2101.8</ele>
        <time>2021-05-27T12:28:04Z</time>
      </trkpt>
      <trkpt lat="45.66421" lon="6.87066">
        <ele>2101.2</ele>
        <time>2021-05-27T12:28:05Z</time>
      </trkpt>
      <trkpt lat="45.66411" lon="6.8706">
        <ele>2100.4</ele>
        <time>2021-05-27T12:28:06Z</time>
      </trkpt>
      <trkpt lat="45.66401" lon="6.87055">
        <ele>2099.6</ele>
        <time>2021-05-27T12:28:07Z</time>
      </trkpt>
      <trkpt lat="45.6639" lon="6.87051">
        <ele>2099</ele>
        <time>2021-05-27T12:28:08Z</time>
      </trkpt>
      <trkpt lat="45.66379" lon="6.87048">
        <ele>2098.2</ele>
        <time>2021-05-27T12:28:09Z</time>
      </trkpt>
      <trkpt lat="45.66367" lon="6.87046">
        <ele>2097.6</ele>
        <time>2021-05-27T12:28:10Z</time>
      </trkpt>
      <trkpt lat="45.66356" lon="6.87044">
        <ele>2096.8</ele>
        <time>2021-05-27T12:28:11Z</time>
      </trkpt>
      <trkpt lat="45.66346" lon="6.87041">
        <ele>2096</ele>
        <time>2021-05-27T12:28:12Z</time>
      </trkpt>
      <trkpt lat="45.66335" lon="6.87039">
        <ele>2095</ele>
        <time>2021-05-27T12:28:13Z</time>
      </trkpt>
      <trkpt lat="45.66325" lon="6.87038">
        <ele>2094</ele>
        <time>2021-05-27T12:28:14Z</time>
      </trkpt>
      <trkpt lat="45.66316" lon="6.87038">
        <ele>2092.8</ele>
        <time>2021-05-27T12:28:15Z</time>
      </trkpt>
      <trkpt lat="45.66305" lon="6.87041">
        <ele>2092</ele>
        <time>2021-05-27T12:28:16Z</time>
      </trkpt>
      <trkpt lat="45.66295" lon="6.87045">
        <ele>2091.4</ele>
        <time>2021-05-27T12:28:17Z</time>
      </trkpt>
      <trkpt lat="45.66285" lon="6.87049">
        <ele>2090.8</ele>
        <time>2021-05-27T12:28:18Z</time>
      </trkpt>
      <trkpt lat="45.66275" lon="6.87054">
        <ele>2090.6</ele>
        <time>2021-05-27T12:28:19Z</time>
      </trkpt>
      <trkpt lat="45.66263" lon="6.87059">
        <ele>2090.2</ele>
        <time>2021-05-27T12:28:20Z</time>
      </trkpt>
      <trkpt lat="45.66256" lon="6.87063">
        <ele>2090</ele>
        <time>2021-05-27T12:28:21Z</time>
      </trkpt>
      <trkpt lat="45.66246" lon="6.87069">
        <ele>2089.6</ele>
        <time>2021-05-27T12:28:22Z</time>
      </trkpt>
      <trkpt lat="45.6624" lon="6.8707">
        <ele>2089.2</ele>
        <time>2021-05-27T12:28:23Z</time>
      </trkpt>
      <trkpt lat="45.66234" lon="6.87071">
        <ele>2088.8</ele>
        <time>2021-05-27T12:28:24Z</time>
      </trkpt>
      <trkpt lat="45.66229" lon="6.8707">
        <ele>2088.6</ele>
        <time>2021-05-27T12:28:25Z</time>
      </trkpt>
      <trkpt lat="45.66225" lon="6.87065">
        <ele>2088</ele>
        <time>2021-05-27T12:28:26Z</time>
      </trkpt>
      <trkpt lat="45.66223" lon="6.87059">
        <ele>2088</ele>
        <time>2021-05-27T12:28:27Z</time>
      </trkpt>
      <trkpt lat="45.66224" lon="6.8705">
        <ele>2088</ele>
        <time>2021-05-27T12:28:28Z</time>
      </trkpt>
      <trkpt lat="45.66226" lon="6.87042">
        <ele>2088.2</ele>
        <time>2021-05-27T12:28:29Z</time>
      </trkpt>
      <trkpt lat="45.66229" lon="6.87034">
        <ele>2088.4</ele>
        <time>2021-05-27T12:28:30Z</time>
      </trkpt>
      <trkpt lat="45.66232" lon="6.87027">
        <ele>2088.8</ele>
        <time>2021-05-27T12:28:31Z</time>
      </trkpt>
      <trkpt lat="45.66235" lon="6.87016">
        <ele>2089.4</ele>
        <time>2021-05-27T12:28:32Z</time>
      </trkpt>
      <trkpt lat="45.66237" lon="6.87006">
        <ele>2089.6</ele>
        <time>2021-05-27T12:28:33Z</time>
      </trkpt>
      <trkpt lat="45.66239" lon="6.86996">
        <ele>2090.2</ele>
        <time>2021-05-27T12:28:34Z</time>
      </trkpt>
      <trkpt lat="45.6624" lon="6.86984">
        <ele>2089.6</ele>
        <time>2021-05-27T12:28:35Z</time>
      </trkpt>
      <trkpt lat="45.66241" lon="6.86973">
        <ele>2089.4</ele>
        <time>2021-05-27T12:28:36Z</time>
      </trkpt>
      <trkpt lat="45.6624" lon="6.86961">
        <ele>2088.8</ele>
        <time>2021-05-27T12:28:37Z</time>
      </trkpt>
      <trkpt lat="45.66238" lon="6.8695">
        <ele>2088.2</ele>
        <time>2021-05-27T12:28:38Z</time>
      </trkpt>
      <trkpt lat="45.66235" lon="6.86939">
        <ele>2087.8</ele>
        <time>2021-05-27T12:28:39Z</time>
      </trkpt>
      <trkpt lat="45.6623" lon="6.86928">
        <ele>2087.2</ele>
        <time>2021-05-27T12:28:40Z</time>
      </trkpt>
      <trkpt lat="45.66224" lon="6.8692">
        <ele>2086.6</ele>
        <time>2021-05-27T12:28:41Z</time>
      </trkpt>
      <trkpt lat="45.66217" lon="6.86912">
        <ele>2086</ele>
        <time>2021-05-27T12:28:42Z</time>
      </trkpt>
      <trkpt lat="45.66209" lon="6.86906">
        <ele>2085.2</ele>
        <time>2021-05-27T12:28:43Z</time>
      </trkpt>
      <trkpt lat="45.66201" lon="6.869">
        <ele>2084.8</ele>
        <time>2021-05-27T12:28:44Z</time>
      </trkpt>
      <trkpt lat="45.66193" lon="6.86892">
        <ele>2083.8</ele>
        <time>2021-05-27T12:28:45Z</time>
      </trkpt>
      <trkpt lat="45.66187" lon="6.86886">
        <ele>2083.4</ele>
        <time>2021-05-27T12:28:46Z</time>
      </trkpt>
      <trkpt lat="45.66179" lon="6.86875">
        <ele>2082.6</ele>
        <time>2021-05-27T12:28:47Z</time>
      </trkpt>
      <trkpt lat="45.66173" lon="6.86864">
        <ele>2083</ele>
        <time>2021-05-27T12:28:48Z</time>
      </trkpt>
      <trkpt lat="45.66169" lon="6.86852">
        <ele>2082.6</ele>
        <time>2021-05-27T12:28:49Z</time>
      </trkpt>
      <trkpt lat="45.66165" lon="6.8684">
        <ele>2081.8</ele>
        <time>2021-05-27T12:28:50Z</time>
      </trkpt>
      <trkpt lat="45.6616" lon="6.86829">
        <ele>2081.2</ele>
        <time>2021-05-27T12:28:51Z</time>
      </trkpt>
      <trkpt lat="45.66155" lon="6.86818">
        <ele>2080.8</ele>
        <time>2021-05-27T12:28:52Z</time>
      </trkpt>
      <trkpt lat="45.66149" lon="6.86809">
        <ele>2080.2</ele>
        <time>2021-05-27T12:28:53Z</time>
      </trkpt>
      <trkpt lat="45.66144" lon="6.86801">
        <ele>2080</ele>
        <time>2021-05-27T12:28:54Z</time>
      </trkpt>
      <trkpt lat="45.66137" lon="6.8679">
        <ele>2079.6</ele>
        <time>2021-05-27T12:28:55Z</time>
      </trkpt>
      <trkpt lat="45.6613" lon="6.8678">
        <ele>2079</ele>
        <time>2021-05-27T12:28:56Z</time>
      </trkpt>
      <trkpt lat="45.66124" lon="6.86773">
        <ele>2078.4</ele>
        <time>2021-05-27T12:28:57Z</time>
      </trkpt>
      <trkpt lat="45.66116" lon="6.86762">
        <ele>2078</ele>
        <time>2021-05-27T12:28:58Z</time>
      </trkpt>
      <trkpt lat="45.6611" lon="6.86755">
        <ele>2077.6</ele>
        <time>2021-05-27T12:28:59Z</time>
      </trkpt>
      <trkpt lat="45.66101" lon="6.86744">
        <ele>2077</ele>
        <time>2021-05-27T12:29:00Z</time>
      </trkpt>
      <trkpt lat="45.66094" lon="6.86736">
        <ele>2076.4</ele>
        <time>2021-05-27T12:29:01Z</time>
      </trkpt>
      <trkpt lat="45.66088" lon="6.8673">
        <ele>2075.8</ele>
        <time>2021-05-27T12:29:02Z</time>
      </trkpt>
      <trkpt lat="45.6608" lon="6.86722">
        <ele>2075.4</ele>
        <time>2021-05-27T12:29:03Z</time>
      </trkpt>
      <trkpt lat="45.66071" lon="6.86712">
        <ele>2075.2</ele>
        <time>2021-05-27T12:29:04Z</time>
      </trkpt>
      <trkpt lat="45.66066" lon="6.86705">
        <ele>2074.8</ele>
        <time>2021-05-27T12:29:05Z</time>
      </trkpt>
      <trkpt lat="45.66058" lon="6.86696">
        <ele>2074.2</ele>
        <time>2021-05-27T12:29:06Z</time>
      </trkpt>
      <trkpt lat="45.66051" lon="6.86687">
        <ele>2073.6</ele>
        <time>2021-05-27T12:29:07Z</time>
      </trkpt>
      <trkpt lat="45.66044" lon="6.86677">
        <ele>2072.6</ele>
        <time>2021-05-27T12:29:08Z</time>
      </trkpt>
      <trkpt lat="45.66036" lon="6.86665">
        <ele>2071.8</ele>
        <time>2021-05-27T12:29:09Z</time>
      </trkpt>
      <trkpt lat="45.66031" lon="6.86656">
        <ele>2071</ele>
        <time>2021-05-27T12:29:10Z</time>
      </trkpt>
      <trkpt lat="45.66024" lon="6.86644">
        <ele>2070.4</ele>
        <time>2021-05-27T12:29:11Z</time>
      </trkpt>
      <trkpt lat="45.66018" lon="6.86636">
        <ele>2069.8</ele>
        <time>2021-05-27T12:29:12Z</time>
      </trkpt>
      <trkpt lat="45.66011" lon="6.86626">
        <ele>2069</ele>
        <time>2021-05-27T12:29:13Z</time>
      </trkpt>
      <trkpt lat="45.66004" lon="6.86617">
        <ele>2068.6</ele>
        <time>2021-05-27T12:29:14Z</time>
      </trkpt>
      <trkpt lat="45.65996" lon="6.86609">
        <ele>2068.6</ele>
        <time>2021-05-27T12:29:15Z</time>
      </trkpt>
      <trkpt lat="45.65987" lon="6.866">
        <ele>2068</ele>
        <time>2021-05-27T12:29:16Z</time>
      </trkpt>
      <trkpt lat="45.6598" lon="6.8659">
        <ele>2067.4</ele>
        <time>2021-05-27T12:29:17Z</time>
      </trkpt>
      <trkpt lat="45.65972" lon="6.8658">
        <ele>2066.6</ele>
        <time>2021-05-27T12:29:18Z</time>
      </trkpt>
      <trkpt lat="45.65965" lon="6.8657">
        <ele>2065.8</ele>
        <time>2021-05-27T12:29:19Z</time>
      </trkpt>
      <trkpt lat="45.65959" lon="6.86558">
        <ele>2065</ele>
        <time>2021-05-27T12:29:20Z</time>
      </trkpt>
      <trkpt lat="45.65953" lon="6.86545">
        <ele>2064</ele>
        <time>2021-05-27T12:29:21Z</time>
      </trkpt>
      <trkpt lat="45.65946" lon="6.8653">
        <ele>2063.2</ele>
        <time>2021-05-27T12:29:22Z</time>
      </trkpt>
      <trkpt lat="45.65941" lon="6.86516">
        <ele>2062.6</ele>
        <time>2021-05-27T12:29:23Z</time>
      </trkpt>
      <trkpt lat="45.65936" lon="6.86506">
        <ele>2062</ele>
        <time>2021-05-27T12:29:24Z</time>
      </trkpt>
      <trkpt lat="45.65931" lon="6.86492">
        <ele>2061.2</ele>
        <time>2021-05-27T12:29:25Z</time>
      </trkpt>
      <trkpt lat="45.65924" lon="6.86475">
        <ele>2060.8</ele>
        <time>2021-05-27T12:29:26Z</time>
      </trkpt>
      <trkpt lat="45.65918" lon="6.8646">
        <ele>2060.2</ele>
        <time>2021-05-27T12:29:27Z</time>
      </trkpt>
      <trkpt lat="45.65913" lon="6.86449">
        <ele>2059.6</ele>
        <time>2021-05-27T12:29:28Z</time>
      </trkpt>
      <trkpt lat="45.65907" lon="6.86436">
        <ele>2059</ele>
        <time>2021-05-27T12:29:29Z</time>
      </trkpt>
      <trkpt lat="45.65897" lon="6.86425">
        <ele>2058.8</ele>
        <time>2021-05-27T12:29:30Z</time>
      </trkpt>
      <trkpt lat="45.65885" lon="6.86414">
        <ele>2058.4</ele>
        <time>2021-05-27T12:29:31Z</time>
      </trkpt>
      <trkpt lat="45.65876" lon="6.86408">
        <ele>2057.4</ele>
        <time>2021-05-27T12:29:32Z</time>
      </trkpt>
      <trkpt lat="45.65865" lon="6.86402">
        <ele>2056.8</ele>
        <time>2021-05-27T12:29:33Z</time>
      </trkpt>
      <trkpt lat="45.65857" lon="6.86398">
        <ele>2056.4</ele>
        <time>2021-05-27T12:29:34Z</time>
      </trkpt>
      <trkpt lat="45.65845" lon="6.86392">
        <ele>2056</ele>
        <time>2021-05-27T12:29:35Z</time>
      </trkpt>
      <trkpt lat="45.65837" lon="6.86387">
        <ele>2055.4</ele>
        <time>2021-05-27T12:29:36Z</time>
      </trkpt>
      <trkpt lat="45.65827" lon="6.8638">
        <ele>2055.2</ele>
        <time>2021-05-27T12:29:37Z</time>
      </trkpt>
      <trkpt lat="45.65818" lon="6.86373">
        <ele>2054.6</ele>
        <time>2021-05-27T12:29:38Z</time>
      </trkpt>
      <trkpt lat="45.6581" lon="6.86364">
        <ele>2054</ele>
        <time>2021-05-27T12:29:39Z</time>
      </trkpt>
      <trkpt lat="45.65802" lon="6.86356">
        <ele>2053.4</ele>
        <time>2021-05-27T12:29:40Z</time>
      </trkpt>
      <trkpt lat="45.65793" lon="6.86348">
        <ele>2053</ele>
        <time>2021-05-27T12:29:41Z</time>
      </trkpt>
      <trkpt lat="45.65784" lon="6.86341">
        <ele>2052.8</ele>
        <time>2021-05-27T12:29:42Z</time>
      </trkpt>
      <trkpt lat="45.65776" lon="6.86336">
        <ele>2052.6</ele>
        <time>2021-05-27T12:29:43Z</time>
      </trkpt>
      <trkpt lat="45.65766" lon="6.86332">
        <ele>2052</ele>
        <time>2021-05-27T12:29:44Z</time>
      </trkpt>
      <trkpt lat="45.65756" lon="6.86327">
        <ele>2052</ele>
        <time>2021-05-27T12:29:45Z</time>
      </trkpt>
      <trkpt lat="45.65748" lon="6.86322">
        <ele>2051.6</ele>
        <time>2021-05-27T12:29:46Z</time>
      </trkpt>
      <trkpt lat="45.65739" lon="6.86316">
        <ele>2051</ele>
        <time>2021-05-27T12:29:47Z</time>
      </trkpt>
      <trkpt lat="45.65731" lon="6.86308">
        <ele>2050.6</ele>
        <time>2021-05-27T12:29:48Z</time>
      </trkpt>
      <trkpt lat="45.65723" lon="6.86301">
        <ele>2050.4</ele>
        <time>2021-05-27T12:29:49Z</time>
      </trkpt>
      <trkpt lat="45.65715" lon="6.86292">
        <ele>2050.2</ele>
        <time>2021-05-27T12:29:50Z</time>
      </trkpt>
      <trkpt lat="45.65707" lon="6.86284">
        <ele>2049.8</ele>
        <time>2021-05-27T12:29:51Z</time>
      </trkpt>
      <trkpt lat="45.65699" lon="6.86275">
        <ele>2049.2</ele>
        <time>2021-05-27T12:29:52Z</time>
      </trkpt>
      <trkpt lat="45.6569" lon="6.86264">
        <ele>2048.6</ele>
        <time>2021-05-27T12:29:53Z</time>
      </trkpt>
      <trkpt lat="45.65684" lon="6.86254">
        <ele>2048</ele>
        <time>2021-05-27T12:29:54Z</time>
      </trkpt>
      <trkpt lat="45.65679" lon="6.86244">
        <ele>2047.6</ele>
        <time>2021-05-27T12:29:55Z</time>
      </trkpt>
      <trkpt lat="45.65674" lon="6.86232">
        <ele>2047</ele>
        <time>2021-05-27T12:29:56Z</time>
      </trkpt>
      <trkpt lat="45.6567" lon="6.86219">
        <ele>2046.4</ele>
        <time>2021-05-27T12:29:57Z</time>
      </trkpt>
      <trkpt lat="45.65665" lon="6.86202">
        <ele>2045.6</ele>
        <time>2021-05-27T12:29:58Z</time>
      </trkpt>
      <trkpt lat="45.6566" lon="6.86192">
        <ele>2045.2</ele>
        <time>2021-05-27T12:29:59Z</time>
      </trkpt>
      <trkpt lat="45.65653" lon="6.86176">
        <ele>2045.2</ele>
        <time>2021-05-27T12:30:00Z</time>
      </trkpt>
      <trkpt lat="45.65647" lon="6.86167">
        <ele>2045.2</ele>
        <time>2021-05-27T12:30:01Z</time>
      </trkpt>
      <trkpt lat="45.6564" lon="6.86157">
        <ele>2045.2</ele>
        <time>2021-05-27T12:30:02Z</time>
      </trkpt>
      <trkpt lat="45.65632" lon="6.86147">
        <ele>2043.6</ele>
        <time>2021-05-27T12:30:03Z</time>
      </trkpt>
      <trkpt lat="45.65623" lon="6.86138">
        <ele>2043.2</ele>
        <time>2021-05-27T12:30:04Z</time>
      </trkpt>
      <trkpt lat="45.65615" lon="6.86131">
        <ele>2042.6</ele>
        <time>2021-05-27T12:30:05Z</time>
      </trkpt>
      <trkpt lat="45.65606" lon="6.86126">
        <ele>2042.2</ele>
        <time>2021-05-27T12:30:06Z</time>
      </trkpt>
      <trkpt lat="45.65597" lon="6.86122">
        <ele>2041.6</ele>
        <time>2021-05-27T12:30:07Z</time>
      </trkpt>
      <trkpt lat="45.65588" lon="6.86117">
        <ele>2041.4</ele>
        <time>2021-05-27T12:30:08Z</time>
      </trkpt>
      <trkpt lat="45.65579" lon="6.86114">
        <ele>2041</ele>
        <time>2021-05-27T12:30:09Z</time>
      </trkpt>
      <trkpt lat="45.65569" lon="6.86112">
        <ele>2040.6</ele>
        <time>2021-05-27T12:30:10Z</time>
      </trkpt>
      <trkpt lat="45.65559" lon="6.86108">
        <ele>2040</ele>
        <time>2021-05-27T12:30:11Z</time>
      </trkpt>
      <trkpt lat="45.65551" lon="6.86102">
        <ele>2039.6</ele>
        <time>2021-05-27T12:30:12Z</time>
      </trkpt>
      <trkpt lat="45.65542" lon="6.86094">
        <ele>2039</ele>
        <time>2021-05-27T12:30:13Z</time>
      </trkpt>
      <trkpt lat="45.65535" lon="6.86086">
        <ele>2038.6</ele>
        <time>2021-05-27T12:30:14Z</time>
      </trkpt>
      <trkpt lat="45.65527" lon="6.86073">
        <ele>2038</ele>
        <time>2021-05-27T12:30:15Z</time>
      </trkpt>
      <trkpt lat="45.65522" lon="6.86065">
        <ele>2037.2</ele>
        <time>2021-05-27T12:30:16Z</time>
      </trkpt>
      <trkpt lat="45.65517" lon="6.86053">
        <ele>2036.8</ele>
        <time>2021-05-27T12:30:17Z</time>
      </trkpt>
      <trkpt lat="45.65511" lon="6.86041">
        <ele>2036</ele>
        <time>2021-05-27T12:30:18Z</time>
      </trkpt>
      <trkpt lat="45.65507" lon="6.86028">
        <ele>2035.4</ele>
        <time>2021-05-27T12:30:19Z</time>
      </trkpt>
      <trkpt lat="45.65502" lon="6.86016">
        <ele>2034.6</ele>
        <time>2021-05-27T12:30:20Z</time>
      </trkpt>
      <trkpt lat="45.65496" lon="6.86003">
        <ele>2034.2</ele>
        <time>2021-05-27T12:30:21Z</time>
      </trkpt>
      <trkpt lat="45.6549" lon="6.85991">
        <ele>2033.8</ele>
        <time>2021-05-27T12:30:22Z</time>
      </trkpt>
      <trkpt lat="45.65482" lon="6.85981">
        <ele>2033.2</ele>
        <time>2021-05-27T12:30:23Z</time>
      </trkpt>
      <trkpt lat="45.65473" lon="6.85972">
        <ele>2032.8</ele>
        <time>2021-05-27T12:30:24Z</time>
      </trkpt>
      <trkpt lat="45.65464" lon="6.85966">
        <ele>2031.6</ele>
        <time>2021-05-27T12:30:25Z</time>
      </trkpt>
      <trkpt lat="45.65454" lon="6.85962">
        <ele>2031.2</ele>
        <time>2021-05-27T12:30:26Z</time>
      </trkpt>
      <trkpt lat="45.65444" lon="6.85958">
        <ele>2030.6</ele>
        <time>2021-05-27T12:30:27Z</time>
      </trkpt>
      <trkpt lat="45.65434" lon="6.85955">
        <ele>2029.8</ele>
        <time>2021-05-27T12:30:28Z</time>
      </trkpt>
      <trkpt lat="45.65424" lon="6.8595">
        <ele>2029.4</ele>
        <time>2021-05-27T12:30:29Z</time>
      </trkpt>
      <trkpt lat="45.65415" lon="6.85945">
        <ele>2029</ele>
        <time>2021-05-27T12:30:30Z</time>
      </trkpt>
      <trkpt lat="45.65407" lon="6.85938">
        <ele>2028</ele>
        <time>2021-05-27T12:30:31Z</time>
      </trkpt>
      <trkpt lat="45.65399" lon="6.85928">
        <ele>2027.6</ele>
        <time>2021-05-27T12:30:32Z</time>
      </trkpt>
      <trkpt lat="45.65391" lon="6.85918">
        <ele>2027.2</ele>
        <time>2021-05-27T12:30:33Z</time>
      </trkpt>
      <trkpt lat="45.65384" lon="6.85908">
        <ele>2026.6</ele>
        <time>2021-05-27T12:30:34Z</time>
      </trkpt>
      <trkpt lat="45.65377" lon="6.85896">
        <ele>2026</ele>
        <time>2021-05-27T12:30:35Z</time>
      </trkpt>
      <trkpt lat="45.65369" lon="6.85884">
        <ele>2025.4</ele>
        <time>2021-05-27T12:30:36Z</time>
      </trkpt>
      <trkpt lat="45.65361" lon="6.85874">
        <ele>2025.2</ele>
        <time>2021-05-27T12:30:37Z</time>
      </trkpt>
      <trkpt lat="45.65353" lon="6.85863">
        <ele>2024.8</ele>
        <time>2021-05-27T12:30:38Z</time>
      </trkpt>
      <trkpt lat="45.65346" lon="6.85853">
        <ele>2024.2</ele>
        <time>2021-05-27T12:30:39Z</time>
      </trkpt>
      <trkpt lat="45.65337" lon="6.85844">
        <ele>2023.4</ele>
        <time>2021-05-27T12:30:40Z</time>
      </trkpt>
      <trkpt lat="45.65329" lon="6.85835">
        <ele>2023.2</ele>
        <time>2021-05-27T12:30:41Z</time>
      </trkpt>
      <trkpt lat="45.6532" lon="6.85827">
        <ele>2022.6</ele>
        <time>2021-05-27T12:30:42Z</time>
      </trkpt>
      <trkpt lat="45.65311" lon="6.8582">
        <ele>2021.8</ele>
        <time>2021-05-27T12:30:43Z</time>
      </trkpt>
      <trkpt lat="45.65301" lon="6.85814">
        <ele>2021.2</ele>
        <time>2021-05-27T12:30:44Z</time>
      </trkpt>
      <trkpt lat="45.65292" lon="6.85809">
        <ele>2020.8</ele>
        <time>2021-05-27T12:30:45Z</time>
      </trkpt>
      <trkpt lat="45.65283" lon="6.85805">
        <ele>2020.6</ele>
        <time>2021-05-27T12:30:46Z</time>
      </trkpt>
      <trkpt lat="45.65273" lon="6.85801">
        <ele>2020.4</ele>
        <time>2021-05-27T12:30:47Z</time>
      </trkpt>
      <trkpt lat="45.65264" lon="6.85797">
        <ele>2020</ele>
        <time>2021-05-27T12:30:48Z</time>
      </trkpt>
      <trkpt lat="45.65255" lon="6.85793">
        <ele>2019.4</ele>
        <time>2021-05-27T12:30:49Z</time>
      </trkpt>
      <trkpt lat="45.65246" lon="6.85788">
        <ele>2019</ele>
        <time>2021-05-27T12:30:50Z</time>
      </trkpt>
      <trkpt lat="45.65237" lon="6.85782">
        <ele>2018.2</ele>
        <time>2021-05-27T12:30:51Z</time>
      </trkpt>
      <trkpt lat="45.65229" lon="6.85776">
        <ele>2017.6</ele>
        <time>2021-05-27T12:30:52Z</time>
      </trkpt>
      <trkpt lat="45.65221" lon="6.85768">
        <ele>2017</ele>
        <time>2021-05-27T12:30:53Z</time>
      </trkpt>
      <trkpt lat="45.65213" lon="6.8576">
        <ele>2016.4</ele>
        <time>2021-05-27T12:30:54Z</time>
      </trkpt>
      <trkpt lat="45.65205" lon="6.85751">
        <ele>2016</ele>
        <time>2021-05-27T12:30:55Z</time>
      </trkpt>
      <trkpt lat="45.65198" lon="6.85742">
        <ele>2015.4</ele>
        <time>2021-05-27T12:30:56Z</time>
      </trkpt>
      <trkpt lat="45.6519" lon="6.85732">
        <ele>2015.4</ele>
        <time>2021-05-27T12:30:57Z</time>
      </trkpt>
      <trkpt lat="45.65181" lon="6.85723">
        <ele>2015</ele>
        <time>2021-05-27T12:30:58Z</time>
      </trkpt>
      <trkpt lat="45.65172" lon="6.85715">
        <ele>2015.2</ele>
        <time>2021-05-27T12:30:59Z</time>
      </trkpt>
      <trkpt lat="45.65163" lon="6.85707">
        <ele>2014.6</ele>
        <time>2021-05-27T12:31:00Z</time>
      </trkpt>
      <trkpt lat="45.65153" lon="6.857">
        <ele>2015</ele>
        <time>2021-05-27T12:31:01Z</time>
      </trkpt>
      <trkpt lat="45.65144" lon="6.85694">
        <ele>2014.2</ele>
        <time>2021-05-27T12:31:02Z</time>
      </trkpt>
      <trkpt lat="45.65134" lon="6.85687">
        <ele>2013.6</ele>
        <time>2021-05-27T12:31:03Z</time>
      </trkpt>
      <trkpt lat="45.65124" lon="6.85681">
        <ele>2013.2</ele>
        <time>2021-05-27T12:31:04Z</time>
      </trkpt>
      <trkpt lat="45.65114" lon="6.85674">
        <ele>2012.6</ele>
        <time>2021-05-27T12:31:05Z</time>
      </trkpt>
      <trkpt lat="45.65104" lon="6.85668">
        <ele>2012</ele>
        <time>2021-05-27T12:31:06Z</time>
      </trkpt>
      <trkpt lat="45.65095" lon="6.85662">
        <ele>2011.8</ele>
        <time>2021-05-27T12:31:07Z</time>
      </trkpt>
      <trkpt lat="45.65086" lon="6.85656">
        <ele>2011.6</ele>
        <time>2021-05-27T12:31:08Z</time>
      </trkpt>
      <trkpt lat="45.65077" lon="6.85651">
        <ele>2011.2</ele>
        <time>2021-05-27T12:31:09Z</time>
      </trkpt>
      <trkpt lat="45.65069" lon="6.85646">
        <ele>2011</ele>
        <time>2021-05-27T12:31:10Z</time>
      </trkpt>
      <trkpt lat="45.65061" lon="6.8564">
        <ele>2010.2</ele>
        <time>2021-05-27T12:31:11Z</time>
      </trkpt>
      <trkpt lat="45.65054" lon="6.85632">
        <ele>2010.2</ele>
        <time>2021-05-27T12:31:12Z</time>
      </trkpt>
      <trkpt lat="45.65047" lon="6.85624">
        <ele>2009.6</ele>
        <time>2021-05-27T12:31:13Z</time>
      </trkpt>
      <trkpt lat="45.65041" lon="6.85615">
        <ele>2009.2</ele>
        <time>2021-05-27T12:31:14Z</time>
      </trkpt>
      <trkpt lat="45.65036" lon="6.85604">
        <ele>2008.8</ele>
        <time>2021-05-27T12:31:15Z</time>
      </trkpt>
      <trkpt lat="45.6503" lon="6.85593">
        <ele>2008.8</ele>
        <time>2021-05-27T12:31:16Z</time>
      </trkpt>
      <trkpt lat="45.65025" lon="6.85582">
        <ele>2008.6</ele>
        <time>2021-05-27T12:31:17Z</time>
      </trkpt>
      <trkpt lat="45.6502" lon="6.85571">
        <ele>2008.8</ele>
        <time>2021-05-27T12:31:18Z</time>
      </trkpt>
      <trkpt lat="45.65015" lon="6.85561">
        <ele>2008.8</ele>
        <time>2021-05-27T12:31:19Z</time>
      </trkpt>
      <trkpt lat="45.65009" lon="6.8555">
        <ele>2009</ele>
        <time>2021-05-27T12:31:20Z</time>
      </trkpt>
      <trkpt lat="45.65003" lon="6.8554">
        <ele>2008.6</ele>
        <time>2021-05-27T12:31:21Z</time>
      </trkpt>
      <trkpt lat="45.64996" lon="6.8553">
        <ele>2007.6</ele>
        <time>2021-05-27T12:31:22Z</time>
      </trkpt>
      <trkpt lat="45.64989" lon="6.85519">
        <ele>2006.8</ele>
        <time>2021-05-27T12:31:23Z</time>
      </trkpt>
      <trkpt lat="45.64983" lon="6.85508">
        <ele>2006</ele>
        <time>2021-05-27T12:31:24Z</time>
      </trkpt>
      <trkpt lat="45.64977" lon="6.85496">
        <ele>2005.4</ele>
        <time>2021-05-27T12:31:25Z</time>
      </trkpt>
      <trkpt lat="45.64972" lon="6.85483">
        <ele>2004.8</ele>
        <time>2021-05-27T12:31:26Z</time>
      </trkpt>
      <trkpt lat="45.64968" lon="6.85468">
        <ele>2003.8</ele>
        <time>2021-05-27T12:31:27Z</time>
      </trkpt>
      <trkpt lat="45.64965" lon="6.85454">
        <ele>2003.2</ele>
        <time>2021-05-27T12:31:28Z</time>
      </trkpt>
      <trkpt lat="45.64961" lon="6.85438">
        <ele>2002.8</ele>
        <time>2021-05-27T12:31:29Z</time>
      </trkpt>
      <trkpt lat="45.64957" lon="6.85424">
        <ele>2002.4</ele>
        <time>2021-05-27T12:31:30Z</time>
      </trkpt>
      <trkpt lat="45.64953" lon="6.8541">
        <ele>2001.8</ele>
        <time>2021-05-27T12:31:31Z</time>
      </trkpt>
      <trkpt lat="45.64948" lon="6.85395">
        <ele>2001.6</ele>
        <time>2021-05-27T12:31:32Z</time>
      </trkpt>
      <trkpt lat="45.64942" lon="6.85381">
        <ele>2001.2</ele>
        <time>2021-05-27T12:31:33Z</time>
      </trkpt>
      <trkpt lat="45.64937" lon="6.85367">
        <ele>2000.8</ele>
        <time>2021-05-27T12:31:34Z</time>
      </trkpt>
      <trkpt lat="45.64932" lon="6.85353">
        <ele>2000.2</ele>
        <time>2021-05-27T12:31:35Z</time>
      </trkpt>
      <trkpt lat="45.64926" lon="6.8534">
        <ele>1999</ele>
        <time>2021-05-27T12:31:36Z</time>
      </trkpt>
      <trkpt lat="45.6492" lon="6.85327">
        <ele>1998.6</ele>
        <time>2021-05-27T12:31:37Z</time>
      </trkpt>
      <trkpt lat="45.64914" lon="6.85315">
        <ele>1998</ele>
        <time>2021-05-27T12:31:38Z</time>
      </trkpt>
      <trkpt lat="45.64908" lon="6.85304">
        <ele>1997.8</ele>
        <time>2021-05-27T12:31:39Z</time>
      </trkpt>
      <trkpt lat="45.64901" lon="6.85293">
        <ele>1998</ele>
        <time>2021-05-27T12:31:40Z</time>
      </trkpt>
      <trkpt lat="45.64894" lon="6.85284">
        <ele>1998.2</ele>
        <time>2021-05-27T12:31:41Z</time>
      </trkpt>
      <trkpt lat="45.64886" lon="6.85276">
        <ele>1997.6</ele>
        <time>2021-05-27T12:31:42Z</time>
      </trkpt>
      <trkpt lat="45.64878" lon="6.8527">
        <ele>1997</ele>
        <time>2021-05-27T12:31:43Z</time>
      </trkpt>
      <trkpt lat="45.6487" lon="6.85266">
        <ele>1996.6</ele>
        <time>2021-05-27T12:31:44Z</time>
      </trkpt>
      <trkpt lat="45.64862" lon="6.85262">
        <ele>1995.8</ele>
        <time>2021-05-27T12:31:45Z</time>
      </trkpt>
      <trkpt lat="45.64853" lon="6.85258">
        <ele>1995.6</ele>
        <time>2021-05-27T12:31:46Z</time>
      </trkpt>
      <trkpt lat="45.64844" lon="6.85254">
        <ele>1995</ele>
        <time>2021-05-27T12:31:47Z</time>
      </trkpt>
      <trkpt lat="45.64836" lon="6.85251">
        <ele>1995.2</ele>
        <time>2021-05-27T12:31:48Z</time>
      </trkpt>
      <trkpt lat="45.64828" lon="6.85248">
        <ele>1994.2</ele>
        <time>2021-05-27T12:31:49Z</time>
      </trkpt>
      <trkpt lat="45.64819" lon="6.85243">
        <ele>1994.2</ele>
        <time>2021-05-27T12:31:50Z</time>
      </trkpt>
      <trkpt lat="45.64811" lon="6.85238">
        <ele>1993.4</ele>
        <time>2021-05-27T12:31:51Z</time>
      </trkpt>
      <trkpt lat="45.64802" lon="6.85234">
        <ele>1993.4</ele>
        <time>2021-05-27T12:31:52Z</time>
      </trkpt>
      <trkpt lat="45.64794" lon="6.85229">
        <ele>1992.8</ele>
        <time>2021-05-27T12:31:53Z</time>
      </trkpt>
      <trkpt lat="45.64786" lon="6.85224">
        <ele>1992.6</ele>
        <time>2021-05-27T12:31:54Z</time>
      </trkpt>
      <trkpt lat="45.64777" lon="6.85219">
        <ele>1992.2</ele>
        <time>2021-05-27T12:31:55Z</time>
      </trkpt>
      <trkpt lat="45.64769" lon="6.85214">
        <ele>1991.6</ele>
        <time>2021-05-27T12:31:56Z</time>
      </trkpt>
      <trkpt lat="45.6476" lon="6.8521">
        <ele>1991.4</ele>
        <time>2021-05-27T12:31:57Z</time>
      </trkpt>
      <trkpt lat="45.64751" lon="6.85208">
        <ele>1991</ele>
        <time>2021-05-27T12:31:58Z</time>
      </trkpt>
      <trkpt lat="45.64741" lon="6.85206">
        <ele>1991</ele>
        <time>2021-05-27T12:31:59Z</time>
      </trkpt>
      <trkpt lat="45.64732" lon="6.85204">
        <ele>1990.8</ele>
        <time>2021-05-27T12:32:00Z</time>
      </trkpt>
      <trkpt lat="45.64722" lon="6.85202">
        <ele>1990</ele>
        <time>2021-05-27T12:32:01Z</time>
      </trkpt>
      <trkpt lat="45.64713" lon="6.85199">
        <ele>1989.8</ele>
        <time>2021-05-27T12:32:02Z</time>
      </trkpt>
      <trkpt lat="45.64705" lon="6.85194">
        <ele>1989</ele>
        <time>2021-05-27T12:32:03Z</time>
      </trkpt>
      <trkpt lat="45.64697" lon="6.85186">
        <ele>1988.8</ele>
        <time>2021-05-27T12:32:04Z</time>
      </trkpt>
      <trkpt lat="45.6469" lon="6.85177">
        <ele>1988.6</ele>
        <time>2021-05-27T12:32:05Z</time>
      </trkpt>
      <trkpt lat="45.64683" lon="6.85167">
        <ele>1988</ele>
        <time>2021-05-27T12:32:06Z</time>
      </trkpt>
      <trkpt lat="45.64676" lon="6.85156">
        <ele>1987.4</ele>
        <time>2021-05-27T12:32:07Z</time>
      </trkpt>
      <trkpt lat="45.64668" lon="6.85144">
        <ele>1986.6</ele>
        <time>2021-05-27T12:32:08Z</time>
      </trkpt>
      <trkpt lat="45.64661" lon="6.85132">
        <ele>1986.2</ele>
        <time>2021-05-27T12:32:09Z</time>
      </trkpt>
      <trkpt lat="45.64653" lon="6.8512">
        <ele>1985.6</ele>
        <time>2021-05-27T12:32:10Z</time>
      </trkpt>
      <trkpt lat="45.64645" lon="6.85108">
        <ele>1985.4</ele>
        <time>2021-05-27T12:32:11Z</time>
      </trkpt>
      <trkpt lat="45.64638" lon="6.85097">
        <ele>1985.2</ele>
        <time>2021-05-27T12:32:12Z</time>
      </trkpt>
      <trkpt lat="45.6463" lon="6.85085">
        <ele>1984.6</ele>
        <time>2021-05-27T12:32:13Z</time>
      </trkpt>
      <trkpt lat="45.64622" lon="6.85074">
        <ele>1984.2</ele>
        <time>2021-05-27T12:32:14Z</time>
      </trkpt>
      <trkpt lat="45.64614" lon="6.85064">
        <ele>1983.8</ele>
        <time>2021-05-27T12:32:15Z</time>
      </trkpt>
      <trkpt lat="45.64605" lon="6.85053">
        <ele>1983.2</ele>
        <time>2021-05-27T12:32:16Z</time>
      </trkpt>
      <trkpt lat="45.64597" lon="6.85043">
        <ele>1982.4</ele>
        <time>2021-05-27T12:32:17Z</time>
      </trkpt>
      <trkpt lat="45.64588" lon="6.85033">
        <ele>1981.8</ele>
        <time>2021-05-27T12:32:18Z</time>
      </trkpt>
      <trkpt lat="45.6458" lon="6.85023">
        <ele>1981.6</ele>
        <time>2021-05-27T12:32:19Z</time>
      </trkpt>
      <trkpt lat="45.64572" lon="6.85012">
        <ele>1981.6</ele>
        <time>2021-05-27T12:32:20Z</time>
      </trkpt>
      <trkpt lat="45.64564" lon="6.85">
        <ele>1980.6</ele>
        <time>2021-05-27T12:32:21Z</time>
      </trkpt>
      <trkpt lat="45.64558" lon="6.84988">
        <ele>1980</ele>
        <time>2021-05-27T12:32:22Z</time>
      </trkpt>
      <trkpt lat="45.64552" lon="6.84976">
        <ele>1979.4</ele>
        <time>2021-05-27T12:32:23Z</time>
      </trkpt>
      <trkpt lat="45.64546" lon="6.84963">
        <ele>1978.6</ele>
        <time>2021-05-27T12:32:24Z</time>
      </trkpt>
      <trkpt lat="45.6454" lon="6.84952">
        <ele>1977.6</ele>
        <time>2021-05-27T12:32:25Z</time>
      </trkpt>
      <trkpt lat="45.64532" lon="6.8494">
        <ele>1977</ele>
        <time>2021-05-27T12:32:26Z</time>
      </trkpt>
      <trkpt lat="45.64523" lon="6.8493">
        <ele>1976</ele>
        <time>2021-05-27T12:32:27Z</time>
      </trkpt>
      <trkpt lat="45.64515" lon="6.84921">
        <ele>1975.6</ele>
        <time>2021-05-27T12:32:28Z</time>
      </trkpt>
      <trkpt lat="45.64506" lon="6.84911">
        <ele>1975</ele>
        <time>2021-05-27T12:32:29Z</time>
      </trkpt>
      <trkpt lat="45.64498" lon="6.84901">
        <ele>1975</ele>
        <time>2021-05-27T12:32:30Z</time>
      </trkpt>
      <trkpt lat="45.64491" lon="6.84889">
        <ele>1974.2</ele>
        <time>2021-05-27T12:32:31Z</time>
      </trkpt>
      <trkpt lat="45.64484" lon="6.84877">
        <ele>1973.4</ele>
        <time>2021-05-27T12:32:32Z</time>
      </trkpt>
      <trkpt lat="45.64477" lon="6.84864">
        <ele>1972.8</ele>
        <time>2021-05-27T12:32:33Z</time>
      </trkpt>
      <trkpt lat="45.64471" lon="6.84851">
        <ele>1972.2</ele>
        <time>2021-05-27T12:32:34Z</time>
      </trkpt>
      <trkpt lat="45.64465" lon="6.84838">
        <ele>1972.2</ele>
        <time>2021-05-27T12:32:35Z</time>
      </trkpt>
      <trkpt lat="45.64459" lon="6.84825">
        <ele>1971.4</ele>
        <time>2021-05-27T12:32:36Z</time>
      </trkpt>
      <trkpt lat="45.64452" lon="6.84814">
        <ele>1970.4</ele>
        <time>2021-05-27T12:32:37Z</time>
      </trkpt>
      <trkpt lat="45.64444" lon="6.84803">
        <ele>1969.6</ele>
        <time>2021-05-27T12:32:38Z</time>
      </trkpt>
      <trkpt lat="45.64435" lon="6.84793">
        <ele>1969</ele>
        <time>2021-05-27T12:32:39Z</time>
      </trkpt>
      <trkpt lat="45.64427" lon="6.84784">
        <ele>1968.2</ele>
        <time>2021-05-27T12:32:40Z</time>
      </trkpt>
      <trkpt lat="45.64417" lon="6.84776">
        <ele>1968</ele>
        <time>2021-05-27T12:32:41Z</time>
      </trkpt>
      <trkpt lat="45.64406" lon="6.8477">
        <ele>1967.4</ele>
        <time>2021-05-27T12:32:42Z</time>
      </trkpt>
      <trkpt lat="45.64396" lon="6.84766">
        <ele>1967</ele>
        <time>2021-05-27T12:32:43Z</time>
      </trkpt>
      <trkpt lat="45.64384" lon="6.84762">
        <ele>1966.6</ele>
        <time>2021-05-27T12:32:44Z</time>
      </trkpt>
      <trkpt lat="45.64374" lon="6.84757">
        <ele>1965.8</ele>
        <time>2021-05-27T12:32:45Z</time>
      </trkpt>
      <trkpt lat="45.64364" lon="6.8475">
        <ele>1965.8</ele>
        <time>2021-05-27T12:32:46Z</time>
      </trkpt>
      <trkpt lat="45.64354" lon="6.84742">
        <ele>1965.4</ele>
        <time>2021-05-27T12:32:47Z</time>
      </trkpt>
      <trkpt lat="45.64345" lon="6.84734">
        <ele>1965</ele>
        <time>2021-05-27T12:32:48Z</time>
      </trkpt>
      <trkpt lat="45.64335" lon="6.84724">
        <ele>1965</ele>
        <time>2021-05-27T12:32:49Z</time>
      </trkpt>
      <trkpt lat="45.64326" lon="6.84714">
        <ele>1964</ele>
        <time>2021-05-27T12:32:50Z</time>
      </trkpt>
      <trkpt lat="45.64317" lon="6.84703">
        <ele>1963.8</ele>
        <time>2021-05-27T12:32:51Z</time>
      </trkpt>
      <trkpt lat="45.64309" lon="6.84692">
        <ele>1962.8</ele>
        <time>2021-05-27T12:32:52Z</time>
      </trkpt>
      <trkpt lat="45.64301" lon="6.84679">
        <ele>1962</ele>
        <time>2021-05-27T12:32:53Z</time>
      </trkpt>
      <trkpt lat="45.64294" lon="6.84666">
        <ele>1961.2</ele>
        <time>2021-05-27T12:32:54Z</time>
      </trkpt>
      <trkpt lat="45.64286" lon="6.84654">
        <ele>1960.6</ele>
        <time>2021-05-27T12:32:55Z</time>
      </trkpt>
      <trkpt lat="45.64278" lon="6.84642">
        <ele>1959.6</ele>
        <time>2021-05-27T12:32:56Z</time>
      </trkpt>
      <trkpt lat="45.6427" lon="6.84629">
        <ele>1958.6</ele>
        <time>2021-05-27T12:32:57Z</time>
      </trkpt>
      <trkpt lat="45.64263" lon="6.84618">
        <ele>1958.6</ele>
        <time>2021-05-27T12:32:58Z</time>
      </trkpt>
      <trkpt lat="45.64255" lon="6.84606">
        <ele>1957.8</ele>
        <time>2021-05-27T12:32:59Z</time>
      </trkpt>
      <trkpt lat="45.64247" lon="6.84595">
        <ele>1957.8</ele>
        <time>2021-05-27T12:33:00Z</time>
      </trkpt>
      <trkpt lat="45.6424" lon="6.84585">
        <ele>1957.2</ele>
        <time>2021-05-27T12:33:01Z</time>
      </trkpt>
      <trkpt lat="45.64233" lon="6.84574">
        <ele>1956.6</ele>
        <time>2021-05-27T12:33:02Z</time>
      </trkpt>
      <trkpt lat="45.64225" lon="6.84563">
        <ele>1956.8</ele>
        <time>2021-05-27T12:33:03Z</time>
      </trkpt>
      <trkpt lat="45.64218" lon="6.84552">
        <ele>1955.8</ele>
        <time>2021-05-27T12:33:04Z</time>
      </trkpt>
      <trkpt lat="45.64212" lon="6.84541">
        <ele>1955</ele>
        <time>2021-05-27T12:33:05Z</time>
      </trkpt>
      <trkpt lat="45.64206" lon="6.84529">
        <ele>1954.8</ele>
        <time>2021-05-27T12:33:06Z</time>
      </trkpt>
      <trkpt lat="45.64201" lon="6.84516">
        <ele>1954</ele>
        <time>2021-05-27T12:33:07Z</time>
      </trkpt>
      <trkpt lat="45.64196" lon="6.84503">
        <ele>1953.6</ele>
        <time>2021-05-27T12:33:08Z</time>
      </trkpt>
      <trkpt lat="45.64193" lon="6.8449">
        <ele>1952.8</ele>
        <time>2021-05-27T12:33:09Z</time>
      </trkpt>
      <trkpt lat="45.64189" lon="6.84476">
        <ele>1952.6</ele>
        <time>2021-05-27T12:33:10Z</time>
      </trkpt>
      <trkpt lat="45.64185" lon="6.84462">
        <ele>1952.6</ele>
        <time>2021-05-27T12:33:11Z</time>
      </trkpt>
      <trkpt lat="45.64181" lon="6.84449">
        <ele>1951.8</ele>
        <time>2021-05-27T12:33:12Z</time>
      </trkpt>
      <trkpt lat="45.64177" lon="6.84438">
        <ele>1951</ele>
        <time>2021-05-27T12:33:13Z</time>
      </trkpt>
      <trkpt lat="45.64171" lon="6.84429">
        <ele>1950.4</ele>
        <time>2021-05-27T12:33:14Z</time>
      </trkpt>
      <trkpt lat="45.64163" lon="6.84424">
        <ele>1949.4</ele>
        <time>2021-05-27T12:33:15Z</time>
      </trkpt>
      <trkpt lat="45.64156" lon="6.84422">
        <ele>1948.4</ele>
        <time>2021-05-27T12:33:16Z</time>
      </trkpt>
      <trkpt lat="45.64147" lon="6.84424">
        <ele>1947.6</ele>
        <time>2021-05-27T12:33:17Z</time>
      </trkpt>
      <trkpt lat="45.64139" lon="6.84429">
        <ele>1946.8</ele>
        <time>2021-05-27T12:33:18Z</time>
      </trkpt>
      <trkpt lat="45.6413" lon="6.84436">
        <ele>1946</ele>
        <time>2021-05-27T12:33:19Z</time>
      </trkpt>
      <trkpt lat="45.64121" lon="6.84445">
        <ele>1945.6</ele>
        <time>2021-05-27T12:33:20Z</time>
      </trkpt>
      <trkpt lat="45.64113" lon="6.84455">
        <ele>1945</ele>
        <time>2021-05-27T12:33:21Z</time>
      </trkpt>
      <trkpt lat="45.64104" lon="6.84464">
        <ele>1944.4</ele>
        <time>2021-05-27T12:33:22Z</time>
      </trkpt>
      <trkpt lat="45.64096" lon="6.84474">
        <ele>1944</ele>
        <time>2021-05-27T12:33:23Z</time>
      </trkpt>
      <trkpt lat="45.64088" lon="6.84484">
        <ele>1943.4</ele>
        <time>2021-05-27T12:33:24Z</time>
      </trkpt>
      <trkpt lat="45.64079" lon="6.84492">
        <ele>1943</ele>
        <time>2021-05-27T12:33:25Z</time>
      </trkpt>
      <trkpt lat="45.6407" lon="6.84502">
        <ele>1942.6</ele>
        <time>2021-05-27T12:33:26Z</time>
      </trkpt>
      <trkpt lat="45.64062" lon="6.8451">
        <ele>1941.6</ele>
        <time>2021-05-27T12:33:27Z</time>
      </trkpt>
      <trkpt lat="45.64052" lon="6.84518">
        <ele>1940.8</ele>
        <time>2021-05-27T12:33:28Z</time>
      </trkpt>
      <trkpt lat="45.64042" lon="6.84524">
        <ele>1940.8</ele>
        <time>2021-05-27T12:33:29Z</time>
      </trkpt>
      <trkpt lat="45.64032" lon="6.8453">
        <ele>1940.4</ele>
        <time>2021-05-27T12:33:30Z</time>
      </trkpt>
      <trkpt lat="45.64022" lon="6.84537">
        <ele>1939.4</ele>
        <time>2021-05-27T12:33:31Z</time>
      </trkpt>
      <trkpt lat="45.64012" lon="6.84544">
        <ele>1939</ele>
        <time>2021-05-27T12:33:32Z</time>
      </trkpt>
      <trkpt lat="45.64003" lon="6.84552">
        <ele>1938.6</ele>
        <time>2021-05-27T12:33:33Z</time>
      </trkpt>
      <trkpt lat="45.63993" lon="6.84561">
        <ele>1937.8</ele>
        <time>2021-05-27T12:33:34Z</time>
      </trkpt>
      <trkpt lat="45.63984" lon="6.8457">
        <ele>1937.6</ele>
        <time>2021-05-27T12:33:35Z</time>
      </trkpt>
      <trkpt lat="45.63974" lon="6.8458">
        <ele>1937</ele>
        <time>2021-05-27T12:33:36Z</time>
      </trkpt>
      <trkpt lat="45.63965" lon="6.84589">
        <ele>1936.4</ele>
        <time>2021-05-27T12:33:37Z</time>
      </trkpt>
      <trkpt lat="45.63957" lon="6.846">
        <ele>1936</ele>
        <time>2021-05-27T12:33:38Z</time>
      </trkpt>
      <trkpt lat="45.63949" lon="6.84611">
        <ele>1935.4</ele>
        <time>2021-05-27T12:33:39Z</time>
      </trkpt>
      <trkpt lat="45.6394" lon="6.84622">
        <ele>1934.6</ele>
        <time>2021-05-27T12:33:40Z</time>
      </trkpt>
      <trkpt lat="45.63931" lon="6.84632">
        <ele>1933.8</ele>
        <time>2021-05-27T12:33:41Z</time>
      </trkpt>
      <trkpt lat="45.63921" lon="6.84641">
        <ele>1933.4</ele>
        <time>2021-05-27T12:33:42Z</time>
      </trkpt>
      <trkpt lat="45.63911" lon="6.84648">
        <ele>1932.6</ele>
        <time>2021-05-27T12:33:43Z</time>
      </trkpt>
      <trkpt lat="45.639" lon="6.84653">
        <ele>1932</ele>
        <time>2021-05-27T12:33:44Z</time>
      </trkpt>
      <trkpt lat="45.6389" lon="6.84657">
        <ele>1931.6</ele>
        <time>2021-05-27T12:33:45Z</time>
      </trkpt>
      <trkpt lat="45.63879" lon="6.84662">
        <ele>1931.2</ele>
        <time>2021-05-27T12:33:46Z</time>
      </trkpt>
      <trkpt lat="45.63868" lon="6.84666">
        <ele>1931.2</ele>
        <time>2021-05-27T12:33:47Z</time>
      </trkpt>
      <trkpt lat="45.63857" lon="6.84669">
        <ele>1930.4</ele>
        <time>2021-05-27T12:33:48Z</time>
      </trkpt>
      <trkpt lat="45.63846" lon="6.84671">
        <ele>1929.6</ele>
        <time>2021-05-27T12:33:49Z</time>
      </trkpt>
      <trkpt lat="45.63834" lon="6.84671">
        <ele>1929.4</ele>
        <time>2021-05-27T12:33:50Z</time>
      </trkpt>
      <trkpt lat="45.63823" lon="6.84672">
        <ele>1928.4</ele>
        <time>2021-05-27T12:33:51Z</time>
      </trkpt>
      <trkpt lat="45.63812" lon="6.84674">
        <ele>1927.8</ele>
        <time>2021-05-27T12:33:52Z</time>
      </trkpt>
      <trkpt lat="45.63801" lon="6.84678">
        <ele>1927.2</ele>
        <time>2021-05-27T12:33:53Z</time>
      </trkpt>
      <trkpt lat="45.63791" lon="6.84683">
        <ele>1927</ele>
        <time>2021-05-27T12:33:54Z</time>
      </trkpt>
      <trkpt lat="45.63782" lon="6.84691">
        <ele>1926.2</ele>
        <time>2021-05-27T12:33:55Z</time>
      </trkpt>
      <trkpt lat="45.63774" lon="6.84701">
        <ele>1925.4</ele>
        <time>2021-05-27T12:33:56Z</time>
      </trkpt>
      <trkpt lat="45.63769" lon="6.84712">
        <ele>1924.8</ele>
        <time>2021-05-27T12:33:57Z</time>
      </trkpt>
      <trkpt lat="45.63765" lon="6.84725">
        <ele>1924.2</ele>
        <time>2021-05-27T12:33:58Z</time>
      </trkpt>
      <trkpt lat="45.63764" lon="6.84739">
        <ele>1923.8</ele>
        <time>2021-05-27T12:33:59Z</time>
      </trkpt>
      <trkpt lat="45.63762" lon="6.84754">
        <ele>1924</ele>
        <time>2021-05-27T12:34:00Z</time>
      </trkpt>
      <trkpt lat="45.63761" lon="6.84768">
        <ele>1923.6</ele>
        <time>2021-05-27T12:34:01Z</time>
      </trkpt>
      <trkpt lat="45.6376" lon="6.84783">
        <ele>1923.2</ele>
        <time>2021-05-27T12:34:02Z</time>
      </trkpt>
      <trkpt lat="45.63759" lon="6.84799">
        <ele>1922.4</ele>
        <time>2021-05-27T12:34:03Z</time>
      </trkpt>
      <trkpt lat="45.63757" lon="6.84813">
        <ele>1922</ele>
        <time>2021-05-27T12:34:04Z</time>
      </trkpt>
      <trkpt lat="45.63754" lon="6.84828">
        <ele>1921.4</ele>
        <time>2021-05-27T12:34:05Z</time>
      </trkpt>
      <trkpt lat="45.6375" lon="6.84842">
        <ele>1920.2</ele>
        <time>2021-05-27T12:34:06Z</time>
      </trkpt>
      <trkpt lat="45.63745" lon="6.84855">
        <ele>1919.8</ele>
        <time>2021-05-27T12:34:07Z</time>
      </trkpt>
      <trkpt lat="45.63739" lon="6.84868">
        <ele>1919.4</ele>
        <time>2021-05-27T12:34:08Z</time>
      </trkpt>
      <trkpt lat="45.63732" lon="6.8488">
        <ele>1919</ele>
        <time>2021-05-27T12:34:09Z</time>
      </trkpt>
      <trkpt lat="45.63726" lon="6.84893">
        <ele>1918.2</ele>
        <time>2021-05-27T12:34:10Z</time>
      </trkpt>
      <trkpt lat="45.6372" lon="6.84905">
        <ele>1917</ele>
        <time>2021-05-27T12:34:11Z</time>
      </trkpt>
      <trkpt lat="45.63713" lon="6.84918">
        <ele>1915.8</ele>
        <time>2021-05-27T12:34:12Z</time>
      </trkpt>
      <trkpt lat="45.63707" lon="6.8493">
        <ele>1914.8</ele>
        <time>2021-05-27T12:34:13Z</time>
      </trkpt>
      <trkpt lat="45.63699" lon="6.8494">
        <ele>1914.4</ele>
        <time>2021-05-27T12:34:14Z</time>
      </trkpt>
      <trkpt lat="45.6369" lon="6.8495">
        <ele>1913.8</ele>
        <time>2021-05-27T12:34:15Z</time>
      </trkpt>
      <trkpt lat="45.63681" lon="6.84959">
        <ele>1911.6</ele>
        <time>2021-05-27T12:34:16Z</time>
      </trkpt>
      <trkpt lat="45.63671" lon="6.84968">
        <ele>1908.4</ele>
        <time>2021-05-27T12:34:17Z</time>
      </trkpt>
      <trkpt lat="45.63663" lon="6.84976">
        <ele>1907.2</ele>
        <time>2021-05-27T12:34:18Z</time>
      </trkpt>
      <trkpt lat="45.63654" lon="6.84985">
        <ele>1906.8</ele>
        <time>2021-05-27T12:34:19Z</time>
      </trkpt>
      <trkpt lat="45.63645" lon="6.84994">
        <ele>1906.2</ele>
        <time>2021-05-27T12:34:20Z</time>
      </trkpt>
      <trkpt lat="45.63637" lon="6.85004">
        <ele>1907</ele>
        <time>2021-05-27T12:34:21Z</time>
      </trkpt>
      <trkpt lat="45.63629" lon="6.85014">
        <ele>1906.2</ele>
        <time>2021-05-27T12:34:22Z</time>
      </trkpt>
      <trkpt lat="45.63621" lon="6.85023">
        <ele>1906.4</ele>
        <time>2021-05-27T12:34:23Z</time>
      </trkpt>
      <trkpt lat="45.63613" lon="6.85032">
        <ele>1907</ele>
        <time>2021-05-27T12:34:24Z</time>
      </trkpt>
      <trkpt lat="45.63606" lon="6.85041">
        <ele>1906.4</ele>
        <time>2021-05-27T12:34:25Z</time>
      </trkpt>
      <trkpt lat="45.63598" lon="6.85048">
        <ele>1906.2</ele>
        <time>2021-05-27T12:34:26Z</time>
      </trkpt>
      <trkpt lat="45.63589" lon="6.85052">
        <ele>1905.4</ele>
        <time>2021-05-27T12:34:27Z</time>
      </trkpt>
      <trkpt lat="45.6358" lon="6.85053">
        <ele>1905.2</ele>
        <time>2021-05-27T12:34:28Z</time>
      </trkpt>
      <trkpt lat="45.63571" lon="6.85051">
        <ele>1905</ele>
        <time>2021-05-27T12:34:29Z</time>
      </trkpt>
      <trkpt lat="45.63562" lon="6.85047">
        <ele>1904.6</ele>
        <time>2021-05-27T12:34:30Z</time>
      </trkpt>
      <trkpt lat="45.63553" lon="6.85043">
        <ele>1903.8</ele>
        <time>2021-05-27T12:34:31Z</time>
      </trkpt>
      <trkpt lat="45.63544" lon="6.85039">
        <ele>1903.4</ele>
        <time>2021-05-27T12:34:32Z</time>
      </trkpt>
      <trkpt lat="45.63534" lon="6.85036">
        <ele>1903.4</ele>
        <time>2021-05-27T12:34:33Z</time>
      </trkpt>
      <trkpt lat="45.63525" lon="6.85032">
        <ele>1904</ele>
        <time>2021-05-27T12:34:34Z</time>
      </trkpt>
      <trkpt lat="45.63516" lon="6.85028">
        <ele>1903</ele>
        <time>2021-05-27T12:34:35Z</time>
      </trkpt>
      <trkpt lat="45.63506" lon="6.85023">
        <ele>1902.6</ele>
        <time>2021-05-27T12:34:36Z</time>
      </trkpt>
      <trkpt lat="45.63497" lon="6.85018">
        <ele>1902.2</ele>
        <time>2021-05-27T12:34:37Z</time>
      </trkpt>
      <trkpt lat="45.63488" lon="6.8501">
        <ele>1901.4</ele>
        <time>2021-05-27T12:34:38Z</time>
      </trkpt>
      <trkpt lat="45.6348" lon="6.85001">
        <ele>1901</ele>
        <time>2021-05-27T12:34:39Z</time>
      </trkpt>
      <trkpt lat="45.63473" lon="6.8499">
        <ele>1900.8</ele>
        <time>2021-05-27T12:34:40Z</time>
      </trkpt>
      <trkpt lat="45.63468" lon="6.84977">
        <ele>1900.2</ele>
        <time>2021-05-27T12:34:41Z</time>
      </trkpt>
      <trkpt lat="45.63462" lon="6.84964">
        <ele>1899.8</ele>
        <time>2021-05-27T12:34:42Z</time>
      </trkpt>
      <trkpt lat="45.63456" lon="6.84952">
        <ele>1899.2</ele>
        <time>2021-05-27T12:34:43Z</time>
      </trkpt>
      <trkpt lat="45.63449" lon="6.8494">
        <ele>1898.6</ele>
        <time>2021-05-27T12:34:44Z</time>
      </trkpt>
      <trkpt lat="45.63441" lon="6.84931">
        <ele>1898</ele>
        <time>2021-05-27T12:34:45Z</time>
      </trkpt>
      <trkpt lat="45.63432" lon="6.84924">
        <ele>1897.4</ele>
        <time>2021-05-27T12:34:46Z</time>
      </trkpt>
      <trkpt lat="45.63422" lon="6.84919">
        <ele>1897</ele>
        <time>2021-05-27T12:34:47Z</time>
      </trkpt>
      <trkpt lat="45.63412" lon="6.84915">
        <ele>1896.6</ele>
        <time>2021-05-27T12:34:48Z</time>
      </trkpt>
      <trkpt lat="45.63403" lon="6.84913">
        <ele>1896.4</ele>
        <time>2021-05-27T12:34:49Z</time>
      </trkpt>
      <trkpt lat="45.63392" lon="6.84911">
        <ele>1895.8</ele>
        <time>2021-05-27T12:34:50Z</time>
      </trkpt>
      <trkpt lat="45.63382" lon="6.8491">
        <ele>1895.4</ele>
        <time>2021-05-27T12:34:51Z</time>
      </trkpt>
      <trkpt lat="45.63372" lon="6.84909">
        <ele>1894.8</ele>
        <time>2021-05-27T12:34:52Z</time>
      </trkpt>
      <trkpt lat="45.63361" lon="6.84908">
        <ele>1894</ele>
        <time>2021-05-27T12:34:53Z</time>
      </trkpt>
      <trkpt lat="45.63351" lon="6.84907">
        <ele>1893.4</ele>
        <time>2021-05-27T12:34:54Z</time>
      </trkpt>
      <trkpt lat="45.6334" lon="6.84907">
        <ele>1892.4</ele>
        <time>2021-05-27T12:34:55Z</time>
      </trkpt>
      <trkpt lat="45.6333" lon="6.84907">
        <ele>1891.6</ele>
        <time>2021-05-27T12:34:56Z</time>
      </trkpt>
      <trkpt lat="45.63319" lon="6.84908">
        <ele>1891.2</ele>
        <time>2021-05-27T12:34:57Z</time>
      </trkpt>
      <trkpt lat="45.63309" lon="6.84909">
        <ele>1890.6</ele>
        <time>2021-05-27T12:34:58Z</time>
      </trkpt>
      <trkpt lat="45.63299" lon="6.84909">
        <ele>1890.2</ele>
        <time>2021-05-27T12:34:59Z</time>
      </trkpt>
      <trkpt lat="45.63288" lon="6.84908">
        <ele>1889.4</ele>
        <time>2021-05-27T12:35:00Z</time>
      </trkpt>
      <trkpt lat="45.63277" lon="6.84905">
        <ele>1888.8</ele>
        <time>2021-05-27T12:35:01Z</time>
      </trkpt>
      <trkpt lat="45.63267" lon="6.84902">
        <ele>1888.2</ele>
        <time>2021-05-27T12:35:02Z</time>
      </trkpt>
      <trkpt lat="45.63256" lon="6.84897">
        <ele>1887.6</ele>
        <time>2021-05-27T12:35:03Z</time>
      </trkpt>
      <trkpt lat="45.63246" lon="6.84891">
        <ele>1887</ele>
        <time>2021-05-27T12:35:04Z</time>
      </trkpt>
      <trkpt lat="45.63236" lon="6.84883">
        <ele>1886.8</ele>
        <time>2021-05-27T12:35:05Z</time>
      </trkpt>
      <trkpt lat="45.63228" lon="6.84875">
        <ele>1886.2</ele>
        <time>2021-05-27T12:35:06Z</time>
      </trkpt>
      <trkpt lat="45.6322" lon="6.84865">
        <ele>1885.4</ele>
        <time>2021-05-27T12:35:07Z</time>
      </trkpt>
      <trkpt lat="45.63212" lon="6.84855">
        <ele>1884.8</ele>
        <time>2021-05-27T12:35:08Z</time>
      </trkpt>
      <trkpt lat="45.63205" lon="6.84844">
        <ele>1884.6</ele>
        <time>2021-05-27T12:35:09Z</time>
      </trkpt>
      <trkpt lat="45.63198" lon="6.84833">
        <ele>1884</ele>
        <time>2021-05-27T12:35:10Z</time>
      </trkpt>
      <trkpt lat="45.63191" lon="6.84822">
        <ele>1883.2</ele>
        <time>2021-05-27T12:35:11Z</time>
      </trkpt>
      <trkpt lat="45.63183" lon="6.84812">
        <ele>1883</ele>
        <time>2021-05-27T12:35:12Z</time>
      </trkpt>
      <trkpt lat="45.63175" lon="6.84804">
        <ele>1882.6</ele>
        <time>2021-05-27T12:35:13Z</time>
      </trkpt>
      <trkpt lat="45.63166" lon="6.84795">
        <ele>1882.2</ele>
        <time>2021-05-27T12:35:14Z</time>
      </trkpt>
      <trkpt lat="45.63157" lon="6.84788">
        <ele>1881.4</ele>
        <time>2021-05-27T12:35:15Z</time>
      </trkpt>
      <trkpt lat="45.63148" lon="6.84781">
        <ele>1881</ele>
        <time>2021-05-27T12:35:16Z</time>
      </trkpt>
      <trkpt lat="45.63139" lon="6.84774">
        <ele>1880.6</ele>
        <time>2021-05-27T12:35:17Z</time>
      </trkpt>
      <trkpt lat="45.63129" lon="6.84765">
        <ele>1879.8</ele>
        <time>2021-05-27T12:35:18Z</time>
      </trkpt>
      <trkpt lat="45.63121" lon="6.84756">
        <ele>1878.8</ele>
        <time>2021-05-27T12:35:19Z</time>
      </trkpt>
      <trkpt lat="45.63113" lon="6.84746">
        <ele>1878.4</ele>
        <time>2021-05-27T12:35:20Z</time>
      </trkpt>
      <trkpt lat="45.63104" lon="6.84737">
        <ele>1877.8</ele>
        <time>2021-05-27T12:35:21Z</time>
      </trkpt>
      <trkpt lat="45.63095" lon="6.84729">
        <ele>1877.2</ele>
        <time>2021-05-27T12:35:22Z</time>
      </trkpt>
      <trkpt lat="45.63085" lon="6.84722">
        <ele>1876.6</ele>
        <time>2021-05-27T12:35:23Z</time>
      </trkpt>
      <trkpt lat="45.63076" lon="6.84716">
        <ele>1876.6</ele>
        <time>2021-05-27T12:35:24Z</time>
      </trkpt>
      <trkpt lat="45.63066" lon="6.8471">
        <ele>1875.8</ele>
        <time>2021-05-27T12:35:25Z</time>
      </trkpt>
      <trkpt lat="45.63057" lon="6.84703">
        <ele>1875.6</ele>
        <time>2021-05-27T12:35:26Z</time>
      </trkpt>
      <trkpt lat="45.63049" lon="6.84696">
        <ele>1874.8</ele>
        <time>2021-05-27T12:35:27Z</time>
      </trkpt>
      <trkpt lat="45.63043" lon="6.84687">
        <ele>1874.2</ele>
        <time>2021-05-27T12:35:28Z</time>
      </trkpt>
      <trkpt lat="45.63036" lon="6.84679">
        <ele>1873.8</ele>
        <time>2021-05-27T12:35:29Z</time>
      </trkpt>
      <trkpt lat="45.6303" lon="6.84671">
        <ele>1873</ele>
        <time>2021-05-27T12:35:30Z</time>
      </trkpt>
      <trkpt lat="45.63025" lon="6.84665">
        <ele>1872</ele>
        <time>2021-05-27T12:35:31Z</time>
      </trkpt>
      <trkpt lat="45.63019" lon="6.84661">
        <ele>1871.4</ele>
        <time>2021-05-27T12:35:32Z</time>
      </trkpt>
      <trkpt lat="45.63015" lon="6.84659">
        <ele>1870.6</ele>
        <time>2021-05-27T12:35:33Z</time>
      </trkpt>
      <trkpt lat="45.63012" lon="6.84658">
        <ele>1869.8</ele>
        <time>2021-05-27T12:35:34Z</time>
      </trkpt>
      <trkpt lat="45.6301" lon="6.84658">
        <ele>1869</ele>
        <time>2021-05-27T12:35:35Z</time>
      </trkpt>
      <trkpt lat="45.63008" lon="6.84658">
        <ele>1867.8</ele>
        <time>2021-05-27T12:35:38Z</time>
      </trkpt>
      <trkpt lat="45.63006" lon="6.84661">
        <ele>1867.2</ele>
        <time>2021-05-27T12:35:40Z</time>
      </trkpt>
      <trkpt lat="45.63004" lon="6.84664">
        <ele>1867.2</ele>
        <time>2021-05-27T12:35:41Z</time>
      </trkpt>
      <trkpt lat="45.63001" lon="6.84667">
        <ele>1867</ele>
        <time>2021-05-27T12:35:42Z</time>
      </trkpt>
      <trkpt lat="45.62999" lon="6.84671">
        <ele>1866.8</ele>
        <time>2021-05-27T12:35:43Z</time>
      </trkpt>
      <trkpt lat="45.62995" lon="6.84675">
        <ele>1866.8</ele>
        <time>2021-05-27T12:35:44Z</time>
      </trkpt>
      <trkpt lat="45.62992" lon="6.8468">
        <ele>1867</ele>
        <time>2021-05-27T12:35:45Z</time>
      </trkpt>
      <trkpt lat="45.62989" lon="6.84684">
        <ele>1866.8</ele>
        <time>2021-05-27T12:35:46Z</time>
      </trkpt>
      <trkpt lat="45.62985" lon="6.8469">
        <ele>1866.8</ele>
        <time>2021-05-27T12:35:47Z</time>
      </trkpt>
      <trkpt lat="45.62981" lon="6.84696">
        <ele>1866.4</ele>
        <time>2021-05-27T12:35:48Z</time>
      </trkpt>
      <trkpt lat="45.62976" lon="6.84702">
        <ele>1866.4</ele>
        <time>2021-05-27T12:35:49Z</time>
      </trkpt>
      <trkpt lat="45.62971" lon="6.84708">
        <ele>1866.2</ele>
        <time>2021-05-27T12:35:50Z</time>
      </trkpt>
      <trkpt lat="45.62966" lon="6.84713">
        <ele>1866</ele>
        <time>2021-05-27T12:35:51Z</time>
      </trkpt>
      <trkpt lat="45.62961" lon="6.84719">
        <ele>1865.6</ele>
        <time>2021-05-27T12:35:52Z</time>
      </trkpt>
      <trkpt lat="45.62956" lon="6.84725">
        <ele>1865</ele>
        <time>2021-05-27T12:35:53Z</time>
      </trkpt>
      <trkpt lat="45.62951" lon="6.84731">
        <ele>1864.4</ele>
        <time>2021-05-27T12:35:54Z</time>
      </trkpt>
      <trkpt lat="45.62946" lon="6.84738">
        <ele>1864.2</ele>
        <time>2021-05-27T12:35:55Z</time>
      </trkpt>
      <trkpt lat="45.6294" lon="6.84744">
        <ele>1863.8</ele>
        <time>2021-05-27T12:35:56Z</time>
      </trkpt>
      <trkpt lat="45.62934" lon="6.84751">
        <ele>1863.4</ele>
        <time>2021-05-27T12:35:57Z</time>
      </trkpt>
      <trkpt lat="45.62928" lon="6.84758">
        <ele>1863</ele>
        <time>2021-05-27T12:35:58Z</time>
      </trkpt>
      <trkpt lat="45.62923" lon="6.84765">
        <ele>1862.6</ele>
        <time>2021-05-27T12:35:59Z</time>
      </trkpt>
      <trkpt lat="45.62917" lon="6.84772">
        <ele>1862.2</ele>
        <time>2021-05-27T12:36:00Z</time>
      </trkpt>
      <trkpt lat="45.62911" lon="6.8478">
        <ele>1861.8</ele>
        <time>2021-05-27T12:36:01Z</time>
      </trkpt>
      <trkpt lat="45.62905" lon="6.84788">
        <ele>1861.6</ele>
        <time>2021-05-27T12:36:02Z</time>
      </trkpt>
      <trkpt lat="45.62898" lon="6.84795">
        <ele>1861.2</ele>
        <time>2021-05-27T12:36:03Z</time>
      </trkpt>
      <trkpt lat="45.62891" lon="6.84802">
        <ele>1861.2</ele>
        <time>2021-05-27T12:36:04Z</time>
      </trkpt>
      <trkpt lat="45.62884" lon="6.84808">
        <ele>1860.8</ele>
        <time>2021-05-27T12:36:05Z</time>
      </trkpt>
      <trkpt lat="45.62876" lon="6.84814">
        <ele>1860.4</ele>
        <time>2021-05-27T12:36:06Z</time>
      </trkpt>
      <trkpt lat="45.62867" lon="6.8482">
        <ele>1860.6</ele>
        <time>2021-05-27T12:36:07Z</time>
      </trkpt>
      <trkpt lat="45.62858" lon="6.84824">
        <ele>1860.6</ele>
        <time>2021-05-27T12:36:08Z</time>
      </trkpt>
      <trkpt lat="45.62849" lon="6.84828">
        <ele>1860.6</ele>
        <time>2021-05-27T12:36:09Z</time>
      </trkpt>
      <trkpt lat="45.62841" lon="6.84833">
        <ele>1860.2</ele>
        <time>2021-05-27T12:36:10Z</time>
      </trkpt>
      <trkpt lat="45.62831" lon="6.84837">
        <ele>1860.2</ele>
        <time>2021-05-27T12:36:11Z</time>
      </trkpt>
      <trkpt lat="45.62822" lon="6.84842">
        <ele>1860.4</ele>
        <time>2021-05-27T12:36:12Z</time>
      </trkpt>
      <trkpt lat="45.62813" lon="6.84847">
        <ele>1859.6</ele>
        <time>2021-05-27T12:36:13Z</time>
      </trkpt>
      <trkpt lat="45.62805" lon="6.84853">
        <ele>1859</ele>
        <time>2021-05-27T12:36:14Z</time>
      </trkpt>
      <trkpt lat="45.62797" lon="6.84859">
        <ele>1858.4</ele>
        <time>2021-05-27T12:36:15Z</time>
      </trkpt>
      <trkpt lat="45.62788" lon="6.84866">
        <ele>1857.8</ele>
        <time>2021-05-27T12:36:16Z</time>
      </trkpt>
      <trkpt lat="45.6278" lon="6.84874">
        <ele>1857</ele>
        <time>2021-05-27T12:36:17Z</time>
      </trkpt>
      <trkpt lat="45.62773" lon="6.84882">
        <ele>1856.2</ele>
        <time>2021-05-27T12:36:18Z</time>
      </trkpt>
      <trkpt lat="45.62765" lon="6.84892">
        <ele>1855.6</ele>
        <time>2021-05-27T12:36:19Z</time>
      </trkpt>
      <trkpt lat="45.62759" lon="6.84902">
        <ele>1855</ele>
        <time>2021-05-27T12:36:20Z</time>
      </trkpt>
      <trkpt lat="45.62753" lon="6.84912">
        <ele>1854.4</ele>
        <time>2021-05-27T12:36:21Z</time>
      </trkpt>
      <trkpt lat="45.62747" lon="6.8492">
        <ele>1853.8</ele>
        <time>2021-05-27T12:36:22Z</time>
      </trkpt>
      <trkpt lat="45.62742" lon="6.84929">
        <ele>1853</ele>
        <time>2021-05-27T12:36:23Z</time>
      </trkpt>
      <trkpt lat="45.62737" lon="6.84937">
        <ele>1852.8</ele>
        <time>2021-05-27T12:36:24Z</time>
      </trkpt>
      <trkpt lat="45.62732" lon="6.84945">
        <ele>1852.4</ele>
        <time>2021-05-27T12:36:25Z</time>
      </trkpt>
      <trkpt lat="45.62726" lon="6.84953">
        <ele>1852.2</ele>
        <time>2021-05-27T12:36:26Z</time>
      </trkpt>
      <trkpt lat="45.62721" lon="6.8496">
        <ele>1851.8</ele>
        <time>2021-05-27T12:36:27Z</time>
      </trkpt>
      <trkpt lat="45.62714" lon="6.84966">
        <ele>1851.8</ele>
        <time>2021-05-27T12:36:28Z</time>
      </trkpt>
      <trkpt lat="45.62708" lon="6.84972">
        <ele>1851.6</ele>
        <time>2021-05-27T12:36:29Z</time>
      </trkpt>
      <trkpt lat="45.62701" lon="6.84978">
        <ele>1850.8</ele>
        <time>2021-05-27T12:36:30Z</time>
      </trkpt>
      <trkpt lat="45.62694" lon="6.84985">
        <ele>1850.8</ele>
        <time>2021-05-27T12:36:31Z</time>
      </trkpt>
      <trkpt lat="45.62688" lon="6.84993">
        <ele>1850.4</ele>
        <time>2021-05-27T12:36:32Z</time>
      </trkpt>
      <trkpt lat="45.62683" lon="6.85001">
        <ele>1850.4</ele>
        <time>2021-05-27T12:36:33Z</time>
      </trkpt>
      <trkpt lat="45.62678" lon="6.8501">
        <ele>1850.8</ele>
        <time>2021-05-27T12:36:34Z</time>
      </trkpt>
      <trkpt lat="45.62675" lon="6.85019">
        <ele>1851.6</ele>
        <time>2021-05-27T12:36:35Z</time>
      </trkpt>
      <trkpt lat="45.62673" lon="6.8503">
        <ele>1851.4</ele>
        <time>2021-05-27T12:36:36Z</time>
      </trkpt>
      <trkpt lat="45.6267" lon="6.8504">
        <ele>1851</ele>
        <time>2021-05-27T12:36:37Z</time>
      </trkpt>
      <trkpt lat="45.62666" lon="6.8505">
        <ele>1850.8</ele>
        <time>2021-05-27T12:36:38Z</time>
      </trkpt>
      <trkpt lat="45.62661" lon="6.8506">
        <ele>1850.2</ele>
        <time>2021-05-27T12:36:39Z</time>
      </trkpt>
      <trkpt lat="45.62656" lon="6.85069">
        <ele>1850</ele>
        <time>2021-05-27T12:36:40Z</time>
      </trkpt>
      <trkpt lat="45.6265" lon="6.85078">
        <ele>1849.6</ele>
        <time>2021-05-27T12:36:41Z</time>
      </trkpt>
      <trkpt lat="45.62644" lon="6.85086">
        <ele>1849.2</ele>
        <time>2021-05-27T12:36:42Z</time>
      </trkpt>
      <trkpt lat="45.62638" lon="6.85094">
        <ele>1849</ele>
        <time>2021-05-27T12:36:43Z</time>
      </trkpt>
      <trkpt lat="45.62632" lon="6.85102">
        <ele>1848.8</ele>
        <time>2021-05-27T12:36:44Z</time>
      </trkpt>
      <trkpt lat="45.62626" lon="6.8511">
        <ele>1848.4</ele>
        <time>2021-05-27T12:36:45Z</time>
      </trkpt>
      <trkpt lat="45.6262" lon="6.85119">
        <ele>1848.2</ele>
        <time>2021-05-27T12:36:46Z</time>
      </trkpt>
      <trkpt lat="45.62616" lon="6.85129">
        <ele>1848</ele>
        <time>2021-05-27T12:36:47Z</time>
      </trkpt>
      <trkpt lat="45.62612" lon="6.85139">
        <ele>1848</ele>
        <time>2021-05-27T12:36:48Z</time>
      </trkpt>
      <trkpt lat="45.62607" lon="6.8515">
        <ele>1847.8</ele>
        <time>2021-05-27T12:36:49Z</time>
      </trkpt>
      <trkpt lat="45.62604" lon="6.85162">
        <ele>1847.4</ele>
        <time>2021-05-27T12:36:50Z</time>
      </trkpt>
      <trkpt lat="45.626" lon="6.85173">
        <ele>1847.2</ele>
        <time>2021-05-27T12:36:51Z</time>
      </trkpt>
      <trkpt lat="45.62596" lon="6.85185">
        <ele>1847.2</ele>
        <time>2021-05-27T12:36:52Z</time>
      </trkpt>
      <trkpt lat="45.62592" lon="6.85198">
        <ele>1847.2</ele>
        <time>2021-05-27T12:36:53Z</time>
      </trkpt>
      <trkpt lat="45.62588" lon="6.8521">
        <ele>1846.4</ele>
        <time>2021-05-27T12:36:54Z</time>
      </trkpt>
      <trkpt lat="45.62586" lon="6.85224">
        <ele>1846.2</ele>
        <time>2021-05-27T12:36:55Z</time>
      </trkpt>
      <trkpt lat="45.62582" lon="6.85238">
        <ele>1845.8</ele>
        <time>2021-05-27T12:36:56Z</time>
      </trkpt>
      <trkpt lat="45.6258" lon="6.85252">
        <ele>1845.4</ele>
        <time>2021-05-27T12:36:57Z</time>
      </trkpt>
      <trkpt lat="45.62579" lon="6.85266">
        <ele>1844.8</ele>
        <time>2021-05-27T12:36:58Z</time>
      </trkpt>
      <trkpt lat="45.62578" lon="6.85281">
        <ele>1844.4</ele>
        <time>2021-05-27T12:36:59Z</time>
      </trkpt>
      <trkpt lat="45.62577" lon="6.85296">
        <ele>1844</ele>
        <time>2021-05-27T12:37:00Z</time>
      </trkpt>
      <trkpt lat="45.62576" lon="6.85311">
        <ele>1843.2</ele>
        <time>2021-05-27T12:37:01Z</time>
      </trkpt>
      <trkpt lat="45.62576" lon="6.85326">
        <ele>1843</ele>
        <time>2021-05-27T12:37:02Z</time>
      </trkpt>
      <trkpt lat="45.62576" lon="6.85341">
        <ele>1843</ele>
        <time>2021-05-27T12:37:03Z</time>
      </trkpt>
      <trkpt lat="45.62575" lon="6.85355">
        <ele>1842.6</ele>
        <time>2021-05-27T12:37:04Z</time>
      </trkpt>
      <trkpt lat="45.62575" lon="6.8537">
        <ele>1842</ele>
        <time>2021-05-27T12:37:05Z</time>
      </trkpt>
      <trkpt lat="45.62574" lon="6.85384">
        <ele>1841.6</ele>
        <time>2021-05-27T12:37:06Z</time>
      </trkpt>
      <trkpt lat="45.62572" lon="6.85399">
        <ele>1841</ele>
        <time>2021-05-27T12:37:07Z</time>
      </trkpt>
      <trkpt lat="45.6257" lon="6.85414">
        <ele>1840.6</ele>
        <time>2021-05-27T12:37:08Z</time>
      </trkpt>
      <trkpt lat="45.62569" lon="6.85429">
        <ele>1840</ele>
        <time>2021-05-27T12:37:09Z</time>
      </trkpt>
      <trkpt lat="45.62568" lon="6.85445">
        <ele>1839.8</ele>
        <time>2021-05-27T12:37:10Z</time>
      </trkpt>
      <trkpt lat="45.62566" lon="6.8546">
        <ele>1839.6</ele>
        <time>2021-05-27T12:37:11Z</time>
      </trkpt>
      <trkpt lat="45.62566" lon="6.85476">
        <ele>1839.8</ele>
        <time>2021-05-27T12:37:12Z</time>
      </trkpt>
      <trkpt lat="45.62566" lon="6.85491">
        <ele>1838.8</ele>
        <time>2021-05-27T12:37:13Z</time>
      </trkpt>
      <trkpt lat="45.62564" lon="6.85506">
        <ele>1837.4</ele>
        <time>2021-05-27T12:37:14Z</time>
      </trkpt>
      <trkpt lat="45.62562" lon="6.85519">
        <ele>1836.8</ele>
        <time>2021-05-27T12:37:15Z</time>
      </trkpt>
      <trkpt lat="45.62558" lon="6.8553">
        <ele>1836</ele>
        <time>2021-05-27T12:37:16Z</time>
      </trkpt>
      <trkpt lat="45.62553" lon="6.85541">
        <ele>1835.4</ele>
        <time>2021-05-27T12:37:17Z</time>
      </trkpt>
      <trkpt lat="45.62547" lon="6.85552">
        <ele>1835.2</ele>
        <time>2021-05-27T12:37:18Z</time>
      </trkpt>
      <trkpt lat="45.62541" lon="6.85562">
        <ele>1834.8</ele>
        <time>2021-05-27T12:37:19Z</time>
      </trkpt>
      <trkpt lat="45.62537" lon="6.85573">
        <ele>1834.4</ele>
        <time>2021-05-27T12:37:20Z</time>
      </trkpt>
      <trkpt lat="45.62532" lon="6.85584">
        <ele>1834.2</ele>
        <time>2021-05-27T12:37:21Z</time>
      </trkpt>
      <trkpt lat="45.62527" lon="6.85596">
        <ele>1833.4</ele>
        <time>2021-05-27T12:37:22Z</time>
      </trkpt>
      <trkpt lat="45.62522" lon="6.85608">
        <ele>1832.6</ele>
        <time>2021-05-27T12:37:23Z</time>
      </trkpt>
      <trkpt lat="45.62517" lon="6.8562">
        <ele>1832</ele>
        <time>2021-05-27T12:37:24Z</time>
      </trkpt>
      <trkpt lat="45.62512" lon="6.85632">
        <ele>1832.2</ele>
        <time>2021-05-27T12:37:25Z</time>
      </trkpt>
      <trkpt lat="45.62508" lon="6.85644">
        <ele>1832</ele>
        <time>2021-05-27T12:37:26Z</time>
      </trkpt>
      <trkpt lat="45.62502" lon="6.85656">
        <ele>1831.6</ele>
        <time>2021-05-27T12:37:27Z</time>
      </trkpt>
      <trkpt lat="45.62497" lon="6.85669">
        <ele>1831.4</ele>
        <time>2021-05-27T12:37:28Z</time>
      </trkpt>
      <trkpt lat="45.62491" lon="6.85681">
        <ele>1830.8</ele>
        <time>2021-05-27T12:37:29Z</time>
      </trkpt>
      <trkpt lat="45.62483" lon="6.85692">
        <ele>1829.8</ele>
        <time>2021-05-27T12:37:30Z</time>
      </trkpt>
      <trkpt lat="45.62476" lon="6.85702">
        <ele>1829</ele>
        <time>2021-05-27T12:37:31Z</time>
      </trkpt>
      <trkpt lat="45.62467" lon="6.85712">
        <ele>1828.2</ele>
        <time>2021-05-27T12:37:32Z</time>
      </trkpt>
      <trkpt lat="45.62459" lon="6.85721">
        <ele>1827.6</ele>
        <time>2021-05-27T12:37:33Z</time>
      </trkpt>
      <trkpt lat="45.6245" lon="6.85731">
        <ele>1826.6</ele>
        <time>2021-05-27T12:37:34Z</time>
      </trkpt>
      <trkpt lat="45.62441" lon="6.85741">
        <ele>1826</ele>
        <time>2021-05-27T12:37:35Z</time>
      </trkpt>
      <trkpt lat="45.62433" lon="6.85752">
        <ele>1825.4</ele>
        <time>2021-05-27T12:37:36Z</time>
      </trkpt>
      <trkpt lat="45.62425" lon="6.85764">
        <ele>1824.6</ele>
        <time>2021-05-27T12:37:37Z</time>
      </trkpt>
      <trkpt lat="45.62419" lon="6.85775">
        <ele>1823.8</ele>
        <time>2021-05-27T12:37:38Z</time>
      </trkpt>
      <trkpt lat="45.62413" lon="6.85786">
        <ele>1823</ele>
        <time>2021-05-27T12:37:39Z</time>
      </trkpt>
      <trkpt lat="45.62408" lon="6.85798">
        <ele>1822.6</ele>
        <time>2021-05-27T12:37:40Z</time>
      </trkpt>
      <trkpt lat="45.62402" lon="6.85809">
        <ele>1822.2</ele>
        <time>2021-05-27T12:37:41Z</time>
      </trkpt>
      <trkpt lat="45.62398" lon="6.85821">
        <ele>1822.2</ele>
        <time>2021-05-27T12:37:42Z</time>
      </trkpt>
      <trkpt lat="45.62396" lon="6.85834">
        <ele>1821.4</ele>
        <time>2021-05-27T12:37:43Z</time>
      </trkpt>
      <trkpt lat="45.62394" lon="6.85847">
        <ele>1821</ele>
        <time>2021-05-27T12:37:44Z</time>
      </trkpt>
      <trkpt lat="45.62394" lon="6.85861">
        <ele>1820.4</ele>
        <time>2021-05-27T12:37:45Z</time>
      </trkpt>
      <trkpt lat="45.62395" lon="6.85876">
        <ele>1820</ele>
        <time>2021-05-27T12:37:46Z</time>
      </trkpt>
      <trkpt lat="45.62396" lon="6.85891">
        <ele>1819.8</ele>
        <time>2021-05-27T12:37:47Z</time>
      </trkpt>
      <trkpt lat="45.62396" lon="6.85906">
        <ele>1819.8</ele>
        <time>2021-05-27T12:37:48Z</time>
      </trkpt>
      <trkpt lat="45.62397" lon="6.85921">
        <ele>1819.6</ele>
        <time>2021-05-27T12:37:49Z</time>
      </trkpt>
      <trkpt lat="45.62397" lon="6.85937">
        <ele>1819</ele>
        <time>2021-05-27T12:37:50Z</time>
      </trkpt>
      <trkpt lat="45.62398" lon="6.85953">
        <ele>1818.6</ele>
        <time>2021-05-27T12:37:51Z</time>
      </trkpt>
      <trkpt lat="45.62398" lon="6.8597">
        <ele>1818</ele>
        <time>2021-05-27T12:37:52Z</time>
      </trkpt>
      <trkpt lat="45.62398" lon="6.85986">
        <ele>1817.8</ele>
        <time>2021-05-27T12:37:53Z</time>
      </trkpt>
      <trkpt lat="45.62398" lon="6.86003">
        <ele>1817.2</ele>
        <time>2021-05-27T12:37:54Z</time>
      </trkpt>
      <trkpt lat="45.62398" lon="6.8602">
        <ele>1816.8</ele>
        <time>2021-05-27T12:37:55Z</time>
      </trkpt>
      <trkpt lat="45.62398" lon="6.86037">
        <ele>1816.6</ele>
        <time>2021-05-27T12:37:56Z</time>
      </trkpt>
      <trkpt lat="45.62398" lon="6.86054">
        <ele>1816.4</ele>
        <time>2021-05-27T12:37:57Z</time>
      </trkpt>
      <trkpt lat="45.624" lon="6.86072">
        <ele>1815.6</ele>
        <time>2021-05-27T12:37:58Z</time>
      </trkpt>
      <trkpt lat="45.62401" lon="6.86089">
        <ele>1814.4</ele>
        <time>2021-05-27T12:37:59Z</time>
      </trkpt>
      <trkpt lat="45.62402" lon="6.86107">
        <ele>1813.6</ele>
        <time>2021-05-27T12:38:00Z</time>
      </trkpt>
      <trkpt lat="45.62404" lon="6.86125">
        <ele>1813.2</ele>
        <time>2021-05-27T12:38:01Z</time>
      </trkpt>
      <trkpt lat="45.62406" lon="6.86143">
        <ele>1812.8</ele>
        <time>2021-05-27T12:38:02Z</time>
      </trkpt>
      <trkpt lat="45.62406" lon="6.86162">
        <ele>1812.4</ele>
        <time>2021-05-27T12:38:03Z</time>
      </trkpt>
      <trkpt lat="45.62408" lon="6.8618">
        <ele>1811.6</ele>
        <time>2021-05-27T12:38:04Z</time>
      </trkpt>
      <trkpt lat="45.62409" lon="6.86199">
        <ele>1810.8</ele>
        <time>2021-05-27T12:38:05Z</time>
      </trkpt>
      <trkpt lat="45.62411" lon="6.86218">
        <ele>1809.6</ele>
        <time>2021-05-27T12:38:06Z</time>
      </trkpt>
      <trkpt lat="45.62412" lon="6.86236">
        <ele>1809</ele>
        <time>2021-05-27T12:38:07Z</time>
      </trkpt>
      <trkpt lat="45.62413" lon="6.86255">
        <ele>1808</ele>
        <time>2021-05-27T12:38:08Z</time>
      </trkpt>
      <trkpt lat="45.62413" lon="6.86275">
        <ele>1807.8</ele>
        <time>2021-05-27T12:38:09Z</time>
      </trkpt>
      <trkpt lat="45.62413" lon="6.86294">
        <ele>1807</ele>
        <time>2021-05-27T12:38:10Z</time>
      </trkpt>
      <trkpt lat="45.62411" lon="6.86313">
        <ele>1806</ele>
        <time>2021-05-27T12:38:11Z</time>
      </trkpt>
      <trkpt lat="45.62409" lon="6.86332">
        <ele>1805.4</ele>
        <time>2021-05-27T12:38:12Z</time>
      </trkpt>
      <trkpt lat="45.62406" lon="6.86351">
        <ele>1804.4</ele>
        <time>2021-05-27T12:38:13Z</time>
      </trkpt>
      <trkpt lat="45.62404" lon="6.86369">
        <ele>1803.8</ele>
        <time>2021-05-27T12:38:14Z</time>
      </trkpt>
      <trkpt lat="45.62403" lon="6.86387">
        <ele>1803</ele>
        <time>2021-05-27T12:38:15Z</time>
      </trkpt>
      <trkpt lat="45.62402" lon="6.86404">
        <ele>1802.4</ele>
        <time>2021-05-27T12:38:16Z</time>
      </trkpt>
      <trkpt lat="45.62401" lon="6.8642">
        <ele>1801.8</ele>
        <time>2021-05-27T12:38:17Z</time>
      </trkpt>
      <trkpt lat="45.624" lon="6.86435">
        <ele>1801</ele>
        <time>2021-05-27T12:38:18Z</time>
      </trkpt>
      <trkpt lat="45.62401" lon="6.86449">
        <ele>1800</ele>
        <time>2021-05-27T12:38:19Z</time>
      </trkpt>
      <trkpt lat="45.62402" lon="6.86462">
        <ele>1799.2</ele>
        <time>2021-05-27T12:38:20Z</time>
      </trkpt>
      <trkpt lat="45.62404" lon="6.86474">
        <ele>1798.4</ele>
        <time>2021-05-27T12:38:21Z</time>
      </trkpt>
      <trkpt lat="45.62408" lon="6.86484">
        <ele>1797.8</ele>
        <time>2021-05-27T12:38:22Z</time>
      </trkpt>
      <trkpt lat="45.62412" lon="6.86492">
        <ele>1797</ele>
        <time>2021-05-27T12:38:23Z</time>
      </trkpt>
      <trkpt lat="45.62416" lon="6.86499">
        <ele>1796.4</ele>
        <time>2021-05-27T12:38:24Z</time>
      </trkpt>
      <trkpt lat="45.62418" lon="6.86506">
        <ele>1795.8</ele>
        <time>2021-05-27T12:38:25Z</time>
      </trkpt>
      <trkpt lat="45.62418" lon="6.86513">
        <ele>1795.6</ele>
        <time>2021-05-27T12:38:26Z</time>
      </trkpt>
      <trkpt lat="45.62414" lon="6.86516">
        <ele>1795.2</ele>
        <time>2021-05-27T12:38:27Z</time>
      </trkpt>
      <trkpt lat="45.6241" lon="6.86516">
        <ele>1794.8</ele>
        <time>2021-05-27T12:38:28Z</time>
      </trkpt>
      <trkpt lat="45.62404" lon="6.86511">
        <ele>1794.4</ele>
        <time>2021-05-27T12:38:29Z</time>
      </trkpt>
      <trkpt lat="45.624" lon="6.86503">
        <ele>1794.2</ele>
        <time>2021-05-27T12:38:30Z</time>
      </trkpt>
      <trkpt lat="45.62397" lon="6.86492">
        <ele>1793.8</ele>
        <time>2021-05-27T12:38:31Z</time>
      </trkpt>
      <trkpt lat="45.62394" lon="6.8648">
        <ele>1793.6</ele>
        <time>2021-05-27T12:38:32Z</time>
      </trkpt>
      <trkpt lat="45.6239" lon="6.86465">
        <ele>1793</ele>
        <time>2021-05-27T12:38:33Z</time>
      </trkpt>
      <trkpt lat="45.62388" lon="6.8645">
        <ele>1792.2</ele>
        <time>2021-05-27T12:38:34Z</time>
      </trkpt>
      <trkpt lat="45.62386" lon="6.86435">
        <ele>1792.2</ele>
        <time>2021-05-27T12:38:35Z</time>
      </trkpt>
      <trkpt lat="45.62383" lon="6.86419">
        <ele>1791.8</ele>
        <time>2021-05-27T12:38:36Z</time>
      </trkpt>
      <trkpt lat="45.62381" lon="6.86403">
        <ele>1790.8</ele>
        <time>2021-05-27T12:38:37Z</time>
      </trkpt>
      <trkpt lat="45.62379" lon="6.86387">
        <ele>1790.6</ele>
        <time>2021-05-27T12:38:38Z</time>
      </trkpt>
      <trkpt lat="45.62376" lon="6.8637">
        <ele>1790.2</ele>
        <time>2021-05-27T12:38:39Z</time>
      </trkpt>
      <trkpt lat="45.62374" lon="6.86353">
        <ele>1789.8</ele>
        <time>2021-05-27T12:38:40Z</time>
      </trkpt>
      <trkpt lat="45.62372" lon="6.86335">
        <ele>1789.6</ele>
        <time>2021-05-27T12:38:41Z</time>
      </trkpt>
      <trkpt lat="45.62369" lon="6.86316">
        <ele>1789</ele>
        <time>2021-05-27T12:38:42Z</time>
      </trkpt>
      <trkpt lat="45.62366" lon="6.86299">
        <ele>1788.2</ele>
        <time>2021-05-27T12:38:43Z</time>
      </trkpt>
      <trkpt lat="45.62363" lon="6.86282">
        <ele>1788</ele>
        <time>2021-05-27T12:38:44Z</time>
      </trkpt>
      <trkpt lat="45.6236" lon="6.86265">
        <ele>1787</ele>
        <time>2021-05-27T12:38:45Z</time>
      </trkpt>
      <trkpt lat="45.62356" lon="6.86248">
        <ele>1786.6</ele>
        <time>2021-05-27T12:38:46Z</time>
      </trkpt>
      <trkpt lat="45.62352" lon="6.86231">
        <ele>1785.8</ele>
        <time>2021-05-27T12:38:47Z</time>
      </trkpt>
      <trkpt lat="45.62348" lon="6.86214">
        <ele>1784.6</ele>
        <time>2021-05-27T12:38:48Z</time>
      </trkpt>
      <trkpt lat="45.62344" lon="6.86196">
        <ele>1784.2</ele>
        <time>2021-05-27T12:38:49Z</time>
      </trkpt>
      <trkpt lat="45.62341" lon="6.86179">
        <ele>1783.8</ele>
        <time>2021-05-27T12:38:50Z</time>
      </trkpt>
      <trkpt lat="45.62338" lon="6.86162">
        <ele>1783</ele>
        <time>2021-05-27T12:38:51Z</time>
      </trkpt>
      <trkpt lat="45.62335" lon="6.86145">
        <ele>1782</ele>
        <time>2021-05-27T12:38:52Z</time>
      </trkpt>
      <trkpt lat="45.62332" lon="6.86128">
        <ele>1781.4</ele>
        <time>2021-05-27T12:38:53Z</time>
      </trkpt>
      <trkpt lat="45.62328" lon="6.86111">
        <ele>1780.8</ele>
        <time>2021-05-27T12:38:54Z</time>
      </trkpt>
      <trkpt lat="45.62323" lon="6.86095">
        <ele>1779.8</ele>
        <time>2021-05-27T12:38:55Z</time>
      </trkpt>
      <trkpt lat="45.62316" lon="6.86079">
        <ele>1778.8</ele>
        <time>2021-05-27T12:38:56Z</time>
      </trkpt>
      <trkpt lat="45.6231" lon="6.86064">
        <ele>1778</ele>
        <time>2021-05-27T12:38:57Z</time>
      </trkpt>
      <trkpt lat="45.62303" lon="6.8605">
        <ele>1777.2</ele>
        <time>2021-05-27T12:38:58Z</time>
      </trkpt>
      <trkpt lat="45.62296" lon="6.86036">
        <ele>1776.4</ele>
        <time>2021-05-27T12:38:59Z</time>
      </trkpt>
      <trkpt lat="45.62289" lon="6.86021">
        <ele>1776.2</ele>
        <time>2021-05-27T12:39:00Z</time>
      </trkpt>
      <trkpt lat="45.62282" lon="6.86006">
        <ele>1775.6</ele>
        <time>2021-05-27T12:39:01Z</time>
      </trkpt>
      <trkpt lat="45.62277" lon="6.85991">
        <ele>1774.8</ele>
        <time>2021-05-27T12:39:02Z</time>
      </trkpt>
      <trkpt lat="45.62273" lon="6.85974">
        <ele>1774</ele>
        <time>2021-05-27T12:39:03Z</time>
      </trkpt>
      <trkpt lat="45.62271" lon="6.85957">
        <ele>1773.2</ele>
        <time>2021-05-27T12:39:04Z</time>
      </trkpt>
      <trkpt lat="45.62269" lon="6.8594">
        <ele>1772.6</ele>
        <time>2021-05-27T12:39:05Z</time>
      </trkpt>
      <trkpt lat="45.62269" lon="6.85922">
        <ele>1771.6</ele>
        <time>2021-05-27T12:39:06Z</time>
      </trkpt>
      <trkpt lat="45.62268" lon="6.85905">
        <ele>1770.6</ele>
        <time>2021-05-27T12:39:07Z</time>
      </trkpt>
      <trkpt lat="45.62267" lon="6.85887">
        <ele>1770</ele>
        <time>2021-05-27T12:39:08Z</time>
      </trkpt>
      <trkpt lat="45.62265" lon="6.8587">
        <ele>1769.2</ele>
        <time>2021-05-27T12:39:09Z</time>
      </trkpt>
      <trkpt lat="45.62264" lon="6.85853">
        <ele>1768.4</ele>
        <time>2021-05-27T12:39:10Z</time>
      </trkpt>
      <trkpt lat="45.62263" lon="6.85835">
        <ele>1767.8</ele>
        <time>2021-05-27T12:39:11Z</time>
      </trkpt>
      <trkpt lat="45.62262" lon="6.85818">
        <ele>1767</ele>
        <time>2021-05-27T12:39:12Z</time>
      </trkpt>
      <trkpt lat="45.62262" lon="6.858">
        <ele>1766</ele>
        <time>2021-05-27T12:39:13Z</time>
      </trkpt>
      <trkpt lat="45.62265" lon="6.85783">
        <ele>1765.2</ele>
        <time>2021-05-27T12:39:14Z</time>
      </trkpt>
      <trkpt lat="45.62269" lon="6.85768">
        <ele>1764.6</ele>
        <time>2021-05-27T12:39:15Z</time>
      </trkpt>
      <trkpt lat="45.62275" lon="6.85754">
        <ele>1764.2</ele>
        <time>2021-05-27T12:39:16Z</time>
      </trkpt>
      <trkpt lat="45.62282" lon="6.8574">
        <ele>1763.6</ele>
        <time>2021-05-27T12:39:17Z</time>
      </trkpt>
      <trkpt lat="45.62287" lon="6.85724">
        <ele>1763.2</ele>
        <time>2021-05-27T12:39:18Z</time>
      </trkpt>
      <trkpt lat="45.62291" lon="6.85708">
        <ele>1762.6</ele>
        <time>2021-05-27T12:39:19Z</time>
      </trkpt>
      <trkpt lat="45.62294" lon="6.85692">
        <ele>1762</ele>
        <time>2021-05-27T12:39:20Z</time>
      </trkpt>
      <trkpt lat="45.62296" lon="6.85674">
        <ele>1761.6</ele>
        <time>2021-05-27T12:39:21Z</time>
      </trkpt>
      <trkpt lat="45.62298" lon="6.85656">
        <ele>1761.2</ele>
        <time>2021-05-27T12:39:22Z</time>
      </trkpt>
      <trkpt lat="45.62299" lon="6.85639">
        <ele>1760.4</ele>
        <time>2021-05-27T12:39:23Z</time>
      </trkpt>
      <trkpt lat="45.62301" lon="6.85622">
        <ele>1759.6</ele>
        <time>2021-05-27T12:39:24Z</time>
      </trkpt>
      <trkpt lat="45.62302" lon="6.85604">
        <ele>1758.6</ele>
        <time>2021-05-27T12:39:25Z</time>
      </trkpt>
      <trkpt lat="45.62304" lon="6.85588">
        <ele>1757.8</ele>
        <time>2021-05-27T12:39:26Z</time>
      </trkpt>
      <trkpt lat="45.62306" lon="6.8557">
        <ele>1756.8</ele>
        <time>2021-05-27T12:39:27Z</time>
      </trkpt>
      <trkpt lat="45.62307" lon="6.85552">
        <ele>1756.2</ele>
        <time>2021-05-27T12:39:28Z</time>
      </trkpt>
      <trkpt lat="45.62308" lon="6.85535">
        <ele>1755.6</ele>
        <time>2021-05-27T12:39:29Z</time>
      </trkpt>
      <trkpt lat="45.62307" lon="6.85517">
        <ele>1754.8</ele>
        <time>2021-05-27T12:39:30Z</time>
      </trkpt>
      <trkpt lat="45.62307" lon="6.85499">
        <ele>1754</ele>
        <time>2021-05-27T12:39:31Z</time>
      </trkpt>
      <trkpt lat="45.62305" lon="6.85482">
        <ele>1753.4</ele>
        <time>2021-05-27T12:39:32Z</time>
      </trkpt>
      <trkpt lat="45.62303" lon="6.85464">
        <ele>1753</ele>
        <time>2021-05-27T12:39:33Z</time>
      </trkpt>
      <trkpt lat="45.62301" lon="6.85446">
        <ele>1752.2</ele>
        <time>2021-05-27T12:39:34Z</time>
      </trkpt>
      <trkpt lat="45.62299" lon="6.85429">
        <ele>1751.2</ele>
        <time>2021-05-27T12:39:35Z</time>
      </trkpt>
      <trkpt lat="45.62296" lon="6.85411">
        <ele>1750.6</ele>
        <time>2021-05-27T12:39:36Z</time>
      </trkpt>
      <trkpt lat="45.62293" lon="6.85393">
        <ele>1750</ele>
        <time>2021-05-27T12:39:37Z</time>
      </trkpt>
      <trkpt lat="45.62291" lon="6.85376">
        <ele>1749.6</ele>
        <time>2021-05-27T12:39:38Z</time>
      </trkpt>
      <trkpt lat="45.62288" lon="6.85358">
        <ele>1749</ele>
        <time>2021-05-27T12:39:39Z</time>
      </trkpt>
      <trkpt lat="45.62287" lon="6.8534">
        <ele>1748</ele>
        <time>2021-05-27T12:39:40Z</time>
      </trkpt>
      <trkpt lat="45.62288" lon="6.85323">
        <ele>1747.6</ele>
        <time>2021-05-27T12:39:41Z</time>
      </trkpt>
      <trkpt lat="45.62289" lon="6.85305">
        <ele>1747.2</ele>
        <time>2021-05-27T12:39:42Z</time>
      </trkpt>
      <trkpt lat="45.62292" lon="6.85288">
        <ele>1746.6</ele>
        <time>2021-05-27T12:39:43Z</time>
      </trkpt>
      <trkpt lat="45.62294" lon="6.8527">
        <ele>1746.4</ele>
        <time>2021-05-27T12:39:44Z</time>
      </trkpt>
      <trkpt lat="45.62297" lon="6.85253">
        <ele>1745.6</ele>
        <time>2021-05-27T12:39:45Z</time>
      </trkpt>
      <trkpt lat="45.623" lon="6.85237">
        <ele>1745.2</ele>
        <time>2021-05-27T12:39:46Z</time>
      </trkpt>
      <trkpt lat="45.62304" lon="6.85222">
        <ele>1745</ele>
        <time>2021-05-27T12:39:47Z</time>
      </trkpt>
      <trkpt lat="45.62308" lon="6.85207">
        <ele>1744.4</ele>
        <time>2021-05-27T12:39:48Z</time>
      </trkpt>
      <trkpt lat="45.62313" lon="6.85192">
        <ele>1744.2</ele>
        <time>2021-05-27T12:39:49Z</time>
      </trkpt>
      <trkpt lat="45.62318" lon="6.85178">
        <ele>1744</ele>
        <time>2021-05-27T12:39:50Z</time>
      </trkpt>
      <trkpt lat="45.62322" lon="6.85164">
        <ele>1743.8</ele>
        <time>2021-05-27T12:39:51Z</time>
      </trkpt>
      <trkpt lat="45.62327" lon="6.8515">
        <ele>1743.2</ele>
        <time>2021-05-27T12:39:52Z</time>
      </trkpt>
      <trkpt lat="45.6233" lon="6.85137">
        <ele>1742.8</ele>
        <time>2021-05-27T12:39:53Z</time>
      </trkpt>
      <trkpt lat="45.62332" lon="6.85123">
        <ele>1742.4</ele>
        <time>2021-05-27T12:39:54Z</time>
      </trkpt>
      <trkpt lat="45.62335" lon="6.8511">
        <ele>1742.2</ele>
        <time>2021-05-27T12:39:55Z</time>
      </trkpt>
      <trkpt lat="45.62338" lon="6.85098">
        <ele>1741.6</ele>
        <time>2021-05-27T12:39:56Z</time>
      </trkpt>
      <trkpt lat="45.6234" lon="6.85086">
        <ele>1741</ele>
        <time>2021-05-27T12:39:57Z</time>
      </trkpt>
      <trkpt lat="45.62341" lon="6.85077">
        <ele>1740.6</ele>
        <time>2021-05-27T12:39:58Z</time>
      </trkpt>
      <trkpt lat="45.62341" lon="6.8507">
        <ele>1740.4</ele>
        <time>2021-05-27T12:39:59Z</time>
      </trkpt>
      <trkpt lat="45.6234" lon="6.85065">
        <ele>1740.4</ele>
        <time>2021-05-27T12:40:00Z</time>
      </trkpt>
      <trkpt lat="45.62336" lon="6.85068">
        <ele>1740</ele>
        <time>2021-05-27T12:40:01Z</time>
      </trkpt>
      <trkpt lat="45.62332" lon="6.85071">
        <ele>1739.4</ele>
        <time>2021-05-27T12:40:02Z</time>
      </trkpt>
      <trkpt lat="45.62328" lon="6.85081">
        <ele>1739.2</ele>
        <time>2021-05-27T12:40:03Z</time>
      </trkpt>
      <trkpt lat="45.62325" lon="6.85092">
        <ele>1738.4</ele>
        <time>2021-05-27T12:40:04Z</time>
      </trkpt>
      <trkpt lat="45.62323" lon="6.85106">
        <ele>1738.2</ele>
        <time>2021-05-27T12:40:05Z</time>
      </trkpt>
      <trkpt lat="45.62321" lon="6.8512">
        <ele>1737.8</ele>
        <time>2021-05-27T12:40:06Z</time>
      </trkpt>
      <trkpt lat="45.62318" lon="6.85134">
        <ele>1737.4</ele>
        <time>2021-05-27T12:40:07Z</time>
      </trkpt>
      <trkpt lat="45.62315" lon="6.85149">
        <ele>1737</ele>
        <time>2021-05-27T12:40:08Z</time>
      </trkpt>
      <trkpt lat="45.62311" lon="6.85164">
        <ele>1736.4</ele>
        <time>2021-05-27T12:40:09Z</time>
      </trkpt>
      <trkpt lat="45.62306" lon="6.85178">
        <ele>1736</ele>
        <time>2021-05-27T12:40:10Z</time>
      </trkpt>
      <trkpt lat="45.623" lon="6.85193">
        <ele>1735.4</ele>
        <time>2021-05-27T12:40:11Z</time>
      </trkpt>
      <trkpt lat="45.62295" lon="6.85208">
        <ele>1734.8</ele>
        <time>2021-05-27T12:40:12Z</time>
      </trkpt>
      <trkpt lat="45.62289" lon="6.85223">
        <ele>1734.2</ele>
        <time>2021-05-27T12:40:13Z</time>
      </trkpt>
      <trkpt lat="45.62284" lon="6.85239">
        <ele>1733.6</ele>
        <time>2021-05-27T12:40:14Z</time>
      </trkpt>
      <trkpt lat="45.62278" lon="6.85256">
        <ele>1733.2</ele>
        <time>2021-05-27T12:40:15Z</time>
      </trkpt>
      <trkpt lat="45.62273" lon="6.85272">
        <ele>1732.4</ele>
        <time>2021-05-27T12:40:16Z</time>
      </trkpt>
      <trkpt lat="45.62269" lon="6.85289">
        <ele>1731.6</ele>
        <time>2021-05-27T12:40:17Z</time>
      </trkpt>
      <trkpt lat="45.62266" lon="6.85306">
        <ele>1731.2</ele>
        <time>2021-05-27T12:40:18Z</time>
      </trkpt>
      <trkpt lat="45.62263" lon="6.85323">
        <ele>1730.8</ele>
        <time>2021-05-27T12:40:19Z</time>
      </trkpt>
      <trkpt lat="45.62261" lon="6.8534">
        <ele>1730</ele>
        <time>2021-05-27T12:40:20Z</time>
      </trkpt>
      <trkpt lat="45.6226" lon="6.85359">
        <ele>1729.6</ele>
        <time>2021-05-27T12:40:21Z</time>
      </trkpt>
      <trkpt lat="45.6226" lon="6.85379">
        <ele>1729.2</ele>
        <time>2021-05-27T12:40:22Z</time>
      </trkpt>
      <trkpt lat="45.6226" lon="6.85399">
        <ele>1728.6</ele>
        <time>2021-05-27T12:40:23Z</time>
      </trkpt>
      <trkpt lat="45.6226" lon="6.85419">
        <ele>1728.4</ele>
        <time>2021-05-27T12:40:24Z</time>
      </trkpt>
      <trkpt lat="45.6226" lon="6.85437">
        <ele>1728</ele>
        <time>2021-05-27T12:40:25Z</time>
      </trkpt>
      <trkpt lat="45.62258" lon="6.85455">
        <ele>1727.4</ele>
        <time>2021-05-27T12:40:26Z</time>
      </trkpt>
      <trkpt lat="45.62255" lon="6.85472">
        <ele>1726.8</ele>
        <time>2021-05-27T12:40:27Z</time>
      </trkpt>
      <trkpt lat="45.62252" lon="6.8549">
        <ele>1726</ele>
        <time>2021-05-27T12:40:28Z</time>
      </trkpt>
      <trkpt lat="45.62249" lon="6.85507">
        <ele>1725.2</ele>
        <time>2021-05-27T12:40:29Z</time>
      </trkpt>
      <trkpt lat="45.62245" lon="6.85525">
        <ele>1724.4</ele>
        <time>2021-05-27T12:40:30Z</time>
      </trkpt>
      <trkpt lat="45.62241" lon="6.85543">
        <ele>1723</ele>
        <time>2021-05-27T12:40:31Z</time>
      </trkpt>
      <trkpt lat="45.62234" lon="6.85558">
        <ele>1722.8</ele>
        <time>2021-05-27T12:40:32Z</time>
      </trkpt>
      <trkpt lat="45.62226" lon="6.85572">
        <ele>1722.2</ele>
        <time>2021-05-27T12:40:33Z</time>
      </trkpt>
      <trkpt lat="45.62217" lon="6.85585">
        <ele>1721.2</ele>
        <time>2021-05-27T12:40:34Z</time>
      </trkpt>
      <trkpt lat="45.62209" lon="6.85597">
        <ele>1720.6</ele>
        <time>2021-05-27T12:40:35Z</time>
      </trkpt>
      <trkpt lat="45.62203" lon="6.85611">
        <ele>1720.2</ele>
        <time>2021-05-27T12:40:36Z</time>
      </trkpt>
      <trkpt lat="45.62198" lon="6.85626">
        <ele>1719.6</ele>
        <time>2021-05-27T12:40:37Z</time>
      </trkpt>
      <trkpt lat="45.62195" lon="6.85642">
        <ele>1718.8</ele>
        <time>2021-05-27T12:40:38Z</time>
      </trkpt>
      <trkpt lat="45.62194" lon="6.85658">
        <ele>1718</ele>
        <time>2021-05-27T12:40:39Z</time>
      </trkpt>
      <trkpt lat="45.62193" lon="6.85675">
        <ele>1717.2</ele>
        <time>2021-05-27T12:40:40Z</time>
      </trkpt>
      <trkpt lat="45.62192" lon="6.85691">
        <ele>1716.8</ele>
        <time>2021-05-27T12:40:41Z</time>
      </trkpt>
      <trkpt lat="45.62188" lon="6.85706">
        <ele>1716</ele>
        <time>2021-05-27T12:40:42Z</time>
      </trkpt>
      <trkpt lat="45.62181" lon="6.85719">
        <ele>1715</ele>
        <time>2021-05-27T12:40:43Z</time>
      </trkpt>
      <trkpt lat="45.62172" lon="6.85731">
        <ele>1714.2</ele>
        <time>2021-05-27T12:40:44Z</time>
      </trkpt>
      <trkpt lat="45.62163" lon="6.85742">
        <ele>1713.8</ele>
        <time>2021-05-27T12:40:45Z</time>
      </trkpt>
      <trkpt lat="45.62154" lon="6.85754">
        <ele>1713</ele>
        <time>2021-05-27T12:40:46Z</time>
      </trkpt>
      <trkpt lat="45.62146" lon="6.85767">
        <ele>1712</ele>
        <time>2021-05-27T12:40:47Z</time>
      </trkpt>
      <trkpt lat="45.62141" lon="6.85781">
        <ele>1711.4</ele>
        <time>2021-05-27T12:40:48Z</time>
      </trkpt>
      <trkpt lat="45.62136" lon="6.85796">
        <ele>1711.2</ele>
        <time>2021-05-27T12:40:49Z</time>
      </trkpt>
      <trkpt lat="45.62134" lon="6.85813">
        <ele>1710.2</ele>
        <time>2021-05-27T12:40:50Z</time>
      </trkpt>
      <trkpt lat="45.62132" lon="6.8583">
        <ele>1709.6</ele>
        <time>2021-05-27T12:40:51Z</time>
      </trkpt>
      <trkpt lat="45.6213" lon="6.85846">
        <ele>1708.8</ele>
        <time>2021-05-27T12:40:52Z</time>
      </trkpt>
      <trkpt lat="45.62127" lon="6.85863">
        <ele>1708.2</ele>
        <time>2021-05-27T12:40:53Z</time>
      </trkpt>
      <trkpt lat="45.62124" lon="6.8588">
        <ele>1708.4</ele>
        <time>2021-05-27T12:40:54Z</time>
      </trkpt>
      <trkpt lat="45.62122" lon="6.85896">
        <ele>1708</ele>
        <time>2021-05-27T12:40:55Z</time>
      </trkpt>
      <trkpt lat="45.6212" lon="6.85913">
        <ele>1707.2</ele>
        <time>2021-05-27T12:40:56Z</time>
      </trkpt>
      <trkpt lat="45.62117" lon="6.85928">
        <ele>1706.6</ele>
        <time>2021-05-27T12:40:57Z</time>
      </trkpt>
      <trkpt lat="45.62116" lon="6.85944">
        <ele>1705.6</ele>
        <time>2021-05-27T12:40:58Z</time>
      </trkpt>
      <trkpt lat="45.62115" lon="6.85957">
        <ele>1705</ele>
        <time>2021-05-27T12:40:59Z</time>
      </trkpt>
      <trkpt lat="45.62114" lon="6.85968">
        <ele>1704.6</ele>
        <time>2021-05-27T12:41:00Z</time>
      </trkpt>
      <trkpt lat="45.6211" lon="6.85977">
        <ele>1704</ele>
        <time>2021-05-27T12:41:01Z</time>
      </trkpt>
      <trkpt lat="45.62105" lon="6.8598">
        <ele>1703.6</ele>
        <time>2021-05-27T12:41:02Z</time>
      </trkpt>
      <trkpt lat="45.62098" lon="6.85981">
        <ele>1703.6</ele>
        <time>2021-05-27T12:41:03Z</time>
      </trkpt>
      <trkpt lat="45.62092" lon="6.85981">
        <ele>1703.2</ele>
        <time>2021-05-27T12:41:04Z</time>
      </trkpt>
      <trkpt lat="45.62091" lon="6.85975">
        <ele>1702.8</ele>
        <time>2021-05-27T12:41:05Z</time>
      </trkpt>
      <trkpt lat="45.62093" lon="6.85963">
        <ele>1702.4</ele>
        <time>2021-05-27T12:41:06Z</time>
      </trkpt>
      <trkpt lat="45.62096" lon="6.85952">
        <ele>1702.2</ele>
        <time>2021-05-27T12:41:07Z</time>
      </trkpt>
      <trkpt lat="45.62098" lon="6.85939">
        <ele>1701.6</ele>
        <time>2021-05-27T12:41:08Z</time>
      </trkpt>
      <trkpt lat="45.621" lon="6.85926">
        <ele>1701.4</ele>
        <time>2021-05-27T12:41:09Z</time>
      </trkpt>
      <trkpt lat="45.62102" lon="6.85912">
        <ele>1701</ele>
        <time>2021-05-27T12:41:10Z</time>
      </trkpt>
      <trkpt lat="45.62103" lon="6.85898">
        <ele>1700.8</ele>
        <time>2021-05-27T12:41:11Z</time>
      </trkpt>
      <trkpt lat="45.62105" lon="6.85883">
        <ele>1700.2</ele>
        <time>2021-05-27T12:41:12Z</time>
      </trkpt>
      <trkpt lat="45.62106" lon="6.85868">
        <ele>1700</ele>
        <time>2021-05-27T12:41:13Z</time>
      </trkpt>
      <trkpt lat="45.62108" lon="6.85852">
        <ele>1699.8</ele>
        <time>2021-05-27T12:41:14Z</time>
      </trkpt>
      <trkpt lat="45.62109" lon="6.85836">
        <ele>1699.4</ele>
        <time>2021-05-27T12:41:15Z</time>
      </trkpt>
      <trkpt lat="45.6211" lon="6.8582">
        <ele>1698.8</ele>
        <time>2021-05-27T12:41:16Z</time>
      </trkpt>
      <trkpt lat="45.62112" lon="6.85803">
        <ele>1698.6</ele>
        <time>2021-05-27T12:41:17Z</time>
      </trkpt>
      <trkpt lat="45.62116" lon="6.85786">
        <ele>1698.8</ele>
        <time>2021-05-27T12:41:18Z</time>
      </trkpt>
      <trkpt lat="45.62122" lon="6.85769">
        <ele>1698.4</ele>
        <time>2021-05-27T12:41:19Z</time>
      </trkpt>
      <trkpt lat="45.62128" lon="6.85755">
        <ele>1698.2</ele>
        <time>2021-05-27T12:41:20Z</time>
      </trkpt>
      <trkpt lat="45.62134" lon="6.85741">
        <ele>1697.8</ele>
        <time>2021-05-27T12:41:21Z</time>
      </trkpt>
      <trkpt lat="45.6214" lon="6.85727">
        <ele>1697.4</ele>
        <time>2021-05-27T12:41:22Z</time>
      </trkpt>
      <trkpt lat="45.62141" lon="6.85711">
        <ele>1696.6</ele>
        <time>2021-05-27T12:41:23Z</time>
      </trkpt>
      <trkpt lat="45.62141" lon="6.85695">
        <ele>1695.6</ele>
        <time>2021-05-27T12:41:24Z</time>
      </trkpt>
      <trkpt lat="45.6214" lon="6.85678">
        <ele>1694.8</ele>
        <time>2021-05-27T12:41:25Z</time>
      </trkpt>
      <trkpt lat="45.6214" lon="6.85661">
        <ele>1694</ele>
        <time>2021-05-27T12:41:26Z</time>
      </trkpt>
      <trkpt lat="45.62141" lon="6.85644">
        <ele>1694.2</ele>
        <time>2021-05-27T12:41:27Z</time>
      </trkpt>
      <trkpt lat="45.62144" lon="6.85628">
        <ele>1693.6</ele>
        <time>2021-05-27T12:41:28Z</time>
      </trkpt>
      <trkpt lat="45.62148" lon="6.85611">
        <ele>1693</ele>
        <time>2021-05-27T12:41:29Z</time>
      </trkpt>
      <trkpt lat="45.62151" lon="6.85595">
        <ele>1692</ele>
        <time>2021-05-27T12:41:30Z</time>
      </trkpt>
      <trkpt lat="45.62156" lon="6.85578">
        <ele>1691.4</ele>
        <time>2021-05-27T12:41:31Z</time>
      </trkpt>
      <trkpt lat="45.62159" lon="6.85561">
        <ele>1691</ele>
        <time>2021-05-27T12:41:32Z</time>
      </trkpt>
      <trkpt lat="45.62162" lon="6.85544">
        <ele>1690</ele>
        <time>2021-05-27T12:41:33Z</time>
      </trkpt>
      <trkpt lat="45.62166" lon="6.85527">
        <ele>1689.4</ele>
        <time>2021-05-27T12:41:34Z</time>
      </trkpt>
      <trkpt lat="45.62169" lon="6.85511">
        <ele>1688.8</ele>
        <time>2021-05-27T12:41:35Z</time>
      </trkpt>
      <trkpt lat="45.62171" lon="6.85495">
        <ele>1688</ele>
        <time>2021-05-27T12:41:36Z</time>
      </trkpt>
      <trkpt lat="45.62171" lon="6.8548">
        <ele>1687</ele>
        <time>2021-05-27T12:41:37Z</time>
      </trkpt>
      <trkpt lat="45.62168" lon="6.85464">
        <ele>1686.2</ele>
        <time>2021-05-27T12:41:38Z</time>
      </trkpt>
      <trkpt lat="45.62164" lon="6.8545">
        <ele>1685.4</ele>
        <time>2021-05-27T12:41:39Z</time>
      </trkpt>
      <trkpt lat="45.62159" lon="6.85436">
        <ele>1685.2</ele>
        <time>2021-05-27T12:41:40Z</time>
      </trkpt>
      <trkpt lat="45.62156" lon="6.85421">
        <ele>1684.4</ele>
        <time>2021-05-27T12:41:41Z</time>
      </trkpt>
      <trkpt lat="45.62153" lon="6.85406">
        <ele>1683.6</ele>
        <time>2021-05-27T12:41:42Z</time>
      </trkpt>
      <trkpt lat="45.62151" lon="6.8539">
        <ele>1683.2</ele>
        <time>2021-05-27T12:41:43Z</time>
      </trkpt>
      <trkpt lat="45.6215" lon="6.85374">
        <ele>1683</ele>
        <time>2021-05-27T12:41:44Z</time>
      </trkpt>
      <trkpt lat="45.62149" lon="6.85359">
        <ele>1682</ele>
        <time>2021-05-27T12:41:45Z</time>
      </trkpt>
      <trkpt lat="45.62148" lon="6.85343">
        <ele>1681.4</ele>
        <time>2021-05-27T12:41:46Z</time>
      </trkpt>
      <trkpt lat="45.62148" lon="6.85328">
        <ele>1680</ele>
        <time>2021-05-27T12:41:47Z</time>
      </trkpt>
      <trkpt lat="45.62148" lon="6.85312">
        <ele>1679.6</ele>
        <time>2021-05-27T12:41:48Z</time>
      </trkpt>
      <trkpt lat="45.62148" lon="6.85296">
        <ele>1679</ele>
        <time>2021-05-27T12:41:49Z</time>
      </trkpt>
      <trkpt lat="45.62147" lon="6.8528">
        <ele>1678</ele>
        <time>2021-05-27T12:41:50Z</time>
      </trkpt>
      <trkpt lat="45.62146" lon="6.85264">
        <ele>1677.6</ele>
        <time>2021-05-27T12:41:51Z</time>
      </trkpt>
      <trkpt lat="45.62146" lon="6.85248">
        <ele>1677.2</ele>
        <time>2021-05-27T12:41:52Z</time>
      </trkpt>
      <trkpt lat="45.62146" lon="6.85232">
        <ele>1677</ele>
        <time>2021-05-27T12:41:53Z</time>
      </trkpt>
      <trkpt lat="45.62147" lon="6.85216">
        <ele>1676.4</ele>
        <time>2021-05-27T12:41:54Z</time>
      </trkpt>
      <trkpt lat="45.62149" lon="6.852">
        <ele>1675.8</ele>
        <time>2021-05-27T12:41:55Z</time>
      </trkpt>
      <trkpt lat="45.6215" lon="6.85184">
        <ele>1675.2</ele>
        <time>2021-05-27T12:41:56Z</time>
      </trkpt>
      <trkpt lat="45.62152" lon="6.85168">
        <ele>1674.6</ele>
        <time>2021-05-27T12:41:57Z</time>
      </trkpt>
      <trkpt lat="45.62154" lon="6.85152">
        <ele>1674</ele>
        <time>2021-05-27T12:41:58Z</time>
      </trkpt>
      <trkpt lat="45.62156" lon="6.85136">
        <ele>1673.4</ele>
        <time>2021-05-27T12:41:59Z</time>
      </trkpt>
      <trkpt lat="45.62159" lon="6.8512">
        <ele>1672.6</ele>
        <time>2021-05-27T12:42:00Z</time>
      </trkpt>
      <trkpt lat="45.62163" lon="6.85105">
        <ele>1671.8</ele>
        <time>2021-05-27T12:42:01Z</time>
      </trkpt>
      <trkpt lat="45.62168" lon="6.8509">
        <ele>1671.2</ele>
        <time>2021-05-27T12:42:02Z</time>
      </trkpt>
      <trkpt lat="45.62173" lon="6.85075">
        <ele>1670.6</ele>
        <time>2021-05-27T12:42:03Z</time>
      </trkpt>
      <trkpt lat="45.62178" lon="6.85061">
        <ele>1670</ele>
        <time>2021-05-27T12:42:04Z</time>
      </trkpt>
      <trkpt lat="45.62181" lon="6.85045">
        <ele>1669.2</ele>
        <time>2021-05-27T12:42:05Z</time>
      </trkpt>
      <trkpt lat="45.62183" lon="6.85029">
        <ele>1669</ele>
        <time>2021-05-27T12:42:06Z</time>
      </trkpt>
      <trkpt lat="45.62183" lon="6.85014">
        <ele>1668.6</ele>
        <time>2021-05-27T12:42:07Z</time>
      </trkpt>
      <trkpt lat="45.62182" lon="6.84997">
        <ele>1668.2</ele>
        <time>2021-05-27T12:42:08Z</time>
      </trkpt>
      <trkpt lat="45.6218" lon="6.84981">
        <ele>1668.2</ele>
        <time>2021-05-27T12:42:09Z</time>
      </trkpt>
      <trkpt lat="45.62179" lon="6.84966">
        <ele>1667.6</ele>
        <time>2021-05-27T12:42:10Z</time>
      </trkpt>
      <trkpt lat="45.62179" lon="6.8495">
        <ele>1667.6</ele>
        <time>2021-05-27T12:42:11Z</time>
      </trkpt>
      <trkpt lat="45.62177" lon="6.84934">
        <ele>1667.2</ele>
        <time>2021-05-27T12:42:12Z</time>
      </trkpt>
      <trkpt lat="45.62177" lon="6.84918">
        <ele>1666</ele>
        <time>2021-05-27T12:42:13Z</time>
      </trkpt>
      <trkpt lat="45.62177" lon="6.84903">
        <ele>1665</ele>
        <time>2021-05-27T12:42:14Z</time>
      </trkpt>
      <trkpt lat="45.62178" lon="6.84887">
        <ele>1664.6</ele>
        <time>2021-05-27T12:42:15Z</time>
      </trkpt>
      <trkpt lat="45.62178" lon="6.8487">
        <ele>1664.4</ele>
        <time>2021-05-27T12:42:16Z</time>
      </trkpt>
      <trkpt lat="45.62178" lon="6.84854">
        <ele>1663.8</ele>
        <time>2021-05-27T12:42:17Z</time>
      </trkpt>
      <trkpt lat="45.62179" lon="6.84838">
        <ele>1663.2</ele>
        <time>2021-05-27T12:42:18Z</time>
      </trkpt>
      <trkpt lat="45.6218" lon="6.84822">
        <ele>1662.6</ele>
        <time>2021-05-27T12:42:19Z</time>
      </trkpt>
      <trkpt lat="45.62181" lon="6.84805">
        <ele>1662.4</ele>
        <time>2021-05-27T12:42:20Z</time>
      </trkpt>
      <trkpt lat="45.62181" lon="6.84789">
        <ele>1661.4</ele>
        <time>2021-05-27T12:42:21Z</time>
      </trkpt>
      <trkpt lat="45.62181" lon="6.84772">
        <ele>1660.8</ele>
        <time>2021-05-27T12:42:22Z</time>
      </trkpt>
      <trkpt lat="45.6218" lon="6.84756">
        <ele>1660.2</ele>
        <time>2021-05-27T12:42:23Z</time>
      </trkpt>
      <trkpt lat="45.62179" lon="6.84739">
        <ele>1659.8</ele>
        <time>2021-05-27T12:42:24Z</time>
      </trkpt>
      <trkpt lat="45.62179" lon="6.84723">
        <ele>1659.4</ele>
        <time>2021-05-27T12:42:25Z</time>
      </trkpt>
      <trkpt lat="45.62178" lon="6.84706">
        <ele>1659</ele>
        <time>2021-05-27T12:42:26Z</time>
      </trkpt>
      <trkpt lat="45.62177" lon="6.8469">
        <ele>1658</ele>
        <time>2021-05-27T12:42:27Z</time>
      </trkpt>
      <trkpt lat="45.62175" lon="6.84674">
        <ele>1657.4</ele>
        <time>2021-05-27T12:42:28Z</time>
      </trkpt>
      <trkpt lat="45.62175" lon="6.84657">
        <ele>1656.8</ele>
        <time>2021-05-27T12:42:29Z</time>
      </trkpt>
      <trkpt lat="45.62177" lon="6.84641">
        <ele>1656.2</ele>
        <time>2021-05-27T12:42:30Z</time>
      </trkpt>
      <trkpt lat="45.6218" lon="6.84626">
        <ele>1655.6</ele>
        <time>2021-05-27T12:42:31Z</time>
      </trkpt>
      <trkpt lat="45.62185" lon="6.84612">
        <ele>1655.4</ele>
        <time>2021-05-27T12:42:32Z</time>
      </trkpt>
      <trkpt lat="45.62191" lon="6.846">
        <ele>1654.6</ele>
        <time>2021-05-27T12:42:33Z</time>
      </trkpt>
      <trkpt lat="45.62198" lon="6.84588">
        <ele>1654</ele>
        <time>2021-05-27T12:42:34Z</time>
      </trkpt>
      <trkpt lat="45.62204" lon="6.84574">
        <ele>1653.4</ele>
        <time>2021-05-27T12:42:35Z</time>
      </trkpt>
      <trkpt lat="45.6221" lon="6.8456">
        <ele>1652.6</ele>
        <time>2021-05-27T12:42:36Z</time>
      </trkpt>
      <trkpt lat="45.62217" lon="6.84548">
        <ele>1652.4</ele>
        <time>2021-05-27T12:42:37Z</time>
      </trkpt>
      <trkpt lat="45.62223" lon="6.84536">
        <ele>1652.2</ele>
        <time>2021-05-27T12:42:38Z</time>
      </trkpt>
      <trkpt lat="45.62231" lon="6.84524">
        <ele>1651.4</ele>
        <time>2021-05-27T12:42:39Z</time>
      </trkpt>
      <trkpt lat="45.62241" lon="6.84511">
        <ele>1650.8</ele>
        <time>2021-05-27T12:42:40Z</time>
      </trkpt>
      <trkpt lat="45.62249" lon="6.84499">
        <ele>1649.8</ele>
        <time>2021-05-27T12:42:41Z</time>
      </trkpt>
      <trkpt lat="45.62255" lon="6.8449">
        <ele>1648.8</ele>
        <time>2021-05-27T12:42:42Z</time>
      </trkpt>
      <trkpt lat="45.62262" lon="6.84476">
        <ele>1648</ele>
        <time>2021-05-27T12:42:43Z</time>
      </trkpt>
      <trkpt lat="45.62268" lon="6.84462">
        <ele>1647.6</ele>
        <time>2021-05-27T12:42:44Z</time>
      </trkpt>
      <trkpt lat="45.62273" lon="6.84448">
        <ele>1647</ele>
        <time>2021-05-27T12:42:45Z</time>
      </trkpt>
      <trkpt lat="45.62279" lon="6.84435">
        <ele>1646.2</ele>
        <time>2021-05-27T12:42:46Z</time>
      </trkpt>
      <trkpt lat="45.62284" lon="6.84421">
        <ele>1645.6</ele>
        <time>2021-05-27T12:42:47Z</time>
      </trkpt>
      <trkpt lat="45.6229" lon="6.84408">
        <ele>1644.8</ele>
        <time>2021-05-27T12:42:48Z</time>
      </trkpt>
      <trkpt lat="45.62296" lon="6.84394">
        <ele>1644.2</ele>
        <time>2021-05-27T12:42:49Z</time>
      </trkpt>
      <trkpt lat="45.62303" lon="6.84381">
        <ele>1643.6</ele>
        <time>2021-05-27T12:42:50Z</time>
      </trkpt>
      <trkpt lat="45.62309" lon="6.84368">
        <ele>1643</ele>
        <time>2021-05-27T12:42:51Z</time>
      </trkpt>
      <trkpt lat="45.62314" lon="6.84355">
        <ele>1642.6</ele>
        <time>2021-05-27T12:42:52Z</time>
      </trkpt>
      <trkpt lat="45.62317" lon="6.84341">
        <ele>1641.8</ele>
        <time>2021-05-27T12:42:53Z</time>
      </trkpt>
      <trkpt lat="45.62319" lon="6.84322">
        <ele>1641.4</ele>
        <time>2021-05-27T12:42:54Z</time>
      </trkpt>
      <trkpt lat="45.6232" lon="6.8431">
        <ele>1641</ele>
        <time>2021-05-27T12:42:55Z</time>
      </trkpt>
      <trkpt lat="45.62322" lon="6.84294">
        <ele>1640.4</ele>
        <time>2021-05-27T12:42:56Z</time>
      </trkpt>
      <trkpt lat="45.62324" lon="6.84278">
        <ele>1640</ele>
        <time>2021-05-27T12:42:57Z</time>
      </trkpt>
      <trkpt lat="45.62328" lon="6.84263">
        <ele>1639.2</ele>
        <time>2021-05-27T12:42:58Z</time>
      </trkpt>
      <trkpt lat="45.62332" lon="6.84248">
        <ele>1638.8</ele>
        <time>2021-05-27T12:42:59Z</time>
      </trkpt>
      <trkpt lat="45.62338" lon="6.84234">
        <ele>1638.2</ele>
        <time>2021-05-27T12:43:00Z</time>
      </trkpt>
      <trkpt lat="45.62344" lon="6.84221">
        <ele>1638</ele>
        <time>2021-05-27T12:43:01Z</time>
      </trkpt>
      <trkpt lat="45.6235" lon="6.84208">
        <ele>1637.6</ele>
        <time>2021-05-27T12:43:02Z</time>
      </trkpt>
      <trkpt lat="45.62357" lon="6.84196">
        <ele>1637.6</ele>
        <time>2021-05-27T12:43:03Z</time>
      </trkpt>
      <trkpt lat="45.62366" lon="6.84184">
        <ele>1637</ele>
        <time>2021-05-27T12:43:04Z</time>
      </trkpt>
      <trkpt lat="45.62375" lon="6.84175">
        <ele>1636.8</ele>
        <time>2021-05-27T12:43:05Z</time>
      </trkpt>
      <trkpt lat="45.62384" lon="6.84166">
        <ele>1635.8</ele>
        <time>2021-05-27T12:43:06Z</time>
      </trkpt>
      <trkpt lat="45.62394" lon="6.84159">
        <ele>1634.6</ele>
        <time>2021-05-27T12:43:07Z</time>
      </trkpt>
      <trkpt lat="45.62405" lon="6.84152">
        <ele>1634</ele>
        <time>2021-05-27T12:43:08Z</time>
      </trkpt>
      <trkpt lat="45.62416" lon="6.84145">
        <ele>1633.2</ele>
        <time>2021-05-27T12:43:09Z</time>
      </trkpt>
      <trkpt lat="45.62427" lon="6.84138">
        <ele>1632</ele>
        <time>2021-05-27T12:43:10Z</time>
      </trkpt>
      <trkpt lat="45.62437" lon="6.8413">
        <ele>1631.2</ele>
        <time>2021-05-27T12:43:11Z</time>
      </trkpt>
      <trkpt lat="45.62446" lon="6.8412">
        <ele>1630.2</ele>
        <time>2021-05-27T12:43:12Z</time>
      </trkpt>
      <trkpt lat="45.62454" lon="6.84108">
        <ele>1629.4</ele>
        <time>2021-05-27T12:43:13Z</time>
      </trkpt>
      <trkpt lat="45.62461" lon="6.84094">
        <ele>1628.6</ele>
        <time>2021-05-27T12:43:14Z</time>
      </trkpt>
      <trkpt lat="45.62468" lon="6.8408">
        <ele>1628.2</ele>
        <time>2021-05-27T12:43:15Z</time>
      </trkpt>
      <trkpt lat="45.62476" lon="6.84067">
        <ele>1627.4</ele>
        <time>2021-05-27T12:43:16Z</time>
      </trkpt>
      <trkpt lat="45.62484" lon="6.84055">
        <ele>1626.8</ele>
        <time>2021-05-27T12:43:17Z</time>
      </trkpt>
      <trkpt lat="45.62492" lon="6.84043">
        <ele>1625.8</ele>
        <time>2021-05-27T12:43:18Z</time>
      </trkpt>
      <trkpt lat="45.62501" lon="6.84031">
        <ele>1625.2</ele>
        <time>2021-05-27T12:43:19Z</time>
      </trkpt>
      <trkpt lat="45.62512" lon="6.8402">
        <ele>1624.2</ele>
        <time>2021-05-27T12:43:20Z</time>
      </trkpt>
      <trkpt lat="45.62523" lon="6.84012">
        <ele>1623.8</ele>
        <time>2021-05-27T12:43:21Z</time>
      </trkpt>
      <trkpt lat="45.62535" lon="6.84005">
        <ele>1623</ele>
        <time>2021-05-27T12:43:22Z</time>
      </trkpt>
      <trkpt lat="45.62547" lon="6.83998">
        <ele>1622.4</ele>
        <time>2021-05-27T12:43:23Z</time>
      </trkpt>
      <trkpt lat="45.62558" lon="6.8399">
        <ele>1621.6</ele>
        <time>2021-05-27T12:43:24Z</time>
      </trkpt>
      <trkpt lat="45.62568" lon="6.83981">
        <ele>1620.4</ele>
        <time>2021-05-27T12:43:25Z</time>
      </trkpt>
      <trkpt lat="45.62577" lon="6.83969">
        <ele>1619.8</ele>
        <time>2021-05-27T12:43:26Z</time>
      </trkpt>
      <trkpt lat="45.62584" lon="6.83956">
        <ele>1619</ele>
        <time>2021-05-27T12:43:27Z</time>
      </trkpt>
      <trkpt lat="45.62591" lon="6.83942">
        <ele>1618.4</ele>
        <time>2021-05-27T12:43:28Z</time>
      </trkpt>
      <trkpt lat="45.62598" lon="6.83928">
        <ele>1617.2</ele>
        <time>2021-05-27T12:43:29Z</time>
      </trkpt>
      <trkpt lat="45.62606" lon="6.83913">
        <ele>1616.2</ele>
        <time>2021-05-27T12:43:30Z</time>
      </trkpt>
      <trkpt lat="45.62612" lon="6.83897">
        <ele>1615.4</ele>
        <time>2021-05-27T12:43:31Z</time>
      </trkpt>
      <trkpt lat="45.62618" lon="6.83881">
        <ele>1614.6</ele>
        <time>2021-05-27T12:43:32Z</time>
      </trkpt>
      <trkpt lat="45.62624" lon="6.83866">
        <ele>1613.6</ele>
        <time>2021-05-27T12:43:33Z</time>
      </trkpt>
      <trkpt lat="45.62631" lon="6.83852">
        <ele>1613.2</ele>
        <time>2021-05-27T12:43:34Z</time>
      </trkpt>
      <trkpt lat="45.6264" lon="6.83838">
        <ele>1612.6</ele>
        <time>2021-05-27T12:43:35Z</time>
      </trkpt>
      <trkpt lat="45.62648" lon="6.83826">
        <ele>1612</ele>
        <time>2021-05-27T12:43:36Z</time>
      </trkpt>
      <trkpt lat="45.62657" lon="6.83814">
        <ele>1611</ele>
        <time>2021-05-27T12:43:37Z</time>
      </trkpt>
      <trkpt lat="45.62666" lon="6.83802">
        <ele>1610</ele>
        <time>2021-05-27T12:43:38Z</time>
      </trkpt>
      <trkpt lat="45.62676" lon="6.8379">
        <ele>1609.2</ele>
        <time>2021-05-27T12:43:39Z</time>
      </trkpt>
      <trkpt lat="45.62684" lon="6.83777">
        <ele>1608.4</ele>
        <time>2021-05-27T12:43:40Z</time>
      </trkpt>
      <trkpt lat="45.62692" lon="6.83763">
        <ele>1607.6</ele>
        <time>2021-05-27T12:43:41Z</time>
      </trkpt>
      <trkpt lat="45.62699" lon="6.83747">
        <ele>1606.4</ele>
        <time>2021-05-27T12:43:42Z</time>
      </trkpt>
      <trkpt lat="45.62705" lon="6.83731">
        <ele>1605.4</ele>
        <time>2021-05-27T12:43:43Z</time>
      </trkpt>
      <trkpt lat="45.62712" lon="6.83715">
        <ele>1604.8</ele>
        <time>2021-05-27T12:43:44Z</time>
      </trkpt>
      <trkpt lat="45.62718" lon="6.83699">
        <ele>1604</ele>
        <time>2021-05-27T12:43:45Z</time>
      </trkpt>
      <trkpt lat="45.62724" lon="6.83683">
        <ele>1603.8</ele>
        <time>2021-05-27T12:43:46Z</time>
      </trkpt>
      <trkpt lat="45.62731" lon="6.83667">
        <ele>1602.8</ele>
        <time>2021-05-27T12:43:47Z</time>
      </trkpt>
      <trkpt lat="45.62739" lon="6.83653">
        <ele>1602.2</ele>
        <time>2021-05-27T12:43:48Z</time>
      </trkpt>
      <trkpt lat="45.62749" lon="6.83642">
        <ele>1601.4</ele>
        <time>2021-05-27T12:43:49Z</time>
      </trkpt>
      <trkpt lat="45.6276" lon="6.83632">
        <ele>1600.4</ele>
        <time>2021-05-27T12:43:50Z</time>
      </trkpt>
      <trkpt lat="45.62771" lon="6.83621">
        <ele>1599.6</ele>
        <time>2021-05-27T12:43:51Z</time>
      </trkpt>
      <trkpt lat="45.6278" lon="6.8361">
        <ele>1598.8</ele>
        <time>2021-05-27T12:43:52Z</time>
      </trkpt>
      <trkpt lat="45.62788" lon="6.83597">
        <ele>1598.2</ele>
        <time>2021-05-27T12:43:53Z</time>
      </trkpt>
      <trkpt lat="45.62795" lon="6.83582">
        <ele>1597.4</ele>
        <time>2021-05-27T12:43:54Z</time>
      </trkpt>
      <trkpt lat="45.62801" lon="6.83566">
        <ele>1596.4</ele>
        <time>2021-05-27T12:43:55Z</time>
      </trkpt>
      <trkpt lat="45.62806" lon="6.83551">
        <ele>1595.4</ele>
        <time>2021-05-27T12:43:56Z</time>
      </trkpt>
      <trkpt lat="45.62813" lon="6.83539">
        <ele>1594.8</ele>
        <time>2021-05-27T12:43:57Z</time>
      </trkpt>
      <trkpt lat="45.62819" lon="6.83528">
        <ele>1594.2</ele>
        <time>2021-05-27T12:43:58Z</time>
      </trkpt>
      <trkpt lat="45.62826" lon="6.83518">
        <ele>1593.2</ele>
        <time>2021-05-27T12:43:59Z</time>
      </trkpt>
      <trkpt lat="45.6283" lon="6.83509">
        <ele>1592.2</ele>
        <time>2021-05-27T12:44:00Z</time>
      </trkpt>
      <trkpt lat="45.6283" lon="6.835">
        <ele>1591.6</ele>
        <time>2021-05-27T12:44:01Z</time>
      </trkpt>
      <trkpt lat="45.62825" lon="6.83494">
        <ele>1591.2</ele>
        <time>2021-05-27T12:44:02Z</time>
      </trkpt>
      <trkpt lat="45.62819" lon="6.83492">
        <ele>1590.6</ele>
        <time>2021-05-27T12:44:03Z</time>
      </trkpt>
      <trkpt lat="45.62812" lon="6.83496">
        <ele>1590.4</ele>
        <time>2021-05-27T12:44:04Z</time>
      </trkpt>
      <trkpt lat="45.62806" lon="6.83504">
        <ele>1590.2</ele>
        <time>2021-05-27T12:44:05Z</time>
      </trkpt>
      <trkpt lat="45.62801" lon="6.83513">
        <ele>1589.8</ele>
        <time>2021-05-27T12:44:06Z</time>
      </trkpt>
      <trkpt lat="45.62795" lon="6.83524">
        <ele>1589.6</ele>
        <time>2021-05-27T12:44:07Z</time>
      </trkpt>
      <trkpt lat="45.62789" lon="6.83536">
        <ele>1589</ele>
        <time>2021-05-27T12:44:08Z</time>
      </trkpt>
      <trkpt lat="45.62783" lon="6.83547">
        <ele>1588.6</ele>
        <time>2021-05-27T12:44:09Z</time>
      </trkpt>
      <trkpt lat="45.62777" lon="6.83559">
        <ele>1588.2</ele>
        <time>2021-05-27T12:44:10Z</time>
      </trkpt>
      <trkpt lat="45.62771" lon="6.83571">
        <ele>1588.2</ele>
        <time>2021-05-27T12:44:11Z</time>
      </trkpt>
      <trkpt lat="45.62763" lon="6.83583">
        <ele>1587.8</ele>
        <time>2021-05-27T12:44:12Z</time>
      </trkpt>
      <trkpt lat="45.62754" lon="6.83594">
        <ele>1587.8</ele>
        <time>2021-05-27T12:44:13Z</time>
      </trkpt>
      <trkpt lat="45.62744" lon="6.83605">
        <ele>1587.6</ele>
        <time>2021-05-27T12:44:14Z</time>
      </trkpt>
      <trkpt lat="45.62735" lon="6.83614">
        <ele>1587</ele>
        <time>2021-05-27T12:44:15Z</time>
      </trkpt>
      <trkpt lat="45.62725" lon="6.83623">
        <ele>1586.6</ele>
        <time>2021-05-27T12:44:16Z</time>
      </trkpt>
      <trkpt lat="45.62715" lon="6.83632">
        <ele>1585.8</ele>
        <time>2021-05-27T12:44:17Z</time>
      </trkpt>
      <trkpt lat="45.62706" lon="6.8364">
        <ele>1585</ele>
        <time>2021-05-27T12:44:18Z</time>
      </trkpt>
      <trkpt lat="45.62696" lon="6.83648">
        <ele>1584.6</ele>
        <time>2021-05-27T12:44:19Z</time>
      </trkpt>
      <trkpt lat="45.62685" lon="6.83654">
        <ele>1584.2</ele>
        <time>2021-05-27T12:44:20Z</time>
      </trkpt>
      <trkpt lat="45.62675" lon="6.83662">
        <ele>1583.8</ele>
        <time>2021-05-27T12:44:21Z</time>
      </trkpt>
      <trkpt lat="45.62666" lon="6.8367">
        <ele>1583</ele>
        <time>2021-05-27T12:44:22Z</time>
      </trkpt>
      <trkpt lat="45.62657" lon="6.8368">
        <ele>1582.4</ele>
        <time>2021-05-27T12:44:23Z</time>
      </trkpt>
      <trkpt lat="45.62649" lon="6.83692">
        <ele>1582</ele>
        <time>2021-05-27T12:44:24Z</time>
      </trkpt>
      <trkpt lat="45.62641" lon="6.83705">
        <ele>1581.4</ele>
        <time>2021-05-27T12:44:25Z</time>
      </trkpt>
      <trkpt lat="45.62634" lon="6.83718">
        <ele>1581.2</ele>
        <time>2021-05-27T12:44:26Z</time>
      </trkpt>
      <trkpt lat="45.62628" lon="6.83733">
        <ele>1580.6</ele>
        <time>2021-05-27T12:44:27Z</time>
      </trkpt>
      <trkpt lat="45.62622" lon="6.83748">
        <ele>1580</ele>
        <time>2021-05-27T12:44:28Z</time>
      </trkpt>
      <trkpt lat="45.62616" lon="6.83762">
        <ele>1579.6</ele>
        <time>2021-05-27T12:44:29Z</time>
      </trkpt>
      <trkpt lat="45.62608" lon="6.83775">
        <ele>1579.2</ele>
        <time>2021-05-27T12:44:30Z</time>
      </trkpt>
      <trkpt lat="45.626" lon="6.83787">
        <ele>1578.8</ele>
        <time>2021-05-27T12:44:31Z</time>
      </trkpt>
      <trkpt lat="45.6259" lon="6.83798">
        <ele>1578.6</ele>
        <time>2021-05-27T12:44:32Z</time>
      </trkpt>
      <trkpt lat="45.62582" lon="6.8381">
        <ele>1577.8</ele>
        <time>2021-05-27T12:44:33Z</time>
      </trkpt>
      <trkpt lat="45.62574" lon="6.83822">
        <ele>1577</ele>
        <time>2021-05-27T12:44:34Z</time>
      </trkpt>
      <trkpt lat="45.62566" lon="6.83835">
        <ele>1576.6</ele>
        <time>2021-05-27T12:44:35Z</time>
      </trkpt>
      <trkpt lat="45.62558" lon="6.83847">
        <ele>1576</ele>
        <time>2021-05-27T12:44:36Z</time>
      </trkpt>
      <trkpt lat="45.62549" lon="6.83858">
        <ele>1575.2</ele>
        <time>2021-05-27T12:44:37Z</time>
      </trkpt>
      <trkpt lat="45.62539" lon="6.83868">
        <ele>1574.4</ele>
        <time>2021-05-27T12:44:38Z</time>
      </trkpt>
      <trkpt lat="45.62528" lon="6.83875">
        <ele>1573.6</ele>
        <time>2021-05-27T12:44:39Z</time>
      </trkpt>
      <trkpt lat="45.62516" lon="6.8388">
        <ele>1573</ele>
        <time>2021-05-27T12:44:40Z</time>
      </trkpt>
      <trkpt lat="45.62503" lon="6.83882">
        <ele>1572.2</ele>
        <time>2021-05-27T12:44:41Z</time>
      </trkpt>
      <trkpt lat="45.6249" lon="6.83882">
        <ele>1571.2</ele>
        <time>2021-05-27T12:44:42Z</time>
      </trkpt>
      <trkpt lat="45.62477" lon="6.83881">
        <ele>1570.8</ele>
        <time>2021-05-27T12:44:43Z</time>
      </trkpt>
      <trkpt lat="45.62465" lon="6.83881">
        <ele>1570.2</ele>
        <time>2021-05-27T12:44:44Z</time>
      </trkpt>
      <trkpt lat="45.62452" lon="6.83883">
        <ele>1570.2</ele>
        <time>2021-05-27T12:44:45Z</time>
      </trkpt>
      <trkpt lat="45.62439" lon="6.83887">
        <ele>1569.4</ele>
        <time>2021-05-27T12:44:46Z</time>
      </trkpt>
      <trkpt lat="45.62426" lon="6.83893">
        <ele>1568.8</ele>
        <time>2021-05-27T12:44:47Z</time>
      </trkpt>
      <trkpt lat="45.62414" lon="6.839">
        <ele>1567.8</ele>
        <time>2021-05-27T12:44:48Z</time>
      </trkpt>
      <trkpt lat="45.62402" lon="6.8391">
        <ele>1567</ele>
        <time>2021-05-27T12:44:49Z</time>
      </trkpt>
      <trkpt lat="45.62391" lon="6.83921">
        <ele>1566.8</ele>
        <time>2021-05-27T12:44:50Z</time>
      </trkpt>
      <trkpt lat="45.6238" lon="6.83933">
        <ele>1566</ele>
        <time>2021-05-27T12:44:51Z</time>
      </trkpt>
      <trkpt lat="45.6237" lon="6.83947">
        <ele>1565.4</ele>
        <time>2021-05-27T12:44:52Z</time>
      </trkpt>
      <trkpt lat="45.6236" lon="6.83964">
        <ele>1564.8</ele>
        <time>2021-05-27T12:44:53Z</time>
      </trkpt>
      <trkpt lat="45.62352" lon="6.83979">
        <ele>1563.8</ele>
        <time>2021-05-27T12:44:54Z</time>
      </trkpt>
      <trkpt lat="45.62342" lon="6.83994">
        <ele>1563.2</ele>
        <time>2021-05-27T12:44:55Z</time>
      </trkpt>
      <trkpt lat="45.62334" lon="6.84008">
        <ele>1562.2</ele>
        <time>2021-05-27T12:44:56Z</time>
      </trkpt>
      <trkpt lat="45.62324" lon="6.84021">
        <ele>1561.4</ele>
        <time>2021-05-27T12:44:57Z</time>
      </trkpt>
      <trkpt lat="45.62314" lon="6.84032">
        <ele>1561</ele>
        <time>2021-05-27T12:44:58Z</time>
      </trkpt>
      <trkpt lat="45.62302" lon="6.84042">
        <ele>1561</ele>
        <time>2021-05-27T12:44:59Z</time>
      </trkpt>
      <trkpt lat="45.62289" lon="6.8405">
        <ele>1560.4</ele>
        <time>2021-05-27T12:45:00Z</time>
      </trkpt>
      <trkpt lat="45.62276" lon="6.84056">
        <ele>1560.2</ele>
        <time>2021-05-27T12:45:01Z</time>
      </trkpt>
      <trkpt lat="45.62263" lon="6.8406">
        <ele>1559.6</ele>
        <time>2021-05-27T12:45:02Z</time>
      </trkpt>
      <trkpt lat="45.62252" lon="6.84064">
        <ele>1559.2</ele>
        <time>2021-05-27T12:45:03Z</time>
      </trkpt>
      <trkpt lat="45.6224" lon="6.84068">
        <ele>1558.8</ele>
        <time>2021-05-27T12:45:04Z</time>
      </trkpt>
      <trkpt lat="45.62228" lon="6.84073">
        <ele>1558.2</ele>
        <time>2021-05-27T12:45:05Z</time>
      </trkpt>
      <trkpt lat="45.62217" lon="6.84079">
        <ele>1557.6</ele>
        <time>2021-05-27T12:45:06Z</time>
      </trkpt>
      <trkpt lat="45.62206" lon="6.84086">
        <ele>1557</ele>
        <time>2021-05-27T12:45:07Z</time>
      </trkpt>
      <trkpt lat="45.62196" lon="6.84093">
        <ele>1556.4</ele>
        <time>2021-05-27T12:45:08Z</time>
      </trkpt>
      <trkpt lat="45.62188" lon="6.84103">
        <ele>1556.2</ele>
        <time>2021-05-27T12:45:09Z</time>
      </trkpt>
      <trkpt lat="45.62181" lon="6.84114">
        <ele>1555.8</ele>
        <time>2021-05-27T12:45:10Z</time>
      </trkpt>
      <trkpt lat="45.62174" lon="6.84127">
        <ele>1555.4</ele>
        <time>2021-05-27T12:45:11Z</time>
      </trkpt>
      <trkpt lat="45.62167" lon="6.8414">
        <ele>1555.2</ele>
        <time>2021-05-27T12:45:12Z</time>
      </trkpt>
      <trkpt lat="45.62159" lon="6.84152">
        <ele>1554.6</ele>
        <time>2021-05-27T12:45:13Z</time>
      </trkpt>
      <trkpt lat="45.62151" lon="6.84163">
        <ele>1554.4</ele>
        <time>2021-05-27T12:45:14Z</time>
      </trkpt>
      <trkpt lat="45.62142" lon="6.84173">
        <ele>1554.4</ele>
        <time>2021-05-27T12:45:15Z</time>
      </trkpt>
      <trkpt lat="45.62133" lon="6.84183">
        <ele>1554</ele>
        <time>2021-05-27T12:45:16Z</time>
      </trkpt>
      <trkpt lat="45.62125" lon="6.84192">
        <ele>1553.6</ele>
        <time>2021-05-27T12:45:17Z</time>
      </trkpt>
      <trkpt lat="45.62116" lon="6.84203">
        <ele>1553.2</ele>
        <time>2021-05-27T12:45:18Z</time>
      </trkpt>
      <trkpt lat="45.62108" lon="6.84214">
        <ele>1552.6</ele>
        <time>2021-05-27T12:45:19Z</time>
      </trkpt>
      <trkpt lat="45.62101" lon="6.84226">
        <ele>1552.2</ele>
        <time>2021-05-27T12:45:20Z</time>
      </trkpt>
      <trkpt lat="45.62095" lon="6.84238">
        <ele>1551.8</ele>
        <time>2021-05-27T12:45:21Z</time>
      </trkpt>
      <trkpt lat="45.62088" lon="6.84251">
        <ele>1551.8</ele>
        <time>2021-05-27T12:45:22Z</time>
      </trkpt>
      <trkpt lat="45.62082" lon="6.84264">
        <ele>1551.4</ele>
        <time>2021-05-27T12:45:23Z</time>
      </trkpt>
      <trkpt lat="45.62076" lon="6.84277">
        <ele>1551</ele>
        <time>2021-05-27T12:45:24Z</time>
      </trkpt>
      <trkpt lat="45.62069" lon="6.8429">
        <ele>1551</ele>
        <time>2021-05-27T12:45:25Z</time>
      </trkpt>
      <trkpt lat="45.62063" lon="6.84304">
        <ele>1550.4</ele>
        <time>2021-05-27T12:45:26Z</time>
      </trkpt>
      <trkpt lat="45.62057" lon="6.84317">
        <ele>1549.8</ele>
        <time>2021-05-27T12:45:27Z</time>
      </trkpt>
      <trkpt lat="45.62051" lon="6.84331">
        <ele>1549.2</ele>
        <time>2021-05-27T12:45:28Z</time>
      </trkpt>
      <trkpt lat="45.62046" lon="6.84345">
        <ele>1548.6</ele>
        <time>2021-05-27T12:45:29Z</time>
      </trkpt>
      <trkpt lat="45.62041" lon="6.84359">
        <ele>1548</ele>
        <time>2021-05-27T12:45:30Z</time>
      </trkpt>
      <trkpt lat="45.62036" lon="6.84373">
        <ele>1547.6</ele>
        <time>2021-05-27T12:45:31Z</time>
      </trkpt>
      <trkpt lat="45.62031" lon="6.84388">
        <ele>1547.4</ele>
        <time>2021-05-27T12:45:32Z</time>
      </trkpt>
      <trkpt lat="45.62026" lon="6.84402">
        <ele>1546.6</ele>
        <time>2021-05-27T12:45:33Z</time>
      </trkpt>
      <trkpt lat="45.6202" lon="6.84415">
        <ele>1546.2</ele>
        <time>2021-05-27T12:45:34Z</time>
      </trkpt>
      <trkpt lat="45.62014" lon="6.84428">
        <ele>1546</ele>
        <time>2021-05-27T12:45:35Z</time>
      </trkpt>
      <trkpt lat="45.62007" lon="6.8444">
        <ele>1545.6</ele>
        <time>2021-05-27T12:45:36Z</time>
      </trkpt>
      <trkpt lat="45.62" lon="6.84452">
        <ele>1545.2</ele>
        <time>2021-05-27T12:45:37Z</time>
      </trkpt>
      <trkpt lat="45.61994" lon="6.84466">
        <ele>1544.8</ele>
        <time>2021-05-27T12:45:38Z</time>
      </trkpt>
      <trkpt lat="45.61988" lon="6.84479">
        <ele>1544</ele>
        <time>2021-05-27T12:45:39Z</time>
      </trkpt>
      <trkpt lat="45.61983" lon="6.84492">
        <ele>1543.2</ele>
        <time>2021-05-27T12:45:40Z</time>
      </trkpt>
      <trkpt lat="45.6198" lon="6.84504">
        <ele>1542.6</ele>
        <time>2021-05-27T12:45:41Z</time>
      </trkpt>
      <trkpt lat="45.61976" lon="6.84513">
        <ele>1541.8</ele>
        <time>2021-05-27T12:45:42Z</time>
      </trkpt>
      <trkpt lat="45.61971" lon="6.84517">
        <ele>1541.4</ele>
        <time>2021-05-27T12:45:43Z</time>
      </trkpt>
      <trkpt lat="45.61967" lon="6.84514">
        <ele>1541.4</ele>
        <time>2021-05-27T12:45:44Z</time>
      </trkpt>
      <trkpt lat="45.61965" lon="6.84506">
        <ele>1541.2</ele>
        <time>2021-05-27T12:45:45Z</time>
      </trkpt>
      <trkpt lat="45.61966" lon="6.84496">
        <ele>1541</ele>
        <time>2021-05-27T12:45:46Z</time>
      </trkpt>
      <trkpt lat="45.61969" lon="6.84488">
        <ele>1541.2</ele>
        <time>2021-05-27T12:45:47Z</time>
      </trkpt>
      <trkpt lat="45.61973" lon="6.84479">
        <ele>1541.2</ele>
        <time>2021-05-27T12:45:48Z</time>
      </trkpt>
      <trkpt lat="45.61977" lon="6.8447">
        <ele>1541.2</ele>
        <time>2021-05-27T12:45:49Z</time>
      </trkpt>
      <trkpt lat="45.61982" lon="6.8446">
        <ele>1540.8</ele>
        <time>2021-05-27T12:45:50Z</time>
      </trkpt>
      <trkpt lat="45.61987" lon="6.8445">
        <ele>1540.6</ele>
        <time>2021-05-27T12:45:51Z</time>
      </trkpt>
      <trkpt lat="45.61992" lon="6.8444">
        <ele>1540.4</ele>
        <time>2021-05-27T12:45:52Z</time>
      </trkpt>
      <trkpt lat="45.61998" lon="6.8443">
        <ele>1540.2</ele>
        <time>2021-05-27T12:45:53Z</time>
      </trkpt>
      <trkpt lat="45.62003" lon="6.84421">
        <ele>1540</ele>
        <time>2021-05-27T12:45:54Z</time>
      </trkpt>
      <trkpt lat="45.62009" lon="6.84411">
        <ele>1540.2</ele>
        <time>2021-05-27T12:45:55Z</time>
      </trkpt>
      <trkpt lat="45.62014" lon="6.844">
        <ele>1540.4</ele>
        <time>2021-05-27T12:45:56Z</time>
      </trkpt>
      <trkpt lat="45.62018" lon="6.84388">
        <ele>1540.2</ele>
        <time>2021-05-27T12:45:57Z</time>
      </trkpt>
      <trkpt lat="45.62022" lon="6.84376">
        <ele>1540.2</ele>
        <time>2021-05-27T12:45:58Z</time>
      </trkpt>
      <trkpt lat="45.62026" lon="6.84363">
        <ele>1540</ele>
        <time>2021-05-27T12:45:59Z</time>
      </trkpt>
      <trkpt lat="45.62029" lon="6.8435">
        <ele>1540.2</ele>
        <time>2021-05-27T12:46:00Z</time>
      </trkpt>
      <trkpt lat="45.62033" lon="6.84336">
        <ele>1540.4</ele>
        <time>2021-05-27T12:46:01Z</time>
      </trkpt>
      <trkpt lat="45.62037" lon="6.84323">
        <ele>1540.2</ele>
        <time>2021-05-27T12:46:02Z</time>
      </trkpt>
      <trkpt lat="45.62042" lon="6.84309">
        <ele>1539.2</ele>
        <time>2021-05-27T12:46:03Z</time>
      </trkpt>
      <trkpt lat="45.62046" lon="6.84296">
        <ele>1538.4</ele>
        <time>2021-05-27T12:46:04Z</time>
      </trkpt>
      <trkpt lat="45.6205" lon="6.84282">
        <ele>1538.6</ele>
        <time>2021-05-27T12:46:05Z</time>
      </trkpt>
      <trkpt lat="45.62054" lon="6.84269">
        <ele>1538.8</ele>
        <time>2021-05-27T12:46:06Z</time>
      </trkpt>
      <trkpt lat="45.62059" lon="6.84255">
        <ele>1538.2</ele>
        <time>2021-05-27T12:46:07Z</time>
      </trkpt>
      <trkpt lat="45.62064" lon="6.8424">
        <ele>1538</ele>
        <time>2021-05-27T12:46:08Z</time>
      </trkpt>
      <trkpt lat="45.62068" lon="6.84226">
        <ele>1537.4</ele>
        <time>2021-05-27T12:46:09Z</time>
      </trkpt>
      <trkpt lat="45.62073" lon="6.84212">
        <ele>1537.2</ele>
        <time>2021-05-27T12:46:10Z</time>
      </trkpt>
      <trkpt lat="45.62078" lon="6.84197">
        <ele>1537</ele>
        <time>2021-05-27T12:46:11Z</time>
      </trkpt>
      <trkpt lat="45.62083" lon="6.84183">
        <ele>1536.6</ele>
        <time>2021-05-27T12:46:12Z</time>
      </trkpt>
      <trkpt lat="45.62088" lon="6.84169">
        <ele>1535.8</ele>
        <time>2021-05-27T12:46:13Z</time>
      </trkpt>
      <trkpt lat="45.62095" lon="6.84156">
        <ele>1535.2</ele>
        <time>2021-05-27T12:46:14Z</time>
      </trkpt>
      <trkpt lat="45.62102" lon="6.84145">
        <ele>1534.6</ele>
        <time>2021-05-27T12:46:15Z</time>
      </trkpt>
      <trkpt lat="45.62111" lon="6.84134">
        <ele>1533</ele>
        <time>2021-05-27T12:46:16Z</time>
      </trkpt>
      <trkpt lat="45.62119" lon="6.84123">
        <ele>1531.4</ele>
        <time>2021-05-27T12:46:17Z</time>
      </trkpt>
      <trkpt lat="45.62128" lon="6.84112">
        <ele>1531</ele>
        <time>2021-05-27T12:46:18Z</time>
      </trkpt>
      <trkpt lat="45.62136" lon="6.84102">
        <ele>1531</ele>
        <time>2021-05-27T12:46:19Z</time>
      </trkpt>
      <trkpt lat="45.62144" lon="6.84091">
        <ele>1531.4</ele>
        <time>2021-05-27T12:46:20Z</time>
      </trkpt>
      <trkpt lat="45.62151" lon="6.8408">
        <ele>1530.8</ele>
        <time>2021-05-27T12:46:21Z</time>
      </trkpt>
      <trkpt lat="45.62159" lon="6.84069">
        <ele>1530.4</ele>
        <time>2021-05-27T12:46:22Z</time>
      </trkpt>
      <trkpt lat="45.62167" lon="6.84058">
        <ele>1529.4</ele>
        <time>2021-05-27T12:46:23Z</time>
      </trkpt>
      <trkpt lat="45.62175" lon="6.84046">
        <ele>1528.4</ele>
        <time>2021-05-27T12:46:24Z</time>
      </trkpt>
      <trkpt lat="45.62184" lon="6.84035">
        <ele>1527.2</ele>
        <time>2021-05-27T12:46:25Z</time>
      </trkpt>
      <trkpt lat="45.62192" lon="6.84023">
        <ele>1526.4</ele>
        <time>2021-05-27T12:46:26Z</time>
      </trkpt>
      <trkpt lat="45.62201" lon="6.84011">
        <ele>1525.6</ele>
        <time>2021-05-27T12:46:27Z</time>
      </trkpt>
      <trkpt lat="45.6221" lon="6.83999">
        <ele>1524.4</ele>
        <time>2021-05-27T12:46:28Z</time>
      </trkpt>
      <trkpt lat="45.62219" lon="6.83987">
        <ele>1523.6</ele>
        <time>2021-05-27T12:46:29Z</time>
      </trkpt>
      <trkpt lat="45.62228" lon="6.83975">
        <ele>1522.6</ele>
        <time>2021-05-27T12:46:30Z</time>
      </trkpt>
      <trkpt lat="45.62237" lon="6.83963">
        <ele>1521.4</ele>
        <time>2021-05-27T12:46:31Z</time>
      </trkpt>
      <trkpt lat="45.62245" lon="6.83949">
        <ele>1520.2</ele>
        <time>2021-05-27T12:46:32Z</time>
      </trkpt>
      <trkpt lat="45.62253" lon="6.83935">
        <ele>1519.2</ele>
        <time>2021-05-27T12:46:33Z</time>
      </trkpt>
      <trkpt lat="45.6226" lon="6.8392">
        <ele>1518</ele>
        <time>2021-05-27T12:46:34Z</time>
      </trkpt>
      <trkpt lat="45.62268" lon="6.83906">
        <ele>1517</ele>
        <time>2021-05-27T12:46:35Z</time>
      </trkpt>
      <trkpt lat="45.62273" lon="6.8389">
        <ele>1516</ele>
        <time>2021-05-27T12:46:36Z</time>
      </trkpt>
      <trkpt lat="45.62279" lon="6.83874">
        <ele>1514.8</ele>
        <time>2021-05-27T12:46:37Z</time>
      </trkpt>
      <trkpt lat="45.62284" lon="6.83858">
        <ele>1514</ele>
        <time>2021-05-27T12:46:38Z</time>
      </trkpt>
      <trkpt lat="45.6229" lon="6.83843">
        <ele>1513.6</ele>
        <time>2021-05-27T12:46:39Z</time>
      </trkpt>
      <trkpt lat="45.62296" lon="6.83828">
        <ele>1513</ele>
        <time>2021-05-27T12:46:40Z</time>
      </trkpt>
      <trkpt lat="45.62303" lon="6.83815">
        <ele>1511.8</ele>
        <time>2021-05-27T12:46:41Z</time>
      </trkpt>
      <trkpt lat="45.62311" lon="6.83803">
        <ele>1510.8</ele>
        <time>2021-05-27T12:46:42Z</time>
      </trkpt>
      <trkpt lat="45.62321" lon="6.83794">
        <ele>1510</ele>
        <time>2021-05-27T12:46:43Z</time>
      </trkpt>
      <trkpt lat="45.62331" lon="6.83787">
        <ele>1509.4</ele>
        <time>2021-05-27T12:46:44Z</time>
      </trkpt>
      <trkpt lat="45.62342" lon="6.83781">
        <ele>1508.6</ele>
        <time>2021-05-27T12:46:45Z</time>
      </trkpt>
      <trkpt lat="45.62352" lon="6.83775">
        <ele>1507.4</ele>
        <time>2021-05-27T12:46:46Z</time>
      </trkpt>
      <trkpt lat="45.62362" lon="6.83768">
        <ele>1506.4</ele>
        <time>2021-05-27T12:46:47Z</time>
      </trkpt>
      <trkpt lat="45.62371" lon="6.83759">
        <ele>1505.8</ele>
        <time>2021-05-27T12:46:48Z</time>
      </trkpt>
      <trkpt lat="45.62377" lon="6.83746">
        <ele>1504.8</ele>
        <time>2021-05-27T12:46:49Z</time>
      </trkpt>
      <trkpt lat="45.62383" lon="6.83732">
        <ele>1504.2</ele>
        <time>2021-05-27T12:46:50Z</time>
      </trkpt>
      <trkpt lat="45.6239" lon="6.83719">
        <ele>1503.6</ele>
        <time>2021-05-27T12:46:51Z</time>
      </trkpt>
      <trkpt lat="45.62398" lon="6.83709">
        <ele>1503.2</ele>
        <time>2021-05-27T12:46:52Z</time>
      </trkpt>
      <trkpt lat="45.62408" lon="6.83698">
        <ele>1502.2</ele>
        <time>2021-05-27T12:46:53Z</time>
      </trkpt>
      <trkpt lat="45.62416" lon="6.83687">
        <ele>1501.4</ele>
        <time>2021-05-27T12:46:54Z</time>
      </trkpt>
      <trkpt lat="45.62422" lon="6.83673">
        <ele>1500.8</ele>
        <time>2021-05-27T12:46:55Z</time>
      </trkpt>
      <trkpt lat="45.62426" lon="6.83657">
        <ele>1500.4</ele>
        <time>2021-05-27T12:46:56Z</time>
      </trkpt>
      <trkpt lat="45.6243" lon="6.83642">
        <ele>1499.8</ele>
        <time>2021-05-27T12:46:57Z</time>
      </trkpt>
      <trkpt lat="45.62432" lon="6.83626">
        <ele>1499.2</ele>
        <time>2021-05-27T12:46:58Z</time>
      </trkpt>
      <trkpt lat="45.62435" lon="6.83611">
        <ele>1498.6</ele>
        <time>2021-05-27T12:46:59Z</time>
      </trkpt>
      <trkpt lat="45.62439" lon="6.83598">
        <ele>1498</ele>
        <time>2021-05-27T12:47:00Z</time>
      </trkpt>
      <trkpt lat="45.62446" lon="6.83587">
        <ele>1497.4</ele>
        <time>2021-05-27T12:47:01Z</time>
      </trkpt>
      <trkpt lat="45.62455" lon="6.83578">
        <ele>1496.6</ele>
        <time>2021-05-27T12:47:02Z</time>
      </trkpt>
      <trkpt lat="45.62463" lon="6.8357">
        <ele>1496.2</ele>
        <time>2021-05-27T12:47:03Z</time>
      </trkpt>
      <trkpt lat="45.62473" lon="6.83563">
        <ele>1495.8</ele>
        <time>2021-05-27T12:47:04Z</time>
      </trkpt>
      <trkpt lat="45.62483" lon="6.83555">
        <ele>1495</ele>
        <time>2021-05-27T12:47:05Z</time>
      </trkpt>
      <trkpt lat="45.62492" lon="6.83547">
        <ele>1494</ele>
        <time>2021-05-27T12:47:06Z</time>
      </trkpt>
      <trkpt lat="45.62501" lon="6.83538">
        <ele>1493.4</ele>
        <time>2021-05-27T12:47:07Z</time>
      </trkpt>
      <trkpt lat="45.62511" lon="6.8353">
        <ele>1492.6</ele>
        <time>2021-05-27T12:47:08Z</time>
      </trkpt>
      <trkpt lat="45.62521" lon="6.83521">
        <ele>1492.2</ele>
        <time>2021-05-27T12:47:09Z</time>
      </trkpt>
      <trkpt lat="45.62531" lon="6.83513">
        <ele>1491.6</ele>
        <time>2021-05-27T12:47:10Z</time>
      </trkpt>
      <trkpt lat="45.62541" lon="6.83504">
        <ele>1490.8</ele>
        <time>2021-05-27T12:47:11Z</time>
      </trkpt>
      <trkpt lat="45.6255" lon="6.83496">
        <ele>1490</ele>
        <time>2021-05-27T12:47:12Z</time>
      </trkpt>
      <trkpt lat="45.62559" lon="6.83486">
        <ele>1489.2</ele>
        <time>2021-05-27T12:47:13Z</time>
      </trkpt>
      <trkpt lat="45.62568" lon="6.83474">
        <ele>1488.4</ele>
        <time>2021-05-27T12:47:14Z</time>
      </trkpt>
      <trkpt lat="45.62574" lon="6.83461">
        <ele>1487.8</ele>
        <time>2021-05-27T12:47:15Z</time>
      </trkpt>
      <trkpt lat="45.62579" lon="6.83448">
        <ele>1487.2</ele>
        <time>2021-05-27T12:47:16Z</time>
      </trkpt>
      <trkpt lat="45.62584" lon="6.83434">
        <ele>1486.6</ele>
        <time>2021-05-27T12:47:17Z</time>
      </trkpt>
      <trkpt lat="45.62587" lon="6.83419">
        <ele>1485.8</ele>
        <time>2021-05-27T12:47:18Z</time>
      </trkpt>
      <trkpt lat="45.62588" lon="6.83402">
        <ele>1485.6</ele>
        <time>2021-05-27T12:47:19Z</time>
      </trkpt>
      <trkpt lat="45.62592" lon="6.83387">
        <ele>1484.8</ele>
        <time>2021-05-27T12:47:20Z</time>
      </trkpt>
      <trkpt lat="45.62597" lon="6.83373">
        <ele>1484.6</ele>
        <time>2021-05-27T12:47:21Z</time>
      </trkpt>
      <trkpt lat="45.62604" lon="6.83362">
        <ele>1484</ele>
        <time>2021-05-27T12:47:22Z</time>
      </trkpt>
      <trkpt lat="45.62614" lon="6.83352">
        <ele>1483</ele>
        <time>2021-05-27T12:47:23Z</time>
      </trkpt>
      <trkpt lat="45.62623" lon="6.83344">
        <ele>1482.2</ele>
        <time>2021-05-27T12:47:24Z</time>
      </trkpt>
      <trkpt lat="45.62631" lon="6.83333">
        <ele>1481.6</ele>
        <time>2021-05-27T12:47:25Z</time>
      </trkpt>
      <trkpt lat="45.6264" lon="6.83321">
        <ele>1480.8</ele>
        <time>2021-05-27T12:47:26Z</time>
      </trkpt>
      <trkpt lat="45.62648" lon="6.83308">
        <ele>1480.4</ele>
        <time>2021-05-27T12:47:27Z</time>
      </trkpt>
      <trkpt lat="45.62654" lon="6.83295">
        <ele>1479.8</ele>
        <time>2021-05-27T12:47:28Z</time>
      </trkpt>
      <trkpt lat="45.62659" lon="6.83281">
        <ele>1479.4</ele>
        <time>2021-05-27T12:47:29Z</time>
      </trkpt>
      <trkpt lat="45.62664" lon="6.83266">
        <ele>1478.8</ele>
        <time>2021-05-27T12:47:30Z</time>
      </trkpt>
      <trkpt lat="45.62668" lon="6.83252">
        <ele>1478.2</ele>
        <time>2021-05-27T12:47:31Z</time>
      </trkpt>
      <trkpt lat="45.62673" lon="6.83238">
        <ele>1477.8</ele>
        <time>2021-05-27T12:47:32Z</time>
      </trkpt>
      <trkpt lat="45.62678" lon="6.83224">
        <ele>1477.2</ele>
        <time>2021-05-27T12:47:33Z</time>
      </trkpt>
      <trkpt lat="45.62684" lon="6.8321">
        <ele>1476.4</ele>
        <time>2021-05-27T12:47:34Z</time>
      </trkpt>
      <trkpt lat="45.62689" lon="6.83196">
        <ele>1475.6</ele>
        <time>2021-05-27T12:47:35Z</time>
      </trkpt>
      <trkpt lat="45.62693" lon="6.83181">
        <ele>1475</ele>
        <time>2021-05-27T12:47:36Z</time>
      </trkpt>
      <trkpt lat="45.62695" lon="6.83165">
        <ele>1474.2</ele>
        <time>2021-05-27T12:47:37Z</time>
      </trkpt>
      <trkpt lat="45.62697" lon="6.83149">
        <ele>1473.8</ele>
        <time>2021-05-27T12:47:38Z</time>
      </trkpt>
      <trkpt lat="45.62698" lon="6.83132">
        <ele>1473</ele>
        <time>2021-05-27T12:47:39Z</time>
      </trkpt>
      <trkpt lat="45.627" lon="6.83116">
        <ele>1472.6</ele>
        <time>2021-05-27T12:47:40Z</time>
      </trkpt>
      <trkpt lat="45.62702" lon="6.83099">
        <ele>1472</ele>
        <time>2021-05-27T12:47:41Z</time>
      </trkpt>
      <trkpt lat="45.62705" lon="6.83084">
        <ele>1471.6</ele>
        <time>2021-05-27T12:47:42Z</time>
      </trkpt>
      <trkpt lat="45.62709" lon="6.83068">
        <ele>1470.8</ele>
        <time>2021-05-27T12:47:43Z</time>
      </trkpt>
      <trkpt lat="45.62711" lon="6.83052">
        <ele>1470</ele>
        <time>2021-05-27T12:47:44Z</time>
      </trkpt>
      <trkpt lat="45.62712" lon="6.83035">
        <ele>1469</ele>
        <time>2021-05-27T12:47:45Z</time>
      </trkpt>
      <trkpt lat="45.62712" lon="6.83018">
        <ele>1468</ele>
        <time>2021-05-27T12:47:46Z</time>
      </trkpt>
      <trkpt lat="45.62709" lon="6.83003">
        <ele>1467.4</ele>
        <time>2021-05-27T12:47:47Z</time>
      </trkpt>
      <trkpt lat="45.62704" lon="6.82988">
        <ele>1467</ele>
        <time>2021-05-27T12:47:48Z</time>
      </trkpt>
      <trkpt lat="45.62699" lon="6.82974">
        <ele>1466.4</ele>
        <time>2021-05-27T12:47:49Z</time>
      </trkpt>
      <trkpt lat="45.62694" lon="6.8296">
        <ele>1465.6</ele>
        <time>2021-05-27T12:47:50Z</time>
      </trkpt>
      <trkpt lat="45.62688" lon="6.82946">
        <ele>1464.8</ele>
        <time>2021-05-27T12:47:51Z</time>
      </trkpt>
      <trkpt lat="45.62683" lon="6.82932">
        <ele>1464.2</ele>
        <time>2021-05-27T12:47:52Z</time>
      </trkpt>
      <trkpt lat="45.62677" lon="6.82918">
        <ele>1463.8</ele>
        <time>2021-05-27T12:47:53Z</time>
      </trkpt>
      <trkpt lat="45.62672" lon="6.82904">
        <ele>1463.4</ele>
        <time>2021-05-27T12:47:54Z</time>
      </trkpt>
      <trkpt lat="45.62666" lon="6.82889">
        <ele>1462.8</ele>
        <time>2021-05-27T12:47:55Z</time>
      </trkpt>
      <trkpt lat="45.6266" lon="6.82876">
        <ele>1461.8</ele>
        <time>2021-05-27T12:47:56Z</time>
      </trkpt>
      <trkpt lat="45.62655" lon="6.82862">
        <ele>1461.4</ele>
        <time>2021-05-27T12:47:57Z</time>
      </trkpt>
      <trkpt lat="45.6265" lon="6.82848">
        <ele>1461</ele>
        <time>2021-05-27T12:47:58Z</time>
      </trkpt>
      <trkpt lat="45.62645" lon="6.82834">
        <ele>1461</ele>
        <time>2021-05-27T12:47:59Z</time>
      </trkpt>
      <trkpt lat="45.62642" lon="6.82822">
        <ele>1461</ele>
        <time>2021-05-27T12:48:00Z</time>
      </trkpt>
      <trkpt lat="45.6264" lon="6.82807">
        <ele>1460.2</ele>
        <time>2021-05-27T12:48:01Z</time>
      </trkpt>
      <trkpt lat="45.62639" lon="6.82794">
        <ele>1459.8</ele>
        <time>2021-05-27T12:48:02Z</time>
      </trkpt>
      <trkpt lat="45.62642" lon="6.82782">
        <ele>1459</ele>
        <time>2021-05-27T12:48:03Z</time>
      </trkpt>
      <trkpt lat="45.62647" lon="6.82773">
        <ele>1458.4</ele>
        <time>2021-05-27T12:48:04Z</time>
      </trkpt>
      <trkpt lat="45.62655" lon="6.82767">
        <ele>1457.6</ele>
        <time>2021-05-27T12:48:05Z</time>
      </trkpt>
      <trkpt lat="45.62665" lon="6.82764">
        <ele>1456.8</ele>
        <time>2021-05-27T12:48:06Z</time>
      </trkpt>
      <trkpt lat="45.62675" lon="6.82761">
        <ele>1456</ele>
        <time>2021-05-27T12:48:07Z</time>
      </trkpt>
      <trkpt lat="45.62684" lon="6.82758">
        <ele>1455.4</ele>
        <time>2021-05-27T12:48:08Z</time>
      </trkpt>
      <trkpt lat="45.62693" lon="6.82754">
        <ele>1455</ele>
        <time>2021-05-27T12:48:09Z</time>
      </trkpt>
      <trkpt lat="45.62703" lon="6.8275">
        <ele>1454.4</ele>
        <time>2021-05-27T12:48:10Z</time>
      </trkpt>
      <trkpt lat="45.62712" lon="6.82744">
        <ele>1454.2</ele>
        <time>2021-05-27T12:48:11Z</time>
      </trkpt>
      <trkpt lat="45.6272" lon="6.82737">
        <ele>1453.6</ele>
        <time>2021-05-27T12:48:12Z</time>
      </trkpt>
      <trkpt lat="45.62727" lon="6.82727">
        <ele>1453</ele>
        <time>2021-05-27T12:48:13Z</time>
      </trkpt>
      <trkpt lat="45.62735" lon="6.82716">
        <ele>1452.6</ele>
        <time>2021-05-27T12:48:14Z</time>
      </trkpt>
      <trkpt lat="45.62742" lon="6.82707">
        <ele>1452.6</ele>
        <time>2021-05-27T12:48:15Z</time>
      </trkpt>
      <trkpt lat="45.62749" lon="6.82699">
        <ele>1452.2</ele>
        <time>2021-05-27T12:48:16Z</time>
      </trkpt>
      <trkpt lat="45.62757" lon="6.82692">
        <ele>1451.4</ele>
        <time>2021-05-27T12:48:17Z</time>
      </trkpt>
      <trkpt lat="45.62768" lon="6.82691">
        <ele>1450.8</ele>
        <time>2021-05-27T12:48:18Z</time>
      </trkpt>
      <trkpt lat="45.62779" lon="6.82693">
        <ele>1450</ele>
        <time>2021-05-27T12:48:19Z</time>
      </trkpt>
      <trkpt lat="45.62789" lon="6.82697">
        <ele>1449.8</ele>
        <time>2021-05-27T12:48:20Z</time>
      </trkpt>
      <trkpt lat="45.62799" lon="6.82701">
        <ele>1449.4</ele>
        <time>2021-05-27T12:48:21Z</time>
      </trkpt>
      <trkpt lat="45.62808" lon="6.82702">
        <ele>1449.2</ele>
        <time>2021-05-27T12:48:22Z</time>
      </trkpt>
      <trkpt lat="45.62817" lon="6.827">
        <ele>1448.6</ele>
        <time>2021-05-27T12:48:23Z</time>
      </trkpt>
      <trkpt lat="45.62823" lon="6.82696">
        <ele>1448</ele>
        <time>2021-05-27T12:48:24Z</time>
      </trkpt>
      <trkpt lat="45.62825" lon="6.82689">
        <ele>1447.8</ele>
        <time>2021-05-27T12:48:25Z</time>
      </trkpt>
      <trkpt lat="45.62823" lon="6.82681">
        <ele>1447.4</ele>
        <time>2021-05-27T12:48:26Z</time>
      </trkpt>
      <trkpt lat="45.62816" lon="6.82676">
        <ele>1447.2</ele>
        <time>2021-05-27T12:48:27Z</time>
      </trkpt>
      <trkpt lat="45.62807" lon="6.82674">
        <ele>1447</ele>
        <time>2021-05-27T12:48:28Z</time>
      </trkpt>
      <trkpt lat="45.62799" lon="6.82672">
        <ele>1446.8</ele>
        <time>2021-05-27T12:48:29Z</time>
      </trkpt>
      <trkpt lat="45.6279" lon="6.8267">
        <ele>1446.4</ele>
        <time>2021-05-27T12:48:30Z</time>
      </trkpt>
      <trkpt lat="45.62781" lon="6.82669">
        <ele>1446</ele>
        <time>2021-05-27T12:48:31Z</time>
      </trkpt>
      <trkpt lat="45.62772" lon="6.82668">
        <ele>1446</ele>
        <time>2021-05-27T12:48:32Z</time>
      </trkpt>
      <trkpt lat="45.62762" lon="6.82668">
        <ele>1445.6</ele>
        <time>2021-05-27T12:48:33Z</time>
      </trkpt>
      <trkpt lat="45.62752" lon="6.82668">
        <ele>1445.2</ele>
        <time>2021-05-27T12:48:34Z</time>
      </trkpt>
      <trkpt lat="45.62743" lon="6.82669">
        <ele>1444.8</ele>
        <time>2021-05-27T12:48:35Z</time>
      </trkpt>
      <trkpt lat="45.62733" lon="6.82672">
        <ele>1444.2</ele>
        <time>2021-05-27T12:48:36Z</time>
      </trkpt>
      <trkpt lat="45.62724" lon="6.82678">
        <ele>1443.8</ele>
        <time>2021-05-27T12:48:37Z</time>
      </trkpt>
      <trkpt lat="45.62714" lon="6.82684">
        <ele>1443</ele>
        <time>2021-05-27T12:48:38Z</time>
      </trkpt>
      <trkpt lat="45.62703" lon="6.8269">
        <ele>1442.6</ele>
        <time>2021-05-27T12:48:39Z</time>
      </trkpt>
      <trkpt lat="45.6269" lon="6.82694">
        <ele>1442</ele>
        <time>2021-05-27T12:48:40Z</time>
      </trkpt>
      <trkpt lat="45.62679" lon="6.82695">
        <ele>1441.4</ele>
        <time>2021-05-27T12:48:41Z</time>
      </trkpt>
      <trkpt lat="45.62667" lon="6.82697">
        <ele>1441</ele>
        <time>2021-05-27T12:48:42Z</time>
      </trkpt>
      <trkpt lat="45.62654" lon="6.82698">
        <ele>1440.8</ele>
        <time>2021-05-27T12:48:43Z</time>
      </trkpt>
      <trkpt lat="45.62643" lon="6.827">
        <ele>1440.4</ele>
        <time>2021-05-27T12:48:44Z</time>
      </trkpt>
      <trkpt lat="45.62631" lon="6.82703">
        <ele>1440</ele>
        <time>2021-05-27T12:48:45Z</time>
      </trkpt>
      <trkpt lat="45.62619" lon="6.82708">
        <ele>1439.4</ele>
        <time>2021-05-27T12:48:46Z</time>
      </trkpt>
      <trkpt lat="45.62608" lon="6.82715">
        <ele>1439</ele>
        <time>2021-05-27T12:48:47Z</time>
      </trkpt>
      <trkpt lat="45.62598" lon="6.82723">
        <ele>1438.4</ele>
        <time>2021-05-27T12:48:48Z</time>
      </trkpt>
      <trkpt lat="45.62588" lon="6.82733">
        <ele>1438</ele>
        <time>2021-05-27T12:48:49Z</time>
      </trkpt>
      <trkpt lat="45.62579" lon="6.82744">
        <ele>1437</ele>
        <time>2021-05-27T12:48:50Z</time>
      </trkpt>
      <trkpt lat="45.62572" lon="6.82758">
        <ele>1436.2</ele>
        <time>2021-05-27T12:48:51Z</time>
      </trkpt>
      <trkpt lat="45.62566" lon="6.82772">
        <ele>1435.4</ele>
        <time>2021-05-27T12:48:52Z</time>
      </trkpt>
      <trkpt lat="45.62563" lon="6.82789">
        <ele>1434.8</ele>
        <time>2021-05-27T12:48:53Z</time>
      </trkpt>
      <trkpt lat="45.62561" lon="6.82805">
        <ele>1434.2</ele>
        <time>2021-05-27T12:48:54Z</time>
      </trkpt>
      <trkpt lat="45.62561" lon="6.82823">
        <ele>1433.8</ele>
        <time>2021-05-27T12:48:55Z</time>
      </trkpt>
      <trkpt lat="45.62563" lon="6.82841">
        <ele>1433</ele>
        <time>2021-05-27T12:48:56Z</time>
      </trkpt>
      <trkpt lat="45.62565" lon="6.82859">
        <ele>1432.2</ele>
        <time>2021-05-27T12:48:57Z</time>
      </trkpt>
      <trkpt lat="45.62568" lon="6.82878">
        <ele>1431.8</ele>
        <time>2021-05-27T12:48:58Z</time>
      </trkpt>
      <trkpt lat="45.6257" lon="6.82896">
        <ele>1431.6</ele>
        <time>2021-05-27T12:48:59Z</time>
      </trkpt>
      <trkpt lat="45.62569" lon="6.82915">
        <ele>1431.4</ele>
        <time>2021-05-27T12:49:00Z</time>
      </trkpt>
      <trkpt lat="45.62567" lon="6.82933">
        <ele>1431</ele>
        <time>2021-05-27T12:49:01Z</time>
      </trkpt>
      <trkpt lat="45.62565" lon="6.82952">
        <ele>1430.4</ele>
        <time>2021-05-27T12:49:02Z</time>
      </trkpt>
      <trkpt lat="45.62563" lon="6.82971">
        <ele>1429.8</ele>
        <time>2021-05-27T12:49:03Z</time>
      </trkpt>
      <trkpt lat="45.62562" lon="6.8299">
        <ele>1429.8</ele>
        <time>2021-05-27T12:49:04Z</time>
      </trkpt>
      <trkpt lat="45.62562" lon="6.83008">
        <ele>1429.2</ele>
        <time>2021-05-27T12:49:05Z</time>
      </trkpt>
      <trkpt lat="45.62563" lon="6.83028">
        <ele>1428.6</ele>
        <time>2021-05-27T12:49:06Z</time>
      </trkpt>
      <trkpt lat="45.62565" lon="6.83046">
        <ele>1427.6</ele>
        <time>2021-05-27T12:49:07Z</time>
      </trkpt>
      <trkpt lat="45.62568" lon="6.83064">
        <ele>1426.6</ele>
        <time>2021-05-27T12:49:08Z</time>
      </trkpt>
      <trkpt lat="45.6257" lon="6.83082">
        <ele>1425.6</ele>
        <time>2021-05-27T12:49:09Z</time>
      </trkpt>
      <trkpt lat="45.62571" lon="6.83104">
        <ele>1424.6</ele>
        <time>2021-05-27T12:49:10Z</time>
      </trkpt>
      <trkpt lat="45.62572" lon="6.83121">
        <ele>1424.2</ele>
        <time>2021-05-27T12:49:11Z</time>
      </trkpt>
      <trkpt lat="45.62571" lon="6.83134">
        <ele>1423.2</ele>
        <time>2021-05-27T12:49:12Z</time>
      </trkpt>
      <trkpt lat="45.62568" lon="6.8315">
        <ele>1422.2</ele>
        <time>2021-05-27T12:49:13Z</time>
      </trkpt>
      <trkpt lat="45.62562" lon="6.83163">
        <ele>1421.6</ele>
        <time>2021-05-27T12:49:14Z</time>
      </trkpt>
      <trkpt lat="45.62554" lon="6.83174">
        <ele>1421.2</ele>
        <time>2021-05-27T12:49:15Z</time>
      </trkpt>
      <trkpt lat="45.62545" lon="6.83185">
        <ele>1420.6</ele>
        <time>2021-05-27T12:49:16Z</time>
      </trkpt>
      <trkpt lat="45.62537" lon="6.83193">
        <ele>1420.6</ele>
        <time>2021-05-27T12:49:17Z</time>
      </trkpt>
      <trkpt lat="45.62529" lon="6.832">
        <ele>1420.4</ele>
        <time>2021-05-27T12:49:18Z</time>
      </trkpt>
      <trkpt lat="45.62522" lon="6.83206">
        <ele>1420</ele>
        <time>2021-05-27T12:49:19Z</time>
      </trkpt>
      <trkpt lat="45.62514" lon="6.83208">
        <ele>1419.4</ele>
        <time>2021-05-27T12:49:20Z</time>
      </trkpt>
      <trkpt lat="45.62509" lon="6.83205">
        <ele>1419</ele>
        <time>2021-05-27T12:49:21Z</time>
      </trkpt>
      <trkpt lat="45.62506" lon="6.83198">
        <ele>1418.8</ele>
        <time>2021-05-27T12:49:22Z</time>
      </trkpt>
      <trkpt lat="45.62508" lon="6.83189">
        <ele>1418.2</ele>
        <time>2021-05-27T12:49:23Z</time>
      </trkpt>
      <trkpt lat="45.62512" lon="6.83181">
        <ele>1417.8</ele>
        <time>2021-05-27T12:49:24Z</time>
      </trkpt>
      <trkpt lat="45.62519" lon="6.83174">
        <ele>1417.8</ele>
        <time>2021-05-27T12:49:25Z</time>
      </trkpt>
      <trkpt lat="45.62524" lon="6.8317">
        <ele>1417.4</ele>
        <time>2021-05-27T12:49:26Z</time>
      </trkpt>
      <trkpt lat="45.62532" lon="6.83166">
        <ele>1417</ele>
        <time>2021-05-27T12:49:27Z</time>
      </trkpt>
      <trkpt lat="45.6254" lon="6.8316">
        <ele>1417</ele>
        <time>2021-05-27T12:49:28Z</time>
      </trkpt>
      <trkpt lat="45.62547" lon="6.8315">
        <ele>1417</ele>
        <time>2021-05-27T12:49:29Z</time>
      </trkpt>
      <trkpt lat="45.62551" lon="6.8314">
        <ele>1417</ele>
        <time>2021-05-27T12:49:30Z</time>
      </trkpt>
      <trkpt lat="45.62554" lon="6.83129">
        <ele>1416.8</ele>
        <time>2021-05-27T12:49:31Z</time>
      </trkpt>
      <trkpt lat="45.62554" lon="6.83116">
        <ele>1416.4</ele>
        <time>2021-05-27T12:49:32Z</time>
      </trkpt>
      <trkpt lat="45.62553" lon="6.83102">
        <ele>1416.2</ele>
        <time>2021-05-27T12:49:33Z</time>
      </trkpt>
      <trkpt lat="45.62549" lon="6.83086">
        <ele>1416</ele>
        <time>2021-05-27T12:49:34Z</time>
      </trkpt>
      <trkpt lat="45.62546" lon="6.83075">
        <ele>1416.2</ele>
        <time>2021-05-27T12:49:35Z</time>
      </trkpt>
      <trkpt lat="45.62541" lon="6.83063">
        <ele>1415.8</ele>
        <time>2021-05-27T12:49:36Z</time>
      </trkpt>
      <trkpt lat="45.62535" lon="6.83051">
        <ele>1415.4</ele>
        <time>2021-05-27T12:49:37Z</time>
      </trkpt>
      <trkpt lat="45.62529" lon="6.83039">
        <ele>1415.2</ele>
        <time>2021-05-27T12:49:38Z</time>
      </trkpt>
      <trkpt lat="45.62522" lon="6.83028">
        <ele>1414.8</ele>
        <time>2021-05-27T12:49:39Z</time>
      </trkpt>
      <trkpt lat="45.62516" lon="6.83015">
        <ele>1414.2</ele>
        <time>2021-05-27T12:49:40Z</time>
      </trkpt>
      <trkpt lat="45.62513" lon="6.83">
        <ele>1414.4</ele>
        <time>2021-05-27T12:49:41Z</time>
      </trkpt>
      <trkpt lat="45.62511" lon="6.82986">
        <ele>1413.8</ele>
        <time>2021-05-27T12:49:42Z</time>
      </trkpt>
      <trkpt lat="45.62511" lon="6.8297">
        <ele>1413.6</ele>
        <time>2021-05-27T12:49:43Z</time>
      </trkpt>
      <trkpt lat="45.62511" lon="6.82955">
        <ele>1412.8</ele>
        <time>2021-05-27T12:49:44Z</time>
      </trkpt>
      <trkpt lat="45.62512" lon="6.8294">
        <ele>1412.2</ele>
        <time>2021-05-27T12:49:45Z</time>
      </trkpt>
      <trkpt lat="45.62513" lon="6.82924">
        <ele>1411.4</ele>
        <time>2021-05-27T12:49:46Z</time>
      </trkpt>
      <trkpt lat="45.62514" lon="6.82908">
        <ele>1411</ele>
        <time>2021-05-27T12:49:47Z</time>
      </trkpt>
      <trkpt lat="45.62516" lon="6.82892">
        <ele>1410.2</ele>
        <time>2021-05-27T12:49:48Z</time>
      </trkpt>
      <trkpt lat="45.62518" lon="6.82876">
        <ele>1410</ele>
        <time>2021-05-27T12:49:49Z</time>
      </trkpt>
      <trkpt lat="45.62521" lon="6.82859">
        <ele>1409.4</ele>
        <time>2021-05-27T12:49:50Z</time>
      </trkpt>
      <trkpt lat="45.62522" lon="6.82842">
        <ele>1408.8</ele>
        <time>2021-05-27T12:49:51Z</time>
      </trkpt>
      <trkpt lat="45.62522" lon="6.82825">
        <ele>1407.6</ele>
        <time>2021-05-27T12:49:52Z</time>
      </trkpt>
      <trkpt lat="45.62521" lon="6.82808">
        <ele>1406.8</ele>
        <time>2021-05-27T12:49:53Z</time>
      </trkpt>
      <trkpt lat="45.62517" lon="6.82791">
        <ele>1405.6</ele>
        <time>2021-05-27T12:49:54Z</time>
      </trkpt>
      <trkpt lat="45.62513" lon="6.82775">
        <ele>1404.6</ele>
        <time>2021-05-27T12:49:55Z</time>
      </trkpt>
      <trkpt lat="45.62507" lon="6.8276">
        <ele>1403.6</ele>
        <time>2021-05-27T12:49:56Z</time>
      </trkpt>
      <trkpt lat="45.625" lon="6.82746">
        <ele>1403.2</ele>
        <time>2021-05-27T12:49:57Z</time>
      </trkpt>
      <trkpt lat="45.62493" lon="6.8273">
        <ele>1403.4</ele>
        <time>2021-05-27T12:49:58Z</time>
      </trkpt>
      <trkpt lat="45.62488" lon="6.82716">
        <ele>1402.6</ele>
        <time>2021-05-27T12:49:59Z</time>
      </trkpt>
      <trkpt lat="45.62484" lon="6.82704">
        <ele>1402.6</ele>
        <time>2021-05-27T12:50:00Z</time>
      </trkpt>
      <trkpt lat="45.62484" lon="6.82689">
        <ele>1401.2</ele>
        <time>2021-05-27T12:50:01Z</time>
      </trkpt>
      <trkpt lat="45.62488" lon="6.82675">
        <ele>1400.4</ele>
        <time>2021-05-27T12:50:02Z</time>
      </trkpt>
      <trkpt lat="45.62493" lon="6.82662">
        <ele>1399.6</ele>
        <time>2021-05-27T12:50:03Z</time>
      </trkpt>
      <trkpt lat="45.62499" lon="6.8265">
        <ele>1398.6</ele>
        <time>2021-05-27T12:50:04Z</time>
      </trkpt>
      <trkpt lat="45.62505" lon="6.82638">
        <ele>1397.8</ele>
        <time>2021-05-27T12:50:05Z</time>
      </trkpt>
      <trkpt lat="45.62511" lon="6.82624">
        <ele>1397</ele>
        <time>2021-05-27T12:50:06Z</time>
      </trkpt>
      <trkpt lat="45.62517" lon="6.82611">
        <ele>1396.2</ele>
        <time>2021-05-27T12:50:07Z</time>
      </trkpt>
      <trkpt lat="45.62524" lon="6.82598">
        <ele>1395.4</ele>
        <time>2021-05-27T12:50:08Z</time>
      </trkpt>
      <trkpt lat="45.62531" lon="6.82585">
        <ele>1394.6</ele>
        <time>2021-05-27T12:50:09Z</time>
      </trkpt>
      <trkpt lat="45.62539" lon="6.82574">
        <ele>1393.8</ele>
        <time>2021-05-27T12:50:10Z</time>
      </trkpt>
      <trkpt lat="45.62548" lon="6.82563">
        <ele>1392.8</ele>
        <time>2021-05-27T12:50:11Z</time>
      </trkpt>
      <trkpt lat="45.62557" lon="6.82554">
        <ele>1392</ele>
        <time>2021-05-27T12:50:12Z</time>
      </trkpt>
      <trkpt lat="45.62566" lon="6.82543">
        <ele>1391.2</ele>
        <time>2021-05-27T12:50:13Z</time>
      </trkpt>
      <trkpt lat="45.62577" lon="6.82531">
        <ele>1390.4</ele>
        <time>2021-05-27T12:50:14Z</time>
      </trkpt>
      <trkpt lat="45.62584" lon="6.82524">
        <ele>1389.6</ele>
        <time>2021-05-27T12:50:15Z</time>
      </trkpt>
      <trkpt lat="45.62594" lon="6.82515">
        <ele>1389</ele>
        <time>2021-05-27T12:50:16Z</time>
      </trkpt>
      <trkpt lat="45.62604" lon="6.82507">
        <ele>1388.2</ele>
        <time>2021-05-27T12:50:17Z</time>
      </trkpt>
      <trkpt lat="45.62615" lon="6.825">
        <ele>1387.8</ele>
        <time>2021-05-27T12:50:18Z</time>
      </trkpt>
      <trkpt lat="45.62626" lon="6.82492">
        <ele>1386.8</ele>
        <time>2021-05-27T12:50:19Z</time>
      </trkpt>
      <trkpt lat="45.62636" lon="6.82484">
        <ele>1386</ele>
        <time>2021-05-27T12:50:20Z</time>
      </trkpt>
      <trkpt lat="45.62647" lon="6.82475">
        <ele>1385.2</ele>
        <time>2021-05-27T12:50:21Z</time>
      </trkpt>
      <trkpt lat="45.62658" lon="6.82467">
        <ele>1384.2</ele>
        <time>2021-05-27T12:50:22Z</time>
      </trkpt>
      <trkpt lat="45.62671" lon="6.82457">
        <ele>1383.8</ele>
        <time>2021-05-27T12:50:23Z</time>
      </trkpt>
      <trkpt lat="45.6268" lon="6.82452">
        <ele>1383.2</ele>
        <time>2021-05-27T12:50:24Z</time>
      </trkpt>
      <trkpt lat="45.62692" lon="6.82445">
        <ele>1382.6</ele>
        <time>2021-05-27T12:50:25Z</time>
      </trkpt>
      <trkpt lat="45.62703" lon="6.82441">
        <ele>1382</ele>
        <time>2021-05-27T12:50:26Z</time>
      </trkpt>
      <trkpt lat="45.62715" lon="6.82438">
        <ele>1381.2</ele>
        <time>2021-05-27T12:50:27Z</time>
      </trkpt>
      <trkpt lat="45.62727" lon="6.82436">
        <ele>1380.4</ele>
        <time>2021-05-27T12:50:28Z</time>
      </trkpt>
      <trkpt lat="45.6274" lon="6.82433">
        <ele>1379.4</ele>
        <time>2021-05-27T12:50:29Z</time>
      </trkpt>
      <trkpt lat="45.62752" lon="6.82429">
        <ele>1378.8</ele>
        <time>2021-05-27T12:50:30Z</time>
      </trkpt>
      <trkpt lat="45.62765" lon="6.82425">
        <ele>1378</ele>
        <time>2021-05-27T12:50:31Z</time>
      </trkpt>
      <trkpt lat="45.62778" lon="6.82421">
        <ele>1377.6</ele>
        <time>2021-05-27T12:50:32Z</time>
      </trkpt>
      <trkpt lat="45.6279" lon="6.82417">
        <ele>1376.4</ele>
        <time>2021-05-27T12:50:33Z</time>
      </trkpt>
      <trkpt lat="45.62802" lon="6.82412">
        <ele>1376.2</ele>
        <time>2021-05-27T12:50:34Z</time>
      </trkpt>
      <trkpt lat="45.62813" lon="6.82407">
        <ele>1375.2</ele>
        <time>2021-05-27T12:50:35Z</time>
      </trkpt>
      <trkpt lat="45.62825" lon="6.82404">
        <ele>1374.2</ele>
        <time>2021-05-27T12:50:36Z</time>
      </trkpt>
      <trkpt lat="45.62838" lon="6.82401">
        <ele>1373.4</ele>
        <time>2021-05-27T12:50:37Z</time>
      </trkpt>
      <trkpt lat="45.6285" lon="6.82398">
        <ele>1372</ele>
        <time>2021-05-27T12:50:38Z</time>
      </trkpt>
      <trkpt lat="45.62863" lon="6.82396">
        <ele>1371.2</ele>
        <time>2021-05-27T12:50:39Z</time>
      </trkpt>
      <trkpt lat="45.62876" lon="6.82393">
        <ele>1369.8</ele>
        <time>2021-05-27T12:50:40Z</time>
      </trkpt>
      <trkpt lat="45.62888" lon="6.82387">
        <ele>1368.8</ele>
        <time>2021-05-27T12:50:41Z</time>
      </trkpt>
      <trkpt lat="45.62898" lon="6.8238">
        <ele>1367.6</ele>
        <time>2021-05-27T12:50:42Z</time>
      </trkpt>
      <trkpt lat="45.62908" lon="6.8237">
        <ele>1366.6</ele>
        <time>2021-05-27T12:50:43Z</time>
      </trkpt>
      <trkpt lat="45.62917" lon="6.82358">
        <ele>1365.8</ele>
        <time>2021-05-27T12:50:44Z</time>
      </trkpt>
      <trkpt lat="45.62924" lon="6.82344">
        <ele>1365.2</ele>
        <time>2021-05-27T12:50:45Z</time>
      </trkpt>
      <trkpt lat="45.62931" lon="6.8233">
        <ele>1364.8</ele>
        <time>2021-05-27T12:50:46Z</time>
      </trkpt>
      <trkpt lat="45.6294" lon="6.82318">
        <ele>1364.2</ele>
        <time>2021-05-27T12:50:47Z</time>
      </trkpt>
      <trkpt lat="45.62949" lon="6.82309">
        <ele>1363.4</ele>
        <time>2021-05-27T12:50:48Z</time>
      </trkpt>
      <trkpt lat="45.62959" lon="6.82303">
        <ele>1362.6</ele>
        <time>2021-05-27T12:50:49Z</time>
      </trkpt>
      <trkpt lat="45.62968" lon="6.823">
        <ele>1362.2</ele>
        <time>2021-05-27T12:50:50Z</time>
      </trkpt>
      <trkpt lat="45.62978" lon="6.82296">
        <ele>1361.2</ele>
        <time>2021-05-27T12:50:51Z</time>
      </trkpt>
      <trkpt lat="45.62984" lon="6.8229">
        <ele>1360.8</ele>
        <time>2021-05-27T12:50:52Z</time>
      </trkpt>
      <trkpt lat="45.62988" lon="6.82283">
        <ele>1360.4</ele>
        <time>2021-05-27T12:50:53Z</time>
      </trkpt>
      <trkpt lat="45.62988" lon="6.82274">
        <ele>1359.6</ele>
        <time>2021-05-27T12:50:54Z</time>
      </trkpt>
      <trkpt lat="45.62982" lon="6.82267">
        <ele>1359.2</ele>
        <time>2021-05-27T12:50:55Z</time>
      </trkpt>
      <trkpt lat="45.62974" lon="6.82265">
        <ele>1358.8</ele>
        <time>2021-05-27T12:50:56Z</time>
      </trkpt>
      <trkpt lat="45.62966" lon="6.82264">
        <ele>1358.4</ele>
        <time>2021-05-27T12:50:57Z</time>
      </trkpt>
      <trkpt lat="45.62957" lon="6.82266">
        <ele>1358.2</ele>
        <time>2021-05-27T12:50:58Z</time>
      </trkpt>
      <trkpt lat="45.62948" lon="6.8227">
        <ele>1358</ele>
        <time>2021-05-27T12:50:59Z</time>
      </trkpt>
      <trkpt lat="45.6294" lon="6.82275">
        <ele>1357.6</ele>
        <time>2021-05-27T12:51:00Z</time>
      </trkpt>
      <trkpt lat="45.62932" lon="6.82282">
        <ele>1357.2</ele>
        <time>2021-05-27T12:51:01Z</time>
      </trkpt>
      <trkpt lat="45.62925" lon="6.82291">
        <ele>1356.8</ele>
        <time>2021-05-27T12:51:02Z</time>
      </trkpt>
      <trkpt lat="45.62918" lon="6.82301">
        <ele>1356.4</ele>
        <time>2021-05-27T12:51:03Z</time>
      </trkpt>
      <trkpt lat="45.62912" lon="6.82311">
        <ele>1356</ele>
        <time>2021-05-27T12:51:04Z</time>
      </trkpt>
      <trkpt lat="45.62905" lon="6.82321">
        <ele>1355.6</ele>
        <time>2021-05-27T12:51:05Z</time>
      </trkpt>
      <trkpt lat="45.62898" lon="6.82332">
        <ele>1355.2</ele>
        <time>2021-05-27T12:51:06Z</time>
      </trkpt>
      <trkpt lat="45.62889" lon="6.82341">
        <ele>1355.2</ele>
        <time>2021-05-27T12:51:07Z</time>
      </trkpt>
      <trkpt lat="45.6288" lon="6.82348">
        <ele>1354.4</ele>
        <time>2021-05-27T12:51:08Z</time>
      </trkpt>
      <trkpt lat="45.6287" lon="6.82353">
        <ele>1353.4</ele>
        <time>2021-05-27T12:51:09Z</time>
      </trkpt>
      <trkpt lat="45.62858" lon="6.82355">
        <ele>1352.4</ele>
        <time>2021-05-27T12:51:10Z</time>
      </trkpt>
      <trkpt lat="45.62847" lon="6.82356">
        <ele>1352.2</ele>
        <time>2021-05-27T12:51:11Z</time>
      </trkpt>
      <trkpt lat="45.62836" lon="6.82357">
        <ele>1351.4</ele>
        <time>2021-05-27T12:51:12Z</time>
      </trkpt>
      <trkpt lat="45.62823" lon="6.82358">
        <ele>1350.6</ele>
        <time>2021-05-27T12:51:13Z</time>
      </trkpt>
      <trkpt lat="45.62812" lon="6.82359">
        <ele>1349.6</ele>
        <time>2021-05-27T12:51:14Z</time>
      </trkpt>
      <trkpt lat="45.62801" lon="6.82361">
        <ele>1348.6</ele>
        <time>2021-05-27T12:51:15Z</time>
      </trkpt>
      <trkpt lat="45.62789" lon="6.82363">
        <ele>1347.8</ele>
        <time>2021-05-27T12:51:16Z</time>
      </trkpt>
      <trkpt lat="45.62777" lon="6.82364">
        <ele>1347</ele>
        <time>2021-05-27T12:51:17Z</time>
      </trkpt>
      <trkpt lat="45.62765" lon="6.82363">
        <ele>1346.6</ele>
        <time>2021-05-27T12:51:18Z</time>
      </trkpt>
      <trkpt lat="45.62753" lon="6.82361">
        <ele>1346</ele>
        <time>2021-05-27T12:51:19Z</time>
      </trkpt>
      <trkpt lat="45.62741" lon="6.82359">
        <ele>1345.8</ele>
        <time>2021-05-27T12:51:20Z</time>
      </trkpt>
      <trkpt lat="45.62729" lon="6.82359">
        <ele>1345.2</ele>
        <time>2021-05-27T12:51:21Z</time>
      </trkpt>
      <trkpt lat="45.62715" lon="6.82359">
        <ele>1344.6</ele>
        <time>2021-05-27T12:51:22Z</time>
      </trkpt>
      <trkpt lat="45.62703" lon="6.82362">
        <ele>1344.2</ele>
        <time>2021-05-27T12:51:23Z</time>
      </trkpt>
      <trkpt lat="45.62692" lon="6.82366">
        <ele>1344</ele>
        <time>2021-05-27T12:51:24Z</time>
      </trkpt>
      <trkpt lat="45.6268" lon="6.82369">
        <ele>1343.6</ele>
        <time>2021-05-27T12:51:25Z</time>
      </trkpt>
      <trkpt lat="45.62669" lon="6.8237">
        <ele>1343.2</ele>
        <time>2021-05-27T12:51:26Z</time>
      </trkpt>
      <trkpt lat="45.62658" lon="6.82366">
        <ele>1342.6</ele>
        <time>2021-05-27T12:51:27Z</time>
      </trkpt>
      <trkpt lat="45.62647" lon="6.8236">
        <ele>1341.4</ele>
        <time>2021-05-27T12:51:28Z</time>
      </trkpt>
      <trkpt lat="45.62636" lon="6.82355">
        <ele>1341.2</ele>
        <time>2021-05-27T12:51:29Z</time>
      </trkpt>
      <trkpt lat="45.62626" lon="6.82353">
        <ele>1340.4</ele>
        <time>2021-05-27T12:51:30Z</time>
      </trkpt>
      <trkpt lat="45.62614" lon="6.82354">
        <ele>1339.4</ele>
        <time>2021-05-27T12:51:31Z</time>
      </trkpt>
      <trkpt lat="45.62604" lon="6.82358">
        <ele>1338.4</ele>
        <time>2021-05-27T12:51:32Z</time>
      </trkpt>
      <trkpt lat="45.62593" lon="6.82363">
        <ele>1337.8</ele>
        <time>2021-05-27T12:51:33Z</time>
      </trkpt>
      <trkpt lat="45.62582" lon="6.82368">
        <ele>1337</ele>
        <time>2021-05-27T12:51:34Z</time>
      </trkpt>
      <trkpt lat="45.62571" lon="6.82372">
        <ele>1336.8</ele>
        <time>2021-05-27T12:51:35Z</time>
      </trkpt>
      <trkpt lat="45.62559" lon="6.82376">
        <ele>1336.4</ele>
        <time>2021-05-27T12:51:36Z</time>
      </trkpt>
      <trkpt lat="45.62547" lon="6.8238">
        <ele>1335.4</ele>
        <time>2021-05-27T12:51:37Z</time>
      </trkpt>
      <trkpt lat="45.62535" lon="6.82384">
        <ele>1335</ele>
        <time>2021-05-27T12:51:38Z</time>
      </trkpt>
      <trkpt lat="45.62523" lon="6.82389">
        <ele>1334.4</ele>
        <time>2021-05-27T12:51:39Z</time>
      </trkpt>
      <trkpt lat="45.62511" lon="6.82394">
        <ele>1333.6</ele>
        <time>2021-05-27T12:51:40Z</time>
      </trkpt>
      <trkpt lat="45.62499" lon="6.82398">
        <ele>1333.2</ele>
        <time>2021-05-27T12:51:41Z</time>
      </trkpt>
      <trkpt lat="45.62487" lon="6.82399">
        <ele>1333.2</ele>
        <time>2021-05-27T12:51:42Z</time>
      </trkpt>
      <trkpt lat="45.62476" lon="6.82398">
        <ele>1333.2</ele>
        <time>2021-05-27T12:51:43Z</time>
      </trkpt>
      <trkpt lat="45.62465" lon="6.82395">
        <ele>1332.8</ele>
        <time>2021-05-27T12:51:44Z</time>
      </trkpt>
      <trkpt lat="45.62455" lon="6.82391">
        <ele>1332.4</ele>
        <time>2021-05-27T12:51:45Z</time>
      </trkpt>
      <trkpt lat="45.62445" lon="6.82389">
        <ele>1331.2</ele>
        <time>2021-05-27T12:51:46Z</time>
      </trkpt>
      <trkpt lat="45.62436" lon="6.8239">
        <ele>1330.4</ele>
        <time>2021-05-27T12:51:47Z</time>
      </trkpt>
      <trkpt lat="45.62428" lon="6.82396">
        <ele>1329.8</ele>
        <time>2021-05-27T12:51:48Z</time>
      </trkpt>
      <trkpt lat="45.6242" lon="6.82406">
        <ele>1329</ele>
        <time>2021-05-27T12:51:49Z</time>
      </trkpt>
      <trkpt lat="45.62413" lon="6.82417">
        <ele>1328.2</ele>
        <time>2021-05-27T12:51:50Z</time>
      </trkpt>
      <trkpt lat="45.62406" lon="6.82428">
        <ele>1327.2</ele>
        <time>2021-05-27T12:51:51Z</time>
      </trkpt>
      <trkpt lat="45.62397" lon="6.82439">
        <ele>1326.6</ele>
        <time>2021-05-27T12:51:52Z</time>
      </trkpt>
      <trkpt lat="45.62388" lon="6.82449">
        <ele>1326</ele>
        <time>2021-05-27T12:51:53Z</time>
      </trkpt>
      <trkpt lat="45.62378" lon="6.82458">
        <ele>1325.4</ele>
        <time>2021-05-27T12:51:54Z</time>
      </trkpt>
      <trkpt lat="45.62369" lon="6.82469">
        <ele>1325</ele>
        <time>2021-05-27T12:51:55Z</time>
      </trkpt>
      <trkpt lat="45.6236" lon="6.82481">
        <ele>1324.2</ele>
        <time>2021-05-27T12:51:56Z</time>
      </trkpt>
      <trkpt lat="45.62351" lon="6.82494">
        <ele>1323.4</ele>
        <time>2021-05-27T12:51:57Z</time>
      </trkpt>
      <trkpt lat="45.62343" lon="6.82507">
        <ele>1323</ele>
        <time>2021-05-27T12:51:58Z</time>
      </trkpt>
      <trkpt lat="45.62336" lon="6.8252">
        <ele>1322.6</ele>
        <time>2021-05-27T12:51:59Z</time>
      </trkpt>
      <trkpt lat="45.62328" lon="6.82534">
        <ele>1321.8</ele>
        <time>2021-05-27T12:52:00Z</time>
      </trkpt>
      <trkpt lat="45.62322" lon="6.82549">
        <ele>1321.2</ele>
        <time>2021-05-27T12:52:01Z</time>
      </trkpt>
      <trkpt lat="45.62316" lon="6.82564">
        <ele>1320.6</ele>
        <time>2021-05-27T12:52:02Z</time>
      </trkpt>
      <trkpt lat="45.62311" lon="6.8258">
        <ele>1319.8</ele>
        <time>2021-05-27T12:52:03Z</time>
      </trkpt>
      <trkpt lat="45.62308" lon="6.82596">
        <ele>1319</ele>
        <time>2021-05-27T12:52:04Z</time>
      </trkpt>
      <trkpt lat="45.62306" lon="6.82614">
        <ele>1318.4</ele>
        <time>2021-05-27T12:52:05Z</time>
      </trkpt>
      <trkpt lat="45.62307" lon="6.82631">
        <ele>1317.4</ele>
        <time>2021-05-27T12:52:06Z</time>
      </trkpt>
      <trkpt lat="45.62308" lon="6.82649">
        <ele>1316.8</ele>
        <time>2021-05-27T12:52:07Z</time>
      </trkpt>
      <trkpt lat="45.6231" lon="6.82668">
        <ele>1316.4</ele>
        <time>2021-05-27T12:52:08Z</time>
      </trkpt>
      <trkpt lat="45.62311" lon="6.82686">
        <ele>1315.8</ele>
        <time>2021-05-27T12:52:09Z</time>
      </trkpt>
      <trkpt lat="45.62312" lon="6.82708">
        <ele>1314.8</ele>
        <time>2021-05-27T12:52:10Z</time>
      </trkpt>
      <trkpt lat="45.62312" lon="6.82723">
        <ele>1314.2</ele>
        <time>2021-05-27T12:52:11Z</time>
      </trkpt>
      <trkpt lat="45.62312" lon="6.82742">
        <ele>1313.6</ele>
        <time>2021-05-27T12:52:12Z</time>
      </trkpt>
      <trkpt lat="45.62309" lon="6.8276">
        <ele>1312.8</ele>
        <time>2021-05-27T12:52:13Z</time>
      </trkpt>
      <trkpt lat="45.62306" lon="6.82778">
        <ele>1312</ele>
        <time>2021-05-27T12:52:14Z</time>
      </trkpt>
      <trkpt lat="45.62302" lon="6.82796">
        <ele>1311</ele>
        <time>2021-05-27T12:52:15Z</time>
      </trkpt>
      <trkpt lat="45.62298" lon="6.82812">
        <ele>1310.6</ele>
        <time>2021-05-27T12:52:16Z</time>
      </trkpt>
      <trkpt lat="45.62295" lon="6.82826">
        <ele>1309.4</ele>
        <time>2021-05-27T12:52:17Z</time>
      </trkpt>
      <trkpt lat="45.62291" lon="6.82836">
        <ele>1308.6</ele>
        <time>2021-05-27T12:52:18Z</time>
      </trkpt>
      <trkpt lat="45.62286" lon="6.82841">
        <ele>1308</ele>
        <time>2021-05-27T12:52:19Z</time>
      </trkpt>
      <trkpt lat="45.6228" lon="6.8284">
        <ele>1307.4</ele>
        <time>2021-05-27T12:52:20Z</time>
      </trkpt>
      <trkpt lat="45.62277" lon="6.82834">
        <ele>1306.4</ele>
        <time>2021-05-27T12:52:21Z</time>
      </trkpt>
      <trkpt lat="45.62276" lon="6.82827">
        <ele>1305.8</ele>
        <time>2021-05-27T12:52:22Z</time>
      </trkpt>
      <trkpt lat="45.62277" lon="6.82818">
        <ele>1305.8</ele>
        <time>2021-05-27T12:52:23Z</time>
      </trkpt>
      <trkpt lat="45.6228" lon="6.82808">
        <ele>1305.4</ele>
        <time>2021-05-27T12:52:24Z</time>
      </trkpt>
      <trkpt lat="45.62284" lon="6.82799">
        <ele>1304.8</ele>
        <time>2021-05-27T12:52:25Z</time>
      </trkpt>
      <trkpt lat="45.62288" lon="6.82789">
        <ele>1304.8</ele>
        <time>2021-05-27T12:52:26Z</time>
      </trkpt>
      <trkpt lat="45.62291" lon="6.82779">
        <ele>1304.8</ele>
        <time>2021-05-27T12:52:27Z</time>
      </trkpt>
      <trkpt lat="45.62295" lon="6.82769">
        <ele>1304.6</ele>
        <time>2021-05-27T12:52:28Z</time>
      </trkpt>
      <trkpt lat="45.62298" lon="6.82759">
        <ele>1304</ele>
        <time>2021-05-27T12:52:29Z</time>
      </trkpt>
      <trkpt lat="45.62301" lon="6.82749">
        <ele>1303.8</ele>
        <time>2021-05-27T12:52:30Z</time>
      </trkpt>
      <trkpt lat="45.62303" lon="6.82738">
        <ele>1303.8</ele>
        <time>2021-05-27T12:52:31Z</time>
      </trkpt>
      <trkpt lat="45.62304" lon="6.82726">
        <ele>1303.4</ele>
        <time>2021-05-27T12:52:32Z</time>
      </trkpt>
      <trkpt lat="45.62304" lon="6.82714">
        <ele>1303.2</ele>
        <time>2021-05-27T12:52:33Z</time>
      </trkpt>
      <trkpt lat="45.62303" lon="6.82702">
        <ele>1302.8</ele>
        <time>2021-05-27T12:52:34Z</time>
      </trkpt>
      <trkpt lat="45.62301" lon="6.82691">
        <ele>1302.4</ele>
        <time>2021-05-27T12:52:35Z</time>
      </trkpt>
      <trkpt lat="45.62299" lon="6.82679">
        <ele>1302.2</ele>
        <time>2021-05-27T12:52:36Z</time>
      </trkpt>
      <trkpt lat="45.62296" lon="6.82668">
        <ele>1302.2</ele>
        <time>2021-05-27T12:52:37Z</time>
      </trkpt>
      <trkpt lat="45.62292" lon="6.82656">
        <ele>1301.8</ele>
        <time>2021-05-27T12:52:38Z</time>
      </trkpt>
      <trkpt lat="45.62288" lon="6.82645">
        <ele>1301.6</ele>
        <time>2021-05-27T12:52:39Z</time>
      </trkpt>
      <trkpt lat="45.62284" lon="6.82633">
        <ele>1301.4</ele>
        <time>2021-05-27T12:52:40Z</time>
      </trkpt>
      <trkpt lat="45.62282" lon="6.82621">
        <ele>1300.6</ele>
        <time>2021-05-27T12:52:41Z</time>
      </trkpt>
      <trkpt lat="45.62279" lon="6.82608">
        <ele>1299.8</ele>
        <time>2021-05-27T12:52:42Z</time>
      </trkpt>
      <trkpt lat="45.62279" lon="6.82594">
        <ele>1300.6</ele>
        <time>2021-05-27T12:52:43Z</time>
      </trkpt>
      <trkpt lat="45.62279" lon="6.8258">
        <ele>1299.8</ele>
        <time>2021-05-27T12:52:44Z</time>
      </trkpt>
      <trkpt lat="45.62281" lon="6.82566">
        <ele>1299.6</ele>
        <time>2021-05-27T12:52:45Z</time>
      </trkpt>
      <trkpt lat="45.62284" lon="6.82552">
        <ele>1299.6</ele>
        <time>2021-05-27T12:52:46Z</time>
      </trkpt>
      <trkpt lat="45.62287" lon="6.82538">
        <ele>1298.8</ele>
        <time>2021-05-27T12:52:47Z</time>
      </trkpt>
      <trkpt lat="45.62291" lon="6.82525">
        <ele>1298.2</ele>
        <time>2021-05-27T12:52:48Z</time>
      </trkpt>
      <trkpt lat="45.62296" lon="6.82512">
        <ele>1297.6</ele>
        <time>2021-05-27T12:52:49Z</time>
      </trkpt>
      <trkpt lat="45.623" lon="6.82499">
        <ele>1297</ele>
        <time>2021-05-27T12:52:50Z</time>
      </trkpt>
      <trkpt lat="45.62305" lon="6.82486">
        <ele>1296.4</ele>
        <time>2021-05-27T12:52:51Z</time>
      </trkpt>
      <trkpt lat="45.6231" lon="6.82472">
        <ele>1295.4</ele>
        <time>2021-05-27T12:52:52Z</time>
      </trkpt>
      <trkpt lat="45.62315" lon="6.82458">
        <ele>1294.8</ele>
        <time>2021-05-27T12:52:53Z</time>
      </trkpt>
      <trkpt lat="45.62321" lon="6.82444">
        <ele>1293.8</ele>
        <time>2021-05-27T12:52:54Z</time>
      </trkpt>
      <trkpt lat="45.62327" lon="6.82431">
        <ele>1293.6</ele>
        <time>2021-05-27T12:52:55Z</time>
      </trkpt>
      <trkpt lat="45.62333" lon="6.82417">
        <ele>1292.8</ele>
        <time>2021-05-27T12:52:56Z</time>
      </trkpt>
      <trkpt lat="45.6234" lon="6.82403">
        <ele>1292.2</ele>
        <time>2021-05-27T12:52:57Z</time>
      </trkpt>
      <trkpt lat="45.62346" lon="6.82389">
        <ele>1291.8</ele>
        <time>2021-05-27T12:52:58Z</time>
      </trkpt>
      <trkpt lat="45.62353" lon="6.82375">
        <ele>1291.2</ele>
        <time>2021-05-27T12:52:59Z</time>
      </trkpt>
      <trkpt lat="45.6236" lon="6.82361">
        <ele>1290.4</ele>
        <time>2021-05-27T12:53:00Z</time>
      </trkpt>
      <trkpt lat="45.62366" lon="6.82347">
        <ele>1289.8</ele>
        <time>2021-05-27T12:53:01Z</time>
      </trkpt>
      <trkpt lat="45.62374" lon="6.82334">
        <ele>1289</ele>
        <time>2021-05-27T12:53:02Z</time>
      </trkpt>
      <trkpt lat="45.62382" lon="6.82322">
        <ele>1288.4</ele>
        <time>2021-05-27T12:53:03Z</time>
      </trkpt>
      <trkpt lat="45.6239" lon="6.82309">
        <ele>1287.6</ele>
        <time>2021-05-27T12:53:04Z</time>
      </trkpt>
      <trkpt lat="45.62399" lon="6.82297">
        <ele>1286.8</ele>
        <time>2021-05-27T12:53:05Z</time>
      </trkpt>
      <trkpt lat="45.62406" lon="6.82283">
        <ele>1286</ele>
        <time>2021-05-27T12:53:06Z</time>
      </trkpt>
      <trkpt lat="45.62415" lon="6.8227">
        <ele>1285.4</ele>
        <time>2021-05-27T12:53:07Z</time>
      </trkpt>
      <trkpt lat="45.62425" lon="6.82258">
        <ele>1284.6</ele>
        <time>2021-05-27T12:53:08Z</time>
      </trkpt>
      <trkpt lat="45.62436" lon="6.82248">
        <ele>1284</ele>
        <time>2021-05-27T12:53:09Z</time>
      </trkpt>
      <trkpt lat="45.62447" lon="6.82239">
        <ele>1282.8</ele>
        <time>2021-05-27T12:53:10Z</time>
      </trkpt>
      <trkpt lat="45.62457" lon="6.82231">
        <ele>1281.8</ele>
        <time>2021-05-27T12:53:11Z</time>
      </trkpt>
      <trkpt lat="45.62468" lon="6.82226">
        <ele>1280.6</ele>
        <time>2021-05-27T12:53:12Z</time>
      </trkpt>
      <trkpt lat="45.6248" lon="6.82222">
        <ele>1279.8</ele>
        <time>2021-05-27T12:53:13Z</time>
      </trkpt>
      <trkpt lat="45.62493" lon="6.82218">
        <ele>1278.8</ele>
        <time>2021-05-27T12:53:14Z</time>
      </trkpt>
      <trkpt lat="45.62505" lon="6.82215">
        <ele>1277.8</ele>
        <time>2021-05-27T12:53:15Z</time>
      </trkpt>
      <trkpt lat="45.62517" lon="6.8221">
        <ele>1277.2</ele>
        <time>2021-05-27T12:53:16Z</time>
      </trkpt>
      <trkpt lat="45.62529" lon="6.82206">
        <ele>1276.4</ele>
        <time>2021-05-27T12:53:17Z</time>
      </trkpt>
      <trkpt lat="45.62541" lon="6.822">
        <ele>1275.4</ele>
        <time>2021-05-27T12:53:18Z</time>
      </trkpt>
      <trkpt lat="45.62553" lon="6.82195">
        <ele>1274.8</ele>
        <time>2021-05-27T12:53:19Z</time>
      </trkpt>
      <trkpt lat="45.62565" lon="6.82191">
        <ele>1274</ele>
        <time>2021-05-27T12:53:20Z</time>
      </trkpt>
      <trkpt lat="45.62577" lon="6.82189">
        <ele>1273</ele>
        <time>2021-05-27T12:53:21Z</time>
      </trkpt>
      <trkpt lat="45.62589" lon="6.82188">
        <ele>1272</ele>
        <time>2021-05-27T12:53:22Z</time>
      </trkpt>
      <trkpt lat="45.62602" lon="6.82188">
        <ele>1271.2</ele>
        <time>2021-05-27T12:53:23Z</time>
      </trkpt>
      <trkpt lat="45.62615" lon="6.82186">
        <ele>1270.2</ele>
        <time>2021-05-27T12:53:24Z</time>
      </trkpt>
      <trkpt lat="45.62628" lon="6.82184">
        <ele>1269.2</ele>
        <time>2021-05-27T12:53:25Z</time>
      </trkpt>
      <trkpt lat="45.6264" lon="6.82181">
        <ele>1268.8</ele>
        <time>2021-05-27T12:53:26Z</time>
      </trkpt>
      <trkpt lat="45.62652" lon="6.82175">
        <ele>1267.8</ele>
        <time>2021-05-27T12:53:27Z</time>
      </trkpt>
      <trkpt lat="45.62664" lon="6.82168">
        <ele>1267</ele>
        <time>2021-05-27T12:53:28Z</time>
      </trkpt>
      <trkpt lat="45.62676" lon="6.82162">
        <ele>1266</ele>
        <time>2021-05-27T12:53:29Z</time>
      </trkpt>
      <trkpt lat="45.62689" lon="6.82152">
        <ele>1265</ele>
        <time>2021-05-27T12:53:30Z</time>
      </trkpt>
      <trkpt lat="45.62698" lon="6.82142">
        <ele>1264.4</ele>
        <time>2021-05-27T12:53:31Z</time>
      </trkpt>
      <trkpt lat="45.62706" lon="6.82134">
        <ele>1263.6</ele>
        <time>2021-05-27T12:53:32Z</time>
      </trkpt>
      <trkpt lat="45.62715" lon="6.82125">
        <ele>1262.2</ele>
        <time>2021-05-27T12:53:33Z</time>
      </trkpt>
      <trkpt lat="45.62723" lon="6.82115">
        <ele>1261.6</ele>
        <time>2021-05-27T12:53:34Z</time>
      </trkpt>
      <trkpt lat="45.62732" lon="6.82104">
        <ele>1260.6</ele>
        <time>2021-05-27T12:53:35Z</time>
      </trkpt>
      <trkpt lat="45.62741" lon="6.82096">
        <ele>1260.2</ele>
        <time>2021-05-27T12:53:36Z</time>
      </trkpt>
      <trkpt lat="45.62752" lon="6.8209">
        <ele>1259.6</ele>
        <time>2021-05-27T12:53:37Z</time>
      </trkpt>
      <trkpt lat="45.62763" lon="6.82084">
        <ele>1258.8</ele>
        <time>2021-05-27T12:53:38Z</time>
      </trkpt>
      <trkpt lat="45.62773" lon="6.82079">
        <ele>1258.2</ele>
        <time>2021-05-27T12:53:39Z</time>
      </trkpt>
      <trkpt lat="45.62785" lon="6.82075">
        <ele>1257.8</ele>
        <time>2021-05-27T12:53:40Z</time>
      </trkpt>
      <trkpt lat="45.62796" lon="6.8207">
        <ele>1256.8</ele>
        <time>2021-05-27T12:53:41Z</time>
      </trkpt>
      <trkpt lat="45.62806" lon="6.82066">
        <ele>1256.2</ele>
        <time>2021-05-27T12:53:42Z</time>
      </trkpt>
      <trkpt lat="45.62817" lon="6.82061">
        <ele>1255.4</ele>
        <time>2021-05-27T12:53:43Z</time>
      </trkpt>
      <trkpt lat="45.62828" lon="6.82057">
        <ele>1254.6</ele>
        <time>2021-05-27T12:53:44Z</time>
      </trkpt>
      <trkpt lat="45.62838" lon="6.82052">
        <ele>1253.8</ele>
        <time>2021-05-27T12:53:45Z</time>
      </trkpt>
      <trkpt lat="45.62849" lon="6.82048">
        <ele>1253.2</ele>
        <time>2021-05-27T12:53:46Z</time>
      </trkpt>
      <trkpt lat="45.62858" lon="6.82042">
        <ele>1252.8</ele>
        <time>2021-05-27T12:53:47Z</time>
      </trkpt>
      <trkpt lat="45.62867" lon="6.82037">
        <ele>1251.8</ele>
        <time>2021-05-27T12:53:48Z</time>
      </trkpt>
      <trkpt lat="45.62877" lon="6.8203">
        <ele>1250.8</ele>
        <time>2021-05-27T12:53:49Z</time>
      </trkpt>
      <trkpt lat="45.62882" lon="6.82025">
        <ele>1249.8</ele>
        <time>2021-05-27T12:53:50Z</time>
      </trkpt>
      <trkpt lat="45.62885" lon="6.82017">
        <ele>1248.8</ele>
        <time>2021-05-27T12:53:51Z</time>
      </trkpt>
      <trkpt lat="45.62886" lon="6.82012">
        <ele>1248.2</ele>
        <time>2021-05-27T12:53:52Z</time>
      </trkpt>
      <trkpt lat="45.62883" lon="6.82006">
        <ele>1247.6</ele>
        <time>2021-05-27T12:53:53Z</time>
      </trkpt>
      <trkpt lat="45.62876" lon="6.82004">
        <ele>1247.2</ele>
        <time>2021-05-27T12:53:54Z</time>
      </trkpt>
      <trkpt lat="45.6287" lon="6.82005">
        <ele>1246.6</ele>
        <time>2021-05-27T12:53:55Z</time>
      </trkpt>
      <trkpt lat="45.62862" lon="6.82008">
        <ele>1246</ele>
        <time>2021-05-27T12:53:56Z</time>
      </trkpt>
      <trkpt lat="45.62854" lon="6.82012">
        <ele>1245.6</ele>
        <time>2021-05-27T12:53:57Z</time>
      </trkpt>
      <trkpt lat="45.62845" lon="6.82017">
        <ele>1245.2</ele>
        <time>2021-05-27T12:53:58Z</time>
      </trkpt>
      <trkpt lat="45.62836" lon="6.82021">
        <ele>1244.8</ele>
        <time>2021-05-27T12:53:59Z</time>
      </trkpt>
      <trkpt lat="45.62827" lon="6.82025">
        <ele>1244.2</ele>
        <time>2021-05-27T12:54:00Z</time>
      </trkpt>
      <trkpt lat="45.62817" lon="6.82029">
        <ele>1243.8</ele>
        <time>2021-05-27T12:54:01Z</time>
      </trkpt>
      <trkpt lat="45.62807" lon="6.82032">
        <ele>1243.4</ele>
        <time>2021-05-27T12:54:02Z</time>
      </trkpt>
      <trkpt lat="45.62797" lon="6.82034">
        <ele>1243</ele>
        <time>2021-05-27T12:54:03Z</time>
      </trkpt>
      <trkpt lat="45.62787" lon="6.82035">
        <ele>1242.4</ele>
        <time>2021-05-27T12:54:04Z</time>
      </trkpt>
      <trkpt lat="45.62777" lon="6.82037">
        <ele>1241.8</ele>
        <time>2021-05-27T12:54:05Z</time>
      </trkpt>
      <trkpt lat="45.62765" lon="6.82037">
        <ele>1241.4</ele>
        <time>2021-05-27T12:54:06Z</time>
      </trkpt>
      <trkpt lat="45.62755" lon="6.82037">
        <ele>1240.8</ele>
        <time>2021-05-27T12:54:07Z</time>
      </trkpt>
      <trkpt lat="45.62744" lon="6.82034">
        <ele>1240</ele>
        <time>2021-05-27T12:54:08Z</time>
      </trkpt>
      <trkpt lat="45.62733" lon="6.82031">
        <ele>1240</ele>
        <time>2021-05-27T12:54:09Z</time>
      </trkpt>
      <trkpt lat="45.62721" lon="6.82029">
        <ele>1239.6</ele>
        <time>2021-05-27T12:54:10Z</time>
      </trkpt>
      <trkpt lat="45.6271" lon="6.82029">
        <ele>1239</ele>
        <time>2021-05-27T12:54:11Z</time>
      </trkpt>
      <trkpt lat="45.62699" lon="6.82032">
        <ele>1238.4</ele>
        <time>2021-05-27T12:54:12Z</time>
      </trkpt>
      <trkpt lat="45.62688" lon="6.82038">
        <ele>1238</ele>
        <time>2021-05-27T12:54:13Z</time>
      </trkpt>
      <trkpt lat="45.62677" lon="6.82047">
        <ele>1237.6</ele>
        <time>2021-05-27T12:54:14Z</time>
      </trkpt>
      <trkpt lat="45.62667" lon="6.82057">
        <ele>1237.2</ele>
        <time>2021-05-27T12:54:15Z</time>
      </trkpt>
      <trkpt lat="45.62657" lon="6.82066">
        <ele>1236.6</ele>
        <time>2021-05-27T12:54:16Z</time>
      </trkpt>
      <trkpt lat="45.62645" lon="6.82076">
        <ele>1236.2</ele>
        <time>2021-05-27T12:54:17Z</time>
      </trkpt>
      <trkpt lat="45.62636" lon="6.8208">
        <ele>1235.8</ele>
        <time>2021-05-27T12:54:18Z</time>
      </trkpt>
      <trkpt lat="45.62621" lon="6.82088">
        <ele>1235.6</ele>
        <time>2021-05-27T12:54:19Z</time>
      </trkpt>
      <trkpt lat="45.62609" lon="6.82092">
        <ele>1235.2</ele>
        <time>2021-05-27T12:54:20Z</time>
      </trkpt>
      <trkpt lat="45.62596" lon="6.82094">
        <ele>1234.6</ele>
        <time>2021-05-27T12:54:21Z</time>
      </trkpt>
      <trkpt lat="45.62583" lon="6.82096">
        <ele>1234</ele>
        <time>2021-05-27T12:54:22Z</time>
      </trkpt>
      <trkpt lat="45.6257" lon="6.82098">
        <ele>1233.4</ele>
        <time>2021-05-27T12:54:23Z</time>
      </trkpt>
      <trkpt lat="45.62557" lon="6.821">
        <ele>1232.8</ele>
        <time>2021-05-27T12:54:24Z</time>
      </trkpt>
      <trkpt lat="45.62545" lon="6.82103">
        <ele>1232.2</ele>
        <time>2021-05-27T12:54:25Z</time>
      </trkpt>
      <trkpt lat="45.62533" lon="6.82104">
        <ele>1231.6</ele>
        <time>2021-05-27T12:54:26Z</time>
      </trkpt>
      <trkpt lat="45.62522" lon="6.82106">
        <ele>1231</ele>
        <time>2021-05-27T12:54:27Z</time>
      </trkpt>
      <trkpt lat="45.62509" lon="6.82109">
        <ele>1230.6</ele>
        <time>2021-05-27T12:54:28Z</time>
      </trkpt>
      <trkpt lat="45.62497" lon="6.82111">
        <ele>1229.8</ele>
        <time>2021-05-27T12:54:29Z</time>
      </trkpt>
      <trkpt lat="45.62485" lon="6.82112">
        <ele>1229.2</ele>
        <time>2021-05-27T12:54:30Z</time>
      </trkpt>
      <trkpt lat="45.62473" lon="6.82113">
        <ele>1229</ele>
        <time>2021-05-27T12:54:31Z</time>
      </trkpt>
      <trkpt lat="45.62459" lon="6.82114">
        <ele>1228.6</ele>
        <time>2021-05-27T12:54:32Z</time>
      </trkpt>
      <trkpt lat="45.62444" lon="6.82117">
        <ele>1228</ele>
        <time>2021-05-27T12:54:33Z</time>
      </trkpt>
      <trkpt lat="45.62431" lon="6.8212">
        <ele>1228</ele>
        <time>2021-05-27T12:54:34Z</time>
      </trkpt>
      <trkpt lat="45.62418" lon="6.82125">
        <ele>1227.2</ele>
        <time>2021-05-27T12:54:35Z</time>
      </trkpt>
      <trkpt lat="45.62405" lon="6.82131">
        <ele>1226.8</ele>
        <time>2021-05-27T12:54:36Z</time>
      </trkpt>
      <trkpt lat="45.62393" lon="6.82138">
        <ele>1226</ele>
        <time>2021-05-27T12:54:37Z</time>
      </trkpt>
      <trkpt lat="45.62381" lon="6.82144">
        <ele>1225.2</ele>
        <time>2021-05-27T12:54:38Z</time>
      </trkpt>
      <trkpt lat="45.62369" lon="6.82151">
        <ele>1225</ele>
        <time>2021-05-27T12:54:39Z</time>
      </trkpt>
      <trkpt lat="45.62357" lon="6.82158">
        <ele>1224.8</ele>
        <time>2021-05-27T12:54:40Z</time>
      </trkpt>
      <trkpt lat="45.62345" lon="6.82165">
        <ele>1224.2</ele>
        <time>2021-05-27T12:54:41Z</time>
      </trkpt>
      <trkpt lat="45.62333" lon="6.82174">
        <ele>1223.8</ele>
        <time>2021-05-27T12:54:42Z</time>
      </trkpt>
      <trkpt lat="45.62322" lon="6.82184">
        <ele>1223.2</ele>
        <time>2021-05-27T12:54:43Z</time>
      </trkpt>
      <trkpt lat="45.6231" lon="6.82197">
        <ele>1222.6</ele>
        <time>2021-05-27T12:54:44Z</time>
      </trkpt>
      <trkpt lat="45.62302" lon="6.82206">
        <ele>1222.2</ele>
        <time>2021-05-27T12:54:45Z</time>
      </trkpt>
      <trkpt lat="45.62291" lon="6.82218">
        <ele>1221.6</ele>
        <time>2021-05-27T12:54:46Z</time>
      </trkpt>
      <trkpt lat="45.62281" lon="6.82229">
        <ele>1220.6</ele>
        <time>2021-05-27T12:54:47Z</time>
      </trkpt>
      <trkpt lat="45.62269" lon="6.82239">
        <ele>1219.8</ele>
        <time>2021-05-27T12:54:48Z</time>
      </trkpt>
      <trkpt lat="45.62257" lon="6.82248">
        <ele>1219.2</ele>
        <time>2021-05-27T12:54:49Z</time>
      </trkpt>
      <trkpt lat="45.62245" lon="6.82256">
        <ele>1219.2</ele>
        <time>2021-05-27T12:54:50Z</time>
      </trkpt>
      <trkpt lat="45.62235" lon="6.82264">
        <ele>1218.4</ele>
        <time>2021-05-27T12:54:51Z</time>
      </trkpt>
      <trkpt lat="45.62223" lon="6.82273">
        <ele>1217.8</ele>
        <time>2021-05-27T12:54:52Z</time>
      </trkpt>
      <trkpt lat="45.62212" lon="6.82283">
        <ele>1217.6</ele>
        <time>2021-05-27T12:54:53Z</time>
      </trkpt>
      <trkpt lat="45.62201" lon="6.82293">
        <ele>1217</ele>
        <time>2021-05-27T12:54:54Z</time>
      </trkpt>
      <trkpt lat="45.62192" lon="6.82304">
        <ele>1216.4</ele>
        <time>2021-05-27T12:54:55Z</time>
      </trkpt>
      <trkpt lat="45.62182" lon="6.82315">
        <ele>1215.6</ele>
        <time>2021-05-27T12:54:56Z</time>
      </trkpt>
      <trkpt lat="45.62173" lon="6.82327">
        <ele>1215</ele>
        <time>2021-05-27T12:54:57Z</time>
      </trkpt>
      <trkpt lat="45.62164" lon="6.82339">
        <ele>1214.2</ele>
        <time>2021-05-27T12:54:58Z</time>
      </trkpt>
      <trkpt lat="45.62155" lon="6.82351">
        <ele>1213.6</ele>
        <time>2021-05-27T12:54:59Z</time>
      </trkpt>
      <trkpt lat="45.62145" lon="6.82363">
        <ele>1213</ele>
        <time>2021-05-27T12:55:00Z</time>
      </trkpt>
      <trkpt lat="45.62133" lon="6.82377">
        <ele>1212.2</ele>
        <time>2021-05-27T12:55:01Z</time>
      </trkpt>
      <trkpt lat="45.62125" lon="6.82386">
        <ele>1211.2</ele>
        <time>2021-05-27T12:55:02Z</time>
      </trkpt>
      <trkpt lat="45.62114" lon="6.82398">
        <ele>1210.8</ele>
        <time>2021-05-27T12:55:03Z</time>
      </trkpt>
      <trkpt lat="45.62105" lon="6.82409">
        <ele>1210.4</ele>
        <time>2021-05-27T12:55:04Z</time>
      </trkpt>
      <trkpt lat="45.62097" lon="6.82423">
        <ele>1209.6</ele>
        <time>2021-05-27T12:55:05Z</time>
      </trkpt>
      <trkpt lat="45.6209" lon="6.82438">
        <ele>1209</ele>
        <time>2021-05-27T12:55:06Z</time>
      </trkpt>
      <trkpt lat="45.62085" lon="6.82454">
        <ele>1208.4</ele>
        <time>2021-05-27T12:55:07Z</time>
      </trkpt>
      <trkpt lat="45.6208" lon="6.82471">
        <ele>1208.2</ele>
        <time>2021-05-27T12:55:08Z</time>
      </trkpt>
      <trkpt lat="45.62075" lon="6.82488">
        <ele>1207.4</ele>
        <time>2021-05-27T12:55:09Z</time>
      </trkpt>
      <trkpt lat="45.62067" lon="6.82506">
        <ele>1207</ele>
        <time>2021-05-27T12:55:10Z</time>
      </trkpt>
      <trkpt lat="45.62062" lon="6.82516">
        <ele>1206.4</ele>
        <time>2021-05-27T12:55:11Z</time>
      </trkpt>
      <trkpt lat="45.62057" lon="6.82527">
        <ele>1205.8</ele>
        <time>2021-05-27T12:55:12Z</time>
      </trkpt>
      <trkpt lat="45.62053" lon="6.82537">
        <ele>1205.4</ele>
        <time>2021-05-27T12:55:13Z</time>
      </trkpt>
      <trkpt lat="45.62048" lon="6.82546">
        <ele>1205</ele>
        <time>2021-05-27T12:55:14Z</time>
      </trkpt>
      <trkpt lat="45.62044" lon="6.82554">
        <ele>1204.8</ele>
        <time>2021-05-27T12:55:15Z</time>
      </trkpt>
      <trkpt lat="45.62038" lon="6.82557">
        <ele>1204.4</ele>
        <time>2021-05-27T12:55:16Z</time>
      </trkpt>
      <trkpt lat="45.62034" lon="6.82554">
        <ele>1203.8</ele>
        <time>2021-05-27T12:55:17Z</time>
      </trkpt>
      <trkpt lat="45.62031" lon="6.82547">
        <ele>1203.6</ele>
        <time>2021-05-27T12:55:18Z</time>
      </trkpt>
      <trkpt lat="45.62031" lon="6.82539">
        <ele>1203.4</ele>
        <time>2021-05-27T12:55:19Z</time>
      </trkpt>
      <trkpt lat="45.62034" lon="6.82532">
        <ele>1203.4</ele>
        <time>2021-05-27T12:55:20Z</time>
      </trkpt>
      <trkpt lat="45.62039" lon="6.82526">
        <ele>1203.2</ele>
        <time>2021-05-27T12:55:21Z</time>
      </trkpt>
      <trkpt lat="45.62043" lon="6.82519">
        <ele>1203.2</ele>
        <time>2021-05-27T12:55:22Z</time>
      </trkpt>
      <trkpt lat="45.62049" lon="6.82509">
        <ele>1203.4</ele>
        <time>2021-05-27T12:55:23Z</time>
      </trkpt>
      <trkpt lat="45.62054" lon="6.825">
        <ele>1203.6</ele>
        <time>2021-05-27T12:55:24Z</time>
      </trkpt>
      <trkpt lat="45.62058" lon="6.8249">
        <ele>1203.6</ele>
        <time>2021-05-27T12:55:25Z</time>
      </trkpt>
      <trkpt lat="45.62062" lon="6.8248">
        <ele>1203.8</ele>
        <time>2021-05-27T12:55:26Z</time>
      </trkpt>
      <trkpt lat="45.62067" lon="6.8247">
        <ele>1203.4</ele>
        <time>2021-05-27T12:55:27Z</time>
      </trkpt>
      <trkpt lat="45.62071" lon="6.82459">
        <ele>1203</ele>
        <time>2021-05-27T12:55:28Z</time>
      </trkpt>
      <trkpt lat="45.62075" lon="6.82447">
        <ele>1202.8</ele>
        <time>2021-05-27T12:55:29Z</time>
      </trkpt>
      <trkpt lat="45.62078" lon="6.82435">
        <ele>1202.4</ele>
        <time>2021-05-27T12:55:30Z</time>
      </trkpt>
      <trkpt lat="45.62082" lon="6.82423">
        <ele>1202.6</ele>
        <time>2021-05-27T12:55:31Z</time>
      </trkpt>
      <trkpt lat="45.62086" lon="6.8241">
        <ele>1202.2</ele>
        <time>2021-05-27T12:55:32Z</time>
      </trkpt>
      <trkpt lat="45.62091" lon="6.82398">
        <ele>1201.6</ele>
        <time>2021-05-27T12:55:33Z</time>
      </trkpt>
      <trkpt lat="45.62096" lon="6.82385">
        <ele>1201.4</ele>
        <time>2021-05-27T12:55:34Z</time>
      </trkpt>
      <trkpt lat="45.621" lon="6.82372">
        <ele>1201.2</ele>
        <time>2021-05-27T12:55:35Z</time>
      </trkpt>
      <trkpt lat="45.62105" lon="6.82358">
        <ele>1200.6</ele>
        <time>2021-05-27T12:55:36Z</time>
      </trkpt>
      <trkpt lat="45.6211" lon="6.82344">
        <ele>1199.4</ele>
        <time>2021-05-27T12:55:37Z</time>
      </trkpt>
      <trkpt lat="45.62116" lon="6.82331">
        <ele>1198.4</ele>
        <time>2021-05-27T12:55:38Z</time>
      </trkpt>
      <trkpt lat="45.62122" lon="6.82318">
        <ele>1197.6</ele>
        <time>2021-05-27T12:55:39Z</time>
      </trkpt>
      <trkpt lat="45.6213" lon="6.82306">
        <ele>1197</ele>
        <time>2021-05-27T12:55:40Z</time>
      </trkpt>
      <trkpt lat="45.62139" lon="6.82296">
        <ele>1196</ele>
        <time>2021-05-27T12:55:41Z</time>
      </trkpt>
      <trkpt lat="45.62149" lon="6.82288">
        <ele>1194.6</ele>
        <time>2021-05-27T12:55:42Z</time>
      </trkpt>
      <trkpt lat="45.62159" lon="6.8228">
        <ele>1193.6</ele>
        <time>2021-05-27T12:55:43Z</time>
      </trkpt>
      <trkpt lat="45.62169" lon="6.82269">
        <ele>1192.8</ele>
        <time>2021-05-27T12:55:44Z</time>
      </trkpt>
      <trkpt lat="45.62178" lon="6.82258">
        <ele>1191.8</ele>
        <time>2021-05-27T12:55:45Z</time>
      </trkpt>
      <trkpt lat="45.62186" lon="6.82246">
        <ele>1191</ele>
        <time>2021-05-27T12:55:46Z</time>
      </trkpt>
      <trkpt lat="45.62194" lon="6.82234">
        <ele>1190.4</ele>
        <time>2021-05-27T12:55:47Z</time>
      </trkpt>
      <trkpt lat="45.62199" lon="6.82218">
        <ele>1189.6</ele>
        <time>2021-05-27T12:55:48Z</time>
      </trkpt>
      <trkpt lat="45.62204" lon="6.82202">
        <ele>1188.8</ele>
        <time>2021-05-27T12:55:49Z</time>
      </trkpt>
      <trkpt lat="45.62208" lon="6.82186">
        <ele>1188.2</ele>
        <time>2021-05-27T12:55:50Z</time>
      </trkpt>
      <trkpt lat="45.62213" lon="6.82171">
        <ele>1187.4</ele>
        <time>2021-05-27T12:55:51Z</time>
      </trkpt>
      <trkpt lat="45.62219" lon="6.82156">
        <ele>1187</ele>
        <time>2021-05-27T12:55:52Z</time>
      </trkpt>
      <trkpt lat="45.62226" lon="6.82143">
        <ele>1186.2</ele>
        <time>2021-05-27T12:55:53Z</time>
      </trkpt>
      <trkpt lat="45.62234" lon="6.8213">
        <ele>1185.2</ele>
        <time>2021-05-27T12:55:54Z</time>
      </trkpt>
      <trkpt lat="45.62243" lon="6.82119">
        <ele>1184.6</ele>
        <time>2021-05-27T12:55:55Z</time>
      </trkpt>
      <trkpt lat="45.62253" lon="6.8211">
        <ele>1183.8</ele>
        <time>2021-05-27T12:55:56Z</time>
      </trkpt>
      <trkpt lat="45.62264" lon="6.82104">
        <ele>1183.2</ele>
        <time>2021-05-27T12:55:57Z</time>
      </trkpt>
      <trkpt lat="45.62275" lon="6.82098">
        <ele>1182.6</ele>
        <time>2021-05-27T12:55:58Z</time>
      </trkpt>
      <trkpt lat="45.62287" lon="6.82093">
        <ele>1181.6</ele>
        <time>2021-05-27T12:55:59Z</time>
      </trkpt>
      <trkpt lat="45.62298" lon="6.82088">
        <ele>1181</ele>
        <time>2021-05-27T12:56:00Z</time>
      </trkpt>
      <trkpt lat="45.62309" lon="6.82082">
        <ele>1180.6</ele>
        <time>2021-05-27T12:56:01Z</time>
      </trkpt>
      <trkpt lat="45.62318" lon="6.82072">
        <ele>1180.6</ele>
        <time>2021-05-27T12:56:02Z</time>
      </trkpt>
      <trkpt lat="45.62326" lon="6.82062">
        <ele>1180.4</ele>
        <time>2021-05-27T12:56:03Z</time>
      </trkpt>
      <trkpt lat="45.62334" lon="6.8205">
        <ele>1179.4</ele>
        <time>2021-05-27T12:56:04Z</time>
      </trkpt>
      <trkpt lat="45.6234" lon="6.82037">
        <ele>1178.8</ele>
        <time>2021-05-27T12:56:05Z</time>
      </trkpt>
      <trkpt lat="45.62346" lon="6.82024">
        <ele>1177.6</ele>
        <time>2021-05-27T12:56:06Z</time>
      </trkpt>
      <trkpt lat="45.62353" lon="6.82011">
        <ele>1176.4</ele>
        <time>2021-05-27T12:56:07Z</time>
      </trkpt>
      <trkpt lat="45.6236" lon="6.81998">
        <ele>1175.6</ele>
        <time>2021-05-27T12:56:08Z</time>
      </trkpt>
      <trkpt lat="45.62368" lon="6.81985">
        <ele>1174.6</ele>
        <time>2021-05-27T12:56:09Z</time>
      </trkpt>
      <trkpt lat="45.62375" lon="6.81972">
        <ele>1173.8</ele>
        <time>2021-05-27T12:56:10Z</time>
      </trkpt>
      <trkpt lat="45.62383" lon="6.81961">
        <ele>1173</ele>
        <time>2021-05-27T12:56:11Z</time>
      </trkpt>
      <trkpt lat="45.62392" lon="6.81951">
        <ele>1172.4</ele>
        <time>2021-05-27T12:56:12Z</time>
      </trkpt>
      <trkpt lat="45.62401" lon="6.81942">
        <ele>1171.8</ele>
        <time>2021-05-27T12:56:13Z</time>
      </trkpt>
      <trkpt lat="45.62411" lon="6.81934">
        <ele>1170.6</ele>
        <time>2021-05-27T12:56:14Z</time>
      </trkpt>
      <trkpt lat="45.6242" lon="6.81925">
        <ele>1169.6</ele>
        <time>2021-05-27T12:56:15Z</time>
      </trkpt>
      <trkpt lat="45.62429" lon="6.81917">
        <ele>1168.8</ele>
        <time>2021-05-27T12:56:16Z</time>
      </trkpt>
      <trkpt lat="45.62439" lon="6.8191">
        <ele>1168.2</ele>
        <time>2021-05-27T12:56:17Z</time>
      </trkpt>
      <trkpt lat="45.62449" lon="6.81903">
        <ele>1167.4</ele>
        <time>2021-05-27T12:56:18Z</time>
      </trkpt>
      <trkpt lat="45.62459" lon="6.81895">
        <ele>1166.8</ele>
        <time>2021-05-27T12:56:19Z</time>
      </trkpt>
      <trkpt lat="45.62468" lon="6.81887">
        <ele>1166.2</ele>
        <time>2021-05-27T12:56:20Z</time>
      </trkpt>
      <trkpt lat="45.62477" lon="6.81878">
        <ele>1165.4</ele>
        <time>2021-05-27T12:56:21Z</time>
      </trkpt>
      <trkpt lat="45.62487" lon="6.8187">
        <ele>1164.4</ele>
        <time>2021-05-27T12:56:22Z</time>
      </trkpt>
      <trkpt lat="45.62497" lon="6.81862">
        <ele>1163.6</ele>
        <time>2021-05-27T12:56:23Z</time>
      </trkpt>
      <trkpt lat="45.62507" lon="6.81853">
        <ele>1163</ele>
        <time>2021-05-27T12:56:24Z</time>
      </trkpt>
      <trkpt lat="45.62516" lon="6.81845">
        <ele>1162</ele>
        <time>2021-05-27T12:56:25Z</time>
      </trkpt>
      <trkpt lat="45.62525" lon="6.81837">
        <ele>1161.4</ele>
        <time>2021-05-27T12:56:26Z</time>
      </trkpt>
      <trkpt lat="45.62535" lon="6.81829">
        <ele>1161</ele>
        <time>2021-05-27T12:56:27Z</time>
      </trkpt>
      <trkpt lat="45.62544" lon="6.81823">
        <ele>1159.8</ele>
        <time>2021-05-27T12:56:28Z</time>
      </trkpt>
      <trkpt lat="45.62554" lon="6.81818">
        <ele>1159.4</ele>
        <time>2021-05-27T12:56:29Z</time>
      </trkpt>
      <trkpt lat="45.62565" lon="6.81816">
        <ele>1158.4</ele>
        <time>2021-05-27T12:56:30Z</time>
      </trkpt>
      <trkpt lat="45.62576" lon="6.81814">
        <ele>1157.4</ele>
        <time>2021-05-27T12:56:31Z</time>
      </trkpt>
      <trkpt lat="45.62586" lon="6.81811">
        <ele>1156.6</ele>
        <time>2021-05-27T12:56:32Z</time>
      </trkpt>
      <trkpt lat="45.62596" lon="6.81806">
        <ele>1156.2</ele>
        <time>2021-05-27T12:56:33Z</time>
      </trkpt>
      <trkpt lat="45.62606" lon="6.81799">
        <ele>1155.8</ele>
        <time>2021-05-27T12:56:34Z</time>
      </trkpt>
      <trkpt lat="45.62615" lon="6.8179">
        <ele>1155.2</ele>
        <time>2021-05-27T12:56:35Z</time>
      </trkpt>
      <trkpt lat="45.62624" lon="6.81779">
        <ele>1154.6</ele>
        <time>2021-05-27T12:56:36Z</time>
      </trkpt>
      <trkpt lat="45.62632" lon="6.81768">
        <ele>1154</ele>
        <time>2021-05-27T12:56:37Z</time>
      </trkpt>
      <trkpt lat="45.6264" lon="6.81756">
        <ele>1154</ele>
        <time>2021-05-27T12:56:38Z</time>
      </trkpt>
      <trkpt lat="45.62648" lon="6.81744">
        <ele>1153.2</ele>
        <time>2021-05-27T12:56:39Z</time>
      </trkpt>
      <trkpt lat="45.62656" lon="6.81733">
        <ele>1152.6</ele>
        <time>2021-05-27T12:56:40Z</time>
      </trkpt>
      <trkpt lat="45.62663" lon="6.81722">
        <ele>1152.6</ele>
        <time>2021-05-27T12:56:41Z</time>
      </trkpt>
      <trkpt lat="45.62671" lon="6.8171">
        <ele>1152.4</ele>
        <time>2021-05-27T12:56:42Z</time>
      </trkpt>
      <trkpt lat="45.62677" lon="6.81697">
        <ele>1152</ele>
        <time>2021-05-27T12:56:43Z</time>
      </trkpt>
      <trkpt lat="45.62684" lon="6.81683">
        <ele>1151.4</ele>
        <time>2021-05-27T12:56:44Z</time>
      </trkpt>
      <trkpt lat="45.62689" lon="6.81669">
        <ele>1150.6</ele>
        <time>2021-05-27T12:56:45Z</time>
      </trkpt>
      <trkpt lat="45.62695" lon="6.81655">
        <ele>1149.8</ele>
        <time>2021-05-27T12:56:46Z</time>
      </trkpt>
      <trkpt lat="45.62701" lon="6.81642">
        <ele>1149.4</ele>
        <time>2021-05-27T12:56:47Z</time>
      </trkpt>
      <trkpt lat="45.62705" lon="6.81629">
        <ele>1148.8</ele>
        <time>2021-05-27T12:56:48Z</time>
      </trkpt>
      <trkpt lat="45.6271" lon="6.81617">
        <ele>1148.4</ele>
        <time>2021-05-27T12:56:49Z</time>
      </trkpt>
      <trkpt lat="45.62713" lon="6.81606">
        <ele>1147.6</ele>
        <time>2021-05-27T12:56:50Z</time>
      </trkpt>
      <trkpt lat="45.62714" lon="6.81597">
        <ele>1146.8</ele>
        <time>2021-05-27T12:56:51Z</time>
      </trkpt>
      <trkpt lat="45.62707" lon="6.8159">
        <ele>1146.2</ele>
        <time>2021-05-27T12:56:52Z</time>
      </trkpt>
      <trkpt lat="45.62702" lon="6.81587">
        <ele>1146</ele>
        <time>2021-05-27T12:56:53Z</time>
      </trkpt>
      <trkpt lat="45.62696" lon="6.81587">
        <ele>1145.4</ele>
        <time>2021-05-27T12:56:54Z</time>
      </trkpt>
      <trkpt lat="45.62691" lon="6.81592">
        <ele>1145.2</ele>
        <time>2021-05-27T12:56:55Z</time>
      </trkpt>
      <trkpt lat="45.62685" lon="6.81598">
        <ele>1145</ele>
        <time>2021-05-27T12:56:56Z</time>
      </trkpt>
      <trkpt lat="45.62679" lon="6.81606">
        <ele>1144.4</ele>
        <time>2021-05-27T12:56:57Z</time>
      </trkpt>
      <trkpt lat="45.62673" lon="6.81615">
        <ele>1144.6</ele>
        <time>2021-05-27T12:56:58Z</time>
      </trkpt>
      <trkpt lat="45.62667" lon="6.81624">
        <ele>1144.4</ele>
        <time>2021-05-27T12:56:59Z</time>
      </trkpt>
      <trkpt lat="45.6266" lon="6.81634">
        <ele>1144.4</ele>
        <time>2021-05-27T12:57:00Z</time>
      </trkpt>
      <trkpt lat="45.62653" lon="6.81644">
        <ele>1144.4</ele>
        <time>2021-05-27T12:57:01Z</time>
      </trkpt>
      <trkpt lat="45.62646" lon="6.81654">
        <ele>1144.2</ele>
        <time>2021-05-27T12:57:02Z</time>
      </trkpt>
      <trkpt lat="45.62638" lon="6.81665">
        <ele>1144</ele>
        <time>2021-05-27T12:57:03Z</time>
      </trkpt>
      <trkpt lat="45.62629" lon="6.81675">
        <ele>1143.6</ele>
        <time>2021-05-27T12:57:04Z</time>
      </trkpt>
      <trkpt lat="45.6262" lon="6.81684">
        <ele>1143.4</ele>
        <time>2021-05-27T12:57:05Z</time>
      </trkpt>
      <trkpt lat="45.62612" lon="6.81693">
        <ele>1142.8</ele>
        <time>2021-05-27T12:57:06Z</time>
      </trkpt>
      <trkpt lat="45.62603" lon="6.81701">
        <ele>1142.2</ele>
        <time>2021-05-27T12:57:07Z</time>
      </trkpt>
      <trkpt lat="45.62594" lon="6.81709">
        <ele>1141.6</ele>
        <time>2021-05-27T12:57:08Z</time>
      </trkpt>
      <trkpt lat="45.62584" lon="6.81717">
        <ele>1140.8</ele>
        <time>2021-05-27T12:57:09Z</time>
      </trkpt>
      <trkpt lat="45.62574" lon="6.81725">
        <ele>1141</ele>
        <time>2021-05-27T12:57:10Z</time>
      </trkpt>
      <trkpt lat="45.62563" lon="6.81731">
        <ele>1140.2</ele>
        <time>2021-05-27T12:57:11Z</time>
      </trkpt>
      <trkpt lat="45.62552" lon="6.81736">
        <ele>1139.2</ele>
        <time>2021-05-27T12:57:12Z</time>
      </trkpt>
      <trkpt lat="45.6254" lon="6.81739">
        <ele>1139</ele>
        <time>2021-05-27T12:57:13Z</time>
      </trkpt>
      <trkpt lat="45.62529" lon="6.8174">
        <ele>1138.2</ele>
        <time>2021-05-27T12:57:14Z</time>
      </trkpt>
      <trkpt lat="45.62517" lon="6.81741">
        <ele>1137.6</ele>
        <time>2021-05-27T12:57:15Z</time>
      </trkpt>
      <trkpt lat="45.62503" lon="6.81741">
        <ele>1136.8</ele>
        <time>2021-05-27T12:57:16Z</time>
      </trkpt>
      <trkpt lat="45.62492" lon="6.81741">
        <ele>1136</ele>
        <time>2021-05-27T12:57:17Z</time>
      </trkpt>
      <trkpt lat="45.6248" lon="6.81742">
        <ele>1135.4</ele>
        <time>2021-05-27T12:57:18Z</time>
      </trkpt>
      <trkpt lat="45.62468" lon="6.81743">
        <ele>1134.6</ele>
        <time>2021-05-27T12:57:19Z</time>
      </trkpt>
      <trkpt lat="45.62453" lon="6.81744">
        <ele>1134.2</ele>
        <time>2021-05-27T12:57:20Z</time>
      </trkpt>
      <trkpt lat="45.62443" lon="6.81746">
        <ele>1133.6</ele>
        <time>2021-05-27T12:57:21Z</time>
      </trkpt>
      <trkpt lat="45.6243" lon="6.8175">
        <ele>1133</ele>
        <time>2021-05-27T12:57:22Z</time>
      </trkpt>
      <trkpt lat="45.62418" lon="6.81753">
        <ele>1133</ele>
        <time>2021-05-27T12:57:23Z</time>
      </trkpt>
      <trkpt lat="45.62403" lon="6.81758">
        <ele>1132.4</ele>
        <time>2021-05-27T12:57:24Z</time>
      </trkpt>
      <trkpt lat="45.62392" lon="6.81762">
        <ele>1132.4</ele>
        <time>2021-05-27T12:57:25Z</time>
      </trkpt>
      <trkpt lat="45.6238" lon="6.81767">
        <ele>1132</ele>
        <time>2021-05-27T12:57:26Z</time>
      </trkpt>
      <trkpt lat="45.62367" lon="6.81773">
        <ele>1131.4</ele>
        <time>2021-05-27T12:57:27Z</time>
      </trkpt>
      <trkpt lat="45.62355" lon="6.81779">
        <ele>1130.6</ele>
        <time>2021-05-27T12:57:28Z</time>
      </trkpt>
      <trkpt lat="45.62342" lon="6.81787">
        <ele>1130.4</ele>
        <time>2021-05-27T12:57:29Z</time>
      </trkpt>
      <trkpt lat="45.62331" lon="6.81796">
        <ele>1130.2</ele>
        <time>2021-05-27T12:57:30Z</time>
      </trkpt>
      <trkpt lat="45.62322" lon="6.81807">
        <ele>1129.2</ele>
        <time>2021-05-27T12:57:31Z</time>
      </trkpt>
      <trkpt lat="45.62312" lon="6.8182">
        <ele>1129.2</ele>
        <time>2021-05-27T12:57:32Z</time>
      </trkpt>
      <trkpt lat="45.62304" lon="6.81834">
        <ele>1128.8</ele>
        <time>2021-05-27T12:57:33Z</time>
      </trkpt>
      <trkpt lat="45.62295" lon="6.81848">
        <ele>1128</ele>
        <time>2021-05-27T12:57:34Z</time>
      </trkpt>
      <trkpt lat="45.62286" lon="6.81861">
        <ele>1127.4</ele>
        <time>2021-05-27T12:57:35Z</time>
      </trkpt>
      <trkpt lat="45.62276" lon="6.81874">
        <ele>1126.8</ele>
        <time>2021-05-27T12:57:36Z</time>
      </trkpt>
      <trkpt lat="45.62265" lon="6.81884">
        <ele>1126.4</ele>
        <time>2021-05-27T12:57:37Z</time>
      </trkpt>
      <trkpt lat="45.62253" lon="6.81892">
        <ele>1126</ele>
        <time>2021-05-27T12:57:38Z</time>
      </trkpt>
      <trkpt lat="45.6224" lon="6.81896">
        <ele>1125.2</ele>
        <time>2021-05-27T12:57:39Z</time>
      </trkpt>
      <trkpt lat="45.62228" lon="6.819">
        <ele>1124.6</ele>
        <time>2021-05-27T12:57:40Z</time>
      </trkpt>
      <trkpt lat="45.62216" lon="6.81904">
        <ele>1124.2</ele>
        <time>2021-05-27T12:57:41Z</time>
      </trkpt>
      <trkpt lat="45.62203" lon="6.81911">
        <ele>1122.8</ele>
        <time>2021-05-27T12:57:42Z</time>
      </trkpt>
      <trkpt lat="45.62195" lon="6.81919">
        <ele>1122</ele>
        <time>2021-05-27T12:57:43Z</time>
      </trkpt>
      <trkpt lat="45.62185" lon="6.81929">
        <ele>1121</ele>
        <time>2021-05-27T12:57:44Z</time>
      </trkpt>
      <trkpt lat="45.62176" lon="6.8194">
        <ele>1120.6</ele>
        <time>2021-05-27T12:57:45Z</time>
      </trkpt>
      <trkpt lat="45.62167" lon="6.81952">
        <ele>1120</ele>
        <time>2021-05-27T12:57:46Z</time>
      </trkpt>
      <trkpt lat="45.62158" lon="6.81964">
        <ele>1119.4</ele>
        <time>2021-05-27T12:57:47Z</time>
      </trkpt>
      <trkpt lat="45.62149" lon="6.81976">
        <ele>1119</ele>
        <time>2021-05-27T12:57:48Z</time>
      </trkpt>
      <trkpt lat="45.6214" lon="6.81989">
        <ele>1118.4</ele>
        <time>2021-05-27T12:57:49Z</time>
      </trkpt>
      <trkpt lat="45.62131" lon="6.82001">
        <ele>1117.8</ele>
        <time>2021-05-27T12:57:50Z</time>
      </trkpt>
      <trkpt lat="45.62122" lon="6.82013">
        <ele>1117.2</ele>
        <time>2021-05-27T12:57:51Z</time>
      </trkpt>
      <trkpt lat="45.62113" lon="6.82026">
        <ele>1116.8</ele>
        <time>2021-05-27T12:57:52Z</time>
      </trkpt>
      <trkpt lat="45.62104" lon="6.82038">
        <ele>1116.2</ele>
        <time>2021-05-27T12:57:53Z</time>
      </trkpt>
      <trkpt lat="45.62095" lon="6.8205">
        <ele>1115.4</ele>
        <time>2021-05-27T12:57:54Z</time>
      </trkpt>
      <trkpt lat="45.62086" lon="6.82063">
        <ele>1115</ele>
        <time>2021-05-27T12:57:55Z</time>
      </trkpt>
      <trkpt lat="45.62074" lon="6.82078">
        <ele>1114.2</ele>
        <time>2021-05-27T12:57:56Z</time>
      </trkpt>
      <trkpt lat="45.62066" lon="6.82087">
        <ele>1113.4</ele>
        <time>2021-05-27T12:57:57Z</time>
      </trkpt>
      <trkpt lat="45.62056" lon="6.82098">
        <ele>1113</ele>
        <time>2021-05-27T12:57:58Z</time>
      </trkpt>
      <trkpt lat="45.62045" lon="6.82109">
        <ele>1112</ele>
        <time>2021-05-27T12:57:59Z</time>
      </trkpt>
      <trkpt lat="45.62032" lon="6.82124">
        <ele>1111.6</ele>
        <time>2021-05-27T12:58:00Z</time>
      </trkpt>
      <trkpt lat="45.62024" lon="6.82134">
        <ele>1110.6</ele>
        <time>2021-05-27T12:58:01Z</time>
      </trkpt>
      <trkpt lat="45.62014" lon="6.82148">
        <ele>1109.8</ele>
        <time>2021-05-27T12:58:02Z</time>
      </trkpt>
      <trkpt lat="45.62006" lon="6.82162">
        <ele>1109.6</ele>
        <time>2021-05-27T12:58:03Z</time>
      </trkpt>
      <trkpt lat="45.61998" lon="6.82177">
        <ele>1109.2</ele>
        <time>2021-05-27T12:58:04Z</time>
      </trkpt>
      <trkpt lat="45.6199" lon="6.82191">
        <ele>1109</ele>
        <time>2021-05-27T12:58:05Z</time>
      </trkpt>
      <trkpt lat="45.61981" lon="6.82203">
        <ele>1108</ele>
        <time>2021-05-27T12:58:06Z</time>
      </trkpt>
      <trkpt lat="45.61971" lon="6.82215">
        <ele>1107.4</ele>
        <time>2021-05-27T12:58:07Z</time>
      </trkpt>
      <trkpt lat="45.6196" lon="6.82225">
        <ele>1107</ele>
        <time>2021-05-27T12:58:08Z</time>
      </trkpt>
      <trkpt lat="45.61948" lon="6.82237">
        <ele>1106</ele>
        <time>2021-05-27T12:58:09Z</time>
      </trkpt>
      <trkpt lat="45.6194" lon="6.82246">
        <ele>1104.8</ele>
        <time>2021-05-27T12:58:10Z</time>
      </trkpt>
      <trkpt lat="45.61931" lon="6.82259">
        <ele>1104</ele>
        <time>2021-05-27T12:58:11Z</time>
      </trkpt>
      <trkpt lat="45.61924" lon="6.82272">
        <ele>1103.2</ele>
        <time>2021-05-27T12:58:12Z</time>
      </trkpt>
      <trkpt lat="45.61918" lon="6.82285">
        <ele>1102.2</ele>
        <time>2021-05-27T12:58:13Z</time>
      </trkpt>
      <trkpt lat="45.61913" lon="6.823">
        <ele>1101.2</ele>
        <time>2021-05-27T12:58:14Z</time>
      </trkpt>
      <trkpt lat="45.6191" lon="6.82309">
        <ele>1100.6</ele>
        <time>2021-05-27T12:58:15Z</time>
      </trkpt>
      <trkpt lat="45.61907" lon="6.82319">
        <ele>1100</ele>
        <time>2021-05-27T12:58:16Z</time>
      </trkpt>
      <trkpt lat="45.61903" lon="6.82326">
        <ele>1099.4</ele>
        <time>2021-05-27T12:58:17Z</time>
      </trkpt>
      <trkpt lat="45.61898" lon="6.82329">
        <ele>1099</ele>
        <time>2021-05-27T12:58:18Z</time>
      </trkpt>
      <trkpt lat="45.61895" lon="6.82325">
        <ele>1098.6</ele>
        <time>2021-05-27T12:58:19Z</time>
      </trkpt>
      <trkpt lat="45.61894" lon="6.82318">
        <ele>1098</ele>
        <time>2021-05-27T12:58:20Z</time>
      </trkpt>
      <trkpt lat="45.61895" lon="6.82308">
        <ele>1097.6</ele>
        <time>2021-05-27T12:58:21Z</time>
      </trkpt>
      <trkpt lat="45.61899" lon="6.82299">
        <ele>1097.2</ele>
        <time>2021-05-27T12:58:22Z</time>
      </trkpt>
      <trkpt lat="45.61903" lon="6.82288">
        <ele>1096.8</ele>
        <time>2021-05-27T12:58:23Z</time>
      </trkpt>
      <trkpt lat="45.61907" lon="6.8228">
        <ele>1096.4</ele>
        <time>2021-05-27T12:58:24Z</time>
      </trkpt>
      <trkpt lat="45.61911" lon="6.82271">
        <ele>1096</ele>
        <time>2021-05-27T12:58:25Z</time>
      </trkpt>
      <trkpt lat="45.61916" lon="6.82261">
        <ele>1095.8</ele>
        <time>2021-05-27T12:58:26Z</time>
      </trkpt>
      <trkpt lat="45.61921" lon="6.8225">
        <ele>1095.4</ele>
        <time>2021-05-27T12:58:27Z</time>
      </trkpt>
      <trkpt lat="45.61925" lon="6.82238">
        <ele>1095</ele>
        <time>2021-05-27T12:58:28Z</time>
      </trkpt>
      <trkpt lat="45.61931" lon="6.82226">
        <ele>1094.6</ele>
        <time>2021-05-27T12:58:29Z</time>
      </trkpt>
      <trkpt lat="45.61935" lon="6.82213">
        <ele>1094</ele>
        <time>2021-05-27T12:58:30Z</time>
      </trkpt>
      <trkpt lat="45.61941" lon="6.82201">
        <ele>1093.6</ele>
        <time>2021-05-27T12:58:31Z</time>
      </trkpt>
      <trkpt lat="45.61947" lon="6.82189">
        <ele>1092.8</ele>
        <time>2021-05-27T12:58:32Z</time>
      </trkpt>
      <trkpt lat="45.61953" lon="6.82176">
        <ele>1092</ele>
        <time>2021-05-27T12:58:33Z</time>
      </trkpt>
      <trkpt lat="45.6196" lon="6.82165">
        <ele>1091.6</ele>
        <time>2021-05-27T12:58:34Z</time>
      </trkpt>
      <trkpt lat="45.61967" lon="6.82154">
        <ele>1090.6</ele>
        <time>2021-05-27T12:58:35Z</time>
      </trkpt>
      <trkpt lat="45.61974" lon="6.82142">
        <ele>1090.2</ele>
        <time>2021-05-27T12:58:36Z</time>
      </trkpt>
      <trkpt lat="45.6198" lon="6.8213">
        <ele>1089.6</ele>
        <time>2021-05-27T12:58:37Z</time>
      </trkpt>
      <trkpt lat="45.61987" lon="6.82117">
        <ele>1089.2</ele>
        <time>2021-05-27T12:58:38Z</time>
      </trkpt>
      <trkpt lat="45.61994" lon="6.82104">
        <ele>1088.4</ele>
        <time>2021-05-27T12:58:39Z</time>
      </trkpt>
      <trkpt lat="45.62" lon="6.82092">
        <ele>1087.6</ele>
        <time>2021-05-27T12:58:40Z</time>
      </trkpt>
      <trkpt lat="45.62006" lon="6.82078">
        <ele>1086.8</ele>
        <time>2021-05-27T12:58:41Z</time>
      </trkpt>
      <trkpt lat="45.62012" lon="6.82064">
        <ele>1086.2</ele>
        <time>2021-05-27T12:58:42Z</time>
      </trkpt>
      <trkpt lat="45.62019" lon="6.82052">
        <ele>1085.4</ele>
        <time>2021-05-27T12:58:43Z</time>
      </trkpt>
      <trkpt lat="45.62026" lon="6.82039">
        <ele>1084.8</ele>
        <time>2021-05-27T12:58:44Z</time>
      </trkpt>
      <trkpt lat="45.62034" lon="6.82027">
        <ele>1084.2</ele>
        <time>2021-05-27T12:58:45Z</time>
      </trkpt>
      <trkpt lat="45.62041" lon="6.82013">
        <ele>1083.4</ele>
        <time>2021-05-27T12:58:46Z</time>
      </trkpt>
      <trkpt lat="45.62048" lon="6.81999">
        <ele>1082.8</ele>
        <time>2021-05-27T12:58:47Z</time>
      </trkpt>
      <trkpt lat="45.62055" lon="6.81986">
        <ele>1082.4</ele>
        <time>2021-05-27T12:58:48Z</time>
      </trkpt>
      <trkpt lat="45.62062" lon="6.81973">
        <ele>1081.6</ele>
        <time>2021-05-27T12:58:49Z</time>
      </trkpt>
      <trkpt lat="45.62068" lon="6.81959">
        <ele>1080.8</ele>
        <time>2021-05-27T12:58:50Z</time>
      </trkpt>
      <trkpt lat="45.62074" lon="6.81944">
        <ele>1080</ele>
        <time>2021-05-27T12:58:51Z</time>
      </trkpt>
      <trkpt lat="45.62078" lon="6.81928">
        <ele>1079.4</ele>
        <time>2021-05-27T12:58:52Z</time>
      </trkpt>
      <trkpt lat="45.62082" lon="6.81912">
        <ele>1078.8</ele>
        <time>2021-05-27T12:58:53Z</time>
      </trkpt>
      <trkpt lat="45.62084" lon="6.81896">
        <ele>1077.8</ele>
        <time>2021-05-27T12:58:54Z</time>
      </trkpt>
      <trkpt lat="45.62085" lon="6.81879">
        <ele>1077.4</ele>
        <time>2021-05-27T12:58:55Z</time>
      </trkpt>
      <trkpt lat="45.62088" lon="6.81863">
        <ele>1077</ele>
        <time>2021-05-27T12:58:56Z</time>
      </trkpt>
      <trkpt lat="45.62091" lon="6.81848">
        <ele>1076</ele>
        <time>2021-05-27T12:58:57Z</time>
      </trkpt>
      <trkpt lat="45.62094" lon="6.81834">
        <ele>1075.4</ele>
        <time>2021-05-27T12:58:58Z</time>
      </trkpt>
      <trkpt lat="45.62098" lon="6.8182">
        <ele>1074.8</ele>
        <time>2021-05-27T12:58:59Z</time>
      </trkpt>
      <trkpt lat="45.62102" lon="6.81807">
        <ele>1073.8</ele>
        <time>2021-05-27T12:59:00Z</time>
      </trkpt>
      <trkpt lat="45.62107" lon="6.81794">
        <ele>1073.4</ele>
        <time>2021-05-27T12:59:01Z</time>
      </trkpt>
      <trkpt lat="45.62112" lon="6.8178">
        <ele>1073</ele>
        <time>2021-05-27T12:59:02Z</time>
      </trkpt>
      <trkpt lat="45.62117" lon="6.81764">
        <ele>1073</ele>
        <time>2021-05-27T12:59:03Z</time>
      </trkpt>
      <trkpt lat="45.62122" lon="6.81753">
        <ele>1072.6</ele>
        <time>2021-05-27T12:59:04Z</time>
      </trkpt>
      <trkpt lat="45.62128" lon="6.8174">
        <ele>1072.2</ele>
        <time>2021-05-27T12:59:05Z</time>
      </trkpt>
      <trkpt lat="45.62134" lon="6.81728">
        <ele>1071.4</ele>
        <time>2021-05-27T12:59:06Z</time>
      </trkpt>
      <trkpt lat="45.62141" lon="6.81718">
        <ele>1070.8</ele>
        <time>2021-05-27T12:59:07Z</time>
      </trkpt>
      <trkpt lat="45.6215" lon="6.81709">
        <ele>1070.2</ele>
        <time>2021-05-27T12:59:08Z</time>
      </trkpt>
      <trkpt lat="45.62158" lon="6.81699">
        <ele>1069.6</ele>
        <time>2021-05-27T12:59:09Z</time>
      </trkpt>
      <trkpt lat="45.62166" lon="6.8169">
        <ele>1069</ele>
        <time>2021-05-27T12:59:10Z</time>
      </trkpt>
      <trkpt lat="45.62175" lon="6.8168">
        <ele>1068.4</ele>
        <time>2021-05-27T12:59:11Z</time>
      </trkpt>
      <trkpt lat="45.62185" lon="6.8167">
        <ele>1067.6</ele>
        <time>2021-05-27T12:59:12Z</time>
      </trkpt>
      <trkpt lat="45.62193" lon="6.81664">
        <ele>1067</ele>
        <time>2021-05-27T12:59:13Z</time>
      </trkpt>
      <trkpt lat="45.62202" lon="6.81656">
        <ele>1066.4</ele>
        <time>2021-05-27T12:59:14Z</time>
      </trkpt>
      <trkpt lat="45.62211" lon="6.81648">
        <ele>1066</ele>
        <time>2021-05-27T12:59:15Z</time>
      </trkpt>
      <trkpt lat="45.6222" lon="6.81638">
        <ele>1065.2</ele>
        <time>2021-05-27T12:59:16Z</time>
      </trkpt>
      <trkpt lat="45.62229" lon="6.81628">
        <ele>1064.4</ele>
        <time>2021-05-27T12:59:17Z</time>
      </trkpt>
      <trkpt lat="45.62237" lon="6.81616">
        <ele>1063.6</ele>
        <time>2021-05-27T12:59:18Z</time>
      </trkpt>
      <trkpt lat="45.62243" lon="6.81603">
        <ele>1062.8</ele>
        <time>2021-05-27T12:59:19Z</time>
      </trkpt>
      <trkpt lat="45.62247" lon="6.81588">
        <ele>1062.4</ele>
        <time>2021-05-27T12:59:20Z</time>
      </trkpt>
      <trkpt lat="45.6225" lon="6.81572">
        <ele>1061.8</ele>
        <time>2021-05-27T12:59:21Z</time>
      </trkpt>
      <trkpt lat="45.62253" lon="6.81556">
        <ele>1061</ele>
        <time>2021-05-27T12:59:22Z</time>
      </trkpt>
      <trkpt lat="45.62257" lon="6.81541">
        <ele>1060.6</ele>
        <time>2021-05-27T12:59:23Z</time>
      </trkpt>
      <trkpt lat="45.62263" lon="6.81529">
        <ele>1059.6</ele>
        <time>2021-05-27T12:59:24Z</time>
      </trkpt>
      <trkpt lat="45.6227" lon="6.81518">
        <ele>1058.2</ele>
        <time>2021-05-27T12:59:25Z</time>
      </trkpt>
      <trkpt lat="45.62278" lon="6.81508">
        <ele>1057.6</ele>
        <time>2021-05-27T12:59:26Z</time>
      </trkpt>
      <trkpt lat="45.62288" lon="6.815">
        <ele>1057</ele>
        <time>2021-05-27T12:59:27Z</time>
      </trkpt>
      <trkpt lat="45.62297" lon="6.81492">
        <ele>1056.4</ele>
        <time>2021-05-27T12:59:28Z</time>
      </trkpt>
      <trkpt lat="45.62307" lon="6.81484">
        <ele>1055.4</ele>
        <time>2021-05-27T12:59:29Z</time>
      </trkpt>
      <trkpt lat="45.62316" lon="6.81476">
        <ele>1054.4</ele>
        <time>2021-05-27T12:59:30Z</time>
      </trkpt>
      <trkpt lat="45.62326" lon="6.81469">
        <ele>1053.2</ele>
        <time>2021-05-27T12:59:31Z</time>
      </trkpt>
      <trkpt lat="45.62336" lon="6.81462">
        <ele>1052.2</ele>
        <time>2021-05-27T12:59:32Z</time>
      </trkpt>
      <trkpt lat="45.62346" lon="6.81457">
        <ele>1051.6</ele>
        <time>2021-05-27T12:59:33Z</time>
      </trkpt>
      <trkpt lat="45.62356" lon="6.81453">
        <ele>1050.8</ele>
        <time>2021-05-27T12:59:34Z</time>
      </trkpt>
      <trkpt lat="45.62368" lon="6.81449">
        <ele>1050.2</ele>
        <time>2021-05-27T12:59:35Z</time>
      </trkpt>
      <trkpt lat="45.62379" lon="6.81444">
        <ele>1049.2</ele>
        <time>2021-05-27T12:59:36Z</time>
      </trkpt>
      <trkpt lat="45.62389" lon="6.81438">
        <ele>1048.4</ele>
        <time>2021-05-27T12:59:37Z</time>
      </trkpt>
      <trkpt lat="45.62398" lon="6.81432">
        <ele>1047.4</ele>
        <time>2021-05-27T12:59:38Z</time>
      </trkpt>
      <trkpt lat="45.62408" lon="6.81424">
        <ele>1046.8</ele>
        <time>2021-05-27T12:59:39Z</time>
      </trkpt>
      <trkpt lat="45.62418" lon="6.81415">
        <ele>1046.6</ele>
        <time>2021-05-27T12:59:40Z</time>
      </trkpt>
      <trkpt lat="45.62425" lon="6.81404">
        <ele>1045.6</ele>
        <time>2021-05-27T12:59:41Z</time>
      </trkpt>
      <trkpt lat="45.62431" lon="6.81391">
        <ele>1044.8</ele>
        <time>2021-05-27T12:59:42Z</time>
      </trkpt>
      <trkpt lat="45.62436" lon="6.81377">
        <ele>1044</ele>
        <time>2021-05-27T12:59:43Z</time>
      </trkpt>
      <trkpt lat="45.62442" lon="6.81364">
        <ele>1043.2</ele>
        <time>2021-05-27T12:59:44Z</time>
      </trkpt>
      <trkpt lat="45.62449" lon="6.81351">
        <ele>1042.4</ele>
        <time>2021-05-27T12:59:45Z</time>
      </trkpt>
      <trkpt lat="45.62457" lon="6.81341">
        <ele>1041.8</ele>
        <time>2021-05-27T12:59:46Z</time>
      </trkpt>
      <trkpt lat="45.62465" lon="6.81332">
        <ele>1041.6</ele>
        <time>2021-05-27T12:59:47Z</time>
      </trkpt>
      <trkpt lat="45.62475" lon="6.81325">
        <ele>1040.8</ele>
        <time>2021-05-27T12:59:48Z</time>
      </trkpt>
      <trkpt lat="45.62484" lon="6.81318">
        <ele>1039.8</ele>
        <time>2021-05-27T12:59:49Z</time>
      </trkpt>
      <trkpt lat="45.62493" lon="6.8131">
        <ele>1039.2</ele>
        <time>2021-05-27T12:59:50Z</time>
      </trkpt>
      <trkpt lat="45.62503" lon="6.81302">
        <ele>1038.6</ele>
        <time>2021-05-27T12:59:51Z</time>
      </trkpt>
      <trkpt lat="45.62511" lon="6.81292">
        <ele>1037.8</ele>
        <time>2021-05-27T12:59:52Z</time>
      </trkpt>
      <trkpt lat="45.62519" lon="6.81284">
        <ele>1037.4</ele>
        <time>2021-05-27T12:59:53Z</time>
      </trkpt>
      <trkpt lat="45.62529" lon="6.81278">
        <ele>1037</ele>
        <time>2021-05-27T12:59:54Z</time>
      </trkpt>
      <trkpt lat="45.62539" lon="6.81275">
        <ele>1036.6</ele>
        <time>2021-05-27T12:59:55Z</time>
      </trkpt>
      <trkpt lat="45.62548" lon="6.81276">
        <ele>1035.8</ele>
        <time>2021-05-27T12:59:56Z</time>
      </trkpt>
      <trkpt lat="45.62558" lon="6.8128">
        <ele>1035.2</ele>
        <time>2021-05-27T12:59:57Z</time>
      </trkpt>
      <trkpt lat="45.62566" lon="6.81287">
        <ele>1034.4</ele>
        <time>2021-05-27T12:59:58Z</time>
      </trkpt>
      <trkpt lat="45.62575" lon="6.81294">
        <ele>1033.6</ele>
        <time>2021-05-27T12:59:59Z</time>
      </trkpt>
      <trkpt lat="45.62584" lon="6.813">
        <ele>1033.6</ele>
        <time>2021-05-27T13:00:00Z</time>
      </trkpt>
      <trkpt lat="45.62594" lon="6.81304">
        <ele>1031.4</ele>
        <time>2021-05-27T13:00:01Z</time>
      </trkpt>
      <trkpt lat="45.62604" lon="6.81306">
        <ele>1030.8</ele>
        <time>2021-05-27T13:00:02Z</time>
      </trkpt>
      <trkpt lat="45.62614" lon="6.81304">
        <ele>1030</ele>
        <time>2021-05-27T13:00:03Z</time>
      </trkpt>
      <trkpt lat="45.62624" lon="6.81301">
        <ele>1029</ele>
        <time>2021-05-27T13:00:04Z</time>
      </trkpt>
      <trkpt lat="45.62634" lon="6.81296">
        <ele>1028.6</ele>
        <time>2021-05-27T13:00:05Z</time>
      </trkpt>
      <trkpt lat="45.62644" lon="6.81292">
        <ele>1028</ele>
        <time>2021-05-27T13:00:06Z</time>
      </trkpt>
      <trkpt lat="45.62653" lon="6.81285">
        <ele>1027.4</ele>
        <time>2021-05-27T13:00:07Z</time>
      </trkpt>
      <trkpt lat="45.62661" lon="6.81277">
        <ele>1026.6</ele>
        <time>2021-05-27T13:00:08Z</time>
      </trkpt>
      <trkpt lat="45.62669" lon="6.81269">
        <ele>1025.8</ele>
        <time>2021-05-27T13:00:09Z</time>
      </trkpt>
      <trkpt lat="45.62676" lon="6.81262">
        <ele>1025</ele>
        <time>2021-05-27T13:00:10Z</time>
      </trkpt>
      <trkpt lat="45.62684" lon="6.81254">
        <ele>1024.2</ele>
        <time>2021-05-27T13:00:11Z</time>
      </trkpt>
      <trkpt lat="45.6269" lon="6.81243">
        <ele>1023.4</ele>
        <time>2021-05-27T13:00:12Z</time>
      </trkpt>
      <trkpt lat="45.62693" lon="6.81234">
        <ele>1022.8</ele>
        <time>2021-05-27T13:00:13Z</time>
      </trkpt>
      <trkpt lat="45.62695" lon="6.81223">
        <ele>1022.8</ele>
        <time>2021-05-27T13:00:14Z</time>
      </trkpt>
      <trkpt lat="45.62697" lon="6.8121">
        <ele>1022.4</ele>
        <time>2021-05-27T13:00:15Z</time>
      </trkpt>
      <trkpt lat="45.62699" lon="6.81197">
        <ele>1021.6</ele>
        <time>2021-05-27T13:00:16Z</time>
      </trkpt>
      <trkpt lat="45.627" lon="6.81184">
        <ele>1021.2</ele>
        <time>2021-05-27T13:00:17Z</time>
      </trkpt>
      <trkpt lat="45.62699" lon="6.8117">
        <ele>1020.6</ele>
        <time>2021-05-27T13:00:18Z</time>
      </trkpt>
      <trkpt lat="45.62697" lon="6.81156">
        <ele>1020</ele>
        <time>2021-05-27T13:00:19Z</time>
      </trkpt>
      <trkpt lat="45.62695" lon="6.81142">
        <ele>1019.6</ele>
        <time>2021-05-27T13:00:20Z</time>
      </trkpt>
      <trkpt lat="45.62693" lon="6.81128">
        <ele>1019.2</ele>
        <time>2021-05-27T13:00:21Z</time>
      </trkpt>
      <trkpt lat="45.62691" lon="6.81113">
        <ele>1018.6</ele>
        <time>2021-05-27T13:00:22Z</time>
      </trkpt>
      <trkpt lat="45.62689" lon="6.81098">
        <ele>1017.6</ele>
        <time>2021-05-27T13:00:23Z</time>
      </trkpt>
      <trkpt lat="45.62688" lon="6.81083">
        <ele>1017</ele>
        <time>2021-05-27T13:00:24Z</time>
      </trkpt>
      <trkpt lat="45.62686" lon="6.81068">
        <ele>1016.2</ele>
        <time>2021-05-27T13:00:25Z</time>
      </trkpt>
      <trkpt lat="45.62686" lon="6.81052">
        <ele>1016</ele>
        <time>2021-05-27T13:00:26Z</time>
      </trkpt>
      <trkpt lat="45.62686" lon="6.81036">
        <ele>1015.2</ele>
        <time>2021-05-27T13:00:27Z</time>
      </trkpt>
      <trkpt lat="45.62686" lon="6.81019">
        <ele>1014.8</ele>
        <time>2021-05-27T13:00:28Z</time>
      </trkpt>
      <trkpt lat="45.62686" lon="6.81002">
        <ele>1013.8</ele>
        <time>2021-05-27T13:00:29Z</time>
      </trkpt>
      <trkpt lat="45.62685" lon="6.80984">
        <ele>1012.8</ele>
        <time>2021-05-27T13:00:30Z</time>
      </trkpt>
      <trkpt lat="45.62685" lon="6.80967">
        <ele>1012</ele>
        <time>2021-05-27T13:00:31Z</time>
      </trkpt>
      <trkpt lat="45.62685" lon="6.8095">
        <ele>1011.2</ele>
        <time>2021-05-27T13:00:32Z</time>
      </trkpt>
      <trkpt lat="45.62685" lon="6.80935">
        <ele>1010.2</ele>
        <time>2021-05-27T13:00:33Z</time>
      </trkpt>
      <trkpt lat="45.62683" lon="6.80921">
        <ele>1009.4</ele>
        <time>2021-05-27T13:00:34Z</time>
      </trkpt>
      <trkpt lat="45.62678" lon="6.80909">
        <ele>1008.8</ele>
        <time>2021-05-27T13:00:35Z</time>
      </trkpt>
      <trkpt lat="45.62672" lon="6.80902">
        <ele>1008</ele>
        <time>2021-05-27T13:00:36Z</time>
      </trkpt>
      <trkpt lat="45.62663" lon="6.809">
        <ele>1007.4</ele>
        <time>2021-05-27T13:00:37Z</time>
      </trkpt>
      <trkpt lat="45.62655" lon="6.80904">
        <ele>1007</ele>
        <time>2021-05-27T13:00:38Z</time>
      </trkpt>
      <trkpt lat="45.62647" lon="6.80912">
        <ele>1006.6</ele>
        <time>2021-05-27T13:00:39Z</time>
      </trkpt>
      <trkpt lat="45.6264" lon="6.80922">
        <ele>1006.4</ele>
        <time>2021-05-27T13:00:40Z</time>
      </trkpt>
      <trkpt lat="45.62632" lon="6.80933">
        <ele>1006</ele>
        <time>2021-05-27T13:00:41Z</time>
      </trkpt>
      <trkpt lat="45.62625" lon="6.80945">
        <ele>1005.4</ele>
        <time>2021-05-27T13:00:42Z</time>
      </trkpt>
      <trkpt lat="45.62618" lon="6.80956">
        <ele>1005.2</ele>
        <time>2021-05-27T13:00:43Z</time>
      </trkpt>
      <trkpt lat="45.62611" lon="6.80969">
        <ele>1004.8</ele>
        <time>2021-05-27T13:00:44Z</time>
      </trkpt>
      <trkpt lat="45.62604" lon="6.80982">
        <ele>1004.8</ele>
        <time>2021-05-27T13:00:45Z</time>
      </trkpt>
      <trkpt lat="45.62598" lon="6.80996">
        <ele>1004.4</ele>
        <time>2021-05-27T13:00:46Z</time>
      </trkpt>
      <trkpt lat="45.62592" lon="6.81011">
        <ele>1003.6</ele>
        <time>2021-05-27T13:00:47Z</time>
      </trkpt>
      <trkpt lat="45.62587" lon="6.81026">
        <ele>1003.2</ele>
        <time>2021-05-27T13:00:48Z</time>
      </trkpt>
      <trkpt lat="45.62581" lon="6.81042">
        <ele>1002.8</ele>
        <time>2021-05-27T13:00:49Z</time>
      </trkpt>
      <trkpt lat="45.62575" lon="6.81057">
        <ele>1002.4</ele>
        <time>2021-05-27T13:00:50Z</time>
      </trkpt>
      <trkpt lat="45.62569" lon="6.81072">
        <ele>1001.4</ele>
        <time>2021-05-27T13:00:51Z</time>
      </trkpt>
      <trkpt lat="45.62564" lon="6.81088">
        <ele>1000.8</ele>
        <time>2021-05-27T13:00:52Z</time>
      </trkpt>
      <trkpt lat="45.62559" lon="6.81104">
        <ele>1000.4</ele>
        <time>2021-05-27T13:00:53Z</time>
      </trkpt>
      <trkpt lat="45.62554" lon="6.81118">
        <ele>999.6</ele>
        <time>2021-05-27T13:00:54Z</time>
      </trkpt>
      <trkpt lat="45.6255" lon="6.81131">
        <ele>998.8</ele>
        <time>2021-05-27T13:00:55Z</time>
      </trkpt>
      <trkpt lat="45.62545" lon="6.81145">
        <ele>998</ele>
        <time>2021-05-27T13:00:56Z</time>
      </trkpt>
      <trkpt lat="45.62542" lon="6.81153">
        <ele>997.2</ele>
        <time>2021-05-27T13:00:57Z</time>
      </trkpt>
      <trkpt lat="45.62537" lon="6.81161">
        <ele>996.2</ele>
        <time>2021-05-27T13:00:58Z</time>
      </trkpt>
      <trkpt lat="45.62531" lon="6.81166">
        <ele>995.8</ele>
        <time>2021-05-27T13:00:59Z</time>
      </trkpt>
      <trkpt lat="45.62524" lon="6.81165">
        <ele>995.4</ele>
        <time>2021-05-27T13:01:00Z</time>
      </trkpt>
      <trkpt lat="45.62519" lon="6.81156">
        <ele>995.2</ele>
        <time>2021-05-27T13:01:01Z</time>
      </trkpt>
      <trkpt lat="45.62517" lon="6.81147">
        <ele>995</ele>
        <time>2021-05-27T13:01:02Z</time>
      </trkpt>
      <trkpt lat="45.62515" lon="6.81134">
        <ele>995</ele>
        <time>2021-05-27T13:01:03Z</time>
      </trkpt>
      <trkpt lat="45.62513" lon="6.81121">
        <ele>994.6</ele>
        <time>2021-05-27T13:01:04Z</time>
      </trkpt>
      <trkpt lat="45.62511" lon="6.81108">
        <ele>994.8</ele>
        <time>2021-05-27T13:01:05Z</time>
      </trkpt>
      <trkpt lat="45.62509" lon="6.81094">
        <ele>994.4</ele>
        <time>2021-05-27T13:01:06Z</time>
      </trkpt>
      <trkpt lat="45.62507" lon="6.8108">
        <ele>994.2</ele>
        <time>2021-05-27T13:01:07Z</time>
      </trkpt>
      <trkpt lat="45.62505" lon="6.81066">
        <ele>993.4</ele>
        <time>2021-05-27T13:01:08Z</time>
      </trkpt>
      <trkpt lat="45.62503" lon="6.81051">
        <ele>993</ele>
        <time>2021-05-27T13:01:09Z</time>
      </trkpt>
      <trkpt lat="45.62501" lon="6.81036">
        <ele>992.6</ele>
        <time>2021-05-27T13:01:10Z</time>
      </trkpt>
      <trkpt lat="45.62498" lon="6.8102">
        <ele>992</ele>
        <time>2021-05-27T13:01:11Z</time>
      </trkpt>
      <trkpt lat="45.62496" lon="6.81004">
        <ele>992</ele>
        <time>2021-05-27T13:01:12Z</time>
      </trkpt>
      <trkpt lat="45.62493" lon="6.80988">
        <ele>991.4</ele>
        <time>2021-05-27T13:01:13Z</time>
      </trkpt>
      <trkpt lat="45.62491" lon="6.80971">
        <ele>990.8</ele>
        <time>2021-05-27T13:01:14Z</time>
      </trkpt>
      <trkpt lat="45.62488" lon="6.80954">
        <ele>990.2</ele>
        <time>2021-05-27T13:01:15Z</time>
      </trkpt>
      <trkpt lat="45.62485" lon="6.80937">
        <ele>989.2</ele>
        <time>2021-05-27T13:01:16Z</time>
      </trkpt>
      <trkpt lat="45.62483" lon="6.8092">
        <ele>988.4</ele>
        <time>2021-05-27T13:01:17Z</time>
      </trkpt>
      <trkpt lat="45.62481" lon="6.80903">
        <ele>987.8</ele>
        <time>2021-05-27T13:01:18Z</time>
      </trkpt>
      <trkpt lat="45.62478" lon="6.80886">
        <ele>987.4</ele>
        <time>2021-05-27T13:01:19Z</time>
      </trkpt>
      <trkpt lat="45.62475" lon="6.80869">
        <ele>986.8</ele>
        <time>2021-05-27T13:01:20Z</time>
      </trkpt>
      <trkpt lat="45.62473" lon="6.80852">
        <ele>986</ele>
        <time>2021-05-27T13:01:21Z</time>
      </trkpt>
      <trkpt lat="45.6247" lon="6.80836">
        <ele>985.4</ele>
        <time>2021-05-27T13:01:22Z</time>
      </trkpt>
      <trkpt lat="45.62468" lon="6.80821">
        <ele>984.8</ele>
        <time>2021-05-27T13:01:23Z</time>
      </trkpt>
      <trkpt lat="45.62465" lon="6.80809">
        <ele>983.6</ele>
        <time>2021-05-27T13:01:24Z</time>
      </trkpt>
      <trkpt lat="45.62459" lon="6.80799">
        <ele>982.4</ele>
        <time>2021-05-27T13:01:25Z</time>
      </trkpt>
      <trkpt lat="45.62452" lon="6.80793">
        <ele>981.6</ele>
        <time>2021-05-27T13:01:26Z</time>
      </trkpt>
      <trkpt lat="45.62445" lon="6.80792">
        <ele>980.6</ele>
        <time>2021-05-27T13:01:27Z</time>
      </trkpt>
      <trkpt lat="45.62438" lon="6.80796">
        <ele>979.8</ele>
        <time>2021-05-27T13:01:28Z</time>
      </trkpt>
      <trkpt lat="45.62433" lon="6.80804">
        <ele>979</ele>
        <time>2021-05-27T13:01:29Z</time>
      </trkpt>
      <trkpt lat="45.62428" lon="6.80814">
        <ele>978.4</ele>
        <time>2021-05-27T13:01:30Z</time>
      </trkpt>
      <trkpt lat="45.62423" lon="6.80826">
        <ele>977.4</ele>
        <time>2021-05-27T13:01:31Z</time>
      </trkpt>
      <trkpt lat="45.62418" lon="6.80838">
        <ele>976.8</ele>
        <time>2021-05-27T13:01:32Z</time>
      </trkpt>
      <trkpt lat="45.62413" lon="6.8085">
        <ele>976</ele>
        <time>2021-05-27T13:01:33Z</time>
      </trkpt>
      <trkpt lat="45.62408" lon="6.80863">
        <ele>975.4</ele>
        <time>2021-05-27T13:01:34Z</time>
      </trkpt>
      <trkpt lat="45.62403" lon="6.80876">
        <ele>974.8</ele>
        <time>2021-05-27T13:01:35Z</time>
      </trkpt>
      <trkpt lat="45.62397" lon="6.8089">
        <ele>974.6</ele>
        <time>2021-05-27T13:01:36Z</time>
      </trkpt>
      <trkpt lat="45.62392" lon="6.80902">
        <ele>974.2</ele>
        <time>2021-05-27T13:01:37Z</time>
      </trkpt>
      <trkpt lat="45.62386" lon="6.80916">
        <ele>973.6</ele>
        <time>2021-05-27T13:01:38Z</time>
      </trkpt>
      <trkpt lat="45.62381" lon="6.80929">
        <ele>973.2</ele>
        <time>2021-05-27T13:01:39Z</time>
      </trkpt>
      <trkpt lat="45.62376" lon="6.80943">
        <ele>972.6</ele>
        <time>2021-05-27T13:01:40Z</time>
      </trkpt>
      <trkpt lat="45.6237" lon="6.80958">
        <ele>972.4</ele>
        <time>2021-05-27T13:01:41Z</time>
      </trkpt>
      <trkpt lat="45.62364" lon="6.80972">
        <ele>972</ele>
        <time>2021-05-27T13:01:42Z</time>
      </trkpt>
      <trkpt lat="45.62358" lon="6.80986">
        <ele>971.4</ele>
        <time>2021-05-27T13:01:43Z</time>
      </trkpt>
      <trkpt lat="45.62352" lon="6.80999">
        <ele>971</ele>
        <time>2021-05-27T13:01:44Z</time>
      </trkpt>
      <trkpt lat="45.62346" lon="6.81014">
        <ele>970.2</ele>
        <time>2021-05-27T13:01:45Z</time>
      </trkpt>
      <trkpt lat="45.6234" lon="6.81028">
        <ele>969.8</ele>
        <time>2021-05-27T13:01:46Z</time>
      </trkpt>
      <trkpt lat="45.62334" lon="6.81042">
        <ele>969</ele>
        <time>2021-05-27T13:01:47Z</time>
      </trkpt>
      <trkpt lat="45.62328" lon="6.81056">
        <ele>968.4</ele>
        <time>2021-05-27T13:01:48Z</time>
      </trkpt>
      <trkpt lat="45.62323" lon="6.8107">
        <ele>967.8</ele>
        <time>2021-05-27T13:01:49Z</time>
      </trkpt>
      <trkpt lat="45.62318" lon="6.81082">
        <ele>967</ele>
        <time>2021-05-27T13:01:50Z</time>
      </trkpt>
      <trkpt lat="45.62312" lon="6.81092">
        <ele>966.2</ele>
        <time>2021-05-27T13:01:51Z</time>
      </trkpt>
      <trkpt lat="45.62306" lon="6.81097">
        <ele>965.6</ele>
        <time>2021-05-27T13:01:52Z</time>
      </trkpt>
      <trkpt lat="45.623" lon="6.81098">
        <ele>964.4</ele>
        <time>2021-05-27T13:01:53Z</time>
      </trkpt>
      <trkpt lat="45.62295" lon="6.81091">
        <ele>964</ele>
        <time>2021-05-27T13:01:54Z</time>
      </trkpt>
      <trkpt lat="45.62291" lon="6.81082">
        <ele>963.6</ele>
        <time>2021-05-27T13:01:55Z</time>
      </trkpt>
      <trkpt lat="45.62289" lon="6.81071">
        <ele>963.2</ele>
        <time>2021-05-27T13:01:56Z</time>
      </trkpt>
      <trkpt lat="45.62288" lon="6.8106">
        <ele>963</ele>
        <time>2021-05-27T13:01:57Z</time>
      </trkpt>
      <trkpt lat="45.62286" lon="6.81048">
        <ele>962.2</ele>
        <time>2021-05-27T13:01:58Z</time>
      </trkpt>
      <trkpt lat="45.62284" lon="6.81036">
        <ele>961.6</ele>
        <time>2021-05-27T13:01:59Z</time>
      </trkpt>
      <trkpt lat="45.62282" lon="6.81023">
        <ele>961</ele>
        <time>2021-05-27T13:02:00Z</time>
      </trkpt>
      <trkpt lat="45.62281" lon="6.81011">
        <ele>960.4</ele>
        <time>2021-05-27T13:02:01Z</time>
      </trkpt>
      <trkpt lat="45.62279" lon="6.80998">
        <ele>959.8</ele>
        <time>2021-05-27T13:02:02Z</time>
      </trkpt>
      <trkpt lat="45.62278" lon="6.80985">
        <ele>959.2</ele>
        <time>2021-05-27T13:02:03Z</time>
      </trkpt>
      <trkpt lat="45.62276" lon="6.80971">
        <ele>958.6</ele>
        <time>2021-05-27T13:02:04Z</time>
      </trkpt>
      <trkpt lat="45.62275" lon="6.80957">
        <ele>957.8</ele>
        <time>2021-05-27T13:02:05Z</time>
      </trkpt>
      <trkpt lat="45.62273" lon="6.80942">
        <ele>956.8</ele>
        <time>2021-05-27T13:02:06Z</time>
      </trkpt>
      <trkpt lat="45.6227" lon="6.80927">
        <ele>957.4</ele>
        <time>2021-05-27T13:02:07Z</time>
      </trkpt>
      <trkpt lat="45.62269" lon="6.80913">
        <ele>957.2</ele>
        <time>2021-05-27T13:02:08Z</time>
      </trkpt>
      <trkpt lat="45.62267" lon="6.80899">
        <ele>956.6</ele>
        <time>2021-05-27T13:02:09Z</time>
      </trkpt>
      <trkpt lat="45.62265" lon="6.80884">
        <ele>956.2</ele>
        <time>2021-05-27T13:02:10Z</time>
      </trkpt>
      <trkpt lat="45.62263" lon="6.8087">
        <ele>955.8</ele>
        <time>2021-05-27T13:02:11Z</time>
      </trkpt>
      <trkpt lat="45.62261" lon="6.80854">
        <ele>955.6</ele>
        <time>2021-05-27T13:02:12Z</time>
      </trkpt>
      <trkpt lat="45.62259" lon="6.8084">
        <ele>955</ele>
        <time>2021-05-27T13:02:13Z</time>
      </trkpt>
      <trkpt lat="45.62257" lon="6.80826">
        <ele>954.6</ele>
        <time>2021-05-27T13:02:14Z</time>
      </trkpt>
      <trkpt lat="45.62255" lon="6.80813">
        <ele>954</ele>
        <time>2021-05-27T13:02:15Z</time>
      </trkpt>
      <trkpt lat="45.6225" lon="6.80802">
        <ele>953.4</ele>
        <time>2021-05-27T13:02:16Z</time>
      </trkpt>
      <trkpt lat="45.62244" lon="6.80797">
        <ele>952.4</ele>
        <time>2021-05-27T13:02:17Z</time>
      </trkpt>
      <trkpt lat="45.62238" lon="6.80797">
        <ele>951.8</ele>
        <time>2021-05-27T13:02:18Z</time>
      </trkpt>
      <trkpt lat="45.62233" lon="6.80802">
        <ele>951.2</ele>
        <time>2021-05-27T13:02:19Z</time>
      </trkpt>
      <trkpt lat="45.62229" lon="6.8081">
        <ele>950.6</ele>
        <time>2021-05-27T13:02:20Z</time>
      </trkpt>
      <trkpt lat="45.62227" lon="6.80822">
        <ele>950.2</ele>
        <time>2021-05-27T13:02:21Z</time>
      </trkpt>
      <trkpt lat="45.62225" lon="6.80835">
        <ele>949.6</ele>
        <time>2021-05-27T13:02:22Z</time>
      </trkpt>
      <trkpt lat="45.62223" lon="6.80849">
        <ele>949.4</ele>
        <time>2021-05-27T13:02:23Z</time>
      </trkpt>
      <trkpt lat="45.6222" lon="6.80861">
        <ele>948.8</ele>
        <time>2021-05-27T13:02:24Z</time>
      </trkpt>
      <trkpt lat="45.62217" lon="6.80874">
        <ele>948.6</ele>
        <time>2021-05-27T13:02:25Z</time>
      </trkpt>
      <trkpt lat="45.62215" lon="6.80888">
        <ele>948.2</ele>
        <time>2021-05-27T13:02:26Z</time>
      </trkpt>
      <trkpt lat="45.62212" lon="6.80902">
        <ele>948</ele>
        <time>2021-05-27T13:02:27Z</time>
      </trkpt>
      <trkpt lat="45.62209" lon="6.80915">
        <ele>947.4</ele>
        <time>2021-05-27T13:02:28Z</time>
      </trkpt>
      <trkpt lat="45.62205" lon="6.80929">
        <ele>947.2</ele>
        <time>2021-05-27T13:02:29Z</time>
      </trkpt>
      <trkpt lat="45.62203" lon="6.80944">
        <ele>947</ele>
        <time>2021-05-27T13:02:30Z</time>
      </trkpt>
      <trkpt lat="45.622" lon="6.80958">
        <ele>946.6</ele>
        <time>2021-05-27T13:02:31Z</time>
      </trkpt>
      <trkpt lat="45.62197" lon="6.80972">
        <ele>946.2</ele>
        <time>2021-05-27T13:02:32Z</time>
      </trkpt>
      <trkpt lat="45.62195" lon="6.80986">
        <ele>946</ele>
        <time>2021-05-27T13:02:33Z</time>
      </trkpt>
      <trkpt lat="45.62192" lon="6.81001">
        <ele>945.2</ele>
        <time>2021-05-27T13:02:34Z</time>
      </trkpt>
      <trkpt lat="45.62189" lon="6.81016">
        <ele>944.6</ele>
        <time>2021-05-27T13:02:35Z</time>
      </trkpt>
      <trkpt lat="45.62186" lon="6.81031">
        <ele>944.2</ele>
        <time>2021-05-27T13:02:36Z</time>
      </trkpt>
      <trkpt lat="45.62182" lon="6.81045">
        <ele>943.8</ele>
        <time>2021-05-27T13:02:37Z</time>
      </trkpt>
      <trkpt lat="45.62176" lon="6.81057">
        <ele>943.2</ele>
        <time>2021-05-27T13:02:38Z</time>
      </trkpt>
      <trkpt lat="45.62168" lon="6.81065">
        <ele>942.8</ele>
        <time>2021-05-27T13:02:39Z</time>
      </trkpt>
      <trkpt lat="45.62158" lon="6.81069">
        <ele>942.8</ele>
        <time>2021-05-27T13:02:40Z</time>
      </trkpt>
      <trkpt lat="45.62148" lon="6.81068">
        <ele>942.4</ele>
        <time>2021-05-27T13:02:41Z</time>
      </trkpt>
      <trkpt lat="45.62138" lon="6.81062">
        <ele>942</ele>
        <time>2021-05-27T13:02:42Z</time>
      </trkpt>
      <trkpt lat="45.62132" lon="6.81051">
        <ele>941.6</ele>
        <time>2021-05-27T13:02:43Z</time>
      </trkpt>
      <trkpt lat="45.62127" lon="6.81037">
        <ele>941.2</ele>
        <time>2021-05-27T13:02:44Z</time>
      </trkpt>
      <trkpt lat="45.62125" lon="6.81022">
        <ele>941</ele>
        <time>2021-05-27T13:02:45Z</time>
      </trkpt>
      <trkpt lat="45.62124" lon="6.81007">
        <ele>940.8</ele>
        <time>2021-05-27T13:02:46Z</time>
      </trkpt>
      <trkpt lat="45.62124" lon="6.80991">
        <ele>940.4</ele>
        <time>2021-05-27T13:02:47Z</time>
      </trkpt>
      <trkpt lat="45.62123" lon="6.80976">
        <ele>940</ele>
        <time>2021-05-27T13:02:48Z</time>
      </trkpt>
      <trkpt lat="45.62122" lon="6.8096">
        <ele>939.6</ele>
        <time>2021-05-27T13:02:49Z</time>
      </trkpt>
      <trkpt lat="45.62121" lon="6.80945">
        <ele>939.2</ele>
        <time>2021-05-27T13:02:50Z</time>
      </trkpt>
      <trkpt lat="45.6212" lon="6.80929">
        <ele>939.4</ele>
        <time>2021-05-27T13:02:51Z</time>
      </trkpt>
      <trkpt lat="45.62119" lon="6.80913">
        <ele>939.4</ele>
        <time>2021-05-27T13:02:52Z</time>
      </trkpt>
      <trkpt lat="45.62118" lon="6.80897">
        <ele>939</ele>
        <time>2021-05-27T13:02:53Z</time>
      </trkpt>
      <trkpt lat="45.62118" lon="6.80881">
        <ele>939.2</ele>
        <time>2021-05-27T13:02:54Z</time>
      </trkpt>
      <trkpt lat="45.62116" lon="6.80864">
        <ele>939</ele>
        <time>2021-05-27T13:02:55Z</time>
      </trkpt>
      <trkpt lat="45.62116" lon="6.80848">
        <ele>938.6</ele>
        <time>2021-05-27T13:02:56Z</time>
      </trkpt>
      <trkpt lat="45.62114" lon="6.80831">
        <ele>938.2</ele>
        <time>2021-05-27T13:02:57Z</time>
      </trkpt>
      <trkpt lat="45.62113" lon="6.80815">
        <ele>938</ele>
        <time>2021-05-27T13:02:58Z</time>
      </trkpt>
      <trkpt lat="45.62112" lon="6.80798">
        <ele>937.4</ele>
        <time>2021-05-27T13:02:59Z</time>
      </trkpt>
      <trkpt lat="45.62111" lon="6.80782">
        <ele>936.8</ele>
        <time>2021-05-27T13:03:00Z</time>
      </trkpt>
      <trkpt lat="45.6211" lon="6.80766">
        <ele>936</ele>
        <time>2021-05-27T13:03:01Z</time>
      </trkpt>
      <trkpt lat="45.62108" lon="6.80749">
        <ele>935.6</ele>
        <time>2021-05-27T13:03:02Z</time>
      </trkpt>
      <trkpt lat="45.62107" lon="6.80732">
        <ele>935</ele>
        <time>2021-05-27T13:03:03Z</time>
      </trkpt>
      <trkpt lat="45.62106" lon="6.80715">
        <ele>934.8</ele>
        <time>2021-05-27T13:03:04Z</time>
      </trkpt>
      <trkpt lat="45.62105" lon="6.80699">
        <ele>934.2</ele>
        <time>2021-05-27T13:03:05Z</time>
      </trkpt>
      <trkpt lat="45.62103" lon="6.80682">
        <ele>933.4</ele>
        <time>2021-05-27T13:03:06Z</time>
      </trkpt>
      <trkpt lat="45.62102" lon="6.80666">
        <ele>932.6</ele>
        <time>2021-05-27T13:03:07Z</time>
      </trkpt>
      <trkpt lat="45.62101" lon="6.8065">
        <ele>931.6</ele>
        <time>2021-05-27T13:03:08Z</time>
      </trkpt>
      <trkpt lat="45.621" lon="6.80634">
        <ele>930.6</ele>
        <time>2021-05-27T13:03:09Z</time>
      </trkpt>
      <trkpt lat="45.621" lon="6.80619">
        <ele>929.6</ele>
        <time>2021-05-27T13:03:10Z</time>
      </trkpt>
      <trkpt lat="45.62099" lon="6.80603">
        <ele>929.2</ele>
        <time>2021-05-27T13:03:11Z</time>
      </trkpt>
      <trkpt lat="45.62098" lon="6.80588">
        <ele>928.2</ele>
        <time>2021-05-27T13:03:12Z</time>
      </trkpt>
      <trkpt lat="45.62097" lon="6.80573">
        <ele>927.8</ele>
        <time>2021-05-27T13:03:13Z</time>
      </trkpt>
      <trkpt lat="45.62096" lon="6.80558">
        <ele>927.2</ele>
        <time>2021-05-27T13:03:14Z</time>
      </trkpt>
      <trkpt lat="45.62095" lon="6.80542">
        <ele>926.8</ele>
        <time>2021-05-27T13:03:15Z</time>
      </trkpt>
      <trkpt lat="45.62094" lon="6.80526">
        <ele>926.2</ele>
        <time>2021-05-27T13:03:16Z</time>
      </trkpt>
      <trkpt lat="45.62094" lon="6.8051">
        <ele>925.6</ele>
        <time>2021-05-27T13:03:17Z</time>
      </trkpt>
      <trkpt lat="45.62094" lon="6.80495">
        <ele>925.2</ele>
        <time>2021-05-27T13:03:18Z</time>
      </trkpt>
      <trkpt lat="45.62094" lon="6.8048">
        <ele>924.4</ele>
        <time>2021-05-27T13:03:19Z</time>
      </trkpt>
      <trkpt lat="45.62095" lon="6.80464">
        <ele>924</ele>
        <time>2021-05-27T13:03:20Z</time>
      </trkpt>
      <trkpt lat="45.62096" lon="6.80449">
        <ele>924.2</ele>
        <time>2021-05-27T13:03:21Z</time>
      </trkpt>
      <trkpt lat="45.62099" lon="6.80434">
        <ele>923.8</ele>
        <time>2021-05-27T13:03:22Z</time>
      </trkpt>
      <trkpt lat="45.62101" lon="6.80419">
        <ele>923.2</ele>
        <time>2021-05-27T13:03:23Z</time>
      </trkpt>
      <trkpt lat="45.62105" lon="6.80405">
        <ele>922.4</ele>
        <time>2021-05-27T13:03:24Z</time>
      </trkpt>
      <trkpt lat="45.62109" lon="6.80391">
        <ele>922</ele>
        <time>2021-05-27T13:03:25Z</time>
      </trkpt>
      <trkpt lat="45.62113" lon="6.80377">
        <ele>921.2</ele>
        <time>2021-05-27T13:03:26Z</time>
      </trkpt>
      <trkpt lat="45.62118" lon="6.80364">
        <ele>920.4</ele>
        <time>2021-05-27T13:03:27Z</time>
      </trkpt>
      <trkpt lat="45.62123" lon="6.80351">
        <ele>920.4</ele>
        <time>2021-05-27T13:03:28Z</time>
      </trkpt>
      <trkpt lat="45.62127" lon="6.80338">
        <ele>919.4</ele>
        <time>2021-05-27T13:03:29Z</time>
      </trkpt>
      <trkpt lat="45.62132" lon="6.80326">
        <ele>918.4</ele>
        <time>2021-05-27T13:03:30Z</time>
      </trkpt>
      <trkpt lat="45.62136" lon="6.80314">
        <ele>918.4</ele>
        <time>2021-05-27T13:03:31Z</time>
      </trkpt>
      <trkpt lat="45.6214" lon="6.80302">
        <ele>918</ele>
        <time>2021-05-27T13:03:32Z</time>
      </trkpt>
      <trkpt lat="45.62143" lon="6.80292">
        <ele>917.8</ele>
        <time>2021-05-27T13:03:33Z</time>
      </trkpt>
      <trkpt lat="45.62146" lon="6.80281">
        <ele>917.4</ele>
        <time>2021-05-27T13:03:34Z</time>
      </trkpt>
      <trkpt lat="45.6215" lon="6.8027">
        <ele>917.2</ele>
        <time>2021-05-27T13:03:35Z</time>
      </trkpt>
      <trkpt lat="45.62153" lon="6.8026">
        <ele>917.2</ele>
        <time>2021-05-27T13:03:36Z</time>
      </trkpt>
      <trkpt lat="45.62156" lon="6.80249">
        <ele>917</ele>
        <time>2021-05-27T13:03:37Z</time>
      </trkpt>
      <trkpt lat="45.62159" lon="6.80238">
        <ele>916</ele>
        <time>2021-05-27T13:03:38Z</time>
      </trkpt>
      <trkpt lat="45.62162" lon="6.80228">
        <ele>915.8</ele>
        <time>2021-05-27T13:03:39Z</time>
      </trkpt>
      <trkpt lat="45.62167" lon="6.80217">
        <ele>915.2</ele>
        <time>2021-05-27T13:03:40Z</time>
      </trkpt>
      <trkpt lat="45.62171" lon="6.80206">
        <ele>914.4</ele>
        <time>2021-05-27T13:03:41Z</time>
      </trkpt>
      <trkpt lat="45.62175" lon="6.80195">
        <ele>914</ele>
        <time>2021-05-27T13:03:42Z</time>
      </trkpt>
      <trkpt lat="45.62179" lon="6.80184">
        <ele>913.6</ele>
        <time>2021-05-27T13:03:43Z</time>
      </trkpt>
      <trkpt lat="45.62182" lon="6.80172">
        <ele>912.8</ele>
        <time>2021-05-27T13:03:44Z</time>
      </trkpt>
      <trkpt lat="45.62184" lon="6.8016">
        <ele>912.2</ele>
        <time>2021-05-27T13:03:45Z</time>
      </trkpt>
      <trkpt lat="45.62187" lon="6.80148">
        <ele>912</ele>
        <time>2021-05-27T13:03:46Z</time>
      </trkpt>
      <trkpt lat="45.62189" lon="6.80136">
        <ele>911.6</ele>
        <time>2021-05-27T13:03:47Z</time>
      </trkpt>
      <trkpt lat="45.62192" lon="6.80124">
        <ele>911.2</ele>
        <time>2021-05-27T13:03:48Z</time>
      </trkpt>
      <trkpt lat="45.62196" lon="6.80112">
        <ele>910.6</ele>
        <time>2021-05-27T13:03:49Z</time>
      </trkpt>
      <trkpt lat="45.622" lon="6.801">
        <ele>911.8</ele>
        <time>2021-05-27T13:03:50Z</time>
      </trkpt>
      <trkpt lat="45.62204" lon="6.8009">
        <ele>910.6</ele>
        <time>2021-05-27T13:03:51Z</time>
      </trkpt>
      <trkpt lat="45.62209" lon="6.8008">
        <ele>909.8</ele>
        <time>2021-05-27T13:03:52Z</time>
      </trkpt>
      <trkpt lat="45.62213" lon="6.8007">
        <ele>909.4</ele>
        <time>2021-05-27T13:03:53Z</time>
      </trkpt>
      <trkpt lat="45.62217" lon="6.8006">
        <ele>909</ele>
        <time>2021-05-27T13:03:54Z</time>
      </trkpt>
      <trkpt lat="45.62222" lon="6.8005">
        <ele>908.4</ele>
        <time>2021-05-27T13:03:55Z</time>
      </trkpt>
      <trkpt lat="45.62228" lon="6.80042">
        <ele>907.6</ele>
        <time>2021-05-27T13:03:56Z</time>
      </trkpt>
      <trkpt lat="45.62233" lon="6.80033">
        <ele>906.8</ele>
        <time>2021-05-27T13:03:57Z</time>
      </trkpt>
      <trkpt lat="45.62238" lon="6.80025">
        <ele>906.4</ele>
        <time>2021-05-27T13:03:58Z</time>
      </trkpt>
      <trkpt lat="45.62244" lon="6.80017">
        <ele>906.2</ele>
        <time>2021-05-27T13:03:59Z</time>
      </trkpt>
      <trkpt lat="45.62249" lon="6.8001">
        <ele>906</ele>
        <time>2021-05-27T13:04:00Z</time>
      </trkpt>
      <trkpt lat="45.62255" lon="6.80002">
        <ele>905.8</ele>
        <time>2021-05-27T13:04:01Z</time>
      </trkpt>
      <trkpt lat="45.6226" lon="6.79995">
        <ele>905.8</ele>
        <time>2021-05-27T13:04:02Z</time>
      </trkpt>
      <trkpt lat="45.62265" lon="6.79988">
        <ele>905.2</ele>
        <time>2021-05-27T13:04:03Z</time>
      </trkpt>
      <trkpt lat="45.6227" lon="6.79981">
        <ele>904.8</ele>
        <time>2021-05-27T13:04:04Z</time>
      </trkpt>
      <trkpt lat="45.62275" lon="6.79974">
        <ele>904.2</ele>
        <time>2021-05-27T13:04:05Z</time>
      </trkpt>
      <trkpt lat="45.62281" lon="6.79969">
        <ele>904.2</ele>
        <time>2021-05-27T13:04:06Z</time>
      </trkpt>
      <trkpt lat="45.62288" lon="6.79963">
        <ele>904</ele>
        <time>2021-05-27T13:04:07Z</time>
      </trkpt>
      <trkpt lat="45.62293" lon="6.79958">
        <ele>903.4</ele>
        <time>2021-05-27T13:04:08Z</time>
      </trkpt>
      <trkpt lat="45.62298" lon="6.79951">
        <ele>903.2</ele>
        <time>2021-05-27T13:04:09Z</time>
      </trkpt>
      <trkpt lat="45.62302" lon="6.79943">
        <ele>902.8</ele>
        <time>2021-05-27T13:04:10Z</time>
      </trkpt>
      <trkpt lat="45.62306" lon="6.79935">
        <ele>902.6</ele>
        <time>2021-05-27T13:04:11Z</time>
      </trkpt>
      <trkpt lat="45.6231" lon="6.79926">
        <ele>902.8</ele>
        <time>2021-05-27T13:04:12Z</time>
      </trkpt>
      <trkpt lat="45.62313" lon="6.79917">
        <ele>902.8</ele>
        <time>2021-05-27T13:04:13Z</time>
      </trkpt>
      <trkpt lat="45.62317" lon="6.79908">
        <ele>903.2</ele>
        <time>2021-05-27T13:04:14Z</time>
      </trkpt>
      <trkpt lat="45.62321" lon="6.79899">
        <ele>903</ele>
        <time>2021-05-27T13:04:15Z</time>
      </trkpt>
      <trkpt lat="45.62325" lon="6.79889">
        <ele>903</ele>
        <time>2021-05-27T13:04:16Z</time>
      </trkpt>
      <trkpt lat="45.62329" lon="6.79879">
        <ele>903.2</ele>
        <time>2021-05-27T13:04:17Z</time>
      </trkpt>
      <trkpt lat="45.62334" lon="6.79869">
        <ele>903</ele>
        <time>2021-05-27T13:04:18Z</time>
      </trkpt>
      <trkpt lat="45.62338" lon="6.7986">
        <ele>903</ele>
        <time>2021-05-27T13:04:19Z</time>
      </trkpt>
      <trkpt lat="45.62343" lon="6.7985">
        <ele>902.8</ele>
        <time>2021-05-27T13:04:20Z</time>
      </trkpt>
      <trkpt lat="45.62348" lon="6.79841">
        <ele>902.4</ele>
        <time>2021-05-27T13:04:21Z</time>
      </trkpt>
      <trkpt lat="45.62353" lon="6.79832">
        <ele>902</ele>
        <time>2021-05-27T13:04:22Z</time>
      </trkpt>
      <trkpt lat="45.62357" lon="6.79821">
        <ele>901.6</ele>
        <time>2021-05-27T13:04:23Z</time>
      </trkpt>
      <trkpt lat="45.62362" lon="6.79811">
        <ele>901.2</ele>
        <time>2021-05-27T13:04:24Z</time>
      </trkpt>
      <trkpt lat="45.62365" lon="6.79801">
        <ele>900.8</ele>
        <time>2021-05-27T13:04:25Z</time>
      </trkpt>
      <trkpt lat="45.62369" lon="6.79791">
        <ele>900.4</ele>
        <time>2021-05-27T13:04:26Z</time>
      </trkpt>
      <trkpt lat="45.62373" lon="6.79782">
        <ele>900</ele>
        <time>2021-05-27T13:04:27Z</time>
      </trkpt>
      <trkpt lat="45.62377" lon="6.79774">
        <ele>899.8</ele>
        <time>2021-05-27T13:04:28Z</time>
      </trkpt>
      <trkpt lat="45.62381" lon="6.79765">
        <ele>899</ele>
        <time>2021-05-27T13:04:29Z</time>
      </trkpt>
      <trkpt lat="45.62384" lon="6.79757">
        <ele>898.4</ele>
        <time>2021-05-27T13:04:30Z</time>
      </trkpt>
      <trkpt lat="45.62387" lon="6.79749">
        <ele>898</ele>
        <time>2021-05-27T13:04:31Z</time>
      </trkpt>
      <trkpt lat="45.6239" lon="6.79742">
        <ele>897.4</ele>
        <time>2021-05-27T13:04:32Z</time>
      </trkpt>
      <trkpt lat="45.62392" lon="6.79735">
        <ele>896.8</ele>
        <time>2021-05-27T13:04:33Z</time>
      </trkpt>
      <trkpt lat="45.62395" lon="6.7973">
        <ele>896.6</ele>
        <time>2021-05-27T13:04:34Z</time>
      </trkpt>
      <trkpt lat="45.62398" lon="6.79725">
        <ele>896.2</ele>
        <time>2021-05-27T13:04:35Z</time>
      </trkpt>
      <trkpt lat="45.62401" lon="6.7972">
        <ele>895.6</ele>
        <time>2021-05-27T13:04:36Z</time>
      </trkpt>
      <trkpt lat="45.62404" lon="6.79715">
        <ele>895.4</ele>
        <time>2021-05-27T13:04:37Z</time>
      </trkpt>
      <trkpt lat="45.62407" lon="6.7971">
        <ele>895.2</ele>
        <time>2021-05-27T13:04:38Z</time>
      </trkpt>
      <trkpt lat="45.6241" lon="6.79704">
        <ele>894.8</ele>
        <time>2021-05-27T13:04:39Z</time>
      </trkpt>
      <trkpt lat="45.62413" lon="6.79698">
        <ele>894.4</ele>
        <time>2021-05-27T13:04:40Z</time>
      </trkpt>
      <trkpt lat="45.62416" lon="6.79692">
        <ele>894</ele>
        <time>2021-05-27T13:04:41Z</time>
      </trkpt>
      <trkpt lat="45.62418" lon="6.79686">
        <ele>893.4</ele>
        <time>2021-05-27T13:04:42Z</time>
      </trkpt>
      <trkpt lat="45.6242" lon="6.7968">
        <ele>893.4</ele>
        <time>2021-05-27T13:04:43Z</time>
      </trkpt>
      <trkpt lat="45.62424" lon="6.79673">
        <ele>893.2</ele>
        <time>2021-05-27T13:04:44Z</time>
      </trkpt>
      <trkpt lat="45.62428" lon="6.79667">
        <ele>892.8</ele>
        <time>2021-05-27T13:04:45Z</time>
      </trkpt>
      <trkpt lat="45.62432" lon="6.79659">
        <ele>892.6</ele>
        <time>2021-05-27T13:04:46Z</time>
      </trkpt>
      <trkpt lat="45.62435" lon="6.7965">
        <ele>892.6</ele>
        <time>2021-05-27T13:04:47Z</time>
      </trkpt>
      <trkpt lat="45.62439" lon="6.79641">
        <ele>892.6</ele>
        <time>2021-05-27T13:04:48Z</time>
      </trkpt>
      <trkpt lat="45.62444" lon="6.79631">
        <ele>892.6</ele>
        <time>2021-05-27T13:04:49Z</time>
      </trkpt>
      <trkpt lat="45.62449" lon="6.7962">
        <ele>892.4</ele>
        <time>2021-05-27T13:04:50Z</time>
      </trkpt>
      <trkpt lat="45.62454" lon="6.7961">
        <ele>892</ele>
        <time>2021-05-27T13:04:51Z</time>
      </trkpt>
      <trkpt lat="45.62459" lon="6.79599">
        <ele>891.8</ele>
        <time>2021-05-27T13:04:52Z</time>
      </trkpt>
      <trkpt lat="45.62465" lon="6.79588">
        <ele>891.4</ele>
        <time>2021-05-27T13:04:53Z</time>
      </trkpt>
      <trkpt lat="45.6247" lon="6.79578">
        <ele>891</ele>
        <time>2021-05-27T13:04:54Z</time>
      </trkpt>
      <trkpt lat="45.62476" lon="6.79567">
        <ele>890.4</ele>
        <time>2021-05-27T13:04:55Z</time>
      </trkpt>
      <trkpt lat="45.62481" lon="6.79555">
        <ele>889.8</ele>
        <time>2021-05-27T13:04:56Z</time>
      </trkpt>
      <trkpt lat="45.62486" lon="6.79542">
        <ele>889.4</ele>
        <time>2021-05-27T13:04:57Z</time>
      </trkpt>
      <trkpt lat="45.62492" lon="6.7953">
        <ele>889.2</ele>
        <time>2021-05-27T13:04:58Z</time>
      </trkpt>
      <trkpt lat="45.62498" lon="6.79518">
        <ele>888.6</ele>
        <time>2021-05-27T13:04:59Z</time>
      </trkpt>
      <trkpt lat="45.62504" lon="6.79507">
        <ele>888.4</ele>
        <time>2021-05-27T13:05:00Z</time>
      </trkpt>
      <trkpt lat="45.62509" lon="6.79496">
        <ele>888</ele>
        <time>2021-05-27T13:05:01Z</time>
      </trkpt>
      <trkpt lat="45.62516" lon="6.79487">
        <ele>887.6</ele>
        <time>2021-05-27T13:05:02Z</time>
      </trkpt>
      <trkpt lat="45.62522" lon="6.79478">
        <ele>887.4</ele>
        <time>2021-05-27T13:05:03Z</time>
      </trkpt>
      <trkpt lat="45.62528" lon="6.79471">
        <ele>887</ele>
        <time>2021-05-27T13:05:04Z</time>
      </trkpt>
      <trkpt lat="45.62534" lon="6.79464">
        <ele>886.4</ele>
        <time>2021-05-27T13:05:05Z</time>
      </trkpt>
      <trkpt lat="45.62538" lon="6.79457">
        <ele>885.6</ele>
        <time>2021-05-27T13:05:06Z</time>
      </trkpt>
      <trkpt lat="45.6254" lon="6.7945">
        <ele>884.6</ele>
        <time>2021-05-27T13:05:07Z</time>
      </trkpt>
      <trkpt lat="45.6254" lon="6.79444">
        <ele>884</ele>
        <time>2021-05-27T13:05:08Z</time>
      </trkpt>
      <trkpt lat="45.62536" lon="6.7944">
        <ele>883.4</ele>
        <time>2021-05-27T13:05:09Z</time>
      </trkpt>
      <trkpt lat="45.62532" lon="6.79437">
        <ele>883.2</ele>
        <time>2021-05-27T13:05:10Z</time>
      </trkpt>
      <trkpt lat="45.62527" lon="6.79437">
        <ele>882.8</ele>
        <time>2021-05-27T13:05:11Z</time>
      </trkpt>
      <trkpt lat="45.62521" lon="6.79438">
        <ele>882.8</ele>
        <time>2021-05-27T13:05:12Z</time>
      </trkpt>
      <trkpt lat="45.62515" lon="6.79439">
        <ele>882.6</ele>
        <time>2021-05-27T13:05:13Z</time>
      </trkpt>
      <trkpt lat="45.62507" lon="6.79441">
        <ele>882.2</ele>
        <time>2021-05-27T13:05:14Z</time>
      </trkpt>
      <trkpt lat="45.62499" lon="6.79446">
        <ele>882.2</ele>
        <time>2021-05-27T13:05:15Z</time>
      </trkpt>
      <trkpt lat="45.6249" lon="6.79449">
        <ele>881.8</ele>
        <time>2021-05-27T13:05:16Z</time>
      </trkpt>
      <trkpt lat="45.62481" lon="6.79452">
        <ele>881.6</ele>
        <time>2021-05-27T13:05:17Z</time>
      </trkpt>
      <trkpt lat="45.62472" lon="6.79453">
        <ele>881.2</ele>
        <time>2021-05-27T13:05:18Z</time>
      </trkpt>
      <trkpt lat="45.62465" lon="6.79455">
        <ele>881.2</ele>
        <time>2021-05-27T13:05:19Z</time>
      </trkpt>
      <trkpt lat="45.62456" lon="6.79457">
        <ele>880.6</ele>
        <time>2021-05-27T13:05:20Z</time>
      </trkpt>
      <trkpt lat="45.62447" lon="6.7946">
        <ele>880.2</ele>
        <time>2021-05-27T13:05:21Z</time>
      </trkpt>
      <trkpt lat="45.62438" lon="6.79463">
        <ele>879.8</ele>
        <time>2021-05-27T13:05:22Z</time>
      </trkpt>
      <trkpt lat="45.62429" lon="6.79465">
        <ele>879.4</ele>
        <time>2021-05-27T13:05:23Z</time>
      </trkpt>
      <trkpt lat="45.6242" lon="6.79467">
        <ele>879</ele>
        <time>2021-05-27T13:05:24Z</time>
      </trkpt>
      <trkpt lat="45.6241" lon="6.79469">
        <ele>878.8</ele>
        <time>2021-05-27T13:05:25Z</time>
      </trkpt>
      <trkpt lat="45.62401" lon="6.79471">
        <ele>878.2</ele>
        <time>2021-05-27T13:05:26Z</time>
      </trkpt>
      <trkpt lat="45.62391" lon="6.79472">
        <ele>877.6</ele>
        <time>2021-05-27T13:05:27Z</time>
      </trkpt>
      <trkpt lat="45.62381" lon="6.79474">
        <ele>876.8</ele>
        <time>2021-05-27T13:05:28Z</time>
      </trkpt>
      <trkpt lat="45.62372" lon="6.79475">
        <ele>876</ele>
        <time>2021-05-27T13:05:29Z</time>
      </trkpt>
      <trkpt lat="45.62362" lon="6.79477">
        <ele>875.2</ele>
        <time>2021-05-27T13:05:30Z</time>
      </trkpt>
      <trkpt lat="45.62351" lon="6.79479">
        <ele>874.6</ele>
        <time>2021-05-27T13:05:31Z</time>
      </trkpt>
      <trkpt lat="45.62341" lon="6.79481">
        <ele>874</ele>
        <time>2021-05-27T13:05:32Z</time>
      </trkpt>
      <trkpt lat="45.6233" lon="6.79483">
        <ele>873.6</ele>
        <time>2021-05-27T13:05:33Z</time>
      </trkpt>
      <trkpt lat="45.62319" lon="6.79485">
        <ele>873.4</ele>
        <time>2021-05-27T13:05:34Z</time>
      </trkpt>
      <trkpt lat="45.62308" lon="6.79488">
        <ele>873</ele>
        <time>2021-05-27T13:05:35Z</time>
      </trkpt>
      <trkpt lat="45.62297" lon="6.7949">
        <ele>872.2</ele>
        <time>2021-05-27T13:05:36Z</time>
      </trkpt>
      <trkpt lat="45.62285" lon="6.79492">
        <ele>871.8</ele>
        <time>2021-05-27T13:05:37Z</time>
      </trkpt>
      <trkpt lat="45.62273" lon="6.79495">
        <ele>871</ele>
        <time>2021-05-27T13:05:38Z</time>
      </trkpt>
      <trkpt lat="45.62261" lon="6.79498">
        <ele>870.6</ele>
        <time>2021-05-27T13:05:39Z</time>
      </trkpt>
      <trkpt lat="45.6225" lon="6.79501">
        <ele>870</ele>
        <time>2021-05-27T13:05:40Z</time>
      </trkpt>
      <trkpt lat="45.62237" lon="6.79504">
        <ele>868.8</ele>
        <time>2021-05-27T13:05:41Z</time>
      </trkpt>
      <trkpt lat="45.62225" lon="6.79506">
        <ele>867.8</ele>
        <time>2021-05-27T13:05:42Z</time>
      </trkpt>
      <trkpt lat="45.62213" lon="6.79509">
        <ele>867</ele>
        <time>2021-05-27T13:05:43Z</time>
      </trkpt>
      <trkpt lat="45.62201" lon="6.79512">
        <ele>866.4</ele>
        <time>2021-05-27T13:05:44Z</time>
      </trkpt>
      <trkpt lat="45.62188" lon="6.79514">
        <ele>865.6</ele>
        <time>2021-05-27T13:05:45Z</time>
      </trkpt>
      <trkpt lat="45.62176" lon="6.79516">
        <ele>865</ele>
        <time>2021-05-27T13:05:46Z</time>
      </trkpt>
      <trkpt lat="45.62164" lon="6.79518">
        <ele>864.4</ele>
        <time>2021-05-27T13:05:47Z</time>
      </trkpt>
      <trkpt lat="45.62152" lon="6.7952">
        <ele>863.6</ele>
        <time>2021-05-27T13:05:48Z</time>
      </trkpt>
      <trkpt lat="45.6214" lon="6.79522">
        <ele>862.8</ele>
        <time>2021-05-27T13:05:49Z</time>
      </trkpt>
      <trkpt lat="45.62128" lon="6.79523">
        <ele>862.4</ele>
        <time>2021-05-27T13:05:50Z</time>
      </trkpt>
      <trkpt lat="45.62116" lon="6.79525">
        <ele>861.8</ele>
        <time>2021-05-27T13:05:51Z</time>
      </trkpt>
      <trkpt lat="45.62105" lon="6.79528">
        <ele>860.8</ele>
        <time>2021-05-27T13:05:52Z</time>
      </trkpt>
      <trkpt lat="45.62094" lon="6.7953">
        <ele>860.8</ele>
        <time>2021-05-27T13:05:53Z</time>
      </trkpt>
      <trkpt lat="45.62084" lon="6.79532">
        <ele>860.2</ele>
        <time>2021-05-27T13:05:54Z</time>
      </trkpt>
      <trkpt lat="45.62074" lon="6.79533">
        <ele>859.4</ele>
        <time>2021-05-27T13:05:55Z</time>
      </trkpt>
      <trkpt lat="45.62064" lon="6.79534">
        <ele>858.6</ele>
        <time>2021-05-27T13:05:56Z</time>
      </trkpt>
      <trkpt lat="45.62055" lon="6.79534">
        <ele>858</ele>
        <time>2021-05-27T13:05:57Z</time>
      </trkpt>
      <trkpt lat="45.62047" lon="6.79531">
        <ele>857.8</ele>
        <time>2021-05-27T13:05:58Z</time>
      </trkpt>
      <trkpt lat="45.6204" lon="6.79526">
        <ele>857</ele>
        <time>2021-05-27T13:05:59Z</time>
      </trkpt>
      <trkpt lat="45.62034" lon="6.79518">
        <ele>856.4</ele>
        <time>2021-05-27T13:06:00Z</time>
      </trkpt>
      <trkpt lat="45.6203" lon="6.79507">
        <ele>856</ele>
        <time>2021-05-27T13:06:01Z</time>
      </trkpt>
      <trkpt lat="45.62027" lon="6.79495">
        <ele>855.6</ele>
        <time>2021-05-27T13:06:02Z</time>
      </trkpt>
      <trkpt lat="45.62029" lon="6.79482">
        <ele>855.6</ele>
        <time>2021-05-27T13:06:03Z</time>
      </trkpt>
      <trkpt lat="45.62031" lon="6.7947">
        <ele>855.4</ele>
        <time>2021-05-27T13:06:04Z</time>
      </trkpt>
      <trkpt lat="45.62034" lon="6.79457">
        <ele>855.2</ele>
        <time>2021-05-27T13:06:05Z</time>
      </trkpt>
      <trkpt lat="45.62038" lon="6.79445">
        <ele>854.6</ele>
        <time>2021-05-27T13:06:06Z</time>
      </trkpt>
      <trkpt lat="45.62042" lon="6.79432">
        <ele>854</ele>
        <time>2021-05-27T13:06:07Z</time>
      </trkpt>
      <trkpt lat="45.62046" lon="6.7942">
        <ele>853.6</ele>
        <time>2021-05-27T13:06:08Z</time>
      </trkpt>
      <trkpt lat="45.6205" lon="6.79407">
        <ele>853</ele>
        <time>2021-05-27T13:06:09Z</time>
      </trkpt>
      <trkpt lat="45.62054" lon="6.79391">
        <ele>852.6</ele>
        <time>2021-05-27T13:06:10Z</time>
      </trkpt>
      <trkpt lat="45.62058" lon="6.79381">
        <ele>852</ele>
        <time>2021-05-27T13:06:11Z</time>
      </trkpt>
      <trkpt lat="45.62061" lon="6.79369">
        <ele>851.4</ele>
        <time>2021-05-27T13:06:12Z</time>
      </trkpt>
      <trkpt lat="45.62065" lon="6.79356">
        <ele>850.8</ele>
        <time>2021-05-27T13:06:13Z</time>
      </trkpt>
      <trkpt lat="45.62068" lon="6.79343">
        <ele>850.6</ele>
        <time>2021-05-27T13:06:14Z</time>
      </trkpt>
      <trkpt lat="45.62072" lon="6.7933">
        <ele>850.2</ele>
        <time>2021-05-27T13:06:15Z</time>
      </trkpt>
      <trkpt lat="45.62075" lon="6.79317">
        <ele>850</ele>
        <time>2021-05-27T13:06:16Z</time>
      </trkpt>
      <trkpt lat="45.62078" lon="6.79303">
        <ele>849</ele>
        <time>2021-05-27T13:06:17Z</time>
      </trkpt>
      <trkpt lat="45.62082" lon="6.79289">
        <ele>848.2</ele>
        <time>2021-05-27T13:06:18Z</time>
      </trkpt>
      <trkpt lat="45.62086" lon="6.79275">
        <ele>847.6</ele>
        <time>2021-05-27T13:06:19Z</time>
      </trkpt>
      <trkpt lat="45.62091" lon="6.79261">
        <ele>846.8</ele>
        <time>2021-05-27T13:06:20Z</time>
      </trkpt>
      <trkpt lat="45.62095" lon="6.79246">
        <ele>845.6</ele>
        <time>2021-05-27T13:06:21Z</time>
      </trkpt>
      <trkpt lat="45.621" lon="6.79229">
        <ele>845.2</ele>
        <time>2021-05-27T13:06:22Z</time>
      </trkpt>
      <trkpt lat="45.62103" lon="6.79218">
        <ele>844.2</ele>
        <time>2021-05-27T13:06:23Z</time>
      </trkpt>
      <trkpt lat="45.62107" lon="6.79204">
        <ele>843.8</ele>
        <time>2021-05-27T13:06:24Z</time>
      </trkpt>
      <trkpt lat="45.6211" lon="6.7919">
        <ele>843.2</ele>
        <time>2021-05-27T13:06:25Z</time>
      </trkpt>
      <trkpt lat="45.62112" lon="6.79174">
        <ele>842.8</ele>
        <time>2021-05-27T13:06:26Z</time>
      </trkpt>
      <trkpt lat="45.62112" lon="6.79159">
        <ele>842.2</ele>
        <time>2021-05-27T13:06:27Z</time>
      </trkpt>
      <trkpt lat="45.62111" lon="6.79145">
        <ele>841.6</ele>
        <time>2021-05-27T13:06:28Z</time>
      </trkpt>
      <trkpt lat="45.62109" lon="6.7913">
        <ele>841.2</ele>
        <time>2021-05-27T13:06:29Z</time>
      </trkpt>
      <trkpt lat="45.62106" lon="6.79115">
        <ele>840.6</ele>
        <time>2021-05-27T13:06:30Z</time>
      </trkpt>
      <trkpt lat="45.62103" lon="6.79101">
        <ele>839.8</ele>
        <time>2021-05-27T13:06:31Z</time>
      </trkpt>
      <trkpt lat="45.62098" lon="6.79086">
        <ele>839.2</ele>
        <time>2021-05-27T13:06:32Z</time>
      </trkpt>
      <trkpt lat="45.62093" lon="6.79072">
        <ele>838.2</ele>
        <time>2021-05-27T13:06:33Z</time>
      </trkpt>
      <trkpt lat="45.62089" lon="6.79058">
        <ele>837.6</ele>
        <time>2021-05-27T13:06:34Z</time>
      </trkpt>
      <trkpt lat="45.62084" lon="6.79044">
        <ele>836.8</ele>
        <time>2021-05-27T13:06:35Z</time>
      </trkpt>
      <trkpt lat="45.62079" lon="6.7903">
        <ele>836</ele>
        <time>2021-05-27T13:06:36Z</time>
      </trkpt>
      <trkpt lat="45.62075" lon="6.79016">
        <ele>835.4</ele>
        <time>2021-05-27T13:06:37Z</time>
      </trkpt>
      <trkpt lat="45.6207" lon="6.79004">
        <ele>834.6</ele>
        <time>2021-05-27T13:06:38Z</time>
      </trkpt>
      <trkpt lat="45.62066" lon="6.78992">
        <ele>834</ele>
        <time>2021-05-27T13:06:39Z</time>
      </trkpt>
      <trkpt lat="45.62062" lon="6.7898">
        <ele>833.6</ele>
        <time>2021-05-27T13:06:40Z</time>
      </trkpt>
      <trkpt lat="45.62058" lon="6.78968">
        <ele>832.8</ele>
        <time>2021-05-27T13:06:41Z</time>
      </trkpt>
      <trkpt lat="45.62054" lon="6.78956">
        <ele>832.4</ele>
        <time>2021-05-27T13:06:42Z</time>
      </trkpt>
      <trkpt lat="45.6205" lon="6.78944">
        <ele>832.2</ele>
        <time>2021-05-27T13:06:43Z</time>
      </trkpt>
      <trkpt lat="45.62045" lon="6.78933">
        <ele>831.8</ele>
        <time>2021-05-27T13:06:44Z</time>
      </trkpt>
      <trkpt lat="45.62042" lon="6.78922">
        <ele>831.6</ele>
        <time>2021-05-27T13:06:45Z</time>
      </trkpt>
      <trkpt lat="45.62038" lon="6.7891">
        <ele>831.6</ele>
        <time>2021-05-27T13:06:46Z</time>
      </trkpt>
      <trkpt lat="45.62038" lon="6.78899">
        <ele>831</ele>
        <time>2021-05-27T13:06:47Z</time>
      </trkpt>
      <trkpt lat="45.6204" lon="6.78889">
        <ele>830.8</ele>
        <time>2021-05-27T13:06:48Z</time>
      </trkpt>
      <trkpt lat="45.62045" lon="6.78882">
        <ele>830.4</ele>
        <time>2021-05-27T13:06:49Z</time>
      </trkpt>
      <trkpt lat="45.62051" lon="6.78878">
        <ele>830.4</ele>
        <time>2021-05-27T13:06:50Z</time>
      </trkpt>
      <trkpt lat="45.62057" lon="6.78875">
        <ele>830.4</ele>
        <time>2021-05-27T13:06:51Z</time>
      </trkpt>
      <trkpt lat="45.62063" lon="6.78873">
        <ele>830.4</ele>
        <time>2021-05-27T13:06:52Z</time>
      </trkpt>
      <trkpt lat="45.62069" lon="6.78871">
        <ele>830.4</ele>
        <time>2021-05-27T13:06:53Z</time>
      </trkpt>
      <trkpt lat="45.62075" lon="6.78869">
        <ele>830.6</ele>
        <time>2021-05-27T13:06:54Z</time>
      </trkpt>
      <trkpt lat="45.6208" lon="6.78866">
        <ele>830.4</ele>
        <time>2021-05-27T13:06:55Z</time>
      </trkpt>
      <trkpt lat="45.62086" lon="6.78863">
        <ele>830.4</ele>
        <time>2021-05-27T13:06:56Z</time>
      </trkpt>
      <trkpt lat="45.62092" lon="6.7886">
        <ele>830.4</ele>
        <time>2021-05-27T13:06:57Z</time>
      </trkpt>
      <trkpt lat="45.62097" lon="6.78857">
        <ele>830.6</ele>
        <time>2021-05-27T13:06:58Z</time>
      </trkpt>
      <trkpt lat="45.62103" lon="6.78854">
        <ele>831.2</ele>
        <time>2021-05-27T13:06:59Z</time>
      </trkpt>
      <trkpt lat="45.62108" lon="6.7885">
        <ele>831.2</ele>
        <time>2021-05-27T13:07:00Z</time>
      </trkpt>
      <trkpt lat="45.62113" lon="6.78846">
        <ele>831.6</ele>
        <time>2021-05-27T13:07:01Z</time>
      </trkpt>
      <trkpt lat="45.62118" lon="6.78841">
        <ele>831.8</ele>
        <time>2021-05-27T13:07:02Z</time>
      </trkpt>
      <trkpt lat="45.62124" lon="6.78835">
        <ele>832.2</ele>
        <time>2021-05-27T13:07:03Z</time>
      </trkpt>
      <trkpt lat="45.62128" lon="6.78832">
        <ele>832.4</ele>
        <time>2021-05-27T13:07:04Z</time>
      </trkpt>
      <trkpt lat="45.62133" lon="6.78827">
        <ele>832.6</ele>
        <time>2021-05-27T13:07:05Z</time>
      </trkpt>
      <trkpt lat="45.62138" lon="6.78823">
        <ele>833</ele>
        <time>2021-05-27T13:07:06Z</time>
      </trkpt>
      <trkpt lat="45.62143" lon="6.78819">
        <ele>833.4</ele>
        <time>2021-05-27T13:07:07Z</time>
      </trkpt>
      <trkpt lat="45.62147" lon="6.78814">
        <ele>833.6</ele>
        <time>2021-05-27T13:07:08Z</time>
      </trkpt>
      <trkpt lat="45.6215" lon="6.78807">
        <ele>833.6</ele>
        <time>2021-05-27T13:07:09Z</time>
      </trkpt>
      <trkpt lat="45.62152" lon="6.788">
        <ele>833.8</ele>
        <time>2021-05-27T13:07:10Z</time>
      </trkpt>
      <trkpt lat="45.62153" lon="6.78792">
        <ele>834.2</ele>
        <time>2021-05-27T13:07:11Z</time>
      </trkpt>
      <trkpt lat="45.62153" lon="6.78785">
        <ele>834.4</ele>
        <time>2021-05-27T13:07:12Z</time>
      </trkpt>
      <trkpt lat="45.62153" lon="6.78777">
        <ele>834.2</ele>
        <time>2021-05-27T13:07:13Z</time>
      </trkpt>
      <trkpt lat="45.62153" lon="6.7877">
        <ele>834</ele>
        <time>2021-05-27T13:07:14Z</time>
      </trkpt>
      <trkpt lat="45.62153" lon="6.78764">
        <ele>833.8</ele>
        <time>2021-05-27T13:07:15Z</time>
      </trkpt>
      <trkpt lat="45.62153" lon="6.78758">
        <ele>833.4</ele>
        <time>2021-05-27T13:07:16Z</time>
      </trkpt>
      <trkpt lat="45.62154" lon="6.78753">
        <ele>833.4</ele>
        <time>2021-05-27T13:07:17Z</time>
      </trkpt>
      <trkpt lat="45.62156" lon="6.78749">
        <ele>833.2</ele>
        <time>2021-05-27T13:07:18Z</time>
      </trkpt>
      <trkpt lat="45.62159" lon="6.78746">
        <ele>833</ele>
        <time>2021-05-27T13:07:19Z</time>
      </trkpt>
      <trkpt lat="45.62162" lon="6.78743">
        <ele>833</ele>
        <time>2021-05-27T13:07:20Z</time>
      </trkpt>
      <trkpt lat="45.62166" lon="6.78739">
        <ele>833</ele>
        <time>2021-05-27T13:07:21Z</time>
      </trkpt>
      <trkpt lat="45.6217" lon="6.78735">
        <ele>833.2</ele>
        <time>2021-05-27T13:07:22Z</time>
      </trkpt>
      <trkpt lat="45.62172" lon="6.7873">
        <ele>832.8</ele>
        <time>2021-05-27T13:07:23Z</time>
      </trkpt>
      <trkpt lat="45.62176" lon="6.78726">
        <ele>833.2</ele>
        <time>2021-05-27T13:07:24Z</time>
      </trkpt>
      <trkpt lat="45.62179" lon="6.78722">
        <ele>833.4</ele>
        <time>2021-05-27T13:07:25Z</time>
      </trkpt>
      <trkpt lat="45.62182" lon="6.78718">
        <ele>833.4</ele>
        <time>2021-05-27T13:07:26Z</time>
      </trkpt>
      <trkpt lat="45.62184" lon="6.78712">
        <ele>833.4</ele>
        <time>2021-05-27T13:07:27Z</time>
      </trkpt>
      <trkpt lat="45.62186" lon="6.78706">
        <ele>833.6</ele>
        <time>2021-05-27T13:07:28Z</time>
      </trkpt>
      <trkpt lat="45.62188" lon="6.787">
        <ele>834</ele>
        <time>2021-05-27T13:07:29Z</time>
      </trkpt>
      <trkpt lat="45.62189" lon="6.78694">
        <ele>834</ele>
        <time>2021-05-27T13:07:30Z</time>
      </trkpt>
      <trkpt lat="45.62192" lon="6.78688">
        <ele>834</ele>
        <time>2021-05-27T13:07:31Z</time>
      </trkpt>
      <trkpt lat="45.62194" lon="6.78681">
        <ele>834.2</ele>
        <time>2021-05-27T13:07:32Z</time>
      </trkpt>
      <trkpt lat="45.62197" lon="6.78676">
        <ele>834.2</ele>
        <time>2021-05-27T13:07:33Z</time>
      </trkpt>
      <trkpt lat="45.622" lon="6.78669">
        <ele>833.4</ele>
        <time>2021-05-27T13:07:34Z</time>
      </trkpt>
      <trkpt lat="45.62203" lon="6.78662">
        <ele>833.4</ele>
        <time>2021-05-27T13:07:35Z</time>
      </trkpt>
      <trkpt lat="45.62205" lon="6.78654">
        <ele>833.6</ele>
        <time>2021-05-27T13:07:36Z</time>
      </trkpt>
      <trkpt lat="45.62208" lon="6.78646">
        <ele>833.8</ele>
        <time>2021-05-27T13:07:37Z</time>
      </trkpt>
      <trkpt lat="45.62211" lon="6.78637">
        <ele>833.6</ele>
        <time>2021-05-27T13:07:38Z</time>
      </trkpt>
      <trkpt lat="45.62214" lon="6.78629">
        <ele>833.6</ele>
        <time>2021-05-27T13:07:39Z</time>
      </trkpt>
      <trkpt lat="45.62217" lon="6.7862">
        <ele>833.4</ele>
        <time>2021-05-27T13:07:40Z</time>
      </trkpt>
      <trkpt lat="45.6222" lon="6.78612">
        <ele>833.2</ele>
        <time>2021-05-27T13:07:41Z</time>
      </trkpt>
      <trkpt lat="45.62221" lon="6.78604">
        <ele>833</ele>
        <time>2021-05-27T13:07:42Z</time>
      </trkpt>
      <trkpt lat="45.62222" lon="6.78595">
        <ele>832.8</ele>
        <time>2021-05-27T13:07:43Z</time>
      </trkpt>
      <trkpt lat="45.6222" lon="6.78588">
        <ele>832.4</ele>
        <time>2021-05-27T13:07:44Z</time>
      </trkpt>
      <trkpt lat="45.62216" lon="6.78582">
        <ele>832.2</ele>
        <time>2021-05-27T13:07:45Z</time>
      </trkpt>
      <trkpt lat="45.6221" lon="6.78579">
        <ele>832.2</ele>
        <time>2021-05-27T13:07:46Z</time>
      </trkpt>
      <trkpt lat="45.62203" lon="6.78576">
        <ele>832</ele>
        <time>2021-05-27T13:07:47Z</time>
      </trkpt>
      <trkpt lat="45.62196" lon="6.78575">
        <ele>832</ele>
        <time>2021-05-27T13:07:48Z</time>
      </trkpt>
      <trkpt lat="45.62188" lon="6.78575">
        <ele>832</ele>
        <time>2021-05-27T13:07:49Z</time>
      </trkpt>
      <trkpt lat="45.6218" lon="6.78574">
        <ele>831.6</ele>
        <time>2021-05-27T13:07:50Z</time>
      </trkpt>
      <trkpt lat="45.62172" lon="6.78573">
        <ele>831.6</ele>
        <time>2021-05-27T13:07:51Z</time>
      </trkpt>
      <trkpt lat="45.62164" lon="6.78572">
        <ele>831.4</ele>
        <time>2021-05-27T13:07:52Z</time>
      </trkpt>
      <trkpt lat="45.62156" lon="6.78571">
        <ele>831.2</ele>
        <time>2021-05-27T13:07:53Z</time>
      </trkpt>
      <trkpt lat="45.62148" lon="6.78571">
        <ele>831.2</ele>
        <time>2021-05-27T13:07:54Z</time>
      </trkpt>
      <trkpt lat="45.6214" lon="6.7857">
        <ele>831.2</ele>
        <time>2021-05-27T13:07:55Z</time>
      </trkpt>
      <trkpt lat="45.62131" lon="6.78569">
        <ele>831</ele>
        <time>2021-05-27T13:07:56Z</time>
      </trkpt>
      <trkpt lat="45.62123" lon="6.78568">
        <ele>830.8</ele>
        <time>2021-05-27T13:07:57Z</time>
      </trkpt>
      <trkpt lat="45.62115" lon="6.78566">
        <ele>830.6</ele>
        <time>2021-05-27T13:07:58Z</time>
      </trkpt>
      <trkpt lat="45.62107" lon="6.78565">
        <ele>830.4</ele>
        <time>2021-05-27T13:07:59Z</time>
      </trkpt>
      <trkpt lat="45.62099" lon="6.78564">
        <ele>829.8</ele>
        <time>2021-05-27T13:08:00Z</time>
      </trkpt>
      <trkpt lat="45.62091" lon="6.78562">
        <ele>829.6</ele>
        <time>2021-05-27T13:08:01Z</time>
      </trkpt>
      <trkpt lat="45.62083" lon="6.78561">
        <ele>829.6</ele>
        <time>2021-05-27T13:08:02Z</time>
      </trkpt>
      <trkpt lat="45.62075" lon="6.78557">
        <ele>829.4</ele>
        <time>2021-05-27T13:08:03Z</time>
      </trkpt>
      <trkpt lat="45.62068" lon="6.78552">
        <ele>829.4</ele>
        <time>2021-05-27T13:08:04Z</time>
      </trkpt>
      <trkpt lat="45.6206" lon="6.78548">
        <ele>829.2</ele>
        <time>2021-05-27T13:08:05Z</time>
      </trkpt>
      <trkpt lat="45.62052" lon="6.78544">
        <ele>829</ele>
        <time>2021-05-27T13:08:06Z</time>
      </trkpt>
      <trkpt lat="45.62044" lon="6.78541">
        <ele>828.6</ele>
        <time>2021-05-27T13:08:07Z</time>
      </trkpt>
      <trkpt lat="45.62036" lon="6.78539">
        <ele>828.4</ele>
        <time>2021-05-27T13:08:08Z</time>
      </trkpt>
      <trkpt lat="45.62027" lon="6.78537">
        <ele>828.2</ele>
        <time>2021-05-27T13:08:09Z</time>
      </trkpt>
      <trkpt lat="45.62019" lon="6.78534">
        <ele>828</ele>
        <time>2021-05-27T13:08:10Z</time>
      </trkpt>
      <trkpt lat="45.6201" lon="6.78532">
        <ele>827.8</ele>
        <time>2021-05-27T13:08:11Z</time>
      </trkpt>
      <trkpt lat="45.62001" lon="6.78529">
        <ele>827.8</ele>
        <time>2021-05-27T13:08:12Z</time>
      </trkpt>
      <trkpt lat="45.61992" lon="6.78527">
        <ele>827.4</ele>
        <time>2021-05-27T13:08:13Z</time>
      </trkpt>
      <trkpt lat="45.61983" lon="6.78524">
        <ele>827</ele>
        <time>2021-05-27T13:08:14Z</time>
      </trkpt>
      <trkpt lat="45.61974" lon="6.78522">
        <ele>826.8</ele>
        <time>2021-05-27T13:08:15Z</time>
      </trkpt>
      <trkpt lat="45.61965" lon="6.78518">
        <ele>826.4</ele>
        <time>2021-05-27T13:08:16Z</time>
      </trkpt>
      <trkpt lat="45.61956" lon="6.78516">
        <ele>826</ele>
        <time>2021-05-27T13:08:17Z</time>
      </trkpt>
      <trkpt lat="45.61946" lon="6.78512">
        <ele>825.8</ele>
        <time>2021-05-27T13:08:18Z</time>
      </trkpt>
      <trkpt lat="45.61937" lon="6.78509">
        <ele>825.8</ele>
        <time>2021-05-27T13:08:19Z</time>
      </trkpt>
      <trkpt lat="45.61928" lon="6.78506">
        <ele>826</ele>
        <time>2021-05-27T13:08:20Z</time>
      </trkpt>
      <trkpt lat="45.61919" lon="6.78502">
        <ele>825.8</ele>
        <time>2021-05-27T13:08:21Z</time>
      </trkpt>
      <trkpt lat="45.61911" lon="6.78498">
        <ele>825.8</ele>
        <time>2021-05-27T13:08:22Z</time>
      </trkpt>
      <trkpt lat="45.61902" lon="6.78493">
        <ele>825.6</ele>
        <time>2021-05-27T13:08:23Z</time>
      </trkpt>
      <trkpt lat="45.61893" lon="6.7849">
        <ele>825.4</ele>
        <time>2021-05-27T13:08:24Z</time>
      </trkpt>
      <trkpt lat="45.61885" lon="6.78487">
        <ele>825</ele>
        <time>2021-05-27T13:08:25Z</time>
      </trkpt>
      <trkpt lat="45.61877" lon="6.78482">
        <ele>825.2</ele>
        <time>2021-05-27T13:08:26Z</time>
      </trkpt>
      <trkpt lat="45.6187" lon="6.78477">
        <ele>825.2</ele>
        <time>2021-05-27T13:08:27Z</time>
      </trkpt>
      <trkpt lat="45.61864" lon="6.7847">
        <ele>825</ele>
        <time>2021-05-27T13:08:28Z</time>
      </trkpt>
      <trkpt lat="45.61859" lon="6.78462">
        <ele>824.8</ele>
        <time>2021-05-27T13:08:29Z</time>
      </trkpt>
      <trkpt lat="45.61853" lon="6.78451">
        <ele>824.8</ele>
        <time>2021-05-27T13:08:30Z</time>
      </trkpt>
      <trkpt lat="45.61849" lon="6.78444">
        <ele>824.8</ele>
        <time>2021-05-27T13:08:31Z</time>
      </trkpt>
      <trkpt lat="45.61844" lon="6.78434">
        <ele>824.8</ele>
        <time>2021-05-27T13:08:32Z</time>
      </trkpt>
      <trkpt lat="45.61838" lon="6.78426">
        <ele>824.8</ele>
        <time>2021-05-27T13:08:33Z</time>
      </trkpt>
      <trkpt lat="45.61831" lon="6.78419">
        <ele>824.8</ele>
        <time>2021-05-27T13:08:34Z</time>
      </trkpt>
      <trkpt lat="45.61824" lon="6.78414">
        <ele>824.6</ele>
        <time>2021-05-27T13:08:35Z</time>
      </trkpt>
      <trkpt lat="45.61816" lon="6.78408">
        <ele>824.6</ele>
        <time>2021-05-27T13:08:36Z</time>
      </trkpt>
      <trkpt lat="45.61808" lon="6.78402">
        <ele>824.6</ele>
        <time>2021-05-27T13:08:37Z</time>
      </trkpt>
      <trkpt lat="45.618" lon="6.78397">
        <ele>824.4</ele>
        <time>2021-05-27T13:08:38Z</time>
      </trkpt>
      <trkpt lat="45.61792" lon="6.78392">
        <ele>824.4</ele>
        <time>2021-05-27T13:08:39Z</time>
      </trkpt>
      <trkpt lat="45.61784" lon="6.78386">
        <ele>824.2</ele>
        <time>2021-05-27T13:08:40Z</time>
      </trkpt>
      <trkpt lat="45.61776" lon="6.78381">
        <ele>823.8</ele>
        <time>2021-05-27T13:08:41Z</time>
      </trkpt>
      <trkpt lat="45.61768" lon="6.78376">
        <ele>823.6</ele>
        <time>2021-05-27T13:08:42Z</time>
      </trkpt>
      <trkpt lat="45.6176" lon="6.78371">
        <ele>823.4</ele>
        <time>2021-05-27T13:08:43Z</time>
      </trkpt>
      <trkpt lat="45.61752" lon="6.78365">
        <ele>823</ele>
        <time>2021-05-27T13:08:44Z</time>
      </trkpt>
      <trkpt lat="45.61745" lon="6.78359">
        <ele>822.8</ele>
        <time>2021-05-27T13:08:45Z</time>
      </trkpt>
      <trkpt lat="45.61738" lon="6.7835">
        <ele>822.6</ele>
        <time>2021-05-27T13:08:46Z</time>
      </trkpt>
      <trkpt lat="45.61733" lon="6.78339">
        <ele>822.2</ele>
        <time>2021-05-27T13:08:47Z</time>
      </trkpt>
      <trkpt lat="45.61729" lon="6.78328">
        <ele>822</ele>
        <time>2021-05-27T13:08:48Z</time>
      </trkpt>
      <trkpt lat="45.61727" lon="6.78316">
        <ele>821.6</ele>
        <time>2021-05-27T13:08:49Z</time>
      </trkpt>
      <trkpt lat="45.61724" lon="6.78304">
        <ele>821.6</ele>
        <time>2021-05-27T13:08:50Z</time>
      </trkpt>
      <trkpt lat="45.61722" lon="6.78292">
        <ele>821.6</ele>
        <time>2021-05-27T13:08:51Z</time>
      </trkpt>
      <trkpt lat="45.61719" lon="6.7828">
        <ele>821.6</ele>
        <time>2021-05-27T13:08:52Z</time>
      </trkpt>
      <trkpt lat="45.61716" lon="6.78268">
        <ele>821.8</ele>
        <time>2021-05-27T13:08:53Z</time>
      </trkpt>
      <trkpt lat="45.61714" lon="6.78256">
        <ele>821.6</ele>
        <time>2021-05-27T13:08:54Z</time>
      </trkpt>
      <trkpt lat="45.61711" lon="6.78244">
        <ele>821.6</ele>
        <time>2021-05-27T13:08:55Z</time>
      </trkpt>
      <trkpt lat="45.61709" lon="6.78232">
        <ele>821.4</ele>
        <time>2021-05-27T13:08:56Z</time>
      </trkpt>
      <trkpt lat="45.61707" lon="6.7822">
        <ele>821</ele>
        <time>2021-05-27T13:08:57Z</time>
      </trkpt>
      <trkpt lat="45.61706" lon="6.78208">
        <ele>821.2</ele>
        <time>2021-05-27T13:08:58Z</time>
      </trkpt>
      <trkpt lat="45.61706" lon="6.78196">
        <ele>821.2</ele>
        <time>2021-05-27T13:08:59Z</time>
      </trkpt>
      <trkpt lat="45.61705" lon="6.78184">
        <ele>821.8</ele>
        <time>2021-05-27T13:09:00Z</time>
      </trkpt>
      <trkpt lat="45.61705" lon="6.78172">
        <ele>821.8</ele>
        <time>2021-05-27T13:09:01Z</time>
      </trkpt>
      <trkpt lat="45.61705" lon="6.7816">
        <ele>821.8</ele>
        <time>2021-05-27T13:09:02Z</time>
      </trkpt>
      <trkpt lat="45.61705" lon="6.78148">
        <ele>822</ele>
        <time>2021-05-27T13:09:03Z</time>
      </trkpt>
      <trkpt lat="45.61704" lon="6.78136">
        <ele>822</ele>
        <time>2021-05-27T13:09:04Z</time>
      </trkpt>
      <trkpt lat="45.61704" lon="6.78125">
        <ele>821.8</ele>
        <time>2021-05-27T13:09:05Z</time>
      </trkpt>
      <trkpt lat="45.61703" lon="6.78113">
        <ele>821.6</ele>
        <time>2021-05-27T13:09:06Z</time>
      </trkpt>
      <trkpt lat="45.61703" lon="6.78102">
        <ele>821.8</ele>
        <time>2021-05-27T13:09:07Z</time>
      </trkpt>
      <trkpt lat="45.61703" lon="6.78091">
        <ele>821.6</ele>
        <time>2021-05-27T13:09:08Z</time>
      </trkpt>
      <trkpt lat="45.61703" lon="6.7808">
        <ele>821.6</ele>
        <time>2021-05-27T13:09:09Z</time>
      </trkpt>
      <trkpt lat="45.61703" lon="6.78069">
        <ele>821.6</ele>
        <time>2021-05-27T13:09:10Z</time>
      </trkpt>
      <trkpt lat="45.61706" lon="6.78058">
        <ele>821.6</ele>
        <time>2021-05-27T13:09:11Z</time>
      </trkpt>
      <trkpt lat="45.6171" lon="6.78051">
        <ele>821.4</ele>
        <time>2021-05-27T13:09:12Z</time>
      </trkpt>
      <trkpt lat="45.61716" lon="6.78045">
        <ele>821.4</ele>
        <time>2021-05-27T13:09:13Z</time>
      </trkpt>
      <trkpt lat="45.61722" lon="6.78041">
        <ele>821.6</ele>
        <time>2021-05-27T13:09:14Z</time>
      </trkpt>
      <trkpt lat="45.61729" lon="6.78036">
        <ele>821.4</ele>
        <time>2021-05-27T13:09:15Z</time>
      </trkpt>
      <trkpt lat="45.61735" lon="6.78032">
        <ele>821.2</ele>
        <time>2021-05-27T13:09:16Z</time>
      </trkpt>
      <trkpt lat="45.61741" lon="6.78027">
        <ele>821.2</ele>
        <time>2021-05-27T13:09:17Z</time>
      </trkpt>
      <trkpt lat="45.61748" lon="6.78022">
        <ele>821</ele>
        <time>2021-05-27T13:09:18Z</time>
      </trkpt>
      <trkpt lat="45.61754" lon="6.78017">
        <ele>821</ele>
        <time>2021-05-27T13:09:19Z</time>
      </trkpt>
      <trkpt lat="45.61761" lon="6.78013">
        <ele>820.8</ele>
        <time>2021-05-27T13:09:20Z</time>
      </trkpt>
      <trkpt lat="45.61768" lon="6.78008">
        <ele>820.8</ele>
        <time>2021-05-27T13:09:21Z</time>
      </trkpt>
      <trkpt lat="45.61774" lon="6.78003">
        <ele>820.8</ele>
        <time>2021-05-27T13:09:22Z</time>
      </trkpt>
      <trkpt lat="45.6178" lon="6.77998">
        <ele>820.8</ele>
        <time>2021-05-27T13:09:23Z</time>
      </trkpt>
      <trkpt lat="45.61787" lon="6.77993">
        <ele>820.8</ele>
        <time>2021-05-27T13:09:24Z</time>
      </trkpt>
      <trkpt lat="45.61793" lon="6.77987">
        <ele>820.6</ele>
        <time>2021-05-27T13:09:25Z</time>
      </trkpt>
      <trkpt lat="45.61799" lon="6.77981">
        <ele>820.4</ele>
        <time>2021-05-27T13:09:26Z</time>
      </trkpt>
      <trkpt lat="45.61803" lon="6.77973">
        <ele>820.2</ele>
        <time>2021-05-27T13:09:27Z</time>
      </trkpt>
      <trkpt lat="45.61806" lon="6.77964">
        <ele>820</ele>
        <time>2021-05-27T13:09:28Z</time>
      </trkpt>
      <trkpt lat="45.61808" lon="6.77955">
        <ele>819.8</ele>
        <time>2021-05-27T13:09:29Z</time>
      </trkpt>
      <trkpt lat="45.6181" lon="6.77945">
        <ele>819.8</ele>
        <time>2021-05-27T13:09:30Z</time>
      </trkpt>
      <trkpt lat="45.61811" lon="6.77934">
        <ele>819.6</ele>
        <time>2021-05-27T13:09:31Z</time>
      </trkpt>
      <trkpt lat="45.61812" lon="6.77924">
        <ele>819.4</ele>
        <time>2021-05-27T13:09:32Z</time>
      </trkpt>
      <trkpt lat="45.61813" lon="6.77913">
        <ele>819.4</ele>
        <time>2021-05-27T13:09:33Z</time>
      </trkpt>
      <trkpt lat="45.61814" lon="6.77903">
        <ele>819.4</ele>
        <time>2021-05-27T13:09:34Z</time>
      </trkpt>
      <trkpt lat="45.61816" lon="6.77892">
        <ele>819.4</ele>
        <time>2021-05-27T13:09:35Z</time>
      </trkpt>
      <trkpt lat="45.61817" lon="6.77881">
        <ele>819.2</ele>
        <time>2021-05-27T13:09:36Z</time>
      </trkpt>
      <trkpt lat="45.61818" lon="6.77871">
        <ele>819.4</ele>
        <time>2021-05-27T13:09:37Z</time>
      </trkpt>
      <trkpt lat="45.61819" lon="6.7786">
        <ele>819.2</ele>
        <time>2021-05-27T13:09:38Z</time>
      </trkpt>
      <trkpt lat="45.6182" lon="6.7785">
        <ele>819</ele>
        <time>2021-05-27T13:09:39Z</time>
      </trkpt>
      <trkpt lat="45.61822" lon="6.7784">
        <ele>819</ele>
        <time>2021-05-27T13:09:40Z</time>
      </trkpt>
      <trkpt lat="45.61824" lon="6.77829">
        <ele>819</ele>
        <time>2021-05-27T13:09:41Z</time>
      </trkpt>
      <trkpt lat="45.61825" lon="6.77819">
        <ele>819</ele>
        <time>2021-05-27T13:09:42Z</time>
      </trkpt>
      <trkpt lat="45.61826" lon="6.77808">
        <ele>819.2</ele>
        <time>2021-05-27T13:09:43Z</time>
      </trkpt>
      <trkpt lat="45.61828" lon="6.77798">
        <ele>819.2</ele>
        <time>2021-05-27T13:09:44Z</time>
      </trkpt>
      <trkpt lat="45.61828" lon="6.77787">
        <ele>819</ele>
        <time>2021-05-27T13:09:45Z</time>
      </trkpt>
      <trkpt lat="45.61829" lon="6.77776">
        <ele>819</ele>
        <time>2021-05-27T13:09:46Z</time>
      </trkpt>
      <trkpt lat="45.6183" lon="6.77765">
        <ele>819</ele>
        <time>2021-05-27T13:09:47Z</time>
      </trkpt>
      <trkpt lat="45.61831" lon="6.77754">
        <ele>818.8</ele>
        <time>2021-05-27T13:09:48Z</time>
      </trkpt>
      <trkpt lat="45.61833" lon="6.77745">
        <ele>818.8</ele>
        <time>2021-05-27T13:09:49Z</time>
      </trkpt>
      <trkpt lat="45.61834" lon="6.77734">
        <ele>818.8</ele>
        <time>2021-05-27T13:09:50Z</time>
      </trkpt>
      <trkpt lat="45.61834" lon="6.77724">
        <ele>819</ele>
        <time>2021-05-27T13:09:51Z</time>
      </trkpt>
      <trkpt lat="45.61836" lon="6.77715">
        <ele>819</ele>
        <time>2021-05-27T13:09:52Z</time>
      </trkpt>
      <trkpt lat="45.61837" lon="6.77706">
        <ele>819</ele>
        <time>2021-05-27T13:09:53Z</time>
      </trkpt>
      <trkpt lat="45.61838" lon="6.77697">
        <ele>819</ele>
        <time>2021-05-27T13:09:54Z</time>
      </trkpt>
      <trkpt lat="45.6184" lon="6.77688">
        <ele>819</ele>
        <time>2021-05-27T13:09:55Z</time>
      </trkpt>
      <trkpt lat="45.61841" lon="6.77678">
        <ele>819</ele>
        <time>2021-05-27T13:09:56Z</time>
      </trkpt>
      <trkpt lat="45.61842" lon="6.77668">
        <ele>818.8</ele>
        <time>2021-05-27T13:09:57Z</time>
      </trkpt>
      <trkpt lat="45.61844" lon="6.77659">
        <ele>818.8</ele>
        <time>2021-05-27T13:09:58Z</time>
      </trkpt>
      <trkpt lat="45.61845" lon="6.77648">
        <ele>818.6</ele>
        <time>2021-05-27T13:09:59Z</time>
      </trkpt>
      <trkpt lat="45.61846" lon="6.77638">
        <ele>818.6</ele>
        <time>2021-05-27T13:10:00Z</time>
      </trkpt>
      <trkpt lat="45.61847" lon="6.77628">
        <ele>818.4</ele>
        <time>2021-05-27T13:10:01Z</time>
      </trkpt>
      <trkpt lat="45.61848" lon="6.77618">
        <ele>818.4</ele>
        <time>2021-05-27T13:10:02Z</time>
      </trkpt>
      <trkpt lat="45.6185" lon="6.77607">
        <ele>818</ele>
        <time>2021-05-27T13:10:03Z</time>
      </trkpt>
      <trkpt lat="45.61853" lon="6.77597">
        <ele>818.2</ele>
        <time>2021-05-27T13:10:04Z</time>
      </trkpt>
      <trkpt lat="45.61855" lon="6.77587">
        <ele>818.2</ele>
        <time>2021-05-27T13:10:05Z</time>
      </trkpt>
      <trkpt lat="45.61859" lon="6.77578">
        <ele>818.2</ele>
        <time>2021-05-27T13:10:06Z</time>
      </trkpt>
      <trkpt lat="45.61862" lon="6.77569">
        <ele>818.2</ele>
        <time>2021-05-27T13:10:07Z</time>
      </trkpt>
      <trkpt lat="45.61866" lon="6.77561">
        <ele>818</ele>
        <time>2021-05-27T13:10:08Z</time>
      </trkpt>
      <trkpt lat="45.6187" lon="6.77553">
        <ele>818</ele>
        <time>2021-05-27T13:10:09Z</time>
      </trkpt>
      <trkpt lat="45.61873" lon="6.77545">
        <ele>817.8</ele>
        <time>2021-05-27T13:10:10Z</time>
      </trkpt>
      <trkpt lat="45.61875" lon="6.77538">
        <ele>817.6</ele>
        <time>2021-05-27T13:10:11Z</time>
      </trkpt>
      <trkpt lat="45.61876" lon="6.7753">
        <ele>817.6</ele>
        <time>2021-05-27T13:10:12Z</time>
      </trkpt>
      <trkpt lat="45.61875" lon="6.77522">
        <ele>817.8</ele>
        <time>2021-05-27T13:10:13Z</time>
      </trkpt>
      <trkpt lat="45.61873" lon="6.77513">
        <ele>817.8</ele>
        <time>2021-05-27T13:10:14Z</time>
      </trkpt>
      <trkpt lat="45.61871" lon="6.77504">
        <ele>817.8</ele>
        <time>2021-05-27T13:10:15Z</time>
      </trkpt>
      <trkpt lat="45.61868" lon="6.77496">
        <ele>817.8</ele>
        <time>2021-05-27T13:10:16Z</time>
      </trkpt>
      <trkpt lat="45.61866" lon="6.77488">
        <ele>817.4</ele>
        <time>2021-05-27T13:10:17Z</time>
      </trkpt>
      <trkpt lat="45.61863" lon="6.77479">
        <ele>817.4</ele>
        <time>2021-05-27T13:10:18Z</time>
      </trkpt>
      <trkpt lat="45.6186" lon="6.7747">
        <ele>817.2</ele>
        <time>2021-05-27T13:10:19Z</time>
      </trkpt>
      <trkpt lat="45.61858" lon="6.77462">
        <ele>817</ele>
        <time>2021-05-27T13:10:20Z</time>
      </trkpt>
      <trkpt lat="45.61856" lon="6.77453">
        <ele>816.8</ele>
        <time>2021-05-27T13:10:21Z</time>
      </trkpt>
      <trkpt lat="45.61853" lon="6.77444">
        <ele>817</ele>
        <time>2021-05-27T13:10:22Z</time>
      </trkpt>
      <trkpt lat="45.6185" lon="6.77436">
        <ele>817</ele>
        <time>2021-05-27T13:10:23Z</time>
      </trkpt>
      <trkpt lat="45.61848" lon="6.77427">
        <ele>816.8</ele>
        <time>2021-05-27T13:10:24Z</time>
      </trkpt>
      <trkpt lat="45.61845" lon="6.77419">
        <ele>817</ele>
        <time>2021-05-27T13:10:25Z</time>
      </trkpt>
      <trkpt lat="45.61843" lon="6.7741">
        <ele>817</ele>
        <time>2021-05-27T13:10:26Z</time>
      </trkpt>
      <trkpt lat="45.61841" lon="6.77402">
        <ele>817</ele>
        <time>2021-05-27T13:10:27Z</time>
      </trkpt>
      <trkpt lat="45.61839" lon="6.77394">
        <ele>817</ele>
        <time>2021-05-27T13:10:28Z</time>
      </trkpt>
      <trkpt lat="45.61836" lon="6.77386">
        <ele>816.8</ele>
        <time>2021-05-27T13:10:29Z</time>
      </trkpt>
      <trkpt lat="45.61833" lon="6.77379">
        <ele>816.6</ele>
        <time>2021-05-27T13:10:30Z</time>
      </trkpt>
      <trkpt lat="45.61828" lon="6.77378">
        <ele>816.6</ele>
        <time>2021-05-27T13:10:31Z</time>
      </trkpt>
      <trkpt lat="45.61823" lon="6.77379">
        <ele>816.4</ele>
        <time>2021-05-27T13:10:32Z</time>
      </trkpt>
      <trkpt lat="45.61818" lon="6.77381">
        <ele>816.4</ele>
        <time>2021-05-27T13:10:33Z</time>
      </trkpt>
      <trkpt lat="45.61813" lon="6.77386">
        <ele>816.6</ele>
        <time>2021-05-27T13:10:34Z</time>
      </trkpt>
      <trkpt lat="45.61808" lon="6.77391">
        <ele>816.6</ele>
        <time>2021-05-27T13:10:35Z</time>
      </trkpt>
      <trkpt lat="45.61803" lon="6.77396">
        <ele>816.6</ele>
        <time>2021-05-27T13:10:36Z</time>
      </trkpt>
      <trkpt lat="45.61797" lon="6.774">
        <ele>816.6</ele>
        <time>2021-05-27T13:10:37Z</time>
      </trkpt>
      <trkpt lat="45.6179" lon="6.77406">
        <ele>816.4</ele>
        <time>2021-05-27T13:10:38Z</time>
      </trkpt>
      <trkpt lat="45.61786" lon="6.7741">
        <ele>816.4</ele>
        <time>2021-05-27T13:10:39Z</time>
      </trkpt>
      <trkpt lat="45.6178" lon="6.77414">
        <ele>816</ele>
        <time>2021-05-27T13:10:40Z</time>
      </trkpt>
      <trkpt lat="45.61775" lon="6.77419">
        <ele>816</ele>
        <time>2021-05-27T13:10:41Z</time>
      </trkpt>
      <trkpt lat="45.6177" lon="6.77423">
        <ele>815.8</ele>
        <time>2021-05-27T13:10:42Z</time>
      </trkpt>
      <trkpt lat="45.61765" lon="6.77428">
        <ele>815.8</ele>
        <time>2021-05-27T13:10:43Z</time>
      </trkpt>
      <trkpt lat="45.6176" lon="6.77432">
        <ele>815.6</ele>
        <time>2021-05-27T13:10:44Z</time>
      </trkpt>
      <trkpt lat="45.61755" lon="6.77436">
        <ele>815.6</ele>
        <time>2021-05-27T13:10:45Z</time>
      </trkpt>
      <trkpt lat="45.6175" lon="6.7744">
        <ele>815.8</ele>
        <time>2021-05-27T13:10:46Z</time>
      </trkpt>
      <trkpt lat="45.61746" lon="6.77443">
        <ele>816</ele>
        <time>2021-05-27T13:10:47Z</time>
      </trkpt>
      <trkpt lat="45.61741" lon="6.77446">
        <ele>816</ele>
        <time>2021-05-27T13:10:48Z</time>
      </trkpt>
      <trkpt lat="45.61736" lon="6.77448">
        <ele>815.8</ele>
        <time>2021-05-27T13:10:49Z</time>
      </trkpt>
      <trkpt lat="45.61731" lon="6.77449">
        <ele>815.6</ele>
        <time>2021-05-27T13:10:50Z</time>
      </trkpt>
      <trkpt lat="45.61727" lon="6.7745">
        <ele>815.6</ele>
        <time>2021-05-27T13:10:51Z</time>
      </trkpt>
      <trkpt lat="45.61722" lon="6.77451">
        <ele>815.4</ele>
        <time>2021-05-27T13:10:52Z</time>
      </trkpt>
      <trkpt lat="45.61717" lon="6.77452">
        <ele>815.2</ele>
        <time>2021-05-27T13:10:53Z</time>
      </trkpt>
      <trkpt lat="45.61713" lon="6.77454">
        <ele>815</ele>
        <time>2021-05-27T13:10:54Z</time>
      </trkpt>
      <trkpt lat="45.61708" lon="6.77456">
        <ele>815</ele>
        <time>2021-05-27T13:10:55Z</time>
      </trkpt>
      <trkpt lat="45.61702" lon="6.77458">
        <ele>815.2</ele>
        <time>2021-05-27T13:10:56Z</time>
      </trkpt>
      <trkpt lat="45.61697" lon="6.7746">
        <ele>815</ele>
        <time>2021-05-27T13:10:57Z</time>
      </trkpt>
      <trkpt lat="45.61692" lon="6.77463">
        <ele>814.6</ele>
        <time>2021-05-27T13:10:58Z</time>
      </trkpt>
      <trkpt lat="45.61686" lon="6.77467">
        <ele>814.4</ele>
        <time>2021-05-27T13:10:59Z</time>
      </trkpt>
      <trkpt lat="45.61681" lon="6.77471">
        <ele>814.4</ele>
        <time>2021-05-27T13:11:00Z</time>
      </trkpt>
      <trkpt lat="45.61676" lon="6.77475">
        <ele>814.2</ele>
        <time>2021-05-27T13:11:01Z</time>
      </trkpt>
      <trkpt lat="45.6167" lon="6.77479">
        <ele>814.4</ele>
        <time>2021-05-27T13:11:02Z</time>
      </trkpt>
      <trkpt lat="45.61665" lon="6.77483">
        <ele>814</ele>
        <time>2021-05-27T13:11:03Z</time>
      </trkpt>
      <trkpt lat="45.61659" lon="6.77487">
        <ele>814</ele>
        <time>2021-05-27T13:11:04Z</time>
      </trkpt>
      <trkpt lat="45.61653" lon="6.7749">
        <ele>814.4</ele>
        <time>2021-05-27T13:11:05Z</time>
      </trkpt>
      <trkpt lat="45.61647" lon="6.77493">
        <ele>814.6</ele>
        <time>2021-05-27T13:11:06Z</time>
      </trkpt>
      <trkpt lat="45.61641" lon="6.77496">
        <ele>814.8</ele>
        <time>2021-05-27T13:11:07Z</time>
      </trkpt>
      <trkpt lat="45.61635" lon="6.77497">
        <ele>814.8</ele>
        <time>2021-05-27T13:11:08Z</time>
      </trkpt>
      <trkpt lat="45.61629" lon="6.77498">
        <ele>815</ele>
        <time>2021-05-27T13:11:09Z</time>
      </trkpt>
      <trkpt lat="45.61623" lon="6.77499">
        <ele>814.8</ele>
        <time>2021-05-27T13:11:10Z</time>
      </trkpt>
      <trkpt lat="45.61617" lon="6.775">
        <ele>814.8</ele>
        <time>2021-05-27T13:11:11Z</time>
      </trkpt>
      <trkpt lat="45.61612" lon="6.775">
        <ele>815</ele>
        <time>2021-05-27T13:11:12Z</time>
      </trkpt>
      <trkpt lat="45.61606" lon="6.775">
        <ele>815.2</ele>
        <time>2021-05-27T13:11:13Z</time>
      </trkpt>
      <trkpt lat="45.61601" lon="6.77499">
        <ele>815.2</ele>
        <time>2021-05-27T13:11:14Z</time>
      </trkpt>
      <trkpt lat="45.61595" lon="6.77498">
        <ele>815.4</ele>
        <time>2021-05-27T13:11:15Z</time>
      </trkpt>
      <trkpt lat="45.61589" lon="6.77498">
        <ele>815.2</ele>
        <time>2021-05-27T13:11:16Z</time>
      </trkpt>
      <trkpt lat="45.61583" lon="6.77498">
        <ele>815.4</ele>
        <time>2021-05-27T13:11:17Z</time>
      </trkpt>
      <trkpt lat="45.61577" lon="6.775">
        <ele>815.4</ele>
        <time>2021-05-27T13:11:18Z</time>
      </trkpt>
      <trkpt lat="45.61571" lon="6.77501">
        <ele>815.2</ele>
        <time>2021-05-27T13:11:19Z</time>
      </trkpt>
      <trkpt lat="45.61565" lon="6.77504">
        <ele>815.2</ele>
        <time>2021-05-27T13:11:20Z</time>
      </trkpt>
      <trkpt lat="45.61559" lon="6.77506">
        <ele>815</ele>
        <time>2021-05-27T13:11:21Z</time>
      </trkpt>
      <trkpt lat="45.61553" lon="6.77508">
        <ele>815</ele>
        <time>2021-05-27T13:11:22Z</time>
      </trkpt>
      <trkpt lat="45.61546" lon="6.77511">
        <ele>815</ele>
        <time>2021-05-27T13:11:23Z</time>
      </trkpt>
      <trkpt lat="45.6154" lon="6.77513">
        <ele>814.8</ele>
        <time>2021-05-27T13:11:24Z</time>
      </trkpt>
      <trkpt lat="45.61534" lon="6.77516">
        <ele>815</ele>
        <time>2021-05-27T13:11:25Z</time>
      </trkpt>
      <trkpt lat="45.61528" lon="6.77518">
        <ele>815</ele>
        <time>2021-05-27T13:11:26Z</time>
      </trkpt>
      <trkpt lat="45.61523" lon="6.7752">
        <ele>814.8</ele>
        <time>2021-05-27T13:11:27Z</time>
      </trkpt>
      <trkpt lat="45.61516" lon="6.77522">
        <ele>814.8</ele>
        <time>2021-05-27T13:11:28Z</time>
      </trkpt>
      <trkpt lat="45.6151" lon="6.77525">
        <ele>814.6</ele>
        <time>2021-05-27T13:11:29Z</time>
      </trkpt>
      <trkpt lat="45.61504" lon="6.77528">
        <ele>814.6</ele>
        <time>2021-05-27T13:11:30Z</time>
      </trkpt>
      <trkpt lat="45.61498" lon="6.77531">
        <ele>814.6</ele>
        <time>2021-05-27T13:11:31Z</time>
      </trkpt>
      <trkpt lat="45.61492" lon="6.77533">
        <ele>814.4</ele>
        <time>2021-05-27T13:11:32Z</time>
      </trkpt>
      <trkpt lat="45.61485" lon="6.77535">
        <ele>814.6</ele>
        <time>2021-05-27T13:11:33Z</time>
      </trkpt>
      <trkpt lat="45.61479" lon="6.77538">
        <ele>814.6</ele>
        <time>2021-05-27T13:11:34Z</time>
      </trkpt>
      <trkpt lat="45.61473" lon="6.7754">
        <ele>814.6</ele>
        <time>2021-05-27T13:11:35Z</time>
      </trkpt>
      <trkpt lat="45.61466" lon="6.77543">
        <ele>814.4</ele>
        <time>2021-05-27T13:11:36Z</time>
      </trkpt>
      <trkpt lat="45.61459" lon="6.77546">
        <ele>814.2</ele>
        <time>2021-05-27T13:11:37Z</time>
      </trkpt>
      <trkpt lat="45.61453" lon="6.77549">
        <ele>814.2</ele>
        <time>2021-05-27T13:11:38Z</time>
      </trkpt>
      <trkpt lat="45.61446" lon="6.77552">
        <ele>814</ele>
        <time>2021-05-27T13:11:39Z</time>
      </trkpt>
      <trkpt lat="45.6144" lon="6.77554">
        <ele>814</ele>
        <time>2021-05-27T13:11:40Z</time>
      </trkpt>
      <trkpt lat="45.61434" lon="6.77557">
        <ele>813.8</ele>
        <time>2021-05-27T13:11:41Z</time>
      </trkpt>
      <trkpt lat="45.61427" lon="6.77558">
        <ele>813.8</ele>
        <time>2021-05-27T13:11:42Z</time>
      </trkpt>
      <trkpt lat="45.61421" lon="6.77561">
        <ele>813.8</ele>
        <time>2021-05-27T13:11:43Z</time>
      </trkpt>
      <trkpt lat="45.61415" lon="6.77564">
        <ele>813.8</ele>
        <time>2021-05-27T13:11:44Z</time>
      </trkpt>
      <trkpt lat="45.61409" lon="6.77566">
        <ele>813.8</ele>
        <time>2021-05-27T13:11:45Z</time>
      </trkpt>
      <trkpt lat="45.61403" lon="6.77569">
        <ele>814</ele>
        <time>2021-05-27T13:11:46Z</time>
      </trkpt>
      <trkpt lat="45.61397" lon="6.77571">
        <ele>814.4</ele>
        <time>2021-05-27T13:11:47Z</time>
      </trkpt>
      <trkpt lat="45.6139" lon="6.77572">
        <ele>814.4</ele>
        <time>2021-05-27T13:11:48Z</time>
      </trkpt>
      <trkpt lat="45.61384" lon="6.77572">
        <ele>814.4</ele>
        <time>2021-05-27T13:11:49Z</time>
      </trkpt>
      <trkpt lat="45.61378" lon="6.77573">
        <ele>814.4</ele>
        <time>2021-05-27T13:11:50Z</time>
      </trkpt>
      <trkpt lat="45.61372" lon="6.77573">
        <ele>814.4</ele>
        <time>2021-05-27T13:11:51Z</time>
      </trkpt>
      <trkpt lat="45.61365" lon="6.77572">
        <ele>814.4</ele>
        <time>2021-05-27T13:11:52Z</time>
      </trkpt>
      <trkpt lat="45.61359" lon="6.7757">
        <ele>814.6</ele>
        <time>2021-05-27T13:11:53Z</time>
      </trkpt>
      <trkpt lat="45.61353" lon="6.77568">
        <ele>814.4</ele>
        <time>2021-05-27T13:11:54Z</time>
      </trkpt>
      <trkpt lat="45.61348" lon="6.77565">
        <ele>814.4</ele>
        <time>2021-05-27T13:11:55Z</time>
      </trkpt>
      <trkpt lat="45.61342" lon="6.77562">
        <ele>814.2</ele>
        <time>2021-05-27T13:11:56Z</time>
      </trkpt>
      <trkpt lat="45.61337" lon="6.77559">
        <ele>814.2</ele>
        <time>2021-05-27T13:11:57Z</time>
      </trkpt>
      <trkpt lat="45.61331" lon="6.77554">
        <ele>814</ele>
        <time>2021-05-27T13:11:58Z</time>
      </trkpt>
      <trkpt lat="45.61326" lon="6.7755">
        <ele>813.8</ele>
        <time>2021-05-27T13:11:59Z</time>
      </trkpt>
      <trkpt lat="45.61322" lon="6.77546">
        <ele>813.6</ele>
        <time>2021-05-27T13:12:00Z</time>
      </trkpt>
      <trkpt lat="45.61317" lon="6.7754">
        <ele>813.4</ele>
        <time>2021-05-27T13:12:01Z</time>
      </trkpt>
      <trkpt lat="45.61312" lon="6.77536">
        <ele>813.4</ele>
        <time>2021-05-27T13:12:02Z</time>
      </trkpt>
      <trkpt lat="45.61307" lon="6.7753">
        <ele>813.4</ele>
        <time>2021-05-27T13:12:03Z</time>
      </trkpt>
      <trkpt lat="45.61302" lon="6.77526">
        <ele>813.2</ele>
        <time>2021-05-27T13:12:04Z</time>
      </trkpt>
      <trkpt lat="45.61297" lon="6.77522">
        <ele>813.4</ele>
        <time>2021-05-27T13:12:05Z</time>
      </trkpt>
      <trkpt lat="45.61292" lon="6.77519">
        <ele>813.2</ele>
        <time>2021-05-27T13:12:06Z</time>
      </trkpt>
      <trkpt lat="45.61287" lon="6.77516">
        <ele>813</ele>
        <time>2021-05-27T13:12:07Z</time>
      </trkpt>
      <trkpt lat="45.61283" lon="6.77513">
        <ele>812.6</ele>
        <time>2021-05-27T13:12:08Z</time>
      </trkpt>
      <trkpt lat="45.61279" lon="6.7751">
        <ele>812.4</ele>
        <time>2021-05-27T13:12:09Z</time>
      </trkpt>
      <trkpt lat="45.61275" lon="6.77506">
        <ele>812</ele>
        <time>2021-05-27T13:12:10Z</time>
      </trkpt>
      <trkpt lat="45.61271" lon="6.77503">
        <ele>811.8</ele>
        <time>2021-05-27T13:12:11Z</time>
      </trkpt>
      <trkpt lat="45.61268" lon="6.77499">
        <ele>811.8</ele>
        <time>2021-05-27T13:12:12Z</time>
      </trkpt>
      <trkpt lat="45.61265" lon="6.77495">
        <ele>811.8</ele>
        <time>2021-05-27T13:12:13Z</time>
      </trkpt>
      <trkpt lat="45.61262" lon="6.77491">
        <ele>811.8</ele>
        <time>2021-05-27T13:12:14Z</time>
      </trkpt>
      <trkpt lat="45.61259" lon="6.77486">
        <ele>811.8</ele>
        <time>2021-05-27T13:12:15Z</time>
      </trkpt>
      <trkpt lat="45.61256" lon="6.77479">
        <ele>811.8</ele>
        <time>2021-05-27T13:12:16Z</time>
      </trkpt>
      <trkpt lat="45.61253" lon="6.77472">
        <ele>812</ele>
        <time>2021-05-27T13:12:17Z</time>
      </trkpt>
      <trkpt lat="45.6125" lon="6.77464">
        <ele>812</ele>
        <time>2021-05-27T13:12:18Z</time>
      </trkpt>
      <trkpt lat="45.61247" lon="6.77456">
        <ele>812.2</ele>
        <time>2021-05-27T13:12:19Z</time>
      </trkpt>
      <trkpt lat="45.61244" lon="6.77448">
        <ele>812.4</ele>
        <time>2021-05-27T13:12:20Z</time>
      </trkpt>
      <trkpt lat="45.6124" lon="6.7744">
        <ele>812.4</ele>
        <time>2021-05-27T13:12:21Z</time>
      </trkpt>
      <trkpt lat="45.61236" lon="6.77433">
        <ele>812.2</ele>
        <time>2021-05-27T13:12:22Z</time>
      </trkpt>
      <trkpt lat="45.61233" lon="6.77426">
        <ele>812.4</ele>
        <time>2021-05-27T13:12:23Z</time>
      </trkpt>
      <trkpt lat="45.61229" lon="6.77419">
        <ele>812.2</ele>
        <time>2021-05-27T13:12:24Z</time>
      </trkpt>
      <trkpt lat="45.61226" lon="6.77412">
        <ele>812.2</ele>
        <time>2021-05-27T13:12:25Z</time>
      </trkpt>
      <trkpt lat="45.61222" lon="6.77406">
        <ele>812.4</ele>
        <time>2021-05-27T13:12:26Z</time>
      </trkpt>
      <trkpt lat="45.61218" lon="6.774">
        <ele>812.6</ele>
        <time>2021-05-27T13:12:27Z</time>
      </trkpt>
      <trkpt lat="45.61215" lon="6.77395">
        <ele>812.6</ele>
        <time>2021-05-27T13:12:28Z</time>
      </trkpt>
      <trkpt lat="45.61212" lon="6.77389">
        <ele>812.2</ele>
        <time>2021-05-27T13:12:29Z</time>
      </trkpt>
      <trkpt lat="45.61208" lon="6.77384">
        <ele>812.4</ele>
        <time>2021-05-27T13:12:30Z</time>
      </trkpt>
      <trkpt lat="45.61205" lon="6.77378">
        <ele>812.2</ele>
        <time>2021-05-27T13:12:31Z</time>
      </trkpt>
      <trkpt lat="45.61202" lon="6.77374">
        <ele>812</ele>
        <time>2021-05-27T13:12:32Z</time>
      </trkpt>
      <trkpt lat="45.61199" lon="6.77369">
        <ele>812</ele>
        <time>2021-05-27T13:12:33Z</time>
      </trkpt>
      <trkpt lat="45.61196" lon="6.77366">
        <ele>811.6</ele>
        <time>2021-05-27T13:12:34Z</time>
      </trkpt>
      <trkpt lat="45.61194" lon="6.77362">
        <ele>811.6</ele>
        <time>2021-05-27T13:12:35Z</time>
      </trkpt>
      <trkpt lat="45.61191" lon="6.7736">
        <ele>811.6</ele>
        <time>2021-05-27T13:12:36Z</time>
      </trkpt>
      <trkpt lat="45.61188" lon="6.77358">
        <ele>811.6</ele>
        <time>2021-05-27T13:12:37Z</time>
      </trkpt>
      <trkpt lat="45.61186" lon="6.77357">
        <ele>811.6</ele>
        <time>2021-05-27T13:12:38Z</time>
      </trkpt>
      <trkpt lat="45.61184" lon="6.77355">
        <ele>811.6</ele>
        <time>2021-05-27T13:12:39Z</time>
      </trkpt>
      <trkpt lat="45.61184" lon="6.77352">
        <ele>811.6</ele>
        <time>2021-05-27T13:12:40Z</time>
      </trkpt>
      <trkpt lat="45.61186" lon="6.77348">
        <ele>811.4</ele>
        <time>2021-05-27T13:12:41Z</time>
      </trkpt>
      <trkpt lat="45.61188" lon="6.77345">
        <ele>811</ele>
        <time>2021-05-27T13:12:42Z</time>
      </trkpt>
      <trkpt lat="45.61191" lon="6.7734">
        <ele>811</ele>
        <time>2021-05-27T13:12:43Z</time>
      </trkpt>
      <trkpt lat="45.61194" lon="6.77336">
        <ele>811</ele>
        <time>2021-05-27T13:12:44Z</time>
      </trkpt>
      <trkpt lat="45.61198" lon="6.77332">
        <ele>811</ele>
        <time>2021-05-27T13:12:45Z</time>
      </trkpt>
      <trkpt lat="45.61202" lon="6.77327">
        <ele>810.8</ele>
        <time>2021-05-27T13:12:46Z</time>
      </trkpt>
      <trkpt lat="45.61208" lon="6.77323">
        <ele>811.2</ele>
        <time>2021-05-27T13:12:47Z</time>
      </trkpt>
      <trkpt lat="45.61212" lon="6.7732">
        <ele>811.2</ele>
        <time>2021-05-27T13:12:48Z</time>
      </trkpt>
      <trkpt lat="45.61218" lon="6.77317">
        <ele>811.4</ele>
        <time>2021-05-27T13:12:49Z</time>
      </trkpt>
      <trkpt lat="45.61224" lon="6.77313">
        <ele>811.6</ele>
        <time>2021-05-27T13:12:50Z</time>
      </trkpt>
      <trkpt lat="45.61229" lon="6.77309">
        <ele>811.4</ele>
        <time>2021-05-27T13:12:51Z</time>
      </trkpt>
      <trkpt lat="45.61235" lon="6.77305">
        <ele>811.6</ele>
        <time>2021-05-27T13:12:52Z</time>
      </trkpt>
      <trkpt lat="45.61241" lon="6.77301">
        <ele>811.6</ele>
        <time>2021-05-27T13:12:53Z</time>
      </trkpt>
      <trkpt lat="45.61247" lon="6.773">
        <ele>811.6</ele>
        <time>2021-05-27T13:12:54Z</time>
      </trkpt>
      <trkpt lat="45.61253" lon="6.77301">
        <ele>811.6</ele>
        <time>2021-05-27T13:12:55Z</time>
      </trkpt>
      <trkpt lat="45.61258" lon="6.77301">
        <ele>811.6</ele>
        <time>2021-05-27T13:12:56Z</time>
      </trkpt>
      <trkpt lat="45.61264" lon="6.773">
        <ele>811.6</ele>
        <time>2021-05-27T13:12:57Z</time>
      </trkpt>
      <trkpt lat="45.61268" lon="6.773">
        <ele>811.6</ele>
        <time>2021-05-27T13:12:58Z</time>
      </trkpt>
      <trkpt lat="45.61273" lon="6.77298">
        <ele>811.8</ele>
        <time>2021-05-27T13:12:59Z</time>
      </trkpt>
      <trkpt lat="45.61278" lon="6.77296">
        <ele>812</ele>
        <time>2021-05-27T13:13:00Z</time>
      </trkpt>
      <trkpt lat="45.61282" lon="6.77294">
        <ele>812.2</ele>
        <time>2021-05-27T13:13:01Z</time>
      </trkpt>
      <trkpt lat="45.61287" lon="6.77292">
        <ele>812</ele>
        <time>2021-05-27T13:13:02Z</time>
      </trkpt>
      <trkpt lat="45.61291" lon="6.7729">
        <ele>812</ele>
        <time>2021-05-27T13:13:03Z</time>
      </trkpt>
      <trkpt lat="45.61295" lon="6.77289">
        <ele>812.2</ele>
        <time>2021-05-27T13:13:04Z</time>
      </trkpt>
      <trkpt lat="45.613" lon="6.77289">
        <ele>812.2</ele>
        <time>2021-05-27T13:13:05Z</time>
      </trkpt>
      <trkpt lat="45.61304" lon="6.77289">
        <ele>812.4</ele>
        <time>2021-05-27T13:13:06Z</time>
      </trkpt>
      <trkpt lat="45.61309" lon="6.77289">
        <ele>812.6</ele>
        <time>2021-05-27T13:13:07Z</time>
      </trkpt>
      <trkpt lat="45.61313" lon="6.77289">
        <ele>813</ele>
        <time>2021-05-27T13:13:08Z</time>
      </trkpt>
      <trkpt lat="45.61317" lon="6.77289">
        <ele>813.2</ele>
        <time>2021-05-27T13:13:09Z</time>
      </trkpt>
      <trkpt lat="45.61321" lon="6.77289">
        <ele>813.4</ele>
        <time>2021-05-27T13:13:10Z</time>
      </trkpt>
      <trkpt lat="45.61325" lon="6.77288">
        <ele>813.8</ele>
        <time>2021-05-27T13:13:11Z</time>
      </trkpt>
      <trkpt lat="45.61331" lon="6.77288">
        <ele>814</ele>
        <time>2021-05-27T13:13:12Z</time>
      </trkpt>
      <trkpt lat="45.61335" lon="6.77288">
        <ele>814.4</ele>
        <time>2021-05-27T13:13:13Z</time>
      </trkpt>
      <trkpt lat="45.6134" lon="6.77288">
        <ele>814.6</ele>
        <time>2021-05-27T13:13:14Z</time>
      </trkpt>
      <trkpt lat="45.61345" lon="6.77289">
        <ele>814.6</ele>
        <time>2021-05-27T13:13:15Z</time>
      </trkpt>
      <trkpt lat="45.6135" lon="6.7729">
        <ele>814.8</ele>
        <time>2021-05-27T13:13:16Z</time>
      </trkpt>
      <trkpt lat="45.61355" lon="6.77293">
        <ele>815</ele>
        <time>2021-05-27T13:13:17Z</time>
      </trkpt>
      <trkpt lat="45.6136" lon="6.77297">
        <ele>815</ele>
        <time>2021-05-27T13:13:18Z</time>
      </trkpt>
      <trkpt lat="45.61364" lon="6.77301">
        <ele>815</ele>
        <time>2021-05-27T13:13:19Z</time>
      </trkpt>
      <trkpt lat="45.6137" lon="6.77305">
        <ele>815.2</ele>
        <time>2021-05-27T13:13:20Z</time>
      </trkpt>
      <trkpt lat="45.61375" lon="6.77309">
        <ele>815</ele>
        <time>2021-05-27T13:13:21Z</time>
      </trkpt>
      <trkpt lat="45.61381" lon="6.77313">
        <ele>815</ele>
        <time>2021-05-27T13:13:22Z</time>
      </trkpt>
      <trkpt lat="45.61387" lon="6.77317">
        <ele>815</ele>
        <time>2021-05-27T13:13:23Z</time>
      </trkpt>
      <trkpt lat="45.61392" lon="6.7732">
        <ele>814.8</ele>
        <time>2021-05-27T13:13:24Z</time>
      </trkpt>
      <trkpt lat="45.61399" lon="6.77323">
        <ele>814.8</ele>
        <time>2021-05-27T13:13:25Z</time>
      </trkpt>
      <trkpt lat="45.61405" lon="6.77326">
        <ele>814.4</ele>
        <time>2021-05-27T13:13:26Z</time>
      </trkpt>
      <trkpt lat="45.61412" lon="6.7733">
        <ele>814.2</ele>
        <time>2021-05-27T13:13:27Z</time>
      </trkpt>
      <trkpt lat="45.61418" lon="6.77334">
        <ele>814</ele>
        <time>2021-05-27T13:13:28Z</time>
      </trkpt>
      <trkpt lat="45.61423" lon="6.77339">
        <ele>813.8</ele>
        <time>2021-05-27T13:13:29Z</time>
      </trkpt>
      <trkpt lat="45.61429" lon="6.77345">
        <ele>813.6</ele>
        <time>2021-05-27T13:13:30Z</time>
      </trkpt>
      <trkpt lat="45.61435" lon="6.7735">
        <ele>813.2</ele>
        <time>2021-05-27T13:13:31Z</time>
      </trkpt>
      <trkpt lat="45.61441" lon="6.77355">
        <ele>813.2</ele>
        <time>2021-05-27T13:13:32Z</time>
      </trkpt>
      <trkpt lat="45.61447" lon="6.7736">
        <ele>813.2</ele>
        <time>2021-05-27T13:13:33Z</time>
      </trkpt>
      <trkpt lat="45.61453" lon="6.77364">
        <ele>812.8</ele>
        <time>2021-05-27T13:13:34Z</time>
      </trkpt>
      <trkpt lat="45.6146" lon="6.77366">
        <ele>813</ele>
        <time>2021-05-27T13:13:35Z</time>
      </trkpt>
      <trkpt lat="45.61468" lon="6.77367">
        <ele>812.6</ele>
        <time>2021-05-27T13:13:36Z</time>
      </trkpt>
      <trkpt lat="45.61475" lon="6.77367">
        <ele>812.6</ele>
        <time>2021-05-27T13:13:37Z</time>
      </trkpt>
      <trkpt lat="45.61483" lon="6.77366">
        <ele>812.4</ele>
        <time>2021-05-27T13:13:38Z</time>
      </trkpt>
      <trkpt lat="45.61491" lon="6.77366">
        <ele>812.4</ele>
        <time>2021-05-27T13:13:39Z</time>
      </trkpt>
      <trkpt lat="45.61499" lon="6.77364">
        <ele>812.2</ele>
        <time>2021-05-27T13:13:40Z</time>
      </trkpt>
      <trkpt lat="45.61507" lon="6.77364">
        <ele>812.2</ele>
        <time>2021-05-27T13:13:41Z</time>
      </trkpt>
      <trkpt lat="45.61514" lon="6.77363">
        <ele>812.2</ele>
        <time>2021-05-27T13:13:42Z</time>
      </trkpt>
      <trkpt lat="45.61522" lon="6.77362">
        <ele>812</ele>
        <time>2021-05-27T13:13:43Z</time>
      </trkpt>
      <trkpt lat="45.6153" lon="6.77361">
        <ele>811.8</ele>
        <time>2021-05-27T13:13:44Z</time>
      </trkpt>
      <trkpt lat="45.61537" lon="6.77359">
        <ele>811.8</ele>
        <time>2021-05-27T13:13:45Z</time>
      </trkpt>
      <trkpt lat="45.61544" lon="6.77357">
        <ele>811.8</ele>
        <time>2021-05-27T13:13:46Z</time>
      </trkpt>
      <trkpt lat="45.61552" lon="6.77354">
        <ele>811.6</ele>
        <time>2021-05-27T13:13:47Z</time>
      </trkpt>
      <trkpt lat="45.61559" lon="6.77352">
        <ele>811.6</ele>
        <time>2021-05-27T13:13:48Z</time>
      </trkpt>
      <trkpt lat="45.61567" lon="6.77351">
        <ele>811.6</ele>
        <time>2021-05-27T13:13:49Z</time>
      </trkpt>
      <trkpt lat="45.61574" lon="6.77349">
        <ele>811.4</ele>
        <time>2021-05-27T13:13:50Z</time>
      </trkpt>
      <trkpt lat="45.61582" lon="6.77348">
        <ele>811.4</ele>
        <time>2021-05-27T13:13:51Z</time>
      </trkpt>
      <trkpt lat="45.61589" lon="6.77347">
        <ele>811.4</ele>
        <time>2021-05-27T13:13:52Z</time>
      </trkpt>
      <trkpt lat="45.61597" lon="6.77346">
        <ele>811.6</ele>
        <time>2021-05-27T13:13:53Z</time>
      </trkpt>
      <trkpt lat="45.61604" lon="6.77344">
        <ele>811.4</ele>
        <time>2021-05-27T13:13:54Z</time>
      </trkpt>
      <trkpt lat="45.61611" lon="6.77342">
        <ele>811.4</ele>
        <time>2021-05-27T13:13:55Z</time>
      </trkpt>
      <trkpt lat="45.61618" lon="6.7734">
        <ele>811.2</ele>
        <time>2021-05-27T13:13:56Z</time>
      </trkpt>
      <trkpt lat="45.61626" lon="6.77339">
        <ele>811.4</ele>
        <time>2021-05-27T13:13:57Z</time>
      </trkpt>
      <trkpt lat="45.61633" lon="6.77338">
        <ele>811.2</ele>
        <time>2021-05-27T13:13:58Z</time>
      </trkpt>
      <trkpt lat="45.61641" lon="6.77336">
        <ele>811.2</ele>
        <time>2021-05-27T13:13:59Z</time>
      </trkpt>
      <trkpt lat="45.61648" lon="6.77335">
        <ele>811.2</ele>
        <time>2021-05-27T13:14:00Z</time>
      </trkpt>
      <trkpt lat="45.61655" lon="6.77333">
        <ele>811.2</ele>
        <time>2021-05-27T13:14:01Z</time>
      </trkpt>
      <trkpt lat="45.61663" lon="6.77332">
        <ele>811.4</ele>
        <time>2021-05-27T13:14:02Z</time>
      </trkpt>
      <trkpt lat="45.6167" lon="6.77331">
        <ele>811.4</ele>
        <time>2021-05-27T13:14:03Z</time>
      </trkpt>
      <trkpt lat="45.61677" lon="6.77329">
        <ele>811.8</ele>
        <time>2021-05-27T13:14:04Z</time>
      </trkpt>
      <trkpt lat="45.61685" lon="6.77328">
        <ele>811.6</ele>
        <time>2021-05-27T13:14:05Z</time>
      </trkpt>
      <trkpt lat="45.61692" lon="6.77326">
        <ele>811.8</ele>
        <time>2021-05-27T13:14:06Z</time>
      </trkpt>
      <trkpt lat="45.617" lon="6.77323">
        <ele>811.8</ele>
        <time>2021-05-27T13:14:07Z</time>
      </trkpt>
      <trkpt lat="45.61707" lon="6.77321">
        <ele>811.8</ele>
        <time>2021-05-27T13:14:08Z</time>
      </trkpt>
      <trkpt lat="45.61714" lon="6.77318">
        <ele>811.8</ele>
        <time>2021-05-27T13:14:09Z</time>
      </trkpt>
      <trkpt lat="45.61721" lon="6.77316">
        <ele>812</ele>
        <time>2021-05-27T13:14:10Z</time>
      </trkpt>
      <trkpt lat="45.61729" lon="6.77315">
        <ele>812</ele>
        <time>2021-05-27T13:14:11Z</time>
      </trkpt>
      <trkpt lat="45.61736" lon="6.77313">
        <ele>812.2</ele>
        <time>2021-05-27T13:14:12Z</time>
      </trkpt>
      <trkpt lat="45.61743" lon="6.77311">
        <ele>812.2</ele>
        <time>2021-05-27T13:14:13Z</time>
      </trkpt>
      <trkpt lat="45.6175" lon="6.7731">
        <ele>812</ele>
        <time>2021-05-27T13:14:14Z</time>
      </trkpt>
      <trkpt lat="45.61756" lon="6.77308">
        <ele>812.2</ele>
        <time>2021-05-27T13:14:15Z</time>
      </trkpt>
      <trkpt lat="45.61761" lon="6.77306">
        <ele>812</ele>
        <time>2021-05-27T13:14:16Z</time>
      </trkpt>
      <trkpt lat="45.61765" lon="6.77302">
        <ele>812</ele>
        <time>2021-05-27T13:14:17Z</time>
      </trkpt>
      <trkpt lat="45.61768" lon="6.77298">
        <ele>812</ele>
        <time>2021-05-27T13:14:18Z</time>
      </trkpt>
      <trkpt lat="45.61772" lon="6.77294">
        <ele>812.2</ele>
        <time>2021-05-27T13:14:19Z</time>
      </trkpt>
      <trkpt lat="45.61776" lon="6.77292">
        <ele>812.2</ele>
        <time>2021-05-27T13:14:20Z</time>
      </trkpt>
      <trkpt lat="45.61781" lon="6.7729">
        <ele>812.2</ele>
        <time>2021-05-27T13:14:21Z</time>
      </trkpt>
      <trkpt lat="45.61786" lon="6.77288">
        <ele>812.2</ele>
        <time>2021-05-27T13:14:22Z</time>
      </trkpt>
      <trkpt lat="45.61792" lon="6.77286">
        <ele>812.4</ele>
        <time>2021-05-27T13:14:23Z</time>
      </trkpt>
      <trkpt lat="45.61797" lon="6.77284">
        <ele>812.2</ele>
        <time>2021-05-27T13:14:24Z</time>
      </trkpt>
      <trkpt lat="45.61802" lon="6.77283">
        <ele>812.2</ele>
        <time>2021-05-27T13:14:25Z</time>
      </trkpt>
      <trkpt lat="45.61808" lon="6.77281">
        <ele>812.2</ele>
        <time>2021-05-27T13:14:26Z</time>
      </trkpt>
      <trkpt lat="45.61813" lon="6.7728">
        <ele>812.2</ele>
        <time>2021-05-27T13:14:27Z</time>
      </trkpt>
      <trkpt lat="45.61818" lon="6.77277">
        <ele>812.2</ele>
        <time>2021-05-27T13:14:28Z</time>
      </trkpt>
      <trkpt lat="45.61823" lon="6.77273">
        <ele>812</ele>
        <time>2021-05-27T13:14:29Z</time>
      </trkpt>
      <trkpt lat="45.61828" lon="6.77271">
        <ele>812.2</ele>
        <time>2021-05-27T13:14:30Z</time>
      </trkpt>
      <trkpt lat="45.61832" lon="6.77268">
        <ele>812.2</ele>
        <time>2021-05-27T13:14:31Z</time>
      </trkpt>
      <trkpt lat="45.61836" lon="6.77266">
        <ele>812</ele>
        <time>2021-05-27T13:14:32Z</time>
      </trkpt>
      <trkpt lat="45.61838" lon="6.77264">
        <ele>812</ele>
        <time>2021-05-27T13:14:33Z</time>
      </trkpt>
      <trkpt lat="45.61841" lon="6.77262">
        <ele>812</ele>
        <time>2021-05-27T13:14:34Z</time>
      </trkpt>
      <trkpt lat="45.61844" lon="6.77262">
        <ele>811.8</ele>
        <time>2021-05-27T13:14:37Z</time>
      </trkpt>
    </trkseg>
  </trk>
</gpx>